<?xml version='1.0' encoding='UTF-8'?><gpx version="1.1" creator="JPX - https://github.com/jenetics/jpx" xmlns="http://www.topografix.com/GPX/1/1"><trk><trkseg><trkpt lat="46.279028" lon="13.1298818"><ele>198.0</ele><time>2026-04-19T06:09:19.222Z</time></trkpt><trkpt lat="46.279012" lon="13.1297876"><ele>198.0</ele><time>2026-04-19T06:09:24.222Z</time></trkpt><trkpt lat="46.2789892" lon="13.1296828"><ele>198.0</ele><time>2026-04-19T06:09:28.222Z</time></trkpt><trkpt lat="46.2789765" lon="13.1295818"><ele>198.0</ele><time>2026-04-19T06:09:40.222Z</time></trkpt><trkpt lat="46.2789499" lon="13.1294946"><ele>198.0</ele><time>2026-04-19T06:09:56.222Z</time></trkpt><trkpt lat="46.2789488" lon="13.1293861"><ele>198.0</ele><time>2026-04-19T06:09:58.222Z</time></trkpt><trkpt lat="46.2789937" lon="13.1292199"><ele>198.0</ele><time>2026-04-19T06:10:00.221Z</time></trkpt><trkpt lat="46.2790317" lon="13.1291307"><ele>198.0</ele><time>2026-04-19T06:10:01.222Z</time></trkpt><trkpt lat="46.279054" lon="13.129039"><ele>198.0</ele><time>2026-04-19T06:10:02.222Z</time></trkpt><trkpt lat="46.2790655" lon="13.1289321"><ele>198.0</ele><time>2026-04-19T06:10:03.222Z</time></trkpt><trkpt lat="46.2790746" lon="13.1288141"><ele>198.0</ele><time>2026-04-19T06:10:04.222Z</time></trkpt><trkpt lat="46.2790791" lon="13.128687"><ele>198.0</ele><time>2026-04-19T06:10:05.222Z</time></trkpt><trkpt lat="46.2790794" lon="13.1285743"><ele>197.66666666666666</ele><time>2026-04-19T06:10:06.221Z</time></trkpt><trkpt lat="46.2790752" lon="13.1284569"><ele>197.33333333333331</ele><time>2026-04-19T06:10:07.222Z</time></trkpt><trkpt lat="46.2790682" lon="13.1283345"><ele>197.0</ele><time>2026-04-19T06:10:08.222Z</time></trkpt><trkpt lat="46.2790576" lon="13.1282099"><ele>196.66666666666666</ele><time>2026-04-19T06:10:09.221Z</time></trkpt><trkpt lat="46.2790457" lon="13.1280891"><ele>196.33333333333331</ele><time>2026-04-19T06:10:10.223Z</time></trkpt><trkpt lat="46.2790349" lon="13.1279711"><ele>196.0</ele><time>2026-04-19T06:10:11.222Z</time></trkpt><trkpt lat="46.2790243" lon="13.1278684"><ele>195.8</ele><time>2026-04-19T06:10:12.223Z</time></trkpt><trkpt lat="46.2790163" lon="13.1276936"><ele>195.60000000000002</ele><time>2026-04-19T06:10:14.221Z</time></trkpt><trkpt lat="46.279017" lon="13.1275354"><ele>195.4</ele><time>2026-04-19T06:10:16.223Z</time></trkpt><trkpt lat="46.2790214" lon="13.1273543"><ele>195.2</ele><time>2026-04-19T06:10:18.222Z</time></trkpt><trkpt lat="46.2790256" lon="13.1272566"><ele>195.0</ele><time>2026-04-19T06:10:19.222Z</time></trkpt><trkpt lat="46.2790303" lon="13.1271557"><ele>195.0</ele><time>2026-04-19T06:10:20.222Z</time></trkpt><trkpt lat="46.2790335" lon="13.1270537"><ele>195.0</ele><time>2026-04-19T06:10:21.222Z</time></trkpt><trkpt lat="46.2790338" lon="13.1269492"><ele>195.0</ele><time>2026-04-19T06:10:22.222Z</time></trkpt><trkpt lat="46.279031" lon="13.1268339"><ele>195.0</ele><time>2026-04-19T06:10:23.221Z</time></trkpt><trkpt lat="46.2790298" lon="13.1267107"><ele>195.0</ele><time>2026-04-19T06:10:24.221Z</time></trkpt><trkpt lat="46.2790314" lon="13.1265887"><ele>195.0</ele><time>2026-04-19T06:10:25.221Z</time></trkpt><trkpt lat="46.2790304" lon="13.126474"><ele>195.16666666666666</ele><time>2026-04-19T06:10:26.221Z</time></trkpt><trkpt lat="46.2790293" lon="13.1263685"><ele>195.33333333333331</ele><time>2026-04-19T06:10:27.222Z</time></trkpt><trkpt lat="46.2790405" lon="13.1262753"><ele>195.5</ele><time>2026-04-19T06:10:28.223Z</time></trkpt><trkpt lat="46.2791237" lon="13.1261436"><ele>195.66666666666666</ele><time>2026-04-19T06:10:30.222Z</time></trkpt><trkpt lat="46.2791946" lon="13.1260955"><ele>195.83333333333331</ele><time>2026-04-19T06:10:31.222Z</time></trkpt><trkpt lat="46.2792716" lon="13.1260636"><ele>196.0</ele><time>2026-04-19T06:10:32.222Z</time></trkpt><trkpt lat="46.2793479" lon="13.1260206"><ele>196.0</ele><time>2026-04-19T06:10:33.222Z</time></trkpt><trkpt lat="46.2794317" lon="13.1259739"><ele>196.0</ele><time>2026-04-19T06:10:34.222Z</time></trkpt><trkpt lat="46.279518" lon="13.1259198"><ele>196.0</ele><time>2026-04-19T06:10:35.222Z</time></trkpt><trkpt lat="46.279605" lon="13.1258756"><ele>196.0</ele><time>2026-04-19T06:10:36.223Z</time></trkpt><trkpt lat="46.2796967" lon="13.1258269"><ele>196.0</ele><time>2026-04-19T06:10:37.222Z</time></trkpt><trkpt lat="46.279803" lon="13.1257755"><ele>196.5</ele><time>2026-04-19T06:10:38.222Z</time></trkpt><trkpt lat="46.2799171" lon="13.1257138"><ele>197.0</ele><time>2026-04-19T06:10:39.222Z</time></trkpt><trkpt lat="46.280032" lon="13.1256599"><ele>197.5</ele><time>2026-04-19T06:10:40.221Z</time></trkpt><trkpt lat="46.280152" lon="13.1256085"><ele>198.0</ele><time>2026-04-19T06:10:41.223Z</time></trkpt><trkpt lat="46.2802784" lon="13.1255429"><ele>198.0</ele><time>2026-04-19T06:10:42.223Z</time></trkpt><trkpt lat="46.2804148" lon="13.1254806"><ele>198.0</ele><time>2026-04-19T06:10:43.221Z</time></trkpt><trkpt lat="46.2805561" lon="13.1254078"><ele>198.0</ele><time>2026-04-19T06:10:44.222Z</time></trkpt><trkpt lat="46.2807019" lon="13.1253288"><ele>198.0</ele><time>2026-04-19T06:10:45.221Z</time></trkpt><trkpt lat="46.2808487" lon="13.1252507"><ele>198.33333333333331</ele><time>2026-04-19T06:10:46.222Z</time></trkpt><trkpt lat="46.2809945" lon="13.125172"><ele>198.66666666666666</ele><time>2026-04-19T06:10:47.222Z</time></trkpt><trkpt lat="46.2811393" lon="13.1250891"><ele>199.0</ele><time>2026-04-19T06:10:48.222Z</time></trkpt><trkpt lat="46.2812849" lon="13.1250043"><ele>199.33333333333331</ele><time>2026-04-19T06:10:49.222Z</time></trkpt><trkpt lat="46.2814363" lon="13.1249302"><ele>199.66666666666669</ele><time>2026-04-19T06:10:50.223Z</time></trkpt><trkpt lat="46.2815897" lon="13.1248471"><ele>200.0</ele><time>2026-04-19T06:10:51.221Z</time></trkpt><trkpt lat="46.2817432" lon="13.1247716"><ele>200.0</ele><time>2026-04-19T06:10:52.221Z</time></trkpt><trkpt lat="46.2818961" lon="13.1246926"><ele>200.0</ele><time>2026-04-19T06:10:53.222Z</time></trkpt><trkpt lat="46.2820498" lon="13.124616"><ele>200.0</ele><time>2026-04-19T06:10:54.222Z</time></trkpt><trkpt lat="46.2822055" lon="13.1245485"><ele>200.0</ele><time>2026-04-19T06:10:55.222Z</time></trkpt><trkpt lat="46.2823604" lon="13.1244721"><ele>200.0</ele><time>2026-04-19T06:10:56.222Z</time></trkpt><trkpt lat="46.2825183" lon="13.1244014"><ele>200.0</ele><time>2026-04-19T06:10:57.222Z</time></trkpt><trkpt lat="46.282674" lon="13.1243238"><ele>200.0</ele><time>2026-04-19T06:10:58.221Z</time></trkpt><trkpt lat="46.2828321" lon="13.1242531"><ele>200.0</ele><time>2026-04-19T06:10:59.223Z</time></trkpt><trkpt lat="46.2829891" lon="13.1241738"><ele>200.0</ele><time>2026-04-19T06:11:00.222Z</time></trkpt><trkpt lat="46.2831456" lon="13.1240913"><ele>199.66666666666669</ele><time>2026-04-19T06:11:01.222Z</time></trkpt><trkpt lat="46.2833047" lon="13.1240144"><ele>199.33333333333331</ele><time>2026-04-19T06:11:02.222Z</time></trkpt><trkpt lat="46.2834645" lon="13.1239341"><ele>199.0</ele><time>2026-04-19T06:11:03.222Z</time></trkpt><trkpt lat="46.2836263" lon="13.1238575"><ele>199.0</ele><time>2026-04-19T06:11:04.223Z</time></trkpt><trkpt lat="46.2837881" lon="13.1237788"><ele>199.0</ele><time>2026-04-19T06:11:05.222Z</time></trkpt><trkpt lat="46.2839514" lon="13.1237027"><ele>199.0</ele><time>2026-04-19T06:11:06.221Z</time></trkpt><trkpt lat="46.2841157" lon="13.123623"><ele>199.33333333333331</ele><time>2026-04-19T06:11:07.222Z</time></trkpt><trkpt lat="46.2842845" lon="13.1235425"><ele>199.66666666666669</ele><time>2026-04-19T06:11:08.222Z</time></trkpt><trkpt lat="46.2844479" lon="13.1234596"><ele>200.0</ele><time>2026-04-19T06:11:09.221Z</time></trkpt><trkpt lat="46.2846133" lon="13.1233779"><ele>200.0</ele><time>2026-04-19T06:11:10.221Z</time></trkpt><trkpt lat="46.2847807" lon="13.1233056"><ele>200.0</ele><time>2026-04-19T06:11:11.222Z</time></trkpt><trkpt lat="46.284941" lon="13.123231"><ele>200.0</ele><time>2026-04-19T06:11:12.222Z</time></trkpt><trkpt lat="46.2850974" lon="13.1231507"><ele>199.66666666666669</ele><time>2026-04-19T06:11:13.222Z</time></trkpt><trkpt lat="46.2852476" lon="13.1230805"><ele>199.33333333333331</ele><time>2026-04-19T06:11:14.223Z</time></trkpt><trkpt lat="46.285395" lon="13.123018"><ele>199.0</ele><time>2026-04-19T06:11:15.221Z</time></trkpt><trkpt lat="46.2855345" lon="13.1229593"><ele>198.75</ele><time>2026-04-19T06:11:16.223Z</time></trkpt><trkpt lat="46.2856676" lon="13.1228975"><ele>198.5</ele><time>2026-04-19T06:11:17.222Z</time></trkpt><trkpt lat="46.2857958" lon="13.1228352"><ele>198.25</ele><time>2026-04-19T06:11:18.222Z</time></trkpt><trkpt lat="46.2859196" lon="13.1227778"><ele>198.0</ele><time>2026-04-19T06:11:19.222Z</time></trkpt><trkpt lat="46.2860391" lon="13.1227202"><ele>198.0</ele><time>2026-04-19T06:11:20.222Z</time></trkpt><trkpt lat="46.2861573" lon="13.1226644"><ele>198.0</ele><time>2026-04-19T06:11:21.222Z</time></trkpt><trkpt lat="46.2862679" lon="13.1226166"><ele>198.0</ele><time>2026-04-19T06:11:22.222Z</time></trkpt><trkpt lat="46.2863787" lon="13.1225657"><ele>198.0</ele><time>2026-04-19T06:11:23.221Z</time></trkpt><trkpt lat="46.2864908" lon="13.1225111"><ele>198.2</ele><time>2026-04-19T06:11:24.222Z</time></trkpt><trkpt lat="46.2866028" lon="13.1224571"><ele>198.4</ele><time>2026-04-19T06:11:25.222Z</time></trkpt><trkpt lat="46.2867119" lon="13.1224049"><ele>198.6</ele><time>2026-04-19T06:11:26.222Z</time></trkpt><trkpt lat="46.286809" lon="13.122359"><ele>198.79999999999998</ele><time>2026-04-19T06:11:27.222Z</time></trkpt><trkpt lat="46.2868892" lon="13.1223212"><ele>199.0</ele><time>2026-04-19T06:11:28.223Z</time></trkpt><trkpt lat="46.2869943" lon="13.1223233"><ele>198.99999999999997</ele><time>2026-04-19T06:11:30.223Z</time></trkpt><trkpt lat="46.2870581" lon="13.1224046"><ele>199.0</ele><time>2026-04-19T06:11:32.223Z</time></trkpt><trkpt lat="46.2871177" lon="13.1224664"><ele>199.0</ele><time>2026-04-19T06:11:34.222Z</time></trkpt><trkpt lat="46.2871896" lon="13.1224477"><ele>199.0</ele><time>2026-04-19T06:11:37.223Z</time></trkpt><trkpt lat="46.2872622" lon="13.1224146"><ele>198.99999999999997</ele><time>2026-04-19T06:13:57.221Z</time></trkpt><trkpt lat="46.2872927" lon="13.1223243"><ele>199.0</ele><time>2026-04-19T06:13:59.221Z</time></trkpt><trkpt lat="46.2872701" lon="13.1222122"><ele>199.2</ele><time>2026-04-19T06:14:02.221Z</time></trkpt><trkpt lat="46.2871468" lon="13.1221941"><ele>199.39999999999998</ele><time>2026-04-19T06:14:05.221Z</time></trkpt><trkpt lat="46.2870693" lon="13.1222191"><ele>199.6</ele><time>2026-04-19T06:14:06.221Z</time></trkpt><trkpt lat="46.2869929" lon="13.1222504"><ele>199.8</ele><time>2026-04-19T06:14:07.221Z</time></trkpt><trkpt lat="46.2869049" lon="13.1222905"><ele>200.0</ele><time>2026-04-19T06:14:08.221Z</time></trkpt><trkpt lat="46.2868018" lon="13.1223362"><ele>200.0</ele><time>2026-04-19T06:14:09.221Z</time></trkpt><trkpt lat="46.2866982" lon="13.1223803"><ele>200.0</ele><time>2026-04-19T06:14:10.221Z</time></trkpt><trkpt lat="46.2865882" lon="13.1224307"><ele>200.0</ele><time>2026-04-19T06:14:11.221Z</time></trkpt><trkpt lat="46.2864701" lon="13.1224903"><ele>200.0</ele><time>2026-04-19T06:14:12.22Z</time></trkpt><trkpt lat="46.2863424" lon="13.1225536"><ele>199.33333333333334</ele><time>2026-04-19T06:14:13.22Z</time></trkpt><trkpt lat="46.2862067" lon="13.1226186"><ele>198.66666666666669</ele><time>2026-04-19T06:14:14.221Z</time></trkpt><trkpt lat="46.2860579" lon="13.12269"><ele>198.0</ele><time>2026-04-19T06:14:15.221Z</time></trkpt><trkpt lat="46.2859066" lon="13.1227634"><ele>198.0</ele><time>2026-04-19T06:14:16.221Z</time></trkpt><trkpt lat="46.2857517" lon="13.1228356"><ele>198.0</ele><time>2026-04-19T06:14:17.22Z</time></trkpt><trkpt lat="46.2855918" lon="13.1229167"><ele>198.0</ele><time>2026-04-19T06:14:18.221Z</time></trkpt><trkpt lat="46.2854277" lon="13.1229952"><ele>198.33333333333331</ele><time>2026-04-19T06:14:19.221Z</time></trkpt><trkpt lat="46.2852563" lon="13.1230798"><ele>198.66666666666666</ele><time>2026-04-19T06:14:20.22Z</time></trkpt><trkpt lat="46.2850812" lon="13.1231632"><ele>199.0</ele><time>2026-04-19T06:14:21.221Z</time></trkpt><trkpt lat="46.284903" lon="13.1232457"><ele>199.33333333333331</ele><time>2026-04-19T06:14:22.22Z</time></trkpt><trkpt lat="46.2847201" lon="13.1233322"><ele>199.66666666666669</ele><time>2026-04-19T06:14:23.221Z</time></trkpt><trkpt lat="46.2845377" lon="13.1234194"><ele>200.0</ele><time>2026-04-19T06:14:24.221Z</time></trkpt><trkpt lat="46.2843558" lon="13.1235006"><ele>200.0</ele><time>2026-04-19T06:14:25.222Z</time></trkpt><trkpt lat="46.2841757" lon="13.1235859"><ele>200.0</ele><time>2026-04-19T06:14:26.222Z</time></trkpt><trkpt lat="46.2840006" lon="13.1236694"><ele>200.0</ele><time>2026-04-19T06:14:27.22Z</time></trkpt><trkpt lat="46.283823" lon="13.1237574"><ele>199.66666666666669</ele><time>2026-04-19T06:14:28.222Z</time></trkpt><trkpt lat="46.2836445" lon="13.1238429"><ele>199.33333333333331</ele><time>2026-04-19T06:14:29.222Z</time></trkpt><trkpt lat="46.2834683" lon="13.1239225"><ele>199.0</ele><time>2026-04-19T06:14:30.221Z</time></trkpt><trkpt lat="46.2832925" lon="13.1240035"><ele>199.33333333333331</ele><time>2026-04-19T06:14:31.221Z</time></trkpt><trkpt lat="46.2831181" lon="13.12409"><ele>199.66666666666669</ele><time>2026-04-19T06:14:32.222Z</time></trkpt><trkpt lat="46.2829444" lon="13.1241707"><ele>200.0</ele><time>2026-04-19T06:14:33.22Z</time></trkpt><trkpt lat="46.2827733" lon="13.1242524"><ele>200.0</ele><time>2026-04-19T06:14:34.22Z</time></trkpt><trkpt lat="46.2826029" lon="13.1243353"><ele>200.0</ele><time>2026-04-19T06:14:35.221Z</time></trkpt><trkpt lat="46.2824328" lon="13.1244163"><ele>200.0</ele><time>2026-04-19T06:14:36.22Z</time></trkpt><trkpt lat="46.2822648" lon="13.1244977"><ele>200.0</ele><time>2026-04-19T06:14:37.22Z</time></trkpt><trkpt lat="46.2820951" lon="13.1245775"><ele>200.0</ele><time>2026-04-19T06:14:38.221Z</time></trkpt><trkpt lat="46.2819233" lon="13.1246585"><ele>200.0</ele><time>2026-04-19T06:14:39.221Z</time></trkpt><trkpt lat="46.2817544" lon="13.1247422"><ele>200.0</ele><time>2026-04-19T06:14:40.221Z</time></trkpt><trkpt lat="46.2815861" lon="13.1248216"><ele>200.0</ele><time>2026-04-19T06:14:41.22Z</time></trkpt><trkpt lat="46.2814178" lon="13.1249034"><ele>200.0</ele><time>2026-04-19T06:14:42.22Z</time></trkpt><trkpt lat="46.2812509" lon="13.1249929"><ele>199.66666666666669</ele><time>2026-04-19T06:14:43.221Z</time></trkpt><trkpt lat="46.2810815" lon="13.125086"><ele>199.33333333333331</ele><time>2026-04-19T06:14:44.221Z</time></trkpt><trkpt lat="46.2809156" lon="13.1251775"><ele>199.0</ele><time>2026-04-19T06:14:45.221Z</time></trkpt><trkpt lat="46.280747" lon="13.1252674"><ele>198.66666666666666</ele><time>2026-04-19T06:14:46.221Z</time></trkpt><trkpt lat="46.280584" lon="13.1253479"><ele>198.33333333333331</ele><time>2026-04-19T06:14:47.221Z</time></trkpt><trkpt lat="46.2804301" lon="13.1254181"><ele>198.0</ele><time>2026-04-19T06:14:48.221Z</time></trkpt><trkpt lat="46.2802862" lon="13.1254875"><ele>198.0</ele><time>2026-04-19T06:14:49.221Z</time></trkpt><trkpt lat="46.2801531" lon="13.1255507"><ele>198.0</ele><time>2026-04-19T06:14:50.221Z</time></trkpt><trkpt lat="46.2800286" lon="13.1256175"><ele>198.0</ele><time>2026-04-19T06:14:51.22Z</time></trkpt><trkpt lat="46.2799047" lon="13.1256799"><ele>198.0</ele><time>2026-04-19T06:14:52.22Z</time></trkpt><trkpt lat="46.2797915" lon="13.1257272"><ele>197.60000000000002</ele><time>2026-04-19T06:14:53.22Z</time></trkpt><trkpt lat="46.2796827" lon="13.1257742"><ele>197.20000000000002</ele><time>2026-04-19T06:14:54.22Z</time></trkpt><trkpt lat="46.2795849" lon="13.1258189"><ele>196.8</ele><time>2026-04-19T06:14:55.221Z</time></trkpt><trkpt lat="46.2794955" lon="13.1258607"><ele>196.4</ele><time>2026-04-19T06:14:56.221Z</time></trkpt><trkpt lat="46.2794217" lon="13.1258982"><ele>196.0</ele><time>2026-04-19T06:14:57.221Z</time></trkpt><trkpt lat="46.279358" lon="13.1259276"><ele>195.99999999999997</ele><time>2026-04-19T06:14:58.221Z</time></trkpt><trkpt lat="46.2792661" lon="13.1259729"><ele>196.0</ele><time>2026-04-19T06:15:00.22Z</time></trkpt><trkpt lat="46.2792006" lon="13.125994"><ele>196.0</ele><time>2026-04-19T06:16:09.221Z</time></trkpt><trkpt lat="46.2791161" lon="13.1260368"><ele>196.0</ele><time>2026-04-19T06:16:11.22Z</time></trkpt><trkpt lat="46.2790396" lon="13.1259954"><ele>195.99999999999997</ele><time>2026-04-19T06:16:13.221Z</time></trkpt><trkpt lat="46.2790141" lon="13.1258689"><ele>196.0</ele><time>2026-04-19T06:16:15.221Z</time></trkpt><trkpt lat="46.2790101" lon="13.1257165"><ele>195.75</ele><time>2026-04-19T06:16:16.22Z</time></trkpt><trkpt lat="46.2790103" lon="13.1255719"><ele>195.5</ele><time>2026-04-19T06:16:17.22Z</time></trkpt><trkpt lat="46.2790114" lon="13.1254115"><ele>195.25</ele><time>2026-04-19T06:16:18.22Z</time></trkpt><trkpt lat="46.2790205" lon="13.1252107"><ele>195.0</ele><time>2026-04-19T06:16:19.22Z</time></trkpt><trkpt lat="46.2790236" lon="13.1250576"><ele>195.0</ele><time>2026-04-19T06:16:20.22Z</time></trkpt><trkpt lat="46.2790215" lon="13.1249212"><ele>195.0</ele><time>2026-04-19T06:16:21.22Z</time></trkpt><trkpt lat="46.2790169" lon="13.1247981"><ele>195.0</ele><time>2026-04-19T06:16:22.22Z</time></trkpt><trkpt lat="46.279006" lon="13.1246882"><ele>195.0</ele><time>2026-04-19T06:16:23.22Z</time></trkpt><trkpt lat="46.2790029" lon="13.1245794"><ele>195.0</ele><time>2026-04-19T06:16:24.22Z</time></trkpt><trkpt lat="46.2790079" lon="13.1244639"><ele>195.0</ele><time>2026-04-19T06:16:25.22Z</time></trkpt><trkpt lat="46.2790301" lon="13.1243344"><ele>195.0</ele><time>2026-04-19T06:16:26.22Z</time></trkpt><trkpt lat="46.2790625" lon="13.124192"><ele>195.0</ele><time>2026-04-19T06:16:27.22Z</time></trkpt><trkpt lat="46.2791061" lon="13.1240362"><ele>195.0</ele><time>2026-04-19T06:16:28.219Z</time></trkpt><trkpt lat="46.2791546" lon="13.1238644"><ele>195.0</ele><time>2026-04-19T06:16:29.219Z</time></trkpt><trkpt lat="46.2792012" lon="13.123691"><ele>195.0</ele><time>2026-04-19T06:16:30.219Z</time></trkpt><trkpt lat="46.27925" lon="13.12352"><ele>195.0</ele><time>2026-04-19T06:16:31.22Z</time></trkpt><trkpt lat="46.2792967" lon="13.123347"><ele>195.0</ele><time>2026-04-19T06:16:32.22Z</time></trkpt><trkpt lat="46.2793449" lon="13.1231672"><ele>195.0</ele><time>2026-04-19T06:16:33.22Z</time></trkpt><trkpt lat="46.2793998" lon="13.1229908"><ele>195.0</ele><time>2026-04-19T06:16:34.22Z</time></trkpt><trkpt lat="46.2794431" lon="13.1228088"><ele>195.0</ele><time>2026-04-19T06:16:35.219Z</time></trkpt><trkpt lat="46.2794787" lon="13.1226203"><ele>195.0</ele><time>2026-04-19T06:16:36.22Z</time></trkpt><trkpt lat="46.2795062" lon="13.1224282"><ele>195.0</ele><time>2026-04-19T06:16:37.22Z</time></trkpt><trkpt lat="46.2795275" lon="13.1222267"><ele>195.0</ele><time>2026-04-19T06:16:38.22Z</time></trkpt><trkpt lat="46.2795473" lon="13.1220284"><ele>195.0</ele><time>2026-04-19T06:16:39.22Z</time></trkpt><trkpt lat="46.279572" lon="13.1218286"><ele>195.0</ele><time>2026-04-19T06:16:40.22Z</time></trkpt><trkpt lat="46.2796124" lon="13.1216328"><ele>195.0</ele><time>2026-04-19T06:16:41.22Z</time></trkpt><trkpt lat="46.2796625" lon="13.1214385"><ele>194.75</ele><time>2026-04-19T06:16:42.219Z</time></trkpt><trkpt lat="46.2797154" lon="13.1212409"><ele>194.5</ele><time>2026-04-19T06:16:43.22Z</time></trkpt><trkpt lat="46.2797735" lon="13.1210466"><ele>194.25</ele><time>2026-04-19T06:16:44.22Z</time></trkpt><trkpt lat="46.2798327" lon="13.1208446"><ele>194.0</ele><time>2026-04-19T06:16:45.22Z</time></trkpt><trkpt lat="46.2798926" lon="13.1206418"><ele>194.0</ele><time>2026-04-19T06:16:46.22Z</time></trkpt><trkpt lat="46.2799538" lon="13.1204356"><ele>194.0</ele><time>2026-04-19T06:16:47.22Z</time></trkpt><trkpt lat="46.2800143" lon="13.1202274"><ele>194.0</ele><time>2026-04-19T06:16:48.22Z</time></trkpt><trkpt lat="46.2800791" lon="13.120015"><ele>194.33333333333334</ele><time>2026-04-19T06:16:49.22Z</time></trkpt><trkpt lat="46.2801432" lon="13.1197995"><ele>194.66666666666669</ele><time>2026-04-19T06:16:50.219Z</time></trkpt><trkpt lat="46.2802046" lon="13.1195839"><ele>195.0</ele><time>2026-04-19T06:16:51.22Z</time></trkpt><trkpt lat="46.2802634" lon="13.1193628"><ele>195.0</ele><time>2026-04-19T06:16:52.22Z</time></trkpt><trkpt lat="46.2803174" lon="13.1191392"><ele>195.0</ele><time>2026-04-19T06:16:53.221Z</time></trkpt><trkpt lat="46.2803603" lon="13.1189162"><ele>195.0</ele><time>2026-04-19T06:16:54.221Z</time></trkpt><trkpt lat="46.2803941" lon="13.1186951"><ele>195.0</ele><time>2026-04-19T06:16:55.22Z</time></trkpt><trkpt lat="46.280423" lon="13.118474"><ele>195.0</ele><time>2026-04-19T06:16:56.221Z</time></trkpt><trkpt lat="46.2804473" lon="13.1182625"><ele>195.0</ele><time>2026-04-19T06:16:57.221Z</time></trkpt><trkpt lat="46.2804724" lon="13.1180597"><ele>195.0</ele><time>2026-04-19T06:16:58.22Z</time></trkpt><trkpt lat="46.2804961" lon="13.1178629"><ele>195.0</ele><time>2026-04-19T06:16:59.219Z</time></trkpt><trkpt lat="46.2805206" lon="13.1176639"><ele>195.0</ele><time>2026-04-19T06:17:00.22Z</time></trkpt><trkpt lat="46.2805466" lon="13.1174641"><ele>195.0</ele><time>2026-04-19T06:17:01.22Z</time></trkpt><trkpt lat="46.2805724" lon="13.1172662"><ele>195.0</ele><time>2026-04-19T06:17:02.22Z</time></trkpt><trkpt lat="46.2805984" lon="13.1170689"><ele>195.25</ele><time>2026-04-19T06:17:03.22Z</time></trkpt><trkpt lat="46.2806231" lon="13.1168664"><ele>195.5</ele><time>2026-04-19T06:17:04.22Z</time></trkpt><trkpt lat="46.2806483" lon="13.1166648"><ele>195.75</ele><time>2026-04-19T06:17:05.22Z</time></trkpt><trkpt lat="46.2806704" lon="13.1164647"><ele>196.0</ele><time>2026-04-19T06:17:06.22Z</time></trkpt><trkpt lat="46.2806946" lon="13.1162629"><ele>196.0</ele><time>2026-04-19T06:17:07.219Z</time></trkpt><trkpt lat="46.2807191" lon="13.1160601"><ele>196.0</ele><time>2026-04-19T06:17:08.22Z</time></trkpt><trkpt lat="46.2807427" lon="13.1158568"><ele>196.0</ele><time>2026-04-19T06:17:09.22Z</time></trkpt><trkpt lat="46.2807652" lon="13.1156535"><ele>196.0</ele><time>2026-04-19T06:17:10.22Z</time></trkpt><trkpt lat="46.280782" lon="13.1154448"><ele>195.75</ele><time>2026-04-19T06:17:11.22Z</time></trkpt><trkpt lat="46.2807965" lon="13.1152327"><ele>195.5</ele><time>2026-04-19T06:17:12.22Z</time></trkpt><trkpt lat="46.2808093" lon="13.1150205"><ele>195.25</ele><time>2026-04-19T06:17:13.22Z</time></trkpt><trkpt lat="46.2808239" lon="13.1148075"><ele>195.0</ele><time>2026-04-19T06:17:14.219Z</time></trkpt><trkpt lat="46.2808396" lon="13.1145947"><ele>195.0</ele><time>2026-04-19T06:17:15.22Z</time></trkpt><trkpt lat="46.2808551" lon="13.114379"><ele>195.0</ele><time>2026-04-19T06:17:16.22Z</time></trkpt><trkpt lat="46.2808681" lon="13.1141605"><ele>195.0</ele><time>2026-04-19T06:17:17.22Z</time></trkpt><trkpt lat="46.2808816" lon="13.1139366"><ele>195.0</ele><time>2026-04-19T06:17:18.219Z</time></trkpt><trkpt lat="46.2808857" lon="13.1137075"><ele>195.0</ele><time>2026-04-19T06:17:19.22Z</time></trkpt><trkpt lat="46.280884" lon="13.1134737"><ele>195.0</ele><time>2026-04-19T06:17:20.22Z</time></trkpt><trkpt lat="46.2808844" lon="13.1132383"><ele>195.0</ele><time>2026-04-19T06:17:21.219Z</time></trkpt><trkpt lat="46.2808831" lon="13.1129991"><ele>195.0</ele><time>2026-04-19T06:17:22.219Z</time></trkpt><trkpt lat="46.2808805" lon="13.1127598"><ele>195.0</ele><time>2026-04-19T06:17:23.22Z</time></trkpt><trkpt lat="46.2808788" lon="13.1125218"><ele>195.0</ele><time>2026-04-19T06:17:24.22Z</time></trkpt><trkpt lat="46.2808744" lon="13.112283"><ele>195.0</ele><time>2026-04-19T06:17:25.22Z</time></trkpt><trkpt lat="46.280862" lon="13.1120482"><ele>195.0</ele><time>2026-04-19T06:17:26.221Z</time></trkpt><trkpt lat="46.2808442" lon="13.1118177"><ele>195.0</ele><time>2026-04-19T06:17:27.219Z</time></trkpt><trkpt lat="46.2808301" lon="13.1115872"><ele>195.0</ele><time>2026-04-19T06:17:28.22Z</time></trkpt><trkpt lat="46.2808226" lon="13.1113718"><ele>195.0</ele><time>2026-04-19T06:17:29.22Z</time></trkpt><trkpt lat="46.2808227" lon="13.1111724"><ele>195.0</ele><time>2026-04-19T06:17:30.22Z</time></trkpt><trkpt lat="46.2808286" lon="13.1109939"><ele>195.2</ele><time>2026-04-19T06:17:31.22Z</time></trkpt><trkpt lat="46.280837" lon="13.1108266"><ele>195.4</ele><time>2026-04-19T06:17:32.22Z</time></trkpt><trkpt lat="46.280849" lon="13.1106741"><ele>195.60000000000002</ele><time>2026-04-19T06:17:33.221Z</time></trkpt><trkpt lat="46.2808587" lon="13.1105318"><ele>195.8</ele><time>2026-04-19T06:17:34.22Z</time></trkpt><trkpt lat="46.2808712" lon="13.1103967"><ele>196.0</ele><time>2026-04-19T06:17:35.22Z</time></trkpt><trkpt lat="46.2808795" lon="13.1102707"><ele>196.0</ele><time>2026-04-19T06:17:36.22Z</time></trkpt><trkpt lat="46.2808881" lon="13.1101581"><ele>196.0</ele><time>2026-04-19T06:17:37.22Z</time></trkpt><trkpt lat="46.2808956" lon="13.1100646"><ele>196.0</ele><time>2026-04-19T06:17:38.22Z</time></trkpt><trkpt lat="46.280907" lon="13.1099273"><ele>196.0</ele><time>2026-04-19T06:17:40.219Z</time></trkpt><trkpt lat="46.2809198" lon="13.1098282"><ele>196.0</ele><time>2026-04-19T06:17:43.22Z</time></trkpt><trkpt lat="46.2809357" lon="13.1097328"><ele>196.0</ele><time>2026-04-19T06:17:50.219Z</time></trkpt><trkpt lat="46.2809403" lon="13.109631"><ele>196.0</ele><time>2026-04-19T06:17:51.22Z</time></trkpt><trkpt lat="46.2809432" lon="13.109521"><ele>196.16666666666666</ele><time>2026-04-19T06:17:52.219Z</time></trkpt><trkpt lat="46.2809547" lon="13.1094132"><ele>196.33333333333331</ele><time>2026-04-19T06:17:53.219Z</time></trkpt><trkpt lat="46.2809703" lon="13.1092941"><ele>196.5</ele><time>2026-04-19T06:17:54.22Z</time></trkpt><trkpt lat="46.2809874" lon="13.1091729"><ele>196.66666666666669</ele><time>2026-04-19T06:17:55.22Z</time></trkpt><trkpt lat="46.2810054" lon="13.1090419"><ele>196.83333333333334</ele><time>2026-04-19T06:17:56.221Z</time></trkpt><trkpt lat="46.2810228" lon="13.1089137"><ele>197.0</ele><time>2026-04-19T06:17:57.22Z</time></trkpt><trkpt lat="46.2810431" lon="13.1087895"><ele>197.0</ele><time>2026-04-19T06:17:58.22Z</time></trkpt><trkpt lat="46.2810604" lon="13.1086707"><ele>197.0</ele><time>2026-04-19T06:17:59.219Z</time></trkpt><trkpt lat="46.2810816" lon="13.1085506"><ele>197.0</ele><time>2026-04-19T06:18:00.219Z</time></trkpt><trkpt lat="46.2811039" lon="13.1084108"><ele>197.0</ele><time>2026-04-19T06:18:01.22Z</time></trkpt><trkpt lat="46.2811239" lon="13.1082607"><ele>197.0</ele><time>2026-04-19T06:18:02.22Z</time></trkpt><trkpt lat="46.2811472" lon="13.1081145"><ele>196.75</ele><time>2026-04-19T06:18:03.22Z</time></trkpt><trkpt lat="46.2811718" lon="13.1079527"><ele>196.5</ele><time>2026-04-19T06:18:04.221Z</time></trkpt><trkpt lat="46.2811942" lon="13.1077878"><ele>196.25</ele><time>2026-04-19T06:18:05.22Z</time></trkpt><trkpt lat="46.2812188" lon="13.1076208"><ele>196.0</ele><time>2026-04-19T06:18:06.219Z</time></trkpt><trkpt lat="46.2812448" lon="13.1074613"><ele>195.83333333333331</ele><time>2026-04-19T06:18:07.219Z</time></trkpt><trkpt lat="46.2812662" lon="13.1073238"><ele>195.66666666666666</ele><time>2026-04-19T06:18:08.221Z</time></trkpt><trkpt lat="46.2812869" lon="13.1071911"><ele>195.5</ele><time>2026-04-19T06:18:09.22Z</time></trkpt><trkpt lat="46.2813083" lon="13.1070743"><ele>195.33333333333331</ele><time>2026-04-19T06:18:10.221Z</time></trkpt><trkpt lat="46.2813263" lon="13.1069741"><ele>195.16666666666666</ele><time>2026-04-19T06:18:11.22Z</time></trkpt><trkpt lat="46.2813436" lon="13.1068863"><ele>195.0</ele><time>2026-04-19T06:18:12.22Z</time></trkpt><trkpt lat="46.2813658" lon="13.1067803"><ele>195.0</ele><time>2026-04-19T06:18:14.219Z</time></trkpt><trkpt lat="46.2813743" lon="13.1066286"><ele>195.0</ele><time>2026-04-19T06:18:51.22Z</time></trkpt><trkpt lat="46.2813943" lon="13.1064223"><ele>195.0</ele><time>2026-04-19T06:18:53.22Z</time></trkpt><trkpt lat="46.2814085" lon="13.1063017"><ele>195.0</ele><time>2026-04-19T06:18:54.22Z</time></trkpt><trkpt lat="46.2814306" lon="13.106159"><ele>195.0</ele><time>2026-04-19T06:18:55.22Z</time></trkpt><trkpt lat="46.2814567" lon="13.1060009"><ele>195.5</ele><time>2026-04-19T06:18:56.219Z</time></trkpt><trkpt lat="46.2814834" lon="13.1058471"><ele>196.0</ele><time>2026-04-19T06:18:57.22Z</time></trkpt><trkpt lat="46.2815098" lon="13.1056843"><ele>196.5</ele><time>2026-04-19T06:18:58.22Z</time></trkpt><trkpt lat="46.2815382" lon="13.105511"><ele>197.0</ele><time>2026-04-19T06:18:59.219Z</time></trkpt><trkpt lat="46.2815667" lon="13.1053239"><ele>197.0</ele><time>2026-04-19T06:19:00.219Z</time></trkpt><trkpt lat="46.2815959" lon="13.1051347"><ele>197.0</ele><time>2026-04-19T06:19:01.219Z</time></trkpt><trkpt lat="46.2816271" lon="13.104944"><ele>197.0</ele><time>2026-04-19T06:19:02.22Z</time></trkpt><trkpt lat="46.2816578" lon="13.1047529"><ele>197.0</ele><time>2026-04-19T06:19:03.221Z</time></trkpt><trkpt lat="46.2816902" lon="13.1045586"><ele>196.75</ele><time>2026-04-19T06:19:04.219Z</time></trkpt><trkpt lat="46.2817229" lon="13.1043671"><ele>196.5</ele><time>2026-04-19T06:19:05.219Z</time></trkpt><trkpt lat="46.2817555" lon="13.1041711"><ele>196.25</ele><time>2026-04-19T06:19:06.219Z</time></trkpt><trkpt lat="46.2817887" lon="13.1039748"><ele>196.0</ele><time>2026-04-19T06:19:07.219Z</time></trkpt><trkpt lat="46.2818209" lon="13.1037794"><ele>196.0</ele><time>2026-04-19T06:19:08.219Z</time></trkpt><trkpt lat="46.2818504" lon="13.1035872"><ele>196.0</ele><time>2026-04-19T06:19:09.221Z</time></trkpt><trkpt lat="46.2818822" lon="13.1033912"><ele>196.0</ele><time>2026-04-19T06:19:10.22Z</time></trkpt><trkpt lat="46.2819157" lon="13.1031904"><ele>196.0</ele><time>2026-04-19T06:19:11.22Z</time></trkpt><trkpt lat="46.2819468" lon="13.1029949"><ele>196.0</ele><time>2026-04-19T06:19:12.22Z</time></trkpt><trkpt lat="46.2819765" lon="13.1028003"><ele>196.0</ele><time>2026-04-19T06:19:13.22Z</time></trkpt><trkpt lat="46.2820054" lon="13.102608"><ele>196.0</ele><time>2026-04-19T06:19:14.22Z</time></trkpt><trkpt lat="46.2820358" lon="13.1024077"><ele>196.0</ele><time>2026-04-19T06:19:15.22Z</time></trkpt><trkpt lat="46.2820679" lon="13.1022063"><ele>196.25</ele><time>2026-04-19T06:19:16.22Z</time></trkpt><trkpt lat="46.2821021" lon="13.1020035"><ele>196.5</ele><time>2026-04-19T06:19:17.219Z</time></trkpt><trkpt lat="46.2821343" lon="13.1017979"><ele>196.75</ele><time>2026-04-19T06:19:18.219Z</time></trkpt><trkpt lat="46.2821651" lon="13.1015864"><ele>197.0</ele><time>2026-04-19T06:19:19.221Z</time></trkpt><trkpt lat="46.2821993" lon="13.1013748"><ele>197.33333333333334</ele><time>2026-04-19T06:19:20.22Z</time></trkpt><trkpt lat="46.2822319" lon="13.1011578"><ele>197.66666666666669</ele><time>2026-04-19T06:19:21.22Z</time></trkpt><trkpt lat="46.2822692" lon="13.1009401"><ele>198.0</ele><time>2026-04-19T06:19:22.219Z</time></trkpt><trkpt lat="46.28231" lon="13.1007241"><ele>198.0</ele><time>2026-04-19T06:19:23.22Z</time></trkpt><trkpt lat="46.2823464" lon="13.1005003"><ele>198.0</ele><time>2026-04-19T06:19:24.22Z</time></trkpt><trkpt lat="46.2823768" lon="13.1002801"><ele>198.0</ele><time>2026-04-19T06:19:25.22Z</time></trkpt><trkpt lat="46.2824027" lon="13.1000538"><ele>197.66666666666669</ele><time>2026-04-19T06:19:26.22Z</time></trkpt><trkpt lat="46.2824179" lon="13.0998244"><ele>197.33333333333334</ele><time>2026-04-19T06:19:27.22Z</time></trkpt><trkpt lat="46.2824251" lon="13.0995942"><ele>197.0</ele><time>2026-04-19T06:19:28.22Z</time></trkpt><trkpt lat="46.2824236" lon="13.0993611"><ele>197.0</ele><time>2026-04-19T06:19:29.219Z</time></trkpt><trkpt lat="46.28241" lon="13.0991266"><ele>197.0</ele><time>2026-04-19T06:19:30.219Z</time></trkpt><trkpt lat="46.2823865" lon="13.0988894"><ele>197.0</ele><time>2026-04-19T06:19:31.22Z</time></trkpt><trkpt lat="46.2823501" lon="13.0986471"><ele>196.66666666666669</ele><time>2026-04-19T06:19:32.22Z</time></trkpt><trkpt lat="46.2823045" lon="13.0984087"><ele>196.33333333333331</ele><time>2026-04-19T06:19:33.219Z</time></trkpt><trkpt lat="46.2822439" lon="13.0981659"><ele>196.0</ele><time>2026-04-19T06:19:34.219Z</time></trkpt><trkpt lat="46.2821675" lon="13.0979151"><ele>196.66666666666666</ele><time>2026-04-19T06:19:35.219Z</time></trkpt><trkpt lat="46.2820788" lon="13.0976569"><ele>197.33333333333331</ele><time>2026-04-19T06:19:36.22Z</time></trkpt><trkpt lat="46.28198" lon="13.097396"><ele>198.0</ele><time>2026-04-19T06:19:37.22Z</time></trkpt><trkpt lat="46.2818711" lon="13.0971297"><ele>198.33333333333331</ele><time>2026-04-19T06:19:38.22Z</time></trkpt><trkpt lat="46.2817599" lon="13.0968732"><ele>198.66666666666666</ele><time>2026-04-19T06:19:39.22Z</time></trkpt><trkpt lat="46.2816533" lon="13.0966315"><ele>199.0</ele><time>2026-04-19T06:19:40.219Z</time></trkpt><trkpt lat="46.2815574" lon="13.0964058"><ele>199.0</ele><time>2026-04-19T06:19:41.22Z</time></trkpt><trkpt lat="46.2814727" lon="13.096208"><ele>199.0</ele><time>2026-04-19T06:19:42.22Z</time></trkpt><trkpt lat="46.2814054" lon="13.0960417"><ele>199.0</ele><time>2026-04-19T06:19:43.22Z</time></trkpt><trkpt lat="46.2813588" lon="13.0958921"><ele>199.0</ele><time>2026-04-19T06:19:44.22Z</time></trkpt><trkpt lat="46.2813396" lon="13.0957464"><ele>198.79999999999998</ele><time>2026-04-19T06:19:45.221Z</time></trkpt><trkpt lat="46.2813498" lon="13.0956111"><ele>198.6</ele><time>2026-04-19T06:19:46.22Z</time></trkpt><trkpt lat="46.2813933" lon="13.095482"><ele>198.4</ele><time>2026-04-19T06:19:47.22Z</time></trkpt><trkpt lat="46.2814652" lon="13.0953588"><ele>198.2</ele><time>2026-04-19T06:19:48.22Z</time></trkpt><trkpt lat="46.2815483" lon="13.0952404"><ele>198.0</ele><time>2026-04-19T06:19:49.219Z</time></trkpt><trkpt lat="46.281637" lon="13.0951121"><ele>198.0</ele><time>2026-04-19T06:19:50.22Z</time></trkpt><trkpt lat="46.2817269" lon="13.0949746"><ele>198.0</ele><time>2026-04-19T06:19:51.219Z</time></trkpt><trkpt lat="46.2818209" lon="13.0948324"><ele>198.0</ele><time>2026-04-19T06:19:52.22Z</time></trkpt><trkpt lat="46.2819188" lon="13.0946845"><ele>198.0</ele><time>2026-04-19T06:19:53.22Z</time></trkpt><trkpt lat="46.2820177" lon="13.0945295"><ele>197.66666666666669</ele><time>2026-04-19T06:19:54.22Z</time></trkpt><trkpt lat="46.28212" lon="13.0943655"><ele>197.33333333333334</ele><time>2026-04-19T06:19:55.219Z</time></trkpt><trkpt lat="46.282226" lon="13.0941992"><ele>197.0</ele><time>2026-04-19T06:19:56.221Z</time></trkpt><trkpt lat="46.282336" lon="13.0940289"><ele>196.66666666666669</ele><time>2026-04-19T06:19:57.22Z</time></trkpt><trkpt lat="46.2824486" lon="13.0938569"><ele>196.33333333333331</ele><time>2026-04-19T06:19:58.22Z</time></trkpt><trkpt lat="46.282561" lon="13.0936856"><ele>196.0</ele><time>2026-04-19T06:19:59.221Z</time></trkpt><trkpt lat="46.2826727" lon="13.0935144"><ele>196.0</ele><time>2026-04-19T06:20:00.221Z</time></trkpt><trkpt lat="46.2827853" lon="13.0933395"><ele>196.0</ele><time>2026-04-19T06:20:01.219Z</time></trkpt><trkpt lat="46.2828983" lon="13.0931639"><ele>196.0</ele><time>2026-04-19T06:20:02.219Z</time></trkpt><trkpt lat="46.283012" lon="13.0929901"><ele>196.66666666666666</ele><time>2026-04-19T06:20:03.219Z</time></trkpt><trkpt lat="46.2831251" lon="13.092817"><ele>197.33333333333331</ele><time>2026-04-19T06:20:04.22Z</time></trkpt><trkpt lat="46.2832286" lon="13.0926537"><ele>198.0</ele><time>2026-04-19T06:20:05.22Z</time></trkpt><trkpt lat="46.2833228" lon="13.0925042"><ele>198.5</ele><time>2026-04-19T06:20:06.221Z</time></trkpt><trkpt lat="46.2834125" lon="13.0923663"><ele>199.0</ele><time>2026-04-19T06:20:07.219Z</time></trkpt><trkpt lat="46.2834968" lon="13.09224"><ele>199.5</ele><time>2026-04-19T06:20:08.22Z</time></trkpt><trkpt lat="46.2835714" lon="13.0921224"><ele>200.0</ele><time>2026-04-19T06:20:09.22Z</time></trkpt><trkpt lat="46.2836368" lon="13.0920244"><ele>200.00000000000003</ele><time>2026-04-19T06:20:10.221Z</time></trkpt><trkpt lat="46.2836949" lon="13.0919485"><ele>200.0</ele><time>2026-04-19T06:20:11.22Z</time></trkpt><trkpt lat="46.2837604" lon="13.0918907"><ele>200.0</ele><time>2026-04-19T06:20:12.219Z</time></trkpt><trkpt lat="46.2838197" lon="13.0918338"><ele>200.0</ele><time>2026-04-19T06:20:13.22Z</time></trkpt><trkpt lat="46.2838644" lon="13.0917521"><ele>200.00000000000003</ele><time>2026-04-19T06:20:14.219Z</time></trkpt><trkpt lat="46.2838847" lon="13.091663"><ele>200.0</ele><time>2026-04-19T06:20:15.219Z</time></trkpt><trkpt lat="46.283848" lon="13.0914983"><ele>199.8</ele><time>2026-04-19T06:20:17.219Z</time></trkpt><trkpt lat="46.283795" lon="13.0914363"><ele>199.6</ele><time>2026-04-19T06:20:18.218Z</time></trkpt><trkpt lat="46.2837203" lon="13.0913971"><ele>199.39999999999998</ele><time>2026-04-19T06:20:19.219Z</time></trkpt><trkpt lat="46.2836251" lon="13.091365"><ele>199.2</ele><time>2026-04-19T06:20:20.218Z</time></trkpt><trkpt lat="46.2835161" lon="13.091306"><ele>199.0</ele><time>2026-04-19T06:20:21.219Z</time></trkpt><trkpt lat="46.2834108" lon="13.0912135"><ele>199.0</ele><time>2026-04-19T06:20:22.219Z</time></trkpt><trkpt lat="46.2833142" lon="13.0910885"><ele>199.0</ele><time>2026-04-19T06:20:23.219Z</time></trkpt><trkpt lat="46.2832162" lon="13.0909392"><ele>199.0</ele><time>2026-04-19T06:20:24.219Z</time></trkpt><trkpt lat="46.2831226" lon="13.0907634"><ele>199.0</ele><time>2026-04-19T06:20:25.219Z</time></trkpt><trkpt lat="46.2830322" lon="13.0905698"><ele>198.66666666666666</ele><time>2026-04-19T06:20:26.218Z</time></trkpt><trkpt lat="46.2829504" lon="13.0903568"><ele>198.33333333333331</ele><time>2026-04-19T06:20:27.219Z</time></trkpt><trkpt lat="46.2828735" lon="13.0901472"><ele>198.0</ele><time>2026-04-19T06:20:28.22Z</time></trkpt><trkpt lat="46.2827981" lon="13.0899357"><ele>198.66666666666669</ele><time>2026-04-19T06:20:29.218Z</time></trkpt><trkpt lat="46.2827236" lon="13.0897193"><ele>199.33333333333334</ele><time>2026-04-19T06:20:30.219Z</time></trkpt><trkpt lat="46.2826534" lon="13.0895018"><ele>200.0</ele><time>2026-04-19T06:20:31.219Z</time></trkpt><trkpt lat="46.2825872" lon="13.0892838"><ele>198.66666666666669</ele><time>2026-04-19T06:20:32.22Z</time></trkpt><trkpt lat="46.2825229" lon="13.0890656"><ele>197.33333333333331</ele><time>2026-04-19T06:20:33.219Z</time></trkpt><trkpt lat="46.282458" lon="13.0888465"><ele>196.0</ele><time>2026-04-19T06:20:34.219Z</time></trkpt><trkpt lat="46.2823931" lon="13.0886247"><ele>196.0</ele><time>2026-04-19T06:20:35.218Z</time></trkpt><trkpt lat="46.2823265" lon="13.0884048"><ele>196.0</ele><time>2026-04-19T06:20:36.219Z</time></trkpt><trkpt lat="46.2822605" lon="13.0881858"><ele>196.0</ele><time>2026-04-19T06:20:37.218Z</time></trkpt><trkpt lat="46.2821958" lon="13.0879642"><ele>196.0</ele><time>2026-04-19T06:20:38.219Z</time></trkpt><trkpt lat="46.2821291" lon="13.0877417"><ele>196.0</ele><time>2026-04-19T06:20:39.219Z</time></trkpt><trkpt lat="46.282066" lon="13.0875206"><ele>196.0</ele><time>2026-04-19T06:20:40.218Z</time></trkpt><trkpt lat="46.2820099" lon="13.0872961"><ele>196.0</ele><time>2026-04-19T06:20:41.219Z</time></trkpt><trkpt lat="46.2819661" lon="13.087063"><ele>196.0</ele><time>2026-04-19T06:20:42.219Z</time></trkpt><trkpt lat="46.2819333" lon="13.0868325"><ele>196.0</ele><time>2026-04-19T06:20:43.218Z</time></trkpt><trkpt lat="46.2819107" lon="13.086611"><ele>196.33333333333331</ele><time>2026-04-19T06:20:44.218Z</time></trkpt><trkpt lat="46.2818906" lon="13.0863889"><ele>196.66666666666669</ele><time>2026-04-19T06:20:45.219Z</time></trkpt><trkpt lat="46.2818715" lon="13.0861708"><ele>197.0</ele><time>2026-04-19T06:20:46.219Z</time></trkpt><trkpt lat="46.2818524" lon="13.0859552"><ele>198.75</ele><time>2026-04-19T06:20:47.219Z</time></trkpt><trkpt lat="46.281835" lon="13.0857392"><ele>200.5</ele><time>2026-04-19T06:20:48.219Z</time></trkpt><trkpt lat="46.2818176" lon="13.0855282"><ele>202.25</ele><time>2026-04-19T06:20:49.22Z</time></trkpt><trkpt lat="46.2817996" lon="13.0853167"><ele>204.0</ele><time>2026-04-19T06:20:50.219Z</time></trkpt><trkpt lat="46.2817819" lon="13.0851063"><ele>205.25</ele><time>2026-04-19T06:20:51.219Z</time></trkpt><trkpt lat="46.2817659" lon="13.0848948"><ele>206.5</ele><time>2026-04-19T06:20:52.22Z</time></trkpt><trkpt lat="46.2817491" lon="13.0846822"><ele>207.75</ele><time>2026-04-19T06:20:53.22Z</time></trkpt><trkpt lat="46.2817332" lon="13.0844645"><ele>209.0</ele><time>2026-04-19T06:20:54.219Z</time></trkpt><trkpt lat="46.281715" lon="13.0842467"><ele>211.0</ele><time>2026-04-19T06:20:55.218Z</time></trkpt><trkpt lat="46.2816903" lon="13.0840288"><ele>213.0</ele><time>2026-04-19T06:20:56.219Z</time></trkpt><trkpt lat="46.2816544" lon="13.0838155"><ele>215.0</ele><time>2026-04-19T06:20:57.219Z</time></trkpt><trkpt lat="46.2816145" lon="13.0836049"><ele>215.0</ele><time>2026-04-19T06:20:58.219Z</time></trkpt><trkpt lat="46.2815766" lon="13.0834073"><ele>215.0</ele><time>2026-04-19T06:20:59.219Z</time></trkpt><trkpt lat="46.2815363" lon="13.0832163"><ele>215.0</ele><time>2026-04-19T06:21:00.218Z</time></trkpt><trkpt lat="46.2814974" lon="13.0830311"><ele>215.0</ele><time>2026-04-19T06:21:01.22Z</time></trkpt><trkpt lat="46.2814588" lon="13.0828516"><ele>211.0</ele><time>2026-04-19T06:21:02.219Z</time></trkpt><trkpt lat="46.2814193" lon="13.0826786"><ele>207.0</ele><time>2026-04-19T06:21:03.219Z</time></trkpt><trkpt lat="46.2813843" lon="13.0825177"><ele>203.0</ele><time>2026-04-19T06:21:04.219Z</time></trkpt><trkpt lat="46.2813509" lon="13.0823662"><ele>199.0</ele><time>2026-04-19T06:21:05.219Z</time></trkpt><trkpt lat="46.2813135" lon="13.0822262"><ele>199.0</ele><time>2026-04-19T06:21:06.219Z</time></trkpt><trkpt lat="46.2812752" lon="13.0820921"><ele>199.0</ele><time>2026-04-19T06:21:07.219Z</time></trkpt><trkpt lat="46.281251" lon="13.0819544"><ele>199.0</ele><time>2026-04-19T06:21:08.218Z</time></trkpt><trkpt lat="46.281229" lon="13.0818102"><ele>199.0</ele><time>2026-04-19T06:21:09.219Z</time></trkpt><trkpt lat="46.2812095" lon="13.0816585"><ele>199.0</ele><time>2026-04-19T06:21:10.219Z</time></trkpt><trkpt lat="46.2811952" lon="13.0814978"><ele>198.0</ele><time>2026-04-19T06:21:11.218Z</time></trkpt><trkpt lat="46.2811887" lon="13.0813242"><ele>197.0</ele><time>2026-04-19T06:21:12.218Z</time></trkpt><trkpt lat="46.2811894" lon="13.0811419"><ele>196.0</ele><time>2026-04-19T06:21:13.219Z</time></trkpt><trkpt lat="46.2811971" lon="13.0809492"><ele>195.0</ele><time>2026-04-19T06:21:14.219Z</time></trkpt><trkpt lat="46.2812056" lon="13.0807596"><ele>193.75</ele><time>2026-04-19T06:21:15.218Z</time></trkpt><trkpt lat="46.2812145" lon="13.0805735"><ele>192.5</ele><time>2026-04-19T06:21:16.219Z</time></trkpt><trkpt lat="46.2812265" lon="13.0803883"><ele>191.25</ele><time>2026-04-19T06:21:17.219Z</time></trkpt><trkpt lat="46.2812473" lon="13.0802048"><ele>190.0</ele><time>2026-04-19T06:21:18.219Z</time></trkpt><trkpt lat="46.2812737" lon="13.0800247"><ele>189.5</ele><time>2026-04-19T06:21:19.218Z</time></trkpt><trkpt lat="46.2813059" lon="13.0798472"><ele>189.0</ele><time>2026-04-19T06:21:20.218Z</time></trkpt><trkpt lat="46.2813415" lon="13.0796793"><ele>188.5</ele><time>2026-04-19T06:21:21.218Z</time></trkpt><trkpt lat="46.2813813" lon="13.0795174"><ele>188.0</ele><time>2026-04-19T06:21:22.218Z</time></trkpt><trkpt lat="46.2814228" lon="13.079363"><ele>189.2</ele><time>2026-04-19T06:21:23.219Z</time></trkpt><trkpt lat="46.2814621" lon="13.0792125"><ele>190.4</ele><time>2026-04-19T06:21:24.218Z</time></trkpt><trkpt lat="46.2814975" lon="13.0790643"><ele>191.6</ele><time>2026-04-19T06:21:25.22Z</time></trkpt><trkpt lat="46.2815317" lon="13.0789172"><ele>192.79999999999998</ele><time>2026-04-19T06:21:26.219Z</time></trkpt><trkpt lat="46.2815648" lon="13.078769"><ele>194.0</ele><time>2026-04-19T06:21:27.22Z</time></trkpt><trkpt lat="46.2815968" lon="13.0786154"><ele>194.0</ele><time>2026-04-19T06:21:28.219Z</time></trkpt><trkpt lat="46.2816254" lon="13.0784626"><ele>194.0</ele><time>2026-04-19T06:21:29.219Z</time></trkpt><trkpt lat="46.2816523" lon="13.0783047"><ele>194.0</ele><time>2026-04-19T06:21:30.219Z</time></trkpt><trkpt lat="46.2816732" lon="13.0781508"><ele>194.0</ele><time>2026-04-19T06:21:31.219Z</time></trkpt><trkpt lat="46.2816972" lon="13.0779956"><ele>194.0</ele><time>2026-04-19T06:21:32.219Z</time></trkpt><trkpt lat="46.2817204" lon="13.0778381"><ele>194.0</ele><time>2026-04-19T06:21:33.218Z</time></trkpt><trkpt lat="46.2817436" lon="13.0776828"><ele>194.0</ele><time>2026-04-19T06:21:34.218Z</time></trkpt><trkpt lat="46.2817687" lon="13.0775291"><ele>194.0</ele><time>2026-04-19T06:21:35.219Z</time></trkpt><trkpt lat="46.2817933" lon="13.0773772"><ele>194.0</ele><time>2026-04-19T06:21:36.219Z</time></trkpt><trkpt lat="46.2818239" lon="13.0772261"><ele>194.0</ele><time>2026-04-19T06:21:37.219Z</time></trkpt><trkpt lat="46.2818523" lon="13.0770747"><ele>193.79999999999998</ele><time>2026-04-19T06:21:38.218Z</time></trkpt><trkpt lat="46.2818803" lon="13.0769262"><ele>193.6</ele><time>2026-04-19T06:21:39.219Z</time></trkpt><trkpt lat="46.2819103" lon="13.0767773"><ele>193.4</ele><time>2026-04-19T06:21:40.219Z</time></trkpt><trkpt lat="46.2819412" lon="13.0766281"><ele>193.2</ele><time>2026-04-19T06:21:41.219Z</time></trkpt><trkpt lat="46.2819726" lon="13.0764809"><ele>193.0</ele><time>2026-04-19T06:21:42.218Z</time></trkpt><trkpt lat="46.2820024" lon="13.0763343"><ele>192.8</ele><time>2026-04-19T06:21:43.218Z</time></trkpt><trkpt lat="46.2820314" lon="13.076189"><ele>192.60000000000002</ele><time>2026-04-19T06:21:44.218Z</time></trkpt><trkpt lat="46.2820666" lon="13.0760457"><ele>192.39999999999998</ele><time>2026-04-19T06:21:45.219Z</time></trkpt><trkpt lat="46.2821062" lon="13.0759113"><ele>192.2</ele><time>2026-04-19T06:21:46.219Z</time></trkpt><trkpt lat="46.2821467" lon="13.0757957"><ele>192.0</ele><time>2026-04-19T06:21:47.218Z</time></trkpt><trkpt lat="46.2821889" lon="13.0756937"><ele>192.0</ele><time>2026-04-19T06:21:48.218Z</time></trkpt><trkpt lat="46.282234" lon="13.0755988"><ele>192.0</ele><time>2026-04-19T06:21:49.219Z</time></trkpt><trkpt lat="46.2822833" lon="13.0755046"><ele>192.0</ele><time>2026-04-19T06:21:50.219Z</time></trkpt><trkpt lat="46.2823399" lon="13.0754081"><ele>192.0</ele><time>2026-04-19T06:21:51.219Z</time></trkpt><trkpt lat="46.2824006" lon="13.0753041"><ele>192.0</ele><time>2026-04-19T06:21:52.219Z</time></trkpt><trkpt lat="46.2824604" lon="13.0751911"><ele>192.0</ele><time>2026-04-19T06:21:53.219Z</time></trkpt><trkpt lat="46.2825135" lon="13.0750674"><ele>192.0</ele><time>2026-04-19T06:21:54.219Z</time></trkpt><trkpt lat="46.2825554" lon="13.0749295"><ele>192.0</ele><time>2026-04-19T06:21:55.218Z</time></trkpt><trkpt lat="46.2825859" lon="13.0747805"><ele>192.0</ele><time>2026-04-19T06:21:56.22Z</time></trkpt><trkpt lat="46.2826058" lon="13.0746262"><ele>192.0</ele><time>2026-04-19T06:21:57.22Z</time></trkpt><trkpt lat="46.2826198" lon="13.0744642"><ele>192.0</ele><time>2026-04-19T06:21:58.219Z</time></trkpt><trkpt lat="46.2826271" lon="13.0742919"><ele>192.0</ele><time>2026-04-19T06:21:59.219Z</time></trkpt><trkpt lat="46.2826316" lon="13.0741139"><ele>192.0</ele><time>2026-04-19T06:22:00.219Z</time></trkpt><trkpt lat="46.2826361" lon="13.0739352"><ele>192.0</ele><time>2026-04-19T06:22:01.218Z</time></trkpt><trkpt lat="46.2826415" lon="13.0737593"><ele>192.0</ele><time>2026-04-19T06:22:02.22Z</time></trkpt><trkpt lat="46.2826526" lon="13.0735871"><ele>192.75</ele><time>2026-04-19T06:22:03.219Z</time></trkpt><trkpt lat="46.2826662" lon="13.0734188"><ele>193.5</ele><time>2026-04-19T06:22:04.218Z</time></trkpt><trkpt lat="46.2826793" lon="13.0732529"><ele>194.25</ele><time>2026-04-19T06:22:05.219Z</time></trkpt><trkpt lat="46.2826929" lon="13.0730915"><ele>195.0</ele><time>2026-04-19T06:22:06.219Z</time></trkpt><trkpt lat="46.2827045" lon="13.07293"><ele>195.0</ele><time>2026-04-19T06:22:07.219Z</time></trkpt><trkpt lat="46.2827165" lon="13.0727667"><ele>195.0</ele><time>2026-04-19T06:22:08.219Z</time></trkpt><trkpt lat="46.282729" lon="13.0726002"><ele>195.0</ele><time>2026-04-19T06:22:09.219Z</time></trkpt><trkpt lat="46.2827424" lon="13.0724278"><ele>195.0</ele><time>2026-04-19T06:22:10.22Z</time></trkpt><trkpt lat="46.2827567" lon="13.0722501"><ele>195.25</ele><time>2026-04-19T06:22:11.218Z</time></trkpt><trkpt lat="46.2827705" lon="13.0720679"><ele>195.5</ele><time>2026-04-19T06:22:12.218Z</time></trkpt><trkpt lat="46.2827857" lon="13.071885"><ele>195.75</ele><time>2026-04-19T06:22:13.218Z</time></trkpt><trkpt lat="46.2828027" lon="13.0717054"><ele>196.0</ele><time>2026-04-19T06:22:14.218Z</time></trkpt><trkpt lat="46.2828225" lon="13.0715252"><ele>195.5</ele><time>2026-04-19T06:22:15.219Z</time></trkpt><trkpt lat="46.2828473" lon="13.0713424"><ele>195.0</ele><time>2026-04-19T06:22:16.219Z</time></trkpt><trkpt lat="46.2828754" lon="13.0711605"><ele>194.5</ele><time>2026-04-19T06:22:17.219Z</time></trkpt><trkpt lat="46.2829018" lon="13.0709786"><ele>194.0</ele><time>2026-04-19T06:22:18.22Z</time></trkpt><trkpt lat="46.2829289" lon="13.0707953"><ele>193.25</ele><time>2026-04-19T06:22:19.218Z</time></trkpt><trkpt lat="46.2829537" lon="13.0706101"><ele>192.5</ele><time>2026-04-19T06:22:20.218Z</time></trkpt><trkpt lat="46.2829794" lon="13.0704248"><ele>191.75</ele><time>2026-04-19T06:22:21.218Z</time></trkpt><trkpt lat="46.2830023" lon="13.0702469"><ele>191.0</ele><time>2026-04-19T06:22:22.219Z</time></trkpt><trkpt lat="46.283024" lon="13.0700819"><ele>191.75</ele><time>2026-04-19T06:22:23.218Z</time></trkpt><trkpt lat="46.2830545" lon="13.0699298"><ele>192.5</ele><time>2026-04-19T06:22:24.219Z</time></trkpt><trkpt lat="46.2830976" lon="13.0697859"><ele>193.25</ele><time>2026-04-19T06:22:25.219Z</time></trkpt><trkpt lat="46.2831382" lon="13.0696312"><ele>194.0</ele><time>2026-04-19T06:22:26.218Z</time></trkpt><trkpt lat="46.2831595" lon="13.0694598"><ele>194.2</ele><time>2026-04-19T06:22:27.219Z</time></trkpt><trkpt lat="46.2831717" lon="13.0692857"><ele>194.39999999999998</ele><time>2026-04-19T06:22:28.218Z</time></trkpt><trkpt lat="46.2831933" lon="13.0691297"><ele>194.6</ele><time>2026-04-19T06:22:29.22Z</time></trkpt><trkpt lat="46.2832197" lon="13.0689856"><ele>194.8</ele><time>2026-04-19T06:22:30.219Z</time></trkpt><trkpt lat="46.2832451" lon="13.068847"><ele>195.0</ele><time>2026-04-19T06:22:31.219Z</time></trkpt><trkpt lat="46.283269" lon="13.068713"><ele>195.0</ele><time>2026-04-19T06:22:32.219Z</time></trkpt><trkpt lat="46.2832917" lon="13.0685806"><ele>195.0</ele><time>2026-04-19T06:22:33.219Z</time></trkpt><trkpt lat="46.2833193" lon="13.0684503"><ele>195.0</ele><time>2026-04-19T06:22:34.218Z</time></trkpt><trkpt lat="46.2833526" lon="13.0683145"><ele>195.0</ele><time>2026-04-19T06:22:35.219Z</time></trkpt><trkpt lat="46.2833925" lon="13.0681706"><ele>195.0</ele><time>2026-04-19T06:22:36.219Z</time></trkpt><trkpt lat="46.283439" lon="13.0680243"><ele>194.5</ele><time>2026-04-19T06:22:37.219Z</time></trkpt><trkpt lat="46.2834909" lon="13.0678761"><ele>194.0</ele><time>2026-04-19T06:22:38.218Z</time></trkpt><trkpt lat="46.2835494" lon="13.0677231"><ele>193.5</ele><time>2026-04-19T06:22:39.219Z</time></trkpt><trkpt lat="46.2836149" lon="13.0675678"><ele>193.0</ele><time>2026-04-19T06:22:40.22Z</time></trkpt><trkpt lat="46.2836875" lon="13.0674082"><ele>192.25</ele><time>2026-04-19T06:22:41.219Z</time></trkpt><trkpt lat="46.2837606" lon="13.0672464"><ele>191.5</ele><time>2026-04-19T06:22:42.218Z</time></trkpt><trkpt lat="46.2838369" lon="13.0670816"><ele>190.75</ele><time>2026-04-19T06:22:43.219Z</time></trkpt><trkpt lat="46.2839144" lon="13.0669112"><ele>190.0</ele><time>2026-04-19T06:22:44.219Z</time></trkpt><trkpt lat="46.2839897" lon="13.066737"><ele>190.5</ele><time>2026-04-19T06:22:45.219Z</time></trkpt><trkpt lat="46.2840637" lon="13.0665571"><ele>191.0</ele><time>2026-04-19T06:22:46.219Z</time></trkpt><trkpt lat="46.2841357" lon="13.0663729"><ele>191.5</ele><time>2026-04-19T06:22:47.218Z</time></trkpt><trkpt lat="46.2842109" lon="13.0661842"><ele>192.0</ele><time>2026-04-19T06:22:48.218Z</time></trkpt><trkpt lat="46.2842845" lon="13.0659941"><ele>192.0</ele><time>2026-04-19T06:22:49.218Z</time></trkpt><trkpt lat="46.2843589" lon="13.0657984"><ele>192.0</ele><time>2026-04-19T06:22:50.219Z</time></trkpt><trkpt lat="46.2844326" lon="13.0656023"><ele>192.0</ele><time>2026-04-19T06:22:51.219Z</time></trkpt><trkpt lat="46.2845057" lon="13.0654068"><ele>192.0</ele><time>2026-04-19T06:22:52.219Z</time></trkpt><trkpt lat="46.2845767" lon="13.0652337"><ele>192.0</ele><time>2026-04-19T06:22:53.219Z</time></trkpt><trkpt lat="46.2846546" lon="13.0650514"><ele>192.0</ele><time>2026-04-19T06:22:54.22Z</time></trkpt><trkpt lat="46.2847324" lon="13.0648688"><ele>192.0</ele><time>2026-04-19T06:22:55.219Z</time></trkpt><trkpt lat="46.2848098" lon="13.0646934"><ele>191.0</ele><time>2026-04-19T06:22:56.219Z</time></trkpt><trkpt lat="46.2848856" lon="13.064548"><ele>190.0</ele><time>2026-04-19T06:22:57.219Z</time></trkpt><trkpt lat="46.2849592" lon="13.0644242"><ele>189.0</ele><time>2026-04-19T06:22:58.219Z</time></trkpt><trkpt lat="46.2850291" lon="13.0643243"><ele>188.0</ele><time>2026-04-19T06:22:59.219Z</time></trkpt><trkpt lat="46.2850873" lon="13.0642532"><ele>187.0</ele><time>2026-04-19T06:23:00.219Z</time></trkpt><trkpt lat="46.2851652" lon="13.0641956"><ele>187.0</ele><time>2026-04-19T06:23:02.219Z</time></trkpt><trkpt lat="46.2852341" lon="13.0642343"><ele>187.0</ele><time>2026-04-19T06:23:04.219Z</time></trkpt><trkpt lat="46.2853052" lon="13.064326"><ele>187.0</ele><time>2026-04-19T06:23:06.219Z</time></trkpt><trkpt lat="46.2853798" lon="13.0644607"><ele>187.0</ele><time>2026-04-19T06:23:08.219Z</time></trkpt><trkpt lat="46.2854197" lon="13.0645346"><ele>187.0</ele><time>2026-04-19T06:23:09.218Z</time></trkpt><trkpt lat="46.2854626" lon="13.064607"><ele>187.0</ele><time>2026-04-19T06:23:10.218Z</time></trkpt><trkpt lat="46.2855112" lon="13.0646764"><ele>187.0</ele><time>2026-04-19T06:23:11.218Z</time></trkpt><trkpt lat="46.2855623" lon="13.0647387"><ele>187.0</ele><time>2026-04-19T06:23:12.218Z</time></trkpt><trkpt lat="46.2856185" lon="13.0647968"><ele>187.0</ele><time>2026-04-19T06:23:13.219Z</time></trkpt><trkpt lat="46.2856746" lon="13.0648495"><ele>187.0</ele><time>2026-04-19T06:23:14.218Z</time></trkpt><trkpt lat="46.2857313" lon="13.0648918"><ele>187.0</ele><time>2026-04-19T06:23:15.219Z</time></trkpt><trkpt lat="46.2857922" lon="13.0649217"><ele>187.0</ele><time>2026-04-19T06:23:16.219Z</time></trkpt><trkpt lat="46.2858557" lon="13.0649412"><ele>187.0</ele><time>2026-04-19T06:23:17.219Z</time></trkpt><trkpt lat="46.2859232" lon="13.0649568"><ele>187.85714285714286</ele><time>2026-04-19T06:23:18.219Z</time></trkpt><trkpt lat="46.2859906" lon="13.0649716"><ele>188.71428571428572</ele><time>2026-04-19T06:23:19.219Z</time></trkpt><trkpt lat="46.2860596" lon="13.0649854"><ele>189.57142857142858</ele><time>2026-04-19T06:23:20.219Z</time></trkpt><trkpt lat="46.2861286" lon="13.0649997"><ele>190.42857142857144</ele><time>2026-04-19T06:23:21.219Z</time></trkpt><trkpt lat="46.2861977" lon="13.0650118"><ele>191.28571428571428</ele><time>2026-04-19T06:23:22.219Z</time></trkpt><trkpt lat="46.2862667" lon="13.0650224"><ele>192.14285714285717</ele><time>2026-04-19T06:23:23.218Z</time></trkpt><trkpt lat="46.2863335" lon="13.0650345"><ele>193.0</ele><time>2026-04-19T06:23:24.218Z</time></trkpt><trkpt lat="46.2863998" lon="13.0650438"><ele>192.66666666666666</ele><time>2026-04-19T06:23:25.218Z</time></trkpt><trkpt lat="46.2864732" lon="13.0650567"><ele>192.33333333333331</ele><time>2026-04-19T06:23:26.218Z</time></trkpt><trkpt lat="46.2865529" lon="13.0650695"><ele>192.0</ele><time>2026-04-19T06:23:27.218Z</time></trkpt><trkpt lat="46.2866336" lon="13.0650826"><ele>191.66666666666666</ele><time>2026-04-19T06:23:28.219Z</time></trkpt><trkpt lat="46.2867109" lon="13.0650953"><ele>191.33333333333331</ele><time>2026-04-19T06:23:29.22Z</time></trkpt><trkpt lat="46.2867853" lon="13.0651074"><ele>191.0</ele><time>2026-04-19T06:23:30.219Z</time></trkpt><trkpt lat="46.2868594" lon="13.0651191"><ele>191.0</ele><time>2026-04-19T06:23:31.218Z</time></trkpt><trkpt lat="46.2869337" lon="13.065129"><ele>191.0</ele><time>2026-04-19T06:23:32.219Z</time></trkpt><trkpt lat="46.2870093" lon="13.0651417"><ele>191.0</ele><time>2026-04-19T06:23:33.219Z</time></trkpt><trkpt lat="46.2870866" lon="13.0651542"><ele>191.0</ele><time>2026-04-19T06:23:34.219Z</time></trkpt><trkpt lat="46.2871638" lon="13.0651675"><ele>191.0</ele><time>2026-04-19T06:23:35.219Z</time></trkpt><trkpt lat="46.2872379" lon="13.0651795"><ele>191.0</ele><time>2026-04-19T06:23:36.22Z</time></trkpt><trkpt lat="46.2873043" lon="13.0651903"><ele>191.0</ele><time>2026-04-19T06:23:37.219Z</time></trkpt><trkpt lat="46.2873683" lon="13.0652013"><ele>190.5</ele><time>2026-04-19T06:23:38.219Z</time></trkpt><trkpt lat="46.2874385" lon="13.0652115"><ele>190.0</ele><time>2026-04-19T06:23:39.218Z</time></trkpt><trkpt lat="46.2875176" lon="13.065223"><ele>189.5</ele><time>2026-04-19T06:23:40.218Z</time></trkpt><trkpt lat="46.2875987" lon="13.0652367"><ele>189.0</ele><time>2026-04-19T06:23:41.218Z</time></trkpt><trkpt lat="46.2876707" lon="13.0652491"><ele>188.5</ele><time>2026-04-19T06:23:42.218Z</time></trkpt><trkpt lat="46.2877363" lon="13.0652617"><ele>188.0</ele><time>2026-04-19T06:23:43.218Z</time></trkpt><trkpt lat="46.2878412" lon="13.0652912"><ele>188.0</ele><time>2026-04-19T06:23:45.218Z</time></trkpt><trkpt lat="46.287912" lon="13.0653152"><ele>188.0</ele><time>2026-04-19T06:23:47.22Z</time></trkpt><trkpt lat="46.2880034" lon="13.0653498"><ele>188.0</ele><time>2026-04-19T06:23:50.219Z</time></trkpt><trkpt lat="46.2880701" lon="13.0653699"><ele>188.0</ele><time>2026-04-19T06:23:52.22Z</time></trkpt><trkpt lat="46.2881078" lon="13.0654611"><ele>188.0</ele><time>2026-04-19T06:24:43.219Z</time></trkpt><trkpt lat="46.2880613" lon="13.0653737"><ele>188.0</ele><time>2026-04-19T06:24:56.218Z</time></trkpt><trkpt lat="46.2879943" lon="13.0653511"><ele>188.0</ele><time>2026-04-19T06:24:58.22Z</time></trkpt><trkpt lat="46.2879046" lon="13.0653298"><ele>188.0</ele><time>2026-04-19T06:25:01.218Z</time></trkpt><trkpt lat="46.2878374" lon="13.0653083"><ele>188.0</ele><time>2026-04-19T06:25:03.219Z</time></trkpt><trkpt lat="46.28776" lon="13.0652769"><ele>188.0</ele><time>2026-04-19T06:25:05.219Z</time></trkpt><trkpt lat="46.2876531" lon="13.0652564"><ele>188.0</ele><time>2026-04-19T06:25:07.218Z</time></trkpt><trkpt lat="46.2875354" lon="13.0652355"><ele>188.0</ele><time>2026-04-19T06:25:09.22Z</time></trkpt><trkpt lat="46.2874688" lon="13.0652271"><ele>188.0</ele><time>2026-04-19T06:25:10.219Z</time></trkpt><trkpt lat="46.2873519" lon="13.0652106"><ele>188.0</ele><time>2026-04-19T06:25:12.219Z</time></trkpt><trkpt lat="46.2872361" lon="13.0651973"><ele>188.0</ele><time>2026-04-19T06:25:14.219Z</time></trkpt><trkpt lat="46.2871714" lon="13.065185"><ele>188.0</ele><time>2026-04-19T06:25:15.219Z</time></trkpt><trkpt lat="46.2870633" lon="13.0651634"><ele>188.5</ele><time>2026-04-19T06:25:17.22Z</time></trkpt><trkpt lat="46.2869716" lon="13.065149"><ele>189.0</ele><time>2026-04-19T06:25:19.219Z</time></trkpt><trkpt lat="46.286891" lon="13.0651323"><ele>189.5</ele><time>2026-04-19T06:25:21.218Z</time></trkpt><trkpt lat="46.2868096" lon="13.0651154"><ele>190.0</ele><time>2026-04-19T06:26:07.218Z</time></trkpt><trkpt lat="46.286726" lon="13.0651002"><ele>190.5</ele><time>2026-04-19T06:26:08.218Z</time></trkpt><trkpt lat="46.2866421" lon="13.0650838"><ele>191.0</ele><time>2026-04-19T06:26:09.218Z</time></trkpt><trkpt lat="46.2865696" lon="13.065068"><ele>191.0</ele><time>2026-04-19T06:26:10.218Z</time></trkpt><trkpt lat="46.2864975" lon="13.0650525"><ele>191.0</ele><time>2026-04-19T06:26:11.218Z</time></trkpt><trkpt lat="46.2864267" lon="13.0650469"><ele>191.0</ele><time>2026-04-19T06:26:12.218Z</time></trkpt><trkpt lat="46.2863565" lon="13.0650368"><ele>191.0</ele><time>2026-04-19T06:26:13.218Z</time></trkpt><trkpt lat="46.2862813" lon="13.0650265"><ele>191.0</ele><time>2026-04-19T06:26:14.218Z</time></trkpt><trkpt lat="46.2862061" lon="13.0650117"><ele>191.0</ele><time>2026-04-19T06:26:15.218Z</time></trkpt><trkpt lat="46.2861314" lon="13.065"><ele>191.0</ele><time>2026-04-19T06:26:16.218Z</time></trkpt><trkpt lat="46.2860541" lon="13.0649874"><ele>191.33333333333331</ele><time>2026-04-19T06:26:17.218Z</time></trkpt><trkpt lat="46.2859772" lon="13.0649741"><ele>191.66666666666666</ele><time>2026-04-19T06:26:18.218Z</time></trkpt><trkpt lat="46.285904" lon="13.0649589"><ele>192.0</ele><time>2026-04-19T06:26:19.218Z</time></trkpt><trkpt lat="46.2858316" lon="13.0649451"><ele>192.33333333333331</ele><time>2026-04-19T06:26:20.218Z</time></trkpt><trkpt lat="46.2857669" lon="13.0649209"><ele>192.66666666666666</ele><time>2026-04-19T06:26:21.218Z</time></trkpt><trkpt lat="46.2856607" lon="13.0648453"><ele>193.0</ele><time>2026-04-19T06:26:23.218Z</time></trkpt><trkpt lat="46.2855733" lon="13.0647578"><ele>191.8</ele><time>2026-04-19T06:26:25.218Z</time></trkpt><trkpt lat="46.2854989" lon="13.0646634"><ele>190.60000000000002</ele><time>2026-04-19T06:26:27.218Z</time></trkpt><trkpt lat="46.2854348" lon="13.0645613"><ele>189.39999999999998</ele><time>2026-04-19T06:26:29.218Z</time></trkpt><trkpt lat="46.2853679" lon="13.0644469"><ele>188.2</ele><time>2026-04-19T06:26:31.218Z</time></trkpt><trkpt lat="46.2853052" lon="13.064339"><ele>187.0</ele><time>2026-04-19T06:26:33.218Z</time></trkpt><trkpt lat="46.2852486" lon="13.06426"><ele>187.0</ele><time>2026-04-19T06:26:35.217Z</time></trkpt><trkpt lat="46.2851908" lon="13.0642054"><ele>187.0</ele><time>2026-04-19T06:26:38.218Z</time></trkpt><trkpt lat="46.2852386" lon="13.0640806"><ele>187.0</ele><time>2026-04-19T06:26:42.219Z</time></trkpt><trkpt lat="46.2852954" lon="13.0640286"><ele>187.0</ele><time>2026-04-19T06:26:43.218Z</time></trkpt><trkpt lat="46.2853604" lon="13.0639582"><ele>187.0</ele><time>2026-04-19T06:26:44.217Z</time></trkpt><trkpt lat="46.2854373" lon="13.0638781"><ele>187.0</ele><time>2026-04-19T06:26:45.218Z</time></trkpt><trkpt lat="46.2855229" lon="13.0637933"><ele>187.5</ele><time>2026-04-19T06:26:46.217Z</time></trkpt><trkpt lat="46.2856167" lon="13.0637141"><ele>188.0</ele><time>2026-04-19T06:26:47.217Z</time></trkpt><trkpt lat="46.2857206" lon="13.0636397"><ele>188.5</ele><time>2026-04-19T06:26:48.217Z</time></trkpt><trkpt lat="46.285839" lon="13.0635776"><ele>189.0</ele><time>2026-04-19T06:26:49.217Z</time></trkpt><trkpt lat="46.2859719" lon="13.0635319"><ele>189.0</ele><time>2026-04-19T06:26:50.218Z</time></trkpt><trkpt lat="46.2861099" lon="13.0635047"><ele>189.0</ele><time>2026-04-19T06:26:51.217Z</time></trkpt><trkpt lat="46.2862507" lon="13.0634973"><ele>189.0</ele><time>2026-04-19T06:26:52.218Z</time></trkpt><trkpt lat="46.2863947" lon="13.0635134"><ele>189.0</ele><time>2026-04-19T06:26:53.218Z</time></trkpt><trkpt lat="46.2865388" lon="13.0635661"><ele>188.33333333333334</ele><time>2026-04-19T06:26:54.218Z</time></trkpt><trkpt lat="46.2866795" lon="13.0636491"><ele>187.66666666666669</ele><time>2026-04-19T06:26:55.217Z</time></trkpt><trkpt lat="46.2868186" lon="13.063737"><ele>187.0</ele><time>2026-04-19T06:26:56.218Z</time></trkpt><trkpt lat="46.2869583" lon="13.0638192"><ele>187.0</ele><time>2026-04-19T06:26:57.218Z</time></trkpt><trkpt lat="46.2870995" lon="13.063895"><ele>187.0</ele><time>2026-04-19T06:26:58.219Z</time></trkpt><trkpt lat="46.2872399" lon="13.0639651"><ele>187.0</ele><time>2026-04-19T06:26:59.217Z</time></trkpt><trkpt lat="46.2873812" lon="13.064024"><ele>187.0</ele><time>2026-04-19T06:27:00.218Z</time></trkpt><trkpt lat="46.2875138" lon="13.064062"><ele>186.5</ele><time>2026-04-19T06:27:01.218Z</time></trkpt><trkpt lat="46.2876384" lon="13.0640812"><ele>186.0</ele><time>2026-04-19T06:27:02.218Z</time></trkpt><trkpt lat="46.2877553" lon="13.0640892"><ele>185.5</ele><time>2026-04-19T06:27:03.219Z</time></trkpt><trkpt lat="46.2878645" lon="13.0640861"><ele>185.0</ele><time>2026-04-19T06:27:04.218Z</time></trkpt><trkpt lat="46.2879674" lon="13.0640784"><ele>185.0</ele><time>2026-04-19T06:27:05.217Z</time></trkpt><trkpt lat="46.2880662" lon="13.0640722"><ele>185.0</ele><time>2026-04-19T06:27:06.219Z</time></trkpt><trkpt lat="46.2881544" lon="13.0640676"><ele>185.0</ele><time>2026-04-19T06:27:07.218Z</time></trkpt><trkpt lat="46.2882213" lon="13.0640674"><ele>185.0</ele><time>2026-04-19T06:27:08.218Z</time></trkpt><trkpt lat="46.2882843" lon="13.0640999"><ele>185.0</ele><time>2026-04-19T06:27:10.218Z</time></trkpt><trkpt lat="46.2882151" lon="13.0641844"><ele>185.0</ele><time>2026-04-19T06:27:13.218Z</time></trkpt><trkpt lat="46.2881444" lon="13.0641528"><ele>185.6</ele><time>2026-04-19T06:27:15.217Z</time></trkpt><trkpt lat="46.2881715" lon="13.0640495"><ele>186.2</ele><time>2026-04-19T06:27:33.218Z</time></trkpt><trkpt lat="46.2882952" lon="13.0640578"><ele>186.8</ele><time>2026-04-19T06:27:35.218Z</time></trkpt><trkpt lat="46.288378" lon="13.0640525"><ele>187.4</ele><time>2026-04-19T06:27:36.218Z</time></trkpt><trkpt lat="46.2884598" lon="13.0640507"><ele>188.0</ele><time>2026-04-19T06:27:37.218Z</time></trkpt><trkpt lat="46.2885627" lon="13.0640572"><ele>188.0</ele><time>2026-04-19T06:27:38.218Z</time></trkpt><trkpt lat="46.2886738" lon="13.0640639"><ele>188.0</ele><time>2026-04-19T06:27:39.218Z</time></trkpt><trkpt lat="46.2887865" lon="13.0640828"><ele>188.0</ele><time>2026-04-19T06:27:40.218Z</time></trkpt><trkpt lat="46.2889083" lon="13.064105"><ele>188.0</ele><time>2026-04-19T06:27:41.217Z</time></trkpt><trkpt lat="46.2890377" lon="13.0641293"><ele>188.25</ele><time>2026-04-19T06:27:42.219Z</time></trkpt><trkpt lat="46.2891692" lon="13.0641598"><ele>188.5</ele><time>2026-04-19T06:27:43.218Z</time></trkpt><trkpt lat="46.2892984" lon="13.0641905"><ele>188.75</ele><time>2026-04-19T06:27:44.218Z</time></trkpt><trkpt lat="46.2894349" lon="13.0642204"><ele>189.0</ele><time>2026-04-19T06:27:45.217Z</time></trkpt><trkpt lat="46.2895762" lon="13.0642514"><ele>189.0</ele><time>2026-04-19T06:27:46.217Z</time></trkpt><trkpt lat="46.2897203" lon="13.0642858"><ele>189.0</ele><time>2026-04-19T06:27:47.218Z</time></trkpt><trkpt lat="46.2898715" lon="13.0643222"><ele>189.0</ele><time>2026-04-19T06:27:48.218Z</time></trkpt><trkpt lat="46.2900271" lon="13.0643656"><ele>188.66666666666666</ele><time>2026-04-19T06:27:49.218Z</time></trkpt><trkpt lat="46.2901914" lon="13.0644071"><ele>188.33333333333331</ele><time>2026-04-19T06:27:50.218Z</time></trkpt><trkpt lat="46.2903577" lon="13.0644443"><ele>188.0</ele><time>2026-04-19T06:27:51.218Z</time></trkpt><trkpt lat="46.2905245" lon="13.0644813"><ele>187.66666666666666</ele><time>2026-04-19T06:27:52.218Z</time></trkpt><trkpt lat="46.2906877" lon="13.064516"><ele>187.33333333333334</ele><time>2026-04-19T06:27:53.218Z</time></trkpt><trkpt lat="46.290856" lon="13.0645444"><ele>187.0</ele><time>2026-04-19T06:27:54.218Z</time></trkpt><trkpt lat="46.2910269" lon="13.0645482"><ele>187.0</ele><time>2026-04-19T06:27:55.217Z</time></trkpt><trkpt lat="46.2912033" lon="13.0645295"><ele>187.0</ele><time>2026-04-19T06:27:56.217Z</time></trkpt><trkpt lat="46.2913817" lon="13.0644918"><ele>187.0</ele><time>2026-04-19T06:27:57.217Z</time></trkpt><trkpt lat="46.2915601" lon="13.0644393"><ele>187.33333333333334</ele><time>2026-04-19T06:27:58.218Z</time></trkpt><trkpt lat="46.2917433" lon="13.0643838"><ele>187.66666666666666</ele><time>2026-04-19T06:27:59.218Z</time></trkpt><trkpt lat="46.291929" lon="13.0643279"><ele>188.0</ele><time>2026-04-19T06:28:00.218Z</time></trkpt><trkpt lat="46.2921149" lon="13.0642704"><ele>187.33333333333331</ele><time>2026-04-19T06:28:01.218Z</time></trkpt><trkpt lat="46.292304" lon="13.0642126"><ele>186.66666666666666</ele><time>2026-04-19T06:28:02.218Z</time></trkpt><trkpt lat="46.2924969" lon="13.0641547"><ele>186.0</ele><time>2026-04-19T06:28:03.217Z</time></trkpt><trkpt lat="46.2926883" lon="13.0640949"><ele>186.0</ele><time>2026-04-19T06:28:04.219Z</time></trkpt><trkpt lat="46.2928784" lon="13.0640207"><ele>186.0</ele><time>2026-04-19T06:28:05.219Z</time></trkpt><trkpt lat="46.2930662" lon="13.0639373"><ele>186.0</ele><time>2026-04-19T06:28:06.219Z</time></trkpt><trkpt lat="46.2932527" lon="13.0638445"><ele>187.66666666666666</ele><time>2026-04-19T06:28:07.218Z</time></trkpt><trkpt lat="46.2934398" lon="13.063745"><ele>189.33333333333331</ele><time>2026-04-19T06:28:08.218Z</time></trkpt><trkpt lat="46.2936256" lon="13.0636391"><ele>191.0</ele><time>2026-04-19T06:28:09.217Z</time></trkpt><trkpt lat="46.2938104" lon="13.0635332"><ele>192.0</ele><time>2026-04-19T06:28:10.217Z</time></trkpt><trkpt lat="46.2940007" lon="13.0634335"><ele>193.0</ele><time>2026-04-19T06:28:11.218Z</time></trkpt><trkpt lat="46.2941963" lon="13.0633518"><ele>194.0</ele><time>2026-04-19T06:28:12.218Z</time></trkpt><trkpt lat="46.2943958" lon="13.0632926"><ele>192.0</ele><time>2026-04-19T06:28:13.218Z</time></trkpt><trkpt lat="46.2945991" lon="13.0632433"><ele>190.0</ele><time>2026-04-19T06:28:14.218Z</time></trkpt><trkpt lat="46.2948013" lon="13.0631951"><ele>188.0</ele><time>2026-04-19T06:28:15.218Z</time></trkpt><trkpt lat="46.2950039" lon="13.0631529"><ele>187.66666666666666</ele><time>2026-04-19T06:28:16.218Z</time></trkpt><trkpt lat="46.2952049" lon="13.0631084"><ele>187.33333333333334</ele><time>2026-04-19T06:28:17.219Z</time></trkpt><trkpt lat="46.2953983" lon="13.063069"><ele>187.0</ele><time>2026-04-19T06:28:18.219Z</time></trkpt><trkpt lat="46.2955812" lon="13.0630304"><ele>187.66666666666669</ele><time>2026-04-19T06:28:19.217Z</time></trkpt><trkpt lat="46.295751" lon="13.0629946"><ele>188.33333333333334</ele><time>2026-04-19T06:28:20.217Z</time></trkpt><trkpt lat="46.2959108" lon="13.0629586"><ele>189.0</ele><time>2026-04-19T06:28:21.217Z</time></trkpt><trkpt lat="46.2960546" lon="13.0629296"><ele>189.0</ele><time>2026-04-19T06:28:22.217Z</time></trkpt><trkpt lat="46.2961798" lon="13.0629041"><ele>189.0</ele><time>2026-04-19T06:28:23.217Z</time></trkpt><trkpt lat="46.296283" lon="13.0628827"><ele>189.0</ele><time>2026-04-19T06:28:24.217Z</time></trkpt><trkpt lat="46.2963636" lon="13.062865"><ele>189.0</ele><time>2026-04-19T06:28:25.219Z</time></trkpt><trkpt lat="46.2964747" lon="13.0628451"><ele>189.0</ele><time>2026-04-19T06:28:27.218Z</time></trkpt><trkpt lat="46.2965441" lon="13.062885"><ele>189.66666666666666</ele><time>2026-04-19T06:28:29.218Z</time></trkpt><trkpt lat="46.2965798" lon="13.0629664"><ele>190.33333333333331</ele><time>2026-04-19T06:28:31.219Z</time></trkpt><trkpt lat="46.2966029" lon="13.063125"><ele>191.0</ele><time>2026-04-19T06:28:33.217Z</time></trkpt><trkpt lat="46.2966208" lon="13.0632306"><ele>191.66666666666666</ele><time>2026-04-19T06:28:34.217Z</time></trkpt><trkpt lat="46.296642" lon="13.0633427"><ele>192.33333333333331</ele><time>2026-04-19T06:28:35.218Z</time></trkpt><trkpt lat="46.2966735" lon="13.0634483"><ele>193.0</ele><time>2026-04-19T06:28:36.219Z</time></trkpt><trkpt lat="46.2967092" lon="13.0635439"><ele>193.33333333333331</ele><time>2026-04-19T06:28:37.218Z</time></trkpt><trkpt lat="46.2967065" lon="13.0636556"><ele>193.66666666666666</ele><time>2026-04-19T06:28:38.219Z</time></trkpt><trkpt lat="46.2966961" lon="13.0637952"><ele>194.0</ele><time>2026-04-19T06:28:40.217Z</time></trkpt><trkpt lat="46.2967057" lon="13.0639082"><ele>194.33333333333331</ele><time>2026-04-19T06:28:43.218Z</time></trkpt><trkpt lat="46.2966922" lon="13.0638036"><ele>194.66666666666666</ele><time>2026-04-19T06:28:59.218Z</time></trkpt><trkpt lat="46.2966813" lon="13.0636937"><ele>195.0</ele><time>2026-04-19T06:29:01.217Z</time></trkpt><trkpt lat="46.2966715" lon="13.0636027"><ele>195.0</ele><time>2026-04-19T06:29:02.218Z</time></trkpt><trkpt lat="46.2966443" lon="13.0633893"><ele>195.0</ele><time>2026-04-19T06:29:04.217Z</time></trkpt><trkpt lat="46.2966309" lon="13.0632986"><ele>195.0</ele><time>2026-04-19T06:29:05.217Z</time></trkpt><trkpt lat="46.2966061" lon="13.0631933"><ele>195.0</ele><time>2026-04-19T06:29:06.218Z</time></trkpt><trkpt lat="46.296606" lon="13.0630881"><ele>195.0</ele><time>2026-04-19T06:29:07.217Z</time></trkpt><trkpt lat="46.2965813" lon="13.0629646"><ele>194.6</ele><time>2026-04-19T06:29:09.218Z</time></trkpt><trkpt lat="46.296604" lon="13.0628487"><ele>194.2</ele><time>2026-04-19T06:29:12.218Z</time></trkpt><trkpt lat="46.2967151" lon="13.0627966"><ele>193.8</ele><time>2026-04-19T06:29:14.218Z</time></trkpt><trkpt lat="46.2968247" lon="13.0627763"><ele>193.4</ele><time>2026-04-19T06:29:15.218Z</time></trkpt><trkpt lat="46.2969325" lon="13.0627477"><ele>193.0</ele><time>2026-04-19T06:29:16.217Z</time></trkpt><trkpt lat="46.2970637" lon="13.0627191"><ele>193.0</ele><time>2026-04-19T06:29:17.218Z</time></trkpt><trkpt lat="46.2972203" lon="13.0626856"><ele>193.0</ele><time>2026-04-19T06:29:18.219Z</time></trkpt><trkpt lat="46.2973938" lon="13.0626438"><ele>193.0</ele><time>2026-04-19T06:29:19.218Z</time></trkpt><trkpt lat="46.2975912" lon="13.0626014"><ele>192.66666666666666</ele><time>2026-04-19T06:29:20.219Z</time></trkpt><trkpt lat="46.2977842" lon="13.0625627"><ele>192.33333333333331</ele><time>2026-04-19T06:29:21.218Z</time></trkpt><trkpt lat="46.297979" lon="13.0625186"><ele>192.0</ele><time>2026-04-19T06:29:22.218Z</time></trkpt><trkpt lat="46.2981889" lon="13.0624719"><ele>192.0</ele><time>2026-04-19T06:29:23.218Z</time></trkpt><trkpt lat="46.2984176" lon="13.0624203"><ele>192.0</ele><time>2026-04-19T06:29:24.218Z</time></trkpt><trkpt lat="46.2986547" lon="13.0623609"><ele>192.0</ele><time>2026-04-19T06:29:25.218Z</time></trkpt><trkpt lat="46.2988896" lon="13.062298"><ele>192.0</ele><time>2026-04-19T06:29:26.218Z</time></trkpt><trkpt lat="46.2991299" lon="13.0622356"><ele>192.5</ele><time>2026-04-19T06:29:27.219Z</time></trkpt><trkpt lat="46.2993629" lon="13.062166"><ele>193.0</ele><time>2026-04-19T06:29:28.217Z</time></trkpt><trkpt lat="46.299591" lon="13.0620984"><ele>193.33333333333331</ele><time>2026-04-19T06:29:29.219Z</time></trkpt><trkpt lat="46.2998116" lon="13.062026"><ele>193.66666666666669</ele><time>2026-04-19T06:29:30.218Z</time></trkpt><trkpt lat="46.3000251" lon="13.061954"><ele>194.0</ele><time>2026-04-19T06:29:31.218Z</time></trkpt><trkpt lat="46.3002393" lon="13.0618822"><ele>194.0</ele><time>2026-04-19T06:29:32.218Z</time></trkpt><trkpt lat="46.3004489" lon="13.0618107"><ele>194.0</ele><time>2026-04-19T06:29:33.219Z</time></trkpt><trkpt lat="46.3006612" lon="13.0617385"><ele>194.0</ele><time>2026-04-19T06:29:34.218Z</time></trkpt><trkpt lat="46.3008719" lon="13.0616686"><ele>194.0</ele><time>2026-04-19T06:29:35.217Z</time></trkpt><trkpt lat="46.3010813" lon="13.061599"><ele>194.0</ele><time>2026-04-19T06:29:36.218Z</time></trkpt><trkpt lat="46.301291" lon="13.0615287"><ele>194.0</ele><time>2026-04-19T06:29:37.218Z</time></trkpt><trkpt lat="46.3015005" lon="13.0614545"><ele>194.0</ele><time>2026-04-19T06:29:38.217Z</time></trkpt><trkpt lat="46.3017074" lon="13.0613845"><ele>194.0</ele><time>2026-04-19T06:29:39.218Z</time></trkpt><trkpt lat="46.3019147" lon="13.0613143"><ele>194.0</ele><time>2026-04-19T06:29:40.218Z</time></trkpt><trkpt lat="46.3021233" lon="13.0612475"><ele>193.33333333333334</ele><time>2026-04-19T06:29:41.217Z</time></trkpt><trkpt lat="46.3023318" lon="13.0611759"><ele>192.66666666666669</ele><time>2026-04-19T06:29:42.217Z</time></trkpt><trkpt lat="46.3025362" lon="13.0611041"><ele>192.0</ele><time>2026-04-19T06:29:43.218Z</time></trkpt><trkpt lat="46.3027417" lon="13.0610306"><ele>192.0</ele><time>2026-04-19T06:29:44.218Z</time></trkpt><trkpt lat="46.3029463" lon="13.0609562"><ele>192.0</ele><time>2026-04-19T06:29:45.218Z</time></trkpt><trkpt lat="46.303151" lon="13.060891"><ele>192.0</ele><time>2026-04-19T06:29:46.218Z</time></trkpt><trkpt lat="46.3033552" lon="13.0608247"><ele>193.33333333333331</ele><time>2026-04-19T06:29:47.217Z</time></trkpt><trkpt lat="46.3035586" lon="13.0607557"><ele>194.66666666666666</ele><time>2026-04-19T06:29:48.217Z</time></trkpt><trkpt lat="46.3037662" lon="13.0606835"><ele>196.0</ele><time>2026-04-19T06:29:49.217Z</time></trkpt><trkpt lat="46.3039746" lon="13.0606146"><ele>196.0</ele><time>2026-04-19T06:29:50.218Z</time></trkpt><trkpt lat="46.3041858" lon="13.0605488"><ele>196.0</ele><time>2026-04-19T06:29:51.217Z</time></trkpt><trkpt lat="46.3043961" lon="13.060479"><ele>196.0</ele><time>2026-04-19T06:29:52.217Z</time></trkpt><trkpt lat="46.3046063" lon="13.0604065"><ele>196.33333333333331</ele><time>2026-04-19T06:29:53.218Z</time></trkpt><trkpt lat="46.3048151" lon="13.0603394"><ele>196.66666666666669</ele><time>2026-04-19T06:29:54.218Z</time></trkpt><trkpt lat="46.3050271" lon="13.0602679"><ele>197.0</ele><time>2026-04-19T06:29:55.217Z</time></trkpt><trkpt lat="46.3052372" lon="13.0601979"><ele>197.0</ele><time>2026-04-19T06:29:56.218Z</time></trkpt><trkpt lat="46.3054443" lon="13.0601268"><ele>197.0</ele><time>2026-04-19T06:29:57.218Z</time></trkpt><trkpt lat="46.3056373" lon="13.0600634"><ele>197.0</ele><time>2026-04-19T06:29:58.219Z</time></trkpt><trkpt lat="46.3058256" lon="13.0599995"><ele>196.33333333333334</ele><time>2026-04-19T06:29:59.218Z</time></trkpt><trkpt lat="46.3060015" lon="13.0599231"><ele>195.66666666666669</ele><time>2026-04-19T06:30:00.218Z</time></trkpt><trkpt lat="46.3061738" lon="13.0598283"><ele>195.0</ele><time>2026-04-19T06:30:01.218Z</time></trkpt><trkpt lat="46.3063418" lon="13.059707"><ele>196.0</ele><time>2026-04-19T06:30:02.218Z</time></trkpt><trkpt lat="46.3065091" lon="13.0595709"><ele>197.0</ele><time>2026-04-19T06:30:03.218Z</time></trkpt><trkpt lat="46.3066739" lon="13.0594196"><ele>198.0</ele><time>2026-04-19T06:30:04.217Z</time></trkpt><trkpt lat="46.3068437" lon="13.059264"><ele>198.0</ele><time>2026-04-19T06:30:05.217Z</time></trkpt><trkpt lat="46.3070197" lon="13.0590997"><ele>198.0</ele><time>2026-04-19T06:30:06.217Z</time></trkpt><trkpt lat="46.3072" lon="13.0589356"><ele>198.0</ele><time>2026-04-19T06:30:07.218Z</time></trkpt><trkpt lat="46.3073901" lon="13.0587682"><ele>198.0</ele><time>2026-04-19T06:30:08.218Z</time></trkpt><trkpt lat="46.3075869" lon="13.0585877"><ele>198.0</ele><time>2026-04-19T06:30:09.217Z</time></trkpt><trkpt lat="46.3077855" lon="13.0584064"><ele>197.5</ele><time>2026-04-19T06:30:10.218Z</time></trkpt><trkpt lat="46.3079806" lon="13.0582274"><ele>197.0</ele><time>2026-04-19T06:30:11.217Z</time></trkpt><trkpt lat="46.3081746" lon="13.0580503"><ele>197.66666666666669</ele><time>2026-04-19T06:30:12.217Z</time></trkpt><trkpt lat="46.3083607" lon="13.0578777"><ele>198.33333333333331</ele><time>2026-04-19T06:30:13.217Z</time></trkpt><trkpt lat="46.3085404" lon="13.0577157"><ele>199.0</ele><time>2026-04-19T06:30:14.217Z</time></trkpt><trkpt lat="46.3087144" lon="13.0575538"><ele>198.66666666666666</ele><time>2026-04-19T06:30:15.217Z</time></trkpt><trkpt lat="46.3088825" lon="13.0573997"><ele>198.33333333333331</ele><time>2026-04-19T06:30:16.218Z</time></trkpt><trkpt lat="46.3090436" lon="13.0572514"><ele>198.0</ele><time>2026-04-19T06:30:17.217Z</time></trkpt><trkpt lat="46.3091926" lon="13.0571145"><ele>197.75</ele><time>2026-04-19T06:30:18.217Z</time></trkpt><trkpt lat="46.3093253" lon="13.0569881"><ele>197.5</ele><time>2026-04-19T06:30:19.218Z</time></trkpt><trkpt lat="46.3094426" lon="13.0568724"><ele>197.25</ele><time>2026-04-19T06:30:20.217Z</time></trkpt><trkpt lat="46.3095476" lon="13.0567745"><ele>197.0</ele><time>2026-04-19T06:30:21.218Z</time></trkpt><trkpt lat="46.3096397" lon="13.0566927"><ele>197.0</ele><time>2026-04-19T06:30:22.217Z</time></trkpt><trkpt lat="46.3097245" lon="13.0566218"><ele>197.0</ele><time>2026-04-19T06:30:23.218Z</time></trkpt><trkpt lat="46.309799" lon="13.0565677"><ele>197.0</ele><time>2026-04-19T06:30:24.217Z</time></trkpt><trkpt lat="46.3098786" lon="13.0565111"><ele>197.0</ele><time>2026-04-19T06:30:25.217Z</time></trkpt><trkpt lat="46.3099659" lon="13.0564341"><ele>197.0</ele><time>2026-04-19T06:30:26.218Z</time></trkpt><trkpt lat="46.3100611" lon="13.0563487"><ele>197.5</ele><time>2026-04-19T06:30:27.217Z</time></trkpt><trkpt lat="46.3101529" lon="13.0562506"><ele>198.0</ele><time>2026-04-19T06:30:28.218Z</time></trkpt><trkpt lat="46.3102486" lon="13.056149"><ele>198.5</ele><time>2026-04-19T06:30:29.217Z</time></trkpt><trkpt lat="46.310352" lon="13.0560479"><ele>199.0</ele><time>2026-04-19T06:30:30.216Z</time></trkpt><trkpt lat="46.3104588" lon="13.05595"><ele>199.0</ele><time>2026-04-19T06:30:31.217Z</time></trkpt><trkpt lat="46.3105642" lon="13.0558559"><ele>199.0</ele><time>2026-04-19T06:30:32.217Z</time></trkpt><trkpt lat="46.3106698" lon="13.0557595"><ele>199.0</ele><time>2026-04-19T06:30:33.217Z</time></trkpt><trkpt lat="46.3107735" lon="13.0556653"><ele>199.0</ele><time>2026-04-19T06:30:34.217Z</time></trkpt><trkpt lat="46.3108781" lon="13.0555737"><ele>199.25</ele><time>2026-04-19T06:30:35.216Z</time></trkpt><trkpt lat="46.3109804" lon="13.0554804"><ele>199.5</ele><time>2026-04-19T06:30:36.217Z</time></trkpt><trkpt lat="46.3110856" lon="13.0553863"><ele>199.75</ele><time>2026-04-19T06:30:37.217Z</time></trkpt><trkpt lat="46.31119" lon="13.0552926"><ele>200.0</ele><time>2026-04-19T06:30:38.217Z</time></trkpt><trkpt lat="46.3112927" lon="13.0551994"><ele>200.0</ele><time>2026-04-19T06:30:39.217Z</time></trkpt><trkpt lat="46.3113925" lon="13.0551035"><ele>200.0</ele><time>2026-04-19T06:30:40.218Z</time></trkpt><trkpt lat="46.3114924" lon="13.0550115"><ele>200.0</ele><time>2026-04-19T06:30:41.217Z</time></trkpt><trkpt lat="46.3115938" lon="13.0549154"><ele>200.0</ele><time>2026-04-19T06:30:42.216Z</time></trkpt><trkpt lat="46.3116953" lon="13.0548206"><ele>200.0</ele><time>2026-04-19T06:30:43.216Z</time></trkpt><trkpt lat="46.3117953" lon="13.0547286"><ele>200.0</ele><time>2026-04-19T06:30:44.217Z</time></trkpt><trkpt lat="46.3118927" lon="13.0546349"><ele>200.0</ele><time>2026-04-19T06:30:45.217Z</time></trkpt><trkpt lat="46.3119935" lon="13.0545398"><ele>200.0</ele><time>2026-04-19T06:30:46.217Z</time></trkpt><trkpt lat="46.312094" lon="13.0544492"><ele>200.0</ele><time>2026-04-19T06:30:47.218Z</time></trkpt><trkpt lat="46.3121939" lon="13.0543568"><ele>200.0</ele><time>2026-04-19T06:30:48.217Z</time></trkpt><trkpt lat="46.3122954" lon="13.054265"><ele>200.0</ele><time>2026-04-19T06:30:49.218Z</time></trkpt><trkpt lat="46.3123971" lon="13.0541729"><ele>200.0</ele><time>2026-04-19T06:30:50.216Z</time></trkpt><trkpt lat="46.3124978" lon="13.0540784"><ele>200.75</ele><time>2026-04-19T06:30:51.217Z</time></trkpt><trkpt lat="46.3126008" lon="13.0539826"><ele>201.5</ele><time>2026-04-19T06:30:52.217Z</time></trkpt><trkpt lat="46.3127023" lon="13.0538924"><ele>202.25</ele><time>2026-04-19T06:30:53.216Z</time></trkpt><trkpt lat="46.3128026" lon="13.0537958"><ele>203.0</ele><time>2026-04-19T06:30:54.216Z</time></trkpt><trkpt lat="46.3129029" lon="13.053701"><ele>203.0</ele><time>2026-04-19T06:30:55.216Z</time></trkpt><trkpt lat="46.3130056" lon="13.0536059"><ele>203.0</ele><time>2026-04-19T06:30:56.218Z</time></trkpt><trkpt lat="46.3131108" lon="13.0535226"><ele>203.0</ele><time>2026-04-19T06:30:57.217Z</time></trkpt><trkpt lat="46.3132171" lon="13.0534503"><ele>203.0</ele><time>2026-04-19T06:30:58.217Z</time></trkpt><trkpt lat="46.3133277" lon="13.0533851"><ele>203.25</ele><time>2026-04-19T06:30:59.217Z</time></trkpt><trkpt lat="46.3134379" lon="13.0533292"><ele>203.5</ele><time>2026-04-19T06:31:00.217Z</time></trkpt><trkpt lat="46.3135474" lon="13.0532727"><ele>203.75</ele><time>2026-04-19T06:31:01.217Z</time></trkpt><trkpt lat="46.3136561" lon="13.0532208"><ele>204.0</ele><time>2026-04-19T06:31:02.217Z</time></trkpt><trkpt lat="46.3137642" lon="13.0531641"><ele>203.79999999999998</ele><time>2026-04-19T06:31:03.217Z</time></trkpt><trkpt lat="46.3138711" lon="13.0531047"><ele>203.6</ele><time>2026-04-19T06:31:04.216Z</time></trkpt><trkpt lat="46.3139737" lon="13.0530423"><ele>203.4</ele><time>2026-04-19T06:31:05.216Z</time></trkpt><trkpt lat="46.314078" lon="13.0529887"><ele>203.2</ele><time>2026-04-19T06:31:06.217Z</time></trkpt><trkpt lat="46.3141812" lon="13.0529323"><ele>203.0</ele><time>2026-04-19T06:31:07.218Z</time></trkpt><trkpt lat="46.3142868" lon="13.0528784"><ele>203.0</ele><time>2026-04-19T06:31:08.217Z</time></trkpt><trkpt lat="46.3143911" lon="13.0528218"><ele>203.0</ele><time>2026-04-19T06:31:09.217Z</time></trkpt><trkpt lat="46.3144988" lon="13.052773"><ele>203.0</ele><time>2026-04-19T06:31:10.217Z</time></trkpt><trkpt lat="46.3146063" lon="13.0527417"><ele>203.0</ele><time>2026-04-19T06:31:11.217Z</time></trkpt><trkpt lat="46.314714" lon="13.0527183"><ele>203.0</ele><time>2026-04-19T06:31:12.216Z</time></trkpt><trkpt lat="46.3148288" lon="13.0527165"><ele>203.25</ele><time>2026-04-19T06:31:13.217Z</time></trkpt><trkpt lat="46.3149437" lon="13.052717"><ele>203.5</ele><time>2026-04-19T06:31:14.218Z</time></trkpt><trkpt lat="46.3150601" lon="13.0527108"><ele>203.75</ele><time>2026-04-19T06:31:15.216Z</time></trkpt><trkpt lat="46.3151754" lon="13.0527012"><ele>204.0</ele><time>2026-04-19T06:31:16.217Z</time></trkpt><trkpt lat="46.3152903" lon="13.0526979"><ele>204.0</ele><time>2026-04-19T06:31:17.217Z</time></trkpt><trkpt lat="46.3154021" lon="13.0527143"><ele>204.0</ele><time>2026-04-19T06:31:18.217Z</time></trkpt><trkpt lat="46.315508" lon="13.0527485"><ele>204.0</ele><time>2026-04-19T06:31:19.217Z</time></trkpt><trkpt lat="46.3156113" lon="13.0528005"><ele>204.0</ele><time>2026-04-19T06:31:20.217Z</time></trkpt><trkpt lat="46.3157095" lon="13.052862"><ele>204.0</ele><time>2026-04-19T06:31:21.217Z</time></trkpt><trkpt lat="46.3158016" lon="13.0529319"><ele>204.2</ele><time>2026-04-19T06:31:22.217Z</time></trkpt><trkpt lat="46.3158967" lon="13.0529954"><ele>204.39999999999998</ele><time>2026-04-19T06:31:23.217Z</time></trkpt><trkpt lat="46.3159934" lon="13.0530591"><ele>204.6</ele><time>2026-04-19T06:31:24.218Z</time></trkpt><trkpt lat="46.3160866" lon="13.0531072"><ele>204.8</ele><time>2026-04-19T06:31:25.218Z</time></trkpt><trkpt lat="46.3161793" lon="13.0531492"><ele>205.0</ele><time>2026-04-19T06:31:26.217Z</time></trkpt><trkpt lat="46.3162745" lon="13.0531859"><ele>205.0</ele><time>2026-04-19T06:31:27.217Z</time></trkpt><trkpt lat="46.3163684" lon="13.0532285"><ele>205.0</ele><time>2026-04-19T06:31:28.217Z</time></trkpt><trkpt lat="46.3164592" lon="13.0532729"><ele>205.0</ele><time>2026-04-19T06:31:29.217Z</time></trkpt><trkpt lat="46.3165512" lon="13.0533176"><ele>205.0</ele><time>2026-04-19T06:31:30.217Z</time></trkpt><trkpt lat="46.3166446" lon="13.0533555"><ele>205.0</ele><time>2026-04-19T06:31:31.218Z</time></trkpt><trkpt lat="46.3167378" lon="13.0533852"><ele>205.16666666666666</ele><time>2026-04-19T06:31:32.217Z</time></trkpt><trkpt lat="46.3168275" lon="13.0534042"><ele>205.33333333333331</ele><time>2026-04-19T06:31:33.218Z</time></trkpt><trkpt lat="46.3169127" lon="13.0534193"><ele>205.5</ele><time>2026-04-19T06:31:34.217Z</time></trkpt><trkpt lat="46.3169847" lon="13.0534467"><ele>205.66666666666669</ele><time>2026-04-19T06:31:35.217Z</time></trkpt><trkpt lat="46.3170494" lon="13.0534842"><ele>205.83333333333334</ele><time>2026-04-19T06:31:36.217Z</time></trkpt><trkpt lat="46.3171022" lon="13.0535395"><ele>206.0</ele><time>2026-04-19T06:31:37.217Z</time></trkpt><trkpt lat="46.3171368" lon="13.053628"><ele>205.99999999999997</ele><time>2026-04-19T06:31:38.217Z</time></trkpt><trkpt lat="46.3171604" lon="13.0537276"><ele>206.0</ele><time>2026-04-19T06:31:39.216Z</time></trkpt><trkpt lat="46.3171786" lon="13.0538223"><ele>206.0</ele><time>2026-04-19T06:31:40.217Z</time></trkpt><trkpt lat="46.3171933" lon="13.0539168"><ele>206.0</ele><time>2026-04-19T06:31:41.217Z</time></trkpt><trkpt lat="46.3172122" lon="13.0540096"><ele>206.0</ele><time>2026-04-19T06:31:42.217Z</time></trkpt><trkpt lat="46.3172364" lon="13.0541109"><ele>205.99999999999997</ele><time>2026-04-19T06:31:43.217Z</time></trkpt><trkpt lat="46.3172709" lon="13.054212"><ele>206.0</ele><time>2026-04-19T06:31:44.218Z</time></trkpt><trkpt lat="46.3173133" lon="13.0543149"><ele>205.7142857142857</ele><time>2026-04-19T06:31:45.217Z</time></trkpt><trkpt lat="46.3173598" lon="13.0544131"><ele>205.42857142857142</ele><time>2026-04-19T06:31:46.218Z</time></trkpt><trkpt lat="46.317413" lon="13.0545074"><ele>205.14285714285714</ele><time>2026-04-19T06:31:47.216Z</time></trkpt><trkpt lat="46.3174661" lon="13.0545846"><ele>204.85714285714283</ele><time>2026-04-19T06:31:48.218Z</time></trkpt><trkpt lat="46.3175189" lon="13.0546528"><ele>204.57142857142858</ele><time>2026-04-19T06:31:49.216Z</time></trkpt><trkpt lat="46.3175694" lon="13.0547119"><ele>204.28571428571428</ele><time>2026-04-19T06:31:50.218Z</time></trkpt><trkpt lat="46.3176237" lon="13.0547611"><ele>204.0</ele><time>2026-04-19T06:31:51.217Z</time></trkpt><trkpt lat="46.3177275" lon="13.0548494"><ele>204.0</ele><time>2026-04-19T06:31:53.217Z</time></trkpt><trkpt lat="46.317825" lon="13.0549399"><ele>204.0</ele><time>2026-04-19T06:31:55.217Z</time></trkpt><trkpt lat="46.3178837" lon="13.0549879"><ele>204.0</ele><time>2026-04-19T06:31:56.217Z</time></trkpt><trkpt lat="46.3179575" lon="13.0550189"><ele>204.0</ele><time>2026-04-19T06:31:57.217Z</time></trkpt><trkpt lat="46.3180539" lon="13.0550318"><ele>204.0</ele><time>2026-04-19T06:31:58.217Z</time></trkpt><trkpt lat="46.3181782" lon="13.0550422"><ele>203.0</ele><time>2026-04-19T06:31:59.216Z</time></trkpt><trkpt lat="46.3183089" lon="13.0550682"><ele>202.0</ele><time>2026-04-19T06:32:00.216Z</time></trkpt><trkpt lat="46.3184291" lon="13.0550949"><ele>201.0</ele><time>2026-04-19T06:32:01.217Z</time></trkpt><trkpt lat="46.3185467" lon="13.0551197"><ele>200.0</ele><time>2026-04-19T06:32:02.217Z</time></trkpt><trkpt lat="46.3186602" lon="13.0551421"><ele>200.0</ele><time>2026-04-19T06:32:03.217Z</time></trkpt><trkpt lat="46.318768" lon="13.0551786"><ele>200.0</ele><time>2026-04-19T06:32:04.217Z</time></trkpt><trkpt lat="46.3188714" lon="13.0552423"><ele>200.0</ele><time>2026-04-19T06:32:05.216Z</time></trkpt><trkpt lat="46.318971" lon="13.0553254"><ele>200.0</ele><time>2026-04-19T06:32:06.217Z</time></trkpt><trkpt lat="46.3190664" lon="13.0554294"><ele>199.75</ele><time>2026-04-19T06:32:07.217Z</time></trkpt><trkpt lat="46.3191548" lon="13.0555506"><ele>199.5</ele><time>2026-04-19T06:32:08.217Z</time></trkpt><trkpt lat="46.3192358" lon="13.0556741"><ele>199.25</ele><time>2026-04-19T06:32:09.217Z</time></trkpt><trkpt lat="46.3193181" lon="13.0558001"><ele>199.0</ele><time>2026-04-19T06:32:10.218Z</time></trkpt><trkpt lat="46.3193996" lon="13.0559291"><ele>199.0</ele><time>2026-04-19T06:32:11.217Z</time></trkpt><trkpt lat="46.3194822" lon="13.0560577"><ele>199.0</ele><time>2026-04-19T06:32:12.217Z</time></trkpt><trkpt lat="46.3195722" lon="13.0561809"><ele>199.0</ele><time>2026-04-19T06:32:13.217Z</time></trkpt><trkpt lat="46.3196839" lon="13.0562768"><ele>199.0</ele><time>2026-04-19T06:32:14.216Z</time></trkpt><trkpt lat="46.3198102" lon="13.0563546"><ele>199.5</ele><time>2026-04-19T06:32:15.216Z</time></trkpt><trkpt lat="46.3199337" lon="13.0564324"><ele>200.0</ele><time>2026-04-19T06:32:16.216Z</time></trkpt><trkpt lat="46.3200585" lon="13.0564993"><ele>200.5</ele><time>2026-04-19T06:32:17.216Z</time></trkpt><trkpt lat="46.3201803" lon="13.0565743"><ele>201.0</ele><time>2026-04-19T06:32:18.218Z</time></trkpt><trkpt lat="46.3202903" lon="13.0566814"><ele>201.25</ele><time>2026-04-19T06:32:19.217Z</time></trkpt><trkpt lat="46.3203829" lon="13.0568227"><ele>201.5</ele><time>2026-04-19T06:32:20.217Z</time></trkpt><trkpt lat="46.3204669" lon="13.0569795"><ele>201.75</ele><time>2026-04-19T06:32:21.216Z</time></trkpt><trkpt lat="46.320545" lon="13.0571547"><ele>202.0</ele><time>2026-04-19T06:32:22.217Z</time></trkpt><trkpt lat="46.3206199" lon="13.0573392"><ele>202.33333333333331</ele><time>2026-04-19T06:32:23.217Z</time></trkpt><trkpt lat="46.3206959" lon="13.0575319"><ele>202.66666666666669</ele><time>2026-04-19T06:32:24.217Z</time></trkpt><trkpt lat="46.3207723" lon="13.0577288"><ele>203.0</ele><time>2026-04-19T06:32:25.217Z</time></trkpt><trkpt lat="46.3208484" lon="13.0579311"><ele>203.0</ele><time>2026-04-19T06:32:26.217Z</time></trkpt><trkpt lat="46.3209257" lon="13.0581375"><ele>203.0</ele><time>2026-04-19T06:32:27.218Z</time></trkpt><trkpt lat="46.321009" lon="13.0583416"><ele>203.0</ele><time>2026-04-19T06:32:28.216Z</time></trkpt><trkpt lat="46.3210945" lon="13.058533"><ele>202.66666666666669</ele><time>2026-04-19T06:32:29.217Z</time></trkpt><trkpt lat="46.321197" lon="13.0587147"><ele>202.33333333333331</ele><time>2026-04-19T06:32:30.217Z</time></trkpt><trkpt lat="46.3213164" lon="13.0588767"><ele>202.0</ele><time>2026-04-19T06:32:31.217Z</time></trkpt><trkpt lat="46.321452" lon="13.0590198"><ele>202.66666666666666</ele><time>2026-04-19T06:32:32.217Z</time></trkpt><trkpt lat="46.3215951" lon="13.0591589"><ele>203.33333333333331</ele><time>2026-04-19T06:32:33.216Z</time></trkpt><trkpt lat="46.3217343" lon="13.0593045"><ele>204.0</ele><time>2026-04-19T06:32:34.216Z</time></trkpt><trkpt lat="46.3218782" lon="13.0594479"><ele>204.0</ele><time>2026-04-19T06:32:35.217Z</time></trkpt><trkpt lat="46.3220197" lon="13.0595907"><ele>204.0</ele><time>2026-04-19T06:32:36.216Z</time></trkpt><trkpt lat="46.3221624" lon="13.0597367"><ele>204.0</ele><time>2026-04-19T06:32:37.217Z</time></trkpt><trkpt lat="46.322304" lon="13.0598707"><ele>203.66666666666669</ele><time>2026-04-19T06:32:38.217Z</time></trkpt><trkpt lat="46.3224479" lon="13.0599936"><ele>203.33333333333334</ele><time>2026-04-19T06:32:39.217Z</time></trkpt><trkpt lat="46.3225937" lon="13.0601038"><ele>203.0</ele><time>2026-04-19T06:32:40.217Z</time></trkpt><trkpt lat="46.3227385" lon="13.0602074"><ele>203.0</ele><time>2026-04-19T06:32:41.217Z</time></trkpt><trkpt lat="46.3228774" lon="13.0603134"><ele>203.0</ele><time>2026-04-19T06:32:42.216Z</time></trkpt><trkpt lat="46.323014" lon="13.0604249"><ele>203.0</ele><time>2026-04-19T06:32:43.217Z</time></trkpt><trkpt lat="46.323139" lon="13.0605326"><ele>203.25</ele><time>2026-04-19T06:32:44.217Z</time></trkpt><trkpt lat="46.3232581" lon="13.0606459"><ele>203.5</ele><time>2026-04-19T06:32:45.217Z</time></trkpt><trkpt lat="46.3233697" lon="13.0607683"><ele>203.75</ele><time>2026-04-19T06:32:46.217Z</time></trkpt><trkpt lat="46.323471" lon="13.060908"><ele>204.0</ele><time>2026-04-19T06:32:47.216Z</time></trkpt><trkpt lat="46.3235647" lon="13.0610541"><ele>204.25</ele><time>2026-04-19T06:32:48.216Z</time></trkpt><trkpt lat="46.3236377" lon="13.0612566"><ele>204.5</ele><time>2026-04-19T06:32:49.216Z</time></trkpt><trkpt lat="46.3236741" lon="13.0614617"><ele>204.75</ele><time>2026-04-19T06:32:50.217Z</time></trkpt><trkpt lat="46.3237026" lon="13.0616659"><ele>205.0</ele><time>2026-04-19T06:32:51.217Z</time></trkpt><trkpt lat="46.3237246" lon="13.0618627"><ele>205.0</ele><time>2026-04-19T06:32:52.218Z</time></trkpt><trkpt lat="46.3237567" lon="13.0620477"><ele>205.0</ele><time>2026-04-19T06:32:53.217Z</time></trkpt><trkpt lat="46.3238065" lon="13.0621986"><ele>205.0</ele><time>2026-04-19T06:32:54.218Z</time></trkpt><trkpt lat="46.3238693" lon="13.0623137"><ele>205.0</ele><time>2026-04-19T06:32:55.216Z</time></trkpt><trkpt lat="46.323955" lon="13.0623977"><ele>204.75</ele><time>2026-04-19T06:32:56.216Z</time></trkpt><trkpt lat="46.3240567" lon="13.0624544"><ele>204.5</ele><time>2026-04-19T06:32:57.216Z</time></trkpt><trkpt lat="46.3241729" lon="13.0625057"><ele>204.25</ele><time>2026-04-19T06:32:58.216Z</time></trkpt><trkpt lat="46.3243002" lon="13.0625619"><ele>204.0</ele><time>2026-04-19T06:32:59.217Z</time></trkpt><trkpt lat="46.3244371" lon="13.06262"><ele>204.0</ele><time>2026-04-19T06:33:00.217Z</time></trkpt><trkpt lat="46.3245653" lon="13.0626734"><ele>204.0</ele><time>2026-04-19T06:33:01.217Z</time></trkpt><trkpt lat="46.3246972" lon="13.062732"><ele>204.0</ele><time>2026-04-19T06:33:02.217Z</time></trkpt><trkpt lat="46.324827" lon="13.0627958"><ele>204.0</ele><time>2026-04-19T06:33:03.217Z</time></trkpt><trkpt lat="46.324956" lon="13.0628628"><ele>204.75</ele><time>2026-04-19T06:33:04.217Z</time></trkpt><trkpt lat="46.3250823" lon="13.0629415"><ele>205.5</ele><time>2026-04-19T06:33:05.216Z</time></trkpt><trkpt lat="46.3252017" lon="13.0630165"><ele>206.25</ele><time>2026-04-19T06:33:06.217Z</time></trkpt><trkpt lat="46.3253209" lon="13.0630825"><ele>207.0</ele><time>2026-04-19T06:33:07.217Z</time></trkpt><trkpt lat="46.3254437" lon="13.0631369"><ele>206.75</ele><time>2026-04-19T06:33:08.217Z</time></trkpt><trkpt lat="46.3255688" lon="13.0631831"><ele>206.5</ele><time>2026-04-19T06:33:09.217Z</time></trkpt><trkpt lat="46.3256961" lon="13.0632278"><ele>206.25</ele><time>2026-04-19T06:33:10.218Z</time></trkpt><trkpt lat="46.3258265" lon="13.0632742"><ele>206.0</ele><time>2026-04-19T06:33:11.217Z</time></trkpt><trkpt lat="46.3259531" lon="13.0633194"><ele>206.0</ele><time>2026-04-19T06:33:12.217Z</time></trkpt><trkpt lat="46.3260728" lon="13.0633616"><ele>206.0</ele><time>2026-04-19T06:33:13.217Z</time></trkpt><trkpt lat="46.3261822" lon="13.0634147"><ele>206.0</ele><time>2026-04-19T06:33:14.217Z</time></trkpt><trkpt lat="46.326282" lon="13.0634867"><ele>206.0</ele><time>2026-04-19T06:33:15.216Z</time></trkpt><trkpt lat="46.3263759" lon="13.0635883"><ele>209.75</ele><time>2026-04-19T06:33:16.218Z</time></trkpt><trkpt lat="46.3264681" lon="13.0637146"><ele>213.5</ele><time>2026-04-19T06:33:17.217Z</time></trkpt><trkpt lat="46.3265595" lon="13.0638534"><ele>217.25</ele><time>2026-04-19T06:33:18.217Z</time></trkpt><trkpt lat="46.3266526" lon="13.0639968"><ele>221.0</ele><time>2026-04-19T06:33:19.217Z</time></trkpt><trkpt lat="46.3267443" lon="13.0641404"><ele>221.0</ele><time>2026-04-19T06:33:20.217Z</time></trkpt><trkpt lat="46.3268355" lon="13.0642792"><ele>221.0</ele><time>2026-04-19T06:33:21.217Z</time></trkpt><trkpt lat="46.3269209" lon="13.0644165"><ele>221.0</ele><time>2026-04-19T06:33:22.216Z</time></trkpt><trkpt lat="46.326995" lon="13.0645616"><ele>221.0</ele><time>2026-04-19T06:33:23.217Z</time></trkpt><trkpt lat="46.3270548" lon="13.0647163"><ele>221.0</ele><time>2026-04-19T06:33:24.217Z</time></trkpt><trkpt lat="46.3271085" lon="13.064872"><ele>221.00000000000003</ele><time>2026-04-19T06:33:25.217Z</time></trkpt><trkpt lat="46.3271663" lon="13.0650089"><ele>221.00000000000003</ele><time>2026-04-19T06:33:26.216Z</time></trkpt><trkpt lat="46.3272401" lon="13.0651242"><ele>221.0</ele><time>2026-04-19T06:33:27.217Z</time></trkpt><trkpt lat="46.3273291" lon="13.0652138"><ele>221.0</ele><time>2026-04-19T06:33:28.217Z</time></trkpt><trkpt lat="46.3274354" lon="13.0652917"><ele>221.75</ele><time>2026-04-19T06:33:29.217Z</time></trkpt><trkpt lat="46.327538" lon="13.0653705"><ele>222.5</ele><time>2026-04-19T06:33:30.217Z</time></trkpt><trkpt lat="46.3276371" lon="13.065448"><ele>223.25</ele><time>2026-04-19T06:33:31.218Z</time></trkpt><trkpt lat="46.3277353" lon="13.0655233"><ele>224.0</ele><time>2026-04-19T06:33:32.217Z</time></trkpt><trkpt lat="46.3278332" lon="13.0655994"><ele>224.0</ele><time>2026-04-19T06:33:33.218Z</time></trkpt><trkpt lat="46.3279294" lon="13.0656772"><ele>223.99999999999997</ele><time>2026-04-19T06:33:34.216Z</time></trkpt><trkpt lat="46.3280239" lon="13.0657578"><ele>223.99999999999997</ele><time>2026-04-19T06:33:35.217Z</time></trkpt><trkpt lat="46.3281166" lon="13.0658368"><ele>224.0</ele><time>2026-04-19T06:33:36.218Z</time></trkpt><trkpt lat="46.3282079" lon="13.0659202"><ele>224.0</ele><time>2026-04-19T06:33:37.218Z</time></trkpt><trkpt lat="46.3282977" lon="13.0660123"><ele>221.75</ele><time>2026-04-19T06:33:38.218Z</time></trkpt><trkpt lat="46.3283868" lon="13.0661121"><ele>219.5</ele><time>2026-04-19T06:33:39.217Z</time></trkpt><trkpt lat="46.3284683" lon="13.0662296"><ele>217.25</ele><time>2026-04-19T06:33:40.217Z</time></trkpt><trkpt lat="46.3285515" lon="13.066337"><ele>215.0</ele><time>2026-04-19T06:33:41.217Z</time></trkpt><trkpt lat="46.3286442" lon="13.0664302"><ele>215.0</ele><time>2026-04-19T06:33:42.218Z</time></trkpt><trkpt lat="46.328742" lon="13.0665111"><ele>215.0</ele><time>2026-04-19T06:33:43.218Z</time></trkpt><trkpt lat="46.3288427" lon="13.0665816"><ele>215.0</ele><time>2026-04-19T06:33:44.217Z</time></trkpt><trkpt lat="46.3289393" lon="13.0666572"><ele>215.0</ele><time>2026-04-19T06:33:45.218Z</time></trkpt><trkpt lat="46.3290274" lon="13.0667605"><ele>215.0</ele><time>2026-04-19T06:33:46.218Z</time></trkpt><trkpt lat="46.329112" lon="13.0668906"><ele>215.0</ele><time>2026-04-19T06:33:47.217Z</time></trkpt><trkpt lat="46.3292077" lon="13.0670276"><ele>215.0</ele><time>2026-04-19T06:33:48.217Z</time></trkpt><trkpt lat="46.3293084" lon="13.0671567"><ele>215.0</ele><time>2026-04-19T06:33:49.217Z</time></trkpt><trkpt lat="46.3294053" lon="13.0672914"><ele>215.0</ele><time>2026-04-19T06:33:50.217Z</time></trkpt><trkpt lat="46.3294989" lon="13.0674316"><ele>208.5</ele><time>2026-04-19T06:33:51.218Z</time></trkpt><trkpt lat="46.3295882" lon="13.0675818"><ele>202.0</ele><time>2026-04-19T06:33:52.216Z</time></trkpt><trkpt lat="46.3296707" lon="13.0677407"><ele>195.5</ele><time>2026-04-19T06:33:53.217Z</time></trkpt><trkpt lat="46.3297531" lon="13.0679"><ele>189.0</ele><time>2026-04-19T06:33:54.217Z</time></trkpt><trkpt lat="46.3298318" lon="13.0680639"><ele>194.5</ele><time>2026-04-19T06:33:55.216Z</time></trkpt><trkpt lat="46.3299092" lon="13.0682283"><ele>200.0</ele><time>2026-04-19T06:33:56.217Z</time></trkpt><trkpt lat="46.3299903" lon="13.0683914"><ele>205.5</ele><time>2026-04-19T06:33:57.217Z</time></trkpt><trkpt lat="46.330078" lon="13.0685492"><ele>211.0</ele><time>2026-04-19T06:33:58.217Z</time></trkpt><trkpt lat="46.3301755" lon="13.0686968"><ele>211.0</ele><time>2026-04-19T06:33:59.217Z</time></trkpt><trkpt lat="46.3302726" lon="13.0688398"><ele>211.0</ele><time>2026-04-19T06:34:00.218Z</time></trkpt><trkpt lat="46.330371" lon="13.0689774"><ele>211.0</ele><time>2026-04-19T06:34:01.216Z</time></trkpt><trkpt lat="46.3304595" lon="13.069105"><ele>211.0</ele><time>2026-04-19T06:34:02.217Z</time></trkpt><trkpt lat="46.330534" lon="13.0692339"><ele>210.4</ele><time>2026-04-19T06:34:03.216Z</time></trkpt><trkpt lat="46.3305875" lon="13.0693638"><ele>209.8</ele><time>2026-04-19T06:34:04.216Z</time></trkpt><trkpt lat="46.3306388" lon="13.0694985"><ele>209.20000000000002</ele><time>2026-04-19T06:34:05.217Z</time></trkpt><trkpt lat="46.3306415" lon="13.0696231"><ele>208.60000000000002</ele><time>2026-04-19T06:34:06.217Z</time></trkpt><trkpt lat="46.3305441" lon="13.0697022"><ele>208.0</ele><time>2026-04-19T06:34:07.218Z</time></trkpt><trkpt lat="46.3304801" lon="13.0697502"><ele>207.99999999999997</ele><time>2026-04-19T06:34:08.217Z</time></trkpt><trkpt lat="46.3303909" lon="13.0697656"><ele>208.0</ele><time>2026-04-19T06:34:09.218Z</time></trkpt><trkpt lat="46.3303054" lon="13.0697872"><ele>208.0</ele><time>2026-04-19T06:34:10.217Z</time></trkpt><trkpt lat="46.33025" lon="13.0698377"><ele>208.0</ele><time>2026-04-19T06:34:11.216Z</time></trkpt><trkpt lat="46.3302048" lon="13.0699132"><ele>207.99999999999997</ele><time>2026-04-19T06:34:12.216Z</time></trkpt><trkpt lat="46.3301814" lon="13.0700094"><ele>208.0</ele><time>2026-04-19T06:34:13.217Z</time></trkpt><trkpt lat="46.3301703" lon="13.0701208"><ele>206.4</ele><time>2026-04-19T06:34:14.218Z</time></trkpt><trkpt lat="46.3301946" lon="13.0702457"><ele>204.8</ele><time>2026-04-19T06:34:15.217Z</time></trkpt><trkpt lat="46.3302402" lon="13.0703673"><ele>203.2</ele><time>2026-04-19T06:34:16.217Z</time></trkpt><trkpt lat="46.330296" lon="13.0704818"><ele>201.6</ele><time>2026-04-19T06:34:17.216Z</time></trkpt><trkpt lat="46.3303502" lon="13.0706047"><ele>200.0</ele><time>2026-04-19T06:34:18.216Z</time></trkpt><trkpt lat="46.330386" lon="13.0707321"><ele>200.4</ele><time>2026-04-19T06:34:19.218Z</time></trkpt><trkpt lat="46.3303876" lon="13.070891"><ele>200.8</ele><time>2026-04-19T06:34:20.216Z</time></trkpt><trkpt lat="46.3303661" lon="13.0710238"><ele>201.2</ele><time>2026-04-19T06:34:21.216Z</time></trkpt><trkpt lat="46.3303766" lon="13.0711584"><ele>201.6</ele><time>2026-04-19T06:34:22.217Z</time></trkpt><trkpt lat="46.3303911" lon="13.071292"><ele>202.0</ele><time>2026-04-19T06:34:23.217Z</time></trkpt><trkpt lat="46.330417" lon="13.0714061"><ele>202.0</ele><time>2026-04-19T06:34:24.216Z</time></trkpt><trkpt lat="46.3305547" lon="13.0714913"><ele>202.0</ele><time>2026-04-19T06:34:25.217Z</time></trkpt><trkpt lat="46.3306361" lon="13.071597"><ele>202.0</ele><time>2026-04-19T06:34:26.217Z</time></trkpt><trkpt lat="46.3307204" lon="13.0717051"><ele>202.0</ele><time>2026-04-19T06:34:27.217Z</time></trkpt><trkpt lat="46.3308095" lon="13.0718142"><ele>206.0</ele><time>2026-04-19T06:34:28.217Z</time></trkpt><trkpt lat="46.3309024" lon="13.0719193"><ele>210.0</ele><time>2026-04-19T06:34:29.218Z</time></trkpt><trkpt lat="46.3309942" lon="13.0720258"><ele>214.0</ele><time>2026-04-19T06:34:30.216Z</time></trkpt><trkpt lat="46.3310942" lon="13.0721247"><ele>218.0</ele><time>2026-04-19T06:34:31.216Z</time></trkpt><trkpt lat="46.3311997" lon="13.0722006"><ele>218.0</ele><time>2026-04-19T06:34:32.217Z</time></trkpt><trkpt lat="46.3312987" lon="13.0722706"><ele>218.0</ele><time>2026-04-19T06:34:33.217Z</time></trkpt><trkpt lat="46.3313854" lon="13.0723324"><ele>218.0</ele><time>2026-04-19T06:34:34.218Z</time></trkpt><trkpt lat="46.3314553" lon="13.0724026"><ele>218.0</ele><time>2026-04-19T06:34:35.216Z</time></trkpt><trkpt lat="46.3314991" lon="13.0725058"><ele>218.0</ele><time>2026-04-19T06:34:36.217Z</time></trkpt><trkpt lat="46.3315172" lon="13.072649"><ele>219.25</ele><time>2026-04-19T06:34:37.217Z</time></trkpt><trkpt lat="46.3315026" lon="13.0728184"><ele>220.5</ele><time>2026-04-19T06:34:38.217Z</time></trkpt><trkpt lat="46.3314769" lon="13.0729876"><ele>221.75</ele><time>2026-04-19T06:34:39.216Z</time></trkpt><trkpt lat="46.3314421" lon="13.0731623"><ele>223.0</ele><time>2026-04-19T06:34:40.218Z</time></trkpt><trkpt lat="46.3314069" lon="13.0733408"><ele>216.0</ele><time>2026-04-19T06:34:41.217Z</time></trkpt><trkpt lat="46.3313676" lon="13.0735232"><ele>209.0</ele><time>2026-04-19T06:34:42.217Z</time></trkpt><trkpt lat="46.3313316" lon="13.073709"><ele>202.0</ele><time>2026-04-19T06:34:43.218Z</time></trkpt><trkpt lat="46.3313033" lon="13.0738948"><ele>195.0</ele><time>2026-04-19T06:34:44.216Z</time></trkpt><trkpt lat="46.3312958" lon="13.0740805"><ele>194.2</ele><time>2026-04-19T06:34:45.216Z</time></trkpt><trkpt lat="46.3313038" lon="13.0742497"><ele>193.4</ele><time>2026-04-19T06:34:46.217Z</time></trkpt><trkpt lat="46.3313224" lon="13.0743872"><ele>192.60000000000002</ele><time>2026-04-19T06:34:47.217Z</time></trkpt><trkpt lat="46.3313531" lon="13.0745033"><ele>191.8</ele><time>2026-04-19T06:34:48.217Z</time></trkpt><trkpt lat="46.3314066" lon="13.0746009"><ele>191.0</ele><time>2026-04-19T06:34:49.217Z</time></trkpt><trkpt lat="46.3314847" lon="13.0746817"><ele>197.75</ele><time>2026-04-19T06:34:50.217Z</time></trkpt><trkpt lat="46.3315734" lon="13.0747477"><ele>204.5</ele><time>2026-04-19T06:34:51.217Z</time></trkpt><trkpt lat="46.3317031" lon="13.0747809"><ele>211.25</ele><time>2026-04-19T06:34:52.218Z</time></trkpt><trkpt lat="46.331834" lon="13.0748067"><ele>218.0</ele><time>2026-04-19T06:34:53.217Z</time></trkpt><trkpt lat="46.3319699" lon="13.0748347"><ele>218.0</ele><time>2026-04-19T06:34:54.217Z</time></trkpt><trkpt lat="46.3321105" lon="13.0748584"><ele>218.0</ele><time>2026-04-19T06:34:55.217Z</time></trkpt><trkpt lat="46.3322555" lon="13.0748605"><ele>218.0</ele><time>2026-04-19T06:34:56.216Z</time></trkpt><trkpt lat="46.3324042" lon="13.0748625"><ele>218.0</ele><time>2026-04-19T06:34:57.216Z</time></trkpt><trkpt lat="46.3325518" lon="13.074831"><ele>224.5</ele><time>2026-04-19T06:34:58.216Z</time></trkpt><trkpt lat="46.3327015" lon="13.0747835"><ele>231.0</ele><time>2026-04-19T06:34:59.217Z</time></trkpt><trkpt lat="46.3328404" lon="13.0747339"><ele>237.5</ele><time>2026-04-19T06:35:00.216Z</time></trkpt><trkpt lat="46.3329697" lon="13.0746843"><ele>244.0</ele><time>2026-04-19T06:35:01.217Z</time></trkpt><trkpt lat="46.3331069" lon="13.0746411"><ele>245.33333333333331</ele><time>2026-04-19T06:35:02.216Z</time></trkpt><trkpt lat="46.3332519" lon="13.0746222"><ele>246.66666666666669</ele><time>2026-04-19T06:35:03.217Z</time></trkpt><trkpt lat="46.3334036" lon="13.0746146"><ele>248.0</ele><time>2026-04-19T06:35:04.217Z</time></trkpt><trkpt lat="46.3335566" lon="13.074608"><ele>248.0</ele><time>2026-04-19T06:35:05.216Z</time></trkpt><trkpt lat="46.33371" lon="13.0746146"><ele>248.0</ele><time>2026-04-19T06:35:06.216Z</time></trkpt><trkpt lat="46.3338652" lon="13.0746172"><ele>248.0</ele><time>2026-04-19T06:35:07.217Z</time></trkpt><trkpt lat="46.3340198" lon="13.0746185"><ele>243.33333333333334</ele><time>2026-04-19T06:35:08.217Z</time></trkpt><trkpt lat="46.3341734" lon="13.0746101"><ele>238.66666666666669</ele><time>2026-04-19T06:35:09.218Z</time></trkpt><trkpt lat="46.3343313" lon="13.0746091"><ele>234.0</ele><time>2026-04-19T06:35:10.217Z</time></trkpt><trkpt lat="46.3344815" lon="13.0746306"><ele>234.0</ele><time>2026-04-19T06:35:11.217Z</time></trkpt><trkpt lat="46.3346181" lon="13.0746622"><ele>234.0</ele><time>2026-04-19T06:35:12.217Z</time></trkpt><trkpt lat="46.3347378" lon="13.0747007"><ele>234.0</ele><time>2026-04-19T06:35:13.217Z</time></trkpt><trkpt lat="46.3348514" lon="13.074715"><ele>234.0</ele><time>2026-04-19T06:35:14.217Z</time></trkpt><trkpt lat="46.3349715" lon="13.0746958"><ele>232.0</ele><time>2026-04-19T06:35:15.217Z</time></trkpt><trkpt lat="46.3350953" lon="13.0746467"><ele>230.0</ele><time>2026-04-19T06:35:16.218Z</time></trkpt><trkpt lat="46.3352329" lon="13.0746029"><ele>228.0</ele><time>2026-04-19T06:35:17.216Z</time></trkpt><trkpt lat="46.335371" lon="13.0745467"><ele>226.0</ele><time>2026-04-19T06:35:18.217Z</time></trkpt><trkpt lat="46.3355147" lon="13.0744855"><ele>223.25</ele><time>2026-04-19T06:35:19.216Z</time></trkpt><trkpt lat="46.335651" lon="13.074424"><ele>220.5</ele><time>2026-04-19T06:35:20.216Z</time></trkpt><trkpt lat="46.3357842" lon="13.0743481"><ele>217.75</ele><time>2026-04-19T06:35:21.216Z</time></trkpt><trkpt lat="46.3358947" lon="13.0742591"><ele>215.0</ele><time>2026-04-19T06:35:22.217Z</time></trkpt><trkpt lat="46.3360129" lon="13.0741576"><ele>214.25</ele><time>2026-04-19T06:35:23.217Z</time></trkpt><trkpt lat="46.336123" lon="13.0740488"><ele>213.5</ele><time>2026-04-19T06:35:24.218Z</time></trkpt><trkpt lat="46.3362307" lon="13.0739469"><ele>212.75</ele><time>2026-04-19T06:35:25.217Z</time></trkpt><trkpt lat="46.3363354" lon="13.0738589"><ele>212.0</ele><time>2026-04-19T06:35:26.217Z</time></trkpt><trkpt lat="46.3364212" lon="13.0737496"><ele>212.0</ele><time>2026-04-19T06:35:27.216Z</time></trkpt><trkpt lat="46.336496" lon="13.0736154"><ele>212.0</ele><time>2026-04-19T06:35:28.217Z</time></trkpt><trkpt lat="46.3365711" lon="13.0734711"><ele>212.0</ele><time>2026-04-19T06:35:29.217Z</time></trkpt><trkpt lat="46.3366604" lon="13.0733366"><ele>212.0</ele><time>2026-04-19T06:35:30.217Z</time></trkpt><trkpt lat="46.3367553" lon="13.0732144"><ele>217.25</ele><time>2026-04-19T06:35:31.217Z</time></trkpt><trkpt lat="46.3368236" lon="13.0730802"><ele>222.5</ele><time>2026-04-19T06:35:32.216Z</time></trkpt><trkpt lat="46.3368869" lon="13.0729448"><ele>227.75</ele><time>2026-04-19T06:35:33.216Z</time></trkpt><trkpt lat="46.3369413" lon="13.0727797"><ele>233.0</ele><time>2026-04-19T06:35:34.218Z</time></trkpt><trkpt lat="46.3369964" lon="13.0725791"><ele>228.5</ele><time>2026-04-19T06:35:35.217Z</time></trkpt><trkpt lat="46.3370686" lon="13.0724022"><ele>224.0</ele><time>2026-04-19T06:35:36.218Z</time></trkpt><trkpt lat="46.3371388" lon="13.0722102"><ele>219.5</ele><time>2026-04-19T06:35:37.217Z</time></trkpt><trkpt lat="46.3372225" lon="13.072026"><ele>215.0</ele><time>2026-04-19T06:35:38.216Z</time></trkpt><trkpt lat="46.3373363" lon="13.0718629"><ele>215.0</ele><time>2026-04-19T06:35:39.217Z</time></trkpt><trkpt lat="46.3374474" lon="13.0717046"><ele>215.0</ele><time>2026-04-19T06:35:40.216Z</time></trkpt><trkpt lat="46.3375538" lon="13.0715616"><ele>215.0</ele><time>2026-04-19T06:35:41.217Z</time></trkpt><trkpt lat="46.3376532" lon="13.0714143"><ele>215.0</ele><time>2026-04-19T06:35:42.217Z</time></trkpt><trkpt lat="46.3377443" lon="13.0712861"><ele>219.25</ele><time>2026-04-19T06:35:43.216Z</time></trkpt><trkpt lat="46.3378248" lon="13.0711355"><ele>223.5</ele><time>2026-04-19T06:35:44.217Z</time></trkpt><trkpt lat="46.3378641" lon="13.0709575"><ele>227.75</ele><time>2026-04-19T06:35:45.217Z</time></trkpt><trkpt lat="46.337936" lon="13.0708128"><ele>232.0</ele><time>2026-04-19T06:35:46.216Z</time></trkpt><trkpt lat="46.3379668" lon="13.0706753"><ele>231.6</ele><time>2026-04-19T06:35:47.216Z</time></trkpt><trkpt lat="46.3380264" lon="13.0705589"><ele>231.2</ele><time>2026-04-19T06:35:48.217Z</time></trkpt><trkpt lat="46.3381053" lon="13.0704473"><ele>230.8</ele><time>2026-04-19T06:35:49.217Z</time></trkpt><trkpt lat="46.338187" lon="13.0703431"><ele>230.4</ele><time>2026-04-19T06:35:50.216Z</time></trkpt><trkpt lat="46.338285" lon="13.0702673"><ele>230.0</ele><time>2026-04-19T06:35:51.216Z</time></trkpt><trkpt lat="46.3384109" lon="13.070224"><ele>230.0</ele><time>2026-04-19T06:35:52.217Z</time></trkpt><trkpt lat="46.3385365" lon="13.0701812"><ele>230.0</ele><time>2026-04-19T06:35:53.216Z</time></trkpt><trkpt lat="46.3386641" lon="13.0701394"><ele>230.0</ele><time>2026-04-19T06:35:54.217Z</time></trkpt><trkpt lat="46.3387977" lon="13.0701079"><ele>230.0</ele><time>2026-04-19T06:35:55.216Z</time></trkpt><trkpt lat="46.3389377" lon="13.0700707"><ele>228.0</ele><time>2026-04-19T06:35:56.216Z</time></trkpt><trkpt lat="46.3390768" lon="13.0700278"><ele>226.0</ele><time>2026-04-19T06:35:57.217Z</time></trkpt><trkpt lat="46.3392226" lon="13.0699884"><ele>224.0</ele><time>2026-04-19T06:35:58.218Z</time></trkpt><trkpt lat="46.3393666" lon="13.0699415"><ele>222.0</ele><time>2026-04-19T06:35:59.218Z</time></trkpt><trkpt lat="46.3394989" lon="13.0698676"><ele>225.5</ele><time>2026-04-19T06:36:00.217Z</time></trkpt><trkpt lat="46.3396293" lon="13.06979"><ele>229.0</ele><time>2026-04-19T06:36:01.217Z</time></trkpt><trkpt lat="46.3397624" lon="13.0697454"><ele>232.5</ele><time>2026-04-19T06:36:02.217Z</time></trkpt><trkpt lat="46.3398961" lon="13.0697147"><ele>236.0</ele><time>2026-04-19T06:36:03.217Z</time></trkpt><trkpt lat="46.3400266" lon="13.0696797"><ele>236.0</ele><time>2026-04-19T06:36:04.217Z</time></trkpt><trkpt lat="46.3401605" lon="13.069647"><ele>236.0</ele><time>2026-04-19T06:36:05.216Z</time></trkpt><trkpt lat="46.3402952" lon="13.0696063"><ele>236.0</ele><time>2026-04-19T06:36:06.217Z</time></trkpt><trkpt lat="46.3404264" lon="13.0695453"><ele>236.0</ele><time>2026-04-19T06:36:07.218Z</time></trkpt><trkpt lat="46.3405568" lon="13.0695028"><ele>236.0</ele><time>2026-04-19T06:36:08.218Z</time></trkpt><trkpt lat="46.340677" lon="13.0693871"><ele>236.0</ele><time>2026-04-19T06:36:09.217Z</time></trkpt><trkpt lat="46.3407942" lon="13.0692839"><ele>236.0</ele><time>2026-04-19T06:36:10.217Z</time></trkpt><trkpt lat="46.3409102" lon="13.0691663"><ele>236.0</ele><time>2026-04-19T06:36:11.216Z</time></trkpt><trkpt lat="46.3410236" lon="13.069051"><ele>236.0</ele><time>2026-04-19T06:36:12.217Z</time></trkpt><trkpt lat="46.3411417" lon="13.0689307"><ele>236.0</ele><time>2026-04-19T06:36:13.217Z</time></trkpt><trkpt lat="46.3412579" lon="13.0688143"><ele>236.0</ele><time>2026-04-19T06:36:14.217Z</time></trkpt><trkpt lat="46.3413758" lon="13.0687082"><ele>236.0</ele><time>2026-04-19T06:36:15.217Z</time></trkpt><trkpt lat="46.3415021" lon="13.0686054"><ele>223.66666666666669</ele><time>2026-04-19T06:36:16.217Z</time></trkpt><trkpt lat="46.3416358" lon="13.0685171"><ele>211.33333333333331</ele><time>2026-04-19T06:36:17.216Z</time></trkpt><trkpt lat="46.3417756" lon="13.0684393"><ele>199.0</ele><time>2026-04-19T06:36:18.217Z</time></trkpt><trkpt lat="46.3419221" lon="13.06837"><ele>199.0</ele><time>2026-04-19T06:36:19.217Z</time></trkpt><trkpt lat="46.3420719" lon="13.0683046"><ele>199.0</ele><time>2026-04-19T06:36:20.218Z</time></trkpt><trkpt lat="46.342219" lon="13.0682322"><ele>199.0</ele><time>2026-04-19T06:36:21.217Z</time></trkpt><trkpt lat="46.3423653" lon="13.0681523"><ele>199.66666666666666</ele><time>2026-04-19T06:36:22.217Z</time></trkpt><trkpt lat="46.3425099" lon="13.0680595"><ele>200.33333333333331</ele><time>2026-04-19T06:36:23.216Z</time></trkpt><trkpt lat="46.3426562" lon="13.0679565"><ele>201.0</ele><time>2026-04-19T06:36:24.216Z</time></trkpt><trkpt lat="46.3427996" lon="13.067835"><ele>201.0</ele><time>2026-04-19T06:36:25.216Z</time></trkpt><trkpt lat="46.3429416" lon="13.0677079"><ele>201.0</ele><time>2026-04-19T06:36:26.216Z</time></trkpt><trkpt lat="46.3430885" lon="13.0675797"><ele>201.0</ele><time>2026-04-19T06:36:27.216Z</time></trkpt><trkpt lat="46.3432377" lon="13.0674516"><ele>200.66666666666669</ele><time>2026-04-19T06:36:28.216Z</time></trkpt><trkpt lat="46.343389" lon="13.0673222"><ele>200.33333333333334</ele><time>2026-04-19T06:36:29.216Z</time></trkpt><trkpt lat="46.3435394" lon="13.0671915"><ele>200.0</ele><time>2026-04-19T06:36:30.217Z</time></trkpt><trkpt lat="46.3436899" lon="13.0670653"><ele>200.0</ele><time>2026-04-19T06:36:31.217Z</time></trkpt><trkpt lat="46.3438421" lon="13.0669382"><ele>200.0</ele><time>2026-04-19T06:36:32.217Z</time></trkpt><trkpt lat="46.343988" lon="13.0668073"><ele>200.0</ele><time>2026-04-19T06:36:33.217Z</time></trkpt><trkpt lat="46.3441347" lon="13.066681"><ele>200.0</ele><time>2026-04-19T06:36:34.216Z</time></trkpt><trkpt lat="46.3442794" lon="13.0665558"><ele>200.0</ele><time>2026-04-19T06:36:35.217Z</time></trkpt><trkpt lat="46.3444161" lon="13.0664443"><ele>200.0</ele><time>2026-04-19T06:36:36.216Z</time></trkpt><trkpt lat="46.3445443" lon="13.0663422"><ele>200.0</ele><time>2026-04-19T06:36:37.216Z</time></trkpt><trkpt lat="46.3446705" lon="13.0662622"><ele>200.0</ele><time>2026-04-19T06:36:38.216Z</time></trkpt><trkpt lat="46.3447937" lon="13.0662002"><ele>200.0</ele><time>2026-04-19T06:36:39.215Z</time></trkpt><trkpt lat="46.3449119" lon="13.0661579"><ele>200.0</ele><time>2026-04-19T06:36:40.216Z</time></trkpt><trkpt lat="46.3450234" lon="13.0661282"><ele>200.0</ele><time>2026-04-19T06:36:41.217Z</time></trkpt><trkpt lat="46.3451303" lon="13.0661093"><ele>200.0</ele><time>2026-04-19T06:36:42.216Z</time></trkpt><trkpt lat="46.3452342" lon="13.0661043"><ele>200.0</ele><time>2026-04-19T06:36:43.215Z</time></trkpt><trkpt lat="46.3453375" lon="13.0661105"><ele>200.0</ele><time>2026-04-19T06:36:44.215Z</time></trkpt><trkpt lat="46.3454456" lon="13.0661383"><ele>200.0</ele><time>2026-04-19T06:36:45.215Z</time></trkpt><trkpt lat="46.345553" lon="13.0661845"><ele>199.5</ele><time>2026-04-19T06:36:46.216Z</time></trkpt><trkpt lat="46.3456557" lon="13.0662537"><ele>199.0</ele><time>2026-04-19T06:36:47.216Z</time></trkpt><trkpt lat="46.3457529" lon="13.0663388"><ele>198.5</ele><time>2026-04-19T06:36:48.216Z</time></trkpt><trkpt lat="46.3458442" lon="13.0664407"><ele>198.0</ele><time>2026-04-19T06:36:49.216Z</time></trkpt><trkpt lat="46.3459249" lon="13.0665573"><ele>198.0</ele><time>2026-04-19T06:36:50.216Z</time></trkpt><trkpt lat="46.3459971" lon="13.0666834"><ele>198.0</ele><time>2026-04-19T06:36:51.216Z</time></trkpt><trkpt lat="46.346067" lon="13.0668037"><ele>198.0</ele><time>2026-04-19T06:36:52.216Z</time></trkpt><trkpt lat="46.3461313" lon="13.0669161"><ele>198.0</ele><time>2026-04-19T06:36:53.216Z</time></trkpt><trkpt lat="46.3461917" lon="13.067026"><ele>198.0</ele><time>2026-04-19T06:36:54.216Z</time></trkpt><trkpt lat="46.3462547" lon="13.067128"><ele>198.0</ele><time>2026-04-19T06:36:55.216Z</time></trkpt><trkpt lat="46.346325" lon="13.0672133"><ele>198.0</ele><time>2026-04-19T06:36:56.216Z</time></trkpt><trkpt lat="46.3464093" lon="13.0672878"><ele>198.0</ele><time>2026-04-19T06:36:57.216Z</time></trkpt><trkpt lat="46.3465027" lon="13.0673652"><ele>198.0</ele><time>2026-04-19T06:36:58.216Z</time></trkpt><trkpt lat="46.3465883" lon="13.0674304"><ele>198.0</ele><time>2026-04-19T06:36:59.215Z</time></trkpt><trkpt lat="46.3466627" lon="13.0674888"><ele>198.2</ele><time>2026-04-19T06:37:00.215Z</time></trkpt><trkpt lat="46.3467278" lon="13.0675368"><ele>198.4</ele><time>2026-04-19T06:37:01.216Z</time></trkpt><trkpt lat="46.3468226" lon="13.0675859"><ele>198.6</ele><time>2026-04-19T06:37:03.216Z</time></trkpt><trkpt lat="46.3469219" lon="13.0674899"><ele>198.79999999999998</ele><time>2026-04-19T06:37:05.216Z</time></trkpt><trkpt lat="46.346974" lon="13.0673841"><ele>199.0</ele><time>2026-04-19T06:37:06.216Z</time></trkpt><trkpt lat="46.3470405" lon="13.0672575"><ele>199.5</ele><time>2026-04-19T06:37:07.216Z</time></trkpt><trkpt lat="46.3471343" lon="13.0671481"><ele>200.0</ele><time>2026-04-19T06:37:08.215Z</time></trkpt><trkpt lat="46.3472377" lon="13.0670529"><ele>200.5</ele><time>2026-04-19T06:37:09.215Z</time></trkpt><trkpt lat="46.3473471" lon="13.0669504"><ele>201.0</ele><time>2026-04-19T06:37:10.216Z</time></trkpt><trkpt lat="46.34746" lon="13.0668363"><ele>201.25</ele><time>2026-04-19T06:37:11.216Z</time></trkpt><trkpt lat="46.3475788" lon="13.0667203"><ele>201.5</ele><time>2026-04-19T06:37:12.216Z</time></trkpt><trkpt lat="46.3476981" lon="13.0665948"><ele>201.75</ele><time>2026-04-19T06:37:13.216Z</time></trkpt><trkpt lat="46.3478159" lon="13.0664639"><ele>202.0</ele><time>2026-04-19T06:37:14.216Z</time></trkpt><trkpt lat="46.3479278" lon="13.0663361"><ele>204.25</ele><time>2026-04-19T06:37:15.215Z</time></trkpt><trkpt lat="46.3480392" lon="13.0662262"><ele>206.5</ele><time>2026-04-19T06:37:16.216Z</time></trkpt><trkpt lat="46.3481517" lon="13.0661434"><ele>208.75</ele><time>2026-04-19T06:37:17.215Z</time></trkpt><trkpt lat="46.3482635" lon="13.0660977"><ele>211.0</ele><time>2026-04-19T06:37:18.216Z</time></trkpt><trkpt lat="46.3483726" lon="13.066086"><ele>215.0</ele><time>2026-04-19T06:37:19.216Z</time></trkpt><trkpt lat="46.3484831" lon="13.0661123"><ele>219.0</ele><time>2026-04-19T06:37:20.216Z</time></trkpt><trkpt lat="46.3485856" lon="13.0661749"><ele>223.0</ele><time>2026-04-19T06:37:21.216Z</time></trkpt><trkpt lat="46.3486792" lon="13.066266"><ele>227.0</ele><time>2026-04-19T06:37:22.215Z</time></trkpt><trkpt lat="46.3487661" lon="13.0663873"><ele>227.0</ele><time>2026-04-19T06:37:23.217Z</time></trkpt><trkpt lat="46.3488439" lon="13.0665222"><ele>227.0</ele><time>2026-04-19T06:37:24.215Z</time></trkpt><trkpt lat="46.348918" lon="13.0666643"><ele>227.0</ele><time>2026-04-19T06:37:25.217Z</time></trkpt><trkpt lat="46.3489906" lon="13.0668023"><ele>227.0</ele><time>2026-04-19T06:37:26.216Z</time></trkpt><trkpt lat="46.3490541" lon="13.0669349"><ele>226.83333333333334</ele><time>2026-04-19T06:37:27.216Z</time></trkpt><trkpt lat="46.349092" lon="13.0670549"><ele>226.66666666666669</ele><time>2026-04-19T06:37:28.216Z</time></trkpt><trkpt lat="46.3491049" lon="13.0671696"><ele>226.5</ele><time>2026-04-19T06:37:29.216Z</time></trkpt><trkpt lat="46.3490896" lon="13.0672782"><ele>226.33333333333331</ele><time>2026-04-19T06:37:30.216Z</time></trkpt><trkpt lat="46.3490466" lon="13.0673725"><ele>226.16666666666666</ele><time>2026-04-19T06:37:31.215Z</time></trkpt><trkpt lat="46.3489846" lon="13.0674512"><ele>226.0</ele><time>2026-04-19T06:37:32.216Z</time></trkpt><trkpt lat="46.3489303" lon="13.0675385"><ele>225.99999999999997</ele><time>2026-04-19T06:37:33.216Z</time></trkpt><trkpt lat="46.3489105" lon="13.0676387"><ele>226.0</ele><time>2026-04-19T06:37:34.216Z</time></trkpt><trkpt lat="46.3489197" lon="13.0677366"><ele>226.0</ele><time>2026-04-19T06:37:35.215Z</time></trkpt><trkpt lat="46.3489585" lon="13.0678121"><ele>226.0</ele><time>2026-04-19T06:37:36.215Z</time></trkpt><trkpt lat="46.3490196" lon="13.0678518"><ele>225.99999999999997</ele><time>2026-04-19T06:37:37.216Z</time></trkpt><trkpt lat="46.3491101" lon="13.0678508"><ele>226.0</ele><time>2026-04-19T06:37:38.215Z</time></trkpt><trkpt lat="46.3492228" lon="13.0678258"><ele>226.0</ele><time>2026-04-19T06:37:39.215Z</time></trkpt><trkpt lat="46.3493531" lon="13.0677882"><ele>226.0</ele><time>2026-04-19T06:37:40.216Z</time></trkpt><trkpt lat="46.3494804" lon="13.0677498"><ele>226.0</ele><time>2026-04-19T06:37:41.217Z</time></trkpt><trkpt lat="46.3496186" lon="13.0677068"><ele>226.0</ele><time>2026-04-19T06:37:42.216Z</time></trkpt><trkpt lat="46.3497605" lon="13.0676595"><ele>230.0</ele><time>2026-04-19T06:37:43.216Z</time></trkpt><trkpt lat="46.3498953" lon="13.0676168"><ele>234.0</ele><time>2026-04-19T06:37:44.215Z</time></trkpt><trkpt lat="46.3500351" lon="13.0675667"><ele>238.0</ele><time>2026-04-19T06:37:45.216Z</time></trkpt><trkpt lat="46.350171" lon="13.0675056"><ele>242.0</ele><time>2026-04-19T06:37:46.216Z</time></trkpt><trkpt lat="46.3502908" lon="13.067417"><ele>243.5</ele><time>2026-04-19T06:37:47.216Z</time></trkpt><trkpt lat="46.3503965" lon="13.0672931"><ele>245.0</ele><time>2026-04-19T06:37:48.217Z</time></trkpt><trkpt lat="46.3504858" lon="13.0671377"><ele>246.5</ele><time>2026-04-19T06:37:49.216Z</time></trkpt><trkpt lat="46.3505677" lon="13.0669708"><ele>248.0</ele><time>2026-04-19T06:37:50.217Z</time></trkpt><trkpt lat="46.3506526" lon="13.066812"><ele>249.25</ele><time>2026-04-19T06:37:51.215Z</time></trkpt><trkpt lat="46.3507434" lon="13.0666609"><ele>250.5</ele><time>2026-04-19T06:37:52.216Z</time></trkpt><trkpt lat="46.3508322" lon="13.0665116"><ele>251.75</ele><time>2026-04-19T06:37:53.217Z</time></trkpt><trkpt lat="46.350927" lon="13.0664106"><ele>253.0</ele><time>2026-04-19T06:37:54.216Z</time></trkpt><trkpt lat="46.3510236" lon="13.0662885"><ele>255.0</ele><time>2026-04-19T06:37:55.216Z</time></trkpt><trkpt lat="46.3511197" lon="13.0661687"><ele>257.0</ele><time>2026-04-19T06:37:56.216Z</time></trkpt><trkpt lat="46.3512289" lon="13.0660584"><ele>259.0</ele><time>2026-04-19T06:37:57.215Z</time></trkpt><trkpt lat="46.351338" lon="13.0659495"><ele>261.0</ele><time>2026-04-19T06:37:58.216Z</time></trkpt><trkpt lat="46.3514566" lon="13.065856"><ele>261.5</ele><time>2026-04-19T06:37:59.216Z</time></trkpt><trkpt lat="46.3515799" lon="13.0657611"><ele>262.0</ele><time>2026-04-19T06:38:00.215Z</time></trkpt><trkpt lat="46.3517097" lon="13.0656772"><ele>262.5</ele><time>2026-04-19T06:38:01.216Z</time></trkpt><trkpt lat="46.3518393" lon="13.0655929"><ele>263.0</ele><time>2026-04-19T06:38:02.216Z</time></trkpt><trkpt lat="46.3519697" lon="13.0655017"><ele>263.0</ele><time>2026-04-19T06:38:03.216Z</time></trkpt><trkpt lat="46.3520872" lon="13.0653767"><ele>263.0</ele><time>2026-04-19T06:38:04.216Z</time></trkpt><trkpt lat="46.3521952" lon="13.0652316"><ele>263.0</ele><time>2026-04-19T06:38:05.217Z</time></trkpt><trkpt lat="46.3522898" lon="13.0650663"><ele>263.0</ele><time>2026-04-19T06:38:06.216Z</time></trkpt><trkpt lat="46.3523827" lon="13.0648901"><ele>262.0</ele><time>2026-04-19T06:38:07.216Z</time></trkpt><trkpt lat="46.3524738" lon="13.0647118"><ele>261.0</ele><time>2026-04-19T06:38:08.216Z</time></trkpt><trkpt lat="46.3525627" lon="13.0645302"><ele>260.0</ele><time>2026-04-19T06:38:09.217Z</time></trkpt><trkpt lat="46.3526572" lon="13.0643499"><ele>260.0</ele><time>2026-04-19T06:38:10.217Z</time></trkpt><trkpt lat="46.3527568" lon="13.0641714"><ele>260.0</ele><time>2026-04-19T06:38:11.216Z</time></trkpt><trkpt lat="46.3528636" lon="13.0639997"><ele>260.0</ele><time>2026-04-19T06:38:12.216Z</time></trkpt><trkpt lat="46.3529787" lon="13.0638439"><ele>264.33333333333337</ele><time>2026-04-19T06:38:13.216Z</time></trkpt><trkpt lat="46.3531025" lon="13.0636985"><ele>268.6666666666667</ele><time>2026-04-19T06:38:14.216Z</time></trkpt><trkpt lat="46.3532241" lon="13.0635528"><ele>273.0</ele><time>2026-04-19T06:38:15.216Z</time></trkpt><trkpt lat="46.3533508" lon="13.0634122"><ele>273.0</ele><time>2026-04-19T06:38:16.216Z</time></trkpt><trkpt lat="46.3534826" lon="13.0632835"><ele>273.0</ele><time>2026-04-19T06:38:17.216Z</time></trkpt><trkpt lat="46.3536241" lon="13.0631681"><ele>273.0</ele><time>2026-04-19T06:38:18.216Z</time></trkpt><trkpt lat="46.3537707" lon="13.0630711"><ele>270.6666666666667</ele><time>2026-04-19T06:38:19.217Z</time></trkpt><trkpt lat="46.3539248" lon="13.0629947"><ele>268.33333333333337</ele><time>2026-04-19T06:38:20.216Z</time></trkpt><trkpt lat="46.3540839" lon="13.0629412"><ele>266.0</ele><time>2026-04-19T06:38:21.216Z</time></trkpt><trkpt lat="46.3542469" lon="13.0629108"><ele>266.0</ele><time>2026-04-19T06:38:22.216Z</time></trkpt><trkpt lat="46.354409" lon="13.0629013"><ele>266.0</ele><time>2026-04-19T06:38:23.217Z</time></trkpt><trkpt lat="46.3545713" lon="13.0629039"><ele>266.0</ele><time>2026-04-19T06:38:24.216Z</time></trkpt><trkpt lat="46.3547231" lon="13.0629093"><ele>267.25</ele><time>2026-04-19T06:38:25.217Z</time></trkpt><trkpt lat="46.3548567" lon="13.0629168"><ele>268.5</ele><time>2026-04-19T06:38:26.216Z</time></trkpt><trkpt lat="46.3549765" lon="13.0629398"><ele>269.75</ele><time>2026-04-19T06:38:27.216Z</time></trkpt><trkpt lat="46.3550888" lon="13.0629812"><ele>271.0</ele><time>2026-04-19T06:38:28.216Z</time></trkpt><trkpt lat="46.3551709" lon="13.0630941"><ele>271.0</ele><time>2026-04-19T06:38:29.216Z</time></trkpt><trkpt lat="46.3552425" lon="13.0632171"><ele>271.0</ele><time>2026-04-19T06:38:30.216Z</time></trkpt><trkpt lat="46.3552905" lon="13.0633675"><ele>271.0</ele><time>2026-04-19T06:38:31.216Z</time></trkpt><trkpt lat="46.355345" lon="13.0635025"><ele>271.0</ele><time>2026-04-19T06:38:32.216Z</time></trkpt><trkpt lat="46.355419" lon="13.0636022"><ele>271.0</ele><time>2026-04-19T06:38:33.215Z</time></trkpt><trkpt lat="46.3555104" lon="13.0636525"><ele>274.2</ele><time>2026-04-19T06:38:34.216Z</time></trkpt><trkpt lat="46.3556104" lon="13.0636591"><ele>277.40000000000003</ele><time>2026-04-19T06:38:35.215Z</time></trkpt><trkpt lat="46.3557039" lon="13.0636156"><ele>280.6</ele><time>2026-04-19T06:38:36.216Z</time></trkpt><trkpt lat="46.3557815" lon="13.0635212"><ele>283.8</ele><time>2026-04-19T06:38:37.216Z</time></trkpt><trkpt lat="46.3558409" lon="13.0633904"><ele>287.0</ele><time>2026-04-19T06:38:38.216Z</time></trkpt><trkpt lat="46.3558765" lon="13.0632222"><ele>287.0</ele><time>2026-04-19T06:38:39.216Z</time></trkpt><trkpt lat="46.3558886" lon="13.0630215"><ele>287.0</ele><time>2026-04-19T06:38:40.216Z</time></trkpt><trkpt lat="46.3558932" lon="13.0627891"><ele>287.0</ele><time>2026-04-19T06:38:41.217Z</time></trkpt><trkpt lat="46.3559176" lon="13.0625204"><ele>286.6666666666667</ele><time>2026-04-19T06:38:42.216Z</time></trkpt><trkpt lat="46.3559641" lon="13.0622372"><ele>286.3333333333333</ele><time>2026-04-19T06:38:43.216Z</time></trkpt><trkpt lat="46.356019" lon="13.061952"><ele>286.0</ele><time>2026-04-19T06:38:44.216Z</time></trkpt><trkpt lat="46.3560789" lon="13.0616375"><ele>287.5</ele><time>2026-04-19T06:38:45.215Z</time></trkpt><trkpt lat="46.3561416" lon="13.0613141"><ele>289.0</ele><time>2026-04-19T06:38:46.215Z</time></trkpt><trkpt lat="46.3562019" lon="13.0610047"><ele>294.0</ele><time>2026-04-19T06:38:47.217Z</time></trkpt><trkpt lat="46.3562601" lon="13.0607162"><ele>299.0</ele><time>2026-04-19T06:38:48.216Z</time></trkpt><trkpt lat="46.3563239" lon="13.0604473"><ele>304.0</ele><time>2026-04-19T06:38:49.217Z</time></trkpt><trkpt lat="46.3563902" lon="13.0601865"><ele>309.3333333333333</ele><time>2026-04-19T06:38:50.216Z</time></trkpt><trkpt lat="46.3564658" lon="13.059935"><ele>314.6666666666667</ele><time>2026-04-19T06:38:51.216Z</time></trkpt><trkpt lat="46.3565417" lon="13.059692"><ele>320.0</ele><time>2026-04-19T06:38:52.215Z</time></trkpt><trkpt lat="46.3566176" lon="13.0594605"><ele>320.0</ele><time>2026-04-19T06:38:53.216Z</time></trkpt><trkpt lat="46.3566841" lon="13.059224"><ele>320.0</ele><time>2026-04-19T06:38:54.216Z</time></trkpt><trkpt lat="46.3567385" lon="13.058987"><ele>320.0</ele><time>2026-04-19T06:38:55.216Z</time></trkpt><trkpt lat="46.3567844" lon="13.0587524"><ele>323.33333333333337</ele><time>2026-04-19T06:38:56.215Z</time></trkpt><trkpt lat="46.3568292" lon="13.0585163"><ele>326.6666666666667</ele><time>2026-04-19T06:38:57.215Z</time></trkpt><trkpt lat="46.3568765" lon="13.05828"><ele>330.0</ele><time>2026-04-19T06:38:58.215Z</time></trkpt><trkpt lat="46.3569203" lon="13.0580417"><ele>331.3333333333333</ele><time>2026-04-19T06:38:59.216Z</time></trkpt><trkpt lat="46.3569646" lon="13.057813"><ele>332.66666666666663</ele><time>2026-04-19T06:39:00.215Z</time></trkpt><trkpt lat="46.3570056" lon="13.0575947"><ele>334.0</ele><time>2026-04-19T06:39:01.215Z</time></trkpt><trkpt lat="46.3570479" lon="13.0573944"><ele>334.5</ele><time>2026-04-19T06:39:02.216Z</time></trkpt><trkpt lat="46.3570937" lon="13.0572048"><ele>335.0</ele><time>2026-04-19T06:39:03.216Z</time></trkpt><trkpt lat="46.357143" lon="13.0570134"><ele>335.5</ele><time>2026-04-19T06:39:04.216Z</time></trkpt><trkpt lat="46.3571899" lon="13.0568256"><ele>336.0</ele><time>2026-04-19T06:39:05.215Z</time></trkpt><trkpt lat="46.3572392" lon="13.0566405"><ele>327.75</ele><time>2026-04-19T06:39:06.215Z</time></trkpt><trkpt lat="46.3572802" lon="13.0564511"><ele>319.5</ele><time>2026-04-19T06:39:07.216Z</time></trkpt><trkpt lat="46.3573126" lon="13.0562515"><ele>311.25</ele><time>2026-04-19T06:39:08.215Z</time></trkpt><trkpt lat="46.3573315" lon="13.0560449"><ele>303.0</ele><time>2026-04-19T06:39:09.215Z</time></trkpt><trkpt lat="46.3573366" lon="13.0558321"><ele>301.25</ele><time>2026-04-19T06:39:10.216Z</time></trkpt><trkpt lat="46.3573274" lon="13.0556198"><ele>299.5</ele><time>2026-04-19T06:39:11.216Z</time></trkpt><trkpt lat="46.3573094" lon="13.0554099"><ele>297.75</ele><time>2026-04-19T06:39:12.216Z</time></trkpt><trkpt lat="46.3572931" lon="13.0552061"><ele>296.0</ele><time>2026-04-19T06:39:13.216Z</time></trkpt><trkpt lat="46.3572829" lon="13.0550034"><ele>295.0</ele><time>2026-04-19T06:39:14.216Z</time></trkpt><trkpt lat="46.3572901" lon="13.0548051"><ele>294.0</ele><time>2026-04-19T06:39:15.216Z</time></trkpt><trkpt lat="46.3573096" lon="13.0546211"><ele>293.0</ele><time>2026-04-19T06:39:16.215Z</time></trkpt><trkpt lat="46.35735" lon="13.05445"><ele>292.0</ele><time>2026-04-19T06:39:17.216Z</time></trkpt><trkpt lat="46.3574197" lon="13.0542922"><ele>292.0</ele><time>2026-04-19T06:39:18.217Z</time></trkpt><trkpt lat="46.3575133" lon="13.0541465"><ele>292.0</ele><time>2026-04-19T06:39:19.216Z</time></trkpt><trkpt lat="46.3576241" lon="13.0540221"><ele>292.0</ele><time>2026-04-19T06:39:20.216Z</time></trkpt><trkpt lat="46.3577511" lon="13.0539014"><ele>292.0</ele><time>2026-04-19T06:39:21.216Z</time></trkpt><trkpt lat="46.3578849" lon="13.0537882"><ele>293.0</ele><time>2026-04-19T06:39:22.216Z</time></trkpt><trkpt lat="46.3580264" lon="13.0536686"><ele>294.0</ele><time>2026-04-19T06:39:23.216Z</time></trkpt><trkpt lat="46.3581673" lon="13.0535416"><ele>295.0</ele><time>2026-04-19T06:39:24.216Z</time></trkpt><trkpt lat="46.3583065" lon="13.0534026"><ele>289.3333333333333</ele><time>2026-04-19T06:39:25.216Z</time></trkpt><trkpt lat="46.3584465" lon="13.053253"><ele>283.6666666666667</ele><time>2026-04-19T06:39:26.216Z</time></trkpt><trkpt lat="46.3585837" lon="13.0530889"><ele>278.0</ele><time>2026-04-19T06:39:27.217Z</time></trkpt><trkpt lat="46.3587178" lon="13.0529228"><ele>278.0</ele><time>2026-04-19T06:39:28.216Z</time></trkpt><trkpt lat="46.3588504" lon="13.0527614"><ele>278.0</ele><time>2026-04-19T06:39:29.215Z</time></trkpt><trkpt lat="46.3589796" lon="13.0525929"><ele>278.0</ele><time>2026-04-19T06:39:30.215Z</time></trkpt><trkpt lat="46.3591051" lon="13.0524132"><ele>278.33333333333337</ele><time>2026-04-19T06:39:31.216Z</time></trkpt><trkpt lat="46.3592247" lon="13.0522243"><ele>278.6666666666667</ele><time>2026-04-19T06:39:32.215Z</time></trkpt><trkpt lat="46.3593399" lon="13.0520227"><ele>279.0</ele><time>2026-04-19T06:39:33.215Z</time></trkpt><trkpt lat="46.3594483" lon="13.0518137"><ele>277.6666666666667</ele><time>2026-04-19T06:39:34.216Z</time></trkpt><trkpt lat="46.3595524" lon="13.051602"><ele>276.33333333333337</ele><time>2026-04-19T06:39:35.216Z</time></trkpt><trkpt lat="46.3596559" lon="13.0513877"><ele>275.0</ele><time>2026-04-19T06:39:36.216Z</time></trkpt><trkpt lat="46.3597483" lon="13.0511663"><ele>282.0</ele><time>2026-04-19T06:39:37.216Z</time></trkpt><trkpt lat="46.3598271" lon="13.0509321"><ele>289.0</ele><time>2026-04-19T06:39:38.216Z</time></trkpt><trkpt lat="46.3598794" lon="13.0506678"><ele>296.0</ele><time>2026-04-19T06:39:39.217Z</time></trkpt><trkpt lat="46.3599324" lon="13.0503886"><ele>296.0</ele><time>2026-04-19T06:39:40.217Z</time></trkpt><trkpt lat="46.3599871" lon="13.0500957"><ele>296.0</ele><time>2026-04-19T06:39:41.215Z</time></trkpt><trkpt lat="46.3600441" lon="13.0497834"><ele>296.0</ele><time>2026-04-19T06:39:42.216Z</time></trkpt><trkpt lat="46.3601015" lon="13.0494705"><ele>293.6666666666667</ele><time>2026-04-19T06:39:43.216Z</time></trkpt><trkpt lat="46.3601562" lon="13.0491772"><ele>291.3333333333333</ele><time>2026-04-19T06:39:44.215Z</time></trkpt><trkpt lat="46.3602046" lon="13.0488997"><ele>289.0</ele><time>2026-04-19T06:39:45.215Z</time></trkpt><trkpt lat="46.3602421" lon="13.0486395"><ele>288.3333333333333</ele><time>2026-04-19T06:39:46.215Z</time></trkpt><trkpt lat="46.3602728" lon="13.0483939"><ele>287.6666666666667</ele><time>2026-04-19T06:39:47.216Z</time></trkpt><trkpt lat="46.3603024" lon="13.0481536"><ele>287.0</ele><time>2026-04-19T06:39:48.216Z</time></trkpt><trkpt lat="46.3603462" lon="13.0479163"><ele>285.0</ele><time>2026-04-19T06:39:49.216Z</time></trkpt><trkpt lat="46.3604025" lon="13.0476839"><ele>283.0</ele><time>2026-04-19T06:39:50.216Z</time></trkpt><trkpt lat="46.3604636" lon="13.0474551"><ele>281.0</ele><time>2026-04-19T06:39:51.216Z</time></trkpt><trkpt lat="46.360524" lon="13.0472218"><ele>288.33333333333337</ele><time>2026-04-19T06:39:52.216Z</time></trkpt><trkpt lat="46.3605757" lon="13.0469879"><ele>295.6666666666667</ele><time>2026-04-19T06:39:53.216Z</time></trkpt><trkpt lat="46.3606157" lon="13.0467529"><ele>303.0</ele><time>2026-04-19T06:39:54.216Z</time></trkpt><trkpt lat="46.3606507" lon="13.0465294"><ele>303.0</ele><time>2026-04-19T06:39:55.216Z</time></trkpt><trkpt lat="46.3606818" lon="13.0463136"><ele>303.0</ele><time>2026-04-19T06:39:56.215Z</time></trkpt><trkpt lat="46.3607137" lon="13.046115"><ele>303.0</ele><time>2026-04-19T06:39:57.216Z</time></trkpt><trkpt lat="46.3607451" lon="13.0459439"><ele>303.0</ele><time>2026-04-19T06:39:58.216Z</time></trkpt><trkpt lat="46.3607869" lon="13.0458066"><ele>303.0</ele><time>2026-04-19T06:39:59.216Z</time></trkpt><trkpt lat="46.360848" lon="13.0456943"><ele>303.0</ele><time>2026-04-19T06:40:00.216Z</time></trkpt><trkpt lat="46.3609358" lon="13.0456091"><ele>303.0</ele><time>2026-04-19T06:40:01.216Z</time></trkpt><trkpt lat="46.361037" lon="13.0455469"><ele>303.0</ele><time>2026-04-19T06:40:02.216Z</time></trkpt><trkpt lat="46.3611576" lon="13.0454811"><ele>303.0</ele><time>2026-04-19T06:40:03.216Z</time></trkpt><trkpt lat="46.3612873" lon="13.0454202"><ele>305.6666666666667</ele><time>2026-04-19T06:40:04.216Z</time></trkpt><trkpt lat="46.3614215" lon="13.0453425"><ele>308.33333333333337</ele><time>2026-04-19T06:40:05.216Z</time></trkpt><trkpt lat="46.3615656" lon="13.0452648"><ele>311.0</ele><time>2026-04-19T06:40:06.216Z</time></trkpt><trkpt lat="46.3617145" lon="13.0451981"><ele>311.0</ele><time>2026-04-19T06:40:07.216Z</time></trkpt><trkpt lat="46.361855" lon="13.0451156"><ele>311.0</ele><time>2026-04-19T06:40:08.216Z</time></trkpt><trkpt lat="46.3619955" lon="13.0450111"><ele>311.0</ele><time>2026-04-19T06:40:09.217Z</time></trkpt><trkpt lat="46.3621344" lon="13.0448855"><ele>308.33333333333337</ele><time>2026-04-19T06:40:10.216Z</time></trkpt><trkpt lat="46.3622703" lon="13.044735"><ele>305.6666666666667</ele><time>2026-04-19T06:40:11.215Z</time></trkpt><trkpt lat="46.3624001" lon="13.0445607"><ele>303.0</ele><time>2026-04-19T06:40:12.216Z</time></trkpt><trkpt lat="46.3625325" lon="13.0443796"><ele>303.0</ele><time>2026-04-19T06:40:13.216Z</time></trkpt><trkpt lat="46.362671" lon="13.0441974"><ele>303.0</ele><time>2026-04-19T06:40:14.216Z</time></trkpt><trkpt lat="46.362811" lon="13.0440153"><ele>303.0</ele><time>2026-04-19T06:40:15.216Z</time></trkpt><trkpt lat="46.3629524" lon="13.043829"><ele>301.3333333333333</ele><time>2026-04-19T06:40:16.216Z</time></trkpt><trkpt lat="46.3630871" lon="13.0436428"><ele>299.66666666666663</ele><time>2026-04-19T06:40:17.216Z</time></trkpt><trkpt lat="46.3632157" lon="13.0434539"><ele>298.0</ele><time>2026-04-19T06:40:18.216Z</time></trkpt><trkpt lat="46.3633388" lon="13.0432577"><ele>302.0</ele><time>2026-04-19T06:40:19.215Z</time></trkpt><trkpt lat="46.3634492" lon="13.043045"><ele>306.0</ele><time>2026-04-19T06:40:20.215Z</time></trkpt><trkpt lat="46.3635534" lon="13.0428244"><ele>310.0</ele><time>2026-04-19T06:40:21.215Z</time></trkpt><trkpt lat="46.3636462" lon="13.0425927"><ele>311.0</ele><time>2026-04-19T06:40:22.215Z</time></trkpt><trkpt lat="46.3637401" lon="13.0423612"><ele>312.0</ele><time>2026-04-19T06:40:23.216Z</time></trkpt><trkpt lat="46.3638337" lon="13.0421242"><ele>313.0</ele><time>2026-04-19T06:40:24.216Z</time></trkpt><trkpt lat="46.3639272" lon="13.0418882"><ele>305.66666666666663</ele><time>2026-04-19T06:40:25.216Z</time></trkpt><trkpt lat="46.3640171" lon="13.0416559"><ele>298.3333333333333</ele><time>2026-04-19T06:40:26.217Z</time></trkpt><trkpt lat="46.3641089" lon="13.041423"><ele>291.0</ele><time>2026-04-19T06:40:27.216Z</time></trkpt><trkpt lat="46.3642024" lon="13.0411893"><ele>291.0</ele><time>2026-04-19T06:40:28.215Z</time></trkpt><trkpt lat="46.364294" lon="13.0409509"><ele>291.0</ele><time>2026-04-19T06:40:29.215Z</time></trkpt><trkpt lat="46.364381" lon="13.0407086"><ele>291.0</ele><time>2026-04-19T06:40:30.215Z</time></trkpt><trkpt lat="46.3644567" lon="13.0404583"><ele>293.3333333333333</ele><time>2026-04-19T06:40:31.216Z</time></trkpt><trkpt lat="46.3645274" lon="13.0402024"><ele>295.66666666666663</ele><time>2026-04-19T06:40:32.215Z</time></trkpt><trkpt lat="46.3645989" lon="13.0399459"><ele>298.0</ele><time>2026-04-19T06:40:33.215Z</time></trkpt><trkpt lat="46.3646706" lon="13.0396891"><ele>294.0</ele><time>2026-04-19T06:40:34.215Z</time></trkpt><trkpt lat="46.3647435" lon="13.0394302"><ele>290.0</ele><time>2026-04-19T06:40:35.216Z</time></trkpt><trkpt lat="46.3648187" lon="13.0391712"><ele>286.0</ele><time>2026-04-19T06:40:36.216Z</time></trkpt><trkpt lat="46.3648934" lon="13.0389126"><ele>286.0</ele><time>2026-04-19T06:40:37.216Z</time></trkpt><trkpt lat="46.3649663" lon="13.038652"><ele>286.0</ele><time>2026-04-19T06:40:38.216Z</time></trkpt><trkpt lat="46.3650393" lon="13.0383909"><ele>286.0</ele><time>2026-04-19T06:40:39.216Z</time></trkpt><trkpt lat="46.365113" lon="13.0381307"><ele>286.3333333333333</ele><time>2026-04-19T06:40:40.216Z</time></trkpt><trkpt lat="46.365185" lon="13.037871"><ele>286.6666666666667</ele><time>2026-04-19T06:40:41.216Z</time></trkpt><trkpt lat="46.3652571" lon="13.0376129"><ele>287.0</ele><time>2026-04-19T06:40:42.216Z</time></trkpt><trkpt lat="46.3653306" lon="13.0373545"><ele>287.33333333333337</ele><time>2026-04-19T06:40:43.216Z</time></trkpt><trkpt lat="46.3654017" lon="13.0370959"><ele>287.6666666666667</ele><time>2026-04-19T06:40:44.216Z</time></trkpt><trkpt lat="46.3654729" lon="13.0368361"><ele>288.0</ele><time>2026-04-19T06:40:45.216Z</time></trkpt><trkpt lat="46.3655449" lon="13.0365789"><ele>288.3333333333333</ele><time>2026-04-19T06:40:46.216Z</time></trkpt><trkpt lat="46.3656193" lon="13.0363248"><ele>288.66666666666663</ele><time>2026-04-19T06:40:47.216Z</time></trkpt><trkpt lat="46.3656977" lon="13.0360735"><ele>289.0</ele><time>2026-04-19T06:40:48.216Z</time></trkpt><trkpt lat="46.3657834" lon="13.0358283"><ele>288.66666666666663</ele><time>2026-04-19T06:40:49.216Z</time></trkpt><trkpt lat="46.3658788" lon="13.0355912"><ele>288.3333333333333</ele><time>2026-04-19T06:40:50.216Z</time></trkpt><trkpt lat="46.365983" lon="13.0353632"><ele>288.0</ele><time>2026-04-19T06:40:51.215Z</time></trkpt><trkpt lat="46.366091" lon="13.0351455"><ele>287.6666666666667</ele><time>2026-04-19T06:40:52.215Z</time></trkpt><trkpt lat="46.3661994" lon="13.0349474"><ele>287.33333333333337</ele><time>2026-04-19T06:40:53.217Z</time></trkpt><trkpt lat="46.3663101" lon="13.0347625"><ele>287.0</ele><time>2026-04-19T06:40:54.216Z</time></trkpt><trkpt lat="46.3664181" lon="13.0345885"><ele>286.25</ele><time>2026-04-19T06:40:55.216Z</time></trkpt><trkpt lat="46.366525" lon="13.0344297"><ele>285.5</ele><time>2026-04-19T06:40:56.216Z</time></trkpt><trkpt lat="46.3666203" lon="13.0342903"><ele>284.75</ele><time>2026-04-19T06:40:57.216Z</time></trkpt><trkpt lat="46.3667123" lon="13.0341708"><ele>284.0</ele><time>2026-04-19T06:40:58.217Z</time></trkpt><trkpt lat="46.3668175" lon="13.0340507"><ele>283.75</ele><time>2026-04-19T06:40:59.216Z</time></trkpt><trkpt lat="46.366928" lon="13.0339447"><ele>283.5</ele><time>2026-04-19T06:41:00.216Z</time></trkpt><trkpt lat="46.3670406" lon="13.0338429"><ele>283.25</ele><time>2026-04-19T06:41:01.216Z</time></trkpt><trkpt lat="46.3671589" lon="13.0337385"><ele>283.0</ele><time>2026-04-19T06:41:02.216Z</time></trkpt><trkpt lat="46.3672816" lon="13.033641"><ele>283.75</ele><time>2026-04-19T06:41:03.216Z</time></trkpt><trkpt lat="46.36741" lon="13.0335512"><ele>284.5</ele><time>2026-04-19T06:41:04.216Z</time></trkpt><trkpt lat="46.3675435" lon="13.0334655"><ele>285.25</ele><time>2026-04-19T06:41:05.215Z</time></trkpt><trkpt lat="46.3676791" lon="13.0333877"><ele>286.0</ele><time>2026-04-19T06:41:06.215Z</time></trkpt><trkpt lat="46.3678113" lon="13.0333218"><ele>285.8</ele><time>2026-04-19T06:41:07.216Z</time></trkpt><trkpt lat="46.3679337" lon="13.0332671"><ele>285.6</ele><time>2026-04-19T06:41:08.216Z</time></trkpt><trkpt lat="46.368037" lon="13.0332242"><ele>285.4</ele><time>2026-04-19T06:41:09.216Z</time></trkpt><trkpt lat="46.3681323" lon="13.0331905"><ele>285.2</ele><time>2026-04-19T06:41:10.216Z</time></trkpt><trkpt lat="46.368217" lon="13.0331632"><ele>285.0</ele><time>2026-04-19T06:41:11.216Z</time></trkpt><trkpt lat="46.3682911" lon="13.0331405"><ele>284.8333333333333</ele><time>2026-04-19T06:41:12.215Z</time></trkpt><trkpt lat="46.3683522" lon="13.0331183"><ele>284.6666666666667</ele><time>2026-04-19T06:41:13.216Z</time></trkpt><trkpt lat="46.368431" lon="13.0330905"><ele>284.5</ele><time>2026-04-19T06:41:15.216Z</time></trkpt><trkpt lat="46.3684935" lon="13.0330593"><ele>284.33333333333337</ele><time>2026-04-19T06:41:18.215Z</time></trkpt><trkpt lat="46.3685704" lon="13.0330383"><ele>284.1666666666667</ele><time>2026-04-19T06:41:20.216Z</time></trkpt><trkpt lat="46.368702" lon="13.0329894"><ele>284.0</ele><time>2026-04-19T06:41:22.217Z</time></trkpt><trkpt lat="46.3687816" lon="13.0329643"><ele>284.8</ele><time>2026-04-19T06:41:23.216Z</time></trkpt><trkpt lat="46.3688742" lon="13.0329316"><ele>285.59999999999997</ele><time>2026-04-19T06:41:24.216Z</time></trkpt><trkpt lat="46.3689721" lon="13.0328958"><ele>286.4</ele><time>2026-04-19T06:41:25.217Z</time></trkpt><trkpt lat="46.3690723" lon="13.0328579"><ele>287.2</ele><time>2026-04-19T06:41:26.216Z</time></trkpt><trkpt lat="46.3691696" lon="13.0328219"><ele>288.0</ele><time>2026-04-19T06:41:27.216Z</time></trkpt><trkpt lat="46.3692503" lon="13.0328005"><ele>288.0</ele><time>2026-04-19T06:41:28.215Z</time></trkpt><trkpt lat="46.3693186" lon="13.0327779"><ele>288.0</ele><time>2026-04-19T06:41:29.215Z</time></trkpt><trkpt lat="46.369388" lon="13.032759"><ele>288.0</ele><time>2026-04-19T06:41:30.216Z</time></trkpt><trkpt lat="46.369454" lon="13.0327385"><ele>288.0</ele><time>2026-04-19T06:41:31.215Z</time></trkpt><trkpt lat="46.3695185" lon="13.0327142"><ele>288.0</ele><time>2026-04-19T06:41:32.216Z</time></trkpt><trkpt lat="46.3696346" lon="13.0326704"><ele>288.0</ele><time>2026-04-19T06:41:34.215Z</time></trkpt><trkpt lat="46.3697386" lon="13.0326272"><ele>288.0</ele><time>2026-04-19T06:41:36.216Z</time></trkpt><trkpt lat="46.3698326" lon="13.0325935"><ele>288.0</ele><time>2026-04-19T06:41:38.217Z</time></trkpt><trkpt lat="46.3698973" lon="13.03257"><ele>288.0</ele><time>2026-04-19T06:41:40.216Z</time></trkpt><trkpt lat="46.3698693" lon="13.0324725"><ele>288.0</ele><time>2026-04-19T06:43:06.216Z</time></trkpt><trkpt lat="46.3697651" lon="13.0325401"><ele>288.0</ele><time>2026-04-19T06:43:08.217Z</time></trkpt><trkpt lat="46.3696962" lon="13.0325712"><ele>288.0</ele><time>2026-04-19T06:43:09.216Z</time></trkpt><trkpt lat="46.369626" lon="13.0325972"><ele>288.0</ele><time>2026-04-19T06:43:10.215Z</time></trkpt><trkpt lat="46.3695484" lon="13.0326307"><ele>288.0</ele><time>2026-04-19T06:43:11.216Z</time></trkpt><trkpt lat="46.3694642" lon="13.0326659"><ele>288.0</ele><time>2026-04-19T06:43:12.216Z</time></trkpt><trkpt lat="46.3693754" lon="13.0326997"><ele>288.0</ele><time>2026-04-19T06:43:13.215Z</time></trkpt><trkpt lat="46.369291" lon="13.0327312"><ele>288.0</ele><time>2026-04-19T06:43:14.216Z</time></trkpt><trkpt lat="46.36921" lon="13.0327627"><ele>288.0</ele><time>2026-04-19T06:43:15.216Z</time></trkpt><trkpt lat="46.3691299" lon="13.0327916"><ele>288.0</ele><time>2026-04-19T06:43:16.216Z</time></trkpt><trkpt lat="46.3690509" lon="13.0328198"><ele>288.0</ele><time>2026-04-19T06:43:17.215Z</time></trkpt><trkpt lat="46.3689705" lon="13.0328472"><ele>288.0</ele><time>2026-04-19T06:43:18.216Z</time></trkpt><trkpt lat="46.3688913" lon="13.0328765"><ele>288.0</ele><time>2026-04-19T06:43:19.215Z</time></trkpt><trkpt lat="46.3688132" lon="13.032903"><ele>288.0</ele><time>2026-04-19T06:43:20.216Z</time></trkpt><trkpt lat="46.3687392" lon="13.0329322"><ele>288.0</ele><time>2026-04-19T06:43:21.216Z</time></trkpt><trkpt lat="46.3686719" lon="13.0329552"><ele>287.3333333333333</ele><time>2026-04-19T06:43:22.216Z</time></trkpt><trkpt lat="46.3685724" lon="13.0329895"><ele>286.6666666666667</ele><time>2026-04-19T06:43:24.216Z</time></trkpt><trkpt lat="46.3685032" lon="13.032926"><ele>286.0</ele><time>2026-04-19T06:43:27.217Z</time></trkpt><trkpt lat="46.3685073" lon="13.0328329"><ele>285.33333333333337</ele><time>2026-04-19T06:43:29.215Z</time></trkpt><trkpt lat="46.3685061" lon="13.0327243"><ele>284.6666666666667</ele><time>2026-04-19T06:43:31.217Z</time></trkpt><trkpt lat="46.3685109" lon="13.0326226"><ele>284.0</ele><time>2026-04-19T06:43:33.216Z</time></trkpt><trkpt lat="46.3685244" lon="13.0325201"><ele>284.2</ele><time>2026-04-19T06:43:35.215Z</time></trkpt><trkpt lat="46.3685354" lon="13.0324054"><ele>284.4</ele><time>2026-04-19T06:43:37.215Z</time></trkpt><trkpt lat="46.3685487" lon="13.032277"><ele>284.6</ele><time>2026-04-19T06:43:39.215Z</time></trkpt><trkpt lat="46.3685407" lon="13.0321342"><ele>284.8</ele><time>2026-04-19T06:43:41.215Z</time></trkpt><trkpt lat="46.3685127" lon="13.0319852"><ele>285.0</ele><time>2026-04-19T06:43:43.215Z</time></trkpt><trkpt lat="46.368482" lon="13.0318219"><ele>285.0</ele><time>2026-04-19T06:43:45.215Z</time></trkpt><trkpt lat="46.3684438" lon="13.0316579"><ele>285.0</ele><time>2026-04-19T06:43:47.215Z</time></trkpt><trkpt lat="46.3684109" lon="13.0314846"><ele>285.0</ele><time>2026-04-19T06:43:49.215Z</time></trkpt><trkpt lat="46.3684007" lon="13.0312925"><ele>285.0</ele><time>2026-04-19T06:43:51.215Z</time></trkpt><trkpt lat="46.3684005" lon="13.0311889"><ele>285.0</ele><time>2026-04-19T06:43:52.215Z</time></trkpt><trkpt lat="46.3684042" lon="13.0310777"><ele>285.0</ele><time>2026-04-19T06:43:53.215Z</time></trkpt><trkpt lat="46.368412" lon="13.0309639"><ele>285.0</ele><time>2026-04-19T06:43:54.215Z</time></trkpt><trkpt lat="46.3684204" lon="13.0308547"><ele>285.0</ele><time>2026-04-19T06:43:55.217Z</time></trkpt><trkpt lat="46.3684312" lon="13.0307534"><ele>285.0</ele><time>2026-04-19T06:43:56.216Z</time></trkpt><trkpt lat="46.3684401" lon="13.030653"><ele>285.0</ele><time>2026-04-19T06:43:57.216Z</time></trkpt><trkpt lat="46.3684481" lon="13.0305517"><ele>285.0</ele><time>2026-04-19T06:43:58.215Z</time></trkpt><trkpt lat="46.368456" lon="13.0304578"><ele>285.0</ele><time>2026-04-19T06:43:59.215Z</time></trkpt><trkpt lat="46.3684594" lon="13.0303613"><ele>284.6666666666667</ele><time>2026-04-19T06:44:00.215Z</time></trkpt><trkpt lat="46.3684636" lon="13.030266"><ele>284.3333333333333</ele><time>2026-04-19T06:44:01.215Z</time></trkpt><trkpt lat="46.3684657" lon="13.0301707"><ele>284.0</ele><time>2026-04-19T06:44:02.215Z</time></trkpt><trkpt lat="46.3684704" lon="13.0300789"><ele>283.66666666666663</ele><time>2026-04-19T06:44:03.216Z</time></trkpt><trkpt lat="46.3685122" lon="13.0299277"><ele>283.3333333333333</ele><time>2026-04-19T06:44:05.217Z</time></trkpt><trkpt lat="46.3686058" lon="13.0298479"><ele>283.0</ele><time>2026-04-19T06:44:07.216Z</time></trkpt><trkpt lat="46.3686718" lon="13.0298236"><ele>282.8333333333333</ele><time>2026-04-19T06:44:08.216Z</time></trkpt><trkpt lat="46.3687458" lon="13.0297898"><ele>282.66666666666663</ele><time>2026-04-19T06:44:09.215Z</time></trkpt><trkpt lat="46.368823" lon="13.0297579"><ele>282.5</ele><time>2026-04-19T06:44:10.215Z</time></trkpt><trkpt lat="46.3688921" lon="13.0297302"><ele>282.3333333333333</ele><time>2026-04-19T06:44:11.215Z</time></trkpt><trkpt lat="46.368963" lon="13.0296962"><ele>282.1666666666667</ele><time>2026-04-19T06:44:12.216Z</time></trkpt><trkpt lat="46.3690342" lon="13.029667"><ele>282.0</ele><time>2026-04-19T06:44:13.217Z</time></trkpt><trkpt lat="46.369107" lon="13.0296343"><ele>282.0</ele><time>2026-04-19T06:44:14.216Z</time></trkpt><trkpt lat="46.3691801" lon="13.0296101"><ele>282.0</ele><time>2026-04-19T06:44:15.216Z</time></trkpt><trkpt lat="46.3692533" lon="13.0295761"><ele>282.0</ele><time>2026-04-19T06:44:16.217Z</time></trkpt><trkpt lat="46.3693171" lon="13.0295434"><ele>282.0</ele><time>2026-04-19T06:44:17.215Z</time></trkpt><trkpt lat="46.369411" lon="13.0295067"><ele>282.0</ele><time>2026-04-19T06:44:18.216Z</time></trkpt><trkpt lat="46.3694876" lon="13.0294827"><ele>282.0</ele><time>2026-04-19T06:44:19.216Z</time></trkpt><trkpt lat="46.3695684" lon="13.0294568"><ele>282.0</ele><time>2026-04-19T06:44:20.215Z</time></trkpt><trkpt lat="46.3696466" lon="13.0294306"><ele>282.0</ele><time>2026-04-19T06:44:21.216Z</time></trkpt><trkpt lat="46.3697249" lon="13.0294184"><ele>282.0</ele><time>2026-04-19T06:44:22.216Z</time></trkpt><trkpt lat="46.3697898" lon="13.0294007"><ele>282.0</ele><time>2026-04-19T06:44:23.214Z</time></trkpt><trkpt lat="46.3698558" lon="13.0293799"><ele>282.0</ele><time>2026-04-19T06:44:24.214Z</time></trkpt><trkpt lat="46.369926" lon="13.0293626"><ele>282.0</ele><time>2026-04-19T06:44:25.214Z</time></trkpt><trkpt lat="46.3699999" lon="13.0293331"><ele>282.0</ele><time>2026-04-19T06:44:26.214Z</time></trkpt><trkpt lat="46.3700753" lon="13.029302"><ele>283.1666666666667</ele><time>2026-04-19T06:44:27.216Z</time></trkpt><trkpt lat="46.3701502" lon="13.0292692"><ele>284.3333333333333</ele><time>2026-04-19T06:44:28.215Z</time></trkpt><trkpt lat="46.3702242" lon="13.029234"><ele>285.5</ele><time>2026-04-19T06:44:29.216Z</time></trkpt><trkpt lat="46.3702967" lon="13.029192"><ele>286.66666666666663</ele><time>2026-04-19T06:44:30.215Z</time></trkpt><trkpt lat="46.3703712" lon="13.0291569"><ele>287.8333333333333</ele><time>2026-04-19T06:44:31.215Z</time></trkpt><trkpt lat="46.3704449" lon="13.0291183"><ele>289.0</ele><time>2026-04-19T06:44:32.215Z</time></trkpt><trkpt lat="46.3705188" lon="13.029081"><ele>290.0</ele><time>2026-04-19T06:44:33.215Z</time></trkpt><trkpt lat="46.3705965" lon="13.0290408"><ele>291.0</ele><time>2026-04-19T06:44:34.215Z</time></trkpt><trkpt lat="46.3706691" lon="13.0289995"><ele>292.0</ele><time>2026-04-19T06:44:35.215Z</time></trkpt><trkpt lat="46.3707443" lon="13.0289612"><ele>293.0</ele><time>2026-04-19T06:44:36.215Z</time></trkpt><trkpt lat="46.3708182" lon="13.0289129"><ele>294.0</ele><time>2026-04-19T06:44:37.215Z</time></trkpt><trkpt lat="46.3708924" lon="13.0288714"><ele>295.0</ele><time>2026-04-19T06:44:38.215Z</time></trkpt><trkpt lat="46.3709681" lon="13.0288275"><ele>295.0</ele><time>2026-04-19T06:44:39.215Z</time></trkpt><trkpt lat="46.3710421" lon="13.0287909"><ele>295.0</ele><time>2026-04-19T06:44:40.215Z</time></trkpt><trkpt lat="46.3711091" lon="13.0287646"><ele>295.0</ele><time>2026-04-19T06:44:41.215Z</time></trkpt><trkpt lat="46.3711728" lon="13.0287469"><ele>295.0</ele><time>2026-04-19T06:44:42.216Z</time></trkpt><trkpt lat="46.3712753" lon="13.0287236"><ele>295.0</ele><time>2026-04-19T06:44:44.216Z</time></trkpt><trkpt lat="46.3713368" lon="13.028698"><ele>295.0</ele><time>2026-04-19T06:44:46.214Z</time></trkpt><trkpt lat="46.3714203" lon="13.0286521"><ele>294.66666666666663</ele><time>2026-04-19T06:44:49.215Z</time></trkpt><trkpt lat="46.3714808" lon="13.028579"><ele>294.3333333333333</ele><time>2026-04-19T06:44:52.215Z</time></trkpt><trkpt lat="46.3715539" lon="13.0285884"><ele>294.0</ele><time>2026-04-19T06:45:05.214Z</time></trkpt><trkpt lat="46.3716174" lon="13.0285905"><ele>293.6666666666667</ele><time>2026-04-19T06:45:07.215Z</time></trkpt><trkpt lat="46.3717055" lon="13.0286044"><ele>293.33333333333337</ele><time>2026-04-19T06:45:10.215Z</time></trkpt><trkpt lat="46.371794" lon="13.028619"><ele>293.0</ele><time>2026-04-19T06:45:13.215Z</time></trkpt><trkpt lat="46.3718623" lon="13.0286405"><ele>293.0</ele><time>2026-04-19T06:45:15.215Z</time></trkpt><trkpt lat="46.3719485" lon="13.0286589"><ele>293.0</ele><time>2026-04-19T06:45:17.215Z</time></trkpt><trkpt lat="46.3720296" lon="13.0286813"><ele>293.0</ele><time>2026-04-19T06:45:19.216Z</time></trkpt><trkpt lat="46.3721102" lon="13.0287044"><ele>293.0</ele><time>2026-04-19T06:45:21.215Z</time></trkpt><trkpt lat="46.3721964" lon="13.0287259"><ele>293.0</ele><time>2026-04-19T06:45:23.215Z</time></trkpt><trkpt lat="46.3722915" lon="13.0287469"><ele>293.0</ele><time>2026-04-19T06:45:25.214Z</time></trkpt><trkpt lat="46.372398" lon="13.0287575"><ele>292.6</ele><time>2026-04-19T06:45:27.215Z</time></trkpt><trkpt lat="46.3725065" lon="13.0287391"><ele>292.20000000000005</ele><time>2026-04-19T06:45:29.214Z</time></trkpt><trkpt lat="46.372615" lon="13.028707"><ele>291.8</ele><time>2026-04-19T06:45:31.215Z</time></trkpt><trkpt lat="46.3727196" lon="13.0286745"><ele>291.40000000000003</ele><time>2026-04-19T06:45:33.215Z</time></trkpt><trkpt lat="46.3728213" lon="13.0286326"><ele>291.0</ele><time>2026-04-19T06:45:35.216Z</time></trkpt><trkpt lat="46.3729221" lon="13.0285974"><ele>291.0</ele><time>2026-04-19T06:45:37.215Z</time></trkpt><trkpt lat="46.3730171" lon="13.0285676"><ele>291.0</ele><time>2026-04-19T06:45:39.216Z</time></trkpt><trkpt lat="46.3730862" lon="13.0285557"><ele>291.0</ele><time>2026-04-19T06:45:41.215Z</time></trkpt><trkpt lat="46.3730162" lon="13.0285308"><ele>291.0</ele><time>2026-04-19T06:46:00.215Z</time></trkpt><trkpt lat="46.3729481" lon="13.0285916"><ele>291.0</ele><time>2026-04-19T06:46:02.215Z</time></trkpt><trkpt lat="46.3728416" lon="13.0286283"><ele>291.0</ele><time>2026-04-19T06:46:04.215Z</time></trkpt><trkpt lat="46.3727197" lon="13.0286696"><ele>291.0</ele><time>2026-04-19T06:46:06.215Z</time></trkpt><trkpt lat="46.3726463" lon="13.0286986"><ele>291.0</ele><time>2026-04-19T06:46:07.215Z</time></trkpt><trkpt lat="46.3725721" lon="13.0287236"><ele>291.0</ele><time>2026-04-19T06:46:08.216Z</time></trkpt><trkpt lat="46.3724963" lon="13.0287429"><ele>291.0</ele><time>2026-04-19T06:46:09.215Z</time></trkpt><trkpt lat="46.3724234" lon="13.0287534"><ele>291.0</ele><time>2026-04-19T06:46:10.214Z</time></trkpt><trkpt lat="46.3723504" lon="13.0287522"><ele>291.0</ele><time>2026-04-19T06:46:11.216Z</time></trkpt><trkpt lat="46.3722834" lon="13.0287414"><ele>291.0</ele><time>2026-04-19T06:46:12.216Z</time></trkpt><trkpt lat="46.3722099" lon="13.0287294"><ele>291.3333333333333</ele><time>2026-04-19T06:46:13.215Z</time></trkpt><trkpt lat="46.3721357" lon="13.0287136"><ele>291.6666666666667</ele><time>2026-04-19T06:46:14.215Z</time></trkpt><trkpt lat="46.3720593" lon="13.0286936"><ele>292.0</ele><time>2026-04-19T06:46:15.215Z</time></trkpt><trkpt lat="46.3719838" lon="13.0286751"><ele>292.33333333333337</ele><time>2026-04-19T06:46:16.215Z</time></trkpt><trkpt lat="46.3719156" lon="13.0286598"><ele>292.6666666666667</ele><time>2026-04-19T06:46:17.214Z</time></trkpt><trkpt lat="46.3718059" lon="13.0286353"><ele>293.0</ele><time>2026-04-19T06:46:19.215Z</time></trkpt><trkpt lat="46.3717167" lon="13.0286349"><ele>293.0</ele><time>2026-04-19T06:46:21.215Z</time></trkpt><trkpt lat="46.3716215" lon="13.0286289"><ele>293.0</ele><time>2026-04-19T06:46:23.214Z</time></trkpt><trkpt lat="46.3715257" lon="13.0286381"><ele>293.0</ele><time>2026-04-19T06:46:25.214Z</time></trkpt><trkpt lat="46.3714409" lon="13.0286707"><ele>293.0</ele><time>2026-04-19T06:46:27.215Z</time></trkpt><trkpt lat="46.3713617" lon="13.028718"><ele>293.0</ele><time>2026-04-19T06:46:29.215Z</time></trkpt><trkpt lat="46.371246" lon="13.0287548"><ele>293.33333333333337</ele><time>2026-04-19T06:46:31.215Z</time></trkpt><trkpt lat="46.3711734" lon="13.028769"><ele>293.6666666666667</ele><time>2026-04-19T06:46:32.215Z</time></trkpt><trkpt lat="46.3711002" lon="13.0287864"><ele>294.0</ele><time>2026-04-19T06:46:33.214Z</time></trkpt><trkpt lat="46.3710263" lon="13.0288154"><ele>294.3333333333333</ele><time>2026-04-19T06:46:34.215Z</time></trkpt><trkpt lat="46.3709532" lon="13.0288542"><ele>294.66666666666663</ele><time>2026-04-19T06:46:35.215Z</time></trkpt><trkpt lat="46.3708794" lon="13.0289002"><ele>295.0</ele><time>2026-04-19T06:46:36.214Z</time></trkpt><trkpt lat="46.3708044" lon="13.0289445"><ele>295.0</ele><time>2026-04-19T06:46:37.214Z</time></trkpt><trkpt lat="46.3707287" lon="13.0289881"><ele>295.0</ele><time>2026-04-19T06:46:38.215Z</time></trkpt><trkpt lat="46.370653" lon="13.02903"><ele>295.0</ele><time>2026-04-19T06:46:39.215Z</time></trkpt><trkpt lat="46.3705788" lon="13.0290713"><ele>295.0</ele><time>2026-04-19T06:46:40.215Z</time></trkpt><trkpt lat="46.3705002" lon="13.0291103"><ele>295.0</ele><time>2026-04-19T06:46:41.215Z</time></trkpt><trkpt lat="46.3704186" lon="13.0291487"><ele>295.0</ele><time>2026-04-19T06:46:42.215Z</time></trkpt><trkpt lat="46.3703355" lon="13.0291925"><ele>294.0</ele><time>2026-04-19T06:46:43.215Z</time></trkpt><trkpt lat="46.3702538" lon="13.0292381"><ele>293.0</ele><time>2026-04-19T06:46:44.215Z</time></trkpt><trkpt lat="46.3701712" lon="13.0292826"><ele>292.0</ele><time>2026-04-19T06:46:45.214Z</time></trkpt><trkpt lat="46.3700866" lon="13.0293205"><ele>291.0</ele><time>2026-04-19T06:46:46.214Z</time></trkpt><trkpt lat="46.3700034" lon="13.0293532"><ele>290.0</ele><time>2026-04-19T06:46:47.214Z</time></trkpt><trkpt lat="46.3699197" lon="13.0293848"><ele>289.0</ele><time>2026-04-19T06:46:48.215Z</time></trkpt><trkpt lat="46.3698327" lon="13.0294068"><ele>289.0</ele><time>2026-04-19T06:46:49.215Z</time></trkpt><trkpt lat="46.3697402" lon="13.0294274"><ele>289.0</ele><time>2026-04-19T06:46:50.214Z</time></trkpt><trkpt lat="46.3696497" lon="13.0294498"><ele>289.0</ele><time>2026-04-19T06:46:51.215Z</time></trkpt><trkpt lat="46.3695652" lon="13.0294716"><ele>289.0</ele><time>2026-04-19T06:46:52.215Z</time></trkpt><trkpt lat="46.3694815" lon="13.0294954"><ele>289.0</ele><time>2026-04-19T06:46:53.214Z</time></trkpt><trkpt lat="46.3693983" lon="13.029528"><ele>289.0</ele><time>2026-04-19T06:46:54.214Z</time></trkpt><trkpt lat="46.3693149" lon="13.0295646"><ele>288.66666666666663</ele><time>2026-04-19T06:46:55.214Z</time></trkpt><trkpt lat="46.369239" lon="13.0296031"><ele>288.3333333333333</ele><time>2026-04-19T06:46:56.214Z</time></trkpt><trkpt lat="46.3691616" lon="13.0296369"><ele>288.0</ele><time>2026-04-19T06:46:57.215Z</time></trkpt><trkpt lat="46.3690798" lon="13.0296674"><ele>287.6666666666667</ele><time>2026-04-19T06:46:58.215Z</time></trkpt><trkpt lat="46.368987" lon="13.029699"><ele>287.33333333333337</ele><time>2026-04-19T06:46:59.214Z</time></trkpt><trkpt lat="46.3688992" lon="13.0297387"><ele>287.0</ele><time>2026-04-19T06:47:00.215Z</time></trkpt><trkpt lat="46.3688088" lon="13.0297791"><ele>287.0</ele><time>2026-04-19T06:47:01.215Z</time></trkpt><trkpt lat="46.368721" lon="13.0298117"><ele>287.0</ele><time>2026-04-19T06:47:02.216Z</time></trkpt><trkpt lat="46.3686438" lon="13.0298414"><ele>287.0</ele><time>2026-04-19T06:47:03.216Z</time></trkpt><trkpt lat="46.3685392" lon="13.0298994"><ele>287.0</ele><time>2026-04-19T06:47:05.215Z</time></trkpt><trkpt lat="46.3684859" lon="13.0300294"><ele>287.0</ele><time>2026-04-19T06:47:07.214Z</time></trkpt><trkpt lat="46.3684783" lon="13.0301258"><ele>286.33333333333337</ele><time>2026-04-19T06:47:08.215Z</time></trkpt><trkpt lat="46.3684772" lon="13.030238"><ele>285.6666666666667</ele><time>2026-04-19T06:47:09.214Z</time></trkpt><trkpt lat="46.3684739" lon="13.0303453"><ele>285.0</ele><time>2026-04-19T06:47:10.214Z</time></trkpt><trkpt lat="46.368465" lon="13.0304531"><ele>284.3333333333333</ele><time>2026-04-19T06:47:11.215Z</time></trkpt><trkpt lat="46.3684549" lon="13.0305601"><ele>283.66666666666663</ele><time>2026-04-19T06:47:12.215Z</time></trkpt><trkpt lat="46.3684443" lon="13.0306698"><ele>283.0</ele><time>2026-04-19T06:47:13.214Z</time></trkpt><trkpt lat="46.3684349" lon="13.0307816"><ele>283.3333333333333</ele><time>2026-04-19T06:47:14.214Z</time></trkpt><trkpt lat="46.3684257" lon="13.0308933"><ele>283.66666666666663</ele><time>2026-04-19T06:47:15.215Z</time></trkpt><trkpt lat="46.3684177" lon="13.0310106"><ele>284.0</ele><time>2026-04-19T06:47:16.216Z</time></trkpt><trkpt lat="46.368412" lon="13.0311352"><ele>284.3333333333333</ele><time>2026-04-19T06:47:17.215Z</time></trkpt><trkpt lat="46.3684064" lon="13.0312615"><ele>284.6666666666667</ele><time>2026-04-19T06:47:18.214Z</time></trkpt><trkpt lat="46.3684067" lon="13.031383"><ele>285.0</ele><time>2026-04-19T06:47:19.214Z</time></trkpt><trkpt lat="46.3684158" lon="13.0314965"><ele>285.0</ele><time>2026-04-19T06:47:20.216Z</time></trkpt><trkpt lat="46.3684322" lon="13.0315994"><ele>285.0</ele><time>2026-04-19T06:47:21.215Z</time></trkpt><trkpt lat="46.3684564" lon="13.0316908"><ele>285.0</ele><time>2026-04-19T06:47:22.216Z</time></trkpt><trkpt lat="46.3684805" lon="13.0317874"><ele>285.0</ele><time>2026-04-19T06:47:23.216Z</time></trkpt><trkpt lat="46.368498" lon="13.0318963"><ele>285.0</ele><time>2026-04-19T06:47:24.215Z</time></trkpt><trkpt lat="46.3685157" lon="13.0320137"><ele>285.0</ele><time>2026-04-19T06:47:25.215Z</time></trkpt><trkpt lat="46.3685318" lon="13.0321348"><ele>285.0</ele><time>2026-04-19T06:47:26.215Z</time></trkpt><trkpt lat="46.3685375" lon="13.0322573"><ele>285.0</ele><time>2026-04-19T06:47:27.214Z</time></trkpt><trkpt lat="46.368537" lon="13.0323658"><ele>285.0</ele><time>2026-04-19T06:47:28.214Z</time></trkpt><trkpt lat="46.3685324" lon="13.0324611"><ele>285.0</ele><time>2026-04-19T06:47:29.215Z</time></trkpt><trkpt lat="46.3685179" lon="13.0326341"><ele>285.0</ele><time>2026-04-19T06:47:31.215Z</time></trkpt><trkpt lat="46.3684997" lon="13.0327724"><ele>285.0</ele><time>2026-04-19T06:47:33.214Z</time></trkpt><trkpt lat="46.3684773" lon="13.0329118"><ele>284.8</ele><time>2026-04-19T06:47:35.216Z</time></trkpt><trkpt lat="46.3685083" lon="13.0330025"><ele>284.6</ele><time>2026-04-19T06:47:38.214Z</time></trkpt><trkpt lat="46.3686215" lon="13.0330215"><ele>284.4</ele><time>2026-04-19T06:47:40.216Z</time></trkpt><trkpt lat="46.3687131" lon="13.0329845"><ele>284.2</ele><time>2026-04-19T06:47:41.216Z</time></trkpt><trkpt lat="46.3688088" lon="13.0329455"><ele>284.0</ele><time>2026-04-19T06:47:42.214Z</time></trkpt><trkpt lat="46.3689194" lon="13.0329061"><ele>285.0</ele><time>2026-04-19T06:47:43.215Z</time></trkpt><trkpt lat="46.3690488" lon="13.0328611"><ele>286.0</ele><time>2026-04-19T06:47:44.215Z</time></trkpt><trkpt lat="46.3691857" lon="13.0328121"><ele>287.0</ele><time>2026-04-19T06:47:45.215Z</time></trkpt><trkpt lat="46.3693334" lon="13.0327601"><ele>288.0</ele><time>2026-04-19T06:47:46.214Z</time></trkpt><trkpt lat="46.3694881" lon="13.0327047"><ele>288.0</ele><time>2026-04-19T06:47:47.215Z</time></trkpt><trkpt lat="46.3696408" lon="13.0326459"><ele>288.0</ele><time>2026-04-19T06:47:48.215Z</time></trkpt><trkpt lat="46.369782" lon="13.0325742"><ele>288.0</ele><time>2026-04-19T06:47:49.215Z</time></trkpt><trkpt lat="46.3699152" lon="13.0324715"><ele>288.3333333333333</ele><time>2026-04-19T06:47:50.215Z</time></trkpt><trkpt lat="46.370044" lon="13.0323449"><ele>288.66666666666663</ele><time>2026-04-19T06:47:51.215Z</time></trkpt><trkpt lat="46.3701586" lon="13.0321946"><ele>289.0</ele><time>2026-04-19T06:47:52.216Z</time></trkpt><trkpt lat="46.37027" lon="13.0320388"><ele>289.0</ele><time>2026-04-19T06:47:53.215Z</time></trkpt><trkpt lat="46.3703907" lon="13.0318859"><ele>289.0</ele><time>2026-04-19T06:47:54.215Z</time></trkpt><trkpt lat="46.3705277" lon="13.031772"><ele>289.0</ele><time>2026-04-19T06:47:55.215Z</time></trkpt><trkpt lat="46.3706752" lon="13.0316805"><ele>287.66666666666663</ele><time>2026-04-19T06:47:56.214Z</time></trkpt><trkpt lat="46.3708276" lon="13.0315905"><ele>286.3333333333333</ele><time>2026-04-19T06:47:57.215Z</time></trkpt><trkpt lat="46.3709846" lon="13.0315028"><ele>285.0</ele><time>2026-04-19T06:47:58.215Z</time></trkpt><trkpt lat="46.3711442" lon="13.0314144"><ele>285.0</ele><time>2026-04-19T06:47:59.214Z</time></trkpt><trkpt lat="46.3713103" lon="13.0313228"><ele>285.0</ele><time>2026-04-19T06:48:00.215Z</time></trkpt><trkpt lat="46.3714831" lon="13.0312266"><ele>285.0</ele><time>2026-04-19T06:48:01.214Z</time></trkpt><trkpt lat="46.3716551" lon="13.0311241"><ele>285.0</ele><time>2026-04-19T06:48:02.215Z</time></trkpt><trkpt lat="46.3718328" lon="13.0310306"><ele>285.0</ele><time>2026-04-19T06:48:03.214Z</time></trkpt><trkpt lat="46.3720115" lon="13.0309325"><ele>285.0</ele><time>2026-04-19T06:48:04.215Z</time></trkpt><trkpt lat="46.3721895" lon="13.0308288"><ele>285.3333333333333</ele><time>2026-04-19T06:48:05.215Z</time></trkpt><trkpt lat="46.3723704" lon="13.0307256"><ele>285.66666666666663</ele><time>2026-04-19T06:48:06.214Z</time></trkpt><trkpt lat="46.3725512" lon="13.0306252"><ele>286.0</ele><time>2026-04-19T06:48:07.214Z</time></trkpt><trkpt lat="46.3727322" lon="13.0305255"><ele>286.0</ele><time>2026-04-19T06:48:08.215Z</time></trkpt><trkpt lat="46.3729137" lon="13.030425"><ele>286.0</ele><time>2026-04-19T06:48:09.215Z</time></trkpt><trkpt lat="46.3730906" lon="13.0303278"><ele>286.0</ele><time>2026-04-19T06:48:10.215Z</time></trkpt><trkpt lat="46.3732639" lon="13.0302337"><ele>287.66666666666663</ele><time>2026-04-19T06:48:11.215Z</time></trkpt><trkpt lat="46.3734331" lon="13.0301553"><ele>289.3333333333333</ele><time>2026-04-19T06:48:12.216Z</time></trkpt><trkpt lat="46.3735988" lon="13.0300882"><ele>291.0</ele><time>2026-04-19T06:48:13.214Z</time></trkpt><trkpt lat="46.3737692" lon="13.0300407"><ele>291.3333333333333</ele><time>2026-04-19T06:48:14.215Z</time></trkpt><trkpt lat="46.3739426" lon="13.030006"><ele>291.66666666666663</ele><time>2026-04-19T06:48:15.215Z</time></trkpt><trkpt lat="46.3741176" lon="13.029981"><ele>292.0</ele><time>2026-04-19T06:48:16.215Z</time></trkpt><trkpt lat="46.3742945" lon="13.0299559"><ele>292.0</ele><time>2026-04-19T06:48:17.215Z</time></trkpt><trkpt lat="46.3744685" lon="13.0299318"><ele>292.0</ele><time>2026-04-19T06:48:18.215Z</time></trkpt><trkpt lat="46.3746489" lon="13.029903"><ele>292.0</ele><time>2026-04-19T06:48:19.215Z</time></trkpt><trkpt lat="46.3748212" lon="13.0298842"><ele>293.0</ele><time>2026-04-19T06:48:20.214Z</time></trkpt><trkpt lat="46.3749935" lon="13.0298636"><ele>294.0</ele><time>2026-04-19T06:48:21.215Z</time></trkpt><trkpt lat="46.37517" lon="13.0298421"><ele>295.0</ele><time>2026-04-19T06:48:22.215Z</time></trkpt><trkpt lat="46.3753475" lon="13.0298243"><ele>294.66666666666663</ele><time>2026-04-19T06:48:23.215Z</time></trkpt><trkpt lat="46.3755283" lon="13.0298104"><ele>294.3333333333333</ele><time>2026-04-19T06:48:24.215Z</time></trkpt><trkpt lat="46.3757041" lon="13.029799"><ele>294.0</ele><time>2026-04-19T06:48:25.215Z</time></trkpt><trkpt lat="46.3758798" lon="13.029791"><ele>294.0</ele><time>2026-04-19T06:48:26.215Z</time></trkpt><trkpt lat="46.3760574" lon="13.0297795"><ele>294.0</ele><time>2026-04-19T06:48:27.215Z</time></trkpt><trkpt lat="46.376234" lon="13.0297703"><ele>294.0</ele><time>2026-04-19T06:48:28.215Z</time></trkpt><trkpt lat="46.3764118" lon="13.0297557"><ele>292.3333333333333</ele><time>2026-04-19T06:48:29.214Z</time></trkpt><trkpt lat="46.3765867" lon="13.0297435"><ele>290.66666666666663</ele><time>2026-04-19T06:48:30.215Z</time></trkpt><trkpt lat="46.3767557" lon="13.0297304"><ele>289.0</ele><time>2026-04-19T06:48:31.215Z</time></trkpt><trkpt lat="46.3769135" lon="13.0297075"><ele>289.0</ele><time>2026-04-19T06:48:32.215Z</time></trkpt><trkpt lat="46.3770618" lon="13.0296577"><ele>289.0</ele><time>2026-04-19T06:48:33.215Z</time></trkpt><trkpt lat="46.3772077" lon="13.0295825"><ele>289.0</ele><time>2026-04-19T06:48:34.214Z</time></trkpt><trkpt lat="46.3773547" lon="13.0294919"><ele>291.66666666666663</ele><time>2026-04-19T06:48:35.215Z</time></trkpt><trkpt lat="46.3775015" lon="13.0293916"><ele>294.3333333333333</ele><time>2026-04-19T06:48:36.215Z</time></trkpt><trkpt lat="46.3776565" lon="13.0292883"><ele>297.0</ele><time>2026-04-19T06:48:37.215Z</time></trkpt><trkpt lat="46.37781" lon="13.0291915"><ele>297.0</ele><time>2026-04-19T06:48:38.215Z</time></trkpt><trkpt lat="46.3779625" lon="13.0290974"><ele>297.0</ele><time>2026-04-19T06:48:39.215Z</time></trkpt><trkpt lat="46.3781073" lon="13.029004"><ele>297.0</ele><time>2026-04-19T06:48:40.216Z</time></trkpt><trkpt lat="46.378242" lon="13.0289042"><ele>297.0</ele><time>2026-04-19T06:48:41.215Z</time></trkpt><trkpt lat="46.3783582" lon="13.0287917"><ele>297.0</ele><time>2026-04-19T06:48:42.215Z</time></trkpt><trkpt lat="46.3784286" lon="13.0286244"><ele>297.0</ele><time>2026-04-19T06:48:43.216Z</time></trkpt><trkpt lat="46.3784955" lon="13.0284643"><ele>297.0</ele><time>2026-04-19T06:48:44.214Z</time></trkpt><trkpt lat="46.3785317" lon="13.0282615"><ele>296.75</ele><time>2026-04-19T06:48:45.215Z</time></trkpt><trkpt lat="46.3785689" lon="13.0280661"><ele>296.5</ele><time>2026-04-19T06:48:46.215Z</time></trkpt><trkpt lat="46.3786052" lon="13.0278663"><ele>296.25</ele><time>2026-04-19T06:48:47.214Z</time></trkpt><trkpt lat="46.3786404" lon="13.0276678"><ele>296.0</ele><time>2026-04-19T06:48:48.215Z</time></trkpt><trkpt lat="46.3786827" lon="13.0274839"><ele>297.25</ele><time>2026-04-19T06:48:49.216Z</time></trkpt><trkpt lat="46.378736" lon="13.0273067"><ele>298.5</ele><time>2026-04-19T06:48:50.214Z</time></trkpt><trkpt lat="46.3788109" lon="13.0271418"><ele>299.75</ele><time>2026-04-19T06:48:51.216Z</time></trkpt><trkpt lat="46.3788998" lon="13.0269706"><ele>301.0</ele><time>2026-04-19T06:48:52.214Z</time></trkpt><trkpt lat="46.3790049" lon="13.0268084"><ele>302.5</ele><time>2026-04-19T06:48:53.216Z</time></trkpt><trkpt lat="46.37911" lon="13.026642"><ele>304.0</ele><time>2026-04-19T06:48:54.214Z</time></trkpt><trkpt lat="46.3792191" lon="13.0264988"><ele>305.5</ele><time>2026-04-19T06:48:55.215Z</time></trkpt><trkpt lat="46.3793325" lon="13.0263833"><ele>307.0</ele><time>2026-04-19T06:48:56.214Z</time></trkpt><trkpt lat="46.3794364" lon="13.0262987"><ele>307.0</ele><time>2026-04-19T06:48:57.215Z</time></trkpt><trkpt lat="46.3795226" lon="13.0262107"><ele>307.0</ele><time>2026-04-19T06:48:58.214Z</time></trkpt><trkpt lat="46.3795923" lon="13.0261117"><ele>307.0</ele><time>2026-04-19T06:48:59.215Z</time></trkpt><trkpt lat="46.3796238" lon="13.0259747"><ele>307.0</ele><time>2026-04-19T06:49:00.216Z</time></trkpt><trkpt lat="46.3796277" lon="13.0258302"><ele>307.0</ele><time>2026-04-19T06:49:01.215Z</time></trkpt><trkpt lat="46.3796275" lon="13.0256692"><ele>309.6</ele><time>2026-04-19T06:49:02.215Z</time></trkpt><trkpt lat="46.379615" lon="13.0255042"><ele>312.2</ele><time>2026-04-19T06:49:03.213Z</time></trkpt><trkpt lat="46.3796054" lon="13.0253409"><ele>314.8</ele><time>2026-04-19T06:49:04.214Z</time></trkpt><trkpt lat="46.3796055" lon="13.025179"><ele>317.4</ele><time>2026-04-19T06:49:05.214Z</time></trkpt><trkpt lat="46.3796168" lon="13.0250209"><ele>320.0</ele><time>2026-04-19T06:49:06.213Z</time></trkpt><trkpt lat="46.3796365" lon="13.0248689"><ele>319.8</ele><time>2026-04-19T06:49:07.213Z</time></trkpt><trkpt lat="46.3796577" lon="13.0247141"><ele>319.6</ele><time>2026-04-19T06:49:08.214Z</time></trkpt><trkpt lat="46.3796866" lon="13.0245726"><ele>319.4</ele><time>2026-04-19T06:49:09.214Z</time></trkpt><trkpt lat="46.3797365" lon="13.0244362"><ele>319.2</ele><time>2026-04-19T06:49:10.214Z</time></trkpt><trkpt lat="46.3797754" lon="13.0242915"><ele>319.0</ele><time>2026-04-19T06:49:11.213Z</time></trkpt><trkpt lat="46.3798119" lon="13.0241563"><ele>321.0</ele><time>2026-04-19T06:49:12.214Z</time></trkpt><trkpt lat="46.3798478" lon="13.0240173"><ele>323.0</ele><time>2026-04-19T06:49:13.214Z</time></trkpt><trkpt lat="46.3798844" lon="13.0238782"><ele>325.0</ele><time>2026-04-19T06:49:14.214Z</time></trkpt><trkpt lat="46.3799218" lon="13.0237377"><ele>327.0</ele><time>2026-04-19T06:49:15.214Z</time></trkpt><trkpt lat="46.3799586" lon="13.0235994"><ele>329.0</ele><time>2026-04-19T06:49:16.214Z</time></trkpt><trkpt lat="46.3799991" lon="13.0234581"><ele>329.0</ele><time>2026-04-19T06:49:17.214Z</time></trkpt><trkpt lat="46.380038" lon="13.0233151"><ele>329.0</ele><time>2026-04-19T06:49:18.214Z</time></trkpt><trkpt lat="46.3800833" lon="13.0231667"><ele>329.0</ele><time>2026-04-19T06:49:19.214Z</time></trkpt><trkpt lat="46.3801394" lon="13.023023"><ele>329.0</ele><time>2026-04-19T06:49:20.214Z</time></trkpt><trkpt lat="46.3802111" lon="13.0228887"><ele>329.0</ele><time>2026-04-19T06:49:21.214Z</time></trkpt><trkpt lat="46.3802969" lon="13.0227665"><ele>330.5</ele><time>2026-04-19T06:49:22.213Z</time></trkpt><trkpt lat="46.3803998" lon="13.022667"><ele>332.0</ele><time>2026-04-19T06:49:23.213Z</time></trkpt><trkpt lat="46.3805082" lon="13.0225709"><ele>333.5</ele><time>2026-04-19T06:49:24.215Z</time></trkpt><trkpt lat="46.3806243" lon="13.022468"><ele>335.0</ele><time>2026-04-19T06:49:25.214Z</time></trkpt><trkpt lat="46.3807325" lon="13.0223477"><ele>335.0</ele><time>2026-04-19T06:49:26.215Z</time></trkpt><trkpt lat="46.3808384" lon="13.0222164"><ele>335.0</ele><time>2026-04-19T06:49:27.215Z</time></trkpt><trkpt lat="46.3809363" lon="13.0220711"><ele>335.0</ele><time>2026-04-19T06:49:28.214Z</time></trkpt><trkpt lat="46.3810328" lon="13.0219194"><ele>335.0</ele><time>2026-04-19T06:49:29.214Z</time></trkpt><trkpt lat="46.3811286" lon="13.0217732"><ele>334.6</ele><time>2026-04-19T06:49:30.214Z</time></trkpt><trkpt lat="46.3812113" lon="13.0216359"><ele>334.2</ele><time>2026-04-19T06:49:31.215Z</time></trkpt><trkpt lat="46.3812902" lon="13.0215042"><ele>333.79999999999995</ele><time>2026-04-19T06:49:32.214Z</time></trkpt><trkpt lat="46.3813456" lon="13.0213731"><ele>333.4</ele><time>2026-04-19T06:49:33.214Z</time></trkpt><trkpt lat="46.3813767" lon="13.0212414"><ele>333.0</ele><time>2026-04-19T06:49:34.214Z</time></trkpt><trkpt lat="46.3813873" lon="13.0211037"><ele>333.0</ele><time>2026-04-19T06:49:35.214Z</time></trkpt><trkpt lat="46.3813679" lon="13.0209719"><ele>333.0</ele><time>2026-04-19T06:49:36.214Z</time></trkpt><trkpt lat="46.3813265" lon="13.0208461"><ele>333.0</ele><time>2026-04-19T06:49:37.214Z</time></trkpt><trkpt lat="46.3812611" lon="13.0207286"><ele>333.0</ele><time>2026-04-19T06:49:38.215Z</time></trkpt><trkpt lat="46.38118" lon="13.0206235"><ele>333.0</ele><time>2026-04-19T06:49:39.213Z</time></trkpt><trkpt lat="46.3810877" lon="13.0205222"><ele>331.0</ele><time>2026-04-19T06:49:40.213Z</time></trkpt><trkpt lat="46.3809989" lon="13.0204241"><ele>329.0</ele><time>2026-04-19T06:49:41.214Z</time></trkpt><trkpt lat="46.3809196" lon="13.0203172"><ele>327.0</ele><time>2026-04-19T06:49:42.214Z</time></trkpt><trkpt lat="46.380858" lon="13.0201951"><ele>325.0</ele><time>2026-04-19T06:49:43.214Z</time></trkpt><trkpt lat="46.3808171" lon="13.0200558"><ele>323.0</ele><time>2026-04-19T06:49:44.214Z</time></trkpt><trkpt lat="46.3807981" lon="13.0199076"><ele>323.0</ele><time>2026-04-19T06:49:45.213Z</time></trkpt><trkpt lat="46.3808022" lon="13.0197562"><ele>323.0</ele><time>2026-04-19T06:49:46.213Z</time></trkpt><trkpt lat="46.3808335" lon="13.0196035"><ele>323.0</ele><time>2026-04-19T06:49:47.214Z</time></trkpt><trkpt lat="46.3808765" lon="13.0194451"><ele>323.0</ele><time>2026-04-19T06:49:48.213Z</time></trkpt><trkpt lat="46.3809212" lon="13.0192847"><ele>321.75</ele><time>2026-04-19T06:49:49.213Z</time></trkpt><trkpt lat="46.3809718" lon="13.0191171"><ele>320.5</ele><time>2026-04-19T06:49:50.214Z</time></trkpt><trkpt lat="46.3810268" lon="13.0189486"><ele>319.25</ele><time>2026-04-19T06:49:51.214Z</time></trkpt><trkpt lat="46.3810868" lon="13.0187775"><ele>318.0</ele><time>2026-04-19T06:49:52.214Z</time></trkpt><trkpt lat="46.3811629" lon="13.0186145"><ele>318.0</ele><time>2026-04-19T06:49:53.214Z</time></trkpt><trkpt lat="46.3812595" lon="13.0184606"><ele>318.0</ele><time>2026-04-19T06:49:54.214Z</time></trkpt><trkpt lat="46.3813704" lon="13.0183257"><ele>318.0</ele><time>2026-04-19T06:49:55.214Z</time></trkpt><trkpt lat="46.3814892" lon="13.0181986"><ele>318.0</ele><time>2026-04-19T06:49:56.213Z</time></trkpt><trkpt lat="46.3816135" lon="13.01807"><ele>313.6666666666667</ele><time>2026-04-19T06:49:57.213Z</time></trkpt><trkpt lat="46.3817365" lon="13.0179329"><ele>309.33333333333337</ele><time>2026-04-19T06:49:58.214Z</time></trkpt><trkpt lat="46.3818636" lon="13.0178025"><ele>305.0</ele><time>2026-04-19T06:49:59.214Z</time></trkpt><trkpt lat="46.3819904" lon="13.0176662"><ele>305.0</ele><time>2026-04-19T06:50:00.214Z</time></trkpt><trkpt lat="46.3821193" lon="13.0175254"><ele>305.0</ele><time>2026-04-19T06:50:01.214Z</time></trkpt><trkpt lat="46.3822494" lon="13.0173883"><ele>305.0</ele><time>2026-04-19T06:50:02.214Z</time></trkpt><trkpt lat="46.3823844" lon="13.0172496"><ele>305.33333333333337</ele><time>2026-04-19T06:50:03.215Z</time></trkpt><trkpt lat="46.3825162" lon="13.0171144"><ele>305.6666666666667</ele><time>2026-04-19T06:50:04.214Z</time></trkpt><trkpt lat="46.3826581" lon="13.0169958"><ele>306.0</ele><time>2026-04-19T06:50:05.213Z</time></trkpt><trkpt lat="46.3828026" lon="13.0168943"><ele>306.0</ele><time>2026-04-19T06:50:06.213Z</time></trkpt><trkpt lat="46.3829476" lon="13.0167995"><ele>306.0</ele><time>2026-04-19T06:50:07.214Z</time></trkpt><trkpt lat="46.3830904" lon="13.0166919"><ele>306.0</ele><time>2026-04-19T06:50:08.214Z</time></trkpt><trkpt lat="46.3832275" lon="13.0165668"><ele>311.0</ele><time>2026-04-19T06:50:09.213Z</time></trkpt><trkpt lat="46.3833528" lon="13.0164249"><ele>316.0</ele><time>2026-04-19T06:50:10.214Z</time></trkpt><trkpt lat="46.3834723" lon="13.0162723"><ele>321.0</ele><time>2026-04-19T06:50:11.214Z</time></trkpt><trkpt lat="46.3835851" lon="13.016111"><ele>321.0</ele><time>2026-04-19T06:50:12.213Z</time></trkpt><trkpt lat="46.3836913" lon="13.0159458"><ele>321.0</ele><time>2026-04-19T06:50:13.215Z</time></trkpt><trkpt lat="46.3837905" lon="13.0157735"><ele>321.0</ele><time>2026-04-19T06:50:14.214Z</time></trkpt><trkpt lat="46.3838803" lon="13.0155978"><ele>320.75</ele><time>2026-04-19T06:50:15.213Z</time></trkpt><trkpt lat="46.3839623" lon="13.0154142"><ele>320.5</ele><time>2026-04-19T06:50:16.215Z</time></trkpt><trkpt lat="46.3840359" lon="13.0152254"><ele>320.25</ele><time>2026-04-19T06:50:17.215Z</time></trkpt><trkpt lat="46.3841004" lon="13.0150323"><ele>320.0</ele><time>2026-04-19T06:50:18.214Z</time></trkpt><trkpt lat="46.3841596" lon="13.014832"><ele>320.0</ele><time>2026-04-19T06:50:19.214Z</time></trkpt><trkpt lat="46.3842041" lon="13.0146285"><ele>320.0</ele><time>2026-04-19T06:50:20.214Z</time></trkpt><trkpt lat="46.3842412" lon="13.014424"><ele>320.0</ele><time>2026-04-19T06:50:21.213Z</time></trkpt><trkpt lat="46.3842693" lon="13.014217"><ele>320.0</ele><time>2026-04-19T06:50:22.214Z</time></trkpt><trkpt lat="46.3842889" lon="13.0140076"><ele>321.25</ele><time>2026-04-19T06:50:23.214Z</time></trkpt><trkpt lat="46.3842997" lon="13.0137999"><ele>322.5</ele><time>2026-04-19T06:50:24.214Z</time></trkpt><trkpt lat="46.3843032" lon="13.0135985"><ele>323.75</ele><time>2026-04-19T06:50:25.213Z</time></trkpt><trkpt lat="46.3843116" lon="13.0134064"><ele>325.0</ele><time>2026-04-19T06:50:26.214Z</time></trkpt><trkpt lat="46.3843334" lon="13.0132288"><ele>326.0</ele><time>2026-04-19T06:50:27.214Z</time></trkpt><trkpt lat="46.3843729" lon="13.0130567"><ele>327.0</ele><time>2026-04-19T06:50:28.214Z</time></trkpt><trkpt lat="46.3844321" lon="13.0128849"><ele>328.0</ele><time>2026-04-19T06:50:29.213Z</time></trkpt><trkpt lat="46.3845049" lon="13.0127136"><ele>329.0</ele><time>2026-04-19T06:50:30.213Z</time></trkpt><trkpt lat="46.3845855" lon="13.0125383"><ele>331.6666666666667</ele><time>2026-04-19T06:50:31.214Z</time></trkpt><trkpt lat="46.3846701" lon="13.0123602"><ele>334.3333333333333</ele><time>2026-04-19T06:50:32.214Z</time></trkpt><trkpt lat="46.3847567" lon="13.0121813"><ele>337.0</ele><time>2026-04-19T06:50:33.214Z</time></trkpt><trkpt lat="46.3848424" lon="13.0120019"><ele>330.25</ele><time>2026-04-19T06:50:34.214Z</time></trkpt><trkpt lat="46.3849355" lon="13.0118238"><ele>323.5</ele><time>2026-04-19T06:50:35.214Z</time></trkpt><trkpt lat="46.3850378" lon="13.0116611"><ele>316.75</ele><time>2026-04-19T06:50:36.214Z</time></trkpt><trkpt lat="46.3851486" lon="13.0115296"><ele>310.0</ele><time>2026-04-19T06:50:37.214Z</time></trkpt><trkpt lat="46.385265" lon="13.0114333"><ele>310.0</ele><time>2026-04-19T06:50:38.215Z</time></trkpt><trkpt lat="46.3853929" lon="13.0113729"><ele>310.0</ele><time>2026-04-19T06:50:39.215Z</time></trkpt><trkpt lat="46.3855309" lon="13.0113445"><ele>310.0</ele><time>2026-04-19T06:50:40.214Z</time></trkpt><trkpt lat="46.3856731" lon="13.0113512"><ele>310.0</ele><time>2026-04-19T06:50:41.214Z</time></trkpt><trkpt lat="46.385818" lon="13.0113863"><ele>309.3333333333333</ele><time>2026-04-19T06:50:42.214Z</time></trkpt><trkpt lat="46.3859604" lon="13.0114384"><ele>308.6666666666667</ele><time>2026-04-19T06:50:43.213Z</time></trkpt><trkpt lat="46.3861072" lon="13.0114875"><ele>308.0</ele><time>2026-04-19T06:50:44.213Z</time></trkpt><trkpt lat="46.3862568" lon="13.0115337"><ele>311.6666666666667</ele><time>2026-04-19T06:50:45.214Z</time></trkpt><trkpt lat="46.3864067" lon="13.0115816"><ele>315.3333333333333</ele><time>2026-04-19T06:50:46.213Z</time></trkpt><trkpt lat="46.3865564" lon="13.0116236"><ele>319.0</ele><time>2026-04-19T06:50:47.213Z</time></trkpt><trkpt lat="46.3867067" lon="13.0116463"><ele>319.0</ele><time>2026-04-19T06:50:48.215Z</time></trkpt><trkpt lat="46.3868604" lon="13.011643"><ele>319.0</ele><time>2026-04-19T06:50:49.214Z</time></trkpt><trkpt lat="46.3870164" lon="13.0116129"><ele>319.0</ele><time>2026-04-19T06:50:50.215Z</time></trkpt><trkpt lat="46.3871738" lon="13.011578"><ele>315.3333333333333</ele><time>2026-04-19T06:50:51.214Z</time></trkpt><trkpt lat="46.3873279" lon="13.0115393"><ele>311.6666666666667</ele><time>2026-04-19T06:50:52.213Z</time></trkpt><trkpt lat="46.38748" lon="13.0115004"><ele>308.0</ele><time>2026-04-19T06:50:53.214Z</time></trkpt><trkpt lat="46.3876335" lon="13.0114573"><ele>308.0</ele><time>2026-04-19T06:50:54.214Z</time></trkpt><trkpt lat="46.3877836" lon="13.011409"><ele>308.0</ele><time>2026-04-19T06:50:55.214Z</time></trkpt><trkpt lat="46.3879189" lon="13.0113602"><ele>308.0</ele><time>2026-04-19T06:50:56.214Z</time></trkpt><trkpt lat="46.3880447" lon="13.0113015"><ele>308.0</ele><time>2026-04-19T06:50:57.214Z</time></trkpt><trkpt lat="46.3881486" lon="13.011248"><ele>307.4</ele><time>2026-04-19T06:50:58.213Z</time></trkpt><trkpt lat="46.388238" lon="13.0112091"><ele>306.8</ele><time>2026-04-19T06:50:59.214Z</time></trkpt><trkpt lat="46.3883287" lon="13.0111969"><ele>306.2</ele><time>2026-04-19T06:51:00.213Z</time></trkpt><trkpt lat="46.3884243" lon="13.0112044"><ele>305.6</ele><time>2026-04-19T06:51:01.214Z</time></trkpt><trkpt lat="46.3885227" lon="13.0112248"><ele>305.0</ele><time>2026-04-19T06:51:02.214Z</time></trkpt><trkpt lat="46.3886191" lon="13.0112734"><ele>305.0</ele><time>2026-04-19T06:51:03.215Z</time></trkpt><trkpt lat="46.3887183" lon="13.0113505"><ele>305.0</ele><time>2026-04-19T06:51:04.214Z</time></trkpt><trkpt lat="46.3888251" lon="13.0114466"><ele>305.0</ele><time>2026-04-19T06:51:05.214Z</time></trkpt><trkpt lat="46.3889431" lon="13.0115512"><ele>305.0</ele><time>2026-04-19T06:51:06.214Z</time></trkpt><trkpt lat="46.3890644" lon="13.0116604"><ele>302.6666666666667</ele><time>2026-04-19T06:51:07.214Z</time></trkpt><trkpt lat="46.3891868" lon="13.0117699"><ele>300.3333333333333</ele><time>2026-04-19T06:51:08.215Z</time></trkpt><trkpt lat="46.389315" lon="13.0118888"><ele>298.0</ele><time>2026-04-19T06:51:09.214Z</time></trkpt><trkpt lat="46.3894461" lon="13.0120052"><ele>298.0</ele><time>2026-04-19T06:51:10.214Z</time></trkpt><trkpt lat="46.3895789" lon="13.0121264"><ele>298.0</ele><time>2026-04-19T06:51:11.215Z</time></trkpt><trkpt lat="46.3897161" lon="13.0122487"><ele>298.0</ele><time>2026-04-19T06:51:12.213Z</time></trkpt><trkpt lat="46.3898551" lon="13.0123732"><ele>299.0</ele><time>2026-04-19T06:51:13.213Z</time></trkpt><trkpt lat="46.3899972" lon="13.0125013"><ele>300.0</ele><time>2026-04-19T06:51:14.213Z</time></trkpt><trkpt lat="46.3901402" lon="13.0126329"><ele>301.0</ele><time>2026-04-19T06:51:15.212Z</time></trkpt><trkpt lat="46.3902843" lon="13.0127621"><ele>301.0</ele><time>2026-04-19T06:51:16.212Z</time></trkpt><trkpt lat="46.390431" lon="13.012892"><ele>301.0</ele><time>2026-04-19T06:51:17.212Z</time></trkpt><trkpt lat="46.3905771" lon="13.0130238"><ele>301.0</ele><time>2026-04-19T06:51:18.214Z</time></trkpt><trkpt lat="46.3907223" lon="13.0131541"><ele>300.3333333333333</ele><time>2026-04-19T06:51:19.213Z</time></trkpt><trkpt lat="46.3908651" lon="13.013288"><ele>299.6666666666667</ele><time>2026-04-19T06:51:20.213Z</time></trkpt><trkpt lat="46.3910073" lon="13.0134214"><ele>299.0</ele><time>2026-04-19T06:51:21.214Z</time></trkpt><trkpt lat="46.3911461" lon="13.0135537"><ele>299.0</ele><time>2026-04-19T06:51:22.213Z</time></trkpt><trkpt lat="46.3912875" lon="13.0136815"><ele>299.0</ele><time>2026-04-19T06:51:23.213Z</time></trkpt><trkpt lat="46.3914269" lon="13.0138066"><ele>299.0</ele><time>2026-04-19T06:51:24.213Z</time></trkpt><trkpt lat="46.3915672" lon="13.0139321"><ele>298.6666666666667</ele><time>2026-04-19T06:51:25.213Z</time></trkpt><trkpt lat="46.3917054" lon="13.0140562"><ele>298.3333333333333</ele><time>2026-04-19T06:51:26.213Z</time></trkpt><trkpt lat="46.3918449" lon="13.0141705"><ele>298.0</ele><time>2026-04-19T06:51:27.212Z</time></trkpt><trkpt lat="46.3919861" lon="13.0142745"><ele>299.0</ele><time>2026-04-19T06:51:28.214Z</time></trkpt><trkpt lat="46.3921284" lon="13.0143545"><ele>300.0</ele><time>2026-04-19T06:51:29.213Z</time></trkpt><trkpt lat="46.3922749" lon="13.0144197"><ele>301.0</ele><time>2026-04-19T06:51:30.214Z</time></trkpt><trkpt lat="46.3924165" lon="13.0144778"><ele>301.75</ele><time>2026-04-19T06:51:31.213Z</time></trkpt><trkpt lat="46.3925519" lon="13.0145306"><ele>302.5</ele><time>2026-04-19T06:51:32.213Z</time></trkpt><trkpt lat="46.3926835" lon="13.0145771"><ele>303.25</ele><time>2026-04-19T06:51:33.213Z</time></trkpt><trkpt lat="46.3928193" lon="13.0146076"><ele>304.0</ele><time>2026-04-19T06:51:34.213Z</time></trkpt><trkpt lat="46.3929541" lon="13.0146122"><ele>304.75</ele><time>2026-04-19T06:51:35.212Z</time></trkpt><trkpt lat="46.3930897" lon="13.0145867"><ele>305.5</ele><time>2026-04-19T06:51:36.212Z</time></trkpt><trkpt lat="46.3932231" lon="13.0145297"><ele>306.25</ele><time>2026-04-19T06:51:37.214Z</time></trkpt><trkpt lat="46.3933503" lon="13.0144396"><ele>307.0</ele><time>2026-04-19T06:51:38.213Z</time></trkpt><trkpt lat="46.3934709" lon="13.0143171"><ele>307.0</ele><time>2026-04-19T06:51:39.213Z</time></trkpt><trkpt lat="46.3935853" lon="13.0141568"><ele>307.0</ele><time>2026-04-19T06:51:40.213Z</time></trkpt><trkpt lat="46.393701" lon="13.0139622"><ele>307.0</ele><time>2026-04-19T06:51:41.213Z</time></trkpt><trkpt lat="46.393813" lon="13.0137548"><ele>306.3333333333333</ele><time>2026-04-19T06:51:42.212Z</time></trkpt><trkpt lat="46.3939229" lon="13.0135478"><ele>305.6666666666667</ele><time>2026-04-19T06:51:43.213Z</time></trkpt><trkpt lat="46.3940337" lon="13.0133433"><ele>305.0</ele><time>2026-04-19T06:51:44.214Z</time></trkpt><trkpt lat="46.3941427" lon="13.0131379"><ele>305.0</ele><time>2026-04-19T06:51:45.213Z</time></trkpt><trkpt lat="46.3942508" lon="13.0129367"><ele>305.0</ele><time>2026-04-19T06:51:46.214Z</time></trkpt><trkpt lat="46.3943548" lon="13.0127429"><ele>305.0</ele><time>2026-04-19T06:51:47.213Z</time></trkpt><trkpt lat="46.3944593" lon="13.01255"><ele>304.6666666666667</ele><time>2026-04-19T06:51:48.213Z</time></trkpt><trkpt lat="46.3945598" lon="13.0123517"><ele>304.3333333333333</ele><time>2026-04-19T06:51:49.214Z</time></trkpt><trkpt lat="46.3946617" lon="13.0121627"><ele>304.0</ele><time>2026-04-19T06:51:50.212Z</time></trkpt><trkpt lat="46.3947593" lon="13.0119718"><ele>304.66666666666663</ele><time>2026-04-19T06:51:51.213Z</time></trkpt><trkpt lat="46.3948571" lon="13.0117892"><ele>305.3333333333333</ele><time>2026-04-19T06:51:52.213Z</time></trkpt><trkpt lat="46.3949589" lon="13.0116059"><ele>306.0</ele><time>2026-04-19T06:51:53.213Z</time></trkpt><trkpt lat="46.3950639" lon="13.0114225"><ele>306.6666666666667</ele><time>2026-04-19T06:51:54.213Z</time></trkpt><trkpt lat="46.3951668" lon="13.0112418"><ele>307.33333333333337</ele><time>2026-04-19T06:51:55.213Z</time></trkpt><trkpt lat="46.3952721" lon="13.0110616"><ele>308.0</ele><time>2026-04-19T06:51:56.212Z</time></trkpt><trkpt lat="46.3953855" lon="13.0108811"><ele>308.0</ele><time>2026-04-19T06:51:57.212Z</time></trkpt><trkpt lat="46.3955019" lon="13.0107027"><ele>308.0</ele><time>2026-04-19T06:51:58.213Z</time></trkpt><trkpt lat="46.3956187" lon="13.0105384"><ele>308.0</ele><time>2026-04-19T06:51:59.214Z</time></trkpt><trkpt lat="46.3957361" lon="13.010385"><ele>308.0</ele><time>2026-04-19T06:52:00.213Z</time></trkpt><trkpt lat="46.3958567" lon="13.0102447"><ele>308.0</ele><time>2026-04-19T06:52:01.213Z</time></trkpt><trkpt lat="46.3959829" lon="13.0101067"><ele>308.0</ele><time>2026-04-19T06:52:02.212Z</time></trkpt><trkpt lat="46.396114" lon="13.0099854"><ele>308.0</ele><time>2026-04-19T06:52:03.214Z</time></trkpt><trkpt lat="46.396247" lon="13.0098667"><ele>308.0</ele><time>2026-04-19T06:52:04.213Z</time></trkpt><trkpt lat="46.3963756" lon="13.0097525"><ele>308.0</ele><time>2026-04-19T06:52:05.212Z</time></trkpt><trkpt lat="46.3964989" lon="13.0096453"><ele>308.0</ele><time>2026-04-19T06:52:06.212Z</time></trkpt><trkpt lat="46.3966192" lon="13.009541"><ele>308.0</ele><time>2026-04-19T06:52:07.212Z</time></trkpt><trkpt lat="46.3967296" lon="13.0094459"><ele>308.0</ele><time>2026-04-19T06:52:08.213Z</time></trkpt><trkpt lat="46.3968403" lon="13.0093549"><ele>308.0</ele><time>2026-04-19T06:52:09.213Z</time></trkpt><trkpt lat="46.3969477" lon="13.0092547"><ele>308.0</ele><time>2026-04-19T06:52:10.213Z</time></trkpt><trkpt lat="46.3970551" lon="13.0091558"><ele>308.0</ele><time>2026-04-19T06:52:11.213Z</time></trkpt><trkpt lat="46.3971644" lon="13.0090592"><ele>308.0</ele><time>2026-04-19T06:52:12.214Z</time></trkpt><trkpt lat="46.3972758" lon="13.008963"><ele>308.0</ele><time>2026-04-19T06:52:13.214Z</time></trkpt><trkpt lat="46.3973859" lon="13.0088669"><ele>308.5</ele><time>2026-04-19T06:52:14.213Z</time></trkpt><trkpt lat="46.3974963" lon="13.0087761"><ele>309.0</ele><time>2026-04-19T06:52:15.213Z</time></trkpt><trkpt lat="46.3976036" lon="13.0086751"><ele>309.5</ele><time>2026-04-19T06:52:16.213Z</time></trkpt><trkpt lat="46.3977145" lon="13.0085771"><ele>310.0</ele><time>2026-04-19T06:52:17.214Z</time></trkpt><trkpt lat="46.397829" lon="13.0084802"><ele>310.0</ele><time>2026-04-19T06:52:18.213Z</time></trkpt><trkpt lat="46.397944" lon="13.0083831"><ele>310.0</ele><time>2026-04-19T06:52:19.213Z</time></trkpt><trkpt lat="46.3980592" lon="13.0082882"><ele>310.0</ele><time>2026-04-19T06:52:20.213Z</time></trkpt><trkpt lat="46.3981747" lon="13.0081875"><ele>310.0</ele><time>2026-04-19T06:52:21.213Z</time></trkpt><trkpt lat="46.3982907" lon="13.0080883"><ele>310.5</ele><time>2026-04-19T06:52:22.213Z</time></trkpt><trkpt lat="46.3984076" lon="13.0079857"><ele>311.0</ele><time>2026-04-19T06:52:23.213Z</time></trkpt><trkpt lat="46.3985267" lon="13.0078828"><ele>311.5</ele><time>2026-04-19T06:52:24.213Z</time></trkpt><trkpt lat="46.3986518" lon="13.0077794"><ele>312.0</ele><time>2026-04-19T06:52:25.213Z</time></trkpt><trkpt lat="46.3987712" lon="13.0076734"><ele>312.25</ele><time>2026-04-19T06:52:26.213Z</time></trkpt><trkpt lat="46.3988899" lon="13.0075683"><ele>312.5</ele><time>2026-04-19T06:52:27.213Z</time></trkpt><trkpt lat="46.3990129" lon="13.007457"><ele>312.75</ele><time>2026-04-19T06:52:28.213Z</time></trkpt><trkpt lat="46.3991354" lon="13.0073464"><ele>313.0</ele><time>2026-04-19T06:52:29.213Z</time></trkpt><trkpt lat="46.399257" lon="13.0072317"><ele>313.0</ele><time>2026-04-19T06:52:30.213Z</time></trkpt><trkpt lat="46.3993785" lon="13.0071192"><ele>313.0</ele><time>2026-04-19T06:52:31.212Z</time></trkpt><trkpt lat="46.3995025" lon="13.0070048"><ele>313.0</ele><time>2026-04-19T06:52:32.212Z</time></trkpt><trkpt lat="46.3996267" lon="13.0068937"><ele>313.0</ele><time>2026-04-19T06:52:33.213Z</time></trkpt><trkpt lat="46.3997506" lon="13.0067758"><ele>313.0</ele><time>2026-04-19T06:52:34.213Z</time></trkpt><trkpt lat="46.3998752" lon="13.0066594"><ele>313.0</ele><time>2026-04-19T06:52:35.212Z</time></trkpt><trkpt lat="46.3999999" lon="13.0065453"><ele>313.0</ele><time>2026-04-19T06:52:36.213Z</time></trkpt><trkpt lat="46.4001249" lon="13.0064317"><ele>313.0</ele><time>2026-04-19T06:52:37.213Z</time></trkpt><trkpt lat="46.4002519" lon="13.0063151"><ele>313.0</ele><time>2026-04-19T06:52:38.213Z</time></trkpt><trkpt lat="46.4003747" lon="13.0062031"><ele>313.0</ele><time>2026-04-19T06:52:39.213Z</time></trkpt><trkpt lat="46.4004876" lon="13.0060996"><ele>313.0</ele><time>2026-04-19T06:52:40.212Z</time></trkpt><trkpt lat="46.4005964" lon="13.0060109"><ele>313.0</ele><time>2026-04-19T06:52:41.213Z</time></trkpt><trkpt lat="46.4006985" lon="13.0059358"><ele>313.2</ele><time>2026-04-19T06:52:42.213Z</time></trkpt><trkpt lat="46.4008014" lon="13.0058822"><ele>313.4</ele><time>2026-04-19T06:52:43.213Z</time></trkpt><trkpt lat="46.400899" lon="13.0058444"><ele>313.59999999999997</ele><time>2026-04-19T06:52:44.214Z</time></trkpt><trkpt lat="46.4009869" lon="13.0058218"><ele>313.8</ele><time>2026-04-19T06:52:45.213Z</time></trkpt><trkpt lat="46.4010546" lon="13.0058104"><ele>314.0</ele><time>2026-04-19T06:52:46.213Z</time></trkpt><trkpt lat="46.4011557" lon="13.0058053"><ele>314.0</ele><time>2026-04-19T06:52:48.213Z</time></trkpt><trkpt lat="46.4012309" lon="13.0058177"><ele>314.0</ele><time>2026-04-19T06:52:50.212Z</time></trkpt><trkpt lat="46.4013078" lon="13.0058233"><ele>314.0</ele><time>2026-04-19T06:52:52.212Z</time></trkpt><trkpt lat="46.4013931" lon="13.0057829"><ele>314.0</ele><time>2026-04-19T06:52:54.213Z</time></trkpt><trkpt lat="46.4014512" lon="13.0057366"><ele>314.0</ele><time>2026-04-19T06:52:55.213Z</time></trkpt><trkpt lat="46.4015225" lon="13.0056936"><ele>314.0</ele><time>2026-04-19T06:52:56.213Z</time></trkpt><trkpt lat="46.4016097" lon="13.0056441"><ele>314.59999999999997</ele><time>2026-04-19T06:52:57.213Z</time></trkpt><trkpt lat="46.4016976" lon="13.0056019"><ele>315.2</ele><time>2026-04-19T06:52:58.213Z</time></trkpt><trkpt lat="46.4017895" lon="13.0055648"><ele>315.79999999999995</ele><time>2026-04-19T06:52:59.214Z</time></trkpt><trkpt lat="46.4018772" lon="13.0055341"><ele>316.4</ele><time>2026-04-19T06:53:00.214Z</time></trkpt><trkpt lat="46.4019665" lon="13.0055041"><ele>317.0</ele><time>2026-04-19T06:53:01.213Z</time></trkpt><trkpt lat="46.4020606" lon="13.0054754"><ele>317.5</ele><time>2026-04-19T06:53:02.213Z</time></trkpt><trkpt lat="46.402169" lon="13.0054471"><ele>318.0</ele><time>2026-04-19T06:53:03.213Z</time></trkpt><trkpt lat="46.4022796" lon="13.0054199"><ele>318.5</ele><time>2026-04-19T06:53:04.213Z</time></trkpt><trkpt lat="46.4023943" lon="13.0053933"><ele>319.0</ele><time>2026-04-19T06:53:05.214Z</time></trkpt><trkpt lat="46.4025123" lon="13.0053646"><ele>319.0</ele><time>2026-04-19T06:53:06.213Z</time></trkpt><trkpt lat="46.4026343" lon="13.0053296"><ele>319.0</ele><time>2026-04-19T06:53:07.213Z</time></trkpt><trkpt lat="46.4027607" lon="13.0052981"><ele>319.0</ele><time>2026-04-19T06:53:08.213Z</time></trkpt><trkpt lat="46.4028889" lon="13.0052569"><ele>319.0</ele><time>2026-04-19T06:53:09.213Z</time></trkpt><trkpt lat="46.4030198" lon="13.0052156"><ele>318.75</ele><time>2026-04-19T06:53:10.214Z</time></trkpt><trkpt lat="46.4031525" lon="13.0051795"><ele>318.5</ele><time>2026-04-19T06:53:11.213Z</time></trkpt><trkpt lat="46.4032875" lon="13.005143"><ele>318.25</ele><time>2026-04-19T06:53:12.213Z</time></trkpt><trkpt lat="46.4034146" lon="13.0051066"><ele>318.0</ele><time>2026-04-19T06:53:13.213Z</time></trkpt><trkpt lat="46.4035345" lon="13.0050762"><ele>318.0</ele><time>2026-04-19T06:53:14.213Z</time></trkpt><trkpt lat="46.4036485" lon="13.0050478"><ele>318.0</ele><time>2026-04-19T06:53:15.212Z</time></trkpt><trkpt lat="46.4037513" lon="13.0050238"><ele>318.0</ele><time>2026-04-19T06:53:16.212Z</time></trkpt><trkpt lat="46.4038486" lon="13.0050138"><ele>318.0</ele><time>2026-04-19T06:53:17.212Z</time></trkpt><trkpt lat="46.4039365" lon="13.0050214"><ele>318.0</ele><time>2026-04-19T06:53:18.213Z</time></trkpt><trkpt lat="46.404015" lon="13.0050577"><ele>318.2</ele><time>2026-04-19T06:53:19.214Z</time></trkpt><trkpt lat="46.4040873" lon="13.0051163"><ele>318.4</ele><time>2026-04-19T06:53:20.213Z</time></trkpt><trkpt lat="46.4041579" lon="13.0052045"><ele>318.59999999999997</ele><time>2026-04-19T06:53:21.213Z</time></trkpt><trkpt lat="46.4042246" lon="13.0053057"><ele>318.8</ele><time>2026-04-19T06:53:22.214Z</time></trkpt><trkpt lat="46.4042956" lon="13.005424"><ele>319.0</ele><time>2026-04-19T06:53:23.212Z</time></trkpt><trkpt lat="46.4043703" lon="13.0055421"><ele>319.0</ele><time>2026-04-19T06:53:24.213Z</time></trkpt><trkpt lat="46.4044382" lon="13.0056631"><ele>319.0</ele><time>2026-04-19T06:53:25.213Z</time></trkpt><trkpt lat="46.4045077" lon="13.0057786"><ele>319.0</ele><time>2026-04-19T06:53:26.213Z</time></trkpt><trkpt lat="46.4045739" lon="13.0058945"><ele>319.0</ele><time>2026-04-19T06:53:27.212Z</time></trkpt><trkpt lat="46.4046429" lon="13.0060116"><ele>319.0</ele><time>2026-04-19T06:53:28.212Z</time></trkpt><trkpt lat="46.4047132" lon="13.0061275"><ele>319.6</ele><time>2026-04-19T06:53:29.213Z</time></trkpt><trkpt lat="46.4047833" lon="13.0062463"><ele>320.2</ele><time>2026-04-19T06:53:30.212Z</time></trkpt><trkpt lat="46.4048432" lon="13.0063744"><ele>320.8</ele><time>2026-04-19T06:53:31.213Z</time></trkpt><trkpt lat="46.4048964" lon="13.0065174"><ele>321.40000000000003</ele><time>2026-04-19T06:53:32.212Z</time></trkpt><trkpt lat="46.4049438" lon="13.0066647"><ele>322.0</ele><time>2026-04-19T06:53:33.214Z</time></trkpt><trkpt lat="46.4049903" lon="13.0068222"><ele>322.0</ele><time>2026-04-19T06:53:34.213Z</time></trkpt><trkpt lat="46.4050391" lon="13.0069753"><ele>322.0</ele><time>2026-04-19T06:53:35.213Z</time></trkpt><trkpt lat="46.4050869" lon="13.0071341"><ele>322.0</ele><time>2026-04-19T06:53:36.214Z</time></trkpt><trkpt lat="46.4051352" lon="13.0072954"><ele>322.0</ele><time>2026-04-19T06:53:37.212Z</time></trkpt><trkpt lat="46.4051826" lon="13.00746"><ele>321.75</ele><time>2026-04-19T06:53:38.212Z</time></trkpt><trkpt lat="46.4052366" lon="13.0076261"><ele>321.5</ele><time>2026-04-19T06:53:39.213Z</time></trkpt><trkpt lat="46.4052905" lon="13.0077934"><ele>321.25</ele><time>2026-04-19T06:53:40.213Z</time></trkpt><trkpt lat="46.4053508" lon="13.0079595"><ele>321.0</ele><time>2026-04-19T06:53:41.212Z</time></trkpt><trkpt lat="46.4054062" lon="13.0081251"><ele>321.0</ele><time>2026-04-19T06:53:42.213Z</time></trkpt><trkpt lat="46.4054661" lon="13.0082921"><ele>321.0</ele><time>2026-04-19T06:53:43.213Z</time></trkpt><trkpt lat="46.4055281" lon="13.0084586"><ele>321.0</ele><time>2026-04-19T06:53:44.213Z</time></trkpt><trkpt lat="46.4055874" lon="13.0086275"><ele>321.0</ele><time>2026-04-19T06:53:45.213Z</time></trkpt><trkpt lat="46.4056439" lon="13.0087995"><ele>321.25</ele><time>2026-04-19T06:53:46.212Z</time></trkpt><trkpt lat="46.4056911" lon="13.008971"><ele>321.5</ele><time>2026-04-19T06:53:47.213Z</time></trkpt><trkpt lat="46.405726" lon="13.0091516"><ele>321.75</ele><time>2026-04-19T06:53:48.213Z</time></trkpt><trkpt lat="46.4057646" lon="13.0093288"><ele>322.0</ele><time>2026-04-19T06:53:49.212Z</time></trkpt><trkpt lat="46.4057925" lon="13.0095101"><ele>322.0</ele><time>2026-04-19T06:53:50.213Z</time></trkpt><trkpt lat="46.4058208" lon="13.0096886"><ele>322.0</ele><time>2026-04-19T06:53:51.213Z</time></trkpt><trkpt lat="46.405849" lon="13.0098531"><ele>322.0</ele><time>2026-04-19T06:53:52.213Z</time></trkpt><trkpt lat="46.4058711" lon="13.0100063"><ele>322.0</ele><time>2026-04-19T06:53:53.213Z</time></trkpt><trkpt lat="46.4058919" lon="13.0101348"><ele>322.0</ele><time>2026-04-19T06:53:54.213Z</time></trkpt><trkpt lat="46.4059056" lon="13.0102312"><ele>322.20000000000005</ele><time>2026-04-19T06:53:55.213Z</time></trkpt><trkpt lat="46.4059652" lon="13.0103672"><ele>322.4</ele><time>2026-04-19T06:53:57.213Z</time></trkpt><trkpt lat="46.4060968" lon="13.0103971"><ele>322.6</ele><time>2026-04-19T06:53:59.213Z</time></trkpt><trkpt lat="46.406175" lon="13.0103583"><ele>322.79999999999995</ele><time>2026-04-19T06:54:00.213Z</time></trkpt><trkpt lat="46.4062548" lon="13.0102977"><ele>323.0</ele><time>2026-04-19T06:54:01.213Z</time></trkpt><trkpt lat="46.4063428" lon="13.0102297"><ele>323.0</ele><time>2026-04-19T06:54:02.213Z</time></trkpt><trkpt lat="46.4064396" lon="13.0101621"><ele>323.0</ele><time>2026-04-19T06:54:03.213Z</time></trkpt><trkpt lat="46.4065305" lon="13.0100911"><ele>323.0</ele><time>2026-04-19T06:54:04.213Z</time></trkpt><trkpt lat="46.4066277" lon="13.0100186"><ele>323.0</ele><time>2026-04-19T06:54:05.213Z</time></trkpt><trkpt lat="46.406727" lon="13.0099443"><ele>323.0</ele><time>2026-04-19T06:54:06.213Z</time></trkpt><trkpt lat="46.4068261" lon="13.009868"><ele>323.0</ele><time>2026-04-19T06:54:07.212Z</time></trkpt><trkpt lat="46.4069314" lon="13.0097908"><ele>323.0</ele><time>2026-04-19T06:54:08.213Z</time></trkpt><trkpt lat="46.4070341" lon="13.0097159"><ele>323.0</ele><time>2026-04-19T06:54:09.213Z</time></trkpt><trkpt lat="46.4071293" lon="13.0096452"><ele>323.0</ele><time>2026-04-19T06:54:10.213Z</time></trkpt><trkpt lat="46.407218" lon="13.0095861"><ele>323.0</ele><time>2026-04-19T06:54:11.212Z</time></trkpt><trkpt lat="46.4072994" lon="13.0095266"><ele>323.14285714285717</ele><time>2026-04-19T06:54:12.213Z</time></trkpt><trkpt lat="46.4073735" lon="13.009473"><ele>323.2857142857143</ele><time>2026-04-19T06:54:13.213Z</time></trkpt><trkpt lat="46.4074425" lon="13.0094219"><ele>323.42857142857144</ele><time>2026-04-19T06:54:14.213Z</time></trkpt><trkpt lat="46.4075091" lon="13.0093773"><ele>323.57142857142856</ele><time>2026-04-19T06:54:15.214Z</time></trkpt><trkpt lat="46.4075768" lon="13.0093429"><ele>323.7142857142857</ele><time>2026-04-19T06:54:16.212Z</time></trkpt><trkpt lat="46.4076406" lon="13.0093144"><ele>323.8571428571429</ele><time>2026-04-19T06:54:17.212Z</time></trkpt><trkpt lat="46.407712" lon="13.0092928"><ele>324.0</ele><time>2026-04-19T06:54:18.213Z</time></trkpt><trkpt lat="46.4077872" lon="13.0092837"><ele>324.0</ele><time>2026-04-19T06:54:19.212Z</time></trkpt><trkpt lat="46.4078698" lon="13.0092878"><ele>324.0</ele><time>2026-04-19T06:54:20.214Z</time></trkpt><trkpt lat="46.4079521" lon="13.0093011"><ele>324.0</ele><time>2026-04-19T06:54:21.213Z</time></trkpt><trkpt lat="46.4080341" lon="13.0093307"><ele>324.0</ele><time>2026-04-19T06:54:22.213Z</time></trkpt><trkpt lat="46.4081067" lon="13.0093694"><ele>324.0</ele><time>2026-04-19T06:54:23.213Z</time></trkpt><trkpt lat="46.4081682" lon="13.0094035"><ele>324.0</ele><time>2026-04-19T06:54:24.213Z</time></trkpt><trkpt lat="46.4082519" lon="13.0094417"><ele>324.2</ele><time>2026-04-19T06:54:26.213Z</time></trkpt><trkpt lat="46.4083411" lon="13.0094715"><ele>324.4</ele><time>2026-04-19T06:55:04.213Z</time></trkpt><trkpt lat="46.4084144" lon="13.0094868"><ele>324.6</ele><time>2026-04-19T06:55:07.213Z</time></trkpt><trkpt lat="46.4084723" lon="13.0094006"><ele>324.8</ele><time>2026-04-19T06:55:10.213Z</time></trkpt><trkpt lat="46.4084811" lon="13.0092568"><ele>325.0</ele><time>2026-04-19T06:55:12.214Z</time></trkpt><trkpt lat="46.4084884" lon="13.0090901"><ele>325.16666666666663</ele><time>2026-04-19T06:55:14.214Z</time></trkpt><trkpt lat="46.4085013" lon="13.0089225"><ele>325.3333333333333</ele><time>2026-04-19T06:55:16.213Z</time></trkpt><trkpt lat="46.4085073" lon="13.0088259"><ele>325.5</ele><time>2026-04-19T06:55:17.213Z</time></trkpt><trkpt lat="46.4085141" lon="13.0087206"><ele>325.6666666666667</ele><time>2026-04-19T06:55:18.213Z</time></trkpt><trkpt lat="46.4085264" lon="13.0086055"><ele>325.83333333333337</ele><time>2026-04-19T06:55:19.213Z</time></trkpt><trkpt lat="46.4085414" lon="13.0084802"><ele>326.0</ele><time>2026-04-19T06:55:20.213Z</time></trkpt><trkpt lat="46.4085628" lon="13.0083434"><ele>326.20000000000005</ele><time>2026-04-19T06:55:21.213Z</time></trkpt><trkpt lat="46.4085901" lon="13.0082088"><ele>326.40000000000003</ele><time>2026-04-19T06:55:22.213Z</time></trkpt><trkpt lat="46.4086163" lon="13.0080826"><ele>326.6</ele><time>2026-04-19T06:55:23.212Z</time></trkpt><trkpt lat="46.4086459" lon="13.0079506"><ele>326.8</ele><time>2026-04-19T06:55:24.212Z</time></trkpt><trkpt lat="46.4086806" lon="13.0078167"><ele>327.0</ele><time>2026-04-19T06:55:25.213Z</time></trkpt><trkpt lat="46.4087352" lon="13.0076806"><ele>327.0</ele><time>2026-04-19T06:55:26.213Z</time></trkpt><trkpt lat="46.4087914" lon="13.0075463"><ele>327.0</ele><time>2026-04-19T06:55:27.213Z</time></trkpt><trkpt lat="46.408841" lon="13.0074298"><ele>327.0</ele><time>2026-04-19T06:55:28.213Z</time></trkpt><trkpt lat="46.4088889" lon="13.0073252"><ele>327.0</ele><time>2026-04-19T06:55:29.214Z</time></trkpt><trkpt lat="46.4089257" lon="13.0072333"><ele>327.0</ele><time>2026-04-19T06:55:30.213Z</time></trkpt><trkpt lat="46.4089656" lon="13.0071588"><ele>327.0</ele><time>2026-04-19T06:55:31.213Z</time></trkpt><trkpt lat="46.4090308" lon="13.0070219"><ele>327.0</ele><time>2026-04-19T06:55:33.213Z</time></trkpt><trkpt lat="46.4090877" lon="13.0068816"><ele>327.0</ele><time>2026-04-19T06:55:35.213Z</time></trkpt><trkpt lat="46.4091497" lon="13.0067311"><ele>327.0</ele><time>2026-04-19T06:55:37.213Z</time></trkpt><trkpt lat="46.4091901" lon="13.0066604"><ele>327.0</ele><time>2026-04-19T06:55:38.213Z</time></trkpt><trkpt lat="46.4092709" lon="13.0065204"><ele>327.0</ele><time>2026-04-19T06:55:40.213Z</time></trkpt><trkpt lat="46.409311" lon="13.0064411"><ele>327.0</ele><time>2026-04-19T06:55:41.213Z</time></trkpt><trkpt lat="46.4093527" lon="13.0063605"><ele>327.0</ele><time>2026-04-19T06:55:42.213Z</time></trkpt><trkpt lat="46.4093965" lon="13.0062698"><ele>327.0</ele><time>2026-04-19T06:55:43.213Z</time></trkpt><trkpt lat="46.4094389" lon="13.0061792"><ele>327.0</ele><time>2026-04-19T06:55:44.213Z</time></trkpt><trkpt lat="46.4094823" lon="13.0060819"><ele>327.0</ele><time>2026-04-19T06:55:45.213Z</time></trkpt><trkpt lat="46.4095285" lon="13.0059817"><ele>327.0</ele><time>2026-04-19T06:55:46.213Z</time></trkpt><trkpt lat="46.4095774" lon="13.0058784"><ele>327.0</ele><time>2026-04-19T06:55:47.213Z</time></trkpt><trkpt lat="46.4096303" lon="13.0057718"><ele>327.0</ele><time>2026-04-19T06:55:48.213Z</time></trkpt><trkpt lat="46.4096866" lon="13.0056621"><ele>327.0</ele><time>2026-04-19T06:55:49.213Z</time></trkpt><trkpt lat="46.409744" lon="13.0055448"><ele>327.0</ele><time>2026-04-19T06:55:50.213Z</time></trkpt><trkpt lat="46.4098031" lon="13.0054252"><ele>327.0</ele><time>2026-04-19T06:55:51.213Z</time></trkpt><trkpt lat="46.4098609" lon="13.0053047"><ele>327.0</ele><time>2026-04-19T06:55:52.212Z</time></trkpt><trkpt lat="46.4099188" lon="13.0051888"><ele>327.0</ele><time>2026-04-19T06:55:53.213Z</time></trkpt><trkpt lat="46.4099718" lon="13.0050746"><ele>327.0</ele><time>2026-04-19T06:55:54.213Z</time></trkpt><trkpt lat="46.4100235" lon="13.0049696"><ele>327.0</ele><time>2026-04-19T06:55:55.212Z</time></trkpt><trkpt lat="46.4100728" lon="13.0048678"><ele>327.0</ele><time>2026-04-19T06:55:56.212Z</time></trkpt><trkpt lat="46.4101236" lon="13.0047637"><ele>327.40000000000003</ele><time>2026-04-19T06:55:57.212Z</time></trkpt><trkpt lat="46.4101822" lon="13.0046511"><ele>327.8</ele><time>2026-04-19T06:55:58.213Z</time></trkpt><trkpt lat="46.4102433" lon="13.004545"><ele>328.2</ele><time>2026-04-19T06:55:59.213Z</time></trkpt><trkpt lat="46.4103119" lon="13.0044381"><ele>328.6</ele><time>2026-04-19T06:56:00.214Z</time></trkpt><trkpt lat="46.4103865" lon="13.0043278"><ele>329.0</ele><time>2026-04-19T06:56:01.213Z</time></trkpt><trkpt lat="46.4104616" lon="13.0042046"><ele>329.0</ele><time>2026-04-19T06:56:02.213Z</time></trkpt><trkpt lat="46.410538" lon="13.0040733"><ele>329.0</ele><time>2026-04-19T06:56:03.213Z</time></trkpt><trkpt lat="46.4106122" lon="13.0039373"><ele>329.0</ele><time>2026-04-19T06:56:04.213Z</time></trkpt><trkpt lat="46.4106851" lon="13.0037884"><ele>329.0</ele><time>2026-04-19T06:56:05.213Z</time></trkpt><trkpt lat="46.4107517" lon="13.0036286"><ele>329.0</ele><time>2026-04-19T06:56:06.213Z</time></trkpt><trkpt lat="46.4108108" lon="13.003463"><ele>329.0</ele><time>2026-04-19T06:56:07.213Z</time></trkpt><trkpt lat="46.4108625" lon="13.0032942"><ele>329.0</ele><time>2026-04-19T06:56:08.213Z</time></trkpt><trkpt lat="46.4109109" lon="13.003116"><ele>329.0</ele><time>2026-04-19T06:56:09.213Z</time></trkpt><trkpt lat="46.410953" lon="13.0029301"><ele>328.5</ele><time>2026-04-19T06:56:10.213Z</time></trkpt><trkpt lat="46.4109871" lon="13.0027383"><ele>328.0</ele><time>2026-04-19T06:56:11.212Z</time></trkpt><trkpt lat="46.4110098" lon="13.0025326"><ele>327.5</ele><time>2026-04-19T06:56:12.213Z</time></trkpt><trkpt lat="46.4110232" lon="13.0023196"><ele>327.0</ele><time>2026-04-19T06:56:13.213Z</time></trkpt><trkpt lat="46.4110265" lon="13.0021026"><ele>328.3333333333333</ele><time>2026-04-19T06:56:14.213Z</time></trkpt><trkpt lat="46.4110202" lon="13.0018838"><ele>329.66666666666663</ele><time>2026-04-19T06:56:15.214Z</time></trkpt><trkpt lat="46.4110006" lon="13.0016641"><ele>331.0</ele><time>2026-04-19T06:56:16.213Z</time></trkpt><trkpt lat="46.4109717" lon="13.0014442"><ele>331.66666666666663</ele><time>2026-04-19T06:56:17.213Z</time></trkpt><trkpt lat="46.4109321" lon="13.0012275"><ele>332.3333333333333</ele><time>2026-04-19T06:56:18.213Z</time></trkpt><trkpt lat="46.4108791" lon="13.0010157"><ele>333.0</ele><time>2026-04-19T06:56:19.213Z</time></trkpt><trkpt lat="46.4108138" lon="13.0008049"><ele>338.6666666666667</ele><time>2026-04-19T06:56:20.214Z</time></trkpt><trkpt lat="46.4107374" lon="13.0006005"><ele>344.33333333333337</ele><time>2026-04-19T06:56:21.213Z</time></trkpt><trkpt lat="46.4106483" lon="13.0004097"><ele>350.0</ele><time>2026-04-19T06:56:22.213Z</time></trkpt><trkpt lat="46.4105518" lon="13.0002255"><ele>342.33333333333337</ele><time>2026-04-19T06:56:23.213Z</time></trkpt><trkpt lat="46.4104489" lon="13.0000502"><ele>334.6666666666667</ele><time>2026-04-19T06:56:24.214Z</time></trkpt><trkpt lat="46.4103397" lon="12.9998786"><ele>327.0</ele><time>2026-04-19T06:56:25.213Z</time></trkpt><trkpt lat="46.4102295" lon="12.9997081"><ele>327.0</ele><time>2026-04-19T06:56:26.212Z</time></trkpt><trkpt lat="46.4101208" lon="12.9995361"><ele>327.0</ele><time>2026-04-19T06:56:27.213Z</time></trkpt><trkpt lat="46.41001" lon="12.9993628"><ele>327.0</ele><time>2026-04-19T06:56:28.213Z</time></trkpt><trkpt lat="46.4098989" lon="12.9991908"><ele>325.3333333333333</ele><time>2026-04-19T06:56:29.213Z</time></trkpt><trkpt lat="46.4097907" lon="12.9990098"><ele>323.66666666666663</ele><time>2026-04-19T06:56:30.213Z</time></trkpt><trkpt lat="46.4096854" lon="12.9988296"><ele>322.0</ele><time>2026-04-19T06:56:31.213Z</time></trkpt><trkpt lat="46.4095837" lon="12.9986443"><ele>322.0</ele><time>2026-04-19T06:56:32.213Z</time></trkpt><trkpt lat="46.4094872" lon="12.9984527"><ele>322.0</ele><time>2026-04-19T06:56:33.213Z</time></trkpt><trkpt lat="46.409396" lon="12.9982572"><ele>322.0</ele><time>2026-04-19T06:56:34.213Z</time></trkpt><trkpt lat="46.4093059" lon="12.9980587"><ele>322.3333333333333</ele><time>2026-04-19T06:56:35.213Z</time></trkpt><trkpt lat="46.4092197" lon="12.9978557"><ele>322.6666666666667</ele><time>2026-04-19T06:56:36.213Z</time></trkpt><trkpt lat="46.4091319" lon="12.9976531"><ele>323.0</ele><time>2026-04-19T06:56:37.213Z</time></trkpt><trkpt lat="46.4090433" lon="12.9974495"><ele>322.6666666666667</ele><time>2026-04-19T06:56:38.213Z</time></trkpt><trkpt lat="46.4089579" lon="12.9972433"><ele>322.3333333333333</ele><time>2026-04-19T06:56:39.213Z</time></trkpt><trkpt lat="46.4088726" lon="12.9970398"><ele>322.0</ele><time>2026-04-19T06:56:40.213Z</time></trkpt><trkpt lat="46.4087894" lon="12.9968336"><ele>322.0</ele><time>2026-04-19T06:56:41.213Z</time></trkpt><trkpt lat="46.4087061" lon="12.996629"><ele>322.0</ele><time>2026-04-19T06:56:42.213Z</time></trkpt><trkpt lat="46.4086222" lon="12.9964238"><ele>322.0</ele><time>2026-04-19T06:56:43.213Z</time></trkpt><trkpt lat="46.408541" lon="12.9962175"><ele>322.0</ele><time>2026-04-19T06:56:44.213Z</time></trkpt><trkpt lat="46.4084565" lon="12.9960125"><ele>322.0</ele><time>2026-04-19T06:56:45.213Z</time></trkpt><trkpt lat="46.4083713" lon="12.9958012"><ele>322.0</ele><time>2026-04-19T06:56:46.213Z</time></trkpt><trkpt lat="46.408284" lon="12.9955919"><ele>321.66666666666663</ele><time>2026-04-19T06:56:47.213Z</time></trkpt><trkpt lat="46.4081961" lon="12.995383"><ele>321.3333333333333</ele><time>2026-04-19T06:56:48.214Z</time></trkpt><trkpt lat="46.4081107" lon="12.99517"><ele>321.0</ele><time>2026-04-19T06:56:49.213Z</time></trkpt><trkpt lat="46.4080224" lon="12.9949559"><ele>321.0</ele><time>2026-04-19T06:56:50.212Z</time></trkpt><trkpt lat="46.4079394" lon="12.9947413"><ele>321.0</ele><time>2026-04-19T06:56:51.213Z</time></trkpt><trkpt lat="46.4078585" lon="12.9945188"><ele>321.0</ele><time>2026-04-19T06:56:52.213Z</time></trkpt><trkpt lat="46.4077807" lon="12.9942938"><ele>321.6666666666667</ele><time>2026-04-19T06:56:53.212Z</time></trkpt><trkpt lat="46.4077106" lon="12.9940612"><ele>322.33333333333337</ele><time>2026-04-19T06:56:54.213Z</time></trkpt><trkpt lat="46.4076474" lon="12.9938289"><ele>323.0</ele><time>2026-04-19T06:56:55.213Z</time></trkpt><trkpt lat="46.4075887" lon="12.9935936"><ele>323.0</ele><time>2026-04-19T06:56:56.213Z</time></trkpt><trkpt lat="46.4075404" lon="12.9933532"><ele>323.0</ele><time>2026-04-19T06:56:57.213Z</time></trkpt><trkpt lat="46.4075033" lon="12.9931083"><ele>323.0</ele><time>2026-04-19T06:56:58.214Z</time></trkpt><trkpt lat="46.4074716" lon="12.992868"><ele>323.5</ele><time>2026-04-19T06:56:59.212Z</time></trkpt><trkpt lat="46.4074468" lon="12.9926441"><ele>324.0</ele><time>2026-04-19T06:57:00.213Z</time></trkpt><trkpt lat="46.4074315" lon="12.9924364"><ele>324.5</ele><time>2026-04-19T06:57:01.213Z</time></trkpt><trkpt lat="46.4074174" lon="12.9922354"><ele>325.0</ele><time>2026-04-19T06:57:02.213Z</time></trkpt><trkpt lat="46.4074121" lon="12.9920498"><ele>326.8</ele><time>2026-04-19T06:57:03.213Z</time></trkpt><trkpt lat="46.4074086" lon="12.9918896"><ele>328.6</ele><time>2026-04-19T06:57:04.214Z</time></trkpt><trkpt lat="46.4074057" lon="12.9917501"><ele>330.4</ele><time>2026-04-19T06:57:05.213Z</time></trkpt><trkpt lat="46.4074015" lon="12.9916337"><ele>332.2</ele><time>2026-04-19T06:57:06.212Z</time></trkpt><trkpt lat="46.4073978" lon="12.9915365"><ele>334.0</ele><time>2026-04-19T06:57:07.213Z</time></trkpt><trkpt lat="46.4073938" lon="12.9913837"><ele>334.3333333333333</ele><time>2026-04-19T06:57:09.212Z</time></trkpt><trkpt lat="46.4073924" lon="12.9912812"><ele>334.66666666666663</ele><time>2026-04-19T06:57:11.214Z</time></trkpt><trkpt lat="46.4073329" lon="12.991176"><ele>335.0</ele><time>2026-04-19T06:57:56.212Z</time></trkpt><trkpt lat="46.4072144" lon="12.9911516"><ele>335.3333333333333</ele><time>2026-04-19T06:57:58.211Z</time></trkpt><trkpt lat="46.4071412" lon="12.991135"><ele>335.6666666666667</ele><time>2026-04-19T06:57:59.212Z</time></trkpt><trkpt lat="46.4070621" lon="12.9911048"><ele>336.0</ele><time>2026-04-19T06:58:00.212Z</time></trkpt><trkpt lat="46.406969" lon="12.9910624"><ele>333.6</ele><time>2026-04-19T06:58:01.212Z</time></trkpt><trkpt lat="46.4068738" lon="12.9910082"><ele>331.20000000000005</ele><time>2026-04-19T06:58:02.211Z</time></trkpt><trkpt lat="46.4067815" lon="12.9909584"><ele>328.79999999999995</ele><time>2026-04-19T06:58:03.212Z</time></trkpt><trkpt lat="46.4066848" lon="12.9909005"><ele>326.4</ele><time>2026-04-19T06:58:04.211Z</time></trkpt><trkpt lat="46.4065862" lon="12.9908413"><ele>324.0</ele><time>2026-04-19T06:58:05.212Z</time></trkpt><trkpt lat="46.4064892" lon="12.99079"><ele>324.0</ele><time>2026-04-19T06:58:06.212Z</time></trkpt><trkpt lat="46.4063995" lon="12.9907355"><ele>324.0</ele><time>2026-04-19T06:58:07.211Z</time></trkpt><trkpt lat="46.4063127" lon="12.9906848"><ele>324.0</ele><time>2026-04-19T06:58:08.213Z</time></trkpt><trkpt lat="46.40623" lon="12.9906379"><ele>324.0</ele><time>2026-04-19T06:58:09.212Z</time></trkpt><trkpt lat="46.4061513" lon="12.9905909"><ele>324.0</ele><time>2026-04-19T06:58:10.212Z</time></trkpt><trkpt lat="46.4060766" lon="12.9905483"><ele>324.0</ele><time>2026-04-19T06:58:11.212Z</time></trkpt><trkpt lat="46.4060095" lon="12.9905087"><ele>323.0</ele><time>2026-04-19T06:58:12.212Z</time></trkpt><trkpt lat="46.4059131" lon="12.9904198"><ele>322.0</ele><time>2026-04-19T06:58:14.212Z</time></trkpt><trkpt lat="46.4058862" lon="12.9902597"><ele>321.0</ele><time>2026-04-19T06:58:16.212Z</time></trkpt><trkpt lat="46.4059015" lon="12.9901362"><ele>320.0</ele><time>2026-04-19T06:58:17.212Z</time></trkpt><trkpt lat="46.4059305" lon="12.9899803"><ele>319.0</ele><time>2026-04-19T06:58:18.213Z</time></trkpt><trkpt lat="46.4059513" lon="12.9898057"><ele>319.0</ele><time>2026-04-19T06:58:19.213Z</time></trkpt><trkpt lat="46.4059744" lon="12.9896338"><ele>319.0</ele><time>2026-04-19T06:58:20.211Z</time></trkpt><trkpt lat="46.4059982" lon="12.9894486"><ele>319.0</ele><time>2026-04-19T06:58:21.211Z</time></trkpt><trkpt lat="46.4060238" lon="12.9892512"><ele>319.0</ele><time>2026-04-19T06:58:22.213Z</time></trkpt><trkpt lat="46.4060509" lon="12.9890459"><ele>319.66666666666663</ele><time>2026-04-19T06:58:23.213Z</time></trkpt><trkpt lat="46.4060775" lon="12.9888289"><ele>320.3333333333333</ele><time>2026-04-19T06:58:24.212Z</time></trkpt><trkpt lat="46.4061043" lon="12.9886189"><ele>321.0</ele><time>2026-04-19T06:58:25.212Z</time></trkpt><trkpt lat="46.4061295" lon="12.9884039"><ele>321.6666666666667</ele><time>2026-04-19T06:58:26.211Z</time></trkpt><trkpt lat="46.4061618" lon="12.9881809"><ele>322.33333333333337</ele><time>2026-04-19T06:58:27.212Z</time></trkpt><trkpt lat="46.4061958" lon="12.9879521"><ele>323.0</ele><time>2026-04-19T06:58:28.212Z</time></trkpt><trkpt lat="46.4062274" lon="12.9877238"><ele>322.33333333333337</ele><time>2026-04-19T06:58:29.212Z</time></trkpt><trkpt lat="46.4062653" lon="12.9874822"><ele>321.6666666666667</ele><time>2026-04-19T06:58:30.212Z</time></trkpt><trkpt lat="46.4062991" lon="12.9872385"><ele>321.0</ele><time>2026-04-19T06:58:31.212Z</time></trkpt><trkpt lat="46.4063359" lon="12.9870022"><ele>324.3333333333333</ele><time>2026-04-19T06:58:32.212Z</time></trkpt><trkpt lat="46.4063723" lon="12.9867594"><ele>327.66666666666663</ele><time>2026-04-19T06:58:33.211Z</time></trkpt><trkpt lat="46.406407" lon="12.9865183"><ele>331.0</ele><time>2026-04-19T06:58:34.212Z</time></trkpt><trkpt lat="46.4064407" lon="12.9862735"><ele>332.0</ele><time>2026-04-19T06:58:35.212Z</time></trkpt><trkpt lat="46.4064738" lon="12.9860289"><ele>333.0</ele><time>2026-04-19T06:58:36.212Z</time></trkpt><trkpt lat="46.4065065" lon="12.9857863"><ele>334.0</ele><time>2026-04-19T06:58:37.212Z</time></trkpt><trkpt lat="46.4065396" lon="12.9855378"><ele>334.0</ele><time>2026-04-19T06:58:38.212Z</time></trkpt><trkpt lat="46.4065705" lon="12.9852838"><ele>334.0</ele><time>2026-04-19T06:58:39.213Z</time></trkpt><trkpt lat="46.4065978" lon="12.9850241"><ele>334.0</ele><time>2026-04-19T06:58:40.212Z</time></trkpt><trkpt lat="46.4066249" lon="12.9847584"><ele>332.66666666666663</ele><time>2026-04-19T06:58:41.212Z</time></trkpt><trkpt lat="46.4066514" lon="12.9844875"><ele>331.3333333333333</ele><time>2026-04-19T06:58:42.212Z</time></trkpt><trkpt lat="46.4066798" lon="12.9842103"><ele>330.0</ele><time>2026-04-19T06:58:43.212Z</time></trkpt><trkpt lat="46.4067081" lon="12.9839261"><ele>329.3333333333333</ele><time>2026-04-19T06:58:44.212Z</time></trkpt><trkpt lat="46.4067367" lon="12.9836396"><ele>328.66666666666663</ele><time>2026-04-19T06:58:45.212Z</time></trkpt><trkpt lat="46.4067664" lon="12.9833461"><ele>328.0</ele><time>2026-04-19T06:58:46.212Z</time></trkpt><trkpt lat="46.406797" lon="12.9830479"><ele>328.0</ele><time>2026-04-19T06:58:47.212Z</time></trkpt><trkpt lat="46.4068246" lon="12.9827416"><ele>328.0</ele><time>2026-04-19T06:58:48.212Z</time></trkpt><trkpt lat="46.4068519" lon="12.9824327"><ele>328.0</ele><time>2026-04-19T06:58:49.212Z</time></trkpt><trkpt lat="46.4068819" lon="12.9821206"><ele>327.66666666666663</ele><time>2026-04-19T06:58:50.212Z</time></trkpt><trkpt lat="46.4069133" lon="12.9818049"><ele>327.3333333333333</ele><time>2026-04-19T06:58:51.212Z</time></trkpt><trkpt lat="46.4069438" lon="12.9814897"><ele>327.0</ele><time>2026-04-19T06:58:52.212Z</time></trkpt><trkpt lat="46.4069733" lon="12.9811694"><ele>326.5</ele><time>2026-04-19T06:58:53.212Z</time></trkpt><trkpt lat="46.4070013" lon="12.9808447"><ele>326.0</ele><time>2026-04-19T06:58:54.212Z</time></trkpt><trkpt lat="46.40703" lon="12.9805195"><ele>326.0</ele><time>2026-04-19T06:58:55.211Z</time></trkpt><trkpt lat="46.40706" lon="12.9801897"><ele>326.0</ele><time>2026-04-19T06:58:56.212Z</time></trkpt><trkpt lat="46.4070864" lon="12.9798668"><ele>327.0</ele><time>2026-04-19T06:58:57.212Z</time></trkpt><trkpt lat="46.4071177" lon="12.9795392"><ele>328.0</ele><time>2026-04-19T06:58:58.212Z</time></trkpt><trkpt lat="46.4071481" lon="12.9792171"><ele>331.5</ele><time>2026-04-19T06:58:59.212Z</time></trkpt><trkpt lat="46.4071838" lon="12.9788835"><ele>335.0</ele><time>2026-04-19T06:59:00.212Z</time></trkpt><trkpt lat="46.4072192" lon="12.9785495"><ele>333.5</ele><time>2026-04-19T06:59:01.212Z</time></trkpt><trkpt lat="46.4072577" lon="12.9782124"><ele>332.0</ele><time>2026-04-19T06:59:02.213Z</time></trkpt><trkpt lat="46.4072988" lon="12.9778752"><ele>332.0</ele><time>2026-04-19T06:59:03.212Z</time></trkpt><trkpt lat="46.4073423" lon="12.977536"><ele>332.0</ele><time>2026-04-19T06:59:04.212Z</time></trkpt><trkpt lat="46.4073879" lon="12.9771952"><ele>331.5</ele><time>2026-04-19T06:59:05.213Z</time></trkpt><trkpt lat="46.4074379" lon="12.9768546"><ele>331.0</ele><time>2026-04-19T06:59:06.212Z</time></trkpt><trkpt lat="46.4074939" lon="12.9765149"><ele>330.5</ele><time>2026-04-19T06:59:07.212Z</time></trkpt><trkpt lat="46.4075516" lon="12.9761729"><ele>330.0</ele><time>2026-04-19T06:59:08.213Z</time></trkpt><trkpt lat="46.4076152" lon="12.9758307"><ele>328.5</ele><time>2026-04-19T06:59:09.212Z</time></trkpt><trkpt lat="46.4076789" lon="12.9754919"><ele>327.0</ele><time>2026-04-19T06:59:10.211Z</time></trkpt><trkpt lat="46.4077456" lon="12.9751645"><ele>327.0</ele><time>2026-04-19T06:59:11.211Z</time></trkpt><trkpt lat="46.4078155" lon="12.974838"><ele>327.0</ele><time>2026-04-19T06:59:12.211Z</time></trkpt><trkpt lat="46.4078844" lon="12.9745149"><ele>327.0</ele><time>2026-04-19T06:59:13.211Z</time></trkpt><trkpt lat="46.4079576" lon="12.9741958"><ele>327.0</ele><time>2026-04-19T06:59:14.212Z</time></trkpt><trkpt lat="46.4080342" lon="12.9738825"><ele>331.5</ele><time>2026-04-19T06:59:15.211Z</time></trkpt><trkpt lat="46.4081103" lon="12.9735718"><ele>336.0</ele><time>2026-04-19T06:59:16.211Z</time></trkpt><trkpt lat="46.4081883" lon="12.9732622"><ele>336.0</ele><time>2026-04-19T06:59:17.211Z</time></trkpt><trkpt lat="46.408267" lon="12.9729574"><ele>336.0</ele><time>2026-04-19T06:59:18.211Z</time></trkpt><trkpt lat="46.4083501" lon="12.9726552"><ele>336.0</ele><time>2026-04-19T06:59:19.211Z</time></trkpt><trkpt lat="46.4084367" lon="12.9723586"><ele>334.6666666666667</ele><time>2026-04-19T06:59:20.212Z</time></trkpt><trkpt lat="46.4085253" lon="12.9720608"><ele>333.33333333333337</ele><time>2026-04-19T06:59:21.212Z</time></trkpt><trkpt lat="46.4086133" lon="12.9717634"><ele>332.0</ele><time>2026-04-19T06:59:22.212Z</time></trkpt><trkpt lat="46.4087023" lon="12.9714675"><ele>331.5</ele><time>2026-04-19T06:59:23.212Z</time></trkpt><trkpt lat="46.4087926" lon="12.9711695"><ele>331.0</ele><time>2026-04-19T06:59:24.212Z</time></trkpt><trkpt lat="46.4088854" lon="12.9708591"><ele>337.0</ele><time>2026-04-19T06:59:25.211Z</time></trkpt><trkpt lat="46.4089814" lon="12.9705442"><ele>343.0</ele><time>2026-04-19T06:59:26.211Z</time></trkpt><trkpt lat="46.4090793" lon="12.9702273"><ele>339.0</ele><time>2026-04-19T06:59:27.212Z</time></trkpt><trkpt lat="46.4091786" lon="12.9699111"><ele>335.0</ele><time>2026-04-19T06:59:28.212Z</time></trkpt><trkpt lat="46.4092798" lon="12.9695956"><ele>335.0</ele><time>2026-04-19T06:59:29.213Z</time></trkpt><trkpt lat="46.409379" lon="12.9692814"><ele>335.0</ele><time>2026-04-19T06:59:30.212Z</time></trkpt><trkpt lat="46.4094789" lon="12.9689677"><ele>333.5</ele><time>2026-04-19T06:59:31.211Z</time></trkpt><trkpt lat="46.4095757" lon="12.9686501"><ele>332.0</ele><time>2026-04-19T06:59:32.211Z</time></trkpt><trkpt lat="46.4096737" lon="12.9683338"><ele>338.0</ele><time>2026-04-19T06:59:33.211Z</time></trkpt><trkpt lat="46.4097689" lon="12.9680218"><ele>344.0</ele><time>2026-04-19T06:59:34.211Z</time></trkpt><trkpt lat="46.4098621" lon="12.9677138"><ele>340.0</ele><time>2026-04-19T06:59:35.212Z</time></trkpt><trkpt lat="46.4099527" lon="12.9674106"><ele>336.0</ele><time>2026-04-19T06:59:36.211Z</time></trkpt><trkpt lat="46.4100331" lon="12.9671102"><ele>336.0</ele><time>2026-04-19T06:59:37.212Z</time></trkpt><trkpt lat="46.4101054" lon="12.9668078"><ele>336.0</ele><time>2026-04-19T06:59:38.212Z</time></trkpt><trkpt lat="46.4101705" lon="12.9664969"><ele>336.0</ele><time>2026-04-19T06:59:39.211Z</time></trkpt><trkpt lat="46.4102266" lon="12.9661879"><ele>335.6666666666667</ele><time>2026-04-19T06:59:40.212Z</time></trkpt><trkpt lat="46.41027" lon="12.9658725"><ele>335.33333333333337</ele><time>2026-04-19T06:59:41.211Z</time></trkpt><trkpt lat="46.4103037" lon="12.9655522"><ele>335.0</ele><time>2026-04-19T06:59:42.212Z</time></trkpt><trkpt lat="46.4103353" lon="12.9652289"><ele>336.0</ele><time>2026-04-19T06:59:43.212Z</time></trkpt><trkpt lat="46.4103669" lon="12.9649027"><ele>337.0</ele><time>2026-04-19T06:59:44.212Z</time></trkpt><trkpt lat="46.4103898" lon="12.9645723"><ele>337.0</ele><time>2026-04-19T06:59:45.212Z</time></trkpt><trkpt lat="46.4104043" lon="12.9642401"><ele>337.0</ele><time>2026-04-19T06:59:46.211Z</time></trkpt><trkpt lat="46.4104119" lon="12.9639049"><ele>337.0</ele><time>2026-04-19T06:59:47.212Z</time></trkpt><trkpt lat="46.4104058" lon="12.9635707"><ele>337.0</ele><time>2026-04-19T06:59:48.212Z</time></trkpt><trkpt lat="46.410396" lon="12.9632363"><ele>337.0</ele><time>2026-04-19T06:59:49.212Z</time></trkpt><trkpt lat="46.4103806" lon="12.9629029"><ele>337.0</ele><time>2026-04-19T06:59:50.212Z</time></trkpt><trkpt lat="46.4103659" lon="12.9625707"><ele>337.3333333333333</ele><time>2026-04-19T06:59:51.213Z</time></trkpt><trkpt lat="46.4103605" lon="12.9622653"><ele>337.6666666666667</ele><time>2026-04-19T06:59:52.212Z</time></trkpt><trkpt lat="46.4103665" lon="12.9619777"><ele>338.0</ele><time>2026-04-19T06:59:53.212Z</time></trkpt><trkpt lat="46.4103826" lon="12.9616962"><ele>338.0</ele><time>2026-04-19T06:59:54.212Z</time></trkpt><trkpt lat="46.4104175" lon="12.9614273"><ele>338.0</ele><time>2026-04-19T06:59:55.211Z</time></trkpt><trkpt lat="46.410468" lon="12.9611649"><ele>338.0</ele><time>2026-04-19T06:59:56.212Z</time></trkpt><trkpt lat="46.4105309" lon="12.9609092"><ele>338.33333333333337</ele><time>2026-04-19T06:59:57.213Z</time></trkpt><trkpt lat="46.4106007" lon="12.9606628"><ele>338.6666666666667</ele><time>2026-04-19T06:59:58.211Z</time></trkpt><trkpt lat="46.4106714" lon="12.9604179"><ele>339.0</ele><time>2026-04-19T06:59:59.211Z</time></trkpt><trkpt lat="46.4107412" lon="12.9601764"><ele>337.6666666666667</ele><time>2026-04-19T07:00:00.212Z</time></trkpt><trkpt lat="46.4108097" lon="12.9599331"><ele>336.33333333333337</ele><time>2026-04-19T07:00:01.212Z</time></trkpt><trkpt lat="46.4108675" lon="12.9596935"><ele>335.0</ele><time>2026-04-19T07:00:02.212Z</time></trkpt><trkpt lat="46.4109102" lon="12.9594624"><ele>335.0</ele><time>2026-04-19T07:00:03.211Z</time></trkpt><trkpt lat="46.41094" lon="12.9592328"><ele>335.0</ele><time>2026-04-19T07:00:04.211Z</time></trkpt><trkpt lat="46.4109566" lon="12.9589989"><ele>335.0</ele><time>2026-04-19T07:00:05.212Z</time></trkpt><trkpt lat="46.4109602" lon="12.9587617"><ele>335.33333333333337</ele><time>2026-04-19T07:00:06.212Z</time></trkpt><trkpt lat="46.4109569" lon="12.9585223"><ele>335.6666666666667</ele><time>2026-04-19T07:00:07.212Z</time></trkpt><trkpt lat="46.4109504" lon="12.9582811"><ele>336.0</ele><time>2026-04-19T07:00:08.212Z</time></trkpt><trkpt lat="46.4109414" lon="12.9580293"><ele>336.3333333333333</ele><time>2026-04-19T07:00:09.212Z</time></trkpt><trkpt lat="46.410931" lon="12.9577841"><ele>336.66666666666663</ele><time>2026-04-19T07:00:10.212Z</time></trkpt><trkpt lat="46.4109196" lon="12.9575352"><ele>337.0</ele><time>2026-04-19T07:00:11.211Z</time></trkpt><trkpt lat="46.4109052" lon="12.9572823"><ele>337.3333333333333</ele><time>2026-04-19T07:00:12.212Z</time></trkpt><trkpt lat="46.4108969" lon="12.957025"><ele>337.6666666666667</ele><time>2026-04-19T07:00:13.212Z</time></trkpt><trkpt lat="46.4108893" lon="12.9567667"><ele>338.0</ele><time>2026-04-19T07:00:14.212Z</time></trkpt><trkpt lat="46.4108808" lon="12.9565099"><ele>338.33333333333337</ele><time>2026-04-19T07:00:15.212Z</time></trkpt><trkpt lat="46.4108737" lon="12.9562504"><ele>338.6666666666667</ele><time>2026-04-19T07:00:16.211Z</time></trkpt><trkpt lat="46.4108708" lon="12.9559927"><ele>339.0</ele><time>2026-04-19T07:00:17.213Z</time></trkpt><trkpt lat="46.4108704" lon="12.9557358"><ele>341.3333333333333</ele><time>2026-04-19T07:00:18.212Z</time></trkpt><trkpt lat="46.410868" lon="12.9554799"><ele>343.66666666666663</ele><time>2026-04-19T07:00:19.211Z</time></trkpt><trkpt lat="46.4108671" lon="12.9552214"><ele>346.0</ele><time>2026-04-19T07:00:20.211Z</time></trkpt><trkpt lat="46.4108673" lon="12.9549606"><ele>346.0</ele><time>2026-04-19T07:00:21.212Z</time></trkpt><trkpt lat="46.4108685" lon="12.954702"><ele>346.0</ele><time>2026-04-19T07:00:22.213Z</time></trkpt><trkpt lat="46.4108676" lon="12.95444"><ele>346.0</ele><time>2026-04-19T07:00:23.212Z</time></trkpt><trkpt lat="46.4108651" lon="12.9541776"><ele>346.0</ele><time>2026-04-19T07:00:24.212Z</time></trkpt><trkpt lat="46.4108588" lon="12.9539187"><ele>346.0</ele><time>2026-04-19T07:00:25.211Z</time></trkpt><trkpt lat="46.4108495" lon="12.9536642"><ele>346.0</ele><time>2026-04-19T07:00:26.211Z</time></trkpt><trkpt lat="46.4108234" lon="12.953405"><ele>346.3333333333333</ele><time>2026-04-19T07:00:27.213Z</time></trkpt><trkpt lat="46.4107856" lon="12.9531502"><ele>346.6666666666667</ele><time>2026-04-19T07:00:28.211Z</time></trkpt><trkpt lat="46.4107367" lon="12.9529031"><ele>347.0</ele><time>2026-04-19T07:00:29.212Z</time></trkpt><trkpt lat="46.4106809" lon="12.9526592"><ele>351.0</ele><time>2026-04-19T07:00:30.211Z</time></trkpt><trkpt lat="46.4106203" lon="12.9524117"><ele>355.0</ele><time>2026-04-19T07:00:31.212Z</time></trkpt><trkpt lat="46.4105618" lon="12.9521652"><ele>359.0</ele><time>2026-04-19T07:00:32.211Z</time></trkpt><trkpt lat="46.4105089" lon="12.9519184"><ele>353.6666666666667</ele><time>2026-04-19T07:00:33.212Z</time></trkpt><trkpt lat="46.4104608" lon="12.9516708"><ele>348.3333333333333</ele><time>2026-04-19T07:00:34.211Z</time></trkpt><trkpt lat="46.4104228" lon="12.9514213"><ele>343.0</ele><time>2026-04-19T07:00:35.212Z</time></trkpt><trkpt lat="46.4104002" lon="12.9511612"><ele>343.0</ele><time>2026-04-19T07:00:36.212Z</time></trkpt><trkpt lat="46.4103919" lon="12.9508995"><ele>343.0</ele><time>2026-04-19T07:00:37.212Z</time></trkpt><trkpt lat="46.410391" lon="12.9506331"><ele>343.0</ele><time>2026-04-19T07:00:38.213Z</time></trkpt><trkpt lat="46.4103938" lon="12.9503665"><ele>342.0</ele><time>2026-04-19T07:00:39.211Z</time></trkpt><trkpt lat="46.4103938" lon="12.9500981"><ele>341.0</ele><time>2026-04-19T07:00:40.212Z</time></trkpt><trkpt lat="46.4103945" lon="12.9498314"><ele>340.0</ele><time>2026-04-19T07:00:41.211Z</time></trkpt><trkpt lat="46.4103976" lon="12.9495647"><ele>340.0</ele><time>2026-04-19T07:00:42.211Z</time></trkpt><trkpt lat="46.410406" lon="12.9493037"><ele>340.0</ele><time>2026-04-19T07:00:43.213Z</time></trkpt><trkpt lat="46.4104301" lon="12.9490462"><ele>340.0</ele><time>2026-04-19T07:00:44.212Z</time></trkpt><trkpt lat="46.4104782" lon="12.9487959"><ele>346.3333333333333</ele><time>2026-04-19T07:00:45.211Z</time></trkpt><trkpt lat="46.4105419" lon="12.9485531"><ele>352.6666666666667</ele><time>2026-04-19T07:00:46.212Z</time></trkpt><trkpt lat="46.4106277" lon="12.9483191"><ele>359.0</ele><time>2026-04-19T07:00:47.212Z</time></trkpt><trkpt lat="46.410731" lon="12.9480983"><ele>359.0</ele><time>2026-04-19T07:00:48.212Z</time></trkpt><trkpt lat="46.4108422" lon="12.9478788"><ele>359.0</ele><time>2026-04-19T07:00:49.212Z</time></trkpt><trkpt lat="46.4109516" lon="12.947655"><ele>359.0</ele><time>2026-04-19T07:00:50.211Z</time></trkpt><trkpt lat="46.4110536" lon="12.9474239"><ele>355.6666666666667</ele><time>2026-04-19T07:00:51.212Z</time></trkpt><trkpt lat="46.4111374" lon="12.9471876"><ele>352.3333333333333</ele><time>2026-04-19T07:00:52.212Z</time></trkpt><trkpt lat="46.4111993" lon="12.9469447"><ele>349.0</ele><time>2026-04-19T07:00:53.212Z</time></trkpt><trkpt lat="46.4112498" lon="12.9466891"><ele>347.66666666666663</ele><time>2026-04-19T07:00:54.211Z</time></trkpt><trkpt lat="46.4112935" lon="12.9464374"><ele>346.3333333333333</ele><time>2026-04-19T07:00:55.212Z</time></trkpt><trkpt lat="46.411337" lon="12.9462034"><ele>345.0</ele><time>2026-04-19T07:00:56.211Z</time></trkpt><trkpt lat="46.4113885" lon="12.9459855"><ele>348.6666666666667</ele><time>2026-04-19T07:00:57.212Z</time></trkpt><trkpt lat="46.4114504" lon="12.9457824"><ele>352.33333333333337</ele><time>2026-04-19T07:00:58.212Z</time></trkpt><trkpt lat="46.4115291" lon="12.9455869"><ele>356.0</ele><time>2026-04-19T07:00:59.212Z</time></trkpt><trkpt lat="46.4116253" lon="12.945391"><ele>356.0</ele><time>2026-04-19T07:01:00.211Z</time></trkpt><trkpt lat="46.4117247" lon="12.9451983"><ele>356.0</ele><time>2026-04-19T07:01:01.212Z</time></trkpt><trkpt lat="46.4118153" lon="12.9449909"><ele>356.0</ele><time>2026-04-19T07:01:02.212Z</time></trkpt><trkpt lat="46.4118908" lon="12.9447701"><ele>353.33333333333337</ele><time>2026-04-19T07:01:03.212Z</time></trkpt><trkpt lat="46.4119624" lon="12.9445369"><ele>350.6666666666667</ele><time>2026-04-19T07:01:04.212Z</time></trkpt><trkpt lat="46.4120329" lon="12.9442981"><ele>348.0</ele><time>2026-04-19T07:01:05.212Z</time></trkpt><trkpt lat="46.4120959" lon="12.9440541"><ele>347.3333333333333</ele><time>2026-04-19T07:01:06.212Z</time></trkpt><trkpt lat="46.4121517" lon="12.9438039"><ele>346.66666666666663</ele><time>2026-04-19T07:01:07.212Z</time></trkpt><trkpt lat="46.4122019" lon="12.9435525"><ele>346.0</ele><time>2026-04-19T07:01:08.212Z</time></trkpt><trkpt lat="46.4122517" lon="12.943296"><ele>350.3333333333333</ele><time>2026-04-19T07:01:09.212Z</time></trkpt><trkpt lat="46.4122931" lon="12.9430366"><ele>354.6666666666667</ele><time>2026-04-19T07:01:10.212Z</time></trkpt><trkpt lat="46.4123215" lon="12.9427743"><ele>359.0</ele><time>2026-04-19T07:01:11.211Z</time></trkpt><trkpt lat="46.4123317" lon="12.9425035"><ele>359.0</ele><time>2026-04-19T07:01:12.212Z</time></trkpt><trkpt lat="46.4123274" lon="12.9422322"><ele>359.0</ele><time>2026-04-19T07:01:13.212Z</time></trkpt><trkpt lat="46.4123133" lon="12.9419596"><ele>359.0</ele><time>2026-04-19T07:01:14.212Z</time></trkpt><trkpt lat="46.4122956" lon="12.9416834"><ele>358.6666666666667</ele><time>2026-04-19T07:01:15.211Z</time></trkpt><trkpt lat="46.4122761" lon="12.9414048"><ele>358.3333333333333</ele><time>2026-04-19T07:01:16.211Z</time></trkpt><trkpt lat="46.4122571" lon="12.9411301"><ele>358.0</ele><time>2026-04-19T07:01:17.211Z</time></trkpt><trkpt lat="46.412238" lon="12.9408484"><ele>357.66666666666663</ele><time>2026-04-19T07:01:18.213Z</time></trkpt><trkpt lat="46.4122187" lon="12.9405697"><ele>357.3333333333333</ele><time>2026-04-19T07:01:19.212Z</time></trkpt><trkpt lat="46.4121988" lon="12.9402882"><ele>357.0</ele><time>2026-04-19T07:01:20.212Z</time></trkpt><trkpt lat="46.4121818" lon="12.9400117"><ele>357.0</ele><time>2026-04-19T07:01:21.212Z</time></trkpt><trkpt lat="46.4121623" lon="12.9397358"><ele>357.0</ele><time>2026-04-19T07:01:22.212Z</time></trkpt><trkpt lat="46.4121448" lon="12.9394782"><ele>357.0</ele><time>2026-04-19T07:01:23.211Z</time></trkpt><trkpt lat="46.4121302" lon="12.939239"><ele>355.0</ele><time>2026-04-19T07:01:24.211Z</time></trkpt><trkpt lat="46.4121167" lon="12.9390211"><ele>353.0</ele><time>2026-04-19T07:01:25.211Z</time></trkpt><trkpt lat="46.4121038" lon="12.9388176"><ele>351.0</ele><time>2026-04-19T07:01:26.212Z</time></trkpt><trkpt lat="46.4120937" lon="12.938631"><ele>349.0</ele><time>2026-04-19T07:01:27.212Z</time></trkpt><trkpt lat="46.4120856" lon="12.9384547"><ele>349.6</ele><time>2026-04-19T07:01:28.212Z</time></trkpt><trkpt lat="46.4120841" lon="12.9382903"><ele>350.2</ele><time>2026-04-19T07:01:29.212Z</time></trkpt><trkpt lat="46.412087" lon="12.9381429"><ele>350.8</ele><time>2026-04-19T07:01:30.213Z</time></trkpt><trkpt lat="46.412105" lon="12.9380061"><ele>351.40000000000003</ele><time>2026-04-19T07:01:31.211Z</time></trkpt><trkpt lat="46.4121444" lon="12.9378855"><ele>352.0</ele><time>2026-04-19T07:01:32.212Z</time></trkpt><trkpt lat="46.4121918" lon="12.9377792"><ele>351.8333333333333</ele><time>2026-04-19T07:01:33.212Z</time></trkpt><trkpt lat="46.412237" lon="12.9376733"><ele>351.66666666666663</ele><time>2026-04-19T07:01:34.212Z</time></trkpt><trkpt lat="46.4122518" lon="12.9375619"><ele>351.5</ele><time>2026-04-19T07:01:35.212Z</time></trkpt><trkpt lat="46.4122436" lon="12.9374608"><ele>351.3333333333333</ele><time>2026-04-19T07:01:36.212Z</time></trkpt><trkpt lat="46.4122115" lon="12.9373811"><ele>351.1666666666667</ele><time>2026-04-19T07:01:37.212Z</time></trkpt><trkpt lat="46.4121551" lon="12.9373191"><ele>351.0</ele><time>2026-04-19T07:01:38.212Z</time></trkpt><trkpt lat="46.4120798" lon="12.9372745"><ele>351.0</ele><time>2026-04-19T07:01:39.212Z</time></trkpt><trkpt lat="46.4120003" lon="12.9372289"><ele>351.0</ele><time>2026-04-19T07:01:40.212Z</time></trkpt><trkpt lat="46.4119301" lon="12.9371605"><ele>351.0</ele><time>2026-04-19T07:01:41.211Z</time></trkpt><trkpt lat="46.4118687" lon="12.9370608"><ele>351.0</ele><time>2026-04-19T07:01:42.212Z</time></trkpt><trkpt lat="46.4118188" lon="12.9369365"><ele>351.0</ele><time>2026-04-19T07:01:43.212Z</time></trkpt><trkpt lat="46.4117763" lon="12.9367959"><ele>350.5</ele><time>2026-04-19T07:01:44.212Z</time></trkpt><trkpt lat="46.4117361" lon="12.9366351"><ele>350.0</ele><time>2026-04-19T07:01:45.211Z</time></trkpt><trkpt lat="46.4116956" lon="12.9364614"><ele>349.5</ele><time>2026-04-19T07:01:46.212Z</time></trkpt><trkpt lat="46.4116612" lon="12.9362904"><ele>349.0</ele><time>2026-04-19T07:01:47.211Z</time></trkpt><trkpt lat="46.4116231" lon="12.9361032"><ele>349.0</ele><time>2026-04-19T07:01:48.211Z</time></trkpt><trkpt lat="46.4115863" lon="12.9359097"><ele>349.0</ele><time>2026-04-19T07:01:49.212Z</time></trkpt><trkpt lat="46.4115526" lon="12.9357048"><ele>349.0</ele><time>2026-04-19T07:01:50.212Z</time></trkpt><trkpt lat="46.4115234" lon="12.9354936"><ele>349.0</ele><time>2026-04-19T07:01:51.212Z</time></trkpt><trkpt lat="46.4114987" lon="12.9352805"><ele>349.3333333333333</ele><time>2026-04-19T07:01:52.211Z</time></trkpt><trkpt lat="46.4114762" lon="12.9350622"><ele>349.6666666666667</ele><time>2026-04-19T07:01:53.211Z</time></trkpt><trkpt lat="46.4114594" lon="12.934841"><ele>350.0</ele><time>2026-04-19T07:01:54.212Z</time></trkpt><trkpt lat="46.4114471" lon="12.9346168"><ele>350.6666666666667</ele><time>2026-04-19T07:01:55.213Z</time></trkpt><trkpt lat="46.4114417" lon="12.9343864"><ele>351.3333333333333</ele><time>2026-04-19T07:01:56.212Z</time></trkpt><trkpt lat="46.4114436" lon="12.9341505"><ele>352.0</ele><time>2026-04-19T07:01:57.212Z</time></trkpt><trkpt lat="46.4114529" lon="12.9339109"><ele>352.3333333333333</ele><time>2026-04-19T07:01:58.212Z</time></trkpt><trkpt lat="46.4114705" lon="12.9336732"><ele>352.6666666666667</ele><time>2026-04-19T07:01:59.211Z</time></trkpt><trkpt lat="46.4114922" lon="12.9334383"><ele>353.0</ele><time>2026-04-19T07:02:00.212Z</time></trkpt><trkpt lat="46.4115168" lon="12.9332211"><ele>353.25</ele><time>2026-04-19T07:02:01.212Z</time></trkpt><trkpt lat="46.4115431" lon="12.933018"><ele>353.5</ele><time>2026-04-19T07:02:02.212Z</time></trkpt><trkpt lat="46.4115669" lon="12.9328313"><ele>353.75</ele><time>2026-04-19T07:02:03.211Z</time></trkpt><trkpt lat="46.411593" lon="12.9326591"><ele>354.0</ele><time>2026-04-19T07:02:04.212Z</time></trkpt><trkpt lat="46.4116189" lon="12.9325129"><ele>354.0</ele><time>2026-04-19T07:02:05.212Z</time></trkpt><trkpt lat="46.4116453" lon="12.9323944"><ele>354.0</ele><time>2026-04-19T07:02:06.211Z</time></trkpt><trkpt lat="46.4116808" lon="12.9322849"><ele>354.0</ele><time>2026-04-19T07:02:07.211Z</time></trkpt><trkpt lat="46.4117266" lon="12.932193"><ele>354.0</ele><time>2026-04-19T07:02:08.211Z</time></trkpt><trkpt lat="46.4117828" lon="12.9320919"><ele>354.0</ele><time>2026-04-19T07:02:09.211Z</time></trkpt><trkpt lat="46.4118215" lon="12.9319908"><ele>354.0</ele><time>2026-04-19T07:02:10.211Z</time></trkpt><trkpt lat="46.4118327" lon="12.9318891"><ele>354.0</ele><time>2026-04-19T07:02:11.211Z</time></trkpt><trkpt lat="46.4118207" lon="12.9317684"><ele>354.0</ele><time>2026-04-19T07:02:12.211Z</time></trkpt><trkpt lat="46.4117919" lon="12.931629"><ele>354.0</ele><time>2026-04-19T07:02:13.211Z</time></trkpt><trkpt lat="46.4117752" lon="12.9314624"><ele>354.0</ele><time>2026-04-19T07:02:14.211Z</time></trkpt><trkpt lat="46.4117822" lon="12.931266"><ele>354.0</ele><time>2026-04-19T07:02:15.21Z</time></trkpt><trkpt lat="46.4118008" lon="12.9310585"><ele>354.3333333333333</ele><time>2026-04-19T07:02:16.212Z</time></trkpt><trkpt lat="46.4118238" lon="12.9308453"><ele>354.66666666666663</ele><time>2026-04-19T07:02:17.211Z</time></trkpt><trkpt lat="46.4118495" lon="12.9306094"><ele>355.0</ele><time>2026-04-19T07:02:18.212Z</time></trkpt><trkpt lat="46.4118757" lon="12.9303637"><ele>355.0</ele><time>2026-04-19T07:02:19.212Z</time></trkpt><trkpt lat="46.4119091" lon="12.9300945"><ele>355.0</ele><time>2026-04-19T07:02:20.21Z</time></trkpt><trkpt lat="46.4119455" lon="12.929805"><ele>355.0</ele><time>2026-04-19T07:02:21.211Z</time></trkpt><trkpt lat="46.4119829" lon="12.9294978"><ele>354.66666666666663</ele><time>2026-04-19T07:02:22.212Z</time></trkpt><trkpt lat="46.4120219" lon="12.9291843"><ele>354.3333333333333</ele><time>2026-04-19T07:02:23.211Z</time></trkpt><trkpt lat="46.41206" lon="12.928877"><ele>354.0</ele><time>2026-04-19T07:02:24.211Z</time></trkpt><trkpt lat="46.4120968" lon="12.9285621"><ele>354.5</ele><time>2026-04-19T07:02:25.211Z</time></trkpt><trkpt lat="46.4121333" lon="12.928242"><ele>355.0</ele><time>2026-04-19T07:02:26.211Z</time></trkpt><trkpt lat="46.4121646" lon="12.9279147"><ele>355.0</ele><time>2026-04-19T07:02:27.211Z</time></trkpt><trkpt lat="46.4121895" lon="12.9275795"><ele>355.0</ele><time>2026-04-19T07:02:28.211Z</time></trkpt><trkpt lat="46.412208" lon="12.9272367"><ele>355.0</ele><time>2026-04-19T07:02:29.211Z</time></trkpt><trkpt lat="46.412225" lon="12.9268929"><ele>355.0</ele><time>2026-04-19T07:02:30.211Z</time></trkpt><trkpt lat="46.4122273" lon="12.9265317"><ele>356.0</ele><time>2026-04-19T07:02:31.21Z</time></trkpt><trkpt lat="46.4122305" lon="12.9261722"><ele>357.0</ele><time>2026-04-19T07:02:32.211Z</time></trkpt><trkpt lat="46.4122285" lon="12.9258012"><ele>357.5</ele><time>2026-04-19T07:02:33.211Z</time></trkpt><trkpt lat="46.4122262" lon="12.9254168"><ele>358.0</ele><time>2026-04-19T07:02:34.21Z</time></trkpt><trkpt lat="46.4122219" lon="12.9250484"><ele>358.0</ele><time>2026-04-19T07:02:35.212Z</time></trkpt><trkpt lat="46.4122182" lon="12.924701"><ele>358.0</ele><time>2026-04-19T07:02:36.211Z</time></trkpt><trkpt lat="46.4122122" lon="12.9243805"><ele>358.3333333333333</ele><time>2026-04-19T07:02:37.21Z</time></trkpt><trkpt lat="46.4122133" lon="12.9240772"><ele>358.6666666666667</ele><time>2026-04-19T07:02:38.211Z</time></trkpt><trkpt lat="46.4122113" lon="12.923788"><ele>359.0</ele><time>2026-04-19T07:02:39.211Z</time></trkpt><trkpt lat="46.4122098" lon="12.9235182"><ele>359.6666666666667</ele><time>2026-04-19T07:02:40.211Z</time></trkpt><trkpt lat="46.4122055" lon="12.9232646"><ele>360.3333333333333</ele><time>2026-04-19T07:02:41.21Z</time></trkpt><trkpt lat="46.412202" lon="12.9230215"><ele>361.0</ele><time>2026-04-19T07:02:42.211Z</time></trkpt><trkpt lat="46.4121976" lon="12.9227906"><ele>361.0</ele><time>2026-04-19T07:02:43.211Z</time></trkpt><trkpt lat="46.4121872" lon="12.9225831"><ele>361.0</ele><time>2026-04-19T07:02:44.21Z</time></trkpt><trkpt lat="46.4121694" lon="12.9223883"><ele>361.0</ele><time>2026-04-19T07:02:45.21Z</time></trkpt><trkpt lat="46.4121355" lon="12.9222126"><ele>361.0</ele><time>2026-04-19T07:02:46.211Z</time></trkpt><trkpt lat="46.4120906" lon="12.9220491"><ele>361.0</ele><time>2026-04-19T07:02:47.211Z</time></trkpt><trkpt lat="46.4120305" lon="12.9218896"><ele>361.0</ele><time>2026-04-19T07:02:48.211Z</time></trkpt><trkpt lat="46.4119598" lon="12.9217379"><ele>361.0</ele><time>2026-04-19T07:02:49.211Z</time></trkpt><trkpt lat="46.4118808" lon="12.9215904"><ele>361.0</ele><time>2026-04-19T07:02:50.211Z</time></trkpt><trkpt lat="46.4118015" lon="12.92144"><ele>361.0</ele><time>2026-04-19T07:02:51.211Z</time></trkpt><trkpt lat="46.4117189" lon="12.9212876"><ele>361.0</ele><time>2026-04-19T07:02:52.212Z</time></trkpt><trkpt lat="46.4116372" lon="12.921134"><ele>361.0</ele><time>2026-04-19T07:02:53.211Z</time></trkpt><trkpt lat="46.4115561" lon="12.9209823"><ele>361.0</ele><time>2026-04-19T07:02:54.211Z</time></trkpt><trkpt lat="46.411473" lon="12.9208308"><ele>361.25</ele><time>2026-04-19T07:02:55.211Z</time></trkpt><trkpt lat="46.4113928" lon="12.9206852"><ele>361.5</ele><time>2026-04-19T07:02:56.211Z</time></trkpt><trkpt lat="46.4113108" lon="12.9205345"><ele>361.75</ele><time>2026-04-19T07:02:57.211Z</time></trkpt><trkpt lat="46.4112298" lon="12.9203842"><ele>362.0</ele><time>2026-04-19T07:02:58.21Z</time></trkpt><trkpt lat="46.4111491" lon="12.9202302"><ele>361.75</ele><time>2026-04-19T07:02:59.211Z</time></trkpt><trkpt lat="46.4110678" lon="12.9200786"><ele>361.5</ele><time>2026-04-19T07:03:00.211Z</time></trkpt><trkpt lat="46.4109889" lon="12.9199257"><ele>361.25</ele><time>2026-04-19T07:03:01.211Z</time></trkpt><trkpt lat="46.4109088" lon="12.9197791"><ele>361.0</ele><time>2026-04-19T07:03:02.211Z</time></trkpt><trkpt lat="46.4108388" lon="12.9196438"><ele>361.0</ele><time>2026-04-19T07:03:03.21Z</time></trkpt><trkpt lat="46.4107835" lon="12.9195371"><ele>361.0</ele><time>2026-04-19T07:03:04.21Z</time></trkpt><trkpt lat="46.4107463" lon="12.9194368"><ele>361.0</ele><time>2026-04-19T07:03:05.211Z</time></trkpt><trkpt lat="46.4107291" lon="12.9193387"><ele>361.0</ele><time>2026-04-19T07:03:06.212Z</time></trkpt><trkpt lat="46.4107414" lon="12.9192456"><ele>361.0</ele><time>2026-04-19T07:03:07.211Z</time></trkpt><trkpt lat="46.4107728" lon="12.919161"><ele>361.0</ele><time>2026-04-19T07:03:08.21Z</time></trkpt><trkpt lat="46.410831" lon="12.9190782"><ele>361.25</ele><time>2026-04-19T07:03:09.211Z</time></trkpt><trkpt lat="46.410914" lon="12.9189829"><ele>361.5</ele><time>2026-04-19T07:03:10.212Z</time></trkpt><trkpt lat="46.4110195" lon="12.9188608"><ele>361.75</ele><time>2026-04-19T07:03:11.211Z</time></trkpt><trkpt lat="46.4111353" lon="12.9187256"><ele>362.0</ele><time>2026-04-19T07:03:12.211Z</time></trkpt><trkpt lat="46.4112485" lon="12.9185985"><ele>362.0</ele><time>2026-04-19T07:03:13.211Z</time></trkpt><trkpt lat="46.4113599" lon="12.9184736"><ele>362.0</ele><time>2026-04-19T07:03:14.211Z</time></trkpt><trkpt lat="46.4114709" lon="12.9183466"><ele>362.0</ele><time>2026-04-19T07:03:15.21Z</time></trkpt><trkpt lat="46.4115788" lon="12.9182207"><ele>362.0</ele><time>2026-04-19T07:03:16.211Z</time></trkpt><trkpt lat="46.4116827" lon="12.9181053"><ele>362.20000000000005</ele><time>2026-04-19T07:03:17.211Z</time></trkpt><trkpt lat="46.4117808" lon="12.9179963"><ele>362.4</ele><time>2026-04-19T07:03:18.211Z</time></trkpt><trkpt lat="46.4118735" lon="12.9178975"><ele>362.6</ele><time>2026-04-19T07:03:19.211Z</time></trkpt><trkpt lat="46.411958" lon="12.9178023"><ele>362.79999999999995</ele><time>2026-04-19T07:03:20.212Z</time></trkpt><trkpt lat="46.4120369" lon="12.917714"><ele>363.0</ele><time>2026-04-19T07:03:21.211Z</time></trkpt><trkpt lat="46.41211" lon="12.9176327"><ele>363.4</ele><time>2026-04-19T07:03:22.211Z</time></trkpt><trkpt lat="46.4121815" lon="12.9175547"><ele>363.79999999999995</ele><time>2026-04-19T07:03:23.211Z</time></trkpt><trkpt lat="46.4122507" lon="12.9174759"><ele>364.2</ele><time>2026-04-19T07:03:24.211Z</time></trkpt><trkpt lat="46.4123208" lon="12.9173873"><ele>364.6</ele><time>2026-04-19T07:03:25.212Z</time></trkpt><trkpt lat="46.4123924" lon="12.9172858"><ele>365.0</ele><time>2026-04-19T07:03:26.211Z</time></trkpt><trkpt lat="46.4124655" lon="12.9171735"><ele>365.0</ele><time>2026-04-19T07:03:27.211Z</time></trkpt><trkpt lat="46.4125369" lon="12.9170572"><ele>365.0</ele><time>2026-04-19T07:03:28.211Z</time></trkpt><trkpt lat="46.4126117" lon="12.9169417"><ele>365.0</ele><time>2026-04-19T07:03:29.211Z</time></trkpt><trkpt lat="46.4126881" lon="12.9168243"><ele>365.0</ele><time>2026-04-19T07:03:30.211Z</time></trkpt><trkpt lat="46.4127674" lon="12.9167112"><ele>365.0</ele><time>2026-04-19T07:03:31.211Z</time></trkpt><trkpt lat="46.4128483" lon="12.9165881"><ele>365.0</ele><time>2026-04-19T07:03:32.211Z</time></trkpt><trkpt lat="46.4129256" lon="12.9164632"><ele>365.0</ele><time>2026-04-19T07:03:33.212Z</time></trkpt><trkpt lat="46.4130033" lon="12.9163376"><ele>365.0</ele><time>2026-04-19T07:03:34.212Z</time></trkpt><trkpt lat="46.413083" lon="12.9162093"><ele>365.0</ele><time>2026-04-19T07:03:35.211Z</time></trkpt><trkpt lat="46.4131634" lon="12.9160836"><ele>365.0</ele><time>2026-04-19T07:03:36.212Z</time></trkpt><trkpt lat="46.4132431" lon="12.9159548"><ele>365.0</ele><time>2026-04-19T07:03:37.212Z</time></trkpt><trkpt lat="46.4133259" lon="12.9158268"><ele>365.0</ele><time>2026-04-19T07:03:38.212Z</time></trkpt><trkpt lat="46.4134084" lon="12.9156951"><ele>365.0</ele><time>2026-04-19T07:03:39.21Z</time></trkpt><trkpt lat="46.4134877" lon="12.9155655"><ele>365.4</ele><time>2026-04-19T07:03:40.211Z</time></trkpt><trkpt lat="46.4135649" lon="12.9154377"><ele>365.8</ele><time>2026-04-19T07:03:41.211Z</time></trkpt><trkpt lat="46.4136445" lon="12.9153108"><ele>366.20000000000005</ele><time>2026-04-19T07:03:42.21Z</time></trkpt><trkpt lat="46.4137179" lon="12.915194"><ele>366.6</ele><time>2026-04-19T07:03:43.21Z</time></trkpt><trkpt lat="46.413787" lon="12.9150874"><ele>367.0</ele><time>2026-04-19T07:03:44.211Z</time></trkpt><trkpt lat="46.4138557" lon="12.9149911"><ele>367.3333333333333</ele><time>2026-04-19T07:03:45.21Z</time></trkpt><trkpt lat="46.413918" lon="12.9149169"><ele>367.66666666666663</ele><time>2026-04-19T07:03:46.21Z</time></trkpt><trkpt lat="46.4139767" lon="12.9148717"><ele>368.0</ele><time>2026-04-19T07:03:47.211Z</time></trkpt><trkpt lat="46.4140478" lon="12.9148118"><ele>368.3333333333333</ele><time>2026-04-19T07:03:50.21Z</time></trkpt><trkpt lat="46.4140796" lon="12.9146739"><ele>368.6666666666667</ele><time>2026-04-19T07:03:53.211Z</time></trkpt><trkpt lat="46.4140649" lon="12.9145769"><ele>369.0</ele><time>2026-04-19T07:03:54.211Z</time></trkpt><trkpt lat="46.4140288" lon="12.914459"><ele>369.0</ele><time>2026-04-19T07:03:55.211Z</time></trkpt><trkpt lat="46.4139898" lon="12.9143483"><ele>369.0</ele><time>2026-04-19T07:03:56.211Z</time></trkpt><trkpt lat="46.4139479" lon="12.9142244"><ele>369.0</ele><time>2026-04-19T07:03:57.211Z</time></trkpt><trkpt lat="46.4138975" lon="12.9140798"><ele>369.0</ele><time>2026-04-19T07:03:58.211Z</time></trkpt><trkpt lat="46.4138475" lon="12.9139337"><ele>369.0</ele><time>2026-04-19T07:03:59.212Z</time></trkpt><trkpt lat="46.4137952" lon="12.9137823"><ele>369.0</ele><time>2026-04-19T07:04:00.211Z</time></trkpt><trkpt lat="46.4137382" lon="12.9136149"><ele>369.0</ele><time>2026-04-19T07:04:01.211Z</time></trkpt><trkpt lat="46.4136799" lon="12.9134463"><ele>369.0</ele><time>2026-04-19T07:04:02.21Z</time></trkpt><trkpt lat="46.4136201" lon="12.9132768"><ele>369.0</ele><time>2026-04-19T07:04:03.212Z</time></trkpt><trkpt lat="46.413559" lon="12.9131049"><ele>369.5</ele><time>2026-04-19T07:04:04.211Z</time></trkpt><trkpt lat="46.413498" lon="12.9129273"><ele>370.0</ele><time>2026-04-19T07:04:05.212Z</time></trkpt><trkpt lat="46.4134358" lon="12.9127456"><ele>370.5</ele><time>2026-04-19T07:04:06.211Z</time></trkpt><trkpt lat="46.4133713" lon="12.9125619"><ele>371.0</ele><time>2026-04-19T07:04:07.212Z</time></trkpt><trkpt lat="46.4133072" lon="12.9123707"><ele>371.75</ele><time>2026-04-19T07:04:08.21Z</time></trkpt><trkpt lat="46.4132414" lon="12.9121805"><ele>372.5</ele><time>2026-04-19T07:04:09.212Z</time></trkpt><trkpt lat="46.4131751" lon="12.9119902"><ele>373.25</ele><time>2026-04-19T07:04:10.212Z</time></trkpt><trkpt lat="46.4131082" lon="12.9117953"><ele>374.0</ele><time>2026-04-19T07:04:11.211Z</time></trkpt><trkpt lat="46.4130439" lon="12.9115979"><ele>374.0</ele><time>2026-04-19T07:04:12.211Z</time></trkpt><trkpt lat="46.4129764" lon="12.9113985"><ele>374.0</ele><time>2026-04-19T07:04:13.21Z</time></trkpt><trkpt lat="46.4129095" lon="12.9111986"><ele>374.0</ele><time>2026-04-19T07:04:14.21Z</time></trkpt><trkpt lat="46.4128399" lon="12.9110035"><ele>374.0</ele><time>2026-04-19T07:04:15.211Z</time></trkpt><trkpt lat="46.4127721" lon="12.9108064"><ele>374.0</ele><time>2026-04-19T07:04:16.211Z</time></trkpt><trkpt lat="46.4127083" lon="12.9106213"><ele>374.0</ele><time>2026-04-19T07:04:17.211Z</time></trkpt><trkpt lat="46.412648" lon="12.9104542"><ele>374.0</ele><time>2026-04-19T07:04:18.211Z</time></trkpt><trkpt lat="46.4125988" lon="12.9102997"><ele>374.0</ele><time>2026-04-19T07:04:19.211Z</time></trkpt><trkpt lat="46.4125593" lon="12.9101666"><ele>374.0</ele><time>2026-04-19T07:04:20.212Z</time></trkpt><trkpt lat="46.412531" lon="12.9100514"><ele>374.0</ele><time>2026-04-19T07:04:21.211Z</time></trkpt><trkpt lat="46.412509" lon="12.9099613"><ele>374.0</ele><time>2026-04-19T07:04:22.21Z</time></trkpt><trkpt lat="46.4124714" lon="12.9098515"><ele>374.0</ele><time>2026-04-19T07:04:24.211Z</time></trkpt><trkpt lat="46.4124046" lon="12.9097297"><ele>374.0</ele><time>2026-04-19T07:07:07.209Z</time></trkpt><trkpt lat="46.4123572" lon="12.9096336"><ele>374.0</ele><time>2026-04-19T07:07:08.21Z</time></trkpt><trkpt lat="46.4123126" lon="12.909521"><ele>374.0</ele><time>2026-04-19T07:07:09.21Z</time></trkpt><trkpt lat="46.4122638" lon="12.9093876"><ele>374.0</ele><time>2026-04-19T07:07:10.209Z</time></trkpt><trkpt lat="46.412213" lon="12.9092395"><ele>374.0</ele><time>2026-04-19T07:07:11.209Z</time></trkpt><trkpt lat="46.4121597" lon="12.9090872"><ele>374.0</ele><time>2026-04-19T07:07:12.21Z</time></trkpt><trkpt lat="46.4121014" lon="12.9089237"><ele>372.5</ele><time>2026-04-19T07:07:13.21Z</time></trkpt><trkpt lat="46.4120421" lon="12.9087395"><ele>371.0</ele><time>2026-04-19T07:07:14.21Z</time></trkpt><trkpt lat="46.4119756" lon="12.9085505"><ele>369.5</ele><time>2026-04-19T07:07:15.21Z</time></trkpt><trkpt lat="46.4119063" lon="12.9083494"><ele>368.0</ele><time>2026-04-19T07:07:16.21Z</time></trkpt><trkpt lat="46.4118392" lon="12.9081521"><ele>367.6666666666667</ele><time>2026-04-19T07:07:17.209Z</time></trkpt><trkpt lat="46.4117688" lon="12.907946"><ele>367.3333333333333</ele><time>2026-04-19T07:07:18.211Z</time></trkpt><trkpt lat="46.4116942" lon="12.9077299"><ele>367.0</ele><time>2026-04-19T07:07:19.211Z</time></trkpt><trkpt lat="46.4116169" lon="12.9075028"><ele>367.0</ele><time>2026-04-19T07:07:20.21Z</time></trkpt><trkpt lat="46.4115368" lon="12.9072702"><ele>367.0</ele><time>2026-04-19T07:07:21.21Z</time></trkpt><trkpt lat="46.4114557" lon="12.9070374"><ele>367.0</ele><time>2026-04-19T07:07:22.21Z</time></trkpt><trkpt lat="46.4113761" lon="12.9068009"><ele>367.66666666666663</ele><time>2026-04-19T07:07:23.21Z</time></trkpt><trkpt lat="46.4112909" lon="12.906567"><ele>368.3333333333333</ele><time>2026-04-19T07:07:24.21Z</time></trkpt><trkpt lat="46.4112101" lon="12.9063287"><ele>369.0</ele><time>2026-04-19T07:07:25.21Z</time></trkpt><trkpt lat="46.4111248" lon="12.9060902"><ele>369.0</ele><time>2026-04-19T07:07:26.209Z</time></trkpt><trkpt lat="46.4110406" lon="12.9058459"><ele>369.0</ele><time>2026-04-19T07:07:27.209Z</time></trkpt><trkpt lat="46.4109564" lon="12.9056018"><ele>369.0</ele><time>2026-04-19T07:07:28.209Z</time></trkpt><trkpt lat="46.4108734" lon="12.9053576"><ele>369.0</ele><time>2026-04-19T07:07:29.211Z</time></trkpt><trkpt lat="46.4107893" lon="12.9051099"><ele>369.0</ele><time>2026-04-19T07:07:30.21Z</time></trkpt><trkpt lat="46.4107047" lon="12.9048618"><ele>369.0</ele><time>2026-04-19T07:07:31.21Z</time></trkpt><trkpt lat="46.4106197" lon="12.9046159"><ele>369.0</ele><time>2026-04-19T07:07:32.21Z</time></trkpt><trkpt lat="46.410536" lon="12.904369"><ele>369.0</ele><time>2026-04-19T07:07:33.21Z</time></trkpt><trkpt lat="46.4104567" lon="12.9041213"><ele>369.0</ele><time>2026-04-19T07:07:34.21Z</time></trkpt><trkpt lat="46.410382" lon="12.9038716"><ele>368.6666666666667</ele><time>2026-04-19T07:07:35.21Z</time></trkpt><trkpt lat="46.4103186" lon="12.9036161"><ele>368.33333333333337</ele><time>2026-04-19T07:07:36.21Z</time></trkpt><trkpt lat="46.4102674" lon="12.9033558"><ele>368.0</ele><time>2026-04-19T07:07:37.21Z</time></trkpt><trkpt lat="46.4102244" lon="12.9030927"><ele>368.0</ele><time>2026-04-19T07:07:38.211Z</time></trkpt><trkpt lat="46.4101836" lon="12.9028275"><ele>368.0</ele><time>2026-04-19T07:07:39.209Z</time></trkpt><trkpt lat="46.410147" lon="12.9025601"><ele>368.0</ele><time>2026-04-19T07:07:40.21Z</time></trkpt><trkpt lat="46.4101084" lon="12.902296"><ele>368.6666666666667</ele><time>2026-04-19T07:07:41.21Z</time></trkpt><trkpt lat="46.4100692" lon="12.9020322"><ele>369.3333333333333</ele><time>2026-04-19T07:07:42.21Z</time></trkpt><trkpt lat="46.4100307" lon="12.9017692"><ele>370.0</ele><time>2026-04-19T07:07:43.21Z</time></trkpt><trkpt lat="46.4099906" lon="12.9015086"><ele>370.0</ele><time>2026-04-19T07:07:44.21Z</time></trkpt><trkpt lat="46.4099554" lon="12.9012422"><ele>370.0</ele><time>2026-04-19T07:07:45.209Z</time></trkpt><trkpt lat="46.4099162" lon="12.9009775"><ele>370.0</ele><time>2026-04-19T07:07:46.21Z</time></trkpt><trkpt lat="46.40988" lon="12.9007135"><ele>370.66666666666663</ele><time>2026-04-19T07:07:47.21Z</time></trkpt><trkpt lat="46.4098437" lon="12.9004626"><ele>371.3333333333333</ele><time>2026-04-19T07:07:48.21Z</time></trkpt><trkpt lat="46.4098097" lon="12.9002272"><ele>372.0</ele><time>2026-04-19T07:07:49.21Z</time></trkpt><trkpt lat="46.4097789" lon="12.8999985"><ele>372.6666666666667</ele><time>2026-04-19T07:07:50.21Z</time></trkpt><trkpt lat="46.4097502" lon="12.899771"><ele>373.33333333333337</ele><time>2026-04-19T07:07:51.209Z</time></trkpt><trkpt lat="46.4097255" lon="12.8995468"><ele>374.0</ele><time>2026-04-19T07:07:52.21Z</time></trkpt><trkpt lat="46.4097063" lon="12.8993211"><ele>374.0</ele><time>2026-04-19T07:07:53.21Z</time></trkpt><trkpt lat="46.4096889" lon="12.8990934"><ele>374.0</ele><time>2026-04-19T07:07:54.21Z</time></trkpt><trkpt lat="46.4096755" lon="12.898862"><ele>374.0</ele><time>2026-04-19T07:07:55.209Z</time></trkpt><trkpt lat="46.4096649" lon="12.8986273"><ele>373.0</ele><time>2026-04-19T07:07:56.21Z</time></trkpt><trkpt lat="46.4096534" lon="12.8983915"><ele>372.0</ele><time>2026-04-19T07:07:57.21Z</time></trkpt><trkpt lat="46.409643" lon="12.898156"><ele>371.0</ele><time>2026-04-19T07:07:58.21Z</time></trkpt><trkpt lat="46.4096318" lon="12.8979134"><ele>371.0</ele><time>2026-04-19T07:07:59.21Z</time></trkpt><trkpt lat="46.4096215" lon="12.8976742"><ele>371.0</ele><time>2026-04-19T07:08:00.21Z</time></trkpt><trkpt lat="46.4096119" lon="12.8974334"><ele>371.0</ele><time>2026-04-19T07:08:01.211Z</time></trkpt><trkpt lat="46.4095997" lon="12.8971948"><ele>371.0</ele><time>2026-04-19T07:08:02.21Z</time></trkpt><trkpt lat="46.4095899" lon="12.8969588"><ele>371.0</ele><time>2026-04-19T07:08:03.21Z</time></trkpt><trkpt lat="46.4095798" lon="12.8967176"><ele>371.0</ele><time>2026-04-19T07:08:04.21Z</time></trkpt><trkpt lat="46.4095682" lon="12.8964813"><ele>371.0</ele><time>2026-04-19T07:08:05.21Z</time></trkpt><trkpt lat="46.4095553" lon="12.8962446"><ele>371.0</ele><time>2026-04-19T07:08:06.21Z</time></trkpt><trkpt lat="46.4095405" lon="12.8960073"><ele>371.0</ele><time>2026-04-19T07:08:07.21Z</time></trkpt><trkpt lat="46.4095256" lon="12.8957741"><ele>372.0</ele><time>2026-04-19T07:08:08.21Z</time></trkpt><trkpt lat="46.4095164" lon="12.8955374"><ele>373.0</ele><time>2026-04-19T07:08:09.211Z</time></trkpt><trkpt lat="46.4095043" lon="12.8953031"><ele>374.0</ele><time>2026-04-19T07:08:10.21Z</time></trkpt><trkpt lat="46.4094966" lon="12.8950672"><ele>374.0</ele><time>2026-04-19T07:08:11.209Z</time></trkpt><trkpt lat="46.4094862" lon="12.8948321"><ele>374.0</ele><time>2026-04-19T07:08:12.21Z</time></trkpt><trkpt lat="46.409474" lon="12.8945942"><ele>374.0</ele><time>2026-04-19T07:08:13.211Z</time></trkpt><trkpt lat="46.4094615" lon="12.8943558"><ele>374.0</ele><time>2026-04-19T07:08:14.21Z</time></trkpt><trkpt lat="46.4094505" lon="12.8941206"><ele>374.0</ele><time>2026-04-19T07:08:15.21Z</time></trkpt><trkpt lat="46.4094417" lon="12.8938891"><ele>374.0</ele><time>2026-04-19T07:08:16.211Z</time></trkpt><trkpt lat="46.4094311" lon="12.8936738"><ele>374.0</ele><time>2026-04-19T07:08:17.211Z</time></trkpt><trkpt lat="46.4094247" lon="12.8934715"><ele>374.0</ele><time>2026-04-19T07:08:18.209Z</time></trkpt><trkpt lat="46.4094261" lon="12.8932767"><ele>374.0</ele><time>2026-04-19T07:08:19.21Z</time></trkpt><trkpt lat="46.4094384" lon="12.8930866"><ele>374.0</ele><time>2026-04-19T07:08:20.21Z</time></trkpt><trkpt lat="46.4094625" lon="12.8928939"><ele>374.25</ele><time>2026-04-19T07:08:21.21Z</time></trkpt><trkpt lat="46.4094989" lon="12.8926959"><ele>374.5</ele><time>2026-04-19T07:08:22.209Z</time></trkpt><trkpt lat="46.4095487" lon="12.8924978"><ele>374.75</ele><time>2026-04-19T07:08:23.21Z</time></trkpt><trkpt lat="46.4096079" lon="12.892307"><ele>375.0</ele><time>2026-04-19T07:08:24.211Z</time></trkpt><trkpt lat="46.4096733" lon="12.8921132"><ele>374.6666666666667</ele><time>2026-04-19T07:08:25.21Z</time></trkpt><trkpt lat="46.4097436" lon="12.8919205"><ele>374.33333333333337</ele><time>2026-04-19T07:08:26.21Z</time></trkpt><trkpt lat="46.4098179" lon="12.891727"><ele>374.0</ele><time>2026-04-19T07:08:27.21Z</time></trkpt><trkpt lat="46.4098956" lon="12.8915309"><ele>374.0</ele><time>2026-04-19T07:08:28.21Z</time></trkpt><trkpt lat="46.4099749" lon="12.8913352"><ele>374.0</ele><time>2026-04-19T07:08:29.21Z</time></trkpt><trkpt lat="46.410046" lon="12.8911478"><ele>374.0</ele><time>2026-04-19T07:08:30.21Z</time></trkpt><trkpt lat="46.4101009" lon="12.8909435"><ele>375.0</ele><time>2026-04-19T07:08:31.21Z</time></trkpt><trkpt lat="46.4101385" lon="12.890729"><ele>376.0</ele><time>2026-04-19T07:08:32.21Z</time></trkpt><trkpt lat="46.4101543" lon="12.8905077"><ele>377.0</ele><time>2026-04-19T07:08:33.21Z</time></trkpt><trkpt lat="46.4101513" lon="12.8902814"><ele>377.6666666666667</ele><time>2026-04-19T07:08:34.21Z</time></trkpt><trkpt lat="46.4101263" lon="12.8900544"><ele>378.3333333333333</ele><time>2026-04-19T07:08:35.21Z</time></trkpt><trkpt lat="46.4100925" lon="12.8898282"><ele>379.0</ele><time>2026-04-19T07:08:36.209Z</time></trkpt><trkpt lat="46.4100559" lon="12.889601"><ele>379.0</ele><time>2026-04-19T07:08:37.209Z</time></trkpt><trkpt lat="46.4100179" lon="12.8893727"><ele>379.0</ele><time>2026-04-19T07:08:38.209Z</time></trkpt><trkpt lat="46.4099808" lon="12.889144"><ele>379.0</ele><time>2026-04-19T07:08:39.211Z</time></trkpt><trkpt lat="46.4099406" lon="12.8889182"><ele>379.66666666666663</ele><time>2026-04-19T07:08:40.21Z</time></trkpt><trkpt lat="46.4099037" lon="12.8886892"><ele>380.3333333333333</ele><time>2026-04-19T07:08:41.209Z</time></trkpt><trkpt lat="46.4098841" lon="12.888455"><ele>381.0</ele><time>2026-04-19T07:08:42.209Z</time></trkpt><trkpt lat="46.4098886" lon="12.8882196"><ele>381.3333333333333</ele><time>2026-04-19T07:08:43.21Z</time></trkpt><trkpt lat="46.4099096" lon="12.8879897"><ele>381.66666666666663</ele><time>2026-04-19T07:08:44.209Z</time></trkpt><trkpt lat="46.4099315" lon="12.8877689"><ele>382.0</ele><time>2026-04-19T07:08:45.21Z</time></trkpt><trkpt lat="46.4099535" lon="12.8875427"><ele>382.0</ele><time>2026-04-19T07:08:46.21Z</time></trkpt><trkpt lat="46.4099757" lon="12.8873181"><ele>382.0</ele><time>2026-04-19T07:08:47.21Z</time></trkpt><trkpt lat="46.4099896" lon="12.8870925"><ele>382.0</ele><time>2026-04-19T07:08:48.21Z</time></trkpt><trkpt lat="46.4099988" lon="12.8868686"><ele>381.0</ele><time>2026-04-19T07:08:49.21Z</time></trkpt><trkpt lat="46.4100007" lon="12.8866418"><ele>380.0</ele><time>2026-04-19T07:08:50.209Z</time></trkpt><trkpt lat="46.4100033" lon="12.8864135"><ele>379.0</ele><time>2026-04-19T07:08:51.211Z</time></trkpt><trkpt lat="46.410002" lon="12.8861882"><ele>379.0</ele><time>2026-04-19T07:08:52.209Z</time></trkpt><trkpt lat="46.4099993" lon="12.8859645"><ele>379.0</ele><time>2026-04-19T07:08:53.209Z</time></trkpt><trkpt lat="46.4099999" lon="12.8857377"><ele>379.0</ele><time>2026-04-19T07:08:54.21Z</time></trkpt><trkpt lat="46.4100008" lon="12.8855087"><ele>379.3333333333333</ele><time>2026-04-19T07:08:55.21Z</time></trkpt><trkpt lat="46.4100011" lon="12.885281"><ele>379.6666666666667</ele><time>2026-04-19T07:08:56.21Z</time></trkpt><trkpt lat="46.4100009" lon="12.8850536"><ele>380.0</ele><time>2026-04-19T07:08:57.21Z</time></trkpt><trkpt lat="46.4100016" lon="12.8848242"><ele>380.6666666666667</ele><time>2026-04-19T07:08:58.209Z</time></trkpt><trkpt lat="46.410001" lon="12.884599"><ele>381.3333333333333</ele><time>2026-04-19T07:08:59.21Z</time></trkpt><trkpt lat="46.4100003" lon="12.884369"><ele>382.0</ele><time>2026-04-19T07:09:00.21Z</time></trkpt><trkpt lat="46.4100003" lon="12.8841414"><ele>383.0</ele><time>2026-04-19T07:09:01.21Z</time></trkpt><trkpt lat="46.409998" lon="12.8839144"><ele>384.0</ele><time>2026-04-19T07:09:02.21Z</time></trkpt><trkpt lat="46.4099917" lon="12.8836904"><ele>385.0</ele><time>2026-04-19T07:09:03.21Z</time></trkpt><trkpt lat="46.4099753" lon="12.883466"><ele>385.33333333333337</ele><time>2026-04-19T07:09:04.209Z</time></trkpt><trkpt lat="46.4099488" lon="12.8832454"><ele>385.66666666666663</ele><time>2026-04-19T07:09:05.211Z</time></trkpt><trkpt lat="46.4099116" lon="12.8830316"><ele>386.0</ele><time>2026-04-19T07:09:06.209Z</time></trkpt><trkpt lat="46.4098735" lon="12.8828146"><ele>387.66666666666663</ele><time>2026-04-19T07:09:07.21Z</time></trkpt><trkpt lat="46.4098452" lon="12.8825955"><ele>389.33333333333337</ele><time>2026-04-19T07:09:08.21Z</time></trkpt><trkpt lat="46.409834" lon="12.882374"><ele>391.0</ele><time>2026-04-19T07:09:09.21Z</time></trkpt><trkpt lat="46.4098417" lon="12.8821513"><ele>391.0</ele><time>2026-04-19T07:09:10.211Z</time></trkpt><trkpt lat="46.4098608" lon="12.8819294"><ele>391.0</ele><time>2026-04-19T07:09:11.21Z</time></trkpt><trkpt lat="46.4098772" lon="12.8817075"><ele>391.0</ele><time>2026-04-19T07:09:12.21Z</time></trkpt><trkpt lat="46.4098853" lon="12.8814846"><ele>391.0</ele><time>2026-04-19T07:09:13.209Z</time></trkpt><trkpt lat="46.4098897" lon="12.8812593"><ele>391.0</ele><time>2026-04-19T07:09:14.209Z</time></trkpt><trkpt lat="46.4098941" lon="12.881033"><ele>391.0</ele><time>2026-04-19T07:09:15.21Z</time></trkpt><trkpt lat="46.4098948" lon="12.8808028"><ele>391.0</ele><time>2026-04-19T07:09:16.21Z</time></trkpt><trkpt lat="46.4098946" lon="12.8805767"><ele>391.0</ele><time>2026-04-19T07:09:17.211Z</time></trkpt><trkpt lat="46.4098955" lon="12.8803622"><ele>391.0</ele><time>2026-04-19T07:09:18.21Z</time></trkpt><trkpt lat="46.4098972" lon="12.8801655"><ele>391.0</ele><time>2026-04-19T07:09:19.21Z</time></trkpt><trkpt lat="46.4098977" lon="12.8799791"><ele>391.75</ele><time>2026-04-19T07:09:20.209Z</time></trkpt><trkpt lat="46.4098997" lon="12.879806"><ele>392.5</ele><time>2026-04-19T07:09:21.21Z</time></trkpt><trkpt lat="46.40989" lon="12.8796427"><ele>393.25</ele><time>2026-04-19T07:09:22.21Z</time></trkpt><trkpt lat="46.4098736" lon="12.8794863"><ele>394.0</ele><time>2026-04-19T07:09:23.21Z</time></trkpt><trkpt lat="46.4098456" lon="12.8793335"><ele>394.4</ele><time>2026-04-19T07:09:24.21Z</time></trkpt><trkpt lat="46.409811" lon="12.8791844"><ele>394.79999999999995</ele><time>2026-04-19T07:09:25.21Z</time></trkpt><trkpt lat="46.4097711" lon="12.8790345"><ele>395.20000000000005</ele><time>2026-04-19T07:09:26.211Z</time></trkpt><trkpt lat="46.4097336" lon="12.878891"><ele>395.6</ele><time>2026-04-19T07:09:27.209Z</time></trkpt><trkpt lat="46.4097011" lon="12.8787541"><ele>396.0</ele><time>2026-04-19T07:09:28.21Z</time></trkpt><trkpt lat="46.4096745" lon="12.8786183"><ele>396.0</ele><time>2026-04-19T07:09:29.209Z</time></trkpt><trkpt lat="46.4096589" lon="12.8784724"><ele>396.0</ele><time>2026-04-19T07:09:30.209Z</time></trkpt><trkpt lat="46.4096584" lon="12.8783161"><ele>396.0</ele><time>2026-04-19T07:09:31.21Z</time></trkpt><trkpt lat="46.4096692" lon="12.878154"><ele>396.0</ele><time>2026-04-19T07:09:32.209Z</time></trkpt><trkpt lat="46.4096907" lon="12.8779859"><ele>396.0</ele><time>2026-04-19T07:09:33.209Z</time></trkpt><trkpt lat="46.4097142" lon="12.8778193"><ele>396.0</ele><time>2026-04-19T07:09:34.209Z</time></trkpt><trkpt lat="46.4097393" lon="12.8776446"><ele>396.0</ele><time>2026-04-19T07:09:35.21Z</time></trkpt><trkpt lat="46.4097622" lon="12.8774606"><ele>396.0</ele><time>2026-04-19T07:09:36.21Z</time></trkpt><trkpt lat="46.4097874" lon="12.8772777"><ele>396.0</ele><time>2026-04-19T07:09:37.21Z</time></trkpt><trkpt lat="46.4098022" lon="12.8770872"><ele>395.75</ele><time>2026-04-19T07:09:38.21Z</time></trkpt><trkpt lat="46.4098168" lon="12.8768982"><ele>395.5</ele><time>2026-04-19T07:09:39.21Z</time></trkpt><trkpt lat="46.4098333" lon="12.8767136"><ele>395.25</ele><time>2026-04-19T07:09:40.21Z</time></trkpt><trkpt lat="46.4098476" lon="12.8765359"><ele>395.0</ele><time>2026-04-19T07:09:41.21Z</time></trkpt><trkpt lat="46.4098586" lon="12.876358"><ele>394.75</ele><time>2026-04-19T07:09:42.21Z</time></trkpt><trkpt lat="46.4098485" lon="12.8761874"><ele>394.5</ele><time>2026-04-19T07:09:43.21Z</time></trkpt><trkpt lat="46.4098147" lon="12.8760234"><ele>394.25</ele><time>2026-04-19T07:09:44.209Z</time></trkpt><trkpt lat="46.4097571" lon="12.8758782"><ele>394.0</ele><time>2026-04-19T07:09:45.209Z</time></trkpt><trkpt lat="46.4096788" lon="12.8757483"><ele>393.5</ele><time>2026-04-19T07:09:46.209Z</time></trkpt><trkpt lat="46.40959" lon="12.8756261"><ele>393.0</ele><time>2026-04-19T07:09:47.21Z</time></trkpt><trkpt lat="46.4094986" lon="12.8754997"><ele>392.5</ele><time>2026-04-19T07:09:48.21Z</time></trkpt><trkpt lat="46.4094044" lon="12.8753729"><ele>392.0</ele><time>2026-04-19T07:09:49.211Z</time></trkpt><trkpt lat="46.4093119" lon="12.8752463"><ele>392.0</ele><time>2026-04-19T07:09:50.21Z</time></trkpt><trkpt lat="46.4092133" lon="12.8751233"><ele>392.0</ele><time>2026-04-19T07:09:51.211Z</time></trkpt><trkpt lat="46.4091155" lon="12.8749976"><ele>392.0</ele><time>2026-04-19T07:09:52.209Z</time></trkpt><trkpt lat="46.4090188" lon="12.8748684"><ele>392.0</ele><time>2026-04-19T07:09:53.21Z</time></trkpt><trkpt lat="46.4089222" lon="12.8747346"><ele>392.25</ele><time>2026-04-19T07:09:54.21Z</time></trkpt><trkpt lat="46.4088249" lon="12.8745992"><ele>392.5</ele><time>2026-04-19T07:09:55.21Z</time></trkpt><trkpt lat="46.4087267" lon="12.8744648"><ele>392.75</ele><time>2026-04-19T07:09:56.209Z</time></trkpt><trkpt lat="46.4086266" lon="12.8743338"><ele>393.0</ele><time>2026-04-19T07:09:57.209Z</time></trkpt><trkpt lat="46.4085274" lon="12.8742045"><ele>393.5</ele><time>2026-04-19T07:09:58.209Z</time></trkpt><trkpt lat="46.4084263" lon="12.8740724"><ele>394.0</ele><time>2026-04-19T07:09:59.209Z</time></trkpt><trkpt lat="46.408324" lon="12.8739401"><ele>394.5</ele><time>2026-04-19T07:10:00.209Z</time></trkpt><trkpt lat="46.4082231" lon="12.8738032"><ele>395.0</ele><time>2026-04-19T07:10:01.209Z</time></trkpt><trkpt lat="46.4081208" lon="12.8736692"><ele>395.0</ele><time>2026-04-19T07:10:02.209Z</time></trkpt><trkpt lat="46.4080216" lon="12.8735309"><ele>395.0</ele><time>2026-04-19T07:10:03.21Z</time></trkpt><trkpt lat="46.4079207" lon="12.8733883"><ele>395.0</ele><time>2026-04-19T07:10:04.209Z</time></trkpt><trkpt lat="46.4078186" lon="12.8732514"><ele>395.0</ele><time>2026-04-19T07:10:05.209Z</time></trkpt><trkpt lat="46.4077192" lon="12.8731108"><ele>395.0</ele><time>2026-04-19T07:10:06.209Z</time></trkpt><trkpt lat="46.4076182" lon="12.8729739"><ele>395.0</ele><time>2026-04-19T07:10:07.21Z</time></trkpt><trkpt lat="46.4075163" lon="12.8728364"><ele>395.0</ele><time>2026-04-19T07:10:08.21Z</time></trkpt><trkpt lat="46.4074148" lon="12.8726983"><ele>395.0</ele><time>2026-04-19T07:10:09.209Z</time></trkpt><trkpt lat="46.4073124" lon="12.8725604"><ele>396.25</ele><time>2026-04-19T07:10:10.208Z</time></trkpt><trkpt lat="46.4072125" lon="12.8724199"><ele>397.5</ele><time>2026-04-19T07:10:11.209Z</time></trkpt><trkpt lat="46.4071147" lon="12.8722711"><ele>398.75</ele><time>2026-04-19T07:10:12.209Z</time></trkpt><trkpt lat="46.4070196" lon="12.8721166"><ele>400.0</ele><time>2026-04-19T07:10:13.209Z</time></trkpt><trkpt lat="46.4069252" lon="12.8719604"><ele>401.25</ele><time>2026-04-19T07:10:14.209Z</time></trkpt><trkpt lat="46.4068334" lon="12.8718001"><ele>402.5</ele><time>2026-04-19T07:10:15.208Z</time></trkpt><trkpt lat="46.4067441" lon="12.8716364"><ele>403.75</ele><time>2026-04-19T07:10:16.208Z</time></trkpt><trkpt lat="46.4066567" lon="12.8714644"><ele>405.0</ele><time>2026-04-19T07:10:17.209Z</time></trkpt><trkpt lat="46.406574" lon="12.8712868"><ele>404.75</ele><time>2026-04-19T07:10:18.21Z</time></trkpt><trkpt lat="46.4064957" lon="12.8711035"><ele>404.5</ele><time>2026-04-19T07:10:19.208Z</time></trkpt><trkpt lat="46.4064247" lon="12.8709137"><ele>404.25</ele><time>2026-04-19T07:10:20.208Z</time></trkpt><trkpt lat="46.4063584" lon="12.8707185"><ele>404.0</ele><time>2026-04-19T07:10:21.209Z</time></trkpt><trkpt lat="46.4062996" lon="12.8705142"><ele>404.0</ele><time>2026-04-19T07:10:22.21Z</time></trkpt><trkpt lat="46.4062483" lon="12.8703025"><ele>404.0</ele><time>2026-04-19T07:10:23.209Z</time></trkpt><trkpt lat="46.4062055" lon="12.8700863"><ele>404.0</ele><time>2026-04-19T07:10:24.21Z</time></trkpt><trkpt lat="46.4061681" lon="12.8698651"><ele>405.3333333333333</ele><time>2026-04-19T07:10:25.209Z</time></trkpt><trkpt lat="46.4061381" lon="12.8696422"><ele>406.66666666666663</ele><time>2026-04-19T07:10:26.209Z</time></trkpt><trkpt lat="46.4061154" lon="12.8694141"><ele>408.0</ele><time>2026-04-19T07:10:27.209Z</time></trkpt><trkpt lat="46.4060986" lon="12.8691832"><ele>410.33333333333337</ele><time>2026-04-19T07:10:28.208Z</time></trkpt><trkpt lat="46.4060889" lon="12.8689482"><ele>412.6666666666667</ele><time>2026-04-19T07:10:29.209Z</time></trkpt><trkpt lat="46.4060867" lon="12.8687105"><ele>415.0</ele><time>2026-04-19T07:10:30.21Z</time></trkpt><trkpt lat="46.4060913" lon="12.8684729"><ele>414.33333333333337</ele><time>2026-04-19T07:10:31.209Z</time></trkpt><trkpt lat="46.4060999" lon="12.868235"><ele>413.66666666666663</ele><time>2026-04-19T07:10:32.209Z</time></trkpt><trkpt lat="46.4061114" lon="12.8679955"><ele>413.0</ele><time>2026-04-19T07:10:33.209Z</time></trkpt><trkpt lat="46.4061232" lon="12.8677556"><ele>409.0</ele><time>2026-04-19T07:10:34.209Z</time></trkpt><trkpt lat="46.4061371" lon="12.8675138"><ele>405.0</ele><time>2026-04-19T07:10:35.208Z</time></trkpt><trkpt lat="46.4061518" lon="12.8672723"><ele>401.0</ele><time>2026-04-19T07:10:36.209Z</time></trkpt><trkpt lat="46.4061639" lon="12.8670274"><ele>401.0</ele><time>2026-04-19T07:10:37.209Z</time></trkpt><trkpt lat="46.406173" lon="12.8667818"><ele>401.0</ele><time>2026-04-19T07:10:38.21Z</time></trkpt><trkpt lat="46.4061812" lon="12.8665337"><ele>401.0</ele><time>2026-04-19T07:10:39.209Z</time></trkpt><trkpt lat="46.4061836" lon="12.8662824"><ele>400.66666666666663</ele><time>2026-04-19T07:10:40.209Z</time></trkpt><trkpt lat="46.4061806" lon="12.8660267"><ele>400.33333333333337</ele><time>2026-04-19T07:10:41.21Z</time></trkpt><trkpt lat="46.4061695" lon="12.8657691"><ele>400.0</ele><time>2026-04-19T07:10:42.209Z</time></trkpt><trkpt lat="46.4061516" lon="12.8655121"><ele>400.0</ele><time>2026-04-19T07:10:43.209Z</time></trkpt><trkpt lat="46.4061248" lon="12.8652554"><ele>400.0</ele><time>2026-04-19T07:10:44.209Z</time></trkpt><trkpt lat="46.4060908" lon="12.8649995"><ele>400.0</ele><time>2026-04-19T07:10:45.209Z</time></trkpt><trkpt lat="46.40605" lon="12.8647463"><ele>399.6666666666667</ele><time>2026-04-19T07:10:46.209Z</time></trkpt><trkpt lat="46.4060004" lon="12.8644992"><ele>399.33333333333337</ele><time>2026-04-19T07:10:47.209Z</time></trkpt><trkpt lat="46.4059445" lon="12.8642565"><ele>399.0</ele><time>2026-04-19T07:10:48.209Z</time></trkpt><trkpt lat="46.4058784" lon="12.864019"><ele>399.0</ele><time>2026-04-19T07:10:49.209Z</time></trkpt><trkpt lat="46.4058096" lon="12.8637865"><ele>399.0</ele><time>2026-04-19T07:10:50.209Z</time></trkpt><trkpt lat="46.4057378" lon="12.8635583"><ele>399.0</ele><time>2026-04-19T07:10:51.208Z</time></trkpt><trkpt lat="46.4056599" lon="12.8633347"><ele>400.0</ele><time>2026-04-19T07:10:52.208Z</time></trkpt><trkpt lat="46.405574" lon="12.8631172"><ele>401.0</ele><time>2026-04-19T07:10:53.209Z</time></trkpt><trkpt lat="46.4054875" lon="12.862904"><ele>402.0</ele><time>2026-04-19T07:10:54.209Z</time></trkpt><trkpt lat="46.4053987" lon="12.8626935"><ele>403.0</ele><time>2026-04-19T07:10:55.209Z</time></trkpt><trkpt lat="46.4053108" lon="12.8624903"><ele>404.0</ele><time>2026-04-19T07:10:56.209Z</time></trkpt><trkpt lat="46.4052288" lon="12.8622938"><ele>405.0</ele><time>2026-04-19T07:10:57.209Z</time></trkpt><trkpt lat="46.4051532" lon="12.8621017"><ele>405.0</ele><time>2026-04-19T07:10:58.209Z</time></trkpt><trkpt lat="46.4050847" lon="12.8619108"><ele>405.0</ele><time>2026-04-19T07:10:59.208Z</time></trkpt><trkpt lat="46.4050205" lon="12.8617183"><ele>405.0</ele><time>2026-04-19T07:11:00.209Z</time></trkpt><trkpt lat="46.4049648" lon="12.861517"><ele>405.0</ele><time>2026-04-19T07:11:01.209Z</time></trkpt><trkpt lat="46.4049188" lon="12.8613084"><ele>405.66666666666663</ele><time>2026-04-19T07:11:02.209Z</time></trkpt><trkpt lat="46.4048831" lon="12.8610965"><ele>406.3333333333333</ele><time>2026-04-19T07:11:03.208Z</time></trkpt><trkpt lat="46.4048482" lon="12.8608855"><ele>407.0</ele><time>2026-04-19T07:11:04.209Z</time></trkpt><trkpt lat="46.4048101" lon="12.8606742"><ele>408.66666666666663</ele><time>2026-04-19T07:11:05.208Z</time></trkpt><trkpt lat="46.4047693" lon="12.8604619"><ele>410.33333333333337</ele><time>2026-04-19T07:11:06.208Z</time></trkpt><trkpt lat="46.4047269" lon="12.8602482"><ele>412.0</ele><time>2026-04-19T07:11:07.208Z</time></trkpt><trkpt lat="46.404688" lon="12.8600318"><ele>409.25</ele><time>2026-04-19T07:11:08.208Z</time></trkpt><trkpt lat="46.4046474" lon="12.8598283"><ele>406.5</ele><time>2026-04-19T07:11:09.208Z</time></trkpt><trkpt lat="46.4046022" lon="12.8596382"><ele>403.75</ele><time>2026-04-19T07:11:10.209Z</time></trkpt><trkpt lat="46.4045494" lon="12.8594743"><ele>401.0</ele><time>2026-04-19T07:11:11.209Z</time></trkpt><trkpt lat="46.4044897" lon="12.8593323"><ele>401.8</ele><time>2026-04-19T07:11:12.209Z</time></trkpt><trkpt lat="46.4044231" lon="12.8592052"><ele>402.6</ele><time>2026-04-19T07:11:13.209Z</time></trkpt><trkpt lat="46.4043482" lon="12.8590908"><ele>403.4</ele><time>2026-04-19T07:11:14.209Z</time></trkpt><trkpt lat="46.4042663" lon="12.8589898"><ele>404.2</ele><time>2026-04-19T07:11:15.208Z</time></trkpt><trkpt lat="46.4041817" lon="12.8589053"><ele>405.0</ele><time>2026-04-19T07:11:16.209Z</time></trkpt><trkpt lat="46.4040943" lon="12.8588268"><ele>405.0</ele><time>2026-04-19T07:11:17.209Z</time></trkpt><trkpt lat="46.4040123" lon="12.8587881"><ele>405.0</ele><time>2026-04-19T07:11:18.21Z</time></trkpt><trkpt lat="46.4039372" lon="12.858783"><ele>405.0</ele><time>2026-04-19T07:11:19.209Z</time></trkpt><trkpt lat="46.4038706" lon="12.858802"><ele>405.0</ele><time>2026-04-19T07:11:20.208Z</time></trkpt><trkpt lat="46.4038107" lon="12.8588316"><ele>405.0</ele><time>2026-04-19T07:11:21.209Z</time></trkpt><trkpt lat="46.4037088" lon="12.8588059"><ele>405.0</ele><time>2026-04-19T07:11:23.208Z</time></trkpt><trkpt lat="46.403656" lon="12.8587488"><ele>403.3333333333333</ele><time>2026-04-19T07:11:24.209Z</time></trkpt><trkpt lat="46.4035978" lon="12.8586874"><ele>401.66666666666663</ele><time>2026-04-19T07:11:25.21Z</time></trkpt><trkpt lat="46.4035339" lon="12.8586295"><ele>400.0</ele><time>2026-04-19T07:11:26.208Z</time></trkpt><trkpt lat="46.403469" lon="12.8585675"><ele>398.3333333333333</ele><time>2026-04-19T07:11:27.209Z</time></trkpt><trkpt lat="46.4034057" lon="12.8584943"><ele>396.66666666666663</ele><time>2026-04-19T07:11:28.209Z</time></trkpt><trkpt lat="46.4033386" lon="12.8584103"><ele>395.0</ele><time>2026-04-19T07:11:29.209Z</time></trkpt><trkpt lat="46.4032751" lon="12.8583187"><ele>395.0</ele><time>2026-04-19T07:11:30.209Z</time></trkpt><trkpt lat="46.4032115" lon="12.858219"><ele>395.0</ele><time>2026-04-19T07:11:31.208Z</time></trkpt><trkpt lat="46.4031446" lon="12.8581178"><ele>395.0</ele><time>2026-04-19T07:11:32.21Z</time></trkpt><trkpt lat="46.4030721" lon="12.8580238"><ele>395.0</ele><time>2026-04-19T07:11:33.209Z</time></trkpt><trkpt lat="46.4029955" lon="12.8579326"><ele>395.0</ele><time>2026-04-19T07:11:34.21Z</time></trkpt><trkpt lat="46.4029183" lon="12.8578429"><ele>394.0</ele><time>2026-04-19T07:11:35.21Z</time></trkpt><trkpt lat="46.4028442" lon="12.8577533"><ele>393.0</ele><time>2026-04-19T07:11:36.21Z</time></trkpt><trkpt lat="46.4027724" lon="12.8576658"><ele>392.0</ele><time>2026-04-19T07:11:37.208Z</time></trkpt><trkpt lat="46.402702" lon="12.8575781"><ele>391.0</ele><time>2026-04-19T07:11:38.208Z</time></trkpt><trkpt lat="46.4026274" lon="12.8574889"><ele>390.0</ele><time>2026-04-19T07:11:39.209Z</time></trkpt><trkpt lat="46.4025526" lon="12.8574011"><ele>390.0</ele><time>2026-04-19T07:11:40.209Z</time></trkpt><trkpt lat="46.4024749" lon="12.8573125"><ele>390.0</ele><time>2026-04-19T07:11:41.209Z</time></trkpt><trkpt lat="46.4023996" lon="12.857218"><ele>390.0</ele><time>2026-04-19T07:11:42.208Z</time></trkpt><trkpt lat="46.4023231" lon="12.8571206"><ele>390.0</ele><time>2026-04-19T07:11:43.208Z</time></trkpt><trkpt lat="46.4022463" lon="12.8570246"><ele>390.0</ele><time>2026-04-19T07:11:44.208Z</time></trkpt><trkpt lat="46.4021713" lon="12.8569251"><ele>390.8</ele><time>2026-04-19T07:11:45.208Z</time></trkpt><trkpt lat="46.4020956" lon="12.8568217"><ele>391.6</ele><time>2026-04-19T07:11:46.21Z</time></trkpt><trkpt lat="46.4020169" lon="12.8567171"><ele>392.4</ele><time>2026-04-19T07:11:47.209Z</time></trkpt><trkpt lat="46.4019393" lon="12.8566113"><ele>393.2</ele><time>2026-04-19T07:11:48.209Z</time></trkpt><trkpt lat="46.4018627" lon="12.8565024"><ele>394.0</ele><time>2026-04-19T07:11:49.208Z</time></trkpt><trkpt lat="46.4017848" lon="12.8563967"><ele>394.0</ele><time>2026-04-19T07:11:50.209Z</time></trkpt><trkpt lat="46.4017084" lon="12.8562923"><ele>394.0</ele><time>2026-04-19T07:11:51.209Z</time></trkpt><trkpt lat="46.4016353" lon="12.8561917"><ele>394.0</ele><time>2026-04-19T07:11:52.209Z</time></trkpt><trkpt lat="46.4015665" lon="12.8560854"><ele>394.0</ele><time>2026-04-19T07:11:53.209Z</time></trkpt><trkpt lat="46.4014958" lon="12.8559852"><ele>394.0</ele><time>2026-04-19T07:11:54.209Z</time></trkpt><trkpt lat="46.401424" lon="12.8558894"><ele>393.6</ele><time>2026-04-19T07:11:55.209Z</time></trkpt><trkpt lat="46.4013538" lon="12.8557915"><ele>393.2</ele><time>2026-04-19T07:11:56.209Z</time></trkpt><trkpt lat="46.4012834" lon="12.8556981"><ele>392.8</ele><time>2026-04-19T07:11:57.209Z</time></trkpt><trkpt lat="46.4012128" lon="12.8556054"><ele>392.40000000000003</ele><time>2026-04-19T07:11:58.209Z</time></trkpt><trkpt lat="46.4011376" lon="12.8555119"><ele>392.0</ele><time>2026-04-19T07:11:59.208Z</time></trkpt><trkpt lat="46.4010639" lon="12.8554109"><ele>392.6</ele><time>2026-04-19T07:12:00.208Z</time></trkpt><trkpt lat="46.4009874" lon="12.8553096"><ele>393.20000000000005</ele><time>2026-04-19T07:12:01.209Z</time></trkpt><trkpt lat="46.4009118" lon="12.8551995"><ele>393.8</ele><time>2026-04-19T07:12:02.209Z</time></trkpt><trkpt lat="46.400836" lon="12.8550905"><ele>394.4</ele><time>2026-04-19T07:12:03.208Z</time></trkpt><trkpt lat="46.400757" lon="12.8549824"><ele>395.0</ele><time>2026-04-19T07:12:04.209Z</time></trkpt><trkpt lat="46.4006768" lon="12.8548659"><ele>395.0</ele><time>2026-04-19T07:12:05.208Z</time></trkpt><trkpt lat="46.4005965" lon="12.8547526"><ele>395.0</ele><time>2026-04-19T07:12:06.208Z</time></trkpt><trkpt lat="46.4005139" lon="12.8546441"><ele>395.0</ele><time>2026-04-19T07:12:07.209Z</time></trkpt><trkpt lat="46.400429" lon="12.8545335"><ele>395.0</ele><time>2026-04-19T07:12:08.208Z</time></trkpt><trkpt lat="46.4003451" lon="12.8544224"><ele>395.25</ele><time>2026-04-19T07:12:09.209Z</time></trkpt><trkpt lat="46.400261" lon="12.8543101"><ele>395.5</ele><time>2026-04-19T07:12:10.209Z</time></trkpt><trkpt lat="46.4001733" lon="12.8541915"><ele>395.75</ele><time>2026-04-19T07:12:11.208Z</time></trkpt><trkpt lat="46.4000879" lon="12.8540741"><ele>396.0</ele><time>2026-04-19T07:12:12.209Z</time></trkpt><trkpt lat="46.4000009" lon="12.8539572"><ele>396.0</ele><time>2026-04-19T07:12:13.209Z</time></trkpt><trkpt lat="46.3999119" lon="12.8538393"><ele>396.0</ele><time>2026-04-19T07:12:14.209Z</time></trkpt><trkpt lat="46.3998226" lon="12.8537219"><ele>396.0</ele><time>2026-04-19T07:12:15.209Z</time></trkpt><trkpt lat="46.3997353" lon="12.8536003"><ele>396.0</ele><time>2026-04-19T07:12:16.209Z</time></trkpt><trkpt lat="46.3996467" lon="12.8534756"><ele>396.5</ele><time>2026-04-19T07:12:17.209Z</time></trkpt><trkpt lat="46.39956" lon="12.8533478"><ele>397.0</ele><time>2026-04-19T07:12:18.209Z</time></trkpt><trkpt lat="46.3994748" lon="12.853221"><ele>397.5</ele><time>2026-04-19T07:12:19.21Z</time></trkpt><trkpt lat="46.3993877" lon="12.8530891"><ele>398.0</ele><time>2026-04-19T07:12:20.208Z</time></trkpt><trkpt lat="46.3993042" lon="12.8529563"><ele>398.0</ele><time>2026-04-19T07:12:21.209Z</time></trkpt><trkpt lat="46.3992187" lon="12.8528235"><ele>398.0</ele><time>2026-04-19T07:12:22.209Z</time></trkpt><trkpt lat="46.3991329" lon="12.8526862"><ele>398.0</ele><time>2026-04-19T07:12:23.209Z</time></trkpt><trkpt lat="46.3990514" lon="12.8525451"><ele>398.0</ele><time>2026-04-19T07:12:24.209Z</time></trkpt><trkpt lat="46.3989729" lon="12.8524064"><ele>398.0</ele><time>2026-04-19T07:12:25.209Z</time></trkpt><trkpt lat="46.3988921" lon="12.8522643"><ele>398.0</ele><time>2026-04-19T07:12:26.21Z</time></trkpt><trkpt lat="46.3988139" lon="12.8521253"><ele>398.0</ele><time>2026-04-19T07:12:27.209Z</time></trkpt><trkpt lat="46.3987332" lon="12.8519874"><ele>398.0</ele><time>2026-04-19T07:12:28.209Z</time></trkpt><trkpt lat="46.3986546" lon="12.8518423"><ele>399.0</ele><time>2026-04-19T07:12:29.209Z</time></trkpt><trkpt lat="46.3985739" lon="12.8517014"><ele>400.0</ele><time>2026-04-19T07:12:30.208Z</time></trkpt><trkpt lat="46.3984929" lon="12.8515613"><ele>401.0</ele><time>2026-04-19T07:12:31.209Z</time></trkpt><trkpt lat="46.3984095" lon="12.8514214"><ele>402.0</ele><time>2026-04-19T07:12:32.209Z</time></trkpt><trkpt lat="46.3983267" lon="12.8512814"><ele>402.0</ele><time>2026-04-19T07:12:33.21Z</time></trkpt><trkpt lat="46.3982447" lon="12.8511423"><ele>402.0</ele><time>2026-04-19T07:12:34.209Z</time></trkpt><trkpt lat="46.3981657" lon="12.850999"><ele>402.0</ele><time>2026-04-19T07:12:35.209Z</time></trkpt><trkpt lat="46.3980821" lon="12.8508586"><ele>402.0</ele><time>2026-04-19T07:12:36.209Z</time></trkpt><trkpt lat="46.3980017" lon="12.8507174"><ele>402.75</ele><time>2026-04-19T07:12:37.209Z</time></trkpt><trkpt lat="46.3979185" lon="12.8505776"><ele>403.5</ele><time>2026-04-19T07:12:38.208Z</time></trkpt><trkpt lat="46.3978361" lon="12.8504386"><ele>404.25</ele><time>2026-04-19T07:12:39.209Z</time></trkpt><trkpt lat="46.3977551" lon="12.8502989"><ele>405.0</ele><time>2026-04-19T07:12:40.209Z</time></trkpt><trkpt lat="46.397676" lon="12.8501561"><ele>405.25</ele><time>2026-04-19T07:12:41.21Z</time></trkpt><trkpt lat="46.397599" lon="12.8500173"><ele>405.5</ele><time>2026-04-19T07:12:42.209Z</time></trkpt><trkpt lat="46.3975249" lon="12.8498848"><ele>405.75</ele><time>2026-04-19T07:12:43.209Z</time></trkpt><trkpt lat="46.3974515" lon="12.8497599"><ele>406.0</ele><time>2026-04-19T07:12:44.208Z</time></trkpt><trkpt lat="46.3973813" lon="12.8496358"><ele>406.0</ele><time>2026-04-19T07:12:45.208Z</time></trkpt><trkpt lat="46.3973134" lon="12.8495148"><ele>406.0</ele><time>2026-04-19T07:12:46.209Z</time></trkpt><trkpt lat="46.3972477" lon="12.8493978"><ele>406.0</ele><time>2026-04-19T07:12:47.209Z</time></trkpt><trkpt lat="46.3971811" lon="12.8492821"><ele>406.0</ele><time>2026-04-19T07:12:48.209Z</time></trkpt><trkpt lat="46.3971129" lon="12.8491735"><ele>406.0</ele><time>2026-04-19T07:12:49.209Z</time></trkpt><trkpt lat="46.3970433" lon="12.8490668"><ele>406.50000000000006</ele><time>2026-04-19T07:12:50.209Z</time></trkpt><trkpt lat="46.3969787" lon="12.8489647"><ele>407.0</ele><time>2026-04-19T07:12:51.208Z</time></trkpt><trkpt lat="46.3969209" lon="12.8488666"><ele>407.5</ele><time>2026-04-19T07:12:52.208Z</time></trkpt><trkpt lat="46.3968695" lon="12.8487717"><ele>408.0</ele><time>2026-04-19T07:12:53.208Z</time></trkpt><trkpt lat="46.3968223" lon="12.8486858"><ele>408.50000000000006</ele><time>2026-04-19T07:12:54.209Z</time></trkpt><trkpt lat="46.3967791" lon="12.8486031"><ele>409.0</ele><time>2026-04-19T07:12:55.209Z</time></trkpt><trkpt lat="46.3967492" lon="12.8485207"><ele>409.2</ele><time>2026-04-19T07:12:56.209Z</time></trkpt><trkpt lat="46.3967438" lon="12.8483692"><ele>409.4</ele><time>2026-04-19T07:12:58.208Z</time></trkpt><trkpt lat="46.3968053" lon="12.8482243"><ele>409.6</ele><time>2026-04-19T07:13:00.208Z</time></trkpt><trkpt lat="46.3968577" lon="12.8481533"><ele>409.8</ele><time>2026-04-19T07:13:01.208Z</time></trkpt><trkpt lat="46.3969181" lon="12.8480753"><ele>410.0</ele><time>2026-04-19T07:13:02.208Z</time></trkpt><trkpt lat="46.3969858" lon="12.8479863"><ele>410.0</ele><time>2026-04-19T07:13:03.209Z</time></trkpt><trkpt lat="46.3970608" lon="12.8478887"><ele>410.0</ele><time>2026-04-19T07:13:04.209Z</time></trkpt><trkpt lat="46.3971421" lon="12.847782"><ele>410.0</ele><time>2026-04-19T07:13:05.209Z</time></trkpt><trkpt lat="46.3972265" lon="12.8476669"><ele>410.0</ele><time>2026-04-19T07:13:06.209Z</time></trkpt><trkpt lat="46.3973178" lon="12.8475502"><ele>410.0</ele><time>2026-04-19T07:13:07.209Z</time></trkpt><trkpt lat="46.3974205" lon="12.8474394"><ele>411.0</ele><time>2026-04-19T07:13:08.209Z</time></trkpt><trkpt lat="46.3975314" lon="12.8473425"><ele>412.0</ele><time>2026-04-19T07:13:09.209Z</time></trkpt><trkpt lat="46.3976505" lon="12.8472632"><ele>413.0</ele><time>2026-04-19T07:13:10.209Z</time></trkpt><trkpt lat="46.3977672" lon="12.8471969"><ele>414.0</ele><time>2026-04-19T07:13:11.209Z</time></trkpt><trkpt lat="46.3978829" lon="12.8471312"><ele>414.0</ele><time>2026-04-19T07:13:12.209Z</time></trkpt><trkpt lat="46.3979978" lon="12.8470629"><ele>414.0</ele><time>2026-04-19T07:13:13.21Z</time></trkpt><trkpt lat="46.3981131" lon="12.8469793"><ele>414.0</ele><time>2026-04-19T07:13:14.209Z</time></trkpt><trkpt lat="46.3982245" lon="12.8468773"><ele>414.0</ele><time>2026-04-19T07:13:15.21Z</time></trkpt><trkpt lat="46.3983332" lon="12.8467629"><ele>418.5</ele><time>2026-04-19T07:13:16.209Z</time></trkpt><trkpt lat="46.3984422" lon="12.8466442"><ele>423.0</ele><time>2026-04-19T07:13:17.209Z</time></trkpt><trkpt lat="46.398553" lon="12.846528"><ele>427.5</ele><time>2026-04-19T07:13:18.209Z</time></trkpt><trkpt lat="46.3986668" lon="12.8464085"><ele>432.0</ele><time>2026-04-19T07:13:19.209Z</time></trkpt><trkpt lat="46.3987745" lon="12.8462883"><ele>434.5</ele><time>2026-04-19T07:13:20.209Z</time></trkpt><trkpt lat="46.398874" lon="12.846152"><ele>437.0</ele><time>2026-04-19T07:13:21.208Z</time></trkpt><trkpt lat="46.3989653" lon="12.8460065"><ele>439.5</ele><time>2026-04-19T07:13:22.209Z</time></trkpt><trkpt lat="46.3990535" lon="12.8458616"><ele>442.0</ele><time>2026-04-19T07:13:23.208Z</time></trkpt><trkpt lat="46.3991378" lon="12.8457318"><ele>442.0</ele><time>2026-04-19T07:13:24.208Z</time></trkpt><trkpt lat="46.3992247" lon="12.8456433"><ele>442.00000000000006</ele><time>2026-04-19T07:13:25.209Z</time></trkpt><trkpt lat="46.3993116" lon="12.8455997"><ele>442.00000000000006</ele><time>2026-04-19T07:13:26.208Z</time></trkpt><trkpt lat="46.3994072" lon="12.845611"><ele>442.0</ele><time>2026-04-19T07:13:27.209Z</time></trkpt><trkpt lat="46.3994967" lon="12.8456643"><ele>442.0</ele><time>2026-04-19T07:13:28.208Z</time></trkpt><trkpt lat="46.3995785" lon="12.8457366"><ele>442.0</ele><time>2026-04-19T07:13:29.209Z</time></trkpt><trkpt lat="46.3996591" lon="12.8457715"><ele>442.00000000000006</ele><time>2026-04-19T07:13:30.209Z</time></trkpt><trkpt lat="46.3997512" lon="12.8457512"><ele>442.00000000000006</ele><time>2026-04-19T07:13:31.209Z</time></trkpt><trkpt lat="46.3998532" lon="12.8456756"><ele>442.0</ele><time>2026-04-19T07:13:32.209Z</time></trkpt><trkpt lat="46.3999606" lon="12.8455816"><ele>442.0</ele><time>2026-04-19T07:13:33.209Z</time></trkpt><trkpt lat="46.4000652" lon="12.8454982"><ele>441.25</ele><time>2026-04-19T07:13:34.209Z</time></trkpt><trkpt lat="46.4001769" lon="12.8454505"><ele>440.5</ele><time>2026-04-19T07:13:35.209Z</time></trkpt><trkpt lat="46.4003017" lon="12.8454492"><ele>439.75</ele><time>2026-04-19T07:13:36.208Z</time></trkpt><trkpt lat="46.4004295" lon="12.8454803"><ele>439.0</ele><time>2026-04-19T07:13:37.209Z</time></trkpt><trkpt lat="46.4005526" lon="12.8455143"><ele>439.0</ele><time>2026-04-19T07:13:38.209Z</time></trkpt><trkpt lat="46.400668" lon="12.84554"><ele>439.0</ele><time>2026-04-19T07:13:39.209Z</time></trkpt><trkpt lat="46.400769" lon="12.8455498"><ele>439.0</ele><time>2026-04-19T07:13:40.209Z</time></trkpt><trkpt lat="46.4008784" lon="12.8455331"><ele>439.0</ele><time>2026-04-19T07:13:41.209Z</time></trkpt><trkpt lat="46.4009702" lon="12.8454338"><ele>439.0</ele><time>2026-04-19T07:13:42.209Z</time></trkpt><trkpt lat="46.4010578" lon="12.8453739"><ele>439.0</ele><time>2026-04-19T07:13:43.208Z</time></trkpt><trkpt lat="46.401146" lon="12.8453124"><ele>439.0</ele><time>2026-04-19T07:13:44.209Z</time></trkpt><trkpt lat="46.4012332" lon="12.8452473"><ele>439.0</ele><time>2026-04-19T07:13:45.21Z</time></trkpt><trkpt lat="46.4013218" lon="12.8451833"><ele>439.0</ele><time>2026-04-19T07:13:46.21Z</time></trkpt><trkpt lat="46.4014174" lon="12.8451169"><ele>439.0</ele><time>2026-04-19T07:13:47.209Z</time></trkpt><trkpt lat="46.4015116" lon="12.8450482"><ele>442.0</ele><time>2026-04-19T07:13:48.209Z</time></trkpt><trkpt lat="46.4016079" lon="12.8449714"><ele>445.0</ele><time>2026-04-19T07:13:49.21Z</time></trkpt><trkpt lat="46.4017104" lon="12.8448933"><ele>448.0</ele><time>2026-04-19T07:13:50.209Z</time></trkpt><trkpt lat="46.4018214" lon="12.8448108"><ele>451.0</ele><time>2026-04-19T07:13:51.208Z</time></trkpt><trkpt lat="46.4019349" lon="12.8447223"><ele>451.0</ele><time>2026-04-19T07:13:52.208Z</time></trkpt><trkpt lat="46.4020518" lon="12.8446283"><ele>451.0</ele><time>2026-04-19T07:13:53.209Z</time></trkpt><trkpt lat="46.4021685" lon="12.8445342"><ele>451.0</ele><time>2026-04-19T07:13:54.209Z</time></trkpt><trkpt lat="46.4022433" lon="12.8443828"><ele>451.0</ele><time>2026-04-19T07:13:55.209Z</time></trkpt><trkpt lat="46.4023186" lon="12.8442413"><ele>452.0</ele><time>2026-04-19T07:13:56.209Z</time></trkpt><trkpt lat="46.4023817" lon="12.8440815"><ele>453.0</ele><time>2026-04-19T07:13:57.209Z</time></trkpt><trkpt lat="46.4024303" lon="12.8439101"><ele>454.0</ele><time>2026-04-19T07:13:58.209Z</time></trkpt><trkpt lat="46.4024619" lon="12.8437309"><ele>455.0</ele><time>2026-04-19T07:13:59.209Z</time></trkpt><trkpt lat="46.4024827" lon="12.8435502"><ele>456.25</ele><time>2026-04-19T07:14:00.209Z</time></trkpt><trkpt lat="46.4024956" lon="12.8433665"><ele>457.5</ele><time>2026-04-19T07:14:01.21Z</time></trkpt><trkpt lat="46.4025076" lon="12.8431928"><ele>458.75</ele><time>2026-04-19T07:14:02.21Z</time></trkpt><trkpt lat="46.4025167" lon="12.8430271"><ele>460.0</ele><time>2026-04-19T07:14:03.208Z</time></trkpt><trkpt lat="46.4025122" lon="12.842879"><ele>460.0</ele><time>2026-04-19T07:14:04.208Z</time></trkpt><trkpt lat="46.4024937" lon="12.842742"><ele>460.0</ele><time>2026-04-19T07:14:05.209Z</time></trkpt><trkpt lat="46.402453" lon="12.8426096"><ele>460.0</ele><time>2026-04-19T07:14:06.209Z</time></trkpt><trkpt lat="46.4023946" lon="12.8424989"><ele>460.0</ele><time>2026-04-19T07:14:07.209Z</time></trkpt><trkpt lat="46.4023157" lon="12.8424131"><ele>460.0</ele><time>2026-04-19T07:14:08.21Z</time></trkpt><trkpt lat="46.4022245" lon="12.84236"><ele>461.50000000000006</ele><time>2026-04-19T07:14:09.209Z</time></trkpt><trkpt lat="46.4021401" lon="12.842324"><ele>463.0</ele><time>2026-04-19T07:14:10.209Z</time></trkpt><trkpt lat="46.4020671" lon="12.8422834"><ele>464.5</ele><time>2026-04-19T07:14:11.209Z</time></trkpt><trkpt lat="46.4020094" lon="12.8422083"><ele>466.0</ele><time>2026-04-19T07:14:12.21Z</time></trkpt><trkpt lat="46.401974" lon="12.8421042"><ele>467.50000000000006</ele><time>2026-04-19T07:14:13.209Z</time></trkpt><trkpt lat="46.4019637" lon="12.8419781"><ele>469.0</ele><time>2026-04-19T07:14:14.209Z</time></trkpt><trkpt lat="46.401964" lon="12.8418205"><ele>470.5</ele><time>2026-04-19T07:14:15.209Z</time></trkpt><trkpt lat="46.4019635" lon="12.8416236"><ele>472.0</ele><time>2026-04-19T07:14:16.208Z</time></trkpt><trkpt lat="46.4019667" lon="12.8414223"><ele>473.5</ele><time>2026-04-19T07:14:17.207Z</time></trkpt><trkpt lat="46.4019742" lon="12.8412181"><ele>475.0</ele><time>2026-04-19T07:14:18.207Z</time></trkpt><trkpt lat="46.4019757" lon="12.841"><ele>474.33333333333337</ele><time>2026-04-19T07:14:19.208Z</time></trkpt><trkpt lat="46.4019823" lon="12.840763"><ele>473.66666666666663</ele><time>2026-04-19T07:14:20.208Z</time></trkpt><trkpt lat="46.4019923" lon="12.8405135"><ele>473.0</ele><time>2026-04-19T07:14:21.207Z</time></trkpt><trkpt lat="46.402003" lon="12.8402525"><ele>470.3333333333333</ele><time>2026-04-19T07:14:22.208Z</time></trkpt><trkpt lat="46.4020157" lon="12.8399825"><ele>467.66666666666663</ele><time>2026-04-19T07:14:23.208Z</time></trkpt><trkpt lat="46.40203" lon="12.8397098"><ele>465.0</ele><time>2026-04-19T07:14:24.208Z</time></trkpt><trkpt lat="46.4020447" lon="12.839439"><ele>464.0</ele><time>2026-04-19T07:14:25.207Z</time></trkpt><trkpt lat="46.4020609" lon="12.8391609"><ele>463.0</ele><time>2026-04-19T07:14:26.208Z</time></trkpt><trkpt lat="46.4020827" lon="12.8388458"><ele>462.0</ele><time>2026-04-19T07:14:27.207Z</time></trkpt><trkpt lat="46.4021009" lon="12.8385473"><ele>462.33333333333337</ele><time>2026-04-19T07:14:28.209Z</time></trkpt><trkpt lat="46.4021199" lon="12.8382545"><ele>462.6666666666667</ele><time>2026-04-19T07:14:29.207Z</time></trkpt><trkpt lat="46.4021421" lon="12.8379626"><ele>463.0</ele><time>2026-04-19T07:14:30.208Z</time></trkpt><trkpt lat="46.4021622" lon="12.8376744"><ele>472.33333333333337</ele><time>2026-04-19T07:14:31.208Z</time></trkpt><trkpt lat="46.4021852" lon="12.8373831"><ele>481.66666666666663</ele><time>2026-04-19T07:14:32.208Z</time></trkpt><trkpt lat="46.4022051" lon="12.8370942"><ele>491.0</ele><time>2026-04-19T07:14:33.209Z</time></trkpt><trkpt lat="46.4022231" lon="12.8368045"><ele>490.3333333333333</ele><time>2026-04-19T07:14:34.207Z</time></trkpt><trkpt lat="46.4022346" lon="12.8365176"><ele>489.66666666666663</ele><time>2026-04-19T07:14:35.208Z</time></trkpt><trkpt lat="46.4022436" lon="12.836228"><ele>489.0</ele><time>2026-04-19T07:14:36.208Z</time></trkpt><trkpt lat="46.4022458" lon="12.8359375"><ele>488.66666666666663</ele><time>2026-04-19T07:14:37.208Z</time></trkpt><trkpt lat="46.4022363" lon="12.8356443"><ele>488.3333333333333</ele><time>2026-04-19T07:14:38.208Z</time></trkpt><trkpt lat="46.4022236" lon="12.8353517"><ele>488.0</ele><time>2026-04-19T07:14:39.208Z</time></trkpt><trkpt lat="46.4022082" lon="12.8350592"><ele>488.0</ele><time>2026-04-19T07:14:40.208Z</time></trkpt><trkpt lat="46.402188" lon="12.8347672"><ele>488.0</ele><time>2026-04-19T07:14:41.207Z</time></trkpt><trkpt lat="46.402162" lon="12.8344741"><ele>488.0</ele><time>2026-04-19T07:14:42.208Z</time></trkpt><trkpt lat="46.4021322" lon="12.8341787"><ele>484.66666666666663</ele><time>2026-04-19T07:14:43.208Z</time></trkpt><trkpt lat="46.4021002" lon="12.8338819"><ele>481.33333333333337</ele><time>2026-04-19T07:14:44.208Z</time></trkpt><trkpt lat="46.4020692" lon="12.8335821"><ele>478.0</ele><time>2026-04-19T07:14:45.208Z</time></trkpt><trkpt lat="46.4020373" lon="12.8332827"><ele>478.0</ele><time>2026-04-19T07:14:46.208Z</time></trkpt><trkpt lat="46.4020029" lon="12.832982"><ele>478.0</ele><time>2026-04-19T07:14:47.208Z</time></trkpt><trkpt lat="46.4019684" lon="12.8326773"><ele>478.0</ele><time>2026-04-19T07:14:48.208Z</time></trkpt><trkpt lat="46.4019348" lon="12.8323844"><ele>478.0</ele><time>2026-04-19T07:14:49.207Z</time></trkpt><trkpt lat="46.4019048" lon="12.8321094"><ele>478.0</ele><time>2026-04-19T07:14:50.207Z</time></trkpt><trkpt lat="46.4018755" lon="12.8318531"><ele>478.0</ele><time>2026-04-19T07:14:51.208Z</time></trkpt><trkpt lat="46.40185" lon="12.8316067"><ele>478.0</ele><time>2026-04-19T07:14:52.208Z</time></trkpt><trkpt lat="46.401827" lon="12.8313616"><ele>478.0</ele><time>2026-04-19T07:14:53.207Z</time></trkpt><trkpt lat="46.4018095" lon="12.831116"><ele>478.0</ele><time>2026-04-19T07:14:54.207Z</time></trkpt><trkpt lat="46.4017987" lon="12.8308694"><ele>479.0</ele><time>2026-04-19T07:14:55.207Z</time></trkpt><trkpt lat="46.401797" lon="12.8306255"><ele>480.0</ele><time>2026-04-19T07:14:56.208Z</time></trkpt><trkpt lat="46.4018019" lon="12.8303826"><ele>481.0</ele><time>2026-04-19T07:14:57.208Z</time></trkpt><trkpt lat="46.4018144" lon="12.8301399"><ele>482.33333333333337</ele><time>2026-04-19T07:14:58.208Z</time></trkpt><trkpt lat="46.4018327" lon="12.8299"><ele>483.66666666666663</ele><time>2026-04-19T07:14:59.207Z</time></trkpt><trkpt lat="46.4018548" lon="12.8296645"><ele>485.0</ele><time>2026-04-19T07:15:00.207Z</time></trkpt><trkpt lat="46.4018787" lon="12.8294301"><ele>485.3333333333333</ele><time>2026-04-19T07:15:01.208Z</time></trkpt><trkpt lat="46.4019026" lon="12.8291958"><ele>485.66666666666663</ele><time>2026-04-19T07:15:02.208Z</time></trkpt><trkpt lat="46.4019218" lon="12.8289624"><ele>486.0</ele><time>2026-04-19T07:15:03.207Z</time></trkpt><trkpt lat="46.4019361" lon="12.8287302"><ele>486.0</ele><time>2026-04-19T07:15:04.207Z</time></trkpt><trkpt lat="46.4019434" lon="12.8284967"><ele>486.0</ele><time>2026-04-19T07:15:05.207Z</time></trkpt><trkpt lat="46.4019514" lon="12.8282688"><ele>486.0</ele><time>2026-04-19T07:15:06.208Z</time></trkpt><trkpt lat="46.4019621" lon="12.828053"><ele>485.75</ele><time>2026-04-19T07:15:07.208Z</time></trkpt><trkpt lat="46.4019765" lon="12.8278475"><ele>485.5</ele><time>2026-04-19T07:15:08.208Z</time></trkpt><trkpt lat="46.4019925" lon="12.8276542"><ele>485.25</ele><time>2026-04-19T07:15:09.209Z</time></trkpt><trkpt lat="46.4020089" lon="12.8274809"><ele>485.0</ele><time>2026-04-19T07:15:10.208Z</time></trkpt><trkpt lat="46.4020266" lon="12.8273127"><ele>484.5</ele><time>2026-04-19T07:15:11.207Z</time></trkpt><trkpt lat="46.4020509" lon="12.8271503"><ele>484.0</ele><time>2026-04-19T07:15:12.208Z</time></trkpt><trkpt lat="46.4020865" lon="12.8269929"><ele>483.5</ele><time>2026-04-19T07:15:13.208Z</time></trkpt><trkpt lat="46.4021322" lon="12.8268421"><ele>483.0</ele><time>2026-04-19T07:15:14.208Z</time></trkpt><trkpt lat="46.4021853" lon="12.826693"><ele>482.75</ele><time>2026-04-19T07:15:15.209Z</time></trkpt><trkpt lat="46.4022422" lon="12.8265471"><ele>482.5</ele><time>2026-04-19T07:15:16.209Z</time></trkpt><trkpt lat="46.4023031" lon="12.826402"><ele>482.25</ele><time>2026-04-19T07:15:17.208Z</time></trkpt><trkpt lat="46.4023646" lon="12.826255"><ele>482.0</ele><time>2026-04-19T07:15:18.207Z</time></trkpt><trkpt lat="46.4024245" lon="12.826108"><ele>481.25</ele><time>2026-04-19T07:15:19.207Z</time></trkpt><trkpt lat="46.4024832" lon="12.8259603"><ele>480.5</ele><time>2026-04-19T07:15:20.208Z</time></trkpt><trkpt lat="46.4025429" lon="12.825811"><ele>479.75</ele><time>2026-04-19T07:15:21.208Z</time></trkpt><trkpt lat="46.4026009" lon="12.8256626"><ele>479.0</ele><time>2026-04-19T07:15:22.208Z</time></trkpt><trkpt lat="46.4026608" lon="12.825514"><ele>479.0</ele><time>2026-04-19T07:15:23.207Z</time></trkpt><trkpt lat="46.4027192" lon="12.82537"><ele>479.0</ele><time>2026-04-19T07:15:24.207Z</time></trkpt><trkpt lat="46.4027763" lon="12.8252298"><ele>479.0</ele><time>2026-04-19T07:15:25.208Z</time></trkpt><trkpt lat="46.4028331" lon="12.8250891"><ele>479.0</ele><time>2026-04-19T07:15:26.208Z</time></trkpt><trkpt lat="46.4028868" lon="12.824949"><ele>478.79999999999995</ele><time>2026-04-19T07:15:27.207Z</time></trkpt><trkpt lat="46.402939" lon="12.8248102"><ele>478.59999999999997</ele><time>2026-04-19T07:15:28.209Z</time></trkpt><trkpt lat="46.4029912" lon="12.8246758"><ele>478.4</ele><time>2026-04-19T07:15:29.208Z</time></trkpt><trkpt lat="46.4030413" lon="12.8245447"><ele>478.2</ele><time>2026-04-19T07:15:30.208Z</time></trkpt><trkpt lat="46.40309" lon="12.8244189"><ele>478.0</ele><time>2026-04-19T07:15:31.207Z</time></trkpt><trkpt lat="46.4031379" lon="12.8242961"><ele>478.00000000000006</ele><time>2026-04-19T07:15:32.208Z</time></trkpt><trkpt lat="46.403184" lon="12.8241791"><ele>478.0</ele><time>2026-04-19T07:15:33.208Z</time></trkpt><trkpt lat="46.403227" lon="12.8240644"><ele>478.0</ele><time>2026-04-19T07:15:34.208Z</time></trkpt><trkpt lat="46.4032644" lon="12.823951"><ele>478.0</ele><time>2026-04-19T07:15:35.208Z</time></trkpt><trkpt lat="46.4032932" lon="12.8238415"><ele>478.00000000000006</ele><time>2026-04-19T07:15:36.208Z</time></trkpt><trkpt lat="46.4033117" lon="12.8237394"><ele>478.0</ele><time>2026-04-19T07:15:37.208Z</time></trkpt><trkpt lat="46.4033258" lon="12.8236405"><ele>478.00000000000006</ele><time>2026-04-19T07:15:38.207Z</time></trkpt><trkpt lat="46.4033397" lon="12.8235435"><ele>478.0</ele><time>2026-04-19T07:15:39.209Z</time></trkpt><trkpt lat="46.4033515" lon="12.8234485"><ele>478.00000000000006</ele><time>2026-04-19T07:15:40.208Z</time></trkpt><trkpt lat="46.4033628" lon="12.8233556"><ele>478.00000000000006</ele><time>2026-04-19T07:15:41.209Z</time></trkpt><trkpt lat="46.4033774" lon="12.8232621"><ele>478.0</ele><time>2026-04-19T07:15:42.209Z</time></trkpt><trkpt lat="46.4033933" lon="12.8231733"><ele>478.00000000000006</ele><time>2026-04-19T07:15:43.209Z</time></trkpt><trkpt lat="46.40341" lon="12.8230804"><ele>478.00000000000006</ele><time>2026-04-19T07:15:44.208Z</time></trkpt><trkpt lat="46.4034235" lon="12.8229889"><ele>477.8571428571429</ele><time>2026-04-19T07:15:45.208Z</time></trkpt><trkpt lat="46.4034324" lon="12.8228965"><ele>477.7142857142857</ele><time>2026-04-19T07:15:46.209Z</time></trkpt><trkpt lat="46.4034355" lon="12.8227999"><ele>477.57142857142856</ele><time>2026-04-19T07:15:47.209Z</time></trkpt><trkpt lat="46.4034357" lon="12.8226986"><ele>477.42857142857144</ele><time>2026-04-19T07:15:48.208Z</time></trkpt><trkpt lat="46.4034289" lon="12.822594"><ele>477.2857142857142</ele><time>2026-04-19T07:15:49.208Z</time></trkpt><trkpt lat="46.4034158" lon="12.8224811"><ele>477.1428571428571</ele><time>2026-04-19T07:15:50.208Z</time></trkpt><trkpt lat="46.403409" lon="12.822363"><ele>477.0</ele><time>2026-04-19T07:15:51.208Z</time></trkpt><trkpt lat="46.4034059" lon="12.8222408"><ele>476.40000000000003</ele><time>2026-04-19T07:15:52.209Z</time></trkpt><trkpt lat="46.4034062" lon="12.8221126"><ele>475.80000000000007</ele><time>2026-04-19T07:15:53.207Z</time></trkpt><trkpt lat="46.4034057" lon="12.8219853"><ele>475.2</ele><time>2026-04-19T07:15:54.208Z</time></trkpt><trkpt lat="46.4034065" lon="12.8218489"><ele>474.6</ele><time>2026-04-19T07:15:55.207Z</time></trkpt><trkpt lat="46.4034098" lon="12.8217098"><ele>474.0</ele><time>2026-04-19T07:15:56.209Z</time></trkpt><trkpt lat="46.4034167" lon="12.8215703"><ele>473.0</ele><time>2026-04-19T07:15:57.208Z</time></trkpt><trkpt lat="46.4034325" lon="12.8214292"><ele>472.0</ele><time>2026-04-19T07:15:58.208Z</time></trkpt><trkpt lat="46.403455" lon="12.8212915"><ele>471.0</ele><time>2026-04-19T07:15:59.207Z</time></trkpt><trkpt lat="46.4034678" lon="12.8211455"><ele>470.0</ele><time>2026-04-19T07:16:00.208Z</time></trkpt><trkpt lat="46.4034736" lon="12.8209944"><ele>469.0</ele><time>2026-04-19T07:16:01.208Z</time></trkpt><trkpt lat="46.4034763" lon="12.8208382"><ele>466.79999999999995</ele><time>2026-04-19T07:16:02.208Z</time></trkpt><trkpt lat="46.4034824" lon="12.8206886"><ele>464.59999999999997</ele><time>2026-04-19T07:16:03.209Z</time></trkpt><trkpt lat="46.4034969" lon="12.820549"><ele>462.4</ele><time>2026-04-19T07:16:04.209Z</time></trkpt><trkpt lat="46.4035279" lon="12.8204243"><ele>460.2</ele><time>2026-04-19T07:16:05.208Z</time></trkpt><trkpt lat="46.4035773" lon="12.8203139"><ele>458.0</ele><time>2026-04-19T07:16:06.208Z</time></trkpt><trkpt lat="46.4036407" lon="12.8202211"><ele>458.79999999999995</ele><time>2026-04-19T07:16:07.209Z</time></trkpt><trkpt lat="46.4037108" lon="12.8201394"><ele>459.59999999999997</ele><time>2026-04-19T07:16:08.208Z</time></trkpt><trkpt lat="46.4037845" lon="12.8200643"><ele>460.40000000000003</ele><time>2026-04-19T07:16:09.207Z</time></trkpt><trkpt lat="46.4038633" lon="12.8199956"><ele>461.20000000000005</ele><time>2026-04-19T07:16:10.207Z</time></trkpt><trkpt lat="46.4039463" lon="12.8199351"><ele>462.0</ele><time>2026-04-19T07:16:11.208Z</time></trkpt><trkpt lat="46.4040321" lon="12.8198857"><ele>462.0</ele><time>2026-04-19T07:16:12.209Z</time></trkpt><trkpt lat="46.404121" lon="12.8198428"><ele>462.0</ele><time>2026-04-19T07:16:13.208Z</time></trkpt><trkpt lat="46.4042104" lon="12.8197992"><ele>462.0</ele><time>2026-04-19T07:16:14.208Z</time></trkpt><trkpt lat="46.4042941" lon="12.8197511"><ele>462.0</ele><time>2026-04-19T07:16:15.208Z</time></trkpt><trkpt lat="46.4043657" lon="12.8197061"><ele>462.0</ele><time>2026-04-19T07:16:16.209Z</time></trkpt><trkpt lat="46.4044224" lon="12.8196615"><ele>462.0</ele><time>2026-04-19T07:16:17.208Z</time></trkpt><trkpt lat="46.4045083" lon="12.8195533"><ele>462.0</ele><time>2026-04-19T07:16:19.208Z</time></trkpt><trkpt lat="46.4045447" lon="12.8194695"><ele>462.00000000000006</ele><time>2026-04-19T07:16:20.208Z</time></trkpt><trkpt lat="46.4045684" lon="12.8193545"><ele>462.00000000000006</ele><time>2026-04-19T07:16:21.207Z</time></trkpt><trkpt lat="46.4045799" lon="12.8192222"><ele>462.0</ele><time>2026-04-19T07:16:22.208Z</time></trkpt><trkpt lat="46.4045794" lon="12.8190708"><ele>462.0</ele><time>2026-04-19T07:16:23.208Z</time></trkpt><trkpt lat="46.4045757" lon="12.8188997"><ele>457.5</ele><time>2026-04-19T07:16:24.208Z</time></trkpt><trkpt lat="46.4045736" lon="12.8187125"><ele>453.0</ele><time>2026-04-19T07:16:25.208Z</time></trkpt><trkpt lat="46.4045742" lon="12.8185154"><ele>448.5</ele><time>2026-04-19T07:16:26.208Z</time></trkpt><trkpt lat="46.4045728" lon="12.8183271"><ele>444.0</ele><time>2026-04-19T07:16:27.207Z</time></trkpt><trkpt lat="46.4045723" lon="12.8181534"><ele>444.0</ele><time>2026-04-19T07:16:28.209Z</time></trkpt><trkpt lat="46.4045708" lon="12.8179997"><ele>444.0</ele><time>2026-04-19T07:16:29.208Z</time></trkpt><trkpt lat="46.4045624" lon="12.8178624"><ele>444.0</ele><time>2026-04-19T07:16:30.208Z</time></trkpt><trkpt lat="46.4045466" lon="12.8177389"><ele>444.0</ele><time>2026-04-19T07:16:31.208Z</time></trkpt><trkpt lat="46.4045247" lon="12.8176252"><ele>444.0</ele><time>2026-04-19T07:16:32.208Z</time></trkpt><trkpt lat="46.4045087" lon="12.8175148"><ele>444.0</ele><time>2026-04-19T07:16:33.208Z</time></trkpt><trkpt lat="46.4044988" lon="12.8174009"><ele>444.1666666666667</ele><time>2026-04-19T07:16:34.207Z</time></trkpt><trkpt lat="46.4044851" lon="12.8172869"><ele>444.33333333333337</ele><time>2026-04-19T07:16:35.209Z</time></trkpt><trkpt lat="46.4044639" lon="12.8171721"><ele>444.5</ele><time>2026-04-19T07:16:36.208Z</time></trkpt><trkpt lat="46.4044338" lon="12.8170567"><ele>444.6666666666667</ele><time>2026-04-19T07:16:37.207Z</time></trkpt><trkpt lat="46.4043923" lon="12.8169389"><ele>444.83333333333337</ele><time>2026-04-19T07:16:38.208Z</time></trkpt><trkpt lat="46.4043452" lon="12.8168145"><ele>445.0</ele><time>2026-04-19T07:16:39.208Z</time></trkpt><trkpt lat="46.4042938" lon="12.8166764"><ele>445.25</ele><time>2026-04-19T07:16:40.208Z</time></trkpt><trkpt lat="46.4042409" lon="12.816537"><ele>445.5</ele><time>2026-04-19T07:16:41.207Z</time></trkpt><trkpt lat="46.4041905" lon="12.8163918"><ele>445.75</ele><time>2026-04-19T07:16:42.207Z</time></trkpt><trkpt lat="46.4041375" lon="12.8162422"><ele>446.0</ele><time>2026-04-19T07:16:43.208Z</time></trkpt><trkpt lat="46.404085" lon="12.8160913"><ele>447.0</ele><time>2026-04-19T07:16:44.208Z</time></trkpt><trkpt lat="46.4040362" lon="12.8159424"><ele>448.0</ele><time>2026-04-19T07:16:45.208Z</time></trkpt><trkpt lat="46.4039863" lon="12.8157986"><ele>449.0</ele><time>2026-04-19T07:16:46.209Z</time></trkpt><trkpt lat="46.4039339" lon="12.8156574"><ele>450.0</ele><time>2026-04-19T07:16:47.209Z</time></trkpt><trkpt lat="46.4038838" lon="12.8155166"><ele>451.0</ele><time>2026-04-19T07:16:48.208Z</time></trkpt><trkpt lat="46.4038341" lon="12.8153773"><ele>451.0</ele><time>2026-04-19T07:16:49.207Z</time></trkpt><trkpt lat="46.4037853" lon="12.8152364"><ele>451.0</ele><time>2026-04-19T07:16:50.208Z</time></trkpt><trkpt lat="46.4037377" lon="12.8150958"><ele>451.0</ele><time>2026-04-19T07:16:51.207Z</time></trkpt><trkpt lat="46.4036861" lon="12.8149512"><ele>451.0</ele><time>2026-04-19T07:16:52.208Z</time></trkpt><trkpt lat="46.4036331" lon="12.8148017"><ele>451.0</ele><time>2026-04-19T07:16:53.208Z</time></trkpt><trkpt lat="46.4035767" lon="12.8146494"><ele>451.0</ele><time>2026-04-19T07:16:54.209Z</time></trkpt><trkpt lat="46.4035181" lon="12.8144951"><ele>451.0</ele><time>2026-04-19T07:16:55.208Z</time></trkpt><trkpt lat="46.4034625" lon="12.8143365"><ele>451.0</ele><time>2026-04-19T07:16:56.207Z</time></trkpt><trkpt lat="46.403408" lon="12.814175"><ele>451.0</ele><time>2026-04-19T07:16:57.207Z</time></trkpt><trkpt lat="46.4033539" lon="12.8140112"><ele>451.75</ele><time>2026-04-19T07:16:58.207Z</time></trkpt><trkpt lat="46.4033014" lon="12.8138478"><ele>452.5</ele><time>2026-04-19T07:16:59.207Z</time></trkpt><trkpt lat="46.403244" lon="12.8136833"><ele>453.25</ele><time>2026-04-19T07:17:00.208Z</time></trkpt><trkpt lat="46.4031868" lon="12.8135265"><ele>454.0</ele><time>2026-04-19T07:17:01.208Z</time></trkpt><trkpt lat="46.4031323" lon="12.8133673"><ele>454.5</ele><time>2026-04-19T07:17:02.207Z</time></trkpt><trkpt lat="46.4030762" lon="12.81321"><ele>455.0</ele><time>2026-04-19T07:17:03.207Z</time></trkpt><trkpt lat="46.403019" lon="12.8130544"><ele>455.5</ele><time>2026-04-19T07:17:04.208Z</time></trkpt><trkpt lat="46.4029638" lon="12.8129017"><ele>456.0</ele><time>2026-04-19T07:17:05.209Z</time></trkpt><trkpt lat="46.4029052" lon="12.8127453"><ele>457.25</ele><time>2026-04-19T07:17:06.209Z</time></trkpt><trkpt lat="46.4028514" lon="12.8125913"><ele>458.5</ele><time>2026-04-19T07:17:07.208Z</time></trkpt><trkpt lat="46.4027979" lon="12.8124331"><ele>459.75</ele><time>2026-04-19T07:17:08.208Z</time></trkpt><trkpt lat="46.4027459" lon="12.812275"><ele>461.0</ele><time>2026-04-19T07:17:09.207Z</time></trkpt><trkpt lat="46.4026911" lon="12.8121224"><ele>461.0</ele><time>2026-04-19T07:17:10.207Z</time></trkpt><trkpt lat="46.4026364" lon="12.8119669"><ele>461.0</ele><time>2026-04-19T07:17:11.208Z</time></trkpt><trkpt lat="46.4025811" lon="12.8118112"><ele>461.0</ele><time>2026-04-19T07:17:12.208Z</time></trkpt><trkpt lat="46.4025238" lon="12.8116573"><ele>461.0</ele><time>2026-04-19T07:17:13.208Z</time></trkpt><trkpt lat="46.4024687" lon="12.8114967"><ele>461.75</ele><time>2026-04-19T07:17:14.208Z</time></trkpt><trkpt lat="46.4024109" lon="12.811338"><ele>462.5</ele><time>2026-04-19T07:17:15.209Z</time></trkpt><trkpt lat="46.4023555" lon="12.811176"><ele>463.25</ele><time>2026-04-19T07:17:16.208Z</time></trkpt><trkpt lat="46.4022971" lon="12.8110162"><ele>464.0</ele><time>2026-04-19T07:17:17.208Z</time></trkpt><trkpt lat="46.4022391" lon="12.8108587"><ele>464.75</ele><time>2026-04-19T07:17:18.207Z</time></trkpt><trkpt lat="46.4021817" lon="12.8106976"><ele>465.5</ele><time>2026-04-19T07:17:19.208Z</time></trkpt><trkpt lat="46.4021259" lon="12.8105314"><ele>466.25</ele><time>2026-04-19T07:17:20.209Z</time></trkpt><trkpt lat="46.4020675" lon="12.8103676"><ele>467.0</ele><time>2026-04-19T07:17:21.209Z</time></trkpt><trkpt lat="46.402011" lon="12.8102022"><ele>469.75</ele><time>2026-04-19T07:17:22.209Z</time></trkpt><trkpt lat="46.4019553" lon="12.8100367"><ele>472.5</ele><time>2026-04-19T07:17:23.208Z</time></trkpt><trkpt lat="46.4019002" lon="12.8098711"><ele>475.25</ele><time>2026-04-19T07:17:24.208Z</time></trkpt><trkpt lat="46.4018417" lon="12.8097081"><ele>478.0</ele><time>2026-04-19T07:17:25.209Z</time></trkpt><trkpt lat="46.4017876" lon="12.8095419"><ele>478.0</ele><time>2026-04-19T07:17:26.207Z</time></trkpt><trkpt lat="46.4017447" lon="12.8093713"><ele>478.0</ele><time>2026-04-19T07:17:27.208Z</time></trkpt><trkpt lat="46.4017136" lon="12.8092024"><ele>478.0</ele><time>2026-04-19T07:17:28.208Z</time></trkpt><trkpt lat="46.4016982" lon="12.8090251"><ele>478.0</ele><time>2026-04-19T07:17:29.208Z</time></trkpt><trkpt lat="46.4016875" lon="12.8088492"><ele>478.5</ele><time>2026-04-19T07:17:30.209Z</time></trkpt><trkpt lat="46.4016787" lon="12.808676"><ele>479.0</ele><time>2026-04-19T07:17:31.209Z</time></trkpt><trkpt lat="46.4016684" lon="12.8085051"><ele>479.5</ele><time>2026-04-19T07:17:32.208Z</time></trkpt><trkpt lat="46.4016604" lon="12.808335"><ele>480.0</ele><time>2026-04-19T07:17:33.207Z</time></trkpt><trkpt lat="46.4016515" lon="12.8081673"><ele>481.0</ele><time>2026-04-19T07:17:34.207Z</time></trkpt><trkpt lat="46.4016348" lon="12.8080011"><ele>482.0</ele><time>2026-04-19T07:17:35.208Z</time></trkpt><trkpt lat="46.4016084" lon="12.8078329"><ele>483.0</ele><time>2026-04-19T07:17:36.207Z</time></trkpt><trkpt lat="46.4015735" lon="12.8076693"><ele>484.0</ele><time>2026-04-19T07:17:37.207Z</time></trkpt><trkpt lat="46.4015286" lon="12.8075072"><ele>485.25</ele><time>2026-04-19T07:17:38.208Z</time></trkpt><trkpt lat="46.4014728" lon="12.8073509"><ele>486.5</ele><time>2026-04-19T07:17:39.207Z</time></trkpt><trkpt lat="46.4014083" lon="12.8071978"><ele>487.75</ele><time>2026-04-19T07:17:40.207Z</time></trkpt><trkpt lat="46.4013435" lon="12.8070449"><ele>489.0</ele><time>2026-04-19T07:17:41.208Z</time></trkpt><trkpt lat="46.4012771" lon="12.8068912"><ele>492.5</ele><time>2026-04-19T07:17:42.208Z</time></trkpt><trkpt lat="46.4012109" lon="12.8067414"><ele>496.0</ele><time>2026-04-19T07:17:43.208Z</time></trkpt><trkpt lat="46.4011432" lon="12.8065897"><ele>499.5</ele><time>2026-04-19T07:17:44.208Z</time></trkpt><trkpt lat="46.4010759" lon="12.8064365"><ele>503.0</ele><time>2026-04-19T07:17:45.208Z</time></trkpt><trkpt lat="46.4010096" lon="12.8062842"><ele>503.0</ele><time>2026-04-19T07:17:46.208Z</time></trkpt><trkpt lat="46.4009421" lon="12.806132"><ele>503.0</ele><time>2026-04-19T07:17:47.208Z</time></trkpt><trkpt lat="46.4008762" lon="12.8059799"><ele>503.0</ele><time>2026-04-19T07:17:48.208Z</time></trkpt><trkpt lat="46.4008096" lon="12.8058254"><ele>503.0</ele><time>2026-04-19T07:17:49.209Z</time></trkpt><trkpt lat="46.4007486" lon="12.8056735"><ele>502.25</ele><time>2026-04-19T07:17:50.208Z</time></trkpt><trkpt lat="46.4006834" lon="12.8055236"><ele>501.5</ele><time>2026-04-19T07:17:51.208Z</time></trkpt><trkpt lat="46.4006149" lon="12.8053767"><ele>500.75</ele><time>2026-04-19T07:17:52.209Z</time></trkpt><trkpt lat="46.4005436" lon="12.80524"><ele>500.0</ele><time>2026-04-19T07:17:53.209Z</time></trkpt><trkpt lat="46.4004578" lon="12.8051174"><ele>502.75</ele><time>2026-04-19T07:17:54.209Z</time></trkpt><trkpt lat="46.4003655" lon="12.8050037"><ele>505.5</ele><time>2026-04-19T07:17:55.208Z</time></trkpt><trkpt lat="46.4002674" lon="12.8048959"><ele>508.25</ele><time>2026-04-19T07:17:56.209Z</time></trkpt><trkpt lat="46.4001679" lon="12.8047918"><ele>511.0</ele><time>2026-04-19T07:17:57.208Z</time></trkpt><trkpt lat="46.4000683" lon="12.8046875"><ele>511.00000000000006</ele><time>2026-04-19T07:17:58.208Z</time></trkpt><trkpt lat="46.3999732" lon="12.8045917"><ele>511.0</ele><time>2026-04-19T07:17:59.208Z</time></trkpt><trkpt lat="46.3998882" lon="12.8045059"><ele>511.0</ele><time>2026-04-19T07:18:00.208Z</time></trkpt><trkpt lat="46.3998098" lon="12.8044402"><ele>511.0</ele><time>2026-04-19T07:18:01.207Z</time></trkpt><trkpt lat="46.3997363" lon="12.8044182"><ele>511.00000000000006</ele><time>2026-04-19T07:18:02.208Z</time></trkpt><trkpt lat="46.3996724" lon="12.8044247"><ele>511.0</ele><time>2026-04-19T07:18:03.208Z</time></trkpt><trkpt lat="46.399583" lon="12.804542"><ele>511.4</ele><time>2026-04-19T07:18:05.208Z</time></trkpt><trkpt lat="46.3995754" lon="12.8047258"><ele>511.8</ele><time>2026-04-19T07:18:07.207Z</time></trkpt><trkpt lat="46.3995969" lon="12.8048341"><ele>512.1999999999999</ele><time>2026-04-19T07:18:08.209Z</time></trkpt><trkpt lat="46.3996272" lon="12.8049617"><ele>512.6</ele><time>2026-04-19T07:18:09.208Z</time></trkpt><trkpt lat="46.3996568" lon="12.8051109"><ele>513.0</ele><time>2026-04-19T07:18:10.209Z</time></trkpt><trkpt lat="46.3996829" lon="12.8052853"><ele>513.0</ele><time>2026-04-19T07:18:11.208Z</time></trkpt><trkpt lat="46.3996997" lon="12.8054669"><ele>513.0</ele><time>2026-04-19T07:18:12.208Z</time></trkpt><trkpt lat="46.3997125" lon="12.8056383"><ele>513.0</ele><time>2026-04-19T07:18:13.208Z</time></trkpt><trkpt lat="46.3997317" lon="12.8057936"><ele>513.0</ele><time>2026-04-19T07:18:14.208Z</time></trkpt><trkpt lat="46.3997671" lon="12.8059245"><ele>513.6666666666666</ele><time>2026-04-19T07:18:15.207Z</time></trkpt><trkpt lat="46.3998024" lon="12.806022"><ele>514.3333333333334</ele><time>2026-04-19T07:18:16.207Z</time></trkpt><trkpt lat="46.399813" lon="12.8061172"><ele>515.0</ele><time>2026-04-19T07:18:17.208Z</time></trkpt><trkpt lat="46.3997989" lon="12.8062098"><ele>515.6666666666667</ele><time>2026-04-19T07:18:18.208Z</time></trkpt><trkpt lat="46.399751" lon="12.8062841"><ele>516.3333333333334</ele><time>2026-04-19T07:18:19.207Z</time></trkpt><trkpt lat="46.3996681" lon="12.8063424"><ele>517.0</ele><time>2026-04-19T07:18:20.208Z</time></trkpt><trkpt lat="46.3995871" lon="12.8063989"><ele>522.3333333333334</ele><time>2026-04-19T07:18:21.209Z</time></trkpt><trkpt lat="46.3995029" lon="12.8064626"><ele>527.6666666666667</ele><time>2026-04-19T07:18:22.208Z</time></trkpt><trkpt lat="46.3994171" lon="12.8065202"><ele>533.0</ele><time>2026-04-19T07:18:23.208Z</time></trkpt><trkpt lat="46.3993467" lon="12.8065754"><ele>538.3333333333334</ele><time>2026-04-19T07:18:24.209Z</time></trkpt><trkpt lat="46.3992996" lon="12.8066361"><ele>543.6666666666666</ele><time>2026-04-19T07:18:25.208Z</time></trkpt><trkpt lat="46.3992822" lon="12.8068028"><ele>549.0</ele><time>2026-04-19T07:18:27.207Z</time></trkpt><trkpt lat="46.3993066" lon="12.8068996"><ele>550.4</ele><time>2026-04-19T07:18:28.208Z</time></trkpt><trkpt lat="46.3993557" lon="12.8069886"><ele>551.8</ele><time>2026-04-19T07:18:29.208Z</time></trkpt><trkpt lat="46.3994235" lon="12.8070784"><ele>553.2</ele><time>2026-04-19T07:18:30.208Z</time></trkpt><trkpt lat="46.3994886" lon="12.8071651"><ele>554.6</ele><time>2026-04-19T07:18:31.208Z</time></trkpt><trkpt lat="46.3996111" lon="12.8072145"><ele>556.0</ele><time>2026-04-19T07:18:32.208Z</time></trkpt><trkpt lat="46.3997115" lon="12.8072626"><ele>553.4</ele><time>2026-04-19T07:18:33.207Z</time></trkpt><trkpt lat="46.3998038" lon="12.8073227"><ele>550.8</ele><time>2026-04-19T07:18:34.208Z</time></trkpt><trkpt lat="46.3998846" lon="12.807399"><ele>548.1999999999999</ele><time>2026-04-19T07:18:35.207Z</time></trkpt><trkpt lat="46.3999557" lon="12.8075086"><ele>545.6</ele><time>2026-04-19T07:18:36.208Z</time></trkpt><trkpt lat="46.4000174" lon="12.8076309"><ele>543.0</ele><time>2026-04-19T07:18:37.207Z</time></trkpt><trkpt lat="46.400072" lon="12.8077523"><ele>543.0</ele><time>2026-04-19T07:18:38.207Z</time></trkpt><trkpt lat="46.4001112" lon="12.8078757"><ele>543.0</ele><time>2026-04-19T07:18:39.207Z</time></trkpt><trkpt lat="46.4001257" lon="12.8080156"><ele>543.0</ele><time>2026-04-19T07:18:40.207Z</time></trkpt><trkpt lat="46.4001322" lon="12.8081554"><ele>543.0</ele><time>2026-04-19T07:18:41.207Z</time></trkpt><trkpt lat="46.4001304" lon="12.8082598"><ele>543.0</ele><time>2026-04-19T07:18:42.207Z</time></trkpt><trkpt lat="46.400127" lon="12.8083554"><ele>543.0</ele><time>2026-04-19T07:18:43.206Z</time></trkpt><trkpt lat="46.4000863" lon="12.8084276"><ele>543.0</ele><time>2026-04-19T07:18:44.206Z</time></trkpt><trkpt lat="46.3999287" lon="12.8083863"><ele>543.0</ele><time>2026-04-19T07:18:45.207Z</time></trkpt><trkpt lat="46.3998488" lon="12.8084312"><ele>543.0</ele><time>2026-04-19T07:18:46.206Z</time></trkpt><trkpt lat="46.3997621" lon="12.8084738"><ele>543.0</ele><time>2026-04-19T07:18:47.207Z</time></trkpt><trkpt lat="46.3997323" lon="12.808625"><ele>543.0</ele><time>2026-04-19T07:18:48.207Z</time></trkpt><trkpt lat="46.3997144" lon="12.8087709"><ele>542.6</ele><time>2026-04-19T07:18:49.207Z</time></trkpt><trkpt lat="46.3997106" lon="12.8089146"><ele>542.1999999999999</ele><time>2026-04-19T07:18:50.208Z</time></trkpt><trkpt lat="46.3997108" lon="12.809038"><ele>541.8</ele><time>2026-04-19T07:18:51.208Z</time></trkpt><trkpt lat="46.3996939" lon="12.8091413"><ele>541.4</ele><time>2026-04-19T07:18:52.206Z</time></trkpt><trkpt lat="46.3996586" lon="12.809256"><ele>541.0</ele><time>2026-04-19T07:18:53.207Z</time></trkpt><trkpt lat="46.3995746" lon="12.8093767"><ele>544.75</ele><time>2026-04-19T07:18:54.207Z</time></trkpt><trkpt lat="46.3995092" lon="12.8095041"><ele>548.5</ele><time>2026-04-19T07:18:55.207Z</time></trkpt><trkpt lat="46.3994159" lon="12.8096303"><ele>552.25</ele><time>2026-04-19T07:18:56.206Z</time></trkpt><trkpt lat="46.3993239" lon="12.8097516"><ele>556.0</ele><time>2026-04-19T07:18:57.208Z</time></trkpt><trkpt lat="46.3992463" lon="12.8098626"><ele>556.0</ele><time>2026-04-19T07:18:58.206Z</time></trkpt><trkpt lat="46.3991827" lon="12.8099672"><ele>556.0</ele><time>2026-04-19T07:18:59.207Z</time></trkpt><trkpt lat="46.3991328" lon="12.8100378"><ele>556.0</ele><time>2026-04-19T07:19:00.207Z</time></trkpt><trkpt lat="46.3990906" lon="12.8101096"><ele>556.0</ele><time>2026-04-19T07:19:01.207Z</time></trkpt><trkpt lat="46.3990352" lon="12.8101608"><ele>556.0</ele><time>2026-04-19T07:19:02.208Z</time></trkpt><trkpt lat="46.3988964" lon="12.809958"><ele>559.6</ele><time>2026-04-19T07:19:03.206Z</time></trkpt><trkpt lat="46.3987962" lon="12.809898"><ele>563.2</ele><time>2026-04-19T07:19:04.207Z</time></trkpt><trkpt lat="46.3986792" lon="12.8098825"><ele>566.8</ele><time>2026-04-19T07:19:05.208Z</time></trkpt><trkpt lat="46.3985731" lon="12.80989"><ele>570.4</ele><time>2026-04-19T07:19:06.206Z</time></trkpt><trkpt lat="46.3984702" lon="12.8099341"><ele>574.0</ele><time>2026-04-19T07:19:07.207Z</time></trkpt><trkpt lat="46.3983637" lon="12.8100011"><ele>574.0</ele><time>2026-04-19T07:19:08.207Z</time></trkpt><trkpt lat="46.398269" lon="12.8100757"><ele>574.0</ele><time>2026-04-19T07:19:09.207Z</time></trkpt><trkpt lat="46.398179" lon="12.8101511"><ele>574.0</ele><time>2026-04-19T07:19:10.207Z</time></trkpt><trkpt lat="46.3980937" lon="12.8102375"><ele>574.0</ele><time>2026-04-19T07:19:11.207Z</time></trkpt><trkpt lat="46.3980686" lon="12.8103224"><ele>574.0</ele><time>2026-04-19T07:19:12.207Z</time></trkpt><trkpt lat="46.3980677" lon="12.8104191"><ele>574.0</ele><time>2026-04-19T07:19:13.207Z</time></trkpt><trkpt lat="46.3981127" lon="12.8105252"><ele>574.0</ele><time>2026-04-19T07:19:14.208Z</time></trkpt><trkpt lat="46.3980438" lon="12.810573"><ele>574.0</ele><time>2026-04-19T07:19:16.208Z</time></trkpt><trkpt lat="46.3980051" lon="12.8104649"><ele>574.0</ele><time>2026-04-19T07:19:18.207Z</time></trkpt><trkpt lat="46.3980309" lon="12.8102717"><ele>574.0</ele><time>2026-04-19T07:19:20.207Z</time></trkpt><trkpt lat="46.3980681" lon="12.8101381"><ele>574.0</ele><time>2026-04-19T07:19:21.207Z</time></trkpt><trkpt lat="46.3981108" lon="12.8100233"><ele>574.0</ele><time>2026-04-19T07:19:22.206Z</time></trkpt><trkpt lat="46.3981518" lon="12.8098986"><ele>574.0</ele><time>2026-04-19T07:19:23.207Z</time></trkpt><trkpt lat="46.3981734" lon="12.8097982"><ele>574.0</ele><time>2026-04-19T07:19:24.207Z</time></trkpt><trkpt lat="46.3981976" lon="12.8096763"><ele>574.0</ele><time>2026-04-19T07:19:25.207Z</time></trkpt><trkpt lat="46.3982139" lon="12.8095631"><ele>574.0</ele><time>2026-04-19T07:19:26.206Z</time></trkpt><trkpt lat="46.3983081" lon="12.8094697"><ele>574.0</ele><time>2026-04-19T07:19:28.207Z</time></trkpt><trkpt lat="46.3983823" lon="12.8094647"><ele>574.0</ele><time>2026-04-19T07:19:29.206Z</time></trkpt><trkpt lat="46.3984763" lon="12.8094596"><ele>574.0</ele><time>2026-04-19T07:19:30.207Z</time></trkpt><trkpt lat="46.3985734" lon="12.8094708"><ele>574.0</ele><time>2026-04-19T07:19:31.206Z</time></trkpt><trkpt lat="46.3986735" lon="12.8094983"><ele>574.0</ele><time>2026-04-19T07:19:32.206Z</time></trkpt><trkpt lat="46.3987673" lon="12.8095045"><ele>574.0</ele><time>2026-04-19T07:19:33.207Z</time></trkpt><trkpt lat="46.3988625" lon="12.8094928"><ele>574.8</ele><time>2026-04-19T07:19:34.207Z</time></trkpt><trkpt lat="46.3989385" lon="12.8094204"><ele>575.5999999999999</ele><time>2026-04-19T07:19:35.206Z</time></trkpt><trkpt lat="46.3990049" lon="12.8093473"><ele>576.4</ele><time>2026-04-19T07:19:36.208Z</time></trkpt><trkpt lat="46.3990524" lon="12.8092588"><ele>577.1999999999999</ele><time>2026-04-19T07:19:37.207Z</time></trkpt><trkpt lat="46.3990872" lon="12.8091238"><ele>578.0</ele><time>2026-04-19T07:19:38.206Z</time></trkpt><trkpt lat="46.3991066" lon="12.8089625"><ele>578.0</ele><time>2026-04-19T07:19:39.207Z</time></trkpt><trkpt lat="46.3991182" lon="12.8088081"><ele>578.0</ele><time>2026-04-19T07:19:40.207Z</time></trkpt><trkpt lat="46.3991334" lon="12.8086433"><ele>578.0</ele><time>2026-04-19T07:19:41.208Z</time></trkpt><trkpt lat="46.3991419" lon="12.8085056"><ele>578.0</ele><time>2026-04-19T07:19:42.207Z</time></trkpt><trkpt lat="46.39914" lon="12.8083937"><ele>578.0</ele><time>2026-04-19T07:19:43.206Z</time></trkpt><trkpt lat="46.3991134" lon="12.8083103"><ele>578.75</ele><time>2026-04-19T07:19:44.207Z</time></trkpt><trkpt lat="46.3989757" lon="12.8082392"><ele>579.5</ele><time>2026-04-19T07:19:46.207Z</time></trkpt><trkpt lat="46.3988729" lon="12.8082367"><ele>580.25</ele><time>2026-04-19T07:19:47.207Z</time></trkpt><trkpt lat="46.3987586" lon="12.8082482"><ele>581.0</ele><time>2026-04-19T07:19:48.207Z</time></trkpt><trkpt lat="46.3986437" lon="12.8082484"><ele>583.8333333333333</ele><time>2026-04-19T07:19:49.207Z</time></trkpt><trkpt lat="46.3985301" lon="12.8082477"><ele>586.6666666666666</ele><time>2026-04-19T07:19:50.206Z</time></trkpt><trkpt lat="46.3984399" lon="12.808239"><ele>589.5</ele><time>2026-04-19T07:19:51.207Z</time></trkpt><trkpt lat="46.3983527" lon="12.8082423"><ele>592.3333333333334</ele><time>2026-04-19T07:19:52.207Z</time></trkpt><trkpt lat="46.3982762" lon="12.8082748"><ele>595.1666666666667</ele><time>2026-04-19T07:19:53.207Z</time></trkpt><trkpt lat="46.3982174" lon="12.8083183"><ele>598.0</ele><time>2026-04-19T07:19:54.207Z</time></trkpt><trkpt lat="46.3981707" lon="12.8083857"><ele>598.0</ele><time>2026-04-19T07:19:55.207Z</time></trkpt><trkpt lat="46.3981072" lon="12.8084771"><ele>598.0</ele><time>2026-04-19T07:19:56.207Z</time></trkpt><trkpt lat="46.3980607" lon="12.8086204"><ele>598.0</ele><time>2026-04-19T07:19:57.207Z</time></trkpt><trkpt lat="46.3980093" lon="12.8087129"><ele>598.0</ele><time>2026-04-19T07:19:58.207Z</time></trkpt><trkpt lat="46.3979331" lon="12.8087968"><ele>598.0</ele><time>2026-04-19T07:19:59.207Z</time></trkpt><trkpt lat="46.3978581" lon="12.8088807"><ele>601.8</ele><time>2026-04-19T07:20:00.208Z</time></trkpt><trkpt lat="46.3978087" lon="12.809004"><ele>605.5999999999999</ele><time>2026-04-19T07:20:01.207Z</time></trkpt><trkpt lat="46.3977745" lon="12.8091638"><ele>609.4000000000001</ele><time>2026-04-19T07:20:02.206Z</time></trkpt><trkpt lat="46.3977562" lon="12.8093156"><ele>613.2</ele><time>2026-04-19T07:20:03.207Z</time></trkpt><trkpt lat="46.3977492" lon="12.8094451"><ele>617.0</ele><time>2026-04-19T07:20:04.206Z</time></trkpt><trkpt lat="46.3977354" lon="12.8095559"><ele>617.0</ele><time>2026-04-19T07:20:05.206Z</time></trkpt><trkpt lat="46.3977135" lon="12.8096618"><ele>617.0</ele><time>2026-04-19T07:20:06.207Z</time></trkpt><trkpt lat="46.3976774" lon="12.8097654"><ele>617.0</ele><time>2026-04-19T07:20:07.207Z</time></trkpt><trkpt lat="46.3976281" lon="12.8098634"><ele>617.0</ele><time>2026-04-19T07:20:08.207Z</time></trkpt><trkpt lat="46.3975704" lon="12.8099469"><ele>617.0</ele><time>2026-04-19T07:20:09.207Z</time></trkpt><trkpt lat="46.3975121" lon="12.8100189"><ele>617.0</ele><time>2026-04-19T07:20:10.208Z</time></trkpt><trkpt lat="46.3974365" lon="12.8100614"><ele>617.0</ele><time>2026-04-19T07:20:11.208Z</time></trkpt><trkpt lat="46.3973456" lon="12.8100666"><ele>617.0</ele><time>2026-04-19T07:20:12.207Z</time></trkpt><trkpt lat="46.3972733" lon="12.8100605"><ele>617.0</ele><time>2026-04-19T07:20:13.207Z</time></trkpt><trkpt lat="46.397201" lon="12.8100347"><ele>617.0</ele><time>2026-04-19T07:20:14.207Z</time></trkpt><trkpt lat="46.3971341" lon="12.8099823"><ele>617.0</ele><time>2026-04-19T07:20:15.208Z</time></trkpt><trkpt lat="46.3970662" lon="12.8099529"><ele>617.0</ele><time>2026-04-19T07:20:16.207Z</time></trkpt><trkpt lat="46.3970049" lon="12.8099293"><ele>617.0</ele><time>2026-04-19T07:20:17.207Z</time></trkpt><trkpt lat="46.3969383" lon="12.8099497"><ele>619.8000000000001</ele><time>2026-04-19T07:20:18.206Z</time></trkpt><trkpt lat="46.396879" lon="12.8100328"><ele>622.6</ele><time>2026-04-19T07:20:19.206Z</time></trkpt><trkpt lat="46.396819" lon="12.810097"><ele>625.4000000000001</ele><time>2026-04-19T07:20:20.206Z</time></trkpt><trkpt lat="46.3967499" lon="12.810138"><ele>628.2</ele><time>2026-04-19T07:20:21.206Z</time></trkpt><trkpt lat="46.3966463" lon="12.8100681"><ele>631.0</ele><time>2026-04-19T07:20:23.207Z</time></trkpt><trkpt lat="46.3965945" lon="12.8099057"><ele>631.0</ele><time>2026-04-19T07:20:25.207Z</time></trkpt><trkpt lat="46.3966889" lon="12.8098143"><ele>631.0</ele><time>2026-04-19T07:20:26.207Z</time></trkpt><trkpt lat="46.3967358" lon="12.809739"><ele>631.0</ele><time>2026-04-19T07:20:27.207Z</time></trkpt><trkpt lat="46.3968093" lon="12.8096759"><ele>631.0</ele><time>2026-04-19T07:20:28.207Z</time></trkpt><trkpt lat="46.3969009" lon="12.809643"><ele>631.0</ele><time>2026-04-19T07:20:29.207Z</time></trkpt><trkpt lat="46.397009" lon="12.8096305"><ele>631.0</ele><time>2026-04-19T07:20:30.207Z</time></trkpt><trkpt lat="46.3971063" lon="12.8096119"><ele>631.0</ele><time>2026-04-19T07:20:31.207Z</time></trkpt><trkpt lat="46.3972038" lon="12.8095961"><ele>631.0</ele><time>2026-04-19T07:20:32.207Z</time></trkpt><trkpt lat="46.3972963" lon="12.8095754"><ele>631.0</ele><time>2026-04-19T07:20:33.206Z</time></trkpt><trkpt lat="46.3973759" lon="12.8095381"><ele>631.0</ele><time>2026-04-19T07:20:34.207Z</time></trkpt><trkpt lat="46.3974396" lon="12.8094926"><ele>631.0</ele><time>2026-04-19T07:20:35.207Z</time></trkpt><trkpt lat="46.3974995" lon="12.8093384"><ele>630.8</ele><time>2026-04-19T07:20:37.207Z</time></trkpt><trkpt lat="46.3974598" lon="12.8092468"><ele>630.6</ele><time>2026-04-19T07:20:38.208Z</time></trkpt><trkpt lat="46.3973735" lon="12.8091623"><ele>630.4</ele><time>2026-04-19T07:20:40.206Z</time></trkpt><trkpt lat="46.397308" lon="12.8091662"><ele>630.2</ele><time>2026-04-19T07:20:41.207Z</time></trkpt><trkpt lat="46.3971742" lon="12.8092348"><ele>630.0</ele><time>2026-04-19T07:20:43.206Z</time></trkpt><trkpt lat="46.3970938" lon="12.8092365"><ele>632.3333333333334</ele><time>2026-04-19T07:20:44.207Z</time></trkpt><trkpt lat="46.3970115" lon="12.8092261"><ele>634.6666666666666</ele><time>2026-04-19T07:20:45.206Z</time></trkpt><trkpt lat="46.3969354" lon="12.8092113"><ele>637.0</ele><time>2026-04-19T07:20:46.207Z</time></trkpt><trkpt lat="46.3968657" lon="12.8091885"><ele>639.3333333333333</ele><time>2026-04-19T07:20:47.207Z</time></trkpt><trkpt lat="46.3967945" lon="12.8091678"><ele>641.6666666666666</ele><time>2026-04-19T07:20:48.207Z</time></trkpt><trkpt lat="46.3967271" lon="12.8091532"><ele>644.0</ele><time>2026-04-19T07:20:49.207Z</time></trkpt><trkpt lat="46.396619" lon="12.8091275"><ele>644.0</ele><time>2026-04-19T07:20:51.207Z</time></trkpt><trkpt lat="46.3965149" lon="12.8091422"><ele>644.0</ele><time>2026-04-19T07:20:53.207Z</time></trkpt><trkpt lat="46.3964175" lon="12.8091992"><ele>644.0</ele><time>2026-04-19T07:20:55.207Z</time></trkpt><trkpt lat="46.3963095" lon="12.80924"><ele>644.0</ele><time>2026-04-19T07:20:57.206Z</time></trkpt><trkpt lat="46.3961963" lon="12.809215"><ele>644.0</ele><time>2026-04-19T07:20:59.207Z</time></trkpt><trkpt lat="46.3960834" lon="12.8091752"><ele>646.0</ele><time>2026-04-19T07:21:01.206Z</time></trkpt><trkpt lat="46.395989" lon="12.809087"><ele>648.0</ele><time>2026-04-19T07:21:03.207Z</time></trkpt><trkpt lat="46.3959201" lon="12.8089466"><ele>650.0</ele><time>2026-04-19T07:21:05.207Z</time></trkpt><trkpt lat="46.3958547" lon="12.8088466"><ele>652.0</ele><time>2026-04-19T07:21:07.206Z</time></trkpt><trkpt lat="46.3957615" lon="12.8088135"><ele>654.0</ele><time>2026-04-19T07:21:09.207Z</time></trkpt><trkpt lat="46.3956449" lon="12.8088477"><ele>654.0</ele><time>2026-04-19T07:21:11.208Z</time></trkpt><trkpt lat="46.3955304" lon="12.8088991"><ele>654.0</ele><time>2026-04-19T07:21:13.206Z</time></trkpt><trkpt lat="46.3954691" lon="12.8089357"><ele>654.0</ele><time>2026-04-19T07:21:14.208Z</time></trkpt><trkpt lat="46.3954139" lon="12.8090166"><ele>654.0</ele><time>2026-04-19T07:21:15.206Z</time></trkpt><trkpt lat="46.3953505" lon="12.8091212"><ele>654.0</ele><time>2026-04-19T07:21:16.207Z</time></trkpt><trkpt lat="46.395284" lon="12.8092477"><ele>656.2</ele><time>2026-04-19T07:21:17.207Z</time></trkpt><trkpt lat="46.3952209" lon="12.8093648"><ele>658.4000000000001</ele><time>2026-04-19T07:21:18.207Z</time></trkpt><trkpt lat="46.3951539" lon="12.8094974"><ele>660.6</ele><time>2026-04-19T07:21:19.207Z</time></trkpt><trkpt lat="46.3950922" lon="12.8096079"><ele>662.8</ele><time>2026-04-19T07:21:20.207Z</time></trkpt><trkpt lat="46.3950311" lon="12.8096934"><ele>665.0</ele><time>2026-04-19T07:21:21.207Z</time></trkpt><trkpt lat="46.3949589" lon="12.8097594"><ele>665.0</ele><time>2026-04-19T07:21:22.207Z</time></trkpt><trkpt lat="46.3948706" lon="12.8097724"><ele>665.0</ele><time>2026-04-19T07:21:23.206Z</time></trkpt><trkpt lat="46.3947708" lon="12.8097411"><ele>665.0</ele><time>2026-04-19T07:21:24.207Z</time></trkpt><trkpt lat="46.3946694" lon="12.8096703"><ele>665.0</ele><time>2026-04-19T07:21:25.207Z</time></trkpt><trkpt lat="46.3945673" lon="12.8095776"><ele>665.0</ele><time>2026-04-19T07:21:26.207Z</time></trkpt><trkpt lat="46.3944566" lon="12.8094846"><ele>663.75</ele><time>2026-04-19T07:21:27.207Z</time></trkpt><trkpt lat="46.3943471" lon="12.8093923"><ele>662.5</ele><time>2026-04-19T07:21:28.207Z</time></trkpt><trkpt lat="46.3942308" lon="12.8093014"><ele>661.25</ele><time>2026-04-19T07:21:29.207Z</time></trkpt><trkpt lat="46.3941245" lon="12.8092125"><ele>660.0</ele><time>2026-04-19T07:21:30.206Z</time></trkpt><trkpt lat="46.3940145" lon="12.8091207"><ele>660.0</ele><time>2026-04-19T07:21:31.207Z</time></trkpt><trkpt lat="46.393907" lon="12.8090297"><ele>660.0</ele><time>2026-04-19T07:21:32.206Z</time></trkpt><trkpt lat="46.3937995" lon="12.8089385"><ele>660.0</ele><time>2026-04-19T07:21:33.207Z</time></trkpt><trkpt lat="46.3936986" lon="12.8088428"><ele>660.0</ele><time>2026-04-19T07:21:34.207Z</time></trkpt><trkpt lat="46.3936005" lon="12.8087205"><ele>656.0</ele><time>2026-04-19T07:21:35.207Z</time></trkpt><trkpt lat="46.3934991" lon="12.8085651"><ele>652.0</ele><time>2026-04-19T07:21:36.207Z</time></trkpt><trkpt lat="46.3934053" lon="12.808384"><ele>648.0</ele><time>2026-04-19T07:21:37.206Z</time></trkpt><trkpt lat="46.3933155" lon="12.808214"><ele>648.0</ele><time>2026-04-19T07:21:38.208Z</time></trkpt><trkpt lat="46.3932299" lon="12.8080505"><ele>648.0</ele><time>2026-04-19T07:21:39.207Z</time></trkpt><trkpt lat="46.3931499" lon="12.8078943"><ele>648.0</ele><time>2026-04-19T07:21:40.207Z</time></trkpt><trkpt lat="46.3930796" lon="12.8077436"><ele>648.0</ele><time>2026-04-19T07:21:41.207Z</time></trkpt><trkpt lat="46.3930302" lon="12.8075612"><ele>644.25</ele><time>2026-04-19T07:21:42.207Z</time></trkpt><trkpt lat="46.392985" lon="12.8073842"><ele>640.5</ele><time>2026-04-19T07:21:43.207Z</time></trkpt><trkpt lat="46.3929409" lon="12.8071809"><ele>636.75</ele><time>2026-04-19T07:21:44.207Z</time></trkpt><trkpt lat="46.3928924" lon="12.8069999"><ele>633.0</ele><time>2026-04-19T07:21:45.207Z</time></trkpt><trkpt lat="46.3928473" lon="12.8067992"><ele>633.0</ele><time>2026-04-19T07:21:46.207Z</time></trkpt><trkpt lat="46.3927919" lon="12.8065624"><ele>633.0</ele><time>2026-04-19T07:21:47.208Z</time></trkpt><trkpt lat="46.3926781" lon="12.8062601"><ele>633.0</ele><time>2026-04-19T07:21:48.206Z</time></trkpt><trkpt lat="46.3926104" lon="12.8060196"><ele>636.0</ele><time>2026-04-19T07:21:49.207Z</time></trkpt><trkpt lat="46.3925279" lon="12.8057886"><ele>639.0</ele><time>2026-04-19T07:21:50.207Z</time></trkpt><trkpt lat="46.3924492" lon="12.8055533"><ele>642.0</ele><time>2026-04-19T07:21:51.207Z</time></trkpt><trkpt lat="46.3923801" lon="12.8053401"><ele>645.0</ele><time>2026-04-19T07:21:52.207Z</time></trkpt><trkpt lat="46.3923189" lon="12.8051433"><ele>648.0</ele><time>2026-04-19T07:21:53.207Z</time></trkpt><trkpt lat="46.3922714" lon="12.8049562"><ele>651.0</ele><time>2026-04-19T07:21:54.207Z</time></trkpt><trkpt lat="46.3922227" lon="12.8047489"><ele>654.0</ele><time>2026-04-19T07:21:55.206Z</time></trkpt><trkpt lat="46.3921824" lon="12.8045592"><ele>648.75</ele><time>2026-04-19T07:21:56.208Z</time></trkpt><trkpt lat="46.3921177" lon="12.8043999"><ele>643.5</ele><time>2026-04-19T07:21:57.207Z</time></trkpt><trkpt lat="46.392045" lon="12.8042242"><ele>638.25</ele><time>2026-04-19T07:21:58.207Z</time></trkpt><trkpt lat="46.3919311" lon="12.804102"><ele>633.0</ele><time>2026-04-19T07:21:59.207Z</time></trkpt><trkpt lat="46.3918328" lon="12.8039359"><ele>633.0</ele><time>2026-04-19T07:22:00.207Z</time></trkpt><trkpt lat="46.3917323" lon="12.803771"><ele>633.0</ele><time>2026-04-19T07:22:01.206Z</time></trkpt><trkpt lat="46.391651" lon="12.803557"><ele>633.0</ele><time>2026-04-19T07:22:02.207Z</time></trkpt><trkpt lat="46.39156" lon="12.8033702"><ele>627.0</ele><time>2026-04-19T07:22:03.207Z</time></trkpt><trkpt lat="46.391466" lon="12.803194"><ele>621.0</ele><time>2026-04-19T07:22:04.206Z</time></trkpt><trkpt lat="46.3913631" lon="12.8030199"><ele>615.0</ele><time>2026-04-19T07:22:05.208Z</time></trkpt><trkpt lat="46.391263" lon="12.8028356"><ele>623.0</ele><time>2026-04-19T07:22:06.206Z</time></trkpt><trkpt lat="46.3911735" lon="12.8026423"><ele>631.0</ele><time>2026-04-19T07:22:07.208Z</time></trkpt><trkpt lat="46.3910841" lon="12.8024551"><ele>639.0</ele><time>2026-04-19T07:22:08.206Z</time></trkpt><trkpt lat="46.391002" lon="12.8022597"><ele>639.0</ele><time>2026-04-19T07:22:09.207Z</time></trkpt><trkpt lat="46.3909167" lon="12.8020738"><ele>639.0</ele><time>2026-04-19T07:22:10.207Z</time></trkpt><trkpt lat="46.3908404" lon="12.8018919"><ele>639.0</ele><time>2026-04-19T07:22:11.207Z</time></trkpt><trkpt lat="46.3907787" lon="12.8017017"><ele>639.0</ele><time>2026-04-19T07:22:12.207Z</time></trkpt><trkpt lat="46.3907222" lon="12.8015386"><ele>636.8333333333334</ele><time>2026-04-19T07:22:13.207Z</time></trkpt><trkpt lat="46.3906824" lon="12.8013766"><ele>634.6666666666666</ele><time>2026-04-19T07:22:14.207Z</time></trkpt><trkpt lat="46.3906511" lon="12.801243"><ele>632.5</ele><time>2026-04-19T07:22:15.208Z</time></trkpt><trkpt lat="46.3906206" lon="12.8011438"><ele>630.3333333333333</ele><time>2026-04-19T07:22:16.207Z</time></trkpt><trkpt lat="46.3905591" lon="12.8010888"><ele>628.1666666666666</ele><time>2026-04-19T07:22:17.207Z</time></trkpt><trkpt lat="46.3904766" lon="12.8010516"><ele>626.0</ele><time>2026-04-19T07:22:18.207Z</time></trkpt><trkpt lat="46.390362" lon="12.8010182"><ele>630.4</ele><time>2026-04-19T07:22:19.207Z</time></trkpt><trkpt lat="46.3902554" lon="12.800983"><ele>634.8</ele><time>2026-04-19T07:22:20.207Z</time></trkpt><trkpt lat="46.3901499" lon="12.8009455"><ele>639.1999999999999</ele><time>2026-04-19T07:22:21.207Z</time></trkpt><trkpt lat="46.3900433" lon="12.8009116"><ele>643.6</ele><time>2026-04-19T07:22:22.207Z</time></trkpt><trkpt lat="46.3899586" lon="12.800863"><ele>648.0</ele><time>2026-04-19T07:22:23.207Z</time></trkpt><trkpt lat="46.3898727" lon="12.8008157"><ele>648.0</ele><time>2026-04-19T07:22:24.207Z</time></trkpt><trkpt lat="46.3897829" lon="12.8007444"><ele>648.0</ele><time>2026-04-19T07:22:25.206Z</time></trkpt><trkpt lat="46.3897083" lon="12.8005858"><ele>648.0</ele><time>2026-04-19T07:22:26.206Z</time></trkpt><trkpt lat="46.3896236" lon="12.8004794"><ele>648.0</ele><time>2026-04-19T07:22:27.206Z</time></trkpt><trkpt lat="46.3895496" lon="12.8003661"><ele>644.8</ele><time>2026-04-19T07:22:28.208Z</time></trkpt><trkpt lat="46.3894805" lon="12.8002588"><ele>641.5999999999999</ele><time>2026-04-19T07:22:29.206Z</time></trkpt><trkpt lat="46.3894452" lon="12.8000981"><ele>638.4000000000001</ele><time>2026-04-19T07:22:30.206Z</time></trkpt><trkpt lat="46.3894057" lon="12.7999726"><ele>635.2</ele><time>2026-04-19T07:22:31.207Z</time></trkpt><trkpt lat="46.389394" lon="12.7998408"><ele>632.0</ele><time>2026-04-19T07:22:32.207Z</time></trkpt><trkpt lat="46.3893553" lon="12.7997288"><ele>632.0</ele><time>2026-04-19T07:22:33.207Z</time></trkpt><trkpt lat="46.389292" lon="12.7996249"><ele>632.0</ele><time>2026-04-19T07:22:34.207Z</time></trkpt><trkpt lat="46.3892063" lon="12.7995359"><ele>632.0</ele><time>2026-04-19T07:22:35.208Z</time></trkpt><trkpt lat="46.3891109" lon="12.7994477"><ele>632.0</ele><time>2026-04-19T07:22:36.206Z</time></trkpt><trkpt lat="46.389024" lon="12.7993437"><ele>632.0</ele><time>2026-04-19T07:22:37.208Z</time></trkpt><trkpt lat="46.3889469" lon="12.7992275"><ele>633.5</ele><time>2026-04-19T07:22:38.206Z</time></trkpt><trkpt lat="46.388859" lon="12.7991478"><ele>635.0</ele><time>2026-04-19T07:22:39.206Z</time></trkpt><trkpt lat="46.3887564" lon="12.7990995"><ele>636.5</ele><time>2026-04-19T07:22:40.207Z</time></trkpt><trkpt lat="46.388628" lon="12.7990759"><ele>638.0</ele><time>2026-04-19T07:22:41.207Z</time></trkpt><trkpt lat="46.3885008" lon="12.7990646"><ele>638.0</ele><time>2026-04-19T07:22:42.208Z</time></trkpt><trkpt lat="46.3883754" lon="12.7990507"><ele>638.0</ele><time>2026-04-19T07:22:43.207Z</time></trkpt><trkpt lat="46.3882576" lon="12.7990458"><ele>638.0</ele><time>2026-04-19T07:22:44.207Z</time></trkpt><trkpt lat="46.3881482" lon="12.7990437"><ele>638.0</ele><time>2026-04-19T07:22:45.207Z</time></trkpt><trkpt lat="46.3880438" lon="12.7990251"><ele>631.0</ele><time>2026-04-19T07:22:46.207Z</time></trkpt><trkpt lat="46.387933" lon="12.7990159"><ele>624.0</ele><time>2026-04-19T07:22:47.207Z</time></trkpt><trkpt lat="46.3878166" lon="12.7989544"><ele>617.0</ele><time>2026-04-19T07:22:48.207Z</time></trkpt><trkpt lat="46.3877098" lon="12.7988008"><ele>610.0</ele><time>2026-04-19T07:22:49.207Z</time></trkpt><trkpt lat="46.3876005" lon="12.7986966"><ele>610.0</ele><time>2026-04-19T07:22:50.208Z</time></trkpt><trkpt lat="46.3874344" lon="12.798522"><ele>610.0</ele><time>2026-04-19T07:22:51.207Z</time></trkpt><trkpt lat="46.3872991" lon="12.7983646"><ele>610.0</ele><time>2026-04-19T07:22:52.207Z</time></trkpt><trkpt lat="46.3871518" lon="12.7981964"><ele>610.3333333333334</ele><time>2026-04-19T07:22:53.206Z</time></trkpt><trkpt lat="46.3870164" lon="12.7980196"><ele>610.6666666666666</ele><time>2026-04-19T07:22:54.207Z</time></trkpt><trkpt lat="46.3868814" lon="12.7978607"><ele>611.0</ele><time>2026-04-19T07:22:55.207Z</time></trkpt><trkpt lat="46.3867617" lon="12.7977098"><ele>619.3333333333333</ele><time>2026-04-19T07:22:56.206Z</time></trkpt><trkpt lat="46.3866531" lon="12.7975612"><ele>627.6666666666666</ele><time>2026-04-19T07:22:57.206Z</time></trkpt><trkpt lat="46.386543" lon="12.7974075"><ele>636.0</ele><time>2026-04-19T07:22:58.208Z</time></trkpt><trkpt lat="46.3864413" lon="12.7972396"><ele>636.0</ele><time>2026-04-19T07:22:59.207Z</time></trkpt><trkpt lat="46.3863583" lon="12.7970707"><ele>636.0</ele><time>2026-04-19T07:23:00.207Z</time></trkpt><trkpt lat="46.3862629" lon="12.7968844"><ele>636.0</ele><time>2026-04-19T07:23:01.206Z</time></trkpt><trkpt lat="46.3861778" lon="12.796695"><ele>625.6666666666666</ele><time>2026-04-19T07:23:02.207Z</time></trkpt><trkpt lat="46.3860989" lon="12.7964999"><ele>615.3333333333333</ele><time>2026-04-19T07:23:03.207Z</time></trkpt><trkpt lat="46.3860241" lon="12.7962879"><ele>605.0</ele><time>2026-04-19T07:23:04.206Z</time></trkpt><trkpt lat="46.3859528" lon="12.7960722"><ele>609.6666666666666</ele><time>2026-04-19T07:23:05.207Z</time></trkpt><trkpt lat="46.3858833" lon="12.795853"><ele>614.3333333333334</ele><time>2026-04-19T07:23:06.207Z</time></trkpt><trkpt lat="46.3858182" lon="12.7956362"><ele>619.0</ele><time>2026-04-19T07:23:07.207Z</time></trkpt><trkpt lat="46.3857578" lon="12.7954307"><ele>619.0</ele><time>2026-04-19T07:23:08.207Z</time></trkpt><trkpt lat="46.3857023" lon="12.7952293"><ele>619.0</ele><time>2026-04-19T07:23:09.207Z</time></trkpt><trkpt lat="46.3856659" lon="12.795053"><ele>619.0</ele><time>2026-04-19T07:23:10.207Z</time></trkpt><trkpt lat="46.3856338" lon="12.7948984"><ele>619.0</ele><time>2026-04-19T07:23:11.208Z</time></trkpt><trkpt lat="46.3855881" lon="12.7947668"><ele>620.8</ele><time>2026-04-19T07:23:12.206Z</time></trkpt><trkpt lat="46.3855278" lon="12.7946343"><ele>622.5999999999999</ele><time>2026-04-19T07:23:13.206Z</time></trkpt><trkpt lat="46.3854583" lon="12.7945074"><ele>624.4</ele><time>2026-04-19T07:23:14.207Z</time></trkpt><trkpt lat="46.3853872" lon="12.7943818"><ele>626.1999999999999</ele><time>2026-04-19T07:23:15.206Z</time></trkpt><trkpt lat="46.3853225" lon="12.794277"><ele>628.0</ele><time>2026-04-19T07:23:16.207Z</time></trkpt><trkpt lat="46.3852757" lon="12.7941306"><ele>620.75</ele><time>2026-04-19T07:23:17.207Z</time></trkpt><trkpt lat="46.385243" lon="12.7939634"><ele>613.5</ele><time>2026-04-19T07:23:18.207Z</time></trkpt><trkpt lat="46.3852057" lon="12.7937862"><ele>606.25</ele><time>2026-04-19T07:23:19.206Z</time></trkpt><trkpt lat="46.3851746" lon="12.7935879"><ele>599.0</ele><time>2026-04-19T07:23:20.207Z</time></trkpt><trkpt lat="46.3851488" lon="12.793385"><ele>599.0</ele><time>2026-04-19T07:23:21.207Z</time></trkpt><trkpt lat="46.3851158" lon="12.7931902"><ele>599.0</ele><time>2026-04-19T07:23:22.208Z</time></trkpt><trkpt lat="46.3850817" lon="12.7929819"><ele>599.0</ele><time>2026-04-19T07:23:23.206Z</time></trkpt><trkpt lat="46.3850477" lon="12.7927741"><ele>599.0</ele><time>2026-04-19T07:23:24.206Z</time></trkpt><trkpt lat="46.385013" lon="12.7925662"><ele>598.6666666666666</ele><time>2026-04-19T07:23:25.208Z</time></trkpt><trkpt lat="46.384981" lon="12.7923563"><ele>598.3333333333334</ele><time>2026-04-19T07:23:26.208Z</time></trkpt><trkpt lat="46.3849454" lon="12.7921427"><ele>598.0</ele><time>2026-04-19T07:23:27.207Z</time></trkpt><trkpt lat="46.3849122" lon="12.7919305"><ele>597.6666666666667</ele><time>2026-04-19T07:23:28.207Z</time></trkpt><trkpt lat="46.3848739" lon="12.7917198"><ele>597.3333333333334</ele><time>2026-04-19T07:23:29.208Z</time></trkpt><trkpt lat="46.3848377" lon="12.7915062"><ele>597.0</ele><time>2026-04-19T07:23:30.207Z</time></trkpt><trkpt lat="46.3848013" lon="12.7912982"><ele>597.0</ele><time>2026-04-19T07:23:31.207Z</time></trkpt><trkpt lat="46.3847627" lon="12.791093"><ele>597.0</ele><time>2026-04-19T07:23:32.207Z</time></trkpt><trkpt lat="46.3847291" lon="12.7908839"><ele>597.0</ele><time>2026-04-19T07:23:33.206Z</time></trkpt><trkpt lat="46.384705" lon="12.7906727"><ele>597.0</ele><time>2026-04-19T07:23:34.206Z</time></trkpt><trkpt lat="46.3846855" lon="12.7904604"><ele>590.0</ele><time>2026-04-19T07:23:35.207Z</time></trkpt><trkpt lat="46.3846583" lon="12.7902468"><ele>583.0</ele><time>2026-04-19T07:23:36.207Z</time></trkpt><trkpt lat="46.3846188" lon="12.7900388"><ele>576.0</ele><time>2026-04-19T07:23:37.206Z</time></trkpt><trkpt lat="46.384575" lon="12.7898325"><ele>569.0</ele><time>2026-04-19T07:23:38.206Z</time></trkpt><trkpt lat="46.384515" lon="12.7896255"><ele>566.6666666666666</ele><time>2026-04-19T07:23:39.208Z</time></trkpt><trkpt lat="46.3844517" lon="12.7894165"><ele>564.3333333333334</ele><time>2026-04-19T07:23:40.207Z</time></trkpt><trkpt lat="46.3843872" lon="12.7892099"><ele>562.0</ele><time>2026-04-19T07:23:41.206Z</time></trkpt><trkpt lat="46.3843352" lon="12.7890202"><ele>560.75</ele><time>2026-04-19T07:23:42.206Z</time></trkpt><trkpt lat="46.3842866" lon="12.7888444"><ele>559.5</ele><time>2026-04-19T07:23:43.207Z</time></trkpt><trkpt lat="46.3842425" lon="12.7886864"><ele>558.25</ele><time>2026-04-19T07:23:44.207Z</time></trkpt><trkpt lat="46.3842044" lon="12.7885437"><ele>557.0</ele><time>2026-04-19T07:23:45.206Z</time></trkpt><trkpt lat="46.3841622" lon="12.7884009"><ele>557.0</ele><time>2026-04-19T07:23:46.206Z</time></trkpt><trkpt lat="46.3841272" lon="12.7882615"><ele>557.0</ele><time>2026-04-19T07:23:47.205Z</time></trkpt><trkpt lat="46.3841108" lon="12.788118"><ele>557.0</ele><time>2026-04-19T07:23:48.206Z</time></trkpt><trkpt lat="46.3841169" lon="12.7879661"><ele>557.0</ele><time>2026-04-19T07:23:49.206Z</time></trkpt><trkpt lat="46.3841415" lon="12.7878089"><ele>557.0</ele><time>2026-04-19T07:23:50.206Z</time></trkpt><trkpt lat="46.3841728" lon="12.787663"><ele>557.1666666666666</ele><time>2026-04-19T07:23:51.207Z</time></trkpt><trkpt lat="46.3842033" lon="12.7875385"><ele>557.3333333333333</ele><time>2026-04-19T07:23:52.206Z</time></trkpt><trkpt lat="46.3842217" lon="12.7874251"><ele>557.5</ele><time>2026-04-19T07:23:53.205Z</time></trkpt><trkpt lat="46.3842127" lon="12.7873316"><ele>557.6666666666666</ele><time>2026-04-19T07:23:54.206Z</time></trkpt><trkpt lat="46.3841251" lon="12.7872388"><ele>557.8333333333334</ele><time>2026-04-19T07:23:56.207Z</time></trkpt><trkpt lat="46.3840375" lon="12.7873049"><ele>558.0</ele><time>2026-04-19T07:23:58.206Z</time></trkpt><trkpt lat="46.3840107" lon="12.7873991"><ele>558.0</ele><time>2026-04-19T07:23:59.207Z</time></trkpt><trkpt lat="46.3840012" lon="12.7875425"><ele>558.0</ele><time>2026-04-19T07:24:00.205Z</time></trkpt><trkpt lat="46.3839597" lon="12.7877045"><ele>558.0</ele><time>2026-04-19T07:24:01.206Z</time></trkpt><trkpt lat="46.3838996" lon="12.7878529"><ele>558.0</ele><time>2026-04-19T07:24:02.206Z</time></trkpt><trkpt lat="46.3838428" lon="12.7880217"><ele>553.75</ele><time>2026-04-19T07:24:03.206Z</time></trkpt><trkpt lat="46.3837936" lon="12.7881944"><ele>549.5</ele><time>2026-04-19T07:24:04.206Z</time></trkpt><trkpt lat="46.3837352" lon="12.7883605"><ele>545.25</ele><time>2026-04-19T07:24:05.206Z</time></trkpt><trkpt lat="46.3836642" lon="12.7885159"><ele>541.0</ele><time>2026-04-19T07:24:06.206Z</time></trkpt><trkpt lat="46.3835895" lon="12.7886547"><ele>541.0</ele><time>2026-04-19T07:24:07.205Z</time></trkpt><trkpt lat="46.3835071" lon="12.7887759"><ele>541.0</ele><time>2026-04-19T07:24:08.205Z</time></trkpt><trkpt lat="46.3834354" lon="12.7888775"><ele>541.0</ele><time>2026-04-19T07:24:09.207Z</time></trkpt><trkpt lat="46.3833781" lon="12.7889661"><ele>541.0</ele><time>2026-04-19T07:24:10.207Z</time></trkpt><trkpt lat="46.3833127" lon="12.7890246"><ele>541.0</ele><time>2026-04-19T07:24:11.206Z</time></trkpt><trkpt lat="46.3832353" lon="12.7890419"><ele>541.0</ele><time>2026-04-19T07:24:12.205Z</time></trkpt><trkpt lat="46.3831626" lon="12.789013"><ele>541.0</ele><time>2026-04-19T07:24:13.206Z</time></trkpt><trkpt lat="46.3831068" lon="12.788936"><ele>541.0</ele><time>2026-04-19T07:24:14.205Z</time></trkpt><trkpt lat="46.383069" lon="12.788825"><ele>541.0</ele><time>2026-04-19T07:24:15.206Z</time></trkpt><trkpt lat="46.3830405" lon="12.7886993"><ele>541.0</ele><time>2026-04-19T07:24:16.206Z</time></trkpt><trkpt lat="46.3830072" lon="12.7885758"><ele>541.0</ele><time>2026-04-19T07:24:17.206Z</time></trkpt><trkpt lat="46.3829553" lon="12.7884669"><ele>536.4</ele><time>2026-04-19T07:24:18.206Z</time></trkpt><trkpt lat="46.3828922" lon="12.7883943"><ele>531.8</ele><time>2026-04-19T07:24:19.206Z</time></trkpt><trkpt lat="46.382808" lon="12.7883698"><ele>527.1999999999999</ele><time>2026-04-19T07:24:20.206Z</time></trkpt><trkpt lat="46.3827167" lon="12.7883865"><ele>522.6</ele><time>2026-04-19T07:24:21.206Z</time></trkpt><trkpt lat="46.3826212" lon="12.7884306"><ele>518.0</ele><time>2026-04-19T07:24:22.206Z</time></trkpt><trkpt lat="46.3825175" lon="12.7884637"><ele>518.0</ele><time>2026-04-19T07:24:23.206Z</time></trkpt><trkpt lat="46.3823941" lon="12.7884774"><ele>518.0</ele><time>2026-04-19T07:24:24.206Z</time></trkpt><trkpt lat="46.3822653" lon="12.7884647"><ele>518.0</ele><time>2026-04-19T07:24:25.205Z</time></trkpt><trkpt lat="46.3821269" lon="12.7884053"><ele>518.0</ele><time>2026-04-19T07:24:26.206Z</time></trkpt><trkpt lat="46.381981" lon="12.7882826"><ele>514.3333333333333</ele><time>2026-04-19T07:24:27.206Z</time></trkpt><trkpt lat="46.3818213" lon="12.788121"><ele>510.66666666666663</ele><time>2026-04-19T07:24:28.205Z</time></trkpt><trkpt lat="46.3816594" lon="12.7879506"><ele>507.0</ele><time>2026-04-19T07:24:29.206Z</time></trkpt><trkpt lat="46.3814788" lon="12.7877722"><ele>507.33333333333337</ele><time>2026-04-19T07:24:30.206Z</time></trkpt><trkpt lat="46.3813087" lon="12.7876027"><ele>507.6666666666667</ele><time>2026-04-19T07:24:31.206Z</time></trkpt><trkpt lat="46.3811487" lon="12.7874409"><ele>508.0</ele><time>2026-04-19T07:24:32.206Z</time></trkpt><trkpt lat="46.3810004" lon="12.7872876"><ele>508.0</ele><time>2026-04-19T07:24:33.207Z</time></trkpt><trkpt lat="46.3808663" lon="12.7871562"><ele>508.0</ele><time>2026-04-19T07:24:34.206Z</time></trkpt><trkpt lat="46.380741" lon="12.7870346"><ele>508.0</ele><time>2026-04-19T07:24:35.206Z</time></trkpt><trkpt lat="46.3806276" lon="12.7869281"><ele>508.0</ele><time>2026-04-19T07:24:36.205Z</time></trkpt><trkpt lat="46.3805296" lon="12.786821"><ele>509.2</ele><time>2026-04-19T07:24:37.206Z</time></trkpt><trkpt lat="46.3804421" lon="12.7867007"><ele>510.4</ele><time>2026-04-19T07:24:38.205Z</time></trkpt><trkpt lat="46.3803689" lon="12.7865747"><ele>511.59999999999997</ele><time>2026-04-19T07:24:39.206Z</time></trkpt><trkpt lat="46.38031" lon="12.7864439"><ele>512.8</ele><time>2026-04-19T07:24:40.205Z</time></trkpt><trkpt lat="46.3802747" lon="12.7863001"><ele>514.0</ele><time>2026-04-19T07:24:41.206Z</time></trkpt><trkpt lat="46.3802629" lon="12.7861453"><ele>514.6</ele><time>2026-04-19T07:24:42.206Z</time></trkpt><trkpt lat="46.3802546" lon="12.7859918"><ele>515.2</ele><time>2026-04-19T07:24:43.205Z</time></trkpt><trkpt lat="46.3802306" lon="12.7858389"><ele>515.8000000000001</ele><time>2026-04-19T07:24:44.207Z</time></trkpt><trkpt lat="46.3801967" lon="12.7856891"><ele>516.4</ele><time>2026-04-19T07:24:45.206Z</time></trkpt><trkpt lat="46.3801385" lon="12.7855624"><ele>517.0</ele><time>2026-04-19T07:24:46.206Z</time></trkpt><trkpt lat="46.3800619" lon="12.7854604"><ele>517.0</ele><time>2026-04-19T07:24:47.207Z</time></trkpt><trkpt lat="46.3799715" lon="12.7853759"><ele>517.0</ele><time>2026-04-19T07:24:48.205Z</time></trkpt><trkpt lat="46.3798712" lon="12.7853054"><ele>517.0</ele><time>2026-04-19T07:24:49.206Z</time></trkpt><trkpt lat="46.3797655" lon="12.7852281"><ele>517.0</ele><time>2026-04-19T07:24:50.206Z</time></trkpt><trkpt lat="46.3796554" lon="12.7851437"><ele>514.75</ele><time>2026-04-19T07:24:51.206Z</time></trkpt><trkpt lat="46.3795441" lon="12.7850556"><ele>512.5</ele><time>2026-04-19T07:24:52.206Z</time></trkpt><trkpt lat="46.3794301" lon="12.7849601"><ele>510.25</ele><time>2026-04-19T07:24:53.205Z</time></trkpt><trkpt lat="46.3793126" lon="12.7848571"><ele>508.0</ele><time>2026-04-19T07:24:54.206Z</time></trkpt><trkpt lat="46.3791941" lon="12.7847453"><ele>508.0</ele><time>2026-04-19T07:24:55.207Z</time></trkpt><trkpt lat="46.3790746" lon="12.7846301"><ele>508.0</ele><time>2026-04-19T07:24:56.206Z</time></trkpt><trkpt lat="46.378957" lon="12.7845062"><ele>508.0</ele><time>2026-04-19T07:24:57.206Z</time></trkpt><trkpt lat="46.3788396" lon="12.7843807"><ele>508.0</ele><time>2026-04-19T07:24:58.205Z</time></trkpt><trkpt lat="46.3787279" lon="12.7842424"><ele>506.75</ele><time>2026-04-19T07:24:59.206Z</time></trkpt><trkpt lat="46.3786175" lon="12.7841021"><ele>505.5</ele><time>2026-04-19T07:25:00.206Z</time></trkpt><trkpt lat="46.3785078" lon="12.7839565"><ele>504.25</ele><time>2026-04-19T07:25:01.206Z</time></trkpt><trkpt lat="46.3783971" lon="12.7838102"><ele>503.0</ele><time>2026-04-19T07:25:02.206Z</time></trkpt><trkpt lat="46.3782872" lon="12.7836666"><ele>503.0</ele><time>2026-04-19T07:25:03.206Z</time></trkpt><trkpt lat="46.3781774" lon="12.7835258"><ele>503.0</ele><time>2026-04-19T07:25:04.206Z</time></trkpt><trkpt lat="46.3780667" lon="12.7833844"><ele>503.0</ele><time>2026-04-19T07:25:05.206Z</time></trkpt><trkpt lat="46.3779581" lon="12.7832443"><ele>503.0</ele><time>2026-04-19T07:25:06.206Z</time></trkpt><trkpt lat="46.3778559" lon="12.7831129"><ele>504.5</ele><time>2026-04-19T07:25:07.206Z</time></trkpt><trkpt lat="46.377755" lon="12.7829949"><ele>506.0</ele><time>2026-04-19T07:25:08.206Z</time></trkpt><trkpt lat="46.3776548" lon="12.782903"><ele>507.5</ele><time>2026-04-19T07:25:09.207Z</time></trkpt><trkpt lat="46.3775474" lon="12.7828352"><ele>509.0</ele><time>2026-04-19T07:25:10.206Z</time></trkpt><trkpt lat="46.3774285" lon="12.7827983"><ele>509.0</ele><time>2026-04-19T07:25:11.206Z</time></trkpt><trkpt lat="46.3773068" lon="12.7827888"><ele>509.0</ele><time>2026-04-19T07:25:12.206Z</time></trkpt><trkpt lat="46.3771823" lon="12.7828085"><ele>509.0</ele><time>2026-04-19T07:25:13.207Z</time></trkpt><trkpt lat="46.3770623" lon="12.7828432"><ele>509.0</ele><time>2026-04-19T07:25:14.206Z</time></trkpt><trkpt lat="46.3769475" lon="12.7828907"><ele>509.2</ele><time>2026-04-19T07:25:15.206Z</time></trkpt><trkpt lat="46.3768433" lon="12.7829711"><ele>509.4</ele><time>2026-04-19T07:25:16.206Z</time></trkpt><trkpt lat="46.3767582" lon="12.7830659"><ele>509.6</ele><time>2026-04-19T07:25:17.206Z</time></trkpt><trkpt lat="46.3766873" lon="12.7831483"><ele>509.8</ele><time>2026-04-19T07:25:18.205Z</time></trkpt><trkpt lat="46.3766167" lon="12.7832052"><ele>510.0</ele><time>2026-04-19T07:25:19.205Z</time></trkpt><trkpt lat="46.3765412" lon="12.7832045"><ele>510.0</ele><time>2026-04-19T07:25:20.207Z</time></trkpt><trkpt lat="46.3764567" lon="12.7831839"><ele>510.0</ele><time>2026-04-19T07:25:21.205Z</time></trkpt><trkpt lat="46.3763727" lon="12.7831142"><ele>510.0</ele><time>2026-04-19T07:25:22.206Z</time></trkpt><trkpt lat="46.3762787" lon="12.7830263"><ele>510.0</ele><time>2026-04-19T07:25:23.205Z</time></trkpt><trkpt lat="46.3761785" lon="12.782945"><ele>510.0</ele><time>2026-04-19T07:25:24.205Z</time></trkpt><trkpt lat="46.3760727" lon="12.7828521"><ele>510.75</ele><time>2026-04-19T07:25:25.206Z</time></trkpt><trkpt lat="46.3759687" lon="12.7827637"><ele>511.5</ele><time>2026-04-19T07:25:26.206Z</time></trkpt><trkpt lat="46.3758744" lon="12.7826748"><ele>512.25</ele><time>2026-04-19T07:25:27.206Z</time></trkpt><trkpt lat="46.3757869" lon="12.7825771"><ele>513.0</ele><time>2026-04-19T07:25:28.206Z</time></trkpt><trkpt lat="46.3757121" lon="12.7824614"><ele>514.5</ele><time>2026-04-19T07:25:29.206Z</time></trkpt><trkpt lat="46.3756523" lon="12.7823302"><ele>516.0</ele><time>2026-04-19T07:25:30.206Z</time></trkpt><trkpt lat="46.3756188" lon="12.7821618"><ele>517.5</ele><time>2026-04-19T07:25:31.206Z</time></trkpt><trkpt lat="46.3755938" lon="12.7819803"><ele>519.0</ele><time>2026-04-19T07:25:32.207Z</time></trkpt><trkpt lat="46.3755712" lon="12.7818031"><ele>517.0</ele><time>2026-04-19T07:25:33.206Z</time></trkpt><trkpt lat="46.3755406" lon="12.781637"><ele>515.0</ele><time>2026-04-19T07:25:34.205Z</time></trkpt><trkpt lat="46.3755033" lon="12.7814643"><ele>513.0</ele><time>2026-04-19T07:25:35.207Z</time></trkpt><trkpt lat="46.375431" lon="12.7812888"><ele>511.0</ele><time>2026-04-19T07:25:36.206Z</time></trkpt><trkpt lat="46.3753332" lon="12.7811797"><ele>511.0</ele><time>2026-04-19T07:25:37.206Z</time></trkpt><trkpt lat="46.3752543" lon="12.781049"><ele>511.0</ele><time>2026-04-19T07:25:38.206Z</time></trkpt><trkpt lat="46.3751961" lon="12.7808988"><ele>511.0</ele><time>2026-04-19T07:25:39.206Z</time></trkpt><trkpt lat="46.3751249" lon="12.7807551"><ele>511.0</ele><time>2026-04-19T07:25:40.206Z</time></trkpt><trkpt lat="46.3751243" lon="12.7805526"><ele>512.5</ele><time>2026-04-19T07:25:41.206Z</time></trkpt><trkpt lat="46.3751018" lon="12.7803615"><ele>514.0</ele><time>2026-04-19T07:25:42.207Z</time></trkpt><trkpt lat="46.3750849" lon="12.7801643"><ele>515.5</ele><time>2026-04-19T07:25:43.206Z</time></trkpt><trkpt lat="46.3750691" lon="12.7799725"><ele>517.0</ele><time>2026-04-19T07:25:44.207Z</time></trkpt><trkpt lat="46.3750528" lon="12.7797872"><ele>518.4</ele><time>2026-04-19T07:25:45.205Z</time></trkpt><trkpt lat="46.3750331" lon="12.7796185"><ele>519.8000000000001</ele><time>2026-04-19T07:25:46.206Z</time></trkpt><trkpt lat="46.3750124" lon="12.7794636"><ele>521.2</ele><time>2026-04-19T07:25:47.206Z</time></trkpt><trkpt lat="46.3749764" lon="12.77932"><ele>522.6</ele><time>2026-04-19T07:25:48.206Z</time></trkpt><trkpt lat="46.3749228" lon="12.7791936"><ele>524.0</ele><time>2026-04-19T07:25:49.206Z</time></trkpt><trkpt lat="46.3748519" lon="12.7790883"><ele>522.4</ele><time>2026-04-19T07:25:50.207Z</time></trkpt><trkpt lat="46.3747765" lon="12.7790054"><ele>520.8</ele><time>2026-04-19T07:25:51.206Z</time></trkpt><trkpt lat="46.3746933" lon="12.7789474"><ele>519.2</ele><time>2026-04-19T07:25:52.206Z</time></trkpt><trkpt lat="46.3746078" lon="12.7789099"><ele>517.6</ele><time>2026-04-19T07:25:53.206Z</time></trkpt><trkpt lat="46.3745147" lon="12.7788894"><ele>516.0</ele><time>2026-04-19T07:25:54.206Z</time></trkpt><trkpt lat="46.374414" lon="12.7788753"><ele>516.0</ele><time>2026-04-19T07:25:55.206Z</time></trkpt><trkpt lat="46.3743123" lon="12.7788573"><ele>516.0</ele><time>2026-04-19T07:25:56.206Z</time></trkpt><trkpt lat="46.374205" lon="12.7788404"><ele>516.0</ele><time>2026-04-19T07:25:57.206Z</time></trkpt><trkpt lat="46.3741134" lon="12.7788243"><ele>516.0</ele><time>2026-04-19T07:25:58.206Z</time></trkpt><trkpt lat="46.374008" lon="12.7787932"><ele>516.0</ele><time>2026-04-19T07:25:59.205Z</time></trkpt><trkpt lat="46.3739111" lon="12.7787523"><ele>514.1666666666666</ele><time>2026-04-19T07:26:00.206Z</time></trkpt><trkpt lat="46.3738305" lon="12.7787065"><ele>512.3333333333334</ele><time>2026-04-19T07:26:01.205Z</time></trkpt><trkpt lat="46.3737608" lon="12.7786682"><ele>510.5</ele><time>2026-04-19T07:26:02.205Z</time></trkpt><trkpt lat="46.3736571" lon="12.7786575"><ele>508.6666666666667</ele><time>2026-04-19T07:26:04.205Z</time></trkpt><trkpt lat="46.3735676" lon="12.7787529"><ele>506.83333333333337</ele><time>2026-04-19T07:26:06.206Z</time></trkpt><trkpt lat="46.3735211" lon="12.778832"><ele>505.0</ele><time>2026-04-19T07:26:07.206Z</time></trkpt><trkpt lat="46.3734703" lon="12.7789209"><ele>505.00000000000006</ele><time>2026-04-19T07:26:08.206Z</time></trkpt><trkpt lat="46.373421" lon="12.7790029"><ele>505.0</ele><time>2026-04-19T07:26:09.207Z</time></trkpt><trkpt lat="46.3733686" lon="12.7790935"><ele>505.0</ele><time>2026-04-19T07:26:10.205Z</time></trkpt><trkpt lat="46.3733145" lon="12.7791833"><ele>505.0</ele><time>2026-04-19T07:26:11.205Z</time></trkpt><trkpt lat="46.3732543" lon="12.7792836"><ele>505.00000000000006</ele><time>2026-04-19T07:26:12.205Z</time></trkpt><trkpt lat="46.3731955" lon="12.7793808"><ele>505.0</ele><time>2026-04-19T07:26:13.206Z</time></trkpt><trkpt lat="46.3731355" lon="12.7794836"><ele>505.6</ele><time>2026-04-19T07:26:14.205Z</time></trkpt><trkpt lat="46.3730749" lon="12.7795932"><ele>506.2</ele><time>2026-04-19T07:26:15.206Z</time></trkpt><trkpt lat="46.3730121" lon="12.7797018"><ele>506.79999999999995</ele><time>2026-04-19T07:26:16.206Z</time></trkpt><trkpt lat="46.3729504" lon="12.7798068"><ele>507.4</ele><time>2026-04-19T07:26:17.206Z</time></trkpt><trkpt lat="46.3728886" lon="12.7798995"><ele>508.0</ele><time>2026-04-19T07:26:18.206Z</time></trkpt><trkpt lat="46.3728253" lon="12.7799553"><ele>510.57142857142856</ele><time>2026-04-19T07:26:19.205Z</time></trkpt><trkpt lat="46.3727561" lon="12.7799732"><ele>513.1428571428571</ele><time>2026-04-19T07:26:20.206Z</time></trkpt><trkpt lat="46.3726908" lon="12.7799588"><ele>515.7142857142857</ele><time>2026-04-19T07:26:21.206Z</time></trkpt><trkpt lat="46.3726281" lon="12.7799206"><ele>518.2857142857142</ele><time>2026-04-19T07:26:22.206Z</time></trkpt><trkpt lat="46.3725642" lon="12.7798727"><ele>520.8571428571428</ele><time>2026-04-19T07:26:23.206Z</time></trkpt><trkpt lat="46.3724891" lon="12.779803"><ele>523.4285714285714</ele><time>2026-04-19T07:26:24.206Z</time></trkpt><trkpt lat="46.372423" lon="12.7797392"><ele>526.0</ele><time>2026-04-19T07:26:25.206Z</time></trkpt><trkpt lat="46.3723561" lon="12.7796733"><ele>526.0</ele><time>2026-04-19T07:26:26.205Z</time></trkpt><trkpt lat="46.3722855" lon="12.7795723"><ele>526.0</ele><time>2026-04-19T07:26:27.206Z</time></trkpt><trkpt lat="46.3722088" lon="12.7794966"><ele>526.0</ele><time>2026-04-19T07:26:28.206Z</time></trkpt><trkpt lat="46.3721387" lon="12.7794195"><ele>526.0</ele><time>2026-04-19T07:26:29.205Z</time></trkpt><trkpt lat="46.3720654" lon="12.779357"><ele>526.0</ele><time>2026-04-19T07:26:30.206Z</time></trkpt><trkpt lat="46.3720062" lon="12.7793184"><ele>526.0</ele><time>2026-04-19T07:26:31.206Z</time></trkpt><trkpt lat="46.3719409" lon="12.7792869"><ele>525.5</ele><time>2026-04-19T07:26:32.207Z</time></trkpt><trkpt lat="46.3718597" lon="12.7793229"><ele>525.0</ele><time>2026-04-19T07:26:33.205Z</time></trkpt><trkpt lat="46.3717935" lon="12.779377"><ele>524.5</ele><time>2026-04-19T07:26:34.207Z</time></trkpt><trkpt lat="46.3717298" lon="12.7794417"><ele>524.0</ele><time>2026-04-19T07:26:35.206Z</time></trkpt><trkpt lat="46.3716837" lon="12.7795357"><ele>523.5</ele><time>2026-04-19T07:26:36.206Z</time></trkpt><trkpt lat="46.3716325" lon="12.7795951"><ele>523.0</ele><time>2026-04-19T07:26:37.205Z</time></trkpt><trkpt lat="46.3715225" lon="12.7796225"><ele>523.0</ele><time>2026-04-19T07:26:39.205Z</time></trkpt><trkpt lat="46.3714099" lon="12.7795486"><ele>523.0</ele><time>2026-04-19T07:26:41.206Z</time></trkpt><trkpt lat="46.3713593" lon="12.7794893"><ele>523.0</ele><time>2026-04-19T07:26:42.207Z</time></trkpt><trkpt lat="46.3713194" lon="12.7793425"><ele>523.0</ele><time>2026-04-19T07:26:44.206Z</time></trkpt><trkpt lat="46.3713564" lon="12.77918"><ele>523.0</ele><time>2026-04-19T07:26:46.205Z</time></trkpt><trkpt lat="46.3713834" lon="12.7790001"><ele>523.0</ele><time>2026-04-19T07:26:48.206Z</time></trkpt><trkpt lat="46.3713675" lon="12.7789021"><ele>523.0</ele><time>2026-04-19T07:26:49.206Z</time></trkpt><trkpt lat="46.3713442" lon="12.7788008"><ele>523.0</ele><time>2026-04-19T07:26:50.206Z</time></trkpt><trkpt lat="46.3712849" lon="12.7787204"><ele>523.0</ele><time>2026-04-19T07:26:51.207Z</time></trkpt><trkpt lat="46.3712341" lon="12.77863"><ele>523.0</ele><time>2026-04-19T07:26:52.206Z</time></trkpt><trkpt lat="46.371182" lon="12.7785323"><ele>523.0</ele><time>2026-04-19T07:26:53.206Z</time></trkpt><trkpt lat="46.3711297" lon="12.7784313"><ele>525.8333333333334</ele><time>2026-04-19T07:26:54.206Z</time></trkpt><trkpt lat="46.3710765" lon="12.7783337"><ele>528.6666666666667</ele><time>2026-04-19T07:26:55.206Z</time></trkpt><trkpt lat="46.3710268" lon="12.7782366"><ele>531.5</ele><time>2026-04-19T07:26:56.206Z</time></trkpt><trkpt lat="46.3709769" lon="12.7781349"><ele>534.3333333333334</ele><time>2026-04-19T07:26:57.206Z</time></trkpt><trkpt lat="46.3709247" lon="12.7780321"><ele>537.1666666666666</ele><time>2026-04-19T07:26:58.205Z</time></trkpt><trkpt lat="46.3708792" lon="12.7779213"><ele>540.0</ele><time>2026-04-19T07:26:59.206Z</time></trkpt><trkpt lat="46.3708346" lon="12.7778058"><ele>540.0</ele><time>2026-04-19T07:27:00.206Z</time></trkpt><trkpt lat="46.3707891" lon="12.7776939"><ele>540.0</ele><time>2026-04-19T07:27:01.205Z</time></trkpt><trkpt lat="46.3707476" lon="12.7775701"><ele>540.0</ele><time>2026-04-19T07:27:02.206Z</time></trkpt><trkpt lat="46.3706915" lon="12.7774604"><ele>540.0</ele><time>2026-04-19T07:27:03.206Z</time></trkpt><trkpt lat="46.3706462" lon="12.7773377"><ele>540.0</ele><time>2026-04-19T07:27:04.206Z</time></trkpt><trkpt lat="46.3705898" lon="12.7772114"><ele>541.4</ele><time>2026-04-19T07:27:05.206Z</time></trkpt><trkpt lat="46.3705303" lon="12.7770967"><ele>542.8</ele><time>2026-04-19T07:27:06.207Z</time></trkpt><trkpt lat="46.3704796" lon="12.7769649"><ele>544.2</ele><time>2026-04-19T07:27:07.206Z</time></trkpt><trkpt lat="46.370427" lon="12.7768433"><ele>545.6</ele><time>2026-04-19T07:27:08.207Z</time></trkpt><trkpt lat="46.3703774" lon="12.7767104"><ele>547.0</ele><time>2026-04-19T07:27:09.205Z</time></trkpt><trkpt lat="46.3703214" lon="12.7765865"><ele>547.0</ele><time>2026-04-19T07:27:10.206Z</time></trkpt><trkpt lat="46.3702675" lon="12.7764556"><ele>547.0</ele><time>2026-04-19T07:27:11.205Z</time></trkpt><trkpt lat="46.3702233" lon="12.7763189"><ele>547.0</ele><time>2026-04-19T07:27:12.206Z</time></trkpt><trkpt lat="46.370167" lon="12.7761909"><ele>547.0</ele><time>2026-04-19T07:27:13.205Z</time></trkpt><trkpt lat="46.3700862" lon="12.7760702"><ele>547.0</ele><time>2026-04-19T07:27:14.206Z</time></trkpt><trkpt lat="46.3700155" lon="12.7759492"><ele>549.0</ele><time>2026-04-19T07:27:15.205Z</time></trkpt><trkpt lat="46.3699327" lon="12.7758257"><ele>551.0</ele><time>2026-04-19T07:27:16.205Z</time></trkpt><trkpt lat="46.3698627" lon="12.7757"><ele>553.0</ele><time>2026-04-19T07:27:17.205Z</time></trkpt><trkpt lat="46.369788" lon="12.7755796"><ele>555.0</ele><time>2026-04-19T07:27:18.206Z</time></trkpt><trkpt lat="46.3696914" lon="12.77546"><ele>555.0</ele><time>2026-04-19T07:27:19.206Z</time></trkpt><trkpt lat="46.3695494" lon="12.7754187"><ele>555.0</ele><time>2026-04-19T07:27:20.206Z</time></trkpt><trkpt lat="46.3694176" lon="12.7753472"><ele>555.0</ele><time>2026-04-19T07:27:21.206Z</time></trkpt><trkpt lat="46.3692907" lon="12.7752619"><ele>555.0</ele><time>2026-04-19T07:27:22.206Z</time></trkpt><trkpt lat="46.3691665" lon="12.7751711"><ele>555.5</ele><time>2026-04-19T07:27:23.205Z</time></trkpt><trkpt lat="46.3690566" lon="12.7750397"><ele>556.0</ele><time>2026-04-19T07:27:24.206Z</time></trkpt><trkpt lat="46.3689588" lon="12.7749014"><ele>556.5</ele><time>2026-04-19T07:27:25.206Z</time></trkpt><trkpt lat="46.3688603" lon="12.7747786"><ele>557.0</ele><time>2026-04-19T07:27:26.206Z</time></trkpt><trkpt lat="46.3687645" lon="12.7746738"><ele>557.0</ele><time>2026-04-19T07:27:27.206Z</time></trkpt><trkpt lat="46.3686914" lon="12.774567"><ele>557.0</ele><time>2026-04-19T07:27:28.205Z</time></trkpt><trkpt lat="46.3685762" lon="12.7745246"><ele>557.0</ele><time>2026-04-19T07:27:29.206Z</time></trkpt><trkpt lat="46.3684671" lon="12.7744877"><ele>557.0</ele><time>2026-04-19T07:27:30.206Z</time></trkpt><trkpt lat="46.3683524" lon="12.7744596"><ele>557.0</ele><time>2026-04-19T07:27:31.206Z</time></trkpt><trkpt lat="46.3682227" lon="12.7744552"><ele>557.0</ele><time>2026-04-19T07:27:32.207Z</time></trkpt><trkpt lat="46.3681371" lon="12.7744753"><ele>557.0</ele><time>2026-04-19T07:27:33.207Z</time></trkpt><trkpt lat="46.3680451" lon="12.7744999"><ele>557.0</ele><time>2026-04-19T07:27:34.206Z</time></trkpt><trkpt lat="46.3679576" lon="12.7744904"><ele>557.0</ele><time>2026-04-19T07:27:35.206Z</time></trkpt><trkpt lat="46.367901" lon="12.7744443"><ele>555.4</ele><time>2026-04-19T07:27:36.206Z</time></trkpt><trkpt lat="46.367832" lon="12.7743727"><ele>553.8000000000001</ele><time>2026-04-19T07:27:37.206Z</time></trkpt><trkpt lat="46.3677638" lon="12.7742951"><ele>552.2</ele><time>2026-04-19T07:27:38.206Z</time></trkpt><trkpt lat="46.3676777" lon="12.7742516"><ele>550.6</ele><time>2026-04-19T07:27:39.205Z</time></trkpt><trkpt lat="46.3675951" lon="12.7742001"><ele>549.0</ele><time>2026-04-19T07:27:40.205Z</time></trkpt><trkpt lat="46.3674856" lon="12.774183"><ele>549.0</ele><time>2026-04-19T07:27:41.206Z</time></trkpt><trkpt lat="46.3673718" lon="12.7742334"><ele>549.0</ele><time>2026-04-19T07:27:42.206Z</time></trkpt><trkpt lat="46.3672794" lon="12.7742137"><ele>549.0</ele><time>2026-04-19T07:27:43.205Z</time></trkpt><trkpt lat="46.3671931" lon="12.7741005"><ele>549.0</ele><time>2026-04-19T07:27:44.206Z</time></trkpt><trkpt lat="46.3671076" lon="12.7740569"><ele>549.0</ele><time>2026-04-19T07:27:45.206Z</time></trkpt><trkpt lat="46.3670334" lon="12.7740822"><ele>549.6666666666666</ele><time>2026-04-19T07:27:46.205Z</time></trkpt><trkpt lat="46.3669672" lon="12.7740773"><ele>550.3333333333334</ele><time>2026-04-19T07:27:47.205Z</time></trkpt><trkpt lat="46.3669065" lon="12.7741242"><ele>551.0</ele><time>2026-04-19T07:27:48.206Z</time></trkpt><trkpt lat="46.3668389" lon="12.774275"><ele>551.6666666666667</ele><time>2026-04-19T07:27:49.205Z</time></trkpt><trkpt lat="46.3667765" lon="12.7743129"><ele>552.3333333333334</ele><time>2026-04-19T07:27:50.207Z</time></trkpt><trkpt lat="46.3666697" lon="12.7743959"><ele>553.0</ele><time>2026-04-19T07:27:52.205Z</time></trkpt><trkpt lat="46.3665627" lon="12.7744504"><ele>556.75</ele><time>2026-04-19T07:27:54.206Z</time></trkpt><trkpt lat="46.3665358" lon="12.7745394"><ele>560.5</ele><time>2026-04-19T07:27:55.205Z</time></trkpt><trkpt lat="46.3664817" lon="12.7747253"><ele>564.25</ele><time>2026-04-19T07:27:56.206Z</time></trkpt><trkpt lat="46.3664353" lon="12.7749022"><ele>568.0</ele><time>2026-04-19T07:27:57.206Z</time></trkpt><trkpt lat="46.366371" lon="12.7750493"><ele>566.25</ele><time>2026-04-19T07:27:58.206Z</time></trkpt><trkpt lat="46.366302" lon="12.7751865"><ele>564.5</ele><time>2026-04-19T07:27:59.206Z</time></trkpt><trkpt lat="46.366229" lon="12.7753337"><ele>562.75</ele><time>2026-04-19T07:28:00.206Z</time></trkpt><trkpt lat="46.3661625" lon="12.7754851"><ele>561.0</ele><time>2026-04-19T07:28:01.207Z</time></trkpt><trkpt lat="46.3661155" lon="12.7756039"><ele>561.0</ele><time>2026-04-19T07:28:02.206Z</time></trkpt><trkpt lat="46.3660811" lon="12.7757636"><ele>561.0</ele><time>2026-04-19T07:28:03.206Z</time></trkpt><trkpt lat="46.3660822" lon="12.7759434"><ele>561.0</ele><time>2026-04-19T07:28:04.206Z</time></trkpt><trkpt lat="46.3660787" lon="12.7761072"><ele>561.0</ele><time>2026-04-19T07:28:05.205Z</time></trkpt><trkpt lat="46.3660861" lon="12.7762479"><ele>561.5</ele><time>2026-04-19T07:28:06.206Z</time></trkpt><trkpt lat="46.3660818" lon="12.7763726"><ele>562.0</ele><time>2026-04-19T07:28:07.205Z</time></trkpt><trkpt lat="46.3660522" lon="12.7764788"><ele>562.5</ele><time>2026-04-19T07:28:08.205Z</time></trkpt><trkpt lat="46.3659984" lon="12.7765619"><ele>563.0</ele><time>2026-04-19T07:28:09.206Z</time></trkpt><trkpt lat="46.3659263" lon="12.776654"><ele>563.5</ele><time>2026-04-19T07:28:10.206Z</time></trkpt><trkpt lat="46.365875" lon="12.7767761"><ele>564.0</ele><time>2026-04-19T07:28:11.206Z</time></trkpt><trkpt lat="46.3658491" lon="12.7768926"><ele>564.0</ele><time>2026-04-19T07:28:12.205Z</time></trkpt><trkpt lat="46.365823" lon="12.7769935"><ele>564.0</ele><time>2026-04-19T07:28:13.205Z</time></trkpt><trkpt lat="46.3657364" lon="12.7770696"><ele>564.0</ele><time>2026-04-19T07:28:15.206Z</time></trkpt><trkpt lat="46.3657008" lon="12.7769617"><ele>564.0</ele><time>2026-04-19T07:28:17.207Z</time></trkpt><trkpt lat="46.3656887" lon="12.7768452"><ele>564.0</ele><time>2026-04-19T07:28:18.206Z</time></trkpt><trkpt lat="46.3656545" lon="12.7767384"><ele>564.0</ele><time>2026-04-19T07:28:19.206Z</time></trkpt><trkpt lat="46.3656035" lon="12.7766386"><ele>564.0</ele><time>2026-04-19T07:28:20.206Z</time></trkpt><trkpt lat="46.3655719" lon="12.7765202"><ele>564.0</ele><time>2026-04-19T07:28:21.206Z</time></trkpt><trkpt lat="46.3655441" lon="12.7764013"><ele>564.0</ele><time>2026-04-19T07:28:22.206Z</time></trkpt><trkpt lat="46.3655718" lon="12.7762432"><ele>564.0</ele><time>2026-04-19T07:28:23.207Z</time></trkpt><trkpt lat="46.3655755" lon="12.7760777"><ele>564.0</ele><time>2026-04-19T07:28:24.206Z</time></trkpt><trkpt lat="46.3655738" lon="12.7759134"><ele>563.25</ele><time>2026-04-19T07:28:25.207Z</time></trkpt><trkpt lat="46.3655698" lon="12.7757307"><ele>562.5</ele><time>2026-04-19T07:28:26.205Z</time></trkpt><trkpt lat="46.3655469" lon="12.7755462"><ele>561.75</ele><time>2026-04-19T07:28:27.206Z</time></trkpt><trkpt lat="46.3655193" lon="12.7753546"><ele>561.0</ele><time>2026-04-19T07:28:28.206Z</time></trkpt><trkpt lat="46.3655024" lon="12.7751687"><ele>574.5</ele><time>2026-04-19T07:28:29.206Z</time></trkpt><trkpt lat="46.3654798" lon="12.774995"><ele>588.0</ele><time>2026-04-19T07:28:30.205Z</time></trkpt><trkpt lat="46.3654454" lon="12.7748146"><ele>601.5</ele><time>2026-04-19T07:28:31.206Z</time></trkpt><trkpt lat="46.3653729" lon="12.7747124"><ele>615.0</ele><time>2026-04-19T07:28:32.206Z</time></trkpt><trkpt lat="46.3653404" lon="12.7745624"><ele>615.0</ele><time>2026-04-19T07:28:33.206Z</time></trkpt><trkpt lat="46.3653006" lon="12.7744311"><ele>615.0</ele><time>2026-04-19T07:28:34.206Z</time></trkpt><trkpt lat="46.3652678" lon="12.7742953"><ele>615.0</ele><time>2026-04-19T07:28:35.207Z</time></trkpt><trkpt lat="46.3651966" lon="12.7742101"><ele>615.0</ele><time>2026-04-19T07:28:36.206Z</time></trkpt><trkpt lat="46.3651821" lon="12.7740969"><ele>615.0</ele><time>2026-04-19T07:28:37.206Z</time></trkpt><trkpt lat="46.3651649" lon="12.7739811"><ele>613.3333333333334</ele><time>2026-04-19T07:28:38.206Z</time></trkpt><trkpt lat="46.3651785" lon="12.7738466"><ele>611.6666666666666</ele><time>2026-04-19T07:28:39.207Z</time></trkpt><trkpt lat="46.3651694" lon="12.7737152"><ele>610.0</ele><time>2026-04-19T07:28:40.206Z</time></trkpt><trkpt lat="46.3651859" lon="12.7735809"><ele>608.3333333333333</ele><time>2026-04-19T07:28:41.207Z</time></trkpt><trkpt lat="46.3652176" lon="12.7734743"><ele>606.6666666666666</ele><time>2026-04-19T07:28:42.206Z</time></trkpt><trkpt lat="46.3652373" lon="12.7733634"><ele>605.0</ele><time>2026-04-19T07:28:43.205Z</time></trkpt><trkpt lat="46.3652352" lon="12.7732304"><ele>604.0</ele><time>2026-04-19T07:28:45.206Z</time></trkpt><trkpt lat="46.3652219" lon="12.7730768"><ele>603.0</ele><time>2026-04-19T07:28:47.205Z</time></trkpt><trkpt lat="46.3650905" lon="12.7728855"><ele>602.0</ele><time>2026-04-19T07:28:48.206Z</time></trkpt><trkpt lat="46.3650233" lon="12.7727398"><ele>601.0</ele><time>2026-04-19T07:28:49.207Z</time></trkpt><trkpt lat="46.3649665" lon="12.7726067"><ele>604.25</ele><time>2026-04-19T07:28:50.207Z</time></trkpt><trkpt lat="46.3648378" lon="12.7726081"><ele>607.5</ele><time>2026-04-19T07:28:51.206Z</time></trkpt><trkpt lat="46.3647313" lon="12.7725468"><ele>610.75</ele><time>2026-04-19T07:28:52.206Z</time></trkpt><trkpt lat="46.36461" lon="12.7725308"><ele>614.0</ele><time>2026-04-19T07:28:53.206Z</time></trkpt><trkpt lat="46.364486" lon="12.7725155"><ele>614.0</ele><time>2026-04-19T07:28:54.206Z</time></trkpt><trkpt lat="46.364375" lon="12.7725242"><ele>614.0</ele><time>2026-04-19T07:28:55.206Z</time></trkpt><trkpt lat="46.3642579" lon="12.7725364"><ele>614.0</ele><time>2026-04-19T07:28:56.205Z</time></trkpt><trkpt lat="46.364176" lon="12.7726304"><ele>614.0</ele><time>2026-04-19T07:28:57.207Z</time></trkpt><trkpt lat="46.3640887" lon="12.7726773"><ele>614.0</ele><time>2026-04-19T07:28:58.206Z</time></trkpt><trkpt lat="46.3640149" lon="12.7726743"><ele>614.0</ele><time>2026-04-19T07:28:59.206Z</time></trkpt><trkpt lat="46.3639445" lon="12.7726755"><ele>614.0</ele><time>2026-04-19T07:29:00.207Z</time></trkpt><trkpt lat="46.3638407" lon="12.7726055"><ele>614.0</ele><time>2026-04-19T07:29:01.206Z</time></trkpt><trkpt lat="46.3637453" lon="12.7725332"><ele>614.0</ele><time>2026-04-19T07:29:02.207Z</time></trkpt><trkpt lat="46.3636607" lon="12.772429"><ele>614.0</ele><time>2026-04-19T07:29:03.205Z</time></trkpt><trkpt lat="46.3635805" lon="12.7722998"><ele>618.4</ele><time>2026-04-19T07:29:04.205Z</time></trkpt><trkpt lat="46.3635031" lon="12.7721797"><ele>622.8</ele><time>2026-04-19T07:29:05.206Z</time></trkpt><trkpt lat="46.3634182" lon="12.7720767"><ele>627.2</ele><time>2026-04-19T07:29:06.206Z</time></trkpt><trkpt lat="46.3633424" lon="12.7719699"><ele>631.6</ele><time>2026-04-19T07:29:07.206Z</time></trkpt><trkpt lat="46.3633109" lon="12.7718815"><ele>636.0</ele><time>2026-04-19T07:29:08.206Z</time></trkpt><trkpt lat="46.3633053" lon="12.771685"><ele>636.0</ele><time>2026-04-19T07:29:10.206Z</time></trkpt><trkpt lat="46.3633964" lon="12.7716934"><ele>636.0</ele><time>2026-04-19T07:29:11.205Z</time></trkpt><trkpt lat="46.3634659" lon="12.7716461"><ele>636.0</ele><time>2026-04-19T07:29:12.205Z</time></trkpt><trkpt lat="46.363581" lon="12.7716705"><ele>636.0</ele><time>2026-04-19T07:29:13.205Z</time></trkpt><trkpt lat="46.3636591" lon="12.7716704"><ele>636.0</ele><time>2026-04-19T07:29:14.206Z</time></trkpt><trkpt lat="46.3637315" lon="12.7716747"><ele>636.0</ele><time>2026-04-19T07:29:15.206Z</time></trkpt><trkpt lat="46.3638184" lon="12.7716652"><ele>636.0</ele><time>2026-04-19T07:29:16.205Z</time></trkpt><trkpt lat="46.3638162" lon="12.7714427"><ele>636.0</ele><time>2026-04-19T07:29:18.205Z</time></trkpt><trkpt lat="46.3638193" lon="12.771263"><ele>636.0</ele><time>2026-04-19T07:29:20.206Z</time></trkpt><trkpt lat="46.3637857" lon="12.7711529"><ele>636.0</ele><time>2026-04-19T07:29:22.206Z</time></trkpt><trkpt lat="46.3636903" lon="12.7713634"><ele>636.0</ele><time>2026-04-19T07:29:24.206Z</time></trkpt><trkpt lat="46.3636444" lon="12.7714811"><ele>636.0</ele><time>2026-04-19T07:29:26.205Z</time></trkpt><trkpt lat="46.3635326" lon="12.7714843"><ele>636.0</ele><time>2026-04-19T07:29:28.206Z</time></trkpt><trkpt lat="46.363446" lon="12.7714453"><ele>636.0</ele><time>2026-04-19T07:29:29.206Z</time></trkpt><trkpt lat="46.3633513" lon="12.771416"><ele>636.0</ele><time>2026-04-19T07:29:30.206Z</time></trkpt><trkpt lat="46.3632412" lon="12.7714088"><ele>636.0</ele><time>2026-04-19T07:29:31.206Z</time></trkpt><trkpt lat="46.3631406" lon="12.7714106"><ele>636.0</ele><time>2026-04-19T07:29:32.205Z</time></trkpt><trkpt lat="46.363035" lon="12.7714356"><ele>636.0</ele><time>2026-04-19T07:29:33.205Z</time></trkpt><trkpt lat="46.3629397" lon="12.7714506"><ele>636.0</ele><time>2026-04-19T07:29:34.206Z</time></trkpt><trkpt lat="46.3628441" lon="12.7714696"><ele>636.0</ele><time>2026-04-19T07:29:35.207Z</time></trkpt><trkpt lat="46.3627481" lon="12.7715774"><ele>643.2</ele><time>2026-04-19T07:29:37.205Z</time></trkpt><trkpt lat="46.3627388" lon="12.7716947"><ele>650.4000000000001</ele><time>2026-04-19T07:29:38.207Z</time></trkpt><trkpt lat="46.3627074" lon="12.7718052"><ele>657.6</ele><time>2026-04-19T07:29:39.206Z</time></trkpt><trkpt lat="46.3627351" lon="12.7719526"><ele>664.8000000000001</ele><time>2026-04-19T07:29:40.206Z</time></trkpt><trkpt lat="46.3628057" lon="12.7720387"><ele>672.0</ele><time>2026-04-19T07:29:41.206Z</time></trkpt><trkpt lat="46.3629721" lon="12.772052"><ele>671.6666666666666</ele><time>2026-04-19T07:29:42.205Z</time></trkpt><trkpt lat="46.3630426" lon="12.7721294"><ele>671.3333333333334</ele><time>2026-04-19T07:29:43.206Z</time></trkpt><trkpt lat="46.3630875" lon="12.7722052"><ele>671.0</ele><time>2026-04-19T07:29:44.206Z</time></trkpt><trkpt lat="46.3631008" lon="12.7723871"><ele>670.6666666666667</ele><time>2026-04-19T07:29:46.206Z</time></trkpt><trkpt lat="46.3630974" lon="12.7724942"><ele>670.3333333333334</ele><time>2026-04-19T07:29:47.205Z</time></trkpt><trkpt lat="46.3631218" lon="12.7725946"><ele>670.0</ele><time>2026-04-19T07:29:48.205Z</time></trkpt><trkpt lat="46.3631494" lon="12.7727055"><ele>670.0</ele><time>2026-04-19T07:29:49.205Z</time></trkpt><trkpt lat="46.3631927" lon="12.7728193"><ele>670.0</ele><time>2026-04-19T07:29:50.205Z</time></trkpt><trkpt lat="46.3633204" lon="12.7729323"><ele>670.0</ele><time>2026-04-19T07:29:51.207Z</time></trkpt><trkpt lat="46.3634082" lon="12.7730461"><ele>670.0</ele><time>2026-04-19T07:29:52.206Z</time></trkpt><trkpt lat="46.3634585" lon="12.7731994"><ele>670.0</ele><time>2026-04-19T07:29:53.205Z</time></trkpt><trkpt lat="46.3635321" lon="12.7733217"><ele>670.0</ele><time>2026-04-19T07:29:54.205Z</time></trkpt><trkpt lat="46.3635871" lon="12.7734324"><ele>670.0</ele><time>2026-04-19T07:29:55.205Z</time></trkpt><trkpt lat="46.3636582" lon="12.7735191"><ele>670.0</ele><time>2026-04-19T07:29:56.205Z</time></trkpt><trkpt lat="46.3637268" lon="12.7736219"><ele>670.0</ele><time>2026-04-19T07:29:57.204Z</time></trkpt><trkpt lat="46.3637629" lon="12.7737988"><ele>668.75</ele><time>2026-04-19T07:29:58.205Z</time></trkpt><trkpt lat="46.3638192" lon="12.7739507"><ele>667.5</ele><time>2026-04-19T07:29:59.204Z</time></trkpt><trkpt lat="46.3638604" lon="12.7741311"><ele>666.25</ele><time>2026-04-19T07:30:00.204Z</time></trkpt><trkpt lat="46.3638992" lon="12.7743172"><ele>665.0</ele><time>2026-04-19T07:30:01.204Z</time></trkpt><trkpt lat="46.3639104" lon="12.7744838"><ele>665.0</ele><time>2026-04-19T07:30:02.204Z</time></trkpt><trkpt lat="46.3639711" lon="12.7746534"><ele>665.0</ele><time>2026-04-19T07:30:03.205Z</time></trkpt><trkpt lat="46.3640102" lon="12.7748144"><ele>665.0</ele><time>2026-04-19T07:30:04.204Z</time></trkpt><trkpt lat="46.3640297" lon="12.7750049"><ele>665.0</ele><time>2026-04-19T07:30:05.205Z</time></trkpt><trkpt lat="46.364051" lon="12.7751836"><ele>665.8</ele><time>2026-04-19T07:30:06.205Z</time></trkpt><trkpt lat="46.3640694" lon="12.775359"><ele>666.6</ele><time>2026-04-19T07:30:07.204Z</time></trkpt><trkpt lat="46.3640864" lon="12.7755242"><ele>667.4000000000001</ele><time>2026-04-19T07:30:08.205Z</time></trkpt><trkpt lat="46.3640934" lon="12.7756781"><ele>668.2</ele><time>2026-04-19T07:30:09.205Z</time></trkpt><trkpt lat="46.3640891" lon="12.7758166"><ele>669.0</ele><time>2026-04-19T07:30:10.205Z</time></trkpt><trkpt lat="46.3640764" lon="12.7759312"><ele>669.0</ele><time>2026-04-19T07:30:11.205Z</time></trkpt><trkpt lat="46.3640433" lon="12.7760251"><ele>669.0</ele><time>2026-04-19T07:30:12.204Z</time></trkpt><trkpt lat="46.3639979" lon="12.7760955"><ele>669.0</ele><time>2026-04-19T07:30:13.205Z</time></trkpt><trkpt lat="46.3638825" lon="12.7761533"><ele>669.0</ele><time>2026-04-19T07:30:15.204Z</time></trkpt><trkpt lat="46.3639027" lon="12.7760223"><ele>669.0</ele><time>2026-04-19T07:30:16.204Z</time></trkpt><trkpt lat="46.3639463" lon="12.775874"><ele>669.0</ele><time>2026-04-19T07:30:18.205Z</time></trkpt><trkpt lat="46.3639479" lon="12.7756868"><ele>669.0</ele><time>2026-04-19T07:30:20.204Z</time></trkpt><trkpt lat="46.3639325" lon="12.7755644"><ele>669.0</ele><time>2026-04-19T07:30:21.206Z</time></trkpt><trkpt lat="46.3639046" lon="12.7754458"><ele>669.0</ele><time>2026-04-19T07:30:22.205Z</time></trkpt><trkpt lat="46.3638097" lon="12.7752459"><ele>679.25</ele><time>2026-04-19T07:30:23.205Z</time></trkpt><trkpt lat="46.3637337" lon="12.775064"><ele>689.5</ele><time>2026-04-19T07:30:24.204Z</time></trkpt><trkpt lat="46.3636535" lon="12.7748863"><ele>699.75</ele><time>2026-04-19T07:30:25.205Z</time></trkpt><trkpt lat="46.3635653" lon="12.7747095"><ele>710.0</ele><time>2026-04-19T07:30:26.204Z</time></trkpt><trkpt lat="46.3634903" lon="12.7745417"><ele>710.0</ele><time>2026-04-19T07:30:27.205Z</time></trkpt><trkpt lat="46.3634339" lon="12.7743701"><ele>710.0</ele><time>2026-04-19T07:30:28.205Z</time></trkpt><trkpt lat="46.3633942" lon="12.7742021"><ele>710.0</ele><time>2026-04-19T07:30:29.205Z</time></trkpt><trkpt lat="46.3633401" lon="12.7740547"><ele>710.0</ele><time>2026-04-19T07:30:30.205Z</time></trkpt><trkpt lat="46.3632847" lon="12.7738999"><ele>706.5</ele><time>2026-04-19T07:30:31.205Z</time></trkpt><trkpt lat="46.3632006" lon="12.7737605"><ele>703.0</ele><time>2026-04-19T07:30:32.205Z</time></trkpt><trkpt lat="46.3631311" lon="12.7736159"><ele>699.5</ele><time>2026-04-19T07:30:33.205Z</time></trkpt><trkpt lat="46.3630641" lon="12.773491"><ele>696.0</ele><time>2026-04-19T07:30:34.205Z</time></trkpt><trkpt lat="46.3629962" lon="12.7733639"><ele>702.4</ele><time>2026-04-19T07:30:35.204Z</time></trkpt><trkpt lat="46.3629178" lon="12.7733461"><ele>708.8</ele><time>2026-04-19T07:30:36.205Z</time></trkpt><trkpt lat="46.3628504" lon="12.7732704"><ele>715.1999999999999</ele><time>2026-04-19T07:30:37.204Z</time></trkpt><trkpt lat="46.3627477" lon="12.7732377"><ele>721.5999999999999</ele><time>2026-04-19T07:30:38.204Z</time></trkpt><trkpt lat="46.362667" lon="12.7731395"><ele>728.0</ele><time>2026-04-19T07:30:39.204Z</time></trkpt><trkpt lat="46.3626032" lon="12.7730211"><ele>728.0</ele><time>2026-04-19T07:30:40.205Z</time></trkpt><trkpt lat="46.3625493" lon="12.772896"><ele>728.0</ele><time>2026-04-19T07:30:41.205Z</time></trkpt><trkpt lat="46.3624997" lon="12.7727684"><ele>728.0</ele><time>2026-04-19T07:30:42.205Z</time></trkpt><trkpt lat="46.3624511" lon="12.7726794"><ele>728.0</ele><time>2026-04-19T07:30:43.204Z</time></trkpt><trkpt lat="46.3623744" lon="12.7726156"><ele>728.0</ele><time>2026-04-19T07:30:44.204Z</time></trkpt><trkpt lat="46.3622821" lon="12.7725346"><ele>732.25</ele><time>2026-04-19T07:30:45.205Z</time></trkpt><trkpt lat="46.3621666" lon="12.7725063"><ele>736.5</ele><time>2026-04-19T07:30:46.205Z</time></trkpt><trkpt lat="46.3620483" lon="12.7724366"><ele>740.75</ele><time>2026-04-19T07:30:47.205Z</time></trkpt><trkpt lat="46.361926" lon="12.7723863"><ele>745.0</ele><time>2026-04-19T07:30:48.205Z</time></trkpt><trkpt lat="46.3618049" lon="12.7723705"><ele>745.0</ele><time>2026-04-19T07:30:49.205Z</time></trkpt><trkpt lat="46.3616973" lon="12.7723224"><ele>745.0</ele><time>2026-04-19T07:30:50.205Z</time></trkpt><trkpt lat="46.3616006" lon="12.772248"><ele>745.0</ele><time>2026-04-19T07:30:51.205Z</time></trkpt><trkpt lat="46.3615157" lon="12.7721327"><ele>745.0</ele><time>2026-04-19T07:30:52.205Z</time></trkpt><trkpt lat="46.3614483" lon="12.7720084"><ele>745.0</ele><time>2026-04-19T07:30:53.205Z</time></trkpt><trkpt lat="46.3613827" lon="12.7718836"><ele>742.0</ele><time>2026-04-19T07:30:54.205Z</time></trkpt><trkpt lat="46.3613187" lon="12.7717727"><ele>739.0</ele><time>2026-04-19T07:30:55.205Z</time></trkpt><trkpt lat="46.3612225" lon="12.7717281"><ele>736.0</ele><time>2026-04-19T07:30:56.204Z</time></trkpt><trkpt lat="46.3611381" lon="12.7716621"><ele>733.0</ele><time>2026-04-19T07:30:57.205Z</time></trkpt><trkpt lat="46.3610411" lon="12.7715854"><ele>730.0</ele><time>2026-04-19T07:30:58.205Z</time></trkpt><trkpt lat="46.3609514" lon="12.7715305"><ele>730.0</ele><time>2026-04-19T07:30:59.204Z</time></trkpt><trkpt lat="46.3608604" lon="12.7714939"><ele>730.0</ele><time>2026-04-19T07:31:00.206Z</time></trkpt><trkpt lat="46.3607905" lon="12.7714273"><ele>730.0</ele><time>2026-04-19T07:31:01.204Z</time></trkpt><trkpt lat="46.3607239" lon="12.7713403"><ele>730.0</ele><time>2026-04-19T07:31:02.204Z</time></trkpt><trkpt lat="46.3607061" lon="12.771159"><ele>730.0</ele><time>2026-04-19T07:31:04.205Z</time></trkpt><trkpt lat="46.3606423" lon="12.7710378"><ele>730.0</ele><time>2026-04-19T07:31:06.205Z</time></trkpt><trkpt lat="46.3605572" lon="12.7709669"><ele>730.0</ele><time>2026-04-19T07:31:08.205Z</time></trkpt><trkpt lat="46.360475" lon="12.7710649"><ele>730.0</ele><time>2026-04-19T07:31:09.204Z</time></trkpt><trkpt lat="46.3604575" lon="12.7711703"><ele>730.0</ele><time>2026-04-19T07:31:10.205Z</time></trkpt><trkpt lat="46.3604871" lon="12.7712667"><ele>730.0</ele><time>2026-04-19T07:31:11.206Z</time></trkpt><trkpt lat="46.3605069" lon="12.7713893"><ele>730.0</ele><time>2026-04-19T07:31:12.206Z</time></trkpt><trkpt lat="46.3605625" lon="12.7715545"><ele>730.0</ele><time>2026-04-19T07:31:13.205Z</time></trkpt><trkpt lat="46.360633" lon="12.7717183"><ele>730.0</ele><time>2026-04-19T07:31:14.206Z</time></trkpt><trkpt lat="46.3607282" lon="12.7718299"><ele>730.0</ele><time>2026-04-19T07:31:15.205Z</time></trkpt><trkpt lat="46.3608436" lon="12.7719186"><ele>730.0</ele><time>2026-04-19T07:31:16.205Z</time></trkpt><trkpt lat="46.3609454" lon="12.7719186"><ele>737.2</ele><time>2026-04-19T07:31:17.205Z</time></trkpt><trkpt lat="46.3610126" lon="12.7719779"><ele>744.4</ele><time>2026-04-19T07:31:18.205Z</time></trkpt><trkpt lat="46.3610865" lon="12.772049"><ele>751.5999999999999</ele><time>2026-04-19T07:31:19.205Z</time></trkpt><trkpt lat="46.361155" lon="12.772119"><ele>758.8</ele><time>2026-04-19T07:31:20.205Z</time></trkpt><trkpt lat="46.3611881" lon="12.7722731"><ele>766.0</ele><time>2026-04-19T07:31:21.204Z</time></trkpt><trkpt lat="46.3612442" lon="12.7723829"><ele>766.0</ele><time>2026-04-19T07:31:22.204Z</time></trkpt><trkpt lat="46.3613445" lon="12.7724664"><ele>766.0</ele><time>2026-04-19T07:31:23.205Z</time></trkpt><trkpt lat="46.3614435" lon="12.7725506"><ele>766.0</ele><time>2026-04-19T07:31:24.205Z</time></trkpt><trkpt lat="46.3615123" lon="12.7725929"><ele>766.0</ele><time>2026-04-19T07:31:25.206Z</time></trkpt><trkpt lat="46.361605" lon="12.7726557"><ele>766.0</ele><time>2026-04-19T07:31:26.205Z</time></trkpt><trkpt lat="46.3617016" lon="12.7727402"><ele>768.5999999999999</ele><time>2026-04-19T07:31:27.205Z</time></trkpt><trkpt lat="46.3617732" lon="12.7728551"><ele>771.2</ele><time>2026-04-19T07:31:28.205Z</time></trkpt><trkpt lat="46.3618438" lon="12.7729778"><ele>773.8</ele><time>2026-04-19T07:31:29.205Z</time></trkpt><trkpt lat="46.3619088" lon="12.7730913"><ele>776.4000000000001</ele><time>2026-04-19T07:31:30.205Z</time></trkpt><trkpt lat="46.362025" lon="12.7731467"><ele>779.0</ele><time>2026-04-19T07:31:31.205Z</time></trkpt><trkpt lat="46.36211" lon="12.7732192"><ele>772.0</ele><time>2026-04-19T07:31:32.205Z</time></trkpt><trkpt lat="46.3622112" lon="12.7733613"><ele>765.0</ele><time>2026-04-19T07:31:34.206Z</time></trkpt><trkpt lat="46.3622417" lon="12.7735183"><ele>758.0</ele><time>2026-04-19T07:31:35.205Z</time></trkpt><trkpt lat="46.3622657" lon="12.7736653"><ele>751.0</ele><time>2026-04-19T07:31:36.204Z</time></trkpt><trkpt lat="46.3622786" lon="12.7738216"><ele>751.0</ele><time>2026-04-19T07:31:37.204Z</time></trkpt><trkpt lat="46.3622895" lon="12.7739982"><ele>751.0</ele><time>2026-04-19T07:31:38.206Z</time></trkpt><trkpt lat="46.36231" lon="12.7741911"><ele>751.0</ele><time>2026-04-19T07:31:39.205Z</time></trkpt><trkpt lat="46.3623489" lon="12.7744226"><ele>751.0</ele><time>2026-04-19T07:31:40.204Z</time></trkpt><trkpt lat="46.3624191" lon="12.7745696"><ele>753.6666666666667</ele><time>2026-04-19T07:31:41.205Z</time></trkpt><trkpt lat="46.3624642" lon="12.7747227"><ele>756.3333333333334</ele><time>2026-04-19T07:31:42.205Z</time></trkpt><trkpt lat="46.3625029" lon="12.774846"><ele>759.0</ele><time>2026-04-19T07:31:43.205Z</time></trkpt><trkpt lat="46.3625392" lon="12.7749579"><ele>761.6666666666666</ele><time>2026-04-19T07:31:44.204Z</time></trkpt><trkpt lat="46.3625401" lon="12.7750656"><ele>764.3333333333333</ele><time>2026-04-19T07:31:45.205Z</time></trkpt><trkpt lat="46.3625294" lon="12.7751749"><ele>767.0</ele><time>2026-04-19T07:31:46.204Z</time></trkpt><trkpt lat="46.3624992" lon="12.7753414"><ele>768.5</ele><time>2026-04-19T07:31:47.204Z</time></trkpt><trkpt lat="46.3624684" lon="12.7754909"><ele>770.0</ele><time>2026-04-19T07:31:48.205Z</time></trkpt><trkpt lat="46.362434" lon="12.7756474"><ele>771.5</ele><time>2026-04-19T07:31:49.205Z</time></trkpt><trkpt lat="46.3624023" lon="12.7758131"><ele>773.0</ele><time>2026-04-19T07:31:50.205Z</time></trkpt><trkpt lat="46.3623659" lon="12.7759874"><ele>773.4</ele><time>2026-04-19T07:31:51.205Z</time></trkpt><trkpt lat="46.362336" lon="12.7761605"><ele>773.8</ele><time>2026-04-19T07:31:52.205Z</time></trkpt><trkpt lat="46.3623091" lon="12.7763184"><ele>774.2</ele><time>2026-04-19T07:31:53.205Z</time></trkpt><trkpt lat="46.3622928" lon="12.7764556"><ele>774.6</ele><time>2026-04-19T07:31:54.204Z</time></trkpt><trkpt lat="46.3623008" lon="12.7765797"><ele>775.0</ele><time>2026-04-19T07:31:55.205Z</time></trkpt><trkpt lat="46.3623358" lon="12.7767037"><ele>775.0</ele><time>2026-04-19T07:31:56.205Z</time></trkpt><trkpt lat="46.362397" lon="12.7768362"><ele>775.0</ele><time>2026-04-19T07:31:57.206Z</time></trkpt><trkpt lat="46.3624696" lon="12.7769864"><ele>775.0</ele><time>2026-04-19T07:31:58.206Z</time></trkpt><trkpt lat="46.3625356" lon="12.777158"><ele>775.0</ele><time>2026-04-19T07:31:59.205Z</time></trkpt><trkpt lat="46.3625977" lon="12.777305"><ele>778.1666666666666</ele><time>2026-04-19T07:32:00.204Z</time></trkpt><trkpt lat="46.3626674" lon="12.7774204"><ele>781.3333333333333</ele><time>2026-04-19T07:32:01.205Z</time></trkpt><trkpt lat="46.3627359" lon="12.777497"><ele>784.5</ele><time>2026-04-19T07:32:02.204Z</time></trkpt><trkpt lat="46.3627846" lon="12.7775581"><ele>787.6666666666667</ele><time>2026-04-19T07:32:03.204Z</time></trkpt><trkpt lat="46.3627685" lon="12.7776846"><ele>790.8333333333334</ele><time>2026-04-19T07:32:05.205Z</time></trkpt><trkpt lat="46.3626755" lon="12.7777"><ele>794.0</ele><time>2026-04-19T07:32:07.204Z</time></trkpt><trkpt lat="46.3625577" lon="12.7774127"><ele>794.0</ele><time>2026-04-19T07:32:09.204Z</time></trkpt><trkpt lat="46.3625141" lon="12.7772942"><ele>794.0</ele><time>2026-04-19T07:32:10.204Z</time></trkpt><trkpt lat="46.3624584" lon="12.7771886"><ele>794.0</ele><time>2026-04-19T07:32:11.205Z</time></trkpt><trkpt lat="46.3623909" lon="12.777088"><ele>794.0</ele><time>2026-04-19T07:32:12.205Z</time></trkpt><trkpt lat="46.3622944" lon="12.776984"><ele>794.0</ele><time>2026-04-19T07:32:13.204Z</time></trkpt><trkpt lat="46.3622262" lon="12.7768741"><ele>802.4000000000001</ele><time>2026-04-19T07:32:14.205Z</time></trkpt><trkpt lat="46.3621839" lon="12.776745"><ele>810.8</ele><time>2026-04-19T07:32:15.205Z</time></trkpt><trkpt lat="46.3621488" lon="12.7766199"><ele>819.2</ele><time>2026-04-19T07:32:16.205Z</time></trkpt><trkpt lat="46.3621046" lon="12.776436"><ele>827.5999999999999</ele><time>2026-04-19T07:32:17.205Z</time></trkpt><trkpt lat="46.3620421" lon="12.7762873"><ele>836.0</ele><time>2026-04-19T07:32:18.204Z</time></trkpt><trkpt lat="46.3619895" lon="12.7761476"><ele>836.1999999999999</ele><time>2026-04-19T07:32:19.206Z</time></trkpt><trkpt lat="46.3619623" lon="12.7760153"><ele>836.4</ele><time>2026-04-19T07:32:20.205Z</time></trkpt><trkpt lat="46.3619756" lon="12.7758859"><ele>836.6</ele><time>2026-04-19T07:32:21.204Z</time></trkpt><trkpt lat="46.3620464" lon="12.7757658"><ele>836.8</ele><time>2026-04-19T07:32:22.205Z</time></trkpt><trkpt lat="46.3620979" lon="12.7756714"><ele>837.0</ele><time>2026-04-19T07:32:23.205Z</time></trkpt><trkpt lat="46.3621411" lon="12.7755814"><ele>837.0</ele><time>2026-04-19T07:32:24.205Z</time></trkpt><trkpt lat="46.36215" lon="12.7754894"><ele>837.0</ele><time>2026-04-19T07:32:25.205Z</time></trkpt><trkpt lat="46.3621675" lon="12.7753947"><ele>837.0</ele><time>2026-04-19T07:32:26.205Z</time></trkpt><trkpt lat="46.3620748" lon="12.7752491"><ele>837.0</ele><time>2026-04-19T07:32:27.205Z</time></trkpt><trkpt lat="46.3620331" lon="12.7751323"><ele>837.0</ele><time>2026-04-19T07:32:28.205Z</time></trkpt><trkpt lat="46.3619975" lon="12.775013"><ele>837.0</ele><time>2026-04-19T07:32:29.204Z</time></trkpt><trkpt lat="46.3619624" lon="12.7749222"><ele>836.2</ele><time>2026-04-19T07:32:30.205Z</time></trkpt><trkpt lat="46.3619069" lon="12.7748166"><ele>835.4000000000001</ele><time>2026-04-19T07:32:31.206Z</time></trkpt><trkpt lat="46.3618062" lon="12.7747395"><ele>834.5999999999999</ele><time>2026-04-19T07:32:32.205Z</time></trkpt><trkpt lat="46.3617307" lon="12.7746276"><ele>833.8</ele><time>2026-04-19T07:32:33.204Z</time></trkpt><trkpt lat="46.3616894" lon="12.7744591"><ele>833.0</ele><time>2026-04-19T07:32:34.205Z</time></trkpt><trkpt lat="46.3616375" lon="12.7743168"><ele>829.4</ele><time>2026-04-19T07:32:35.205Z</time></trkpt><trkpt lat="46.3615925" lon="12.7741725"><ele>825.8</ele><time>2026-04-19T07:32:36.204Z</time></trkpt><trkpt lat="46.3615751" lon="12.7740412"><ele>822.2</ele><time>2026-04-19T07:32:37.205Z</time></trkpt><trkpt lat="46.3615382" lon="12.7739071"><ele>818.6</ele><time>2026-04-19T07:32:38.205Z</time></trkpt><trkpt lat="46.3614846" lon="12.7737893"><ele>815.0</ele><time>2026-04-19T07:32:39.204Z</time></trkpt><trkpt lat="46.3613642" lon="12.7737645"><ele>815.0</ele><time>2026-04-19T07:32:40.206Z</time></trkpt><trkpt lat="46.3612874" lon="12.7736647"><ele>815.0</ele><time>2026-04-19T07:32:41.205Z</time></trkpt><trkpt lat="46.3612145" lon="12.7735832"><ele>815.0</ele><time>2026-04-19T07:32:42.205Z</time></trkpt><trkpt lat="46.361129" lon="12.7735411"><ele>815.0</ele><time>2026-04-19T07:32:43.205Z</time></trkpt><trkpt lat="46.3610362" lon="12.7734823"><ele>815.0</ele><time>2026-04-19T07:32:44.205Z</time></trkpt><trkpt lat="46.3608966" lon="12.7735099"><ele>815.0</ele><time>2026-04-19T07:32:45.204Z</time></trkpt><trkpt lat="46.3607883" lon="12.7734942"><ele>815.0</ele><time>2026-04-19T07:32:46.205Z</time></trkpt><trkpt lat="46.3606834" lon="12.7734689"><ele>815.0</ele><time>2026-04-19T07:32:47.205Z</time></trkpt><trkpt lat="46.3605824" lon="12.7734519"><ele>815.0</ele><time>2026-04-19T07:32:48.205Z</time></trkpt><trkpt lat="46.3604896" lon="12.7734368"><ele>815.0</ele><time>2026-04-19T07:32:49.205Z</time></trkpt><trkpt lat="46.3603898" lon="12.7734884"><ele>816.4</ele><time>2026-04-19T07:32:50.205Z</time></trkpt><trkpt lat="46.3602958" lon="12.7735039"><ele>817.8</ele><time>2026-04-19T07:32:51.205Z</time></trkpt><trkpt lat="46.3601787" lon="12.7735596"><ele>819.2</ele><time>2026-04-19T07:32:52.205Z</time></trkpt><trkpt lat="46.3600801" lon="12.7735582"><ele>820.6</ele><time>2026-04-19T07:32:53.205Z</time></trkpt><trkpt lat="46.3599813" lon="12.7735544"><ele>822.0</ele><time>2026-04-19T07:32:54.205Z</time></trkpt><trkpt lat="46.3599014" lon="12.7735056"><ele>822.0</ele><time>2026-04-19T07:32:55.204Z</time></trkpt><trkpt lat="46.3598226" lon="12.7734738"><ele>822.0</ele><time>2026-04-19T07:32:56.205Z</time></trkpt><trkpt lat="46.3597511" lon="12.7734518"><ele>822.0</ele><time>2026-04-19T07:32:57.205Z</time></trkpt><trkpt lat="46.35967" lon="12.7735117"><ele>822.0</ele><time>2026-04-19T07:32:59.205Z</time></trkpt><trkpt lat="46.3597193" lon="12.7735945"><ele>822.0</ele><time>2026-04-19T07:33:01.205Z</time></trkpt><trkpt lat="46.3598594" lon="12.7736314"><ele>835.75</ele><time>2026-04-19T07:33:03.206Z</time></trkpt><trkpt lat="46.3599718" lon="12.7736605"><ele>849.5</ele><time>2026-04-19T07:33:04.205Z</time></trkpt><trkpt lat="46.3600869" lon="12.7737086"><ele>863.25</ele><time>2026-04-19T07:33:05.204Z</time></trkpt><trkpt lat="46.3602082" lon="12.7737513"><ele>877.0</ele><time>2026-04-19T07:33:06.205Z</time></trkpt><trkpt lat="46.3603278" lon="12.7737635"><ele>877.0</ele><time>2026-04-19T07:33:07.204Z</time></trkpt><trkpt lat="46.3604362" lon="12.7737835"><ele>877.0</ele><time>2026-04-19T07:33:08.205Z</time></trkpt><trkpt lat="46.3605659" lon="12.7738308"><ele>877.0</ele><time>2026-04-19T07:33:09.205Z</time></trkpt><trkpt lat="46.3606881" lon="12.7738708"><ele>877.0</ele><time>2026-04-19T07:33:10.206Z</time></trkpt><trkpt lat="46.3608084" lon="12.7739162"><ele>875.2</ele><time>2026-04-19T07:33:11.204Z</time></trkpt><trkpt lat="46.3609144" lon="12.7739359"><ele>873.4000000000001</ele><time>2026-04-19T07:33:12.205Z</time></trkpt><trkpt lat="46.361009" lon="12.7739705"><ele>871.5999999999999</ele><time>2026-04-19T07:33:13.206Z</time></trkpt><trkpt lat="46.3610921" lon="12.7739881"><ele>869.8</ele><time>2026-04-19T07:33:14.206Z</time></trkpt><trkpt lat="46.3611762" lon="12.774056"><ele>868.0</ele><time>2026-04-19T07:33:16.206Z</time></trkpt><trkpt lat="46.3612647" lon="12.7742109"><ele>868.0</ele><time>2026-04-19T07:33:18.205Z</time></trkpt><trkpt lat="46.3612902" lon="12.7743314"><ele>868.0</ele><time>2026-04-19T07:33:19.205Z</time></trkpt><trkpt lat="46.3613172" lon="12.7744627"><ele>868.0</ele><time>2026-04-19T07:33:20.204Z</time></trkpt><trkpt lat="46.361326" lon="12.7746019"><ele>868.0</ele><time>2026-04-19T07:33:21.205Z</time></trkpt><trkpt lat="46.3613263" lon="12.7747392"><ele>868.0</ele><time>2026-04-19T07:33:22.205Z</time></trkpt><trkpt lat="46.3613397" lon="12.7748692"><ele>861.0</ele><time>2026-04-19T07:33:23.205Z</time></trkpt><trkpt lat="46.3613674" lon="12.7749827"><ele>854.0</ele><time>2026-04-19T07:33:24.206Z</time></trkpt><trkpt lat="46.3613681" lon="12.7751181"><ele>847.0</ele><time>2026-04-19T07:33:25.204Z</time></trkpt><trkpt lat="46.361346" lon="12.7752724"><ele>840.0</ele><time>2026-04-19T07:33:26.205Z</time></trkpt><trkpt lat="46.3613214" lon="12.7754553"><ele>833.0</ele><time>2026-04-19T07:33:27.204Z</time></trkpt><trkpt lat="46.3612951" lon="12.7756286"><ele>852.0</ele><time>2026-04-19T07:33:28.205Z</time></trkpt><trkpt lat="46.361262" lon="12.7758259"><ele>871.0</ele><time>2026-04-19T07:33:29.205Z</time></trkpt><trkpt lat="46.3612343" lon="12.7760311"><ele>890.0</ele><time>2026-04-19T07:33:30.204Z</time></trkpt><trkpt lat="46.3611987" lon="12.7762179"><ele>909.0</ele><time>2026-04-19T07:33:31.205Z</time></trkpt><trkpt lat="46.3611709" lon="12.7764044"><ele>909.5</ele><time>2026-04-19T07:33:32.205Z</time></trkpt><trkpt lat="46.3611438" lon="12.7765766"><ele>910.0</ele><time>2026-04-19T07:33:33.205Z</time></trkpt><trkpt lat="46.3611123" lon="12.776736"><ele>910.5</ele><time>2026-04-19T07:33:34.205Z</time></trkpt><trkpt lat="46.3611314" lon="12.7769328"><ele>911.0</ele><time>2026-04-19T07:33:35.205Z</time></trkpt><trkpt lat="46.3611425" lon="12.777121"><ele>911.5</ele><time>2026-04-19T07:33:36.206Z</time></trkpt><trkpt lat="46.3611771" lon="12.7772868"><ele>912.0</ele><time>2026-04-19T07:33:37.205Z</time></trkpt><trkpt lat="46.3611895" lon="12.7774575"><ele>912.5</ele><time>2026-04-19T07:33:38.204Z</time></trkpt><trkpt lat="46.3611804" lon="12.777618"><ele>913.0</ele><time>2026-04-19T07:33:39.205Z</time></trkpt><trkpt lat="46.3611616" lon="12.7777724"><ele>913.0</ele><time>2026-04-19T07:33:40.205Z</time></trkpt><trkpt lat="46.361154" lon="12.7779094"><ele>913.0</ele><time>2026-04-19T07:33:41.205Z</time></trkpt><trkpt lat="46.3611794" lon="12.7780277"><ele>913.0</ele><time>2026-04-19T07:33:42.205Z</time></trkpt><trkpt lat="46.3611937" lon="12.7781417"><ele>913.0</ele><time>2026-04-19T07:33:43.205Z</time></trkpt><trkpt lat="46.3612451" lon="12.7782587"><ele>913.0</ele><time>2026-04-19T07:33:44.204Z</time></trkpt><trkpt lat="46.3613508" lon="12.7783156"><ele>911.9999999999999</ele><time>2026-04-19T07:33:45.205Z</time></trkpt><trkpt lat="46.3614527" lon="12.7783593"><ele>911.0</ele><time>2026-04-19T07:33:46.205Z</time></trkpt><trkpt lat="46.3615312" lon="12.7783954"><ele>910.0</ele><time>2026-04-19T07:33:47.205Z</time></trkpt><trkpt lat="46.3615912" lon="12.7784754"><ele>909.0</ele><time>2026-04-19T07:33:48.205Z</time></trkpt><trkpt lat="46.3616289" lon="12.7785869"><ele>907.9999999999999</ele><time>2026-04-19T07:33:49.205Z</time></trkpt><trkpt lat="46.3616764" lon="12.778698"><ele>907.0</ele><time>2026-04-19T07:33:50.205Z</time></trkpt><trkpt lat="46.3617108" lon="12.7788556"><ele>907.0</ele><time>2026-04-19T07:33:51.205Z</time></trkpt><trkpt lat="46.3617578" lon="12.7789884"><ele>907.0</ele><time>2026-04-19T07:33:52.205Z</time></trkpt><trkpt lat="46.3618037" lon="12.7791313"><ele>907.0</ele><time>2026-04-19T07:33:53.205Z</time></trkpt><trkpt lat="46.3618353" lon="12.7792852"><ele>907.0</ele><time>2026-04-19T07:33:54.204Z</time></trkpt><trkpt lat="46.3618549" lon="12.7794372"><ele>907.0</ele><time>2026-04-19T07:33:55.205Z</time></trkpt><trkpt lat="46.3618755" lon="12.7795851"><ele>913.6666666666666</ele><time>2026-04-19T07:33:56.204Z</time></trkpt><trkpt lat="46.3619118" lon="12.779708"><ele>920.3333333333333</ele><time>2026-04-19T07:33:57.205Z</time></trkpt><trkpt lat="46.3619714" lon="12.7798055"><ele>927.0</ele><time>2026-04-19T07:33:58.205Z</time></trkpt><trkpt lat="46.3620399" lon="12.7798769"><ele>933.6666666666667</ele><time>2026-04-19T07:33:59.204Z</time></trkpt><trkpt lat="46.3620878" lon="12.7799447"><ele>940.3333333333334</ele><time>2026-04-19T07:34:00.205Z</time></trkpt><trkpt lat="46.3620899" lon="12.7801005"><ele>947.0</ele><time>2026-04-19T07:34:02.204Z</time></trkpt><trkpt lat="46.3620811" lon="12.7802557"><ele>947.0</ele><time>2026-04-19T07:34:04.206Z</time></trkpt><trkpt lat="46.3620052" lon="12.7803418"><ele>947.0</ele><time>2026-04-19T07:34:06.205Z</time></trkpt><trkpt lat="46.3619651" lon="12.7802113"><ele>947.0</ele><time>2026-04-19T07:34:07.205Z</time></trkpt><trkpt lat="46.3618965" lon="12.7799693"><ele>947.0</ele><time>2026-04-19T07:34:08.204Z</time></trkpt><trkpt lat="46.3618488" lon="12.7797476"><ele>947.0</ele><time>2026-04-19T07:34:09.205Z</time></trkpt><trkpt lat="46.3618282" lon="12.7795826"><ele>947.0</ele><time>2026-04-19T07:34:10.204Z</time></trkpt><trkpt lat="46.3618002" lon="12.7794163"><ele>947.0</ele><time>2026-04-19T07:34:11.205Z</time></trkpt><trkpt lat="46.3617725" lon="12.7792847"><ele>947.0</ele><time>2026-04-19T07:34:12.205Z</time></trkpt><trkpt lat="46.3617348" lon="12.7791583"><ele>947.0</ele><time>2026-04-19T07:34:13.205Z</time></trkpt><trkpt lat="46.3616851" lon="12.7790154"><ele>946.25</ele><time>2026-04-19T07:34:14.205Z</time></trkpt><trkpt lat="46.3615673" lon="12.7789178"><ele>945.5</ele><time>2026-04-19T07:34:15.205Z</time></trkpt><trkpt lat="46.3614772" lon="12.7788197"><ele>944.75</ele><time>2026-04-19T07:34:16.204Z</time></trkpt><trkpt lat="46.361368" lon="12.7787657"><ele>944.0</ele><time>2026-04-19T07:34:17.205Z</time></trkpt><trkpt lat="46.3612441" lon="12.7787265"><ele>944.0</ele><time>2026-04-19T07:34:18.205Z</time></trkpt><trkpt lat="46.3611078" lon="12.7786892"><ele>944.0</ele><time>2026-04-19T07:34:19.205Z</time></trkpt><trkpt lat="46.36096" lon="12.7786545"><ele>944.0</ele><time>2026-04-19T07:34:20.205Z</time></trkpt><trkpt lat="46.3608262" lon="12.7786186"><ele>944.0</ele><time>2026-04-19T07:34:21.205Z</time></trkpt><trkpt lat="46.3607114" lon="12.7785826"><ele>944.0</ele><time>2026-04-19T07:34:22.204Z</time></trkpt><trkpt lat="46.3606152" lon="12.7785486"><ele>944.0000000000001</ele><time>2026-04-19T07:34:23.205Z</time></trkpt><trkpt lat="46.3605382" lon="12.7784836"><ele>944.0000000000001</ele><time>2026-04-19T07:34:24.205Z</time></trkpt><trkpt lat="46.3604644" lon="12.7783971"><ele>944.0</ele><time>2026-04-19T07:34:25.205Z</time></trkpt><trkpt lat="46.3604529" lon="12.778262"><ele>944.0</ele><time>2026-04-19T07:34:26.206Z</time></trkpt><trkpt lat="46.3604277" lon="12.7781181"><ele>951.0</ele><time>2026-04-19T07:34:27.204Z</time></trkpt><trkpt lat="46.3604701" lon="12.7779367"><ele>958.0</ele><time>2026-04-19T07:34:28.205Z</time></trkpt><trkpt lat="46.3605128" lon="12.7777418"><ele>965.0</ele><time>2026-04-19T07:34:29.205Z</time></trkpt><trkpt lat="46.3605447" lon="12.7775135"><ele>972.0</ele><time>2026-04-19T07:34:30.205Z</time></trkpt><trkpt lat="46.3605756" lon="12.7773248"><ele>959.8</ele><time>2026-04-19T07:34:31.204Z</time></trkpt><trkpt lat="46.3606008" lon="12.7771717"><ele>947.6</ele><time>2026-04-19T07:34:32.205Z</time></trkpt><trkpt lat="46.3606136" lon="12.7770306"><ele>935.3999999999999</ele><time>2026-04-19T07:34:33.205Z</time></trkpt><trkpt lat="46.3606152" lon="12.7768699"><ele>923.1999999999999</ele><time>2026-04-19T07:34:34.205Z</time></trkpt><trkpt lat="46.3606168" lon="12.7766994"><ele>911.0</ele><time>2026-04-19T07:34:35.206Z</time></trkpt><trkpt lat="46.3605458" lon="12.7765091"><ele>920.5</ele><time>2026-04-19T07:34:36.206Z</time></trkpt><trkpt lat="46.360514" lon="12.7763207"><ele>930.0</ele><time>2026-04-19T07:34:37.205Z</time></trkpt><trkpt lat="46.3604825" lon="12.7761274"><ele>939.5</ele><time>2026-04-19T07:34:38.205Z</time></trkpt><trkpt lat="46.3604462" lon="12.7759384"><ele>949.0</ele><time>2026-04-19T07:34:39.204Z</time></trkpt><trkpt lat="46.3604177" lon="12.7757624"><ele>949.0</ele><time>2026-04-19T07:34:40.205Z</time></trkpt><trkpt lat="46.3604106" lon="12.7755899"><ele>949.0000000000001</ele><time>2026-04-19T07:34:41.205Z</time></trkpt><trkpt lat="46.3604258" lon="12.775441"><ele>949.0000000000001</ele><time>2026-04-19T07:34:42.205Z</time></trkpt><trkpt lat="46.3604063" lon="12.7753189"><ele>949.0</ele><time>2026-04-19T07:34:43.205Z</time></trkpt><trkpt lat="46.3603788" lon="12.7752183"><ele>949.0</ele><time>2026-04-19T07:34:44.205Z</time></trkpt><trkpt lat="46.3603558" lon="12.7751295"><ele>948.9999999999999</ele><time>2026-04-19T07:34:45.206Z</time></trkpt><trkpt lat="46.3603224" lon="12.775042"><ele>949.0</ele><time>2026-04-19T07:34:46.205Z</time></trkpt><trkpt lat="46.360242" lon="12.7750169"><ele>949.0</ele><time>2026-04-19T07:34:47.204Z</time></trkpt><trkpt lat="46.3601371" lon="12.7750791"><ele>949.0</ele><time>2026-04-19T07:34:48.205Z</time></trkpt><trkpt lat="46.3601165" lon="12.7751925"><ele>948.9999999999999</ele><time>2026-04-19T07:34:49.205Z</time></trkpt><trkpt lat="46.3600887" lon="12.7753019"><ele>949.0</ele><time>2026-04-19T07:34:50.204Z</time></trkpt><trkpt lat="46.3600846" lon="12.7754081"><ele>948.9999999999999</ele><time>2026-04-19T07:34:51.205Z</time></trkpt><trkpt lat="46.3600782" lon="12.7755185"><ele>949.0</ele><time>2026-04-19T07:34:52.205Z</time></trkpt><trkpt lat="46.3600462" lon="12.7756076"><ele>949.0</ele><time>2026-04-19T07:34:53.206Z</time></trkpt><trkpt lat="46.3600236" lon="12.7757014"><ele>949.0</ele><time>2026-04-19T07:34:54.204Z</time></trkpt><trkpt lat="46.3599186" lon="12.775662"><ele>948.9999999999999</ele><time>2026-04-19T07:34:55.206Z</time></trkpt><trkpt lat="46.3598484" lon="12.7756937"><ele>949.0</ele><time>2026-04-19T07:34:56.205Z</time></trkpt><trkpt lat="46.3596619" lon="12.7756002"><ele>949.0</ele><time>2026-04-19T07:34:58.204Z</time></trkpt><trkpt lat="46.3595751" lon="12.7755644"><ele>949.0000000000001</ele><time>2026-04-19T07:34:59.205Z</time></trkpt><trkpt lat="46.359484" lon="12.7755187"><ele>949.0000000000001</ele><time>2026-04-19T07:35:00.204Z</time></trkpt><trkpt lat="46.3594053" lon="12.7755126"><ele>949.0</ele><time>2026-04-19T07:35:01.205Z</time></trkpt><trkpt lat="46.3593221" lon="12.7755133"><ele>949.0</ele><time>2026-04-19T07:35:02.204Z</time></trkpt><trkpt lat="46.3592217" lon="12.7755829"><ele>949.0</ele><time>2026-04-19T07:35:03.206Z</time></trkpt><trkpt lat="46.3591366" lon="12.7758071"><ele>949.0</ele><time>2026-04-19T07:35:04.205Z</time></trkpt><trkpt lat="46.3590367" lon="12.7759142"><ele>949.0</ele><time>2026-04-19T07:35:05.205Z</time></trkpt><trkpt lat="46.3589207" lon="12.7760435"><ele>949.0</ele><time>2026-04-19T07:35:06.205Z</time></trkpt><trkpt lat="46.3588016" lon="12.7761511"><ele>954.8000000000001</ele><time>2026-04-19T07:35:07.205Z</time></trkpt><trkpt lat="46.3586806" lon="12.7762314"><ele>960.6000000000001</ele><time>2026-04-19T07:35:08.204Z</time></trkpt><trkpt lat="46.358567" lon="12.7762983"><ele>966.4</ele><time>2026-04-19T07:35:09.205Z</time></trkpt><trkpt lat="46.3584676" lon="12.7763395"><ele>972.2</ele><time>2026-04-19T07:35:10.204Z</time></trkpt><trkpt lat="46.3583811" lon="12.7763569"><ele>978.0</ele><time>2026-04-19T07:35:11.204Z</time></trkpt><trkpt lat="46.3583049" lon="12.7763591"><ele>978.0</ele><time>2026-04-19T07:35:12.205Z</time></trkpt><trkpt lat="46.3582299" lon="12.7763217"><ele>978.0</ele><time>2026-04-19T07:35:13.204Z</time></trkpt><trkpt lat="46.3581233" lon="12.7761866"><ele>978.0</ele><time>2026-04-19T07:35:14.204Z</time></trkpt><trkpt lat="46.3580456" lon="12.7759785"><ele>978.0</ele><time>2026-04-19T07:35:15.204Z</time></trkpt><trkpt lat="46.3579537" lon="12.7758404"><ele>979.2</ele><time>2026-04-19T07:35:16.204Z</time></trkpt><trkpt lat="46.3578633" lon="12.775704"><ele>980.4</ele><time>2026-04-19T07:35:17.205Z</time></trkpt><trkpt lat="46.3577598" lon="12.7756168"><ele>981.6000000000001</ele><time>2026-04-19T07:35:18.204Z</time></trkpt><trkpt lat="46.3576821" lon="12.7755177"><ele>982.8000000000001</ele><time>2026-04-19T07:35:19.204Z</time></trkpt><trkpt lat="46.3576095" lon="12.7755049"><ele>984.0</ele><time>2026-04-19T07:35:20.204Z</time></trkpt><trkpt lat="46.3575403" lon="12.775488"><ele>984.0</ele><time>2026-04-19T07:35:21.205Z</time></trkpt><trkpt lat="46.3574502" lon="12.7755542"><ele>984.0000000000001</ele><time>2026-04-19T07:35:23.205Z</time></trkpt><trkpt lat="46.3574639" lon="12.7756848"><ele>984.0000000000001</ele><time>2026-04-19T07:35:25.205Z</time></trkpt><trkpt lat="46.3575644" lon="12.775812"><ele>984.0</ele><time>2026-04-19T07:35:27.205Z</time></trkpt><trkpt lat="46.357639" lon="12.7758311"><ele>984.0</ele><time>2026-04-19T07:35:28.205Z</time></trkpt><trkpt lat="46.3577248" lon="12.7758343"><ele>984.0</ele><time>2026-04-19T07:35:29.204Z</time></trkpt><trkpt lat="46.3577809" lon="12.7759285"><ele>984.0000000000001</ele><time>2026-04-19T07:35:30.205Z</time></trkpt><trkpt lat="46.3578513" lon="12.7760186"><ele>984.0000000000001</ele><time>2026-04-19T07:35:31.206Z</time></trkpt><trkpt lat="46.3578962" lon="12.7761443"><ele>984.0</ele><time>2026-04-19T07:35:32.205Z</time></trkpt><trkpt lat="46.3579674" lon="12.7762887"><ele>984.0</ele><time>2026-04-19T07:35:33.205Z</time></trkpt><trkpt lat="46.3580393" lon="12.7764167"><ele>983.0</ele><time>2026-04-19T07:35:34.206Z</time></trkpt><trkpt lat="46.3580869" lon="12.7765408"><ele>982.0</ele><time>2026-04-19T07:35:35.204Z</time></trkpt><trkpt lat="46.3581133" lon="12.7766436"><ele>981.0</ele><time>2026-04-19T07:35:36.206Z</time></trkpt><trkpt lat="46.3580986" lon="12.7767578"><ele>980.0</ele><time>2026-04-19T07:35:37.205Z</time></trkpt><trkpt lat="46.3580608" lon="12.7768623"><ele>979.0</ele><time>2026-04-19T07:35:38.204Z</time></trkpt><trkpt lat="46.3580077" lon="12.7769779"><ele>978.0</ele><time>2026-04-19T07:35:39.205Z</time></trkpt><trkpt lat="46.3579472" lon="12.7770935"><ele>982.2</ele><time>2026-04-19T07:35:40.205Z</time></trkpt><trkpt lat="46.3579108" lon="12.7771858"><ele>986.4</ele><time>2026-04-19T07:35:41.205Z</time></trkpt><trkpt lat="46.3578873" lon="12.7772775"><ele>990.6000000000001</ele><time>2026-04-19T07:35:42.205Z</time></trkpt><trkpt lat="46.3579182" lon="12.7774523"><ele>994.8000000000001</ele><time>2026-04-19T07:35:44.205Z</time></trkpt><trkpt lat="46.3580296" lon="12.7775709"><ele>999.0</ele><time>2026-04-19T07:35:46.204Z</time></trkpt><trkpt lat="46.3581204" lon="12.7775076"><ele>999.0</ele><time>2026-04-19T07:35:47.205Z</time></trkpt><trkpt lat="46.3582296" lon="12.777464"><ele>999.0</ele><time>2026-04-19T07:35:48.205Z</time></trkpt><trkpt lat="46.3583418" lon="12.7774116"><ele>999.0</ele><time>2026-04-19T07:35:49.204Z</time></trkpt><trkpt lat="46.3584472" lon="12.7773186"><ele>999.0</ele><time>2026-04-19T07:35:50.205Z</time></trkpt><trkpt lat="46.3585529" lon="12.7772265"><ele>999.0</ele><time>2026-04-19T07:35:51.204Z</time></trkpt><trkpt lat="46.3586387" lon="12.7771401"><ele>999.0</ele><time>2026-04-19T07:35:52.205Z</time></trkpt><trkpt lat="46.3586935" lon="12.7770543"><ele>999.0</ele><time>2026-04-19T07:35:53.204Z</time></trkpt><trkpt lat="46.3587638" lon="12.7770114"><ele>999.0</ele><time>2026-04-19T07:35:54.205Z</time></trkpt><trkpt lat="46.3588454" lon="12.7769994"><ele>999.0</ele><time>2026-04-19T07:35:55.204Z</time></trkpt><trkpt lat="46.3589223" lon="12.7770346"><ele>999.0</ele><time>2026-04-19T07:35:56.204Z</time></trkpt><trkpt lat="46.3589839" lon="12.7770915"><ele>998.75</ele><time>2026-04-19T07:35:57.204Z</time></trkpt><trkpt lat="46.3590232" lon="12.7772331"><ele>998.5</ele><time>2026-04-19T07:35:58.205Z</time></trkpt><trkpt lat="46.3590679" lon="12.7773664"><ele>998.25</ele><time>2026-04-19T07:35:59.205Z</time></trkpt><trkpt lat="46.3590917" lon="12.7775724"><ele>998.0</ele><time>2026-04-19T07:36:00.205Z</time></trkpt><trkpt lat="46.3591237" lon="12.777784"><ele>1001.0</ele><time>2026-04-19T07:36:01.204Z</time></trkpt><trkpt lat="46.3591484" lon="12.7780085"><ele>1004.0</ele><time>2026-04-19T07:36:02.204Z</time></trkpt><trkpt lat="46.3591917" lon="12.7782295"><ele>1007.0</ele><time>2026-04-19T07:36:03.205Z</time></trkpt><trkpt lat="46.3592198" lon="12.7784565"><ele>1010.0</ele><time>2026-04-19T07:36:04.204Z</time></trkpt><trkpt lat="46.359261" lon="12.7786955"><ele>1013.0</ele><time>2026-04-19T07:36:05.204Z</time></trkpt><trkpt lat="46.3593774" lon="12.7789407"><ele>1016.0</ele><time>2026-04-19T07:36:06.206Z</time></trkpt><trkpt lat="46.3594367" lon="12.7791798"><ele>1019.0</ele><time>2026-04-19T07:36:07.205Z</time></trkpt><trkpt lat="46.3595072" lon="12.7794182"><ele>1022.0</ele><time>2026-04-19T07:36:08.205Z</time></trkpt><trkpt lat="46.3595761" lon="12.7796114"><ele>1025.0</ele><time>2026-04-19T07:36:09.205Z</time></trkpt><trkpt lat="46.3596339" lon="12.7798132"><ele>1025.0</ele><time>2026-04-19T07:36:10.205Z</time></trkpt><trkpt lat="46.3596884" lon="12.7800022"><ele>1025.0</ele><time>2026-04-19T07:36:11.205Z</time></trkpt><trkpt lat="46.3597513" lon="12.7801686"><ele>1025.0</ele><time>2026-04-19T07:36:12.204Z</time></trkpt><trkpt lat="46.3598219" lon="12.7803325"><ele>1025.0</ele><time>2026-04-19T07:36:13.205Z</time></trkpt><trkpt lat="46.3598833" lon="12.78049"><ele>1026.0</ele><time>2026-04-19T07:36:14.205Z</time></trkpt><trkpt lat="46.3599655" lon="12.7806219"><ele>1027.0</ele><time>2026-04-19T07:36:15.204Z</time></trkpt><trkpt lat="46.3600884" lon="12.7805933"><ele>1028.0</ele><time>2026-04-19T07:36:16.205Z</time></trkpt><trkpt lat="46.3602171" lon="12.7806379"><ele>1029.0</ele><time>2026-04-19T07:36:17.205Z</time></trkpt><trkpt lat="46.3603134" lon="12.7806735"><ele>1029.0</ele><time>2026-04-19T07:36:18.205Z</time></trkpt><trkpt lat="46.3604296" lon="12.7807399"><ele>1029.0</ele><time>2026-04-19T07:36:19.205Z</time></trkpt><trkpt lat="46.3605196" lon="12.7808001"><ele>1029.0</ele><time>2026-04-19T07:36:20.205Z</time></trkpt><trkpt lat="46.3605969" lon="12.780835"><ele>1029.0</ele><time>2026-04-19T07:36:21.205Z</time></trkpt><trkpt lat="46.360628" lon="12.7809341"><ele>1029.0</ele><time>2026-04-19T07:36:22.204Z</time></trkpt><trkpt lat="46.3606746" lon="12.7810364"><ele>1025.6000000000001</ele><time>2026-04-19T07:36:23.204Z</time></trkpt><trkpt lat="46.3606943" lon="12.7811797"><ele>1022.2</ele><time>2026-04-19T07:36:24.205Z</time></trkpt><trkpt lat="46.3607299" lon="12.7813095"><ele>1018.8000000000001</ele><time>2026-04-19T07:36:25.205Z</time></trkpt><trkpt lat="46.3607167" lon="12.7814355"><ele>1015.4000000000001</ele><time>2026-04-19T07:36:26.206Z</time></trkpt><trkpt lat="46.3606485" lon="12.7815529"><ele>1012.0</ele><time>2026-04-19T07:36:28.205Z</time></trkpt><trkpt lat="46.3605543" lon="12.7814942"><ele>1015.4000000000001</ele><time>2026-04-19T07:36:30.205Z</time></trkpt><trkpt lat="46.360493" lon="12.7813534"><ele>1018.8000000000001</ele><time>2026-04-19T07:36:32.205Z</time></trkpt><trkpt lat="46.3604715" lon="12.7812573"><ele>1022.2</ele><time>2026-04-19T07:36:33.205Z</time></trkpt><trkpt lat="46.3605032" lon="12.7811686"><ele>1025.6000000000001</ele><time>2026-04-19T07:36:34.205Z</time></trkpt><trkpt lat="46.3604757" lon="12.7810034"><ele>1029.0</ele><time>2026-04-19T07:36:36.205Z</time></trkpt><trkpt lat="46.3603956" lon="12.7808169"><ele>1029.0</ele><time>2026-04-19T07:36:38.204Z</time></trkpt><trkpt lat="46.3602327" lon="12.7808316"><ele>1029.0</ele><time>2026-04-19T07:36:39.204Z</time></trkpt><trkpt lat="46.3601249" lon="12.7808232"><ele>1029.0</ele><time>2026-04-19T07:36:40.205Z</time></trkpt><trkpt lat="46.3600116" lon="12.7807966"><ele>1029.0</ele><time>2026-04-19T07:36:41.205Z</time></trkpt><trkpt lat="46.3598759" lon="12.7807538"><ele>1029.0</ele><time>2026-04-19T07:36:42.205Z</time></trkpt><trkpt lat="46.3597405" lon="12.7807181"><ele>1029.0</ele><time>2026-04-19T07:36:43.205Z</time></trkpt><trkpt lat="46.3596186" lon="12.7806778"><ele>1029.0</ele><time>2026-04-19T07:36:44.205Z</time></trkpt><trkpt lat="46.3595037" lon="12.780638"><ele>1029.0</ele><time>2026-04-19T07:36:45.205Z</time></trkpt><trkpt lat="46.3594179" lon="12.7806694"><ele>1032.2</ele><time>2026-04-19T07:36:46.204Z</time></trkpt><trkpt lat="46.35933" lon="12.7806624"><ele>1035.4</ele><time>2026-04-19T07:36:47.205Z</time></trkpt><trkpt lat="46.3592356" lon="12.7807552"><ele>1038.6</ele><time>2026-04-19T07:36:48.204Z</time></trkpt><trkpt lat="46.3591527" lon="12.7807601"><ele>1041.8</ele><time>2026-04-19T07:36:49.204Z</time></trkpt><trkpt lat="46.3590641" lon="12.7807718"><ele>1045.0</ele><time>2026-04-19T07:36:50.206Z</time></trkpt><trkpt lat="46.3589679" lon="12.7807817"><ele>1045.0</ele><time>2026-04-19T07:36:51.205Z</time></trkpt><trkpt lat="46.3588962" lon="12.7807133"><ele>1045.0</ele><time>2026-04-19T07:36:52.205Z</time></trkpt><trkpt lat="46.3587986" lon="12.7806621"><ele>1045.0</ele><time>2026-04-19T07:36:53.204Z</time></trkpt><trkpt lat="46.3587137" lon="12.7805601"><ele>1045.0</ele><time>2026-04-19T07:36:54.206Z</time></trkpt><trkpt lat="46.3586315" lon="12.7804897"><ele>1045.0</ele><time>2026-04-19T07:36:55.204Z</time></trkpt><trkpt lat="46.3585669" lon="12.7804087"><ele>1046.75</ele><time>2026-04-19T07:36:56.204Z</time></trkpt><trkpt lat="46.3584814" lon="12.7803782"><ele>1048.5</ele><time>2026-04-19T07:36:57.204Z</time></trkpt><trkpt lat="46.3583568" lon="12.7803647"><ele>1050.25</ele><time>2026-04-19T07:36:59.206Z</time></trkpt><trkpt lat="46.3582889" lon="12.7805525"><ele>1052.0</ele><time>2026-04-19T07:37:00.206Z</time></trkpt><trkpt lat="46.3582148" lon="12.7806288"><ele>1052.0</ele><time>2026-04-19T07:37:01.205Z</time></trkpt><trkpt lat="46.3581481" lon="12.7807131"><ele>1052.0</ele><time>2026-04-19T07:37:02.205Z</time></trkpt><trkpt lat="46.3580847" lon="12.7807988"><ele>1052.0</ele><time>2026-04-19T07:37:03.205Z</time></trkpt><trkpt lat="46.3580209" lon="12.780875"><ele>1052.0</ele><time>2026-04-19T07:37:04.205Z</time></trkpt><trkpt lat="46.3579581" lon="12.7809504"><ele>1052.0</ele><time>2026-04-19T07:37:05.205Z</time></trkpt><trkpt lat="46.3578894" lon="12.7810281"><ele>1052.0</ele><time>2026-04-19T07:37:06.204Z</time></trkpt><trkpt lat="46.3578232" lon="12.7810965"><ele>1054.6666666666667</ele><time>2026-04-19T07:37:07.205Z</time></trkpt><trkpt lat="46.3577574" lon="12.7811706"><ele>1057.3333333333335</ele><time>2026-04-19T07:37:08.205Z</time></trkpt><trkpt lat="46.3576803" lon="12.7812309"><ele>1060.0</ele><time>2026-04-19T07:37:09.205Z</time></trkpt><trkpt lat="46.3576017" lon="12.7812674"><ele>1062.6666666666667</ele><time>2026-04-19T07:37:10.205Z</time></trkpt><trkpt lat="46.3575356" lon="12.7812905"><ele>1065.3333333333333</ele><time>2026-04-19T07:37:11.204Z</time></trkpt><trkpt lat="46.3574612" lon="12.7813116"><ele>1068.0</ele><time>2026-04-19T07:37:12.205Z</time></trkpt><trkpt lat="46.3573762" lon="12.7813556"><ele>1068.0</ele><time>2026-04-19T07:37:13.205Z</time></trkpt><trkpt lat="46.3572997" lon="12.7813938"><ele>1068.0</ele><time>2026-04-19T07:37:14.205Z</time></trkpt><trkpt lat="46.3572185" lon="12.7814346"><ele>1068.0</ele><time>2026-04-19T07:37:15.205Z</time></trkpt><trkpt lat="46.3571339" lon="12.7814542"><ele>1068.0</ele><time>2026-04-19T07:37:16.205Z</time></trkpt><trkpt lat="46.3570492" lon="12.7814824"><ele>1068.0</ele><time>2026-04-19T07:37:17.205Z</time></trkpt><trkpt lat="46.3569778" lon="12.7815182"><ele>1068.0</ele><time>2026-04-19T07:37:18.205Z</time></trkpt><trkpt lat="46.3569159" lon="12.7815584"><ele>1067.6</ele><time>2026-04-19T07:37:19.205Z</time></trkpt><trkpt lat="46.3568235" lon="12.7815854"><ele>1067.1999999999998</ele><time>2026-04-19T07:37:20.204Z</time></trkpt><trkpt lat="46.3567383" lon="12.7816476"><ele>1066.8</ele><time>2026-04-19T07:37:21.204Z</time></trkpt><trkpt lat="46.3566482" lon="12.7816848"><ele>1066.3999999999999</ele><time>2026-04-19T07:37:22.204Z</time></trkpt><trkpt lat="46.3566052" lon="12.7817939"><ele>1066.0</ele><time>2026-04-19T07:37:23.205Z</time></trkpt><trkpt lat="46.3565557" lon="12.7818983"><ele>1067.3999999999999</ele><time>2026-04-19T07:37:24.204Z</time></trkpt><trkpt lat="46.3565152" lon="12.7820309"><ele>1068.8</ele><time>2026-04-19T07:37:25.205Z</time></trkpt><trkpt lat="46.3564705" lon="12.7821482"><ele>1070.1999999999998</ele><time>2026-04-19T07:37:26.205Z</time></trkpt><trkpt lat="46.3564218" lon="12.7822627"><ele>1071.6</ele><time>2026-04-19T07:37:27.205Z</time></trkpt><trkpt lat="46.3563724" lon="12.7823767"><ele>1073.0</ele><time>2026-04-19T07:37:28.205Z</time></trkpt><trkpt lat="46.3563148" lon="12.7824764"><ele>1074.8333333333335</ele><time>2026-04-19T07:37:29.205Z</time></trkpt><trkpt lat="46.3562482" lon="12.7825531"><ele>1076.6666666666667</ele><time>2026-04-19T07:37:30.205Z</time></trkpt><trkpt lat="46.3561781" lon="12.7826196"><ele>1078.5</ele><time>2026-04-19T07:37:31.205Z</time></trkpt><trkpt lat="46.3561123" lon="12.7826874"><ele>1080.3333333333333</ele><time>2026-04-19T07:37:32.206Z</time></trkpt><trkpt lat="46.3560376" lon="12.782748"><ele>1082.1666666666665</ele><time>2026-04-19T07:37:33.205Z</time></trkpt><trkpt lat="46.3559729" lon="12.7828132"><ele>1084.0</ele><time>2026-04-19T07:37:34.205Z</time></trkpt><trkpt lat="46.3559117" lon="12.7828886"><ele>1084.0</ele><time>2026-04-19T07:37:35.205Z</time></trkpt><trkpt lat="46.3558591" lon="12.7829609"><ele>1084.0</ele><time>2026-04-19T07:37:36.204Z</time></trkpt><trkpt lat="46.3557815" lon="12.7830528"><ele>1084.0</ele><time>2026-04-19T07:37:38.205Z</time></trkpt><trkpt lat="46.3557274" lon="12.7831346"><ele>1084.0</ele><time>2026-04-19T07:37:40.204Z</time></trkpt><trkpt lat="46.3556624" lon="12.7832131"><ele>1084.0</ele><time>2026-04-19T07:43:30.203Z</time></trkpt><trkpt lat="46.3556114" lon="12.7833227"><ele>1084.0</ele><time>2026-04-19T07:43:31.203Z</time></trkpt><trkpt lat="46.355562" lon="12.7834067"><ele>1086.0</ele><time>2026-04-19T07:43:32.204Z</time></trkpt><trkpt lat="46.3555033" lon="12.7835017"><ele>1088.0</ele><time>2026-04-19T07:43:33.204Z</time></trkpt><trkpt lat="46.3554412" lon="12.7835952"><ele>1090.0</ele><time>2026-04-19T07:43:34.204Z</time></trkpt><trkpt lat="46.3553803" lon="12.7836901"><ele>1092.0</ele><time>2026-04-19T07:43:35.204Z</time></trkpt><trkpt lat="46.3553059" lon="12.7837812"><ele>1094.0</ele><time>2026-04-19T07:43:36.203Z</time></trkpt><trkpt lat="46.3552305" lon="12.7838687"><ele>1092.4</ele><time>2026-04-19T07:43:37.205Z</time></trkpt><trkpt lat="46.3551561" lon="12.7839627"><ele>1090.8000000000002</ele><time>2026-04-19T07:43:38.205Z</time></trkpt><trkpt lat="46.3550777" lon="12.784061"><ele>1089.1999999999998</ele><time>2026-04-19T07:43:39.204Z</time></trkpt><trkpt lat="46.3549962" lon="12.7841722"><ele>1087.6</ele><time>2026-04-19T07:43:40.204Z</time></trkpt><trkpt lat="46.3549128" lon="12.7842802"><ele>1086.0</ele><time>2026-04-19T07:43:41.203Z</time></trkpt><trkpt lat="46.3548245" lon="12.784391"><ele>1086.0</ele><time>2026-04-19T07:43:42.204Z</time></trkpt><trkpt lat="46.3547372" lon="12.7845005"><ele>1086.0</ele><time>2026-04-19T07:43:43.204Z</time></trkpt><trkpt lat="46.3546606" lon="12.7846072"><ele>1086.0</ele><time>2026-04-19T07:43:44.205Z</time></trkpt><trkpt lat="46.354589" lon="12.7847136"><ele>1086.0</ele><time>2026-04-19T07:43:45.203Z</time></trkpt><trkpt lat="46.3545446" lon="12.7848446"><ele>1086.0</ele><time>2026-04-19T07:43:46.204Z</time></trkpt><trkpt lat="46.3545064" lon="12.7849707"><ele>1083.5</ele><time>2026-04-19T07:43:47.204Z</time></trkpt><trkpt lat="46.354476" lon="12.7851154"><ele>1081.0</ele><time>2026-04-19T07:43:48.204Z</time></trkpt><trkpt lat="46.3544505" lon="12.785246"><ele>1078.5</ele><time>2026-04-19T07:43:49.204Z</time></trkpt><trkpt lat="46.3544334" lon="12.7854235"><ele>1076.0</ele><time>2026-04-19T07:43:50.204Z</time></trkpt><trkpt lat="46.3544149" lon="12.7856141"><ele>1071.5</ele><time>2026-04-19T07:43:51.204Z</time></trkpt><trkpt lat="46.3543826" lon="12.7857877"><ele>1067.0</ele><time>2026-04-19T07:43:52.205Z</time></trkpt><trkpt lat="46.3543449" lon="12.7859645"><ele>1062.5</ele><time>2026-04-19T07:43:53.203Z</time></trkpt><trkpt lat="46.3542938" lon="12.7861261"><ele>1058.0</ele><time>2026-04-19T07:43:54.203Z</time></trkpt><trkpt lat="46.3542362" lon="12.7862812"><ele>1056.0</ele><time>2026-04-19T07:43:55.203Z</time></trkpt><trkpt lat="46.3541777" lon="12.7864305"><ele>1054.0</ele><time>2026-04-19T07:43:56.204Z</time></trkpt><trkpt lat="46.35412" lon="12.7865839"><ele>1052.0</ele><time>2026-04-19T07:43:57.204Z</time></trkpt><trkpt lat="46.3540621" lon="12.7867309"><ele>1050.0</ele><time>2026-04-19T07:43:58.203Z</time></trkpt><trkpt lat="46.3540092" lon="12.7868672"><ele>1050.0</ele><time>2026-04-19T07:43:59.204Z</time></trkpt><trkpt lat="46.3539496" lon="12.7870016"><ele>1050.0</ele><time>2026-04-19T07:44:00.204Z</time></trkpt><trkpt lat="46.3538748" lon="12.7870979"><ele>1050.0</ele><time>2026-04-19T07:44:01.204Z</time></trkpt><trkpt lat="46.3537875" lon="12.78715"><ele>1050.0</ele><time>2026-04-19T07:44:02.204Z</time></trkpt><trkpt lat="46.3536943" lon="12.7871549"><ele>1050.0</ele><time>2026-04-19T07:44:03.204Z</time></trkpt><trkpt lat="46.3536092" lon="12.7871284"><ele>1048.8333333333333</ele><time>2026-04-19T07:44:04.204Z</time></trkpt><trkpt lat="46.3535269" lon="12.7871028"><ele>1047.6666666666667</ele><time>2026-04-19T07:44:05.203Z</time></trkpt><trkpt lat="46.3534398" lon="12.787083"><ele>1046.5</ele><time>2026-04-19T07:44:06.203Z</time></trkpt><trkpt lat="46.353349" lon="12.7870683"><ele>1045.3333333333335</ele><time>2026-04-19T07:44:07.204Z</time></trkpt><trkpt lat="46.353258" lon="12.787056"><ele>1044.1666666666667</ele><time>2026-04-19T07:44:08.205Z</time></trkpt><trkpt lat="46.3531696" lon="12.7870627"><ele>1043.0</ele><time>2026-04-19T07:44:09.204Z</time></trkpt><trkpt lat="46.3530748" lon="12.7870996"><ele>1042.0</ele><time>2026-04-19T07:44:10.203Z</time></trkpt><trkpt lat="46.3529792" lon="12.7871513"><ele>1041.0</ele><time>2026-04-19T07:44:11.204Z</time></trkpt><trkpt lat="46.3528823" lon="12.7872161"><ele>1040.0</ele><time>2026-04-19T07:44:12.204Z</time></trkpt><trkpt lat="46.3527834" lon="12.7872919"><ele>1039.0</ele><time>2026-04-19T07:44:13.204Z</time></trkpt><trkpt lat="46.3526797" lon="12.7873793"><ele>1038.0</ele><time>2026-04-19T07:44:14.203Z</time></trkpt><trkpt lat="46.3525753" lon="12.7874691"><ele>1038.0</ele><time>2026-04-19T07:44:15.204Z</time></trkpt><trkpt lat="46.352477" lon="12.7875642"><ele>1038.0</ele><time>2026-04-19T07:44:16.204Z</time></trkpt><trkpt lat="46.3523782" lon="12.7876623"><ele>1038.0</ele><time>2026-04-19T07:44:17.204Z</time></trkpt><trkpt lat="46.3522838" lon="12.7877575"><ele>1038.0</ele><time>2026-04-19T07:44:18.204Z</time></trkpt><trkpt lat="46.3522004" lon="12.7878706"><ele>1032.25</ele><time>2026-04-19T07:44:19.204Z</time></trkpt><trkpt lat="46.3521276" lon="12.7879988"><ele>1026.5</ele><time>2026-04-19T07:44:20.203Z</time></trkpt><trkpt lat="46.3520639" lon="12.788144"><ele>1020.75</ele><time>2026-04-19T07:44:21.204Z</time></trkpt><trkpt lat="46.3520041" lon="12.7882865"><ele>1015.0</ele><time>2026-04-19T07:44:22.204Z</time></trkpt><trkpt lat="46.3519565" lon="12.7884213"><ele>1014.9999999999999</ele><time>2026-04-19T07:44:23.204Z</time></trkpt><trkpt lat="46.3519213" lon="12.7885463"><ele>1015.0</ele><time>2026-04-19T07:44:24.204Z</time></trkpt><trkpt lat="46.3518964" lon="12.7886572"><ele>1015.0</ele><time>2026-04-19T07:44:25.204Z</time></trkpt><trkpt lat="46.3518203" lon="12.7887751"><ele>1015.0</ele><time>2026-04-19T07:44:27.204Z</time></trkpt><trkpt lat="46.3517449" lon="12.7886992"><ele>1014.9999999999999</ele><time>2026-04-19T07:44:29.204Z</time></trkpt><trkpt lat="46.3517497" lon="12.7886043"><ele>1015.0</ele><time>2026-04-19T07:44:30.204Z</time></trkpt><trkpt lat="46.3517719" lon="12.7885034"><ele>1015.0</ele><time>2026-04-19T07:44:31.204Z</time></trkpt><trkpt lat="46.3518087" lon="12.7883465"><ele>1015.0</ele><time>2026-04-19T07:44:32.204Z</time></trkpt><trkpt lat="46.3518409" lon="12.7882092"><ele>1015.0</ele><time>2026-04-19T07:44:33.203Z</time></trkpt><trkpt lat="46.3518756" lon="12.7880706"><ele>1015.0</ele><time>2026-04-19T07:44:34.204Z</time></trkpt><trkpt lat="46.3519029" lon="12.7879463"><ele>1015.0</ele><time>2026-04-19T07:44:35.205Z</time></trkpt><trkpt lat="46.3519148" lon="12.7878313"><ele>1014.9999999999999</ele><time>2026-04-19T07:44:36.203Z</time></trkpt><trkpt lat="46.3518999" lon="12.7877244"><ele>1015.0</ele><time>2026-04-19T07:44:37.203Z</time></trkpt><trkpt lat="46.351863" lon="12.7876291"><ele>1015.0</ele><time>2026-04-19T07:44:38.203Z</time></trkpt><trkpt lat="46.3517995" lon="12.7875654"><ele>1015.0</ele><time>2026-04-19T07:44:39.204Z</time></trkpt><trkpt lat="46.3517164" lon="12.7875322"><ele>1014.9999999999999</ele><time>2026-04-19T07:44:40.204Z</time></trkpt><trkpt lat="46.351624" lon="12.787519"><ele>1015.0</ele><time>2026-04-19T07:44:41.204Z</time></trkpt><trkpt lat="46.3515115" lon="12.7875216"><ele>1017.5</ele><time>2026-04-19T07:44:42.203Z</time></trkpt><trkpt lat="46.351398" lon="12.7875288"><ele>1020.0</ele><time>2026-04-19T07:44:43.204Z</time></trkpt><trkpt lat="46.3512832" lon="12.7875394"><ele>1022.5</ele><time>2026-04-19T07:44:44.204Z</time></trkpt><trkpt lat="46.3511646" lon="12.7875533"><ele>1025.0</ele><time>2026-04-19T07:44:45.204Z</time></trkpt><trkpt lat="46.3510414" lon="12.7875693"><ele>1025.0</ele><time>2026-04-19T07:44:46.205Z</time></trkpt><trkpt lat="46.3509129" lon="12.7875944"><ele>1025.0</ele><time>2026-04-19T07:44:47.204Z</time></trkpt><trkpt lat="46.3507883" lon="12.787609"><ele>1025.0</ele><time>2026-04-19T07:44:48.204Z</time></trkpt><trkpt lat="46.3506587" lon="12.787625"><ele>1025.0</ele><time>2026-04-19T07:44:49.204Z</time></trkpt><trkpt lat="46.3505324" lon="12.7876503"><ele>1025.0</ele><time>2026-04-19T07:44:50.204Z</time></trkpt><trkpt lat="46.3503997" lon="12.7876599"><ele>1025.0</ele><time>2026-04-19T07:44:51.203Z</time></trkpt><trkpt lat="46.3502639" lon="12.7876564"><ele>1025.0</ele><time>2026-04-19T07:44:52.203Z</time></trkpt><trkpt lat="46.3501252" lon="12.7876551"><ele>1025.0</ele><time>2026-04-19T07:44:53.204Z</time></trkpt><trkpt lat="46.3499968" lon="12.7876519"><ele>1012.25</ele><time>2026-04-19T07:44:54.204Z</time></trkpt><trkpt lat="46.3498669" lon="12.7876558"><ele>999.5</ele><time>2026-04-19T07:44:55.204Z</time></trkpt><trkpt lat="46.3497393" lon="12.7876733"><ele>986.75</ele><time>2026-04-19T07:44:56.204Z</time></trkpt><trkpt lat="46.3496186" lon="12.7877044"><ele>974.0</ele><time>2026-04-19T07:44:57.204Z</time></trkpt><trkpt lat="46.3494986" lon="12.7877466"><ele>974.0</ele><time>2026-04-19T07:44:58.203Z</time></trkpt><trkpt lat="46.3493766" lon="12.7877889"><ele>974.0</ele><time>2026-04-19T07:44:59.204Z</time></trkpt><trkpt lat="46.3492571" lon="12.7878258"><ele>974.0</ele><time>2026-04-19T07:45:00.204Z</time></trkpt><trkpt lat="46.3491384" lon="12.7878338"><ele>974.0</ele><time>2026-04-19T07:45:01.204Z</time></trkpt><trkpt lat="46.3490247" lon="12.7878027"><ele>974.0</ele><time>2026-04-19T07:45:02.204Z</time></trkpt><trkpt lat="46.3489132" lon="12.7877833"><ele>974.0000000000001</ele><time>2026-04-19T07:45:03.203Z</time></trkpt><trkpt lat="46.3488036" lon="12.7877826"><ele>974.0000000000001</ele><time>2026-04-19T07:45:04.204Z</time></trkpt><trkpt lat="46.348699" lon="12.7877888"><ele>974.0</ele><time>2026-04-19T07:45:05.204Z</time></trkpt><trkpt lat="46.3486147" lon="12.7878088"><ele>974.0</ele><time>2026-04-19T07:45:06.204Z</time></trkpt><trkpt lat="46.3485429" lon="12.7878328"><ele>973.0000000000001</ele><time>2026-04-19T07:45:07.204Z</time></trkpt><trkpt lat="46.3484765" lon="12.78785"><ele>972.0</ele><time>2026-04-19T07:45:08.204Z</time></trkpt><trkpt lat="46.3484102" lon="12.7878597"><ele>971.0</ele><time>2026-04-19T07:45:09.205Z</time></trkpt><trkpt lat="46.3482928" lon="12.7878818"><ele>970.0</ele><time>2026-04-19T07:45:11.204Z</time></trkpt><trkpt lat="46.3482405" lon="12.7879827"><ele>969.0000000000001</ele><time>2026-04-19T07:45:13.204Z</time></trkpt><trkpt lat="46.3482963" lon="12.788036"><ele>968.0</ele><time>2026-04-19T07:45:15.204Z</time></trkpt><trkpt lat="46.3483862" lon="12.788014"><ele>968.0</ele><time>2026-04-19T07:45:16.204Z</time></trkpt><trkpt lat="46.3485286" lon="12.7880113"><ele>968.0</ele><time>2026-04-19T07:45:17.203Z</time></trkpt><trkpt lat="46.3486497" lon="12.7879985"><ele>968.0</ele><time>2026-04-19T07:45:18.203Z</time></trkpt><trkpt lat="46.3487709" lon="12.7880095"><ele>968.0</ele><time>2026-04-19T07:45:19.202Z</time></trkpt><trkpt lat="46.3488683" lon="12.7880377"><ele>969.0000000000001</ele><time>2026-04-19T07:45:20.202Z</time></trkpt><trkpt lat="46.3489401" lon="12.7880931"><ele>970.0</ele><time>2026-04-19T07:45:21.203Z</time></trkpt><trkpt lat="46.3490003" lon="12.7881693"><ele>971.0</ele><time>2026-04-19T07:45:22.202Z</time></trkpt><trkpt lat="46.3490602" lon="12.7882273"><ele>972.0</ele><time>2026-04-19T07:45:23.204Z</time></trkpt><trkpt lat="46.3491484" lon="12.7882283"><ele>973.0000000000001</ele><time>2026-04-19T07:45:24.203Z</time></trkpt><trkpt lat="46.34925" lon="12.7882411"><ele>974.0</ele><time>2026-04-19T07:45:25.203Z</time></trkpt><trkpt lat="46.3493725" lon="12.7882333"><ele>974.0</ele><time>2026-04-19T07:45:26.203Z</time></trkpt><trkpt lat="46.3495062" lon="12.7882285"><ele>974.0</ele><time>2026-04-19T07:45:27.203Z</time></trkpt><trkpt lat="46.34963" lon="12.7882357"><ele>974.0</ele><time>2026-04-19T07:45:28.204Z</time></trkpt><trkpt lat="46.3497522" lon="12.7882561"><ele>974.0</ele><time>2026-04-19T07:45:29.203Z</time></trkpt><trkpt lat="46.3498557" lon="12.7882758"><ele>974.0000000000001</ele><time>2026-04-19T07:45:30.202Z</time></trkpt><trkpt lat="46.3499399" lon="12.7882903"><ele>974.0</ele><time>2026-04-19T07:45:31.203Z</time></trkpt><trkpt lat="46.3500076" lon="12.7883073"><ele>974.0</ele><time>2026-04-19T07:45:32.203Z</time></trkpt><trkpt lat="46.350044" lon="12.7883958"><ele>974.0</ele><time>2026-04-19T07:45:34.203Z</time></trkpt><trkpt lat="46.3499875" lon="12.7884517"><ele>974.0000000000001</ele><time>2026-04-19T07:45:36.203Z</time></trkpt><trkpt lat="46.3498683" lon="12.7884763"><ele>974.0</ele><time>2026-04-19T07:45:38.203Z</time></trkpt><trkpt lat="46.3496842" lon="12.7884434"><ele>974.0</ele><time>2026-04-19T07:45:39.203Z</time></trkpt><trkpt lat="46.3495656" lon="12.788486"><ele>974.0</ele><time>2026-04-19T07:45:40.202Z</time></trkpt><trkpt lat="46.3494361" lon="12.7885448"><ele>974.0</ele><time>2026-04-19T07:45:41.203Z</time></trkpt><trkpt lat="46.349307" lon="12.788616"><ele>974.0</ele><time>2026-04-19T07:45:42.202Z</time></trkpt><trkpt lat="46.3491875" lon="12.7886813"><ele>968.4000000000001</ele><time>2026-04-19T07:45:43.203Z</time></trkpt><trkpt lat="46.3490865" lon="12.7887229"><ele>962.8000000000001</ele><time>2026-04-19T07:45:44.203Z</time></trkpt><trkpt lat="46.3489872" lon="12.7887467"><ele>957.1999999999999</ele><time>2026-04-19T07:45:45.204Z</time></trkpt><trkpt lat="46.3488796" lon="12.7886987"><ele>951.5999999999999</ele><time>2026-04-19T07:45:46.203Z</time></trkpt><trkpt lat="46.3487556" lon="12.788674"><ele>946.0</ele><time>2026-04-19T07:45:47.202Z</time></trkpt><trkpt lat="46.3486339" lon="12.7886741"><ele>944.0</ele><time>2026-04-19T07:45:48.203Z</time></trkpt><trkpt lat="46.3485134" lon="12.7886759"><ele>941.9999999999999</ele><time>2026-04-19T07:45:49.203Z</time></trkpt><trkpt lat="46.3484031" lon="12.7886728"><ele>939.9999999999999</ele><time>2026-04-19T07:45:50.203Z</time></trkpt><trkpt lat="46.3482996" lon="12.7886749"><ele>938.0</ele><time>2026-04-19T07:45:51.203Z</time></trkpt><trkpt lat="46.3482005" lon="12.7886757"><ele>936.0</ele><time>2026-04-19T07:45:52.203Z</time></trkpt><trkpt lat="46.348104" lon="12.7886739"><ele>934.1999999999999</ele><time>2026-04-19T07:45:53.203Z</time></trkpt><trkpt lat="46.3480111" lon="12.7886655"><ele>932.3999999999999</ele><time>2026-04-19T07:45:54.203Z</time></trkpt><trkpt lat="46.3479086" lon="12.7886658"><ele>930.6</ele><time>2026-04-19T07:45:55.203Z</time></trkpt><trkpt lat="46.3478006" lon="12.7886663"><ele>928.8</ele><time>2026-04-19T07:45:56.202Z</time></trkpt><trkpt lat="46.3477002" lon="12.788676"><ele>927.0</ele><time>2026-04-19T07:45:57.204Z</time></trkpt><trkpt lat="46.3476134" lon="12.7886809"><ele>927.0</ele><time>2026-04-19T07:45:58.202Z</time></trkpt><trkpt lat="46.3475468" lon="12.7886873"><ele>927.0</ele><time>2026-04-19T07:45:59.203Z</time></trkpt><trkpt lat="46.347445" lon="12.7887351"><ele>927.0</ele><time>2026-04-19T07:46:01.203Z</time></trkpt><trkpt lat="46.347425" lon="12.7888615"><ele>927.0</ele><time>2026-04-19T07:46:03.202Z</time></trkpt><trkpt lat="46.3475495" lon="12.7888239"><ele>927.0</ele><time>2026-04-19T07:46:05.202Z</time></trkpt><trkpt lat="46.3476389" lon="12.7888009"><ele>927.0</ele><time>2026-04-19T07:46:06.203Z</time></trkpt><trkpt lat="46.3477467" lon="12.7887937"><ele>927.0</ele><time>2026-04-19T07:46:07.202Z</time></trkpt><trkpt lat="46.3478589" lon="12.7888269"><ele>927.0</ele><time>2026-04-19T07:46:08.202Z</time></trkpt><trkpt lat="46.3479843" lon="12.7888857"><ele>927.0</ele><time>2026-04-19T07:46:09.203Z</time></trkpt><trkpt lat="46.3481135" lon="12.7889549"><ele>929.25</ele><time>2026-04-19T07:46:10.203Z</time></trkpt><trkpt lat="46.34824" lon="12.7890135"><ele>931.5</ele><time>2026-04-19T07:46:11.203Z</time></trkpt><trkpt lat="46.3483617" lon="12.7890693"><ele>933.75</ele><time>2026-04-19T07:46:12.202Z</time></trkpt><trkpt lat="46.3484702" lon="12.7891167"><ele>936.0</ele><time>2026-04-19T07:46:13.203Z</time></trkpt><trkpt lat="46.3485575" lon="12.7891626"><ele>936.0</ele><time>2026-04-19T07:46:14.204Z</time></trkpt><trkpt lat="46.3486288" lon="12.7892119"><ele>936.0</ele><time>2026-04-19T07:46:15.203Z</time></trkpt><trkpt lat="46.3486801" lon="12.7893379"><ele>936.0</ele><time>2026-04-19T07:46:17.203Z</time></trkpt><trkpt lat="46.3486198" lon="12.7894027"><ele>936.0</ele><time>2026-04-19T07:46:19.203Z</time></trkpt><trkpt lat="46.3485593" lon="12.7893699"><ele>936.0</ele><time>2026-04-19T07:46:20.203Z</time></trkpt><trkpt lat="46.3484834" lon="12.7892944"><ele>936.0</ele><time>2026-04-19T07:46:21.203Z</time></trkpt><trkpt lat="46.348384" lon="12.789252"><ele>936.0</ele><time>2026-04-19T07:46:22.203Z</time></trkpt><trkpt lat="46.3482611" lon="12.7892355"><ele>936.0</ele><time>2026-04-19T07:46:23.203Z</time></trkpt><trkpt lat="46.3481259" lon="12.7892262"><ele>936.0</ele><time>2026-04-19T07:46:24.203Z</time></trkpt><trkpt lat="46.3479828" lon="12.7892233"><ele>936.0</ele><time>2026-04-19T07:46:25.202Z</time></trkpt><trkpt lat="46.3478276" lon="12.7892192"><ele>933.75</ele><time>2026-04-19T07:46:26.203Z</time></trkpt><trkpt lat="46.3476848" lon="12.7891838"><ele>931.5</ele><time>2026-04-19T07:46:27.203Z</time></trkpt><trkpt lat="46.347565" lon="12.7891714"><ele>929.25</ele><time>2026-04-19T07:46:28.203Z</time></trkpt><trkpt lat="46.3474622" lon="12.7891236"><ele>927.0</ele><time>2026-04-19T07:46:29.202Z</time></trkpt><trkpt lat="46.3473606" lon="12.7891101"><ele>927.0</ele><time>2026-04-19T07:46:30.203Z</time></trkpt><trkpt lat="46.3472629" lon="12.7891275"><ele>927.0</ele><time>2026-04-19T07:46:31.203Z</time></trkpt><trkpt lat="46.3471493" lon="12.7891468"><ele>927.0</ele><time>2026-04-19T07:46:32.202Z</time></trkpt><trkpt lat="46.3470238" lon="12.789151"><ele>927.0</ele><time>2026-04-19T07:46:33.203Z</time></trkpt><trkpt lat="46.346902" lon="12.7891945"><ele>929.75</ele><time>2026-04-19T07:46:34.204Z</time></trkpt><trkpt lat="46.3467759" lon="12.7892515"><ele>932.5</ele><time>2026-04-19T07:46:35.202Z</time></trkpt><trkpt lat="46.3466567" lon="12.7893205"><ele>935.25</ele><time>2026-04-19T07:46:36.203Z</time></trkpt><trkpt lat="46.346535" lon="12.7893716"><ele>938.0</ele><time>2026-04-19T07:46:37.203Z</time></trkpt><trkpt lat="46.346435" lon="12.7893872"><ele>932.75</ele><time>2026-04-19T07:46:38.202Z</time></trkpt><trkpt lat="46.3463467" lon="12.7894024"><ele>927.5</ele><time>2026-04-19T07:46:39.203Z</time></trkpt><trkpt lat="46.3462722" lon="12.7894092"><ele>922.25</ele><time>2026-04-19T07:46:40.203Z</time></trkpt><trkpt lat="46.3462268" lon="12.7895252"><ele>917.0</ele><time>2026-04-19T07:46:42.203Z</time></trkpt><trkpt lat="46.3464749" lon="12.789451"><ele>911.0</ele><time>2026-04-19T07:46:46.203Z</time></trkpt><trkpt lat="46.3465975" lon="12.7894403"><ele>905.0</ele><time>2026-04-19T07:46:47.203Z</time></trkpt><trkpt lat="46.3467154" lon="12.7894525"><ele>899.0</ele><time>2026-04-19T07:46:48.202Z</time></trkpt><trkpt lat="46.3468235" lon="12.7894464"><ele>893.0</ele><time>2026-04-19T07:46:49.203Z</time></trkpt><trkpt lat="46.3469243" lon="12.7894363"><ele>893.0</ele><time>2026-04-19T07:46:50.203Z</time></trkpt><trkpt lat="46.3470249" lon="12.7894513"><ele>893.0</ele><time>2026-04-19T07:46:51.202Z</time></trkpt><trkpt lat="46.3471288" lon="12.789511"><ele>893.0</ele><time>2026-04-19T07:46:52.203Z</time></trkpt><trkpt lat="46.3472369" lon="12.7895806"><ele>893.0</ele><time>2026-04-19T07:46:53.203Z</time></trkpt><trkpt lat="46.3473481" lon="12.7896568"><ele>893.5999999999999</ele><time>2026-04-19T07:46:54.203Z</time></trkpt><trkpt lat="46.347458" lon="12.7897284"><ele>894.1999999999999</ele><time>2026-04-19T07:46:55.203Z</time></trkpt><trkpt lat="46.3475603" lon="12.7897919"><ele>894.8</ele><time>2026-04-19T07:46:56.203Z</time></trkpt><trkpt lat="46.3476562" lon="12.7898491"><ele>895.4</ele><time>2026-04-19T07:46:57.203Z</time></trkpt><trkpt lat="46.3477345" lon="12.789885"><ele>896.0</ele><time>2026-04-19T07:46:58.204Z</time></trkpt><trkpt lat="46.3478034" lon="12.7899214"><ele>896.0</ele><time>2026-04-19T07:46:59.203Z</time></trkpt><trkpt lat="46.3478526" lon="12.7900212"><ele>895.9999999999999</ele><time>2026-04-19T07:47:01.204Z</time></trkpt><trkpt lat="46.3477918" lon="12.7900776"><ele>895.9999999999999</ele><time>2026-04-19T07:47:03.203Z</time></trkpt><trkpt lat="46.3476452" lon="12.7899987"><ele>896.0</ele><time>2026-04-19T07:47:05.202Z</time></trkpt><trkpt lat="46.3475433" lon="12.7899492"><ele>896.0</ele><time>2026-04-19T07:47:06.203Z</time></trkpt><trkpt lat="46.3474281" lon="12.7899041"><ele>896.0</ele><time>2026-04-19T07:47:07.203Z</time></trkpt><trkpt lat="46.3473172" lon="12.7898713"><ele>895.9999999999999</ele><time>2026-04-19T07:47:08.202Z</time></trkpt><trkpt lat="46.3472185" lon="12.7898495"><ele>895.9999999999999</ele><time>2026-04-19T07:47:09.203Z</time></trkpt><trkpt lat="46.3471169" lon="12.789856"><ele>896.0</ele><time>2026-04-19T07:47:10.203Z</time></trkpt><trkpt lat="46.3470111" lon="12.7898953"><ele>896.0</ele><time>2026-04-19T07:47:11.203Z</time></trkpt><trkpt lat="46.3469454" lon="12.7899719"><ele>895.4</ele><time>2026-04-19T07:47:12.202Z</time></trkpt><trkpt lat="46.3468624" lon="12.7900337"><ele>894.8</ele><time>2026-04-19T07:47:13.203Z</time></trkpt><trkpt lat="46.3467737" lon="12.7900782"><ele>894.1999999999999</ele><time>2026-04-19T07:47:14.202Z</time></trkpt><trkpt lat="46.346681" lon="12.7900729"><ele>893.5999999999999</ele><time>2026-04-19T07:47:15.203Z</time></trkpt><trkpt lat="46.3465852" lon="12.7900887"><ele>893.0</ele><time>2026-04-19T07:47:16.203Z</time></trkpt><trkpt lat="46.3464842" lon="12.7901203"><ele>889.75</ele><time>2026-04-19T07:47:17.203Z</time></trkpt><trkpt lat="46.3463781" lon="12.7902041"><ele>886.5</ele><time>2026-04-19T07:47:18.203Z</time></trkpt><trkpt lat="46.3462503" lon="12.790254"><ele>883.25</ele><time>2026-04-19T07:47:19.203Z</time></trkpt><trkpt lat="46.3461235" lon="12.7903237"><ele>880.0</ele><time>2026-04-19T07:47:20.203Z</time></trkpt><trkpt lat="46.3459785" lon="12.7904169"><ele>880.0</ele><time>2026-04-19T07:47:21.203Z</time></trkpt><trkpt lat="46.345855" lon="12.7905203"><ele>880.0</ele><time>2026-04-19T07:47:22.202Z</time></trkpt><trkpt lat="46.3457293" lon="12.790615"><ele>880.0</ele><time>2026-04-19T07:47:23.203Z</time></trkpt><trkpt lat="46.3456095" lon="12.7907007"><ele>880.0</ele><time>2026-04-19T07:47:24.203Z</time></trkpt><trkpt lat="46.3454975" lon="12.7908008"><ele>876.0</ele><time>2026-04-19T07:47:25.203Z</time></trkpt><trkpt lat="46.3454026" lon="12.7909093"><ele>872.0</ele><time>2026-04-19T07:47:26.202Z</time></trkpt><trkpt lat="46.3453166" lon="12.791033"><ele>868.0</ele><time>2026-04-19T07:47:27.203Z</time></trkpt><trkpt lat="46.3452147" lon="12.7911326"><ele>864.0</ele><time>2026-04-19T07:47:28.202Z</time></trkpt><trkpt lat="46.345109" lon="12.7912267"><ele>864.0</ele><time>2026-04-19T07:47:29.203Z</time></trkpt><trkpt lat="46.3450119" lon="12.7913217"><ele>864.0</ele><time>2026-04-19T07:47:30.203Z</time></trkpt><trkpt lat="46.3449168" lon="12.7914247"><ele>864.0</ele><time>2026-04-19T07:47:31.203Z</time></trkpt><trkpt lat="46.344827" lon="12.7915289"><ele>864.0</ele><time>2026-04-19T07:47:32.202Z</time></trkpt><trkpt lat="46.3447233" lon="12.7916201"><ele>861.5</ele><time>2026-04-19T07:47:33.204Z</time></trkpt><trkpt lat="46.3446115" lon="12.7916995"><ele>859.0</ele><time>2026-04-19T07:47:34.202Z</time></trkpt><trkpt lat="46.3445057" lon="12.7917844"><ele>856.5</ele><time>2026-04-19T07:47:35.203Z</time></trkpt><trkpt lat="46.3444023" lon="12.7918576"><ele>854.0</ele><time>2026-04-19T07:47:36.203Z</time></trkpt><trkpt lat="46.3443064" lon="12.7919252"><ele>854.0</ele><time>2026-04-19T07:47:37.203Z</time></trkpt><trkpt lat="46.3442224" lon="12.7919746"><ele>854.0000000000001</ele><time>2026-04-19T07:47:38.203Z</time></trkpt><trkpt lat="46.3441262" lon="12.7920115"><ele>854.0000000000001</ele><time>2026-04-19T07:47:39.204Z</time></trkpt><trkpt lat="46.3440201" lon="12.7920202"><ele>854.0</ele><time>2026-04-19T07:47:40.203Z</time></trkpt><trkpt lat="46.3439023" lon="12.7920329"><ele>854.0</ele><time>2026-04-19T07:47:41.203Z</time></trkpt><trkpt lat="46.3437834" lon="12.7920812"><ele>858.0</ele><time>2026-04-19T07:47:42.203Z</time></trkpt><trkpt lat="46.3436599" lon="12.7921576"><ele>862.0</ele><time>2026-04-19T07:47:43.203Z</time></trkpt><trkpt lat="46.343539" lon="12.7922571"><ele>866.0</ele><time>2026-04-19T07:47:44.202Z</time></trkpt><trkpt lat="46.3434118" lon="12.7923667"><ele>870.0</ele><time>2026-04-19T07:47:45.203Z</time></trkpt><trkpt lat="46.3432762" lon="12.7924596"><ele>870.0</ele><time>2026-04-19T07:47:46.203Z</time></trkpt><trkpt lat="46.3431496" lon="12.7925452"><ele>870.0</ele><time>2026-04-19T07:47:47.203Z</time></trkpt><trkpt lat="46.3430395" lon="12.7926302"><ele>870.0</ele><time>2026-04-19T07:47:48.203Z</time></trkpt><trkpt lat="46.3429415" lon="12.7927044"><ele>870.0</ele><time>2026-04-19T07:47:49.202Z</time></trkpt><trkpt lat="46.3428655" lon="12.7927712"><ele>863.8</ele><time>2026-04-19T07:47:50.202Z</time></trkpt><trkpt lat="46.3427908" lon="12.7928265"><ele>857.6</ele><time>2026-04-19T07:47:51.203Z</time></trkpt><trkpt lat="46.3426918" lon="12.7928745"><ele>851.4000000000001</ele><time>2026-04-19T07:47:52.202Z</time></trkpt><trkpt lat="46.3425876" lon="12.7929043"><ele>845.2</ele><time>2026-04-19T07:47:53.203Z</time></trkpt><trkpt lat="46.3424912" lon="12.7929239"><ele>839.0</ele><time>2026-04-19T07:47:54.203Z</time></trkpt><trkpt lat="46.3424055" lon="12.7929388"><ele>839.0000000000001</ele><time>2026-04-19T07:47:55.203Z</time></trkpt><trkpt lat="46.3423424" lon="12.7929212"><ele>839.0</ele><time>2026-04-19T07:47:56.202Z</time></trkpt><trkpt lat="46.342279" lon="12.7928885"><ele>839.0</ele><time>2026-04-19T07:47:57.203Z</time></trkpt><trkpt lat="46.3422116" lon="12.7928385"><ele>839.0</ele><time>2026-04-19T07:47:58.203Z</time></trkpt><trkpt lat="46.3421537" lon="12.7927671"><ele>839.0000000000001</ele><time>2026-04-19T07:47:59.203Z</time></trkpt><trkpt lat="46.3420829" lon="12.7926942"><ele>839.0</ele><time>2026-04-19T07:48:00.203Z</time></trkpt><trkpt lat="46.34199" lon="12.7926145"><ele>841.6</ele><time>2026-04-19T07:48:01.203Z</time></trkpt><trkpt lat="46.3418894" lon="12.792601"><ele>844.2</ele><time>2026-04-19T07:48:02.202Z</time></trkpt><trkpt lat="46.3418016" lon="12.7925474"><ele>846.8000000000001</ele><time>2026-04-19T07:48:03.202Z</time></trkpt><trkpt lat="46.3417297" lon="12.7925127"><ele>849.4000000000001</ele><time>2026-04-19T07:48:04.202Z</time></trkpt><trkpt lat="46.3416656" lon="12.7924532"><ele>852.0</ele><time>2026-04-19T07:48:05.204Z</time></trkpt><trkpt lat="46.3415856" lon="12.7923353"><ele>852.0</ele><time>2026-04-19T07:48:06.203Z</time></trkpt><trkpt lat="46.3415146" lon="12.7922268"><ele>852.0</ele><time>2026-04-19T07:48:07.203Z</time></trkpt><trkpt lat="46.3414481" lon="12.7921189"><ele>852.0</ele><time>2026-04-19T07:48:08.203Z</time></trkpt><trkpt lat="46.3413878" lon="12.7920067"><ele>852.0</ele><time>2026-04-19T07:48:09.203Z</time></trkpt><trkpt lat="46.3413512" lon="12.7918631"><ele>852.0</ele><time>2026-04-19T07:48:10.202Z</time></trkpt><trkpt lat="46.3413216" lon="12.7917248"><ele>852.0</ele><time>2026-04-19T07:48:11.203Z</time></trkpt><trkpt lat="46.3412829" lon="12.791598"><ele>852.0</ele><time>2026-04-19T07:48:12.202Z</time></trkpt><trkpt lat="46.3412198" lon="12.7915119"><ele>852.0</ele><time>2026-04-19T07:48:13.203Z</time></trkpt><trkpt lat="46.3411454" lon="12.7914756"><ele>852.0</ele><time>2026-04-19T07:48:14.203Z</time></trkpt><trkpt lat="46.3410609" lon="12.7914921"><ele>852.0</ele><time>2026-04-19T07:48:15.203Z</time></trkpt><trkpt lat="46.3409745" lon="12.7915462"><ele>852.0</ele><time>2026-04-19T07:48:16.203Z</time></trkpt><trkpt lat="46.3408855" lon="12.791607"><ele>852.0</ele><time>2026-04-19T07:48:17.202Z</time></trkpt><trkpt lat="46.3407935" lon="12.7916487"><ele>852.0</ele><time>2026-04-19T07:48:18.203Z</time></trkpt><trkpt lat="46.3407015" lon="12.7916664"><ele>852.0</ele><time>2026-04-19T07:48:19.203Z</time></trkpt><trkpt lat="46.3406082" lon="12.7916478"><ele>852.0</ele><time>2026-04-19T07:48:20.203Z</time></trkpt><trkpt lat="46.3404995" lon="12.7916015"><ele>852.0</ele><time>2026-04-19T07:48:21.203Z</time></trkpt><trkpt lat="46.3403875" lon="12.7915246"><ele>847.5</ele><time>2026-04-19T07:48:22.204Z</time></trkpt><trkpt lat="46.3402761" lon="12.7914506"><ele>843.0</ele><time>2026-04-19T07:48:23.202Z</time></trkpt><trkpt lat="46.3401673" lon="12.7913834"><ele>838.5</ele><time>2026-04-19T07:48:24.202Z</time></trkpt><trkpt lat="46.3400622" lon="12.7913134"><ele>834.0</ele><time>2026-04-19T07:48:25.203Z</time></trkpt><trkpt lat="46.3399626" lon="12.7912428"><ele>834.0</ele><time>2026-04-19T07:48:26.203Z</time></trkpt><trkpt lat="46.3398747" lon="12.7911827"><ele>834.0</ele><time>2026-04-19T07:48:27.204Z</time></trkpt><trkpt lat="46.3398053" lon="12.7911334"><ele>834.0</ele><time>2026-04-19T07:48:28.203Z</time></trkpt><trkpt lat="46.3397093" lon="12.7911513"><ele>834.0</ele><time>2026-04-19T07:48:30.202Z</time></trkpt><trkpt lat="46.3397027" lon="12.7912628"><ele>834.0</ele><time>2026-04-19T07:48:32.203Z</time></trkpt><trkpt lat="46.3398782" lon="12.79139"><ele>834.0</ele><time>2026-04-19T07:48:34.204Z</time></trkpt><trkpt lat="46.3399789" lon="12.7914888"><ele>834.0</ele><time>2026-04-19T07:48:35.202Z</time></trkpt><trkpt lat="46.3400771" lon="12.7916333"><ele>834.0</ele><time>2026-04-19T07:48:36.202Z</time></trkpt><trkpt lat="46.3401632" lon="12.7917753"><ele>834.0</ele><time>2026-04-19T07:48:37.203Z</time></trkpt><trkpt lat="46.3402571" lon="12.7919118"><ele>832.4000000000001</ele><time>2026-04-19T07:48:38.203Z</time></trkpt><trkpt lat="46.3403409" lon="12.7920347"><ele>830.8</ele><time>2026-04-19T07:48:39.203Z</time></trkpt><trkpt lat="46.3404156" lon="12.792137"><ele>829.2</ele><time>2026-04-19T07:48:40.202Z</time></trkpt><trkpt lat="46.3404902" lon="12.7922153"><ele>827.5999999999999</ele><time>2026-04-19T07:48:41.202Z</time></trkpt><trkpt lat="46.340568" lon="12.7922782"><ele>826.0</ele><time>2026-04-19T07:48:42.203Z</time></trkpt><trkpt lat="46.3406674" lon="12.7922888"><ele>826.0</ele><time>2026-04-19T07:48:43.203Z</time></trkpt><trkpt lat="46.3407643" lon="12.7923157"><ele>826.0</ele><time>2026-04-19T07:48:44.202Z</time></trkpt><trkpt lat="46.3408659" lon="12.7922942"><ele>826.0</ele><time>2026-04-19T07:48:45.203Z</time></trkpt><trkpt lat="46.3409628" lon="12.7923167"><ele>826.0</ele><time>2026-04-19T07:48:46.203Z</time></trkpt><trkpt lat="46.3410453" lon="12.7923872"><ele>826.0</ele><time>2026-04-19T07:48:47.203Z</time></trkpt><trkpt lat="46.3411109" lon="12.7925013"><ele>826.0</ele><time>2026-04-19T07:48:48.202Z</time></trkpt><trkpt lat="46.3411778" lon="12.79264"><ele>826.0</ele><time>2026-04-19T07:48:49.203Z</time></trkpt><trkpt lat="46.3412294" lon="12.7927926"><ele>826.0</ele><time>2026-04-19T07:48:50.202Z</time></trkpt><trkpt lat="46.3412819" lon="12.7929306"><ele>826.0</ele><time>2026-04-19T07:48:51.202Z</time></trkpt><trkpt lat="46.3413258" lon="12.7930696"><ele>826.0</ele><time>2026-04-19T07:48:52.202Z</time></trkpt><trkpt lat="46.3413641" lon="12.793201"><ele>826.8</ele><time>2026-04-19T07:48:53.202Z</time></trkpt><trkpt lat="46.3413983" lon="12.7933183"><ele>827.5999999999999</ele><time>2026-04-19T07:48:54.203Z</time></trkpt><trkpt lat="46.3414104" lon="12.7934206"><ele>828.4</ele><time>2026-04-19T07:48:55.203Z</time></trkpt><trkpt lat="46.3414006" lon="12.7935312"><ele>829.2</ele><time>2026-04-19T07:48:56.204Z</time></trkpt><trkpt lat="46.3413293" lon="12.7936747"><ele>830.0</ele><time>2026-04-19T07:48:58.203Z</time></trkpt><trkpt lat="46.3412447" lon="12.7937331"><ele>825.3333333333334</ele><time>2026-04-19T07:49:00.202Z</time></trkpt><trkpt lat="46.3411485" lon="12.7936871"><ele>820.6666666666667</ele><time>2026-04-19T07:49:02.203Z</time></trkpt><trkpt lat="46.3411171" lon="12.79358"><ele>816.0</ele><time>2026-04-19T07:49:03.203Z</time></trkpt><trkpt lat="46.3410942" lon="12.7934616"><ele>811.3333333333333</ele><time>2026-04-19T07:49:04.203Z</time></trkpt><trkpt lat="46.3410624" lon="12.7933383"><ele>806.6666666666666</ele><time>2026-04-19T07:49:05.202Z</time></trkpt><trkpt lat="46.3410138" lon="12.7932265"><ele>802.0</ele><time>2026-04-19T07:49:06.203Z</time></trkpt><trkpt lat="46.3409553" lon="12.7931241"><ele>801.9999999999999</ele><time>2026-04-19T07:49:07.203Z</time></trkpt><trkpt lat="46.340873" lon="12.7930771"><ele>802.0</ele><time>2026-04-19T07:49:08.203Z</time></trkpt><trkpt lat="46.3407898" lon="12.7930361"><ele>802.0</ele><time>2026-04-19T07:49:09.203Z</time></trkpt><trkpt lat="46.3407122" lon="12.7929887"><ele>802.0</ele><time>2026-04-19T07:49:10.203Z</time></trkpt><trkpt lat="46.3406396" lon="12.7929306"><ele>801.9999999999999</ele><time>2026-04-19T07:49:11.203Z</time></trkpt><trkpt lat="46.3405555" lon="12.7928899"><ele>802.0</ele><time>2026-04-19T07:49:12.203Z</time></trkpt><trkpt lat="46.3404564" lon="12.7928842"><ele>798.0</ele><time>2026-04-19T07:49:13.203Z</time></trkpt><trkpt lat="46.3403624" lon="12.7928878"><ele>794.0</ele><time>2026-04-19T07:49:14.203Z</time></trkpt><trkpt lat="46.3402667" lon="12.7928864"><ele>790.0</ele><time>2026-04-19T07:49:15.203Z</time></trkpt><trkpt lat="46.3401717" lon="12.7928762"><ele>786.0</ele><time>2026-04-19T07:49:16.202Z</time></trkpt><trkpt lat="46.3400817" lon="12.7928563"><ele>782.0</ele><time>2026-04-19T07:49:17.203Z</time></trkpt><trkpt lat="46.3399918" lon="12.7928148"><ele>782.0</ele><time>2026-04-19T07:49:18.202Z</time></trkpt><trkpt lat="46.3398902" lon="12.7927412"><ele>782.0</ele><time>2026-04-19T07:49:19.202Z</time></trkpt><trkpt lat="46.3397852" lon="12.7926702"><ele>782.0</ele><time>2026-04-19T07:49:20.203Z</time></trkpt><trkpt lat="46.3396692" lon="12.7925974"><ele>782.0</ele><time>2026-04-19T07:49:21.203Z</time></trkpt><trkpt lat="46.3395583" lon="12.7925243"><ele>780.0</ele><time>2026-04-19T07:49:22.202Z</time></trkpt><trkpt lat="46.3394437" lon="12.7924497"><ele>778.0</ele><time>2026-04-19T07:49:23.203Z</time></trkpt><trkpt lat="46.3393305" lon="12.7923641"><ele>776.0</ele><time>2026-04-19T07:49:24.202Z</time></trkpt><trkpt lat="46.3392218" lon="12.7922887"><ele>774.0</ele><time>2026-04-19T07:49:25.202Z</time></trkpt><trkpt lat="46.3391347" lon="12.7922193"><ele>774.0</ele><time>2026-04-19T07:49:26.203Z</time></trkpt><trkpt lat="46.3390616" lon="12.7921581"><ele>774.0</ele><time>2026-04-19T07:49:27.202Z</time></trkpt><trkpt lat="46.3389911" lon="12.7920813"><ele>774.0</ele><time>2026-04-19T07:49:28.204Z</time></trkpt><trkpt lat="46.338933" lon="12.7919847"><ele>774.0</ele><time>2026-04-19T07:49:29.202Z</time></trkpt><trkpt lat="46.3388832" lon="12.7918771"><ele>774.0</ele><time>2026-04-19T07:49:30.202Z</time></trkpt><trkpt lat="46.3388436" lon="12.791744"><ele>770.0</ele><time>2026-04-19T07:49:31.203Z</time></trkpt><trkpt lat="46.338808" lon="12.7916087"><ele>766.0</ele><time>2026-04-19T07:49:32.204Z</time></trkpt><trkpt lat="46.3387589" lon="12.7914778"><ele>762.0</ele><time>2026-04-19T07:49:33.202Z</time></trkpt><trkpt lat="46.3387116" lon="12.7913604"><ele>758.0</ele><time>2026-04-19T07:49:34.203Z</time></trkpt><trkpt lat="46.3386654" lon="12.7912636"><ele>754.0</ele><time>2026-04-19T07:49:35.203Z</time></trkpt><trkpt lat="46.3386211" lon="12.7911869"><ele>750.0</ele><time>2026-04-19T07:49:36.203Z</time></trkpt><trkpt lat="46.3385258" lon="12.7912082"><ele>750.0</ele><time>2026-04-19T07:49:38.203Z</time></trkpt><trkpt lat="46.3384908" lon="12.7912899"><ele>750.0</ele><time>2026-04-19T07:49:40.202Z</time></trkpt><trkpt lat="46.3385894" lon="12.7914161"><ele>750.0</ele><time>2026-04-19T07:49:41.202Z</time></trkpt><trkpt lat="46.3386485" lon="12.7915365"><ele>750.0</ele><time>2026-04-19T07:49:42.202Z</time></trkpt><trkpt lat="46.3387002" lon="12.7916494"><ele>750.0</ele><time>2026-04-19T07:49:43.203Z</time></trkpt><trkpt lat="46.3387255" lon="12.7917729"><ele>745.4</ele><time>2026-04-19T07:49:44.203Z</time></trkpt><trkpt lat="46.3387546" lon="12.7919247"><ele>740.8</ele><time>2026-04-19T07:49:45.203Z</time></trkpt><trkpt lat="46.338782" lon="12.7920611"><ele>736.2</ele><time>2026-04-19T07:49:46.203Z</time></trkpt><trkpt lat="46.3388115" lon="12.792191"><ele>731.6</ele><time>2026-04-19T07:49:47.203Z</time></trkpt><trkpt lat="46.3388552" lon="12.7923103"><ele>727.0</ele><time>2026-04-19T07:49:48.202Z</time></trkpt><trkpt lat="46.3389073" lon="12.7924315"><ele>731.4000000000001</ele><time>2026-04-19T07:49:49.203Z</time></trkpt><trkpt lat="46.3389784" lon="12.7925453"><ele>735.8000000000001</ele><time>2026-04-19T07:49:50.203Z</time></trkpt><trkpt lat="46.3390449" lon="12.7926643"><ele>740.2</ele><time>2026-04-19T07:49:51.202Z</time></trkpt><trkpt lat="46.3391054" lon="12.7927854"><ele>744.6</ele><time>2026-04-19T07:49:52.203Z</time></trkpt><trkpt lat="46.3391625" lon="12.7929029"><ele>749.0</ele><time>2026-04-19T07:49:53.202Z</time></trkpt><trkpt lat="46.3392228" lon="12.7930165"><ele>749.0</ele><time>2026-04-19T07:49:54.203Z</time></trkpt><trkpt lat="46.3392976" lon="12.7931245"><ele>749.0</ele><time>2026-04-19T07:49:55.203Z</time></trkpt><trkpt lat="46.3393737" lon="12.7932372"><ele>749.0</ele><time>2026-04-19T07:49:56.202Z</time></trkpt><trkpt lat="46.3394647" lon="12.7933442"><ele>749.0</ele><time>2026-04-19T07:49:57.203Z</time></trkpt><trkpt lat="46.3395364" lon="12.793468"><ele>749.0</ele><time>2026-04-19T07:49:58.202Z</time></trkpt><trkpt lat="46.3396019" lon="12.7935968"><ele>748.4000000000001</ele><time>2026-04-19T07:49:59.203Z</time></trkpt><trkpt lat="46.3396713" lon="12.7937207"><ele>747.8</ele><time>2026-04-19T07:50:00.204Z</time></trkpt><trkpt lat="46.3397436" lon="12.7937959"><ele>747.2</ele><time>2026-04-19T07:50:01.203Z</time></trkpt><trkpt lat="46.3398256" lon="12.7938667"><ele>746.5999999999999</ele><time>2026-04-19T07:50:02.202Z</time></trkpt><trkpt lat="46.3399211" lon="12.7938914"><ele>746.0</ele><time>2026-04-19T07:50:03.203Z</time></trkpt><trkpt lat="46.3400172" lon="12.7939234"><ele>746.0</ele><time>2026-04-19T07:50:04.203Z</time></trkpt><trkpt lat="46.3401313" lon="12.7939193"><ele>746.0</ele><time>2026-04-19T07:50:05.203Z</time></trkpt><trkpt lat="46.3402333" lon="12.7939382"><ele>746.0</ele><time>2026-04-19T07:50:06.203Z</time></trkpt><trkpt lat="46.3403341" lon="12.7939846"><ele>746.0</ele><time>2026-04-19T07:50:07.203Z</time></trkpt><trkpt lat="46.3404202" lon="12.79406"><ele>746.0</ele><time>2026-04-19T07:50:08.202Z</time></trkpt><trkpt lat="46.3405079" lon="12.7941491"><ele>744.5</ele><time>2026-04-19T07:50:09.202Z</time></trkpt><trkpt lat="46.3406093" lon="12.7942335"><ele>743.0</ele><time>2026-04-19T07:50:10.203Z</time></trkpt><trkpt lat="46.3407197" lon="12.7943269"><ele>741.5</ele><time>2026-04-19T07:50:11.203Z</time></trkpt><trkpt lat="46.3408145" lon="12.79444"><ele>740.0</ele><time>2026-04-19T07:50:12.203Z</time></trkpt><trkpt lat="46.3409076" lon="12.7945519"><ele>740.0</ele><time>2026-04-19T07:50:13.204Z</time></trkpt><trkpt lat="46.3409967" lon="12.7946621"><ele>740.0</ele><time>2026-04-19T07:50:14.203Z</time></trkpt><trkpt lat="46.3410765" lon="12.7947623"><ele>740.0</ele><time>2026-04-19T07:50:15.203Z</time></trkpt><trkpt lat="46.3411586" lon="12.7948529"><ele>740.0</ele><time>2026-04-19T07:50:16.203Z</time></trkpt><trkpt lat="46.3412428" lon="12.7949277"><ele>740.0</ele><time>2026-04-19T07:50:17.202Z</time></trkpt><trkpt lat="46.3413265" lon="12.7949443"><ele>742.2</ele><time>2026-04-19T07:50:18.203Z</time></trkpt><trkpt lat="46.3414131" lon="12.7949771"><ele>744.4</ele><time>2026-04-19T07:50:19.203Z</time></trkpt><trkpt lat="46.3414976" lon="12.7949927"><ele>746.5999999999999</ele><time>2026-04-19T07:50:20.202Z</time></trkpt><trkpt lat="46.3415912" lon="12.7949983"><ele>748.8</ele><time>2026-04-19T07:50:21.203Z</time></trkpt><trkpt lat="46.3416958" lon="12.7949206"><ele>751.0</ele><time>2026-04-19T07:50:22.204Z</time></trkpt><trkpt lat="46.3417738" lon="12.7949001"><ele>751.0</ele><time>2026-04-19T07:50:23.202Z</time></trkpt><trkpt lat="46.3418449" lon="12.7949392"><ele>751.0</ele><time>2026-04-19T07:50:24.203Z</time></trkpt><trkpt lat="46.341924" lon="12.7950317"><ele>751.0</ele><time>2026-04-19T07:50:26.203Z</time></trkpt><trkpt lat="46.3418989" lon="12.7951818"><ele>751.0</ele><time>2026-04-19T07:50:28.203Z</time></trkpt><trkpt lat="46.3418375" lon="12.7952734"><ele>751.0</ele><time>2026-04-19T07:50:29.202Z</time></trkpt><trkpt lat="46.3417651" lon="12.79538"><ele>750.25</ele><time>2026-04-19T07:50:30.203Z</time></trkpt><trkpt lat="46.3416873" lon="12.7955053"><ele>749.5</ele><time>2026-04-19T07:50:31.203Z</time></trkpt><trkpt lat="46.3416035" lon="12.7956313"><ele>748.75</ele><time>2026-04-19T07:50:32.203Z</time></trkpt><trkpt lat="46.3415104" lon="12.7957371"><ele>748.0</ele><time>2026-04-19T07:50:33.202Z</time></trkpt><trkpt lat="46.3413978" lon="12.7958268"><ele>744.5</ele><time>2026-04-19T07:50:34.203Z</time></trkpt><trkpt lat="46.3412929" lon="12.7959186"><ele>741.0</ele><time>2026-04-19T07:50:35.203Z</time></trkpt><trkpt lat="46.341185" lon="12.7959951"><ele>737.5</ele><time>2026-04-19T07:50:36.203Z</time></trkpt><trkpt lat="46.3410779" lon="12.7960391"><ele>734.0</ele><time>2026-04-19T07:50:37.202Z</time></trkpt><trkpt lat="46.3409666" lon="12.7960436"><ele>734.0</ele><time>2026-04-19T07:50:38.203Z</time></trkpt><trkpt lat="46.3408444" lon="12.7960216"><ele>734.0</ele><time>2026-04-19T07:50:39.203Z</time></trkpt><trkpt lat="46.3407242" lon="12.7960004"><ele>734.0</ele><time>2026-04-19T07:50:40.203Z</time></trkpt><trkpt lat="46.3405999" lon="12.7959636"><ele>734.0</ele><time>2026-04-19T07:50:41.203Z</time></trkpt><trkpt lat="46.3404788" lon="12.7959242"><ele>733.5</ele><time>2026-04-19T07:50:42.203Z</time></trkpt><trkpt lat="46.3403602" lon="12.7958771"><ele>733.0</ele><time>2026-04-19T07:50:43.202Z</time></trkpt><trkpt lat="46.3402487" lon="12.7958153"><ele>732.5</ele><time>2026-04-19T07:50:44.204Z</time></trkpt><trkpt lat="46.3401389" lon="12.7957334"><ele>732.0</ele><time>2026-04-19T07:50:45.202Z</time></trkpt><trkpt lat="46.3400367" lon="12.7956443"><ele>732.0</ele><time>2026-04-19T07:50:46.204Z</time></trkpt><trkpt lat="46.3399361" lon="12.7955512"><ele>732.0</ele><time>2026-04-19T07:50:47.202Z</time></trkpt><trkpt lat="46.3398369" lon="12.7954521"><ele>732.0</ele><time>2026-04-19T07:50:48.203Z</time></trkpt><trkpt lat="46.3397385" lon="12.7953573"><ele>732.0</ele><time>2026-04-19T07:50:49.203Z</time></trkpt><trkpt lat="46.3396395" lon="12.7952699"><ele>730.25</ele><time>2026-04-19T07:50:50.204Z</time></trkpt><trkpt lat="46.3395342" lon="12.7952044"><ele>728.5</ele><time>2026-04-19T07:50:51.203Z</time></trkpt><trkpt lat="46.3394266" lon="12.795159"><ele>726.75</ele><time>2026-04-19T07:50:52.203Z</time></trkpt><trkpt lat="46.3393158" lon="12.7951334"><ele>725.0</ele><time>2026-04-19T07:50:53.202Z</time></trkpt><trkpt lat="46.3391988" lon="12.795128"><ele>722.4</ele><time>2026-04-19T07:50:54.203Z</time></trkpt><trkpt lat="46.3390832" lon="12.7951348"><ele>719.8</ele><time>2026-04-19T07:50:55.203Z</time></trkpt><trkpt lat="46.3389742" lon="12.795152"><ele>717.2</ele><time>2026-04-19T07:50:56.202Z</time></trkpt><trkpt lat="46.3388706" lon="12.7951896"><ele>714.6</ele><time>2026-04-19T07:50:57.202Z</time></trkpt><trkpt lat="46.3387774" lon="12.7952501"><ele>712.0</ele><time>2026-04-19T07:50:58.202Z</time></trkpt><trkpt lat="46.338703" lon="12.7953392"><ele>709.0</ele><time>2026-04-19T07:50:59.202Z</time></trkpt><trkpt lat="46.3386399" lon="12.7954564"><ele>706.0</ele><time>2026-04-19T07:51:00.202Z</time></trkpt><trkpt lat="46.3385871" lon="12.7955898"><ele>703.0</ele><time>2026-04-19T07:51:01.202Z</time></trkpt><trkpt lat="46.3385334" lon="12.7957312"><ele>700.0</ele><time>2026-04-19T07:51:02.202Z</time></trkpt><trkpt lat="46.3384866" lon="12.7958759"><ele>697.0</ele><time>2026-04-19T07:51:03.201Z</time></trkpt><trkpt lat="46.3384473" lon="12.7960199"><ele>697.0</ele><time>2026-04-19T07:51:04.202Z</time></trkpt><trkpt lat="46.3384173" lon="12.7961614"><ele>697.0</ele><time>2026-04-19T07:51:05.201Z</time></trkpt><trkpt lat="46.3383976" lon="12.7963044"><ele>697.0</ele><time>2026-04-19T07:51:06.202Z</time></trkpt><trkpt lat="46.3383993" lon="12.796431"><ele>697.0</ele><time>2026-04-19T07:51:07.201Z</time></trkpt><trkpt lat="46.3383913" lon="12.7965236"><ele>697.0</ele><time>2026-04-19T07:51:08.202Z</time></trkpt><trkpt lat="46.3383191" lon="12.7965903"><ele>697.0</ele><time>2026-04-19T07:51:10.202Z</time></trkpt><trkpt lat="46.3382711" lon="12.7964814"><ele>697.0</ele><time>2026-04-19T07:51:12.201Z</time></trkpt><trkpt lat="46.3382843" lon="12.7963668"><ele>697.0</ele><time>2026-04-19T07:51:13.202Z</time></trkpt><trkpt lat="46.3383019" lon="12.7962346"><ele>697.0</ele><time>2026-04-19T07:51:14.202Z</time></trkpt><trkpt lat="46.3383147" lon="12.7960597"><ele>697.0</ele><time>2026-04-19T07:51:15.202Z</time></trkpt><trkpt lat="46.3383294" lon="12.7959025"><ele>697.0</ele><time>2026-04-19T07:51:16.202Z</time></trkpt><trkpt lat="46.3383458" lon="12.7957537"><ele>696.3333333333334</ele><time>2026-04-19T07:51:17.202Z</time></trkpt><trkpt lat="46.3383618" lon="12.7956038"><ele>695.6666666666667</ele><time>2026-04-19T07:51:18.201Z</time></trkpt><trkpt lat="46.3383856" lon="12.7954785"><ele>695.0</ele><time>2026-04-19T07:51:19.202Z</time></trkpt><trkpt lat="46.3383969" lon="12.7953825"><ele>694.3333333333334</ele><time>2026-04-19T07:51:20.202Z</time></trkpt><trkpt lat="46.3383574" lon="12.7952552"><ele>693.6666666666666</ele><time>2026-04-19T07:51:22.202Z</time></trkpt><trkpt lat="46.3382889" lon="12.795247"><ele>693.0</ele><time>2026-04-19T07:51:24.202Z</time></trkpt><trkpt lat="46.3382437" lon="12.7954139"><ele>693.0</ele><time>2026-04-19T07:51:26.202Z</time></trkpt><trkpt lat="46.3382239" lon="12.7956709"><ele>693.0</ele><time>2026-04-19T07:51:27.201Z</time></trkpt><trkpt lat="46.3381854" lon="12.7958263"><ele>693.0</ele><time>2026-04-19T07:51:28.201Z</time></trkpt><trkpt lat="46.3381497" lon="12.7959869"><ele>693.0</ele><time>2026-04-19T07:51:29.202Z</time></trkpt><trkpt lat="46.3381089" lon="12.7961356"><ele>693.6666666666666</ele><time>2026-04-19T07:51:30.202Z</time></trkpt><trkpt lat="46.3380838" lon="12.7962701"><ele>694.3333333333334</ele><time>2026-04-19T07:51:31.202Z</time></trkpt><trkpt lat="46.338072" lon="12.7964022"><ele>695.0</ele><time>2026-04-19T07:51:32.201Z</time></trkpt><trkpt lat="46.3380797" lon="12.7965119"><ele>695.6666666666667</ele><time>2026-04-19T07:51:33.201Z</time></trkpt><trkpt lat="46.3380847" lon="12.7966033"><ele>696.3333333333334</ele><time>2026-04-19T07:51:34.202Z</time></trkpt><trkpt lat="46.3380195" lon="12.7966756"><ele>697.0</ele><time>2026-04-19T07:51:36.203Z</time></trkpt><trkpt lat="46.3379658" lon="12.7965845"><ele>688.2</ele><time>2026-04-19T07:51:38.201Z</time></trkpt><trkpt lat="46.3379747" lon="12.7964641"><ele>679.4000000000001</ele><time>2026-04-19T07:51:39.202Z</time></trkpt><trkpt lat="46.3379822" lon="12.7963443"><ele>670.5999999999999</ele><time>2026-04-19T07:51:40.201Z</time></trkpt><trkpt lat="46.3379845" lon="12.7962022"><ele>661.8</ele><time>2026-04-19T07:51:41.201Z</time></trkpt><trkpt lat="46.3379818" lon="12.7960474"><ele>653.0</ele><time>2026-04-19T07:51:42.201Z</time></trkpt><trkpt lat="46.3379706" lon="12.7959021"><ele>653.0</ele><time>2026-04-19T07:51:43.202Z</time></trkpt><trkpt lat="46.3379654" lon="12.7957595"><ele>653.0</ele><time>2026-04-19T07:51:44.202Z</time></trkpt><trkpt lat="46.3379632" lon="12.795625"><ele>653.0</ele><time>2026-04-19T07:51:45.202Z</time></trkpt><trkpt lat="46.3379773" lon="12.7954862"><ele>653.0</ele><time>2026-04-19T07:51:46.202Z</time></trkpt><trkpt lat="46.3380215" lon="12.7953725"><ele>653.0</ele><time>2026-04-19T07:51:47.201Z</time></trkpt><trkpt lat="46.3380577" lon="12.7952816"><ele>653.0</ele><time>2026-04-19T07:51:48.202Z</time></trkpt><trkpt lat="46.3380377" lon="12.7951459"><ele>653.0</ele><time>2026-04-19T07:51:50.202Z</time></trkpt><trkpt lat="46.3379624" lon="12.7951709"><ele>653.0</ele><time>2026-04-19T07:51:52.202Z</time></trkpt><trkpt lat="46.3379319" lon="12.7952509"><ele>653.0</ele><time>2026-04-19T07:51:53.203Z</time></trkpt><trkpt lat="46.3378898" lon="12.7953953"><ele>653.0</ele><time>2026-04-19T07:51:54.202Z</time></trkpt><trkpt lat="46.3378502" lon="12.7955415"><ele>653.0</ele><time>2026-04-19T07:51:55.201Z</time></trkpt><trkpt lat="46.3378186" lon="12.795719"><ele>653.0</ele><time>2026-04-19T07:51:56.202Z</time></trkpt><trkpt lat="46.3377987" lon="12.7958956"><ele>653.0</ele><time>2026-04-19T07:51:57.201Z</time></trkpt><trkpt lat="46.337775" lon="12.7960686"><ele>653.0</ele><time>2026-04-19T07:51:58.203Z</time></trkpt><trkpt lat="46.3377563" lon="12.7962363"><ele>653.0</ele><time>2026-04-19T07:51:59.202Z</time></trkpt><trkpt lat="46.3377412" lon="12.7963982"><ele>653.0</ele><time>2026-04-19T07:52:00.202Z</time></trkpt><trkpt lat="46.3377417" lon="12.7965435"><ele>653.0</ele><time>2026-04-19T07:52:01.203Z</time></trkpt><trkpt lat="46.3377422" lon="12.7966545"><ele>653.0</ele><time>2026-04-19T07:52:02.201Z</time></trkpt><trkpt lat="46.3376949" lon="12.7967796"><ele>653.0</ele><time>2026-04-19T07:52:04.202Z</time></trkpt><trkpt lat="46.3376256" lon="12.796758"><ele>653.0</ele><time>2026-04-19T07:52:06.202Z</time></trkpt><trkpt lat="46.3376322" lon="12.7966335"><ele>653.0</ele><time>2026-04-19T07:52:07.202Z</time></trkpt><trkpt lat="46.3376413" lon="12.7965133"><ele>653.0</ele><time>2026-04-19T07:52:08.202Z</time></trkpt><trkpt lat="46.3376625" lon="12.7963356"><ele>653.0</ele><time>2026-04-19T07:52:09.202Z</time></trkpt><trkpt lat="46.3376748" lon="12.7961584"><ele>653.0</ele><time>2026-04-19T07:52:10.202Z</time></trkpt><trkpt lat="46.3376908" lon="12.7959557"><ele>653.0</ele><time>2026-04-19T07:52:11.202Z</time></trkpt><trkpt lat="46.3377065" lon="12.795751"><ele>653.0</ele><time>2026-04-19T07:52:12.202Z</time></trkpt><trkpt lat="46.3377274" lon="12.7955647"><ele>653.0</ele><time>2026-04-19T07:52:13.201Z</time></trkpt><trkpt lat="46.3377462" lon="12.7953858"><ele>653.0</ele><time>2026-04-19T07:52:14.202Z</time></trkpt><trkpt lat="46.3377709" lon="12.7952443"><ele>652.0</ele><time>2026-04-19T07:52:15.201Z</time></trkpt><trkpt lat="46.3377948" lon="12.795119"><ele>651.0</ele><time>2026-04-19T07:52:16.203Z</time></trkpt><trkpt lat="46.3378349" lon="12.7950277"><ele>650.0</ele><time>2026-04-19T07:52:17.203Z</time></trkpt><trkpt lat="46.3378983" lon="12.7949672"><ele>649.0</ele><time>2026-04-19T07:52:18.202Z</time></trkpt><trkpt lat="46.3379781" lon="12.7949349"><ele>648.0</ele><time>2026-04-19T07:52:19.202Z</time></trkpt><trkpt lat="46.338056" lon="12.7949093"><ele>647.0</ele><time>2026-04-19T07:52:20.201Z</time></trkpt><trkpt lat="46.3381295" lon="12.7948637"><ele>652.1666666666666</ele><time>2026-04-19T07:52:21.203Z</time></trkpt><trkpt lat="46.3381803" lon="12.794799"><ele>657.3333333333333</ele><time>2026-04-19T07:52:22.202Z</time></trkpt><trkpt lat="46.3382132" lon="12.7947196"><ele>662.5</ele><time>2026-04-19T07:52:23.202Z</time></trkpt><trkpt lat="46.3382267" lon="12.7946246"><ele>667.6666666666666</ele><time>2026-04-19T07:52:24.202Z</time></trkpt><trkpt lat="46.3382154" lon="12.7945126"><ele>672.8333333333334</ele><time>2026-04-19T07:52:25.202Z</time></trkpt><trkpt lat="46.3381726" lon="12.7943873"><ele>678.0</ele><time>2026-04-19T07:52:26.202Z</time></trkpt><trkpt lat="46.3381129" lon="12.7942548"><ele>670.75</ele><time>2026-04-19T07:52:27.201Z</time></trkpt><trkpt lat="46.338045" lon="12.7941108"><ele>663.5</ele><time>2026-04-19T07:52:28.202Z</time></trkpt><trkpt lat="46.3379779" lon="12.7939584"><ele>656.25</ele><time>2026-04-19T07:52:29.202Z</time></trkpt><trkpt lat="46.3379059" lon="12.7937983"><ele>649.0</ele><time>2026-04-19T07:52:30.202Z</time></trkpt><trkpt lat="46.337827" lon="12.7936316"><ele>650.5</ele><time>2026-04-19T07:52:31.201Z</time></trkpt><trkpt lat="46.3377497" lon="12.7934606"><ele>652.0</ele><time>2026-04-19T07:52:32.203Z</time></trkpt><trkpt lat="46.337672" lon="12.7932959"><ele>653.5</ele><time>2026-04-19T07:52:33.202Z</time></trkpt><trkpt lat="46.3375987" lon="12.7931341"><ele>655.0</ele><time>2026-04-19T07:52:34.201Z</time></trkpt><trkpt lat="46.3375323" lon="12.7929789"><ele>655.0</ele><time>2026-04-19T07:52:35.202Z</time></trkpt><trkpt lat="46.3374735" lon="12.7928254"><ele>655.0</ele><time>2026-04-19T07:52:36.202Z</time></trkpt><trkpt lat="46.3374173" lon="12.7926728"><ele>655.0</ele><time>2026-04-19T07:52:37.202Z</time></trkpt><trkpt lat="46.3373477" lon="12.7925522"><ele>655.0</ele><time>2026-04-19T07:52:38.202Z</time></trkpt><trkpt lat="46.3372638" lon="12.7924527"><ele>648.8</ele><time>2026-04-19T07:52:39.201Z</time></trkpt><trkpt lat="46.3371723" lon="12.7923667"><ele>642.6</ele><time>2026-04-19T07:52:40.202Z</time></trkpt><trkpt lat="46.3370893" lon="12.792267"><ele>636.4</ele><time>2026-04-19T07:52:41.202Z</time></trkpt><trkpt lat="46.3370251" lon="12.7921665"><ele>630.2</ele><time>2026-04-19T07:52:42.202Z</time></trkpt><trkpt lat="46.3369699" lon="12.7920946"><ele>624.0</ele><time>2026-04-19T07:52:43.201Z</time></trkpt><trkpt lat="46.3368728" lon="12.792042"><ele>624.0</ele><time>2026-04-19T07:52:45.202Z</time></trkpt><trkpt lat="46.3368347" lon="12.7921224"><ele>624.0</ele><time>2026-04-19T07:52:47.202Z</time></trkpt><trkpt lat="46.3369103" lon="12.7922326"><ele>624.0</ele><time>2026-04-19T07:52:48.201Z</time></trkpt><trkpt lat="46.3369596" lon="12.7923413"><ele>624.0</ele><time>2026-04-19T07:52:49.202Z</time></trkpt><trkpt lat="46.3370139" lon="12.7924434"><ele>624.0</ele><time>2026-04-19T07:52:50.202Z</time></trkpt><trkpt lat="46.3370591" lon="12.7925573"><ele>624.0</ele><time>2026-04-19T07:52:51.202Z</time></trkpt><trkpt lat="46.3370926" lon="12.79268"><ele>623.1666666666666</ele><time>2026-04-19T07:52:52.202Z</time></trkpt><trkpt lat="46.3371072" lon="12.792809"><ele>622.3333333333334</ele><time>2026-04-19T07:52:53.203Z</time></trkpt><trkpt lat="46.3370923" lon="12.7929368"><ele>621.5</ele><time>2026-04-19T07:52:54.202Z</time></trkpt><trkpt lat="46.3370629" lon="12.7930531"><ele>620.6666666666667</ele><time>2026-04-19T07:52:55.203Z</time></trkpt><trkpt lat="46.337044" lon="12.7931692"><ele>619.8333333333334</ele><time>2026-04-19T07:52:56.203Z</time></trkpt><trkpt lat="46.3370547" lon="12.7932889"><ele>619.0</ele><time>2026-04-19T07:52:57.202Z</time></trkpt><trkpt lat="46.3370813" lon="12.7934315"><ele>615.5</ele><time>2026-04-19T07:52:58.202Z</time></trkpt><trkpt lat="46.3371182" lon="12.793585"><ele>612.0</ele><time>2026-04-19T07:52:59.201Z</time></trkpt><trkpt lat="46.3371566" lon="12.7937457"><ele>608.5</ele><time>2026-04-19T07:53:00.202Z</time></trkpt><trkpt lat="46.3372022" lon="12.7939085"><ele>605.0</ele><time>2026-04-19T07:53:01.202Z</time></trkpt><trkpt lat="46.3372384" lon="12.7940693"><ele>605.6</ele><time>2026-04-19T07:53:02.202Z</time></trkpt><trkpt lat="46.3372713" lon="12.7942211"><ele>606.2</ele><time>2026-04-19T07:53:03.201Z</time></trkpt><trkpt lat="46.3372609" lon="12.7943944"><ele>606.8</ele><time>2026-04-19T07:53:04.202Z</time></trkpt><trkpt lat="46.3372365" lon="12.7945507"><ele>607.4</ele><time>2026-04-19T07:53:05.202Z</time></trkpt><trkpt lat="46.3372031" lon="12.7946932"><ele>608.0</ele><time>2026-04-19T07:53:06.201Z</time></trkpt><trkpt lat="46.3371499" lon="12.7948083"><ele>608.0</ele><time>2026-04-19T07:53:07.202Z</time></trkpt><trkpt lat="46.3370775" lon="12.7949034"><ele>608.0</ele><time>2026-04-19T07:53:08.202Z</time></trkpt><trkpt lat="46.3370086" lon="12.7950189"><ele>608.0</ele><time>2026-04-19T07:53:09.201Z</time></trkpt><trkpt lat="46.3369489" lon="12.7951644"><ele>608.0</ele><time>2026-04-19T07:53:10.202Z</time></trkpt><trkpt lat="46.3369068" lon="12.7953288"><ele>608.0</ele><time>2026-04-19T07:53:11.202Z</time></trkpt><trkpt lat="46.3368685" lon="12.7955041"><ele>609.0</ele><time>2026-04-19T07:53:12.201Z</time></trkpt><trkpt lat="46.3368347" lon="12.7956763"><ele>610.0</ele><time>2026-04-19T07:53:13.202Z</time></trkpt><trkpt lat="46.336809" lon="12.7958493"><ele>611.0</ele><time>2026-04-19T07:53:14.202Z</time></trkpt><trkpt lat="46.3367959" lon="12.7960222"><ele>612.0</ele><time>2026-04-19T07:53:15.202Z</time></trkpt><trkpt lat="46.3367941" lon="12.7962147"><ele>612.0</ele><time>2026-04-19T07:53:16.202Z</time></trkpt><trkpt lat="46.3367886" lon="12.7964023"><ele>612.0</ele><time>2026-04-19T07:53:17.202Z</time></trkpt><trkpt lat="46.3367713" lon="12.796581"><ele>612.0</ele><time>2026-04-19T07:53:18.202Z</time></trkpt><trkpt lat="46.3367521" lon="12.7967284"><ele>612.0</ele><time>2026-04-19T07:53:19.202Z</time></trkpt><trkpt lat="46.3367397" lon="12.7968442"><ele>612.0</ele><time>2026-04-19T07:53:20.202Z</time></trkpt><trkpt lat="46.3366914" lon="12.7969819"><ele>612.0</ele><time>2026-04-19T07:53:22.202Z</time></trkpt><trkpt lat="46.3366353" lon="12.796867"><ele>612.0</ele><time>2026-04-19T07:53:25.202Z</time></trkpt><trkpt lat="46.3366568" lon="12.7967554"><ele>612.0</ele><time>2026-04-19T07:53:26.202Z</time></trkpt><trkpt lat="46.3366678" lon="12.7966115"><ele>612.0</ele><time>2026-04-19T07:53:27.202Z</time></trkpt><trkpt lat="46.3366517" lon="12.796451"><ele>612.0</ele><time>2026-04-19T07:53:28.202Z</time></trkpt><trkpt lat="46.3366171" lon="12.7962743"><ele>612.0</ele><time>2026-04-19T07:53:29.201Z</time></trkpt><trkpt lat="46.3365849" lon="12.7961039"><ele>612.0</ele><time>2026-04-19T07:53:30.202Z</time></trkpt><trkpt lat="46.3365632" lon="12.7959323"><ele>612.0</ele><time>2026-04-19T07:53:31.202Z</time></trkpt><trkpt lat="46.3365483" lon="12.7957586"><ele>612.0</ele><time>2026-04-19T07:53:32.203Z</time></trkpt><trkpt lat="46.3365509" lon="12.7955892"><ele>612.3333333333334</ele><time>2026-04-19T07:53:33.201Z</time></trkpt><trkpt lat="46.3365684" lon="12.7954299"><ele>612.6666666666666</ele><time>2026-04-19T07:53:34.203Z</time></trkpt><trkpt lat="46.3365915" lon="12.7953125"><ele>613.0</ele><time>2026-04-19T07:53:35.202Z</time></trkpt><trkpt lat="46.336609" lon="12.7952222"><ele>613.3333333333333</ele><time>2026-04-19T07:53:36.202Z</time></trkpt><trkpt lat="46.33657" lon="12.7951075"><ele>613.6666666666666</ele><time>2026-04-19T07:53:38.202Z</time></trkpt><trkpt lat="46.3364896" lon="12.7951268"><ele>614.0</ele><time>2026-04-19T07:53:40.202Z</time></trkpt><trkpt lat="46.3364733" lon="12.7953875"><ele>614.0</ele><time>2026-04-19T07:53:42.202Z</time></trkpt><trkpt lat="46.3364416" lon="12.7955212"><ele>614.0</ele><time>2026-04-19T07:53:43.202Z</time></trkpt><trkpt lat="46.3363998" lon="12.7956688"><ele>614.0</ele><time>2026-04-19T07:53:44.203Z</time></trkpt><trkpt lat="46.3363571" lon="12.7958135"><ele>614.0</ele><time>2026-04-19T07:53:45.202Z</time></trkpt><trkpt lat="46.3363236" lon="12.795964"><ele>614.0</ele><time>2026-04-19T07:53:46.202Z</time></trkpt><trkpt lat="46.3363066" lon="12.7961241"><ele>605.8</ele><time>2026-04-19T07:53:47.202Z</time></trkpt><trkpt lat="46.3362995" lon="12.7962889"><ele>597.5999999999999</ele><time>2026-04-19T07:53:48.202Z</time></trkpt><trkpt lat="46.3363002" lon="12.7964348"><ele>589.4</ele><time>2026-04-19T07:53:49.202Z</time></trkpt><trkpt lat="46.3363005" lon="12.7965437"><ele>581.1999999999999</ele><time>2026-04-19T07:53:50.202Z</time></trkpt><trkpt lat="46.3362417" lon="12.7966596"><ele>573.0</ele><time>2026-04-19T07:53:52.202Z</time></trkpt><trkpt lat="46.3361774" lon="12.7965891"><ele>573.0</ele><time>2026-04-19T07:53:54.202Z</time></trkpt><trkpt lat="46.3361688" lon="12.7964617"><ele>573.0</ele><time>2026-04-19T07:53:55.202Z</time></trkpt><trkpt lat="46.3361664" lon="12.7963126"><ele>573.0</ele><time>2026-04-19T07:53:56.203Z</time></trkpt><trkpt lat="46.3361564" lon="12.7961546"><ele>573.0</ele><time>2026-04-19T07:53:57.203Z</time></trkpt><trkpt lat="46.3361499" lon="12.7960083"><ele>573.0</ele><time>2026-04-19T07:53:58.202Z</time></trkpt><trkpt lat="46.3361486" lon="12.7958643"><ele>573.0</ele><time>2026-04-19T07:53:59.201Z</time></trkpt><trkpt lat="46.3361574" lon="12.7957241"><ele>573.0</ele><time>2026-04-19T07:54:00.201Z</time></trkpt><trkpt lat="46.3361738" lon="12.795611"><ele>573.0</ele><time>2026-04-19T07:54:01.202Z</time></trkpt><trkpt lat="46.3361485" lon="12.7954514"><ele>573.0</ele><time>2026-04-19T07:54:03.202Z</time></trkpt><trkpt lat="46.3360727" lon="12.7955038"><ele>573.0</ele><time>2026-04-19T07:54:05.201Z</time></trkpt><trkpt lat="46.33604" lon="12.7955904"><ele>573.0</ele><time>2026-04-19T07:54:06.202Z</time></trkpt><trkpt lat="46.3360302" lon="12.7957681"><ele>573.0</ele><time>2026-04-19T07:54:07.202Z</time></trkpt><trkpt lat="46.3359998" lon="12.7959017"><ele>573.0</ele><time>2026-04-19T07:54:08.202Z</time></trkpt><trkpt lat="46.3359755" lon="12.7960613"><ele>573.0</ele><time>2026-04-19T07:54:09.202Z</time></trkpt><trkpt lat="46.3359455" lon="12.7962141"><ele>573.0</ele><time>2026-04-19T07:54:10.202Z</time></trkpt><trkpt lat="46.3359337" lon="12.7963586"><ele>573.0</ele><time>2026-04-19T07:54:11.201Z</time></trkpt><trkpt lat="46.3359467" lon="12.7964882"><ele>573.0</ele><time>2026-04-19T07:54:12.202Z</time></trkpt><trkpt lat="46.3359676" lon="12.7965946"><ele>573.0</ele><time>2026-04-19T07:54:13.202Z</time></trkpt><trkpt lat="46.3359462" lon="12.7967148"><ele>573.0</ele><time>2026-04-19T07:54:15.202Z</time></trkpt><trkpt lat="46.3358683" lon="12.7966608"><ele>573.0</ele><time>2026-04-19T07:54:17.203Z</time></trkpt><trkpt lat="46.3358408" lon="12.7965487"><ele>573.0</ele><time>2026-04-19T07:54:18.202Z</time></trkpt><trkpt lat="46.3358206" lon="12.7964204"><ele>573.0</ele><time>2026-04-19T07:54:19.201Z</time></trkpt><trkpt lat="46.3358051" lon="12.7962745"><ele>573.0</ele><time>2026-04-19T07:54:20.203Z</time></trkpt><trkpt lat="46.3358023" lon="12.7961315"><ele>573.0</ele><time>2026-04-19T07:54:21.202Z</time></trkpt><trkpt lat="46.3357989" lon="12.7959966"><ele>573.0</ele><time>2026-04-19T07:54:22.203Z</time></trkpt><trkpt lat="46.3358039" lon="12.7958816"><ele>573.0</ele><time>2026-04-19T07:54:23.202Z</time></trkpt><trkpt lat="46.3357627" lon="12.7957587"><ele>573.0</ele><time>2026-04-19T07:54:25.202Z</time></trkpt><trkpt lat="46.3356826" lon="12.7957773"><ele>573.0</ele><time>2026-04-19T07:54:27.201Z</time></trkpt><trkpt lat="46.3356523" lon="12.7960459"><ele>573.0</ele><time>2026-04-19T07:54:29.202Z</time></trkpt><trkpt lat="46.335635" lon="12.7961987"><ele>573.0</ele><time>2026-04-19T07:54:30.201Z</time></trkpt><trkpt lat="46.335639" lon="12.7963562"><ele>573.0</ele><time>2026-04-19T07:54:31.202Z</time></trkpt><trkpt lat="46.3356529" lon="12.7965173"><ele>573.0</ele><time>2026-04-19T07:54:32.201Z</time></trkpt><trkpt lat="46.3356496" lon="12.7966925"><ele>573.0</ele><time>2026-04-19T07:54:33.201Z</time></trkpt><trkpt lat="46.3356259" lon="12.7968535"><ele>574.0</ele><time>2026-04-19T07:54:34.201Z</time></trkpt><trkpt lat="46.3355974" lon="12.7970093"><ele>575.0</ele><time>2026-04-19T07:54:35.202Z</time></trkpt><trkpt lat="46.3355571" lon="12.7971638"><ele>576.0</ele><time>2026-04-19T07:54:36.202Z</time></trkpt><trkpt lat="46.3355154" lon="12.797315"><ele>577.0</ele><time>2026-04-19T07:54:37.203Z</time></trkpt><trkpt lat="46.335463" lon="12.7974578"><ele>578.0</ele><time>2026-04-19T07:54:38.202Z</time></trkpt><trkpt lat="46.3353997" lon="12.7975903"><ele>573.6</ele><time>2026-04-19T07:54:39.201Z</time></trkpt><trkpt lat="46.3353147" lon="12.7976953"><ele>569.1999999999999</ele><time>2026-04-19T07:54:40.203Z</time></trkpt><trkpt lat="46.3352271" lon="12.7977891"><ele>564.8</ele><time>2026-04-19T07:54:41.203Z</time></trkpt><trkpt lat="46.3351342" lon="12.797881"><ele>560.4</ele><time>2026-04-19T07:54:42.201Z</time></trkpt><trkpt lat="46.3350501" lon="12.7979559"><ele>556.0</ele><time>2026-04-19T07:54:43.201Z</time></trkpt><trkpt lat="46.3349768" lon="12.7980405"><ele>556.0</ele><time>2026-04-19T07:54:44.201Z</time></trkpt><trkpt lat="46.3349049" lon="12.7981545"><ele>556.0</ele><time>2026-04-19T07:54:45.202Z</time></trkpt><trkpt lat="46.3348523" lon="12.7983207"><ele>556.0</ele><time>2026-04-19T07:54:46.201Z</time></trkpt><trkpt lat="46.334789" lon="12.7984651"><ele>556.0</ele><time>2026-04-19T07:54:47.203Z</time></trkpt><trkpt lat="46.3347167" lon="12.798624"><ele>550.0</ele><time>2026-04-19T07:54:48.203Z</time></trkpt><trkpt lat="46.3346404" lon="12.7987698"><ele>544.0</ele><time>2026-04-19T07:54:49.202Z</time></trkpt><trkpt lat="46.3345448" lon="12.7989067"><ele>538.0</ele><time>2026-04-19T07:54:50.201Z</time></trkpt><trkpt lat="46.3344352" lon="12.7990486"><ele>532.0</ele><time>2026-04-19T07:54:51.202Z</time></trkpt><trkpt lat="46.3343268" lon="12.7991962"><ele>543.3333333333334</ele><time>2026-04-19T07:54:52.202Z</time></trkpt><trkpt lat="46.3342171" lon="12.7993574"><ele>554.6666666666666</ele><time>2026-04-19T07:54:53.202Z</time></trkpt><trkpt lat="46.3341065" lon="12.7995195"><ele>566.0</ele><time>2026-04-19T07:54:54.201Z</time></trkpt><trkpt lat="46.3339885" lon="12.799672"><ele>550.0</ele><time>2026-04-19T07:54:55.202Z</time></trkpt><trkpt lat="46.3338536" lon="12.7998129"><ele>534.0</ele><time>2026-04-19T07:54:56.201Z</time></trkpt><trkpt lat="46.3337143" lon="12.7999471"><ele>518.0</ele><time>2026-04-19T07:54:57.202Z</time></trkpt><trkpt lat="46.3335716" lon="12.8000788"><ele>526.3333333333333</ele><time>2026-04-19T07:54:58.202Z</time></trkpt><trkpt lat="46.3334298" lon="12.800216"><ele>534.6666666666666</ele><time>2026-04-19T07:54:59.201Z</time></trkpt><trkpt lat="46.333299" lon="12.8003454"><ele>543.0</ele><time>2026-04-19T07:55:00.202Z</time></trkpt><trkpt lat="46.3331802" lon="12.8004759"><ele>543.0</ele><time>2026-04-19T07:55:01.203Z</time></trkpt><trkpt lat="46.3330735" lon="12.8006021"><ele>543.0</ele><time>2026-04-19T07:55:02.201Z</time></trkpt><trkpt lat="46.3329741" lon="12.8007143"><ele>543.0</ele><time>2026-04-19T07:55:03.202Z</time></trkpt><trkpt lat="46.3328851" lon="12.8008252"><ele>543.0</ele><time>2026-04-19T07:55:04.202Z</time></trkpt><trkpt lat="46.3328124" lon="12.8009395"><ele>537.4</ele><time>2026-04-19T07:55:05.202Z</time></trkpt><trkpt lat="46.3327601" lon="12.8010589"><ele>531.8</ele><time>2026-04-19T07:55:06.203Z</time></trkpt><trkpt lat="46.3327429" lon="12.8012098"><ele>526.2</ele><time>2026-04-19T07:55:07.202Z</time></trkpt><trkpt lat="46.3327289" lon="12.8013635"><ele>520.6</ele><time>2026-04-19T07:55:08.202Z</time></trkpt><trkpt lat="46.332743" lon="12.8015239"><ele>515.0</ele><time>2026-04-19T07:55:09.202Z</time></trkpt><trkpt lat="46.3327493" lon="12.8016531"><ele>515.0</ele><time>2026-04-19T07:55:10.202Z</time></trkpt><trkpt lat="46.3327506" lon="12.8017526"><ele>515.0</ele><time>2026-04-19T07:55:11.202Z</time></trkpt><trkpt lat="46.3326956" lon="12.8018398"><ele>515.0</ele><time>2026-04-19T07:55:13.203Z</time></trkpt><trkpt lat="46.3326017" lon="12.8017052"><ele>515.0</ele><time>2026-04-19T07:55:15.201Z</time></trkpt><trkpt lat="46.3325433" lon="12.8015642"><ele>515.0</ele><time>2026-04-19T07:55:16.202Z</time></trkpt><trkpt lat="46.3324701" lon="12.8014394"><ele>515.0</ele><time>2026-04-19T07:55:17.202Z</time></trkpt><trkpt lat="46.3323931" lon="12.8013234"><ele>515.0</ele><time>2026-04-19T07:55:18.202Z</time></trkpt><trkpt lat="46.3323279" lon="12.8012309"><ele>515.0</ele><time>2026-04-19T07:55:19.201Z</time></trkpt><trkpt lat="46.3322721" lon="12.8011686"><ele>515.0</ele><time>2026-04-19T07:55:20.202Z</time></trkpt><trkpt lat="46.332175" lon="12.8011253"><ele>515.0</ele><time>2026-04-19T07:55:22.202Z</time></trkpt><trkpt lat="46.3321238" lon="12.8011975"><ele>515.0</ele><time>2026-04-19T07:55:24.202Z</time></trkpt><trkpt lat="46.3322447" lon="12.8013991"><ele>515.0</ele><time>2026-04-19T07:55:25.202Z</time></trkpt><trkpt lat="46.3323011" lon="12.8015388"><ele>515.0</ele><time>2026-04-19T07:55:26.202Z</time></trkpt><trkpt lat="46.332353" lon="12.801686"><ele>515.0</ele><time>2026-04-19T07:55:27.202Z</time></trkpt><trkpt lat="46.3324058" lon="12.8018346"><ele>515.0</ele><time>2026-04-19T07:55:28.202Z</time></trkpt><trkpt lat="46.3324439" lon="12.8019973"><ele>515.8</ele><time>2026-04-19T07:55:29.203Z</time></trkpt><trkpt lat="46.3324635" lon="12.8021703"><ele>516.6</ele><time>2026-04-19T07:55:30.201Z</time></trkpt><trkpt lat="46.3324773" lon="12.8023236"><ele>517.4</ele><time>2026-04-19T07:55:31.202Z</time></trkpt><trkpt lat="46.332494" lon="12.8024493"><ele>518.2</ele><time>2026-04-19T07:55:32.202Z</time></trkpt><trkpt lat="46.3325032" lon="12.8025395"><ele>519.0</ele><time>2026-04-19T07:55:33.202Z</time></trkpt><trkpt lat="46.3324691" lon="12.8026718"><ele>519.0</ele><time>2026-04-19T07:55:35.202Z</time></trkpt><trkpt lat="46.3324052" lon="12.8027105"><ele>519.0</ele><time>2026-04-19T07:55:37.202Z</time></trkpt><trkpt lat="46.3323333" lon="12.8024597"><ele>519.0</ele><time>2026-04-19T07:55:39.201Z</time></trkpt><trkpt lat="46.3322978" lon="12.802346"><ele>519.0</ele><time>2026-04-19T07:55:40.202Z</time></trkpt><trkpt lat="46.3322518" lon="12.8022072"><ele>519.0</ele><time>2026-04-19T07:55:41.202Z</time></trkpt><trkpt lat="46.3321882" lon="12.8021093"><ele>512.0</ele><time>2026-04-19T07:55:42.202Z</time></trkpt><trkpt lat="46.332104" lon="12.8020382"><ele>505.0</ele><time>2026-04-19T07:55:43.202Z</time></trkpt><trkpt lat="46.3320059" lon="12.8019867"><ele>498.0</ele><time>2026-04-19T07:55:44.202Z</time></trkpt><trkpt lat="46.3319074" lon="12.8019478"><ele>491.0</ele><time>2026-04-19T07:55:45.201Z</time></trkpt><trkpt lat="46.3318101" lon="12.8019186"><ele>484.0</ele><time>2026-04-19T07:55:46.202Z</time></trkpt><trkpt lat="46.3317145" lon="12.8018925"><ele>484.0</ele><time>2026-04-19T07:55:47.202Z</time></trkpt><trkpt lat="46.3316242" lon="12.8018876"><ele>484.0</ele><time>2026-04-19T07:55:48.202Z</time></trkpt><trkpt lat="46.3315294" lon="12.8019138"><ele>484.0</ele><time>2026-04-19T07:55:49.202Z</time></trkpt><trkpt lat="46.3314249" lon="12.8019916"><ele>484.0</ele><time>2026-04-19T07:55:50.201Z</time></trkpt><trkpt lat="46.3312961" lon="12.8020833"><ele>484.0</ele><time>2026-04-19T07:55:51.2Z</time></trkpt><trkpt lat="46.3311609" lon="12.8021613"><ele>489.75</ele><time>2026-04-19T07:55:52.201Z</time></trkpt><trkpt lat="46.3310298" lon="12.8022226"><ele>495.5</ele><time>2026-04-19T07:55:53.201Z</time></trkpt><trkpt lat="46.3308955" lon="12.8022977"><ele>501.25</ele><time>2026-04-19T07:55:54.2Z</time></trkpt><trkpt lat="46.3307634" lon="12.8023779"><ele>507.0</ele><time>2026-04-19T07:55:55.201Z</time></trkpt><trkpt lat="46.3306376" lon="12.8024716"><ele>504.5</ele><time>2026-04-19T07:55:56.201Z</time></trkpt><trkpt lat="46.3305157" lon="12.8025566"><ele>502.0</ele><time>2026-04-19T07:55:57.201Z</time></trkpt><trkpt lat="46.3304345" lon="12.8027228"><ele>499.5</ele><time>2026-04-19T07:55:58.2Z</time></trkpt><trkpt lat="46.3303368" lon="12.8028832"><ele>497.0</ele><time>2026-04-19T07:55:59.202Z</time></trkpt><trkpt lat="46.3302378" lon="12.8029788"><ele>497.0</ele><time>2026-04-19T07:56:00.201Z</time></trkpt><trkpt lat="46.3301377" lon="12.8030774"><ele>497.0</ele><time>2026-04-19T07:56:01.2Z</time></trkpt><trkpt lat="46.3299986" lon="12.8031197"><ele>497.0</ele><time>2026-04-19T07:56:02.201Z</time></trkpt><trkpt lat="46.329871" lon="12.8031609"><ele>497.0</ele><time>2026-04-19T07:56:03.201Z</time></trkpt><trkpt lat="46.3297326" lon="12.8031951"><ele>499.0</ele><time>2026-04-19T07:56:04.201Z</time></trkpt><trkpt lat="46.3295874" lon="12.8032229"><ele>501.0</ele><time>2026-04-19T07:56:05.2Z</time></trkpt><trkpt lat="46.3294338" lon="12.8032497"><ele>503.0</ele><time>2026-04-19T07:56:06.201Z</time></trkpt><trkpt lat="46.3292713" lon="12.803271"><ele>503.0</ele><time>2026-04-19T07:56:07.201Z</time></trkpt><trkpt lat="46.3290966" lon="12.8032901"><ele>503.0</ele><time>2026-04-19T07:56:08.202Z</time></trkpt><trkpt lat="46.3289167" lon="12.8033015"><ele>503.0</ele><time>2026-04-19T07:56:09.201Z</time></trkpt><trkpt lat="46.328742" lon="12.8033066"><ele>506.3333333333333</ele><time>2026-04-19T07:56:10.201Z</time></trkpt><trkpt lat="46.3285692" lon="12.8033198"><ele>509.66666666666663</ele><time>2026-04-19T07:56:11.201Z</time></trkpt><trkpt lat="46.3284106" lon="12.8033619"><ele>513.0</ele><time>2026-04-19T07:56:12.202Z</time></trkpt><trkpt lat="46.3282692" lon="12.8034131"><ele>513.0</ele><time>2026-04-19T07:56:13.201Z</time></trkpt><trkpt lat="46.3281432" lon="12.8034691"><ele>513.0</ele><time>2026-04-19T07:56:14.201Z</time></trkpt><trkpt lat="46.3280234" lon="12.8035146"><ele>513.0</ele><time>2026-04-19T07:56:15.2Z</time></trkpt><trkpt lat="46.3279056" lon="12.8035406"><ele>513.0</ele><time>2026-04-19T07:56:16.201Z</time></trkpt><trkpt lat="46.3277704" lon="12.8034835"><ele>512.0</ele><time>2026-04-19T07:56:17.201Z</time></trkpt><trkpt lat="46.3276395" lon="12.8034631"><ele>511.0</ele><time>2026-04-19T07:56:18.201Z</time></trkpt><trkpt lat="46.3274891" lon="12.8034618"><ele>510.0</ele><time>2026-04-19T07:56:19.201Z</time></trkpt><trkpt lat="46.3273508" lon="12.8034669"><ele>509.0</ele><time>2026-04-19T07:56:20.201Z</time></trkpt><trkpt lat="46.3272215" lon="12.8034734"><ele>509.0</ele><time>2026-04-19T07:56:21.201Z</time></trkpt><trkpt lat="46.3270987" lon="12.8034667"><ele>509.0</ele><time>2026-04-19T07:56:22.2Z</time></trkpt><trkpt lat="46.3269883" lon="12.8034342"><ele>509.0</ele><time>2026-04-19T07:56:23.2Z</time></trkpt><trkpt lat="46.3268831" lon="12.8033715"><ele>509.0</ele><time>2026-04-19T07:56:24.202Z</time></trkpt><trkpt lat="46.3267799" lon="12.803318"><ele>509.0</ele><time>2026-04-19T07:56:25.2Z</time></trkpt><trkpt lat="46.326663" lon="12.8032916"><ele>509.0</ele><time>2026-04-19T07:56:26.201Z</time></trkpt><trkpt lat="46.326539" lon="12.8033035"><ele>509.0</ele><time>2026-04-19T07:56:27.201Z</time></trkpt><trkpt lat="46.3264071" lon="12.803352"><ele>509.0</ele><time>2026-04-19T07:56:28.201Z</time></trkpt><trkpt lat="46.3262826" lon="12.8033948"><ele>509.5</ele><time>2026-04-19T07:56:29.202Z</time></trkpt><trkpt lat="46.3261596" lon="12.8034632"><ele>510.0</ele><time>2026-04-19T07:56:30.2Z</time></trkpt><trkpt lat="46.3260534" lon="12.8035848"><ele>510.5</ele><time>2026-04-19T07:56:31.201Z</time></trkpt><trkpt lat="46.3259546" lon="12.8037147"><ele>511.0</ele><time>2026-04-19T07:56:32.2Z</time></trkpt><trkpt lat="46.3258595" lon="12.8038267"><ele>506.0</ele><time>2026-04-19T07:56:33.201Z</time></trkpt><trkpt lat="46.3257485" lon="12.8039081"><ele>501.0</ele><time>2026-04-19T07:56:34.201Z</time></trkpt><trkpt lat="46.325634" lon="12.8039443"><ele>496.0</ele><time>2026-04-19T07:56:35.2Z</time></trkpt><trkpt lat="46.3255195" lon="12.8039364"><ele>491.0</ele><time>2026-04-19T07:56:36.202Z</time></trkpt><trkpt lat="46.325418" lon="12.8038856"><ele>492.0</ele><time>2026-04-19T07:56:37.2Z</time></trkpt><trkpt lat="46.3253281" lon="12.8037849"><ele>493.0</ele><time>2026-04-19T07:56:38.201Z</time></trkpt><trkpt lat="46.3252342" lon="12.8036744"><ele>494.0</ele><time>2026-04-19T07:56:39.2Z</time></trkpt><trkpt lat="46.3251544" lon="12.8035194"><ele>495.0</ele><time>2026-04-19T07:56:40.201Z</time></trkpt><trkpt lat="46.3250764" lon="12.8033666"><ele>495.0</ele><time>2026-04-19T07:56:41.201Z</time></trkpt><trkpt lat="46.3249959" lon="12.8032165"><ele>495.0</ele><time>2026-04-19T07:56:42.201Z</time></trkpt><trkpt lat="46.3249208" lon="12.8030685"><ele>495.0</ele><time>2026-04-19T07:56:43.201Z</time></trkpt><trkpt lat="46.3248632" lon="12.8029242"><ele>495.0</ele><time>2026-04-19T07:56:44.202Z</time></trkpt><trkpt lat="46.3248444" lon="12.8027707"><ele>496.6</ele><time>2026-04-19T07:56:45.202Z</time></trkpt><trkpt lat="46.3248427" lon="12.8026245"><ele>498.2</ele><time>2026-04-19T07:56:46.201Z</time></trkpt><trkpt lat="46.3248348" lon="12.8024966"><ele>499.79999999999995</ele><time>2026-04-19T07:56:47.201Z</time></trkpt><trkpt lat="46.3248047" lon="12.8023841"><ele>501.4</ele><time>2026-04-19T07:56:48.202Z</time></trkpt><trkpt lat="46.3247482" lon="12.802292"><ele>503.0</ele><time>2026-04-19T07:56:49.201Z</time></trkpt><trkpt lat="46.3246579" lon="12.802213"><ele>496.5</ele><time>2026-04-19T07:56:50.2Z</time></trkpt><trkpt lat="46.324534" lon="12.8021451"><ele>490.0</ele><time>2026-04-19T07:56:51.2Z</time></trkpt><trkpt lat="46.3244089" lon="12.8020775"><ele>483.5</ele><time>2026-04-19T07:56:52.201Z</time></trkpt><trkpt lat="46.3242708" lon="12.8019824"><ele>477.0</ele><time>2026-04-19T07:56:53.201Z</time></trkpt><trkpt lat="46.3241419" lon="12.8018613"><ele>474.33333333333337</ele><time>2026-04-19T07:56:54.2Z</time></trkpt><trkpt lat="46.3240099" lon="12.8017073"><ele>471.6666666666667</ele><time>2026-04-19T07:56:55.2Z</time></trkpt><trkpt lat="46.32389" lon="12.8015332"><ele>469.0</ele><time>2026-04-19T07:56:56.202Z</time></trkpt><trkpt lat="46.323775" lon="12.8013644"><ele>469.0</ele><time>2026-04-19T07:56:57.2Z</time></trkpt><trkpt lat="46.3236589" lon="12.8012028"><ele>469.0</ele><time>2026-04-19T07:56:58.202Z</time></trkpt><trkpt lat="46.3235415" lon="12.8010464"><ele>469.0</ele><time>2026-04-19T07:56:59.202Z</time></trkpt><trkpt lat="46.3234173" lon="12.8009037"><ele>466.0</ele><time>2026-04-19T07:57:00.201Z</time></trkpt><trkpt lat="46.3232895" lon="12.8007595"><ele>463.0</ele><time>2026-04-19T07:57:01.201Z</time></trkpt><trkpt lat="46.3231568" lon="12.8006095"><ele>460.0</ele><time>2026-04-19T07:57:02.201Z</time></trkpt><trkpt lat="46.3230259" lon="12.8004566"><ele>460.0</ele><time>2026-04-19T07:57:03.2Z</time></trkpt><trkpt lat="46.3229062" lon="12.8003028"><ele>460.0</ele><time>2026-04-19T07:57:04.2Z</time></trkpt><trkpt lat="46.3228065" lon="12.8001319"><ele>460.0</ele><time>2026-04-19T07:57:05.2Z</time></trkpt><trkpt lat="46.3227226" lon="12.7999429"><ele>461.0</ele><time>2026-04-19T07:57:06.2Z</time></trkpt><trkpt lat="46.322649" lon="12.7997433"><ele>462.0</ele><time>2026-04-19T07:57:07.202Z</time></trkpt><trkpt lat="46.322578" lon="12.7995296"><ele>463.0</ele><time>2026-04-19T07:57:08.201Z</time></trkpt><trkpt lat="46.3225116" lon="12.7993024"><ele>465.6666666666667</ele><time>2026-04-19T07:57:09.201Z</time></trkpt><trkpt lat="46.3224457" lon="12.7990795"><ele>468.33333333333337</ele><time>2026-04-19T07:57:10.202Z</time></trkpt><trkpt lat="46.3223656" lon="12.7988609"><ele>471.0</ele><time>2026-04-19T07:57:11.202Z</time></trkpt><trkpt lat="46.3222793" lon="12.7986467"><ele>466.66666666666663</ele><time>2026-04-19T07:57:12.201Z</time></trkpt><trkpt lat="46.3221833" lon="12.7984388"><ele>462.3333333333333</ele><time>2026-04-19T07:57:13.201Z</time></trkpt><trkpt lat="46.3220843" lon="12.7982367"><ele>458.0</ele><time>2026-04-19T07:57:14.201Z</time></trkpt><trkpt lat="46.3219931" lon="12.7980277"><ele>458.0</ele><time>2026-04-19T07:57:15.201Z</time></trkpt><trkpt lat="46.3219254" lon="12.797796"><ele>458.0</ele><time>2026-04-19T07:57:16.2Z</time></trkpt><trkpt lat="46.3218618" lon="12.7975664"><ele>458.0</ele><time>2026-04-19T07:57:17.2Z</time></trkpt><trkpt lat="46.3218001" lon="12.7973435"><ele>458.5</ele><time>2026-04-19T07:57:18.201Z</time></trkpt><trkpt lat="46.3217456" lon="12.7971187"><ele>459.0</ele><time>2026-04-19T07:57:19.202Z</time></trkpt><trkpt lat="46.3217015" lon="12.7969101"><ele>459.5</ele><time>2026-04-19T07:57:20.201Z</time></trkpt><trkpt lat="46.3216712" lon="12.7967221"><ele>460.0</ele><time>2026-04-19T07:57:21.202Z</time></trkpt><trkpt lat="46.3216492" lon="12.7965609"><ele>460.5</ele><time>2026-04-19T07:57:22.2Z</time></trkpt><trkpt lat="46.3216532" lon="12.7964055"><ele>461.0</ele><time>2026-04-19T07:57:23.2Z</time></trkpt><trkpt lat="46.3216732" lon="12.7962477"><ele>461.5</ele><time>2026-04-19T07:57:24.201Z</time></trkpt><trkpt lat="46.3217291" lon="12.796107"><ele>462.0</ele><time>2026-04-19T07:57:25.201Z</time></trkpt><trkpt lat="46.3217656" lon="12.7959282"><ele>458.5</ele><time>2026-04-19T07:57:26.201Z</time></trkpt><trkpt lat="46.321787" lon="12.7957274"><ele>455.0</ele><time>2026-04-19T07:57:27.201Z</time></trkpt><trkpt lat="46.3217949" lon="12.7955371"><ele>451.5</ele><time>2026-04-19T07:57:28.2Z</time></trkpt><trkpt lat="46.3217931" lon="12.7953665"><ele>448.0</ele><time>2026-04-19T07:57:29.2Z</time></trkpt><trkpt lat="46.3217834" lon="12.7952221"><ele>449.79999999999995</ele><time>2026-04-19T07:57:30.201Z</time></trkpt><trkpt lat="46.3217387" lon="12.7950843"><ele>451.59999999999997</ele><time>2026-04-19T07:57:31.201Z</time></trkpt><trkpt lat="46.3216701" lon="12.7949615"><ele>453.40000000000003</ele><time>2026-04-19T07:57:32.201Z</time></trkpt><trkpt lat="46.321589" lon="12.7948653"><ele>455.20000000000005</ele><time>2026-04-19T07:57:33.201Z</time></trkpt><trkpt lat="46.3214968" lon="12.794793"><ele>457.0</ele><time>2026-04-19T07:57:34.201Z</time></trkpt><trkpt lat="46.3213944" lon="12.7947677"><ele>457.25</ele><time>2026-04-19T07:57:35.201Z</time></trkpt><trkpt lat="46.3212803" lon="12.7947853"><ele>457.5</ele><time>2026-04-19T07:57:36.201Z</time></trkpt><trkpt lat="46.3211622" lon="12.7948423"><ele>457.75</ele><time>2026-04-19T07:57:37.201Z</time></trkpt><trkpt lat="46.3210467" lon="12.7949216"><ele>458.0</ele><time>2026-04-19T07:57:38.201Z</time></trkpt><trkpt lat="46.3209307" lon="12.7949795"><ele>458.0</ele><time>2026-04-19T07:57:39.2Z</time></trkpt><trkpt lat="46.320813" lon="12.7949733"><ele>458.0</ele><time>2026-04-19T07:57:40.201Z</time></trkpt><trkpt lat="46.3207084" lon="12.7949435"><ele>458.0</ele><time>2026-04-19T07:57:41.201Z</time></trkpt><trkpt lat="46.3206107" lon="12.7948618"><ele>458.0</ele><time>2026-04-19T07:57:42.2Z</time></trkpt><trkpt lat="46.3205196" lon="12.7947464"><ele>454.59999999999997</ele><time>2026-04-19T07:57:43.201Z</time></trkpt><trkpt lat="46.3204427" lon="12.7946253"><ele>451.19999999999993</ele><time>2026-04-19T07:57:44.201Z</time></trkpt><trkpt lat="46.3203662" lon="12.7945127"><ele>447.8</ele><time>2026-04-19T07:57:45.201Z</time></trkpt><trkpt lat="46.3202848" lon="12.7944215"><ele>444.4</ele><time>2026-04-19T07:57:46.202Z</time></trkpt><trkpt lat="46.320198" lon="12.7943776"><ele>441.0</ele><time>2026-04-19T07:57:47.2Z</time></trkpt><trkpt lat="46.3201068" lon="12.7943762"><ele>441.0</ele><time>2026-04-19T07:57:48.201Z</time></trkpt><trkpt lat="46.3200056" lon="12.794416"><ele>441.0</ele><time>2026-04-19T07:57:49.201Z</time></trkpt><trkpt lat="46.3199057" lon="12.7944682"><ele>441.0</ele><time>2026-04-19T07:57:50.201Z</time></trkpt><trkpt lat="46.3198329" lon="12.7945632"><ele>441.0</ele><time>2026-04-19T07:57:51.2Z</time></trkpt><trkpt lat="46.3197623" lon="12.7946375"><ele>441.0</ele><time>2026-04-19T07:57:52.201Z</time></trkpt><trkpt lat="46.3196931" lon="12.7946663"><ele>439.6</ele><time>2026-04-19T07:57:53.201Z</time></trkpt><trkpt lat="46.3196091" lon="12.7946701"><ele>438.20000000000005</ele><time>2026-04-19T07:57:54.201Z</time></trkpt><trkpt lat="46.3195182" lon="12.7946019"><ele>436.79999999999995</ele><time>2026-04-19T07:57:55.2Z</time></trkpt><trkpt lat="46.3194006" lon="12.7945412"><ele>435.4</ele><time>2026-04-19T07:57:56.201Z</time></trkpt><trkpt lat="46.3192755" lon="12.794495"><ele>434.0</ele><time>2026-04-19T07:57:57.201Z</time></trkpt><trkpt lat="46.3191257" lon="12.7944452"><ele>434.0</ele><time>2026-04-19T07:57:58.202Z</time></trkpt><trkpt lat="46.3189696" lon="12.7943667"><ele>434.0</ele><time>2026-04-19T07:57:59.201Z</time></trkpt><trkpt lat="46.3188146" lon="12.7942898"><ele>434.0</ele><time>2026-04-19T07:58:00.2Z</time></trkpt><trkpt lat="46.318644" lon="12.7941988"><ele>443.0</ele><time>2026-04-19T07:58:01.201Z</time></trkpt><trkpt lat="46.318479" lon="12.7941078"><ele>452.0</ele><time>2026-04-19T07:58:02.201Z</time></trkpt><trkpt lat="46.318308" lon="12.7940322"><ele>461.0</ele><time>2026-04-19T07:58:03.201Z</time></trkpt><trkpt lat="46.3181234" lon="12.7939788"><ele>456.66666666666663</ele><time>2026-04-19T07:58:04.201Z</time></trkpt><trkpt lat="46.3179396" lon="12.7939204"><ele>452.33333333333337</ele><time>2026-04-19T07:58:05.2Z</time></trkpt><trkpt lat="46.3177653" lon="12.7938704"><ele>448.0</ele><time>2026-04-19T07:58:06.201Z</time></trkpt><trkpt lat="46.3175938" lon="12.7938226"><ele>448.0</ele><time>2026-04-19T07:58:07.201Z</time></trkpt><trkpt lat="46.3174326" lon="12.7937671"><ele>448.0</ele><time>2026-04-19T07:58:08.201Z</time></trkpt><trkpt lat="46.3172722" lon="12.7937248"><ele>448.0</ele><time>2026-04-19T07:58:09.2Z</time></trkpt><trkpt lat="46.3171153" lon="12.7936902"><ele>445.33333333333337</ele><time>2026-04-19T07:58:10.202Z</time></trkpt><trkpt lat="46.3169664" lon="12.7936459"><ele>442.66666666666663</ele><time>2026-04-19T07:58:11.201Z</time></trkpt><trkpt lat="46.3168166" lon="12.7936043"><ele>440.0</ele><time>2026-04-19T07:58:12.201Z</time></trkpt><trkpt lat="46.3166704" lon="12.793564"><ele>440.0</ele><time>2026-04-19T07:58:13.201Z</time></trkpt><trkpt lat="46.3165244" lon="12.7935204"><ele>440.0</ele><time>2026-04-19T07:58:14.201Z</time></trkpt><trkpt lat="46.3163806" lon="12.7934754"><ele>440.0</ele><time>2026-04-19T07:58:15.201Z</time></trkpt><trkpt lat="46.316235" lon="12.7934405"><ele>440.0</ele><time>2026-04-19T07:58:16.201Z</time></trkpt><trkpt lat="46.316094" lon="12.7933997"><ele>440.25</ele><time>2026-04-19T07:58:17.202Z</time></trkpt><trkpt lat="46.315957" lon="12.7933596"><ele>440.5</ele><time>2026-04-19T07:58:18.201Z</time></trkpt><trkpt lat="46.3158208" lon="12.7933182"><ele>440.75</ele><time>2026-04-19T07:58:19.201Z</time></trkpt><trkpt lat="46.3156811" lon="12.7932807"><ele>441.0</ele><time>2026-04-19T07:58:20.202Z</time></trkpt><trkpt lat="46.3155467" lon="12.7932384"><ele>441.0</ele><time>2026-04-19T07:58:21.202Z</time></trkpt><trkpt lat="46.3154135" lon="12.7931871"><ele>441.0</ele><time>2026-04-19T07:58:22.201Z</time></trkpt><trkpt lat="46.3152815" lon="12.7931297"><ele>441.0</ele><time>2026-04-19T07:58:23.202Z</time></trkpt><trkpt lat="46.3151513" lon="12.7930609"><ele>441.0</ele><time>2026-04-19T07:58:24.201Z</time></trkpt><trkpt lat="46.3150253" lon="12.7929893"><ele>441.0</ele><time>2026-04-19T07:58:25.201Z</time></trkpt><trkpt lat="46.3148975" lon="12.7929218"><ele>441.0</ele><time>2026-04-19T07:58:26.201Z</time></trkpt><trkpt lat="46.3147653" lon="12.792869"><ele>441.0</ele><time>2026-04-19T07:58:27.2Z</time></trkpt><trkpt lat="46.3146322" lon="12.7928431"><ele>441.0</ele><time>2026-04-19T07:58:28.2Z</time></trkpt><trkpt lat="46.3144987" lon="12.7928245"><ele>439.25</ele><time>2026-04-19T07:58:29.201Z</time></trkpt><trkpt lat="46.314361" lon="12.792815"><ele>437.5</ele><time>2026-04-19T07:58:30.201Z</time></trkpt><trkpt lat="46.3142246" lon="12.7928004"><ele>435.75</ele><time>2026-04-19T07:58:31.201Z</time></trkpt><trkpt lat="46.3140837" lon="12.7927839"><ele>434.0</ele><time>2026-04-19T07:58:32.2Z</time></trkpt><trkpt lat="46.3139443" lon="12.7927559"><ele>433.75</ele><time>2026-04-19T07:58:33.2Z</time></trkpt><trkpt lat="46.3138049" lon="12.792718"><ele>433.5</ele><time>2026-04-19T07:58:34.2Z</time></trkpt><trkpt lat="46.3136662" lon="12.7926783"><ele>433.25</ele><time>2026-04-19T07:58:35.201Z</time></trkpt><trkpt lat="46.3135265" lon="12.7926381"><ele>433.0</ele><time>2026-04-19T07:58:36.2Z</time></trkpt><trkpt lat="46.3133883" lon="12.7925977"><ele>433.0</ele><time>2026-04-19T07:58:37.201Z</time></trkpt><trkpt lat="46.3132469" lon="12.7925584"><ele>433.0</ele><time>2026-04-19T07:58:38.201Z</time></trkpt><trkpt lat="46.3131048" lon="12.7925204"><ele>433.0</ele><time>2026-04-19T07:58:39.201Z</time></trkpt><trkpt lat="46.3129641" lon="12.7924772"><ele>433.0</ele><time>2026-04-19T07:58:40.201Z</time></trkpt><trkpt lat="46.3128207" lon="12.7924381"><ele>431.75</ele><time>2026-04-19T07:58:41.201Z</time></trkpt><trkpt lat="46.3126784" lon="12.7923944"><ele>430.5</ele><time>2026-04-19T07:58:42.201Z</time></trkpt><trkpt lat="46.3125361" lon="12.7923563"><ele>429.25</ele><time>2026-04-19T07:58:43.201Z</time></trkpt><trkpt lat="46.3123953" lon="12.7923181"><ele>428.0</ele><time>2026-04-19T07:58:44.201Z</time></trkpt><trkpt lat="46.3122544" lon="12.7922771"><ele>427.5</ele><time>2026-04-19T07:58:45.201Z</time></trkpt><trkpt lat="46.3121121" lon="12.792236"><ele>427.0</ele><time>2026-04-19T07:58:46.201Z</time></trkpt><trkpt lat="46.3119714" lon="12.7921965"><ele>426.5</ele><time>2026-04-19T07:58:47.2Z</time></trkpt><trkpt lat="46.3118305" lon="12.7921571"><ele>426.0</ele><time>2026-04-19T07:58:48.201Z</time></trkpt><trkpt lat="46.3116897" lon="12.7921182"><ele>426.0</ele><time>2026-04-19T07:58:49.201Z</time></trkpt><trkpt lat="46.3115517" lon="12.7920702"><ele>426.0</ele><time>2026-04-19T07:58:50.201Z</time></trkpt><trkpt lat="46.3114174" lon="12.792014"><ele>426.0</ele><time>2026-04-19T07:58:51.201Z</time></trkpt><trkpt lat="46.3112867" lon="12.7919416"><ele>426.0</ele><time>2026-04-19T07:58:52.201Z</time></trkpt><trkpt lat="46.3111665" lon="12.7918511"><ele>425.25</ele><time>2026-04-19T07:58:53.201Z</time></trkpt><trkpt lat="46.3110535" lon="12.7917506"><ele>424.5</ele><time>2026-04-19T07:58:54.201Z</time></trkpt><trkpt lat="46.3109405" lon="12.7916506"><ele>423.75</ele><time>2026-04-19T07:58:55.202Z</time></trkpt><trkpt lat="46.3108294" lon="12.7915542"><ele>423.0</ele><time>2026-04-19T07:58:56.2Z</time></trkpt><trkpt lat="46.3107195" lon="12.7914562"><ele>423.0</ele><time>2026-04-19T07:58:57.201Z</time></trkpt><trkpt lat="46.3106097" lon="12.7913592"><ele>423.0</ele><time>2026-04-19T07:58:58.201Z</time></trkpt><trkpt lat="46.3104985" lon="12.7912631"><ele>423.0</ele><time>2026-04-19T07:58:59.201Z</time></trkpt><trkpt lat="46.3103881" lon="12.7911696"><ele>423.0</ele><time>2026-04-19T07:59:00.201Z</time></trkpt><trkpt lat="46.3102818" lon="12.7910815"><ele>422.25</ele><time>2026-04-19T07:59:01.201Z</time></trkpt><trkpt lat="46.3101763" lon="12.7909935"><ele>421.5</ele><time>2026-04-19T07:59:02.202Z</time></trkpt><trkpt lat="46.3100691" lon="12.7909026"><ele>420.75</ele><time>2026-04-19T07:59:03.201Z</time></trkpt><trkpt lat="46.3099631" lon="12.7908083"><ele>420.0</ele><time>2026-04-19T07:59:04.201Z</time></trkpt><trkpt lat="46.3098584" lon="12.7907115"><ele>420.0</ele><time>2026-04-19T07:59:05.201Z</time></trkpt><trkpt lat="46.3097552" lon="12.7906151"><ele>420.0</ele><time>2026-04-19T07:59:06.2Z</time></trkpt><trkpt lat="46.3096509" lon="12.7905249"><ele>420.0</ele><time>2026-04-19T07:59:07.201Z</time></trkpt><trkpt lat="46.309547" lon="12.790436"><ele>420.0</ele><time>2026-04-19T07:59:08.2Z</time></trkpt><trkpt lat="46.3094459" lon="12.7903503"><ele>419.0</ele><time>2026-04-19T07:59:09.2Z</time></trkpt><trkpt lat="46.3093441" lon="12.7902656"><ele>418.0</ele><time>2026-04-19T07:59:10.201Z</time></trkpt><trkpt lat="46.3092422" lon="12.7901798"><ele>417.0</ele><time>2026-04-19T07:59:11.201Z</time></trkpt><trkpt lat="46.3091424" lon="12.7900956"><ele>416.0</ele><time>2026-04-19T07:59:12.201Z</time></trkpt><trkpt lat="46.3090454" lon="12.7900127"><ele>416.0</ele><time>2026-04-19T07:59:13.202Z</time></trkpt><trkpt lat="46.3089586" lon="12.7899387"><ele>416.0</ele><time>2026-04-19T07:59:14.2Z</time></trkpt><trkpt lat="46.3088759" lon="12.7898698"><ele>416.0</ele><time>2026-04-19T07:59:15.201Z</time></trkpt><trkpt lat="46.3087934" lon="12.7898126"><ele>416.0</ele><time>2026-04-19T07:59:16.201Z</time></trkpt><trkpt lat="46.3087038" lon="12.7897692"><ele>416.0</ele><time>2026-04-19T07:59:17.2Z</time></trkpt><trkpt lat="46.3086185" lon="12.7897369"><ele>414.4</ele><time>2026-04-19T07:59:18.2Z</time></trkpt><trkpt lat="46.3085239" lon="12.7897146"><ele>412.8</ele><time>2026-04-19T07:59:19.2Z</time></trkpt><trkpt lat="46.3084295" lon="12.7896913"><ele>411.2</ele><time>2026-04-19T07:59:20.201Z</time></trkpt><trkpt lat="46.3083355" lon="12.7896701"><ele>409.59999999999997</ele><time>2026-04-19T07:59:21.201Z</time></trkpt><trkpt lat="46.3082394" lon="12.7896515"><ele>408.0</ele><time>2026-04-19T07:59:22.202Z</time></trkpt><trkpt lat="46.3081464" lon="12.7896332"><ele>407.6666666666667</ele><time>2026-04-19T07:59:23.2Z</time></trkpt><trkpt lat="46.3080565" lon="12.7896011"><ele>407.33333333333337</ele><time>2026-04-19T07:59:24.201Z</time></trkpt><trkpt lat="46.3079729" lon="12.7895783"><ele>407.0</ele><time>2026-04-19T07:59:25.201Z</time></trkpt><trkpt lat="46.3079023" lon="12.7895604"><ele>406.6666666666667</ele><time>2026-04-19T07:59:26.201Z</time></trkpt><trkpt lat="46.3078369" lon="12.7895645"><ele>406.33333333333337</ele><time>2026-04-19T07:59:27.201Z</time></trkpt><trkpt lat="46.3077716" lon="12.7895945"><ele>406.0</ele><time>2026-04-19T07:59:28.201Z</time></trkpt><trkpt lat="46.3077036" lon="12.7896653"><ele>406.0</ele><time>2026-04-19T07:59:29.201Z</time></trkpt><trkpt lat="46.3076442" lon="12.7897738"><ele>406.0</ele><time>2026-04-19T07:59:30.2Z</time></trkpt><trkpt lat="46.3075989" lon="12.7898986"><ele>406.0</ele><time>2026-04-19T07:59:31.201Z</time></trkpt><trkpt lat="46.307572" lon="12.7900257"><ele>406.0</ele><time>2026-04-19T07:59:32.201Z</time></trkpt><trkpt lat="46.3075583" lon="12.7901524"><ele>406.0</ele><time>2026-04-19T07:59:33.202Z</time></trkpt><trkpt lat="46.3075668" lon="12.7902812"><ele>403.0</ele><time>2026-04-19T07:59:34.201Z</time></trkpt><trkpt lat="46.3075961" lon="12.7904163"><ele>400.0</ele><time>2026-04-19T07:59:35.202Z</time></trkpt><trkpt lat="46.3076511" lon="12.7905477"><ele>397.0</ele><time>2026-04-19T07:59:36.201Z</time></trkpt><trkpt lat="46.3077249" lon="12.7906775"><ele>394.0</ele><time>2026-04-19T07:59:37.201Z</time></trkpt><trkpt lat="46.3078275" lon="12.790796"><ele>394.0</ele><time>2026-04-19T07:59:38.201Z</time></trkpt><trkpt lat="46.3079228" lon="12.7909162"><ele>394.0</ele><time>2026-04-19T07:59:39.201Z</time></trkpt><trkpt lat="46.3080013" lon="12.7910594"><ele>394.0</ele><time>2026-04-19T07:59:40.201Z</time></trkpt><trkpt lat="46.308072" lon="12.7912131"><ele>394.0</ele><time>2026-04-19T07:59:41.201Z</time></trkpt><trkpt lat="46.3081296" lon="12.7913803"><ele>393.75</ele><time>2026-04-19T07:59:42.2Z</time></trkpt><trkpt lat="46.308186" lon="12.7915519"><ele>393.5</ele><time>2026-04-19T07:59:43.201Z</time></trkpt><trkpt lat="46.3082446" lon="12.7917292"><ele>393.25</ele><time>2026-04-19T07:59:44.201Z</time></trkpt><trkpt lat="46.3082975" lon="12.7919093"><ele>393.0</ele><time>2026-04-19T07:59:45.2Z</time></trkpt><trkpt lat="46.3083428" lon="12.7920956"><ele>393.0</ele><time>2026-04-19T07:59:46.201Z</time></trkpt><trkpt lat="46.3083797" lon="12.7922891"><ele>393.0</ele><time>2026-04-19T07:59:47.2Z</time></trkpt><trkpt lat="46.3084029" lon="12.7924858"><ele>393.0</ele><time>2026-04-19T07:59:48.2Z</time></trkpt><trkpt lat="46.3084042" lon="12.7926855"><ele>393.0</ele><time>2026-04-19T07:59:49.201Z</time></trkpt><trkpt lat="46.3083894" lon="12.7928791"><ele>392.25</ele><time>2026-04-19T07:59:50.201Z</time></trkpt><trkpt lat="46.3083798" lon="12.7930786"><ele>391.5</ele><time>2026-04-19T07:59:51.201Z</time></trkpt><trkpt lat="46.3083813" lon="12.7932803"><ele>390.75</ele><time>2026-04-19T07:59:52.201Z</time></trkpt><trkpt lat="46.3083677" lon="12.793485"><ele>390.0</ele><time>2026-04-19T07:59:53.2Z</time></trkpt><trkpt lat="46.3083386" lon="12.7936928"><ele>391.5</ele><time>2026-04-19T07:59:54.2Z</time></trkpt><trkpt lat="46.3082992" lon="12.7938947"><ele>393.0</ele><time>2026-04-19T07:59:55.2Z</time></trkpt><trkpt lat="46.3082503" lon="12.7940935"><ele>394.5</ele><time>2026-04-19T07:59:56.201Z</time></trkpt><trkpt lat="46.3081928" lon="12.7942894"><ele>396.0</ele><time>2026-04-19T07:59:57.202Z</time></trkpt><trkpt lat="46.3081283" lon="12.7944752"><ele>392.25</ele><time>2026-04-19T07:59:58.2Z</time></trkpt><trkpt lat="46.3080549" lon="12.7946559"><ele>388.5</ele><time>2026-04-19T07:59:59.201Z</time></trkpt><trkpt lat="46.3079717" lon="12.7948388"><ele>384.75</ele><time>2026-04-19T08:00:00.201Z</time></trkpt><trkpt lat="46.3078835" lon="12.7950171"><ele>381.0</ele><time>2026-04-19T08:00:01.2Z</time></trkpt><trkpt lat="46.3077921" lon="12.7951898"><ele>381.0</ele><time>2026-04-19T08:00:02.201Z</time></trkpt><trkpt lat="46.3076948" lon="12.7953592"><ele>381.0</ele><time>2026-04-19T08:00:03.201Z</time></trkpt><trkpt lat="46.307595" lon="12.7955215"><ele>381.0</ele><time>2026-04-19T08:00:04.201Z</time></trkpt><trkpt lat="46.3074975" lon="12.795675"><ele>381.0</ele><time>2026-04-19T08:00:05.2Z</time></trkpt><trkpt lat="46.3073944" lon="12.7958134"><ele>381.0</ele><time>2026-04-19T08:00:06.2Z</time></trkpt><trkpt lat="46.3072839" lon="12.7959323"><ele>381.0</ele><time>2026-04-19T08:00:07.2Z</time></trkpt><trkpt lat="46.3071751" lon="12.7960365"><ele>381.0</ele><time>2026-04-19T08:00:08.201Z</time></trkpt><trkpt lat="46.3070677" lon="12.7961113"><ele>381.0</ele><time>2026-04-19T08:00:09.2Z</time></trkpt><trkpt lat="46.3069581" lon="12.7961555"><ele>380.8</ele><time>2026-04-19T08:00:10.2Z</time></trkpt><trkpt lat="46.306856" lon="12.7961675"><ele>380.6</ele><time>2026-04-19T08:00:11.201Z</time></trkpt><trkpt lat="46.306759" lon="12.7961723"><ele>380.4</ele><time>2026-04-19T08:00:12.201Z</time></trkpt><trkpt lat="46.3066646" lon="12.796174"><ele>380.2</ele><time>2026-04-19T08:00:13.201Z</time></trkpt><trkpt lat="46.306571" lon="12.7961576"><ele>380.0</ele><time>2026-04-19T08:00:14.201Z</time></trkpt><trkpt lat="46.3064931" lon="12.7961181"><ele>380.0</ele><time>2026-04-19T08:00:15.201Z</time></trkpt><trkpt lat="46.3064267" lon="12.7960442"><ele>380.0</ele><time>2026-04-19T08:00:16.201Z</time></trkpt><trkpt lat="46.3063673" lon="12.7959421"><ele>380.0</ele><time>2026-04-19T08:00:17.201Z</time></trkpt><trkpt lat="46.3063122" lon="12.7958269"><ele>380.0</ele><time>2026-04-19T08:00:18.201Z</time></trkpt><trkpt lat="46.3062569" lon="12.7957139"><ele>380.0</ele><time>2026-04-19T08:00:19.2Z</time></trkpt><trkpt lat="46.3062043" lon="12.7956116"><ele>379.0</ele><time>2026-04-19T08:00:20.201Z</time></trkpt><trkpt lat="46.3061538" lon="12.7955143"><ele>378.0</ele><time>2026-04-19T08:00:21.2Z</time></trkpt><trkpt lat="46.3061035" lon="12.7954241"><ele>377.0</ele><time>2026-04-19T08:00:22.202Z</time></trkpt><trkpt lat="46.3060464" lon="12.795344"><ele>376.0</ele><time>2026-04-19T08:00:23.201Z</time></trkpt><trkpt lat="46.3059881" lon="12.7952784"><ele>375.0</ele><time>2026-04-19T08:00:24.201Z</time></trkpt><trkpt lat="46.3059277" lon="12.795218"><ele>374.0</ele><time>2026-04-19T08:00:25.202Z</time></trkpt><trkpt lat="46.3058666" lon="12.7951744"><ele>374.0</ele><time>2026-04-19T08:00:26.201Z</time></trkpt><trkpt lat="46.3057648" lon="12.7951586"><ele>374.0</ele><time>2026-04-19T08:00:28.2Z</time></trkpt><trkpt lat="46.3057003" lon="12.7952919"><ele>374.0</ele><time>2026-04-19T08:00:30.201Z</time></trkpt><trkpt lat="46.3056901" lon="12.7954097"><ele>374.0</ele><time>2026-04-19T08:00:31.202Z</time></trkpt><trkpt lat="46.3056787" lon="12.7955503"><ele>374.0</ele><time>2026-04-19T08:00:32.2Z</time></trkpt><trkpt lat="46.3056623" lon="12.7956921"><ele>374.0</ele><time>2026-04-19T08:00:33.2Z</time></trkpt><trkpt lat="46.305653" lon="12.7958354"><ele>374.0</ele><time>2026-04-19T08:00:34.201Z</time></trkpt><trkpt lat="46.3056393" lon="12.7959791"><ele>374.0</ele><time>2026-04-19T08:00:35.201Z</time></trkpt><trkpt lat="46.3055955" lon="12.7961031"><ele>374.0</ele><time>2026-04-19T08:00:36.2Z</time></trkpt><trkpt lat="46.3055327" lon="12.7961919"><ele>374.0</ele><time>2026-04-19T08:00:37.201Z</time></trkpt><trkpt lat="46.3054455" lon="12.7962469"><ele>380.25</ele><time>2026-04-19T08:00:38.201Z</time></trkpt><trkpt lat="46.3053397" lon="12.7962641"><ele>386.5</ele><time>2026-04-19T08:00:39.201Z</time></trkpt><trkpt lat="46.305219" lon="12.7962627"><ele>392.75</ele><time>2026-04-19T08:00:40.2Z</time></trkpt><trkpt lat="46.3050884" lon="12.7962493"><ele>399.0</ele><time>2026-04-19T08:00:41.2Z</time></trkpt><trkpt lat="46.3049521" lon="12.7962152"><ele>399.0</ele><time>2026-04-19T08:00:42.2Z</time></trkpt><trkpt lat="46.3048102" lon="12.7961692"><ele>399.0</ele><time>2026-04-19T08:00:43.2Z</time></trkpt><trkpt lat="46.3046655" lon="12.7961273"><ele>399.0</ele><time>2026-04-19T08:00:44.2Z</time></trkpt><trkpt lat="46.304526" lon="12.7960834"><ele>399.0</ele><time>2026-04-19T08:00:45.2Z</time></trkpt><trkpt lat="46.304387" lon="12.7960634"><ele>398.75</ele><time>2026-04-19T08:00:46.2Z</time></trkpt><trkpt lat="46.304251" lon="12.7960649"><ele>398.5</ele><time>2026-04-19T08:00:47.2Z</time></trkpt><trkpt lat="46.3041201" lon="12.7960689"><ele>398.25</ele><time>2026-04-19T08:00:48.201Z</time></trkpt><trkpt lat="46.3039972" lon="12.7960599"><ele>398.0</ele><time>2026-04-19T08:00:49.2Z</time></trkpt><trkpt lat="46.303887" lon="12.7960478"><ele>398.0</ele><time>2026-04-19T08:00:50.2Z</time></trkpt><trkpt lat="46.3037906" lon="12.7960424"><ele>398.0</ele><time>2026-04-19T08:00:51.2Z</time></trkpt><trkpt lat="46.3037163" lon="12.7960589"><ele>398.0</ele><time>2026-04-19T08:00:52.199Z</time></trkpt><trkpt lat="46.303651" lon="12.7961932"><ele>398.0</ele><time>2026-04-19T08:00:54.199Z</time></trkpt><trkpt lat="46.3037061" lon="12.7963213"><ele>398.0</ele><time>2026-04-19T08:00:56.201Z</time></trkpt><trkpt lat="46.3037831" lon="12.7963467"><ele>398.0</ele><time>2026-04-19T08:00:57.199Z</time></trkpt><trkpt lat="46.3038723" lon="12.796389"><ele>398.0</ele><time>2026-04-19T08:00:58.2Z</time></trkpt><trkpt lat="46.303968" lon="12.7964793"><ele>398.0</ele><time>2026-04-19T08:00:59.199Z</time></trkpt><trkpt lat="46.3040667" lon="12.7965774"><ele>398.0</ele><time>2026-04-19T08:01:00.2Z</time></trkpt><trkpt lat="46.3041599" lon="12.7966813"><ele>398.0</ele><time>2026-04-19T08:01:01.2Z</time></trkpt><trkpt lat="46.3042534" lon="12.7967914"><ele>402.0</ele><time>2026-04-19T08:01:02.2Z</time></trkpt><trkpt lat="46.3043449" lon="12.7969087"><ele>406.0</ele><time>2026-04-19T08:01:03.201Z</time></trkpt><trkpt lat="46.3044198" lon="12.7970301"><ele>410.0</ele><time>2026-04-19T08:01:04.2Z</time></trkpt><trkpt lat="46.3044661" lon="12.7971696"><ele>414.0</ele><time>2026-04-19T08:01:05.2Z</time></trkpt><trkpt lat="46.3044862" lon="12.7973291"><ele>414.0</ele><time>2026-04-19T08:01:06.2Z</time></trkpt><trkpt lat="46.3044802" lon="12.7974852"><ele>414.0</ele><time>2026-04-19T08:01:07.2Z</time></trkpt><trkpt lat="46.3044727" lon="12.7976313"><ele>414.0</ele><time>2026-04-19T08:01:08.201Z</time></trkpt><trkpt lat="46.3044012" lon="12.7977262"><ele>414.0</ele><time>2026-04-19T08:01:09.199Z</time></trkpt><trkpt lat="46.3042901" lon="12.7978024"><ele>414.0</ele><time>2026-04-19T08:01:10.2Z</time></trkpt><trkpt lat="46.3041953" lon="12.7978948"><ele>414.25</ele><time>2026-04-19T08:01:11.2Z</time></trkpt><trkpt lat="46.3041017" lon="12.7980166"><ele>414.5</ele><time>2026-04-19T08:01:12.2Z</time></trkpt><trkpt lat="46.3040169" lon="12.7981501"><ele>414.75</ele><time>2026-04-19T08:01:13.2Z</time></trkpt><trkpt lat="46.303933" lon="12.7983006"><ele>415.0</ele><time>2026-04-19T08:01:14.2Z</time></trkpt><trkpt lat="46.3038456" lon="12.7984576"><ele>420.5</ele><time>2026-04-19T08:01:15.2Z</time></trkpt><trkpt lat="46.3037623" lon="12.798619"><ele>426.0</ele><time>2026-04-19T08:01:16.2Z</time></trkpt><trkpt lat="46.3036725" lon="12.7987677"><ele>431.5</ele><time>2026-04-19T08:01:17.199Z</time></trkpt><trkpt lat="46.3035672" lon="12.7988988"><ele>437.0</ele><time>2026-04-19T08:01:18.201Z</time></trkpt><trkpt lat="46.3034607" lon="12.799023"><ele>437.0</ele><time>2026-04-19T08:01:19.2Z</time></trkpt><trkpt lat="46.3033389" lon="12.7991093"><ele>437.00000000000006</ele><time>2026-04-19T08:01:20.199Z</time></trkpt><trkpt lat="46.3032346" lon="12.7991913"><ele>437.00000000000006</ele><time>2026-04-19T08:01:21.2Z</time></trkpt><trkpt lat="46.3031383" lon="12.7992592"><ele>437.0</ele><time>2026-04-19T08:01:22.2Z</time></trkpt><trkpt lat="46.303055" lon="12.7992865"><ele>437.0</ele><time>2026-04-19T08:01:23.2Z</time></trkpt><trkpt lat="46.3029749" lon="12.7992763"><ele>436.6</ele><time>2026-04-19T08:01:24.2Z</time></trkpt><trkpt lat="46.3028926" lon="12.7992173"><ele>436.20000000000005</ele><time>2026-04-19T08:01:25.2Z</time></trkpt><trkpt lat="46.3028191" lon="12.7991255"><ele>435.8</ele><time>2026-04-19T08:01:26.2Z</time></trkpt><trkpt lat="46.30275" lon="12.799022"><ele>435.4</ele><time>2026-04-19T08:01:27.2Z</time></trkpt><trkpt lat="46.3026776" lon="12.7989445"><ele>435.0</ele><time>2026-04-19T08:01:28.2Z</time></trkpt><trkpt lat="46.3026088" lon="12.7988768"><ele>435.0</ele><time>2026-04-19T08:01:29.2Z</time></trkpt><trkpt lat="46.3025082" lon="12.7988514"><ele>435.0</ele><time>2026-04-19T08:01:30.2Z</time></trkpt><trkpt lat="46.3023794" lon="12.7988588"><ele>435.0</ele><time>2026-04-19T08:01:31.201Z</time></trkpt><trkpt lat="46.3022532" lon="12.7988509"><ele>435.0</ele><time>2026-04-19T08:01:32.2Z</time></trkpt><trkpt lat="46.3021116" lon="12.79886"><ele>433.75</ele><time>2026-04-19T08:01:33.2Z</time></trkpt><trkpt lat="46.3019676" lon="12.7988683"><ele>432.5</ele><time>2026-04-19T08:01:34.2Z</time></trkpt><trkpt lat="46.3018254" lon="12.7988935"><ele>431.25</ele><time>2026-04-19T08:01:35.199Z</time></trkpt><trkpt lat="46.3016788" lon="12.7989125"><ele>430.0</ele><time>2026-04-19T08:01:36.2Z</time></trkpt><trkpt lat="46.3015392" lon="12.7989318"><ele>426.25</ele><time>2026-04-19T08:01:37.2Z</time></trkpt><trkpt lat="46.301406" lon="12.7989438"><ele>422.5</ele><time>2026-04-19T08:01:38.199Z</time></trkpt><trkpt lat="46.3012653" lon="12.7989913"><ele>418.75</ele><time>2026-04-19T08:01:39.2Z</time></trkpt><trkpt lat="46.3011378" lon="12.7990467"><ele>415.0</ele><time>2026-04-19T08:01:40.2Z</time></trkpt><trkpt lat="46.3010133" lon="12.7991194"><ele>415.0</ele><time>2026-04-19T08:01:41.201Z</time></trkpt><trkpt lat="46.3008938" lon="12.7992146"><ele>415.0</ele><time>2026-04-19T08:01:42.199Z</time></trkpt><trkpt lat="46.3007803" lon="12.7993264"><ele>415.0</ele><time>2026-04-19T08:01:43.2Z</time></trkpt><trkpt lat="46.300669" lon="12.799447"><ele>415.0</ele><time>2026-04-19T08:01:44.2Z</time></trkpt><trkpt lat="46.300559" lon="12.7995636"><ele>413.25</ele><time>2026-04-19T08:01:45.2Z</time></trkpt><trkpt lat="46.3004499" lon="12.7996789"><ele>411.5</ele><time>2026-04-19T08:01:46.2Z</time></trkpt><trkpt lat="46.3003385" lon="12.7997944"><ele>409.75</ele><time>2026-04-19T08:01:47.199Z</time></trkpt><trkpt lat="46.3002268" lon="12.7999074"><ele>408.0</ele><time>2026-04-19T08:01:48.201Z</time></trkpt><trkpt lat="46.300121" lon="12.8000164"><ele>408.0</ele><time>2026-04-19T08:01:49.2Z</time></trkpt><trkpt lat="46.3000188" lon="12.8001379"><ele>408.0</ele><time>2026-04-19T08:01:50.201Z</time></trkpt><trkpt lat="46.2999234" lon="12.8002643"><ele>408.0</ele><time>2026-04-19T08:01:51.201Z</time></trkpt><trkpt lat="46.299834" lon="12.8003952"><ele>408.0</ele><time>2026-04-19T08:01:52.2Z</time></trkpt><trkpt lat="46.2997452" lon="12.8005118"><ele>408.2</ele><time>2026-04-19T08:01:53.199Z</time></trkpt><trkpt lat="46.2996598" lon="12.8006295"><ele>408.4</ele><time>2026-04-19T08:01:54.2Z</time></trkpt><trkpt lat="46.2995753" lon="12.8007362"><ele>408.59999999999997</ele><time>2026-04-19T08:01:55.2Z</time></trkpt><trkpt lat="46.2994931" lon="12.8008359"><ele>408.79999999999995</ele><time>2026-04-19T08:01:56.2Z</time></trkpt><trkpt lat="46.2994073" lon="12.8009262"><ele>409.0</ele><time>2026-04-19T08:01:57.2Z</time></trkpt><trkpt lat="46.2993289" lon="12.8010131"><ele>409.00000000000006</ele><time>2026-04-19T08:01:58.2Z</time></trkpt><trkpt lat="46.2992624" lon="12.8010844"><ele>409.0</ele><time>2026-04-19T08:01:59.201Z</time></trkpt><trkpt lat="46.299205" lon="12.8011425"><ele>409.0</ele><time>2026-04-19T08:02:00.2Z</time></trkpt><trkpt lat="46.299142" lon="12.8011991"><ele>409.0</ele><time>2026-04-19T08:02:01.2Z</time></trkpt><trkpt lat="46.299077" lon="12.8012922"><ele>409.00000000000006</ele><time>2026-04-19T08:02:03.2Z</time></trkpt><trkpt lat="46.2989955" lon="12.8013547"><ele>409.0</ele><time>2026-04-19T08:02:05.2Z</time></trkpt><trkpt lat="46.2989268" lon="12.8014601"><ele>407.33333333333337</ele><time>2026-04-19T08:02:07.2Z</time></trkpt><trkpt lat="46.2988624" lon="12.8015521"><ele>405.6666666666667</ele><time>2026-04-19T08:02:09.2Z</time></trkpt><trkpt lat="46.2987607" lon="12.8015911"><ele>404.0</ele><time>2026-04-19T08:02:11.201Z</time></trkpt><trkpt lat="46.2986959" lon="12.8015977"><ele>402.33333333333337</ele><time>2026-04-19T08:02:12.2Z</time></trkpt><trkpt lat="46.2986275" lon="12.8016084"><ele>400.6666666666667</ele><time>2026-04-19T08:02:13.2Z</time></trkpt><trkpt lat="46.2985475" lon="12.8016207"><ele>399.0</ele><time>2026-04-19T08:02:14.2Z</time></trkpt><trkpt lat="46.298454" lon="12.8016647"><ele>399.0</ele><time>2026-04-19T08:02:15.2Z</time></trkpt><trkpt lat="46.2983538" lon="12.8017165"><ele>399.0</ele><time>2026-04-19T08:02:16.2Z</time></trkpt><trkpt lat="46.2982517" lon="12.8017804"><ele>399.0</ele><time>2026-04-19T08:02:17.2Z</time></trkpt><trkpt lat="46.2981511" lon="12.8018518"><ele>399.0</ele><time>2026-04-19T08:02:18.2Z</time></trkpt><trkpt lat="46.2980527" lon="12.8019454"><ele>399.0</ele><time>2026-04-19T08:02:19.201Z</time></trkpt><trkpt lat="46.2979599" lon="12.8020407"><ele>396.0</ele><time>2026-04-19T08:02:20.2Z</time></trkpt><trkpt lat="46.2978608" lon="12.8021197"><ele>393.0</ele><time>2026-04-19T08:02:21.201Z</time></trkpt><trkpt lat="46.2977577" lon="12.8021845"><ele>390.0</ele><time>2026-04-19T08:02:22.2Z</time></trkpt><trkpt lat="46.2976461" lon="12.8022258"><ele>387.0</ele><time>2026-04-19T08:02:23.2Z</time></trkpt><trkpt lat="46.2975286" lon="12.8022374"><ele>387.0</ele><time>2026-04-19T08:02:24.201Z</time></trkpt><trkpt lat="46.2974" lon="12.80222"><ele>387.0</ele><time>2026-04-19T08:02:25.2Z</time></trkpt><trkpt lat="46.297267" lon="12.8021961"><ele>387.0</ele><time>2026-04-19T08:02:26.2Z</time></trkpt><trkpt lat="46.2971324" lon="12.8021834"><ele>387.0</ele><time>2026-04-19T08:02:27.2Z</time></trkpt><trkpt lat="46.2969997" lon="12.8021737"><ele>383.5</ele><time>2026-04-19T08:02:28.199Z</time></trkpt><trkpt lat="46.296867" lon="12.8021813"><ele>380.0</ele><time>2026-04-19T08:02:29.2Z</time></trkpt><trkpt lat="46.2967453" lon="12.8021985"><ele>376.5</ele><time>2026-04-19T08:02:30.199Z</time></trkpt><trkpt lat="46.2966423" lon="12.8022225"><ele>373.0</ele><time>2026-04-19T08:02:31.199Z</time></trkpt><trkpt lat="46.2965461" lon="12.8022359"><ele>373.0</ele><time>2026-04-19T08:02:32.2Z</time></trkpt><trkpt lat="46.2964583" lon="12.8022174"><ele>373.0</ele><time>2026-04-19T08:02:33.2Z</time></trkpt><trkpt lat="46.2963785" lon="12.8021582"><ele>373.0</ele><time>2026-04-19T08:02:34.2Z</time></trkpt><trkpt lat="46.296313" lon="12.8020294"><ele>373.0</ele><time>2026-04-19T08:02:35.2Z</time></trkpt><trkpt lat="46.2962385" lon="12.8019122"><ele>373.0</ele><time>2026-04-19T08:02:36.2Z</time></trkpt><trkpt lat="46.2961594" lon="12.8017867"><ele>370.59999999999997</ele><time>2026-04-19T08:02:37.199Z</time></trkpt><trkpt lat="46.2960831" lon="12.8016513"><ele>368.2</ele><time>2026-04-19T08:02:38.2Z</time></trkpt><trkpt lat="46.2960232" lon="12.801521"><ele>365.8</ele><time>2026-04-19T08:02:39.2Z</time></trkpt><trkpt lat="46.2959834" lon="12.8014053"><ele>363.4</ele><time>2026-04-19T08:02:40.2Z</time></trkpt><trkpt lat="46.2959511" lon="12.8013114"><ele>361.0</ele><time>2026-04-19T08:02:41.199Z</time></trkpt><trkpt lat="46.2958494" lon="12.8012625"><ele>361.0</ele><time>2026-04-19T08:02:43.199Z</time></trkpt><trkpt lat="46.2958215" lon="12.801375"><ele>361.0</ele><time>2026-04-19T08:02:45.2Z</time></trkpt><trkpt lat="46.2958467" lon="12.8014627"><ele>361.0</ele><time>2026-04-19T08:02:46.2Z</time></trkpt><trkpt lat="46.2958853" lon="12.8015882"><ele>361.0</ele><time>2026-04-19T08:02:47.201Z</time></trkpt><trkpt lat="46.2959289" lon="12.8017256"><ele>361.0</ele><time>2026-04-19T08:02:48.2Z</time></trkpt><trkpt lat="46.2959805" lon="12.8018613"><ele>360.6</ele><time>2026-04-19T08:02:49.2Z</time></trkpt><trkpt lat="46.2960328" lon="12.8019996"><ele>360.20000000000005</ele><time>2026-04-19T08:02:50.2Z</time></trkpt><trkpt lat="46.2960773" lon="12.802135"><ele>359.79999999999995</ele><time>2026-04-19T08:02:51.2Z</time></trkpt><trkpt lat="46.2960988" lon="12.8022566"><ele>359.4</ele><time>2026-04-19T08:02:52.199Z</time></trkpt><trkpt lat="46.2960948" lon="12.8023741"><ele>359.0</ele><time>2026-04-19T08:02:53.2Z</time></trkpt><trkpt lat="46.2960564" lon="12.8024624"><ele>359.0</ele><time>2026-04-19T08:02:54.199Z</time></trkpt><trkpt lat="46.2959905" lon="12.8025172"><ele>359.0</ele><time>2026-04-19T08:02:55.2Z</time></trkpt><trkpt lat="46.2959078" lon="12.8025198"><ele>359.0</ele><time>2026-04-19T08:02:56.2Z</time></trkpt><trkpt lat="46.2958134" lon="12.802471"><ele>359.0</ele><time>2026-04-19T08:02:57.201Z</time></trkpt><trkpt lat="46.2957107" lon="12.8023857"><ele>359.0</ele><time>2026-04-19T08:02:58.199Z</time></trkpt><trkpt lat="46.2956136" lon="12.8022957"><ele>357.75</ele><time>2026-04-19T08:02:59.2Z</time></trkpt><trkpt lat="46.2955041" lon="12.8021965"><ele>356.5</ele><time>2026-04-19T08:03:00.2Z</time></trkpt><trkpt lat="46.2953877" lon="12.8020848"><ele>355.25</ele><time>2026-04-19T08:03:01.201Z</time></trkpt><trkpt lat="46.2952653" lon="12.8019637"><ele>354.0</ele><time>2026-04-19T08:03:02.201Z</time></trkpt><trkpt lat="46.2951503" lon="12.8018543"><ele>353.75</ele><time>2026-04-19T08:03:03.2Z</time></trkpt><trkpt lat="46.2950312" lon="12.8017457"><ele>353.5</ele><time>2026-04-19T08:03:04.199Z</time></trkpt><trkpt lat="46.2949107" lon="12.8016434"><ele>353.25</ele><time>2026-04-19T08:03:05.2Z</time></trkpt><trkpt lat="46.2947809" lon="12.8015716"><ele>353.0</ele><time>2026-04-19T08:03:06.2Z</time></trkpt><trkpt lat="46.2946426" lon="12.8015271"><ele>355.0</ele><time>2026-04-19T08:03:07.201Z</time></trkpt><trkpt lat="46.294492" lon="12.8015099"><ele>357.0</ele><time>2026-04-19T08:03:08.201Z</time></trkpt><trkpt lat="46.2943335" lon="12.8015043"><ele>359.0</ele><time>2026-04-19T08:03:09.2Z</time></trkpt><trkpt lat="46.2941778" lon="12.8015012"><ele>359.0</ele><time>2026-04-19T08:03:10.2Z</time></trkpt><trkpt lat="46.294019" lon="12.8014969"><ele>359.0</ele><time>2026-04-19T08:03:11.2Z</time></trkpt><trkpt lat="46.2938599" lon="12.8014906"><ele>359.0</ele><time>2026-04-19T08:03:12.2Z</time></trkpt><trkpt lat="46.2937033" lon="12.8014704"><ele>359.25</ele><time>2026-04-19T08:03:13.2Z</time></trkpt><trkpt lat="46.2935502" lon="12.8014299"><ele>359.5</ele><time>2026-04-19T08:03:14.2Z</time></trkpt><trkpt lat="46.293408" lon="12.8013735"><ele>359.75</ele><time>2026-04-19T08:03:15.199Z</time></trkpt><trkpt lat="46.2932728" lon="12.8013101"><ele>360.0</ele><time>2026-04-19T08:03:16.199Z</time></trkpt><trkpt lat="46.2931415" lon="12.8012344"><ele>360.75</ele><time>2026-04-19T08:03:17.2Z</time></trkpt><trkpt lat="46.2930171" lon="12.8011439"><ele>361.5</ele><time>2026-04-19T08:03:18.2Z</time></trkpt><trkpt lat="46.2928959" lon="12.8010365"><ele>362.25</ele><time>2026-04-19T08:03:19.2Z</time></trkpt><trkpt lat="46.2927781" lon="12.8009185"><ele>363.0</ele><time>2026-04-19T08:03:20.201Z</time></trkpt><trkpt lat="46.29266" lon="12.8007917"><ele>363.0</ele><time>2026-04-19T08:03:21.2Z</time></trkpt><trkpt lat="46.2925424" lon="12.8006668"><ele>363.0</ele><time>2026-04-19T08:03:22.2Z</time></trkpt><trkpt lat="46.2924209" lon="12.8005463"><ele>363.0</ele><time>2026-04-19T08:03:23.199Z</time></trkpt><trkpt lat="46.2922965" lon="12.8004263"><ele>363.0</ele><time>2026-04-19T08:03:24.201Z</time></trkpt><trkpt lat="46.2921673" lon="12.8003076"><ele>363.0</ele><time>2026-04-19T08:03:25.2Z</time></trkpt><trkpt lat="46.2920328" lon="12.8001958"><ele>363.0</ele><time>2026-04-19T08:03:26.2Z</time></trkpt><trkpt lat="46.2918935" lon="12.8000853"><ele>363.0</ele><time>2026-04-19T08:03:27.2Z</time></trkpt><trkpt lat="46.2917505" lon="12.7999766"><ele>363.0</ele><time>2026-04-19T08:03:28.2Z</time></trkpt><trkpt lat="46.2916082" lon="12.7998655"><ele>363.0</ele><time>2026-04-19T08:03:29.2Z</time></trkpt><trkpt lat="46.2914684" lon="12.7997522"><ele>363.0</ele><time>2026-04-19T08:03:30.201Z</time></trkpt><trkpt lat="46.2913252" lon="12.7996336"><ele>362.3333333333333</ele><time>2026-04-19T08:03:31.2Z</time></trkpt><trkpt lat="46.2911788" lon="12.7995161"><ele>361.66666666666663</ele><time>2026-04-19T08:03:32.199Z</time></trkpt><trkpt lat="46.2910322" lon="12.799401"><ele>361.0</ele><time>2026-04-19T08:03:33.201Z</time></trkpt><trkpt lat="46.290885" lon="12.7992818"><ele>361.0</ele><time>2026-04-19T08:03:34.2Z</time></trkpt><trkpt lat="46.2907377" lon="12.7991596"><ele>361.0</ele><time>2026-04-19T08:03:35.199Z</time></trkpt><trkpt lat="46.2905946" lon="12.7990289"><ele>361.0</ele><time>2026-04-19T08:03:36.199Z</time></trkpt><trkpt lat="46.2904505" lon="12.7988975"><ele>362.66666666666663</ele><time>2026-04-19T08:03:37.2Z</time></trkpt><trkpt lat="46.2903032" lon="12.7987647"><ele>364.3333333333333</ele><time>2026-04-19T08:03:38.199Z</time></trkpt><trkpt lat="46.2901547" lon="12.7986334"><ele>366.0</ele><time>2026-04-19T08:03:39.199Z</time></trkpt><trkpt lat="46.2900068" lon="12.7985018"><ele>365.0</ele><time>2026-04-19T08:03:40.199Z</time></trkpt><trkpt lat="46.2898575" lon="12.7983739"><ele>364.0</ele><time>2026-04-19T08:03:41.201Z</time></trkpt><trkpt lat="46.2897056" lon="12.7982519"><ele>363.0</ele><time>2026-04-19T08:03:42.2Z</time></trkpt><trkpt lat="46.289552" lon="12.7981334"><ele>363.0</ele><time>2026-04-19T08:03:43.199Z</time></trkpt><trkpt lat="46.2893953" lon="12.7980243"><ele>363.0</ele><time>2026-04-19T08:03:44.199Z</time></trkpt><trkpt lat="46.2892382" lon="12.7979195"><ele>363.0</ele><time>2026-04-19T08:03:45.2Z</time></trkpt><trkpt lat="46.2890778" lon="12.797822"><ele>363.3333333333333</ele><time>2026-04-19T08:03:46.2Z</time></trkpt><trkpt lat="46.2889157" lon="12.7977302"><ele>363.66666666666663</ele><time>2026-04-19T08:03:47.2Z</time></trkpt><trkpt lat="46.288751" lon="12.7976391"><ele>364.0</ele><time>2026-04-19T08:03:48.201Z</time></trkpt><trkpt lat="46.2885868" lon="12.7975463"><ele>361.66666666666663</ele><time>2026-04-19T08:03:49.2Z</time></trkpt><trkpt lat="46.2884262" lon="12.7974569"><ele>359.3333333333333</ele><time>2026-04-19T08:03:50.2Z</time></trkpt><trkpt lat="46.2882706" lon="12.797359"><ele>357.0</ele><time>2026-04-19T08:03:51.199Z</time></trkpt><trkpt lat="46.2881181" lon="12.797259"><ele>358.25</ele><time>2026-04-19T08:03:52.199Z</time></trkpt><trkpt lat="46.287977" lon="12.7971519"><ele>359.5</ele><time>2026-04-19T08:03:53.199Z</time></trkpt><trkpt lat="46.287853" lon="12.7970399"><ele>360.75</ele><time>2026-04-19T08:03:54.199Z</time></trkpt><trkpt lat="46.2877379" lon="12.7969296"><ele>362.0</ele><time>2026-04-19T08:03:55.201Z</time></trkpt><trkpt lat="46.2876298" lon="12.7968106"><ele>362.0</ele><time>2026-04-19T08:03:56.201Z</time></trkpt><trkpt lat="46.2875291" lon="12.7966835"><ele>362.0</ele><time>2026-04-19T08:03:57.2Z</time></trkpt><trkpt lat="46.2874371" lon="12.7965608"><ele>362.0</ele><time>2026-04-19T08:03:58.199Z</time></trkpt><trkpt lat="46.2873473" lon="12.7964408"><ele>362.0</ele><time>2026-04-19T08:03:59.2Z</time></trkpt><trkpt lat="46.2872569" lon="12.796318"><ele>362.0</ele><time>2026-04-19T08:04:00.199Z</time></trkpt><trkpt lat="46.2871632" lon="12.7962001"><ele>362.0</ele><time>2026-04-19T08:04:01.2Z</time></trkpt><trkpt lat="46.2870732" lon="12.7960866"><ele>362.0</ele><time>2026-04-19T08:04:02.2Z</time></trkpt><trkpt lat="46.286989" lon="12.7959809"><ele>362.0</ele><time>2026-04-19T08:04:03.199Z</time></trkpt><trkpt lat="46.2869071" lon="12.7958885"><ele>362.0</ele><time>2026-04-19T08:04:04.199Z</time></trkpt><trkpt lat="46.2868345" lon="12.7958229"><ele>362.0</ele><time>2026-04-19T08:04:05.199Z</time></trkpt><trkpt lat="46.286774" lon="12.7957789"><ele>362.0</ele><time>2026-04-19T08:04:06.199Z</time></trkpt><trkpt lat="46.2866863" lon="12.7957614"><ele>362.0</ele><time>2026-04-19T08:04:08.199Z</time></trkpt><trkpt lat="46.2865957" lon="12.7957931"><ele>362.0</ele><time>2026-04-19T08:04:12.199Z</time></trkpt><trkpt lat="46.2865199" lon="12.7959264"><ele>362.8</ele><time>2026-04-19T08:04:14.2Z</time></trkpt><trkpt lat="46.2864519" lon="12.7960582"><ele>363.6</ele><time>2026-04-19T08:04:16.2Z</time></trkpt><trkpt lat="46.2863562" lon="12.7960493"><ele>364.40000000000003</ele><time>2026-04-19T08:04:18.2Z</time></trkpt><trkpt lat="46.2862813" lon="12.7960133"><ele>365.20000000000005</ele><time>2026-04-19T08:04:19.2Z</time></trkpt><trkpt lat="46.2861991" lon="12.7959764"><ele>366.0</ele><time>2026-04-19T08:04:20.201Z</time></trkpt><trkpt lat="46.2861129" lon="12.7959428"><ele>366.20000000000005</ele><time>2026-04-19T08:04:21.2Z</time></trkpt><trkpt lat="46.286022" lon="12.7959104"><ele>366.40000000000003</ele><time>2026-04-19T08:04:22.199Z</time></trkpt><trkpt lat="46.2859298" lon="12.795874"><ele>366.6</ele><time>2026-04-19T08:04:23.201Z</time></trkpt><trkpt lat="46.2858366" lon="12.7958378"><ele>366.8</ele><time>2026-04-19T08:04:24.2Z</time></trkpt><trkpt lat="46.2857495" lon="12.7958055"><ele>367.0</ele><time>2026-04-19T08:04:25.2Z</time></trkpt><trkpt lat="46.2856666" lon="12.7957773"><ele>367.3333333333333</ele><time>2026-04-19T08:04:26.199Z</time></trkpt><trkpt lat="46.2855818" lon="12.7957558"><ele>367.66666666666663</ele><time>2026-04-19T08:04:27.2Z</time></trkpt><trkpt lat="46.2854962" lon="12.7957533"><ele>368.0</ele><time>2026-04-19T08:04:28.2Z</time></trkpt><trkpt lat="46.2854075" lon="12.7957748"><ele>368.3333333333333</ele><time>2026-04-19T08:04:29.2Z</time></trkpt><trkpt lat="46.2853212" lon="12.795806"><ele>368.6666666666667</ele><time>2026-04-19T08:04:30.201Z</time></trkpt><trkpt lat="46.2852417" lon="12.7958302"><ele>369.0</ele><time>2026-04-19T08:04:31.2Z</time></trkpt><trkpt lat="46.2851714" lon="12.7958481"><ele>369.0</ele><time>2026-04-19T08:04:32.199Z</time></trkpt><trkpt lat="46.2850512" lon="12.7958525"><ele>369.0</ele><time>2026-04-19T08:04:34.2Z</time></trkpt><trkpt lat="46.2849529" lon="12.7957763"><ele>369.0</ele><time>2026-04-19T08:04:36.201Z</time></trkpt><trkpt lat="46.2848947" lon="12.7957299"><ele>369.0</ele><time>2026-04-19T08:04:37.2Z</time></trkpt><trkpt lat="46.284826" lon="12.7956934"><ele>369.0</ele><time>2026-04-19T08:04:38.2Z</time></trkpt><trkpt lat="46.2847557" lon="12.795682"><ele>369.0</ele><time>2026-04-19T08:04:39.199Z</time></trkpt><trkpt lat="46.2846837" lon="12.7956889"><ele>368.5</ele><time>2026-04-19T08:04:40.2Z</time></trkpt><trkpt lat="46.2846164" lon="12.7957229"><ele>368.0</ele><time>2026-04-19T08:04:41.2Z</time></trkpt><trkpt lat="46.2845543" lon="12.7957749"><ele>367.5</ele><time>2026-04-19T08:04:42.199Z</time></trkpt><trkpt lat="46.2844867" lon="12.7958275"><ele>367.0</ele><time>2026-04-19T08:04:43.2Z</time></trkpt><trkpt lat="46.2844078" lon="12.7958597"><ele>366.5</ele><time>2026-04-19T08:04:44.199Z</time></trkpt><trkpt lat="46.284329" lon="12.7958933"><ele>366.0</ele><time>2026-04-19T08:04:45.2Z</time></trkpt><trkpt lat="46.2842503" lon="12.795936"><ele>366.0</ele><time>2026-04-19T08:04:46.2Z</time></trkpt><trkpt lat="46.284169" lon="12.7959782"><ele>366.0</ele><time>2026-04-19T08:04:47.2Z</time></trkpt><trkpt lat="46.2840874" lon="12.7960224"><ele>366.0</ele><time>2026-04-19T08:04:48.201Z</time></trkpt><trkpt lat="46.2840075" lon="12.7960684"><ele>366.0</ele><time>2026-04-19T08:04:49.2Z</time></trkpt><trkpt lat="46.283933" lon="12.7961084"><ele>366.0</ele><time>2026-04-19T08:04:50.201Z</time></trkpt><trkpt lat="46.283864" lon="12.79614"><ele>366.0</ele><time>2026-04-19T08:04:51.201Z</time></trkpt><trkpt lat="46.2837977" lon="12.7961781"><ele>366.4</ele><time>2026-04-19T08:04:52.2Z</time></trkpt><trkpt lat="46.2836864" lon="12.7962437"><ele>366.8</ele><time>2026-04-19T08:04:54.2Z</time></trkpt><trkpt lat="46.2835837" lon="12.7962994"><ele>367.2</ele><time>2026-04-19T08:04:56.2Z</time></trkpt><trkpt lat="46.2834758" lon="12.7962392"><ele>367.59999999999997</ele><time>2026-04-19T08:04:58.199Z</time></trkpt><trkpt lat="46.2834031" lon="12.7961869"><ele>368.0</ele><time>2026-04-19T08:04:59.199Z</time></trkpt><trkpt lat="46.2833281" lon="12.7961342"><ele>368.0</ele><time>2026-04-19T08:05:00.2Z</time></trkpt><trkpt lat="46.2832416" lon="12.7960817"><ele>368.0</ele><time>2026-04-19T08:05:01.2Z</time></trkpt><trkpt lat="46.2831334" lon="12.7960287"><ele>368.0</ele><time>2026-04-19T08:05:02.199Z</time></trkpt><trkpt lat="46.2830162" lon="12.7959692"><ele>368.0</ele><time>2026-04-19T08:05:03.2Z</time></trkpt><trkpt lat="46.2828982" lon="12.7959095"><ele>367.0</ele><time>2026-04-19T08:05:04.2Z</time></trkpt><trkpt lat="46.2827801" lon="12.7958483"><ele>366.0</ele><time>2026-04-19T08:05:05.199Z</time></trkpt><trkpt lat="46.2826628" lon="12.7957764"><ele>365.0</ele><time>2026-04-19T08:05:06.2Z</time></trkpt><trkpt lat="46.2825409" lon="12.7957049"><ele>364.0</ele><time>2026-04-19T08:05:07.2Z</time></trkpt><trkpt lat="46.2824123" lon="12.7956351"><ele>364.0</ele><time>2026-04-19T08:05:08.201Z</time></trkpt><trkpt lat="46.2822774" lon="12.795566"><ele>364.0</ele><time>2026-04-19T08:05:09.2Z</time></trkpt><trkpt lat="46.2821399" lon="12.7954921"><ele>364.0</ele><time>2026-04-19T08:05:10.2Z</time></trkpt><trkpt lat="46.2820005" lon="12.7954184"><ele>364.0</ele><time>2026-04-19T08:05:11.199Z</time></trkpt><trkpt lat="46.2818588" lon="12.7953413"><ele>363.66666666666663</ele><time>2026-04-19T08:05:12.2Z</time></trkpt><trkpt lat="46.2817118" lon="12.7952669"><ele>363.3333333333333</ele><time>2026-04-19T08:05:13.2Z</time></trkpt><trkpt lat="46.2815679" lon="12.7951887"><ele>363.0</ele><time>2026-04-19T08:05:14.199Z</time></trkpt><trkpt lat="46.2814262" lon="12.7951182"><ele>362.5</ele><time>2026-04-19T08:05:15.2Z</time></trkpt><trkpt lat="46.2812868" lon="12.7950501"><ele>362.0</ele><time>2026-04-19T08:05:16.2Z</time></trkpt><trkpt lat="46.2811463" lon="12.794987"><ele>361.5</ele><time>2026-04-19T08:05:17.201Z</time></trkpt><trkpt lat="46.2810077" lon="12.7949233"><ele>361.0</ele><time>2026-04-19T08:05:18.199Z</time></trkpt><trkpt lat="46.280868" lon="12.7948646"><ele>361.0</ele><time>2026-04-19T08:05:19.199Z</time></trkpt><trkpt lat="46.2807279" lon="12.7948016"><ele>361.0</ele><time>2026-04-19T08:05:20.2Z</time></trkpt><trkpt lat="46.2805838" lon="12.79474"><ele>361.0</ele><time>2026-04-19T08:05:21.201Z</time></trkpt><trkpt lat="46.2804326" lon="12.7946773"><ele>358.3333333333333</ele><time>2026-04-19T08:05:22.2Z</time></trkpt><trkpt lat="46.2802768" lon="12.7946147"><ele>355.6666666666667</ele><time>2026-04-19T08:05:23.2Z</time></trkpt><trkpt lat="46.2801122" lon="12.7945546"><ele>353.0</ele><time>2026-04-19T08:05:24.2Z</time></trkpt><trkpt lat="46.2799396" lon="12.7944941"><ele>350.6666666666667</ele><time>2026-04-19T08:05:25.2Z</time></trkpt><trkpt lat="46.2797667" lon="12.7943998"><ele>348.3333333333333</ele><time>2026-04-19T08:05:26.201Z</time></trkpt><trkpt lat="46.2796036" lon="12.7942871"><ele>346.0</ele><time>2026-04-19T08:05:27.2Z</time></trkpt><trkpt lat="46.2794451" lon="12.7941507"><ele>346.0</ele><time>2026-04-19T08:05:28.2Z</time></trkpt><trkpt lat="46.2792927" lon="12.7939977"><ele>346.0</ele><time>2026-04-19T08:05:29.2Z</time></trkpt><trkpt lat="46.2791352" lon="12.7938458"><ele>346.0</ele><time>2026-04-19T08:05:30.199Z</time></trkpt><trkpt lat="46.2789815" lon="12.7936947"><ele>344.0</ele><time>2026-04-19T08:05:31.2Z</time></trkpt><trkpt lat="46.2788341" lon="12.793538"><ele>342.0</ele><time>2026-04-19T08:05:32.199Z</time></trkpt><trkpt lat="46.2786824" lon="12.793391"><ele>340.0</ele><time>2026-04-19T08:05:33.199Z</time></trkpt><trkpt lat="46.2785337" lon="12.7932402"><ele>340.0</ele><time>2026-04-19T08:05:34.199Z</time></trkpt><trkpt lat="46.2783899" lon="12.7930949"><ele>340.0</ele><time>2026-04-19T08:05:35.199Z</time></trkpt><trkpt lat="46.278249" lon="12.7929529"><ele>340.0</ele><time>2026-04-19T08:05:36.199Z</time></trkpt><trkpt lat="46.2781178" lon="12.7928233"><ele>342.5</ele><time>2026-04-19T08:05:37.198Z</time></trkpt><trkpt lat="46.2779965" lon="12.7926965"><ele>345.0</ele><time>2026-04-19T08:05:38.2Z</time></trkpt><trkpt lat="46.2778873" lon="12.792571"><ele>347.5</ele><time>2026-04-19T08:05:39.199Z</time></trkpt><trkpt lat="46.2777944" lon="12.7924351"><ele>350.0</ele><time>2026-04-19T08:05:40.199Z</time></trkpt><trkpt lat="46.2777217" lon="12.7922815"><ele>350.0</ele><time>2026-04-19T08:05:41.198Z</time></trkpt><trkpt lat="46.2776816" lon="12.7920923"><ele>350.0</ele><time>2026-04-19T08:05:42.198Z</time></trkpt><trkpt lat="46.2776647" lon="12.7918717"><ele>350.0</ele><time>2026-04-19T08:05:43.198Z</time></trkpt><trkpt lat="46.2776589" lon="12.7916156"><ele>349.6666666666667</ele><time>2026-04-19T08:05:44.199Z</time></trkpt><trkpt lat="46.2776484" lon="12.7913627"><ele>349.3333333333333</ele><time>2026-04-19T08:05:45.2Z</time></trkpt><trkpt lat="46.277639" lon="12.7910864"><ele>349.0</ele><time>2026-04-19T08:05:46.199Z</time></trkpt><trkpt lat="46.2776298" lon="12.7908123"><ele>349.0</ele><time>2026-04-19T08:05:47.199Z</time></trkpt><trkpt lat="46.2776206" lon="12.7905321"><ele>349.0</ele><time>2026-04-19T08:05:48.198Z</time></trkpt><trkpt lat="46.2776118" lon="12.7902552"><ele>349.0</ele><time>2026-04-19T08:05:49.198Z</time></trkpt><trkpt lat="46.2776046" lon="12.7899844"><ele>349.3333333333333</ele><time>2026-04-19T08:05:50.198Z</time></trkpt><trkpt lat="46.2775974" lon="12.7897198"><ele>349.6666666666667</ele><time>2026-04-19T08:05:51.2Z</time></trkpt><trkpt lat="46.27759" lon="12.7894562"><ele>350.0</ele><time>2026-04-19T08:05:52.199Z</time></trkpt><trkpt lat="46.2775806" lon="12.7891958"><ele>350.0</ele><time>2026-04-19T08:05:53.199Z</time></trkpt><trkpt lat="46.2775716" lon="12.788936"><ele>350.0</ele><time>2026-04-19T08:05:54.2Z</time></trkpt><trkpt lat="46.2775681" lon="12.7886809"><ele>350.0</ele><time>2026-04-19T08:05:55.199Z</time></trkpt><trkpt lat="46.2775613" lon="12.7884208"><ele>350.0</ele><time>2026-04-19T08:05:56.199Z</time></trkpt><trkpt lat="46.277549" lon="12.7881613"><ele>350.0</ele><time>2026-04-19T08:05:57.199Z</time></trkpt><trkpt lat="46.2775403" lon="12.787906"><ele>350.0</ele><time>2026-04-19T08:05:58.198Z</time></trkpt><trkpt lat="46.2775356" lon="12.7876509"><ele>350.6666666666667</ele><time>2026-04-19T08:05:59.199Z</time></trkpt><trkpt lat="46.2775321" lon="12.7873957"><ele>351.3333333333333</ele><time>2026-04-19T08:06:00.2Z</time></trkpt><trkpt lat="46.277529" lon="12.7871611"><ele>352.0</ele><time>2026-04-19T08:06:01.198Z</time></trkpt><trkpt lat="46.2775239" lon="12.7869353"><ele>351.5</ele><time>2026-04-19T08:06:02.199Z</time></trkpt><trkpt lat="46.2775156" lon="12.7867518"><ele>351.0</ele><time>2026-04-19T08:06:03.2Z</time></trkpt><trkpt lat="46.2774945" lon="12.7865804"><ele>350.5</ele><time>2026-04-19T08:06:04.199Z</time></trkpt><trkpt lat="46.2774415" lon="12.7864251"><ele>350.0</ele><time>2026-04-19T08:06:05.199Z</time></trkpt><trkpt lat="46.2773635" lon="12.786288"><ele>350.0</ele><time>2026-04-19T08:06:06.199Z</time></trkpt><trkpt lat="46.2772733" lon="12.786153"><ele>350.0</ele><time>2026-04-19T08:06:07.198Z</time></trkpt><trkpt lat="46.2771733" lon="12.7860035"><ele>350.0</ele><time>2026-04-19T08:06:08.199Z</time></trkpt><trkpt lat="46.2770613" lon="12.7858428"><ele>350.0</ele><time>2026-04-19T08:06:09.2Z</time></trkpt><trkpt lat="46.276939" lon="12.7856672"><ele>350.33333333333337</ele><time>2026-04-19T08:06:10.198Z</time></trkpt><trkpt lat="46.2768078" lon="12.7854794"><ele>350.6666666666667</ele><time>2026-04-19T08:06:11.199Z</time></trkpt><trkpt lat="46.2766641" lon="12.7852715"><ele>351.0</ele><time>2026-04-19T08:06:12.198Z</time></trkpt><trkpt lat="46.2765136" lon="12.7850538"><ele>351.3333333333333</ele><time>2026-04-19T08:06:13.199Z</time></trkpt><trkpt lat="46.2763718" lon="12.7848454"><ele>351.66666666666663</ele><time>2026-04-19T08:06:14.199Z</time></trkpt><trkpt lat="46.2762324" lon="12.7846433"><ele>352.0</ele><time>2026-04-19T08:06:15.198Z</time></trkpt><trkpt lat="46.2760953" lon="12.7844486"><ele>350.66666666666663</ele><time>2026-04-19T08:06:16.198Z</time></trkpt><trkpt lat="46.2759642" lon="12.7842553"><ele>349.3333333333333</ele><time>2026-04-19T08:06:17.2Z</time></trkpt><trkpt lat="46.2758341" lon="12.7840695"><ele>348.0</ele><time>2026-04-19T08:06:18.2Z</time></trkpt><trkpt lat="46.2757081" lon="12.7838905"><ele>349.3333333333333</ele><time>2026-04-19T08:06:19.199Z</time></trkpt><trkpt lat="46.2755742" lon="12.7837163"><ele>350.66666666666663</ele><time>2026-04-19T08:06:20.198Z</time></trkpt><trkpt lat="46.2754359" lon="12.7835483"><ele>352.0</ele><time>2026-04-19T08:06:21.199Z</time></trkpt><trkpt lat="46.2752999" lon="12.7833799"><ele>352.0</ele><time>2026-04-19T08:06:22.199Z</time></trkpt><trkpt lat="46.2751579" lon="12.7832146"><ele>352.0</ele><time>2026-04-19T08:06:23.199Z</time></trkpt><trkpt lat="46.2750165" lon="12.783048"><ele>352.0</ele><time>2026-04-19T08:06:24.199Z</time></trkpt><trkpt lat="46.2748736" lon="12.7828786"><ele>356.0</ele><time>2026-04-19T08:06:25.199Z</time></trkpt><trkpt lat="46.2747331" lon="12.7827088"><ele>360.0</ele><time>2026-04-19T08:06:26.199Z</time></trkpt><trkpt lat="46.2745952" lon="12.7825285"><ele>364.0</ele><time>2026-04-19T08:06:27.199Z</time></trkpt><trkpt lat="46.274464" lon="12.7823311"><ele>364.0</ele><time>2026-04-19T08:06:28.199Z</time></trkpt><trkpt lat="46.2743354" lon="12.7821237"><ele>364.0</ele><time>2026-04-19T08:06:29.2Z</time></trkpt><trkpt lat="46.2742093" lon="12.7819065"><ele>364.0</ele><time>2026-04-19T08:06:30.199Z</time></trkpt><trkpt lat="46.2740782" lon="12.7816855"><ele>362.0</ele><time>2026-04-19T08:06:31.199Z</time></trkpt><trkpt lat="46.2739408" lon="12.78146"><ele>360.0</ele><time>2026-04-19T08:06:32.199Z</time></trkpt><trkpt lat="46.2737994" lon="12.7812291"><ele>358.0</ele><time>2026-04-19T08:06:33.2Z</time></trkpt><trkpt lat="46.2736566" lon="12.7809928"><ele>363.3333333333333</ele><time>2026-04-19T08:06:34.2Z</time></trkpt><trkpt lat="46.2735118" lon="12.7807534"><ele>368.6666666666667</ele><time>2026-04-19T08:06:35.198Z</time></trkpt><trkpt lat="46.2733628" lon="12.7805079"><ele>374.0</ele><time>2026-04-19T08:06:36.199Z</time></trkpt><trkpt lat="46.273215" lon="12.7802696"><ele>377.6666666666667</ele><time>2026-04-19T08:06:37.199Z</time></trkpt><trkpt lat="46.2730729" lon="12.7800451"><ele>381.33333333333337</ele><time>2026-04-19T08:06:38.199Z</time></trkpt><trkpt lat="46.2729346" lon="12.7798381"><ele>385.0</ele><time>2026-04-19T08:06:39.199Z</time></trkpt><trkpt lat="46.2728099" lon="12.7796491"><ele>385.0</ele><time>2026-04-19T08:06:40.199Z</time></trkpt><trkpt lat="46.2726938" lon="12.7794773"><ele>385.0</ele><time>2026-04-19T08:06:41.199Z</time></trkpt><trkpt lat="46.2725864" lon="12.7793115"><ele>385.0</ele><time>2026-04-19T08:06:42.199Z</time></trkpt><trkpt lat="46.2724898" lon="12.7791525"><ele>382.75</ele><time>2026-04-19T08:06:43.198Z</time></trkpt><trkpt lat="46.2724149" lon="12.778978"><ele>380.5</ele><time>2026-04-19T08:06:44.198Z</time></trkpt><trkpt lat="46.2723418" lon="12.7787988"><ele>378.25</ele><time>2026-04-19T08:06:45.199Z</time></trkpt><trkpt lat="46.2722873" lon="12.7786028"><ele>376.0</ele><time>2026-04-19T08:06:46.199Z</time></trkpt><trkpt lat="46.2722976" lon="12.7783402"><ele>375.0</ele><time>2026-04-19T08:06:47.198Z</time></trkpt><trkpt lat="46.2722914" lon="12.7781006"><ele>374.0</ele><time>2026-04-19T08:06:48.199Z</time></trkpt><trkpt lat="46.272286" lon="12.7778515"><ele>373.0</ele><time>2026-04-19T08:06:49.198Z</time></trkpt><trkpt lat="46.2722798" lon="12.7775933"><ele>377.3333333333333</ele><time>2026-04-19T08:06:50.198Z</time></trkpt><trkpt lat="46.2722703" lon="12.7773392"><ele>381.66666666666663</ele><time>2026-04-19T08:06:51.199Z</time></trkpt><trkpt lat="46.2722627" lon="12.777089"><ele>386.0</ele><time>2026-04-19T08:06:52.199Z</time></trkpt><trkpt lat="46.2722571" lon="12.7768592"><ele>386.0</ele><time>2026-04-19T08:06:53.198Z</time></trkpt><trkpt lat="46.2722451" lon="12.7766407"><ele>386.0</ele><time>2026-04-19T08:06:54.199Z</time></trkpt><trkpt lat="46.2722405" lon="12.776433"><ele>386.0</ele><time>2026-04-19T08:06:55.198Z</time></trkpt><trkpt lat="46.2722418" lon="12.7762289"><ele>386.0</ele><time>2026-04-19T08:06:56.199Z</time></trkpt><trkpt lat="46.2722319" lon="12.776035"><ele>386.5</ele><time>2026-04-19T08:06:57.199Z</time></trkpt><trkpt lat="46.2722166" lon="12.7758496"><ele>387.0</ele><time>2026-04-19T08:06:58.199Z</time></trkpt><trkpt lat="46.2721875" lon="12.7756664"><ele>387.5</ele><time>2026-04-19T08:06:59.199Z</time></trkpt><trkpt lat="46.2721369" lon="12.775477"><ele>388.0</ele><time>2026-04-19T08:07:00.2Z</time></trkpt><trkpt lat="46.2720698" lon="12.775286"><ele>388.0</ele><time>2026-04-19T08:07:01.2Z</time></trkpt><trkpt lat="46.272" lon="12.7750851"><ele>388.0</ele><time>2026-04-19T08:07:02.199Z</time></trkpt><trkpt lat="46.2719277" lon="12.7748796"><ele>388.0</ele><time>2026-04-19T08:07:03.199Z</time></trkpt><trkpt lat="46.2718516" lon="12.7746639"><ele>388.0</ele><time>2026-04-19T08:07:04.199Z</time></trkpt><trkpt lat="46.2717733" lon="12.7744434"><ele>388.0</ele><time>2026-04-19T08:07:05.198Z</time></trkpt><trkpt lat="46.2716908" lon="12.7742156"><ele>388.0</ele><time>2026-04-19T08:07:06.198Z</time></trkpt><trkpt lat="46.2716101" lon="12.773975"><ele>387.6666666666667</ele><time>2026-04-19T08:07:07.199Z</time></trkpt><trkpt lat="46.2715288" lon="12.7737366"><ele>387.33333333333337</ele><time>2026-04-19T08:07:08.199Z</time></trkpt><trkpt lat="46.2714505" lon="12.7735092"><ele>387.0</ele><time>2026-04-19T08:07:09.199Z</time></trkpt><trkpt lat="46.271376" lon="12.7732925"><ele>386.0</ele><time>2026-04-19T08:07:10.198Z</time></trkpt><trkpt lat="46.2713078" lon="12.7730877"><ele>385.0</ele><time>2026-04-19T08:07:11.199Z</time></trkpt><trkpt lat="46.2712419" lon="12.7728875"><ele>384.0</ele><time>2026-04-19T08:07:12.199Z</time></trkpt><trkpt lat="46.2711814" lon="12.7726958"><ele>383.25</ele><time>2026-04-19T08:07:13.198Z</time></trkpt><trkpt lat="46.2711313" lon="12.7725187"><ele>382.5</ele><time>2026-04-19T08:07:14.198Z</time></trkpt><trkpt lat="46.2711022" lon="12.7723409"><ele>381.75</ele><time>2026-04-19T08:07:15.198Z</time></trkpt><trkpt lat="46.271096" lon="12.7721644"><ele>381.0</ele><time>2026-04-19T08:07:16.198Z</time></trkpt><trkpt lat="46.2711149" lon="12.7719872"><ele>379.5</ele><time>2026-04-19T08:07:17.199Z</time></trkpt><trkpt lat="46.2711635" lon="12.7718063"><ele>378.0</ele><time>2026-04-19T08:07:18.199Z</time></trkpt><trkpt lat="46.2712326" lon="12.7716364"><ele>376.5</ele><time>2026-04-19T08:07:19.198Z</time></trkpt><trkpt lat="46.2713041" lon="12.7714735"><ele>375.0</ele><time>2026-04-19T08:07:20.198Z</time></trkpt><trkpt lat="46.2713702" lon="12.7713151"><ele>375.0</ele><time>2026-04-19T08:07:21.199Z</time></trkpt><trkpt lat="46.2714186" lon="12.7711722"><ele>375.0</ele><time>2026-04-19T08:07:22.198Z</time></trkpt><trkpt lat="46.2714438" lon="12.7710354"><ele>375.0</ele><time>2026-04-19T08:07:23.199Z</time></trkpt><trkpt lat="46.2714487" lon="12.7709018"><ele>375.0</ele><time>2026-04-19T08:07:24.199Z</time></trkpt><trkpt lat="46.2714204" lon="12.770786"><ele>375.0</ele><time>2026-04-19T08:07:25.199Z</time></trkpt><trkpt lat="46.2713777" lon="12.7706674"><ele>372.8</ele><time>2026-04-19T08:07:26.2Z</time></trkpt><trkpt lat="46.2713005" lon="12.770603"><ele>370.6</ele><time>2026-04-19T08:07:27.199Z</time></trkpt><trkpt lat="46.2712089" lon="12.7705953"><ele>368.4</ele><time>2026-04-19T08:07:28.199Z</time></trkpt><trkpt lat="46.2711093" lon="12.7706198"><ele>366.2</ele><time>2026-04-19T08:07:29.199Z</time></trkpt><trkpt lat="46.2710042" lon="12.7706309"><ele>364.0</ele><time>2026-04-19T08:07:30.198Z</time></trkpt><trkpt lat="46.2709071" lon="12.7707839"><ele>364.0</ele><time>2026-04-19T08:07:31.199Z</time></trkpt><trkpt lat="46.2708148" lon="12.7709227"><ele>364.0</ele><time>2026-04-19T08:07:32.199Z</time></trkpt><trkpt lat="46.2707263" lon="12.7710734"><ele>364.0</ele><time>2026-04-19T08:07:33.199Z</time></trkpt><trkpt lat="46.2706405" lon="12.7712258"><ele>364.0</ele><time>2026-04-19T08:07:34.199Z</time></trkpt><trkpt lat="46.2705599" lon="12.771391"><ele>364.25</ele><time>2026-04-19T08:07:35.199Z</time></trkpt><trkpt lat="46.2704835" lon="12.7715509"><ele>364.5</ele><time>2026-04-19T08:07:36.199Z</time></trkpt><trkpt lat="46.2704091" lon="12.7716998"><ele>364.75</ele><time>2026-04-19T08:07:37.199Z</time></trkpt><trkpt lat="46.270327" lon="12.7718345"><ele>365.0</ele><time>2026-04-19T08:07:38.199Z</time></trkpt><trkpt lat="46.2702307" lon="12.7719384"><ele>365.0</ele><time>2026-04-19T08:07:39.198Z</time></trkpt><trkpt lat="46.2701185" lon="12.7720136"><ele>365.0</ele><time>2026-04-19T08:07:40.199Z</time></trkpt><trkpt lat="46.2700049" lon="12.7720754"><ele>365.0</ele><time>2026-04-19T08:07:41.199Z</time></trkpt><trkpt lat="46.2698927" lon="12.7721311"><ele>365.0</ele><time>2026-04-19T08:07:42.199Z</time></trkpt><trkpt lat="46.2697817" lon="12.7721895"><ele>357.5</ele><time>2026-04-19T08:07:43.199Z</time></trkpt><trkpt lat="46.2696694" lon="12.7722447"><ele>350.0</ele><time>2026-04-19T08:07:44.199Z</time></trkpt><trkpt lat="46.2695597" lon="12.7723029"><ele>342.5</ele><time>2026-04-19T08:07:45.199Z</time></trkpt><trkpt lat="46.269457" lon="12.7723806"><ele>335.0</ele><time>2026-04-19T08:07:46.198Z</time></trkpt><trkpt lat="46.2693641" lon="12.7724794"><ele>335.0</ele><time>2026-04-19T08:07:47.199Z</time></trkpt><trkpt lat="46.2692789" lon="12.7725953"><ele>335.0</ele><time>2026-04-19T08:07:48.199Z</time></trkpt><trkpt lat="46.2691889" lon="12.7727182"><ele>335.0</ele><time>2026-04-19T08:07:49.199Z</time></trkpt><trkpt lat="46.2690982" lon="12.7728505"><ele>335.0</ele><time>2026-04-19T08:07:50.198Z</time></trkpt><trkpt lat="46.2690065" lon="12.772986"><ele>335.75</ele><time>2026-04-19T08:07:51.198Z</time></trkpt><trkpt lat="46.2689137" lon="12.7731199"><ele>336.5</ele><time>2026-04-19T08:07:52.199Z</time></trkpt><trkpt lat="46.2688235" lon="12.7732547"><ele>337.25</ele><time>2026-04-19T08:07:53.199Z</time></trkpt><trkpt lat="46.2687438" lon="12.773403"><ele>338.0</ele><time>2026-04-19T08:07:54.198Z</time></trkpt><trkpt lat="46.2686848" lon="12.7735595"><ele>338.0</ele><time>2026-04-19T08:07:55.199Z</time></trkpt><trkpt lat="46.2686239" lon="12.7737043"><ele>338.0</ele><time>2026-04-19T08:07:56.199Z</time></trkpt><trkpt lat="46.2685515" lon="12.7738153"><ele>338.0</ele><time>2026-04-19T08:07:57.198Z</time></trkpt><trkpt lat="46.2684625" lon="12.7738943"><ele>338.0</ele><time>2026-04-19T08:07:58.199Z</time></trkpt><trkpt lat="46.2683651" lon="12.7739308"><ele>338.0</ele><time>2026-04-19T08:07:59.199Z</time></trkpt><trkpt lat="46.2682573" lon="12.7739272"><ele>338.0</ele><time>2026-04-19T08:08:00.199Z</time></trkpt><trkpt lat="46.2681427" lon="12.7739129"><ele>338.0</ele><time>2026-04-19T08:08:01.198Z</time></trkpt><trkpt lat="46.268024" lon="12.7739005"><ele>338.0</ele><time>2026-04-19T08:08:02.199Z</time></trkpt><trkpt lat="46.2679012" lon="12.7738869"><ele>338.0</ele><time>2026-04-19T08:08:03.198Z</time></trkpt><trkpt lat="46.2677777" lon="12.7738674"><ele>337.5</ele><time>2026-04-19T08:08:04.198Z</time></trkpt><trkpt lat="46.2676467" lon="12.7738399"><ele>337.0</ele><time>2026-04-19T08:08:05.199Z</time></trkpt><trkpt lat="46.2675115" lon="12.7737963"><ele>336.5</ele><time>2026-04-19T08:08:06.2Z</time></trkpt><trkpt lat="46.2673741" lon="12.7737471"><ele>336.0</ele><time>2026-04-19T08:08:07.198Z</time></trkpt><trkpt lat="46.2672337" lon="12.7736985"><ele>336.0</ele><time>2026-04-19T08:08:08.199Z</time></trkpt><trkpt lat="46.2670954" lon="12.7736549"><ele>336.0</ele><time>2026-04-19T08:08:09.199Z</time></trkpt><trkpt lat="46.2669506" lon="12.7736182"><ele>336.0</ele><time>2026-04-19T08:08:10.198Z</time></trkpt><trkpt lat="46.2668072" lon="12.7735839"><ele>336.0</ele><time>2026-04-19T08:08:11.199Z</time></trkpt><trkpt lat="46.266668" lon="12.7735651"><ele>336.0</ele><time>2026-04-19T08:08:12.199Z</time></trkpt><trkpt lat="46.2665364" lon="12.7735602"><ele>336.0</ele><time>2026-04-19T08:08:13.199Z</time></trkpt><trkpt lat="46.2664124" lon="12.7735613"><ele>336.0</ele><time>2026-04-19T08:08:14.198Z</time></trkpt><trkpt lat="46.2662967" lon="12.7735433"><ele>336.0</ele><time>2026-04-19T08:08:15.2Z</time></trkpt><trkpt lat="46.2661633" lon="12.7734854"><ele>334.5</ele><time>2026-04-19T08:08:16.199Z</time></trkpt><trkpt lat="46.2660339" lon="12.7733954"><ele>333.0</ele><time>2026-04-19T08:08:17.199Z</time></trkpt><trkpt lat="46.265908" lon="12.773298"><ele>331.5</ele><time>2026-04-19T08:08:18.199Z</time></trkpt><trkpt lat="46.265789" lon="12.7731737"><ele>330.0</ele><time>2026-04-19T08:08:19.198Z</time></trkpt><trkpt lat="46.2656726" lon="12.773023"><ele>329.6666666666667</ele><time>2026-04-19T08:08:20.2Z</time></trkpt><trkpt lat="46.2655507" lon="12.7728814"><ele>329.33333333333337</ele><time>2026-04-19T08:08:21.199Z</time></trkpt><trkpt lat="46.2654234" lon="12.7727361"><ele>329.0</ele><time>2026-04-19T08:08:22.199Z</time></trkpt><trkpt lat="46.2652675" lon="12.7726304"><ele>329.0</ele><time>2026-04-19T08:08:23.199Z</time></trkpt><trkpt lat="46.2651372" lon="12.7725039"><ele>329.0</ele><time>2026-04-19T08:08:24.199Z</time></trkpt><trkpt lat="46.2650226" lon="12.7723766"><ele>329.0</ele><time>2026-04-19T08:08:25.2Z</time></trkpt><trkpt lat="46.2649215" lon="12.7722487"><ele>329.0</ele><time>2026-04-19T08:08:26.199Z</time></trkpt><trkpt lat="46.2648432" lon="12.7721255"><ele>328.6</ele><time>2026-04-19T08:08:27.199Z</time></trkpt><trkpt lat="46.2647757" lon="12.7719984"><ele>328.2</ele><time>2026-04-19T08:08:28.199Z</time></trkpt><trkpt lat="46.2646945" lon="12.7719011"><ele>327.8</ele><time>2026-04-19T08:08:29.199Z</time></trkpt><trkpt lat="46.2646022" lon="12.7718456"><ele>327.40000000000003</ele><time>2026-04-19T08:08:30.199Z</time></trkpt><trkpt lat="46.264505" lon="12.7718296"><ele>327.0</ele><time>2026-04-19T08:08:31.198Z</time></trkpt><trkpt lat="46.2644051" lon="12.7718571"><ele>327.0</ele><time>2026-04-19T08:08:32.199Z</time></trkpt><trkpt lat="46.2643028" lon="12.7719098"><ele>327.0</ele><time>2026-04-19T08:08:33.198Z</time></trkpt><trkpt lat="46.2641954" lon="12.7719687"><ele>327.0</ele><time>2026-04-19T08:08:34.199Z</time></trkpt><trkpt lat="46.2640834" lon="12.7720105"><ele>327.0</ele><time>2026-04-19T08:08:35.198Z</time></trkpt><trkpt lat="46.2639664" lon="12.7720325"><ele>326.20000000000005</ele><time>2026-04-19T08:08:36.199Z</time></trkpt><trkpt lat="46.2638526" lon="12.7720442"><ele>325.4</ele><time>2026-04-19T08:08:37.199Z</time></trkpt><trkpt lat="46.2637504" lon="12.7720397"><ele>324.6</ele><time>2026-04-19T08:08:38.198Z</time></trkpt><trkpt lat="46.2636613" lon="12.7720074"><ele>323.79999999999995</ele><time>2026-04-19T08:08:39.199Z</time></trkpt><trkpt lat="46.2635794" lon="12.7719359"><ele>323.0</ele><time>2026-04-19T08:08:40.199Z</time></trkpt><trkpt lat="46.2635014" lon="12.7718105"><ele>323.0</ele><time>2026-04-19T08:08:41.199Z</time></trkpt><trkpt lat="46.263425" lon="12.7716631"><ele>323.0</ele><time>2026-04-19T08:08:42.198Z</time></trkpt><trkpt lat="46.2633527" lon="12.7715119"><ele>323.0</ele><time>2026-04-19T08:08:43.198Z</time></trkpt><trkpt lat="46.2632906" lon="12.7713315"><ele>323.0</ele><time>2026-04-19T08:08:44.199Z</time></trkpt><trkpt lat="46.2632439" lon="12.7711352"><ele>320.75</ele><time>2026-04-19T08:08:45.199Z</time></trkpt><trkpt lat="46.2632014" lon="12.7709357"><ele>318.5</ele><time>2026-04-19T08:08:46.199Z</time></trkpt><trkpt lat="46.2631509" lon="12.7707353"><ele>316.25</ele><time>2026-04-19T08:08:47.199Z</time></trkpt><trkpt lat="46.2630964" lon="12.7705602"><ele>314.0</ele><time>2026-04-19T08:08:48.2Z</time></trkpt><trkpt lat="46.2630449" lon="12.7704015"><ele>324.6</ele><time>2026-04-19T08:08:49.199Z</time></trkpt><trkpt lat="46.2629949" lon="12.7702518"><ele>335.2</ele><time>2026-04-19T08:08:50.2Z</time></trkpt><trkpt lat="46.2629491" lon="12.7701248"><ele>345.8</ele><time>2026-04-19T08:08:51.199Z</time></trkpt><trkpt lat="46.2629099" lon="12.7700152"><ele>356.40000000000003</ele><time>2026-04-19T08:08:52.198Z</time></trkpt><trkpt lat="46.2628755" lon="12.7699274"><ele>367.0</ele><time>2026-04-19T08:08:53.199Z</time></trkpt><trkpt lat="46.2628267" lon="12.7698305"><ele>367.0</ele><time>2026-04-19T08:08:55.199Z</time></trkpt><trkpt lat="46.2627597" lon="12.7698197"><ele>367.0</ele><time>2026-04-19T08:08:57.199Z</time></trkpt><trkpt lat="46.262747" lon="12.7699231"><ele>367.0</ele><time>2026-04-19T08:08:59.199Z</time></trkpt><trkpt lat="46.2628225" lon="12.7701102"><ele>367.0</ele><time>2026-04-19T08:09:01.199Z</time></trkpt><trkpt lat="46.2628697" lon="12.7702438"><ele>367.0</ele><time>2026-04-19T08:09:02.199Z</time></trkpt><trkpt lat="46.2629153" lon="12.7703805"><ele>371.5</ele><time>2026-04-19T08:09:03.198Z</time></trkpt><trkpt lat="46.2629624" lon="12.7705383"><ele>376.0</ele><time>2026-04-19T08:09:04.2Z</time></trkpt><trkpt lat="46.2630083" lon="12.770719"><ele>380.5</ele><time>2026-04-19T08:09:05.199Z</time></trkpt><trkpt lat="46.2630447" lon="12.7709044"><ele>385.0</ele><time>2026-04-19T08:09:06.198Z</time></trkpt><trkpt lat="46.2630694" lon="12.7710992"><ele>385.75</ele><time>2026-04-19T08:09:07.199Z</time></trkpt><trkpt lat="46.2630959" lon="12.7712958"><ele>386.5</ele><time>2026-04-19T08:09:08.198Z</time></trkpt><trkpt lat="46.2631363" lon="12.7714899"><ele>387.25</ele><time>2026-04-19T08:09:09.199Z</time></trkpt><trkpt lat="46.2631855" lon="12.7716812"><ele>388.0</ele><time>2026-04-19T08:09:10.2Z</time></trkpt><trkpt lat="46.263234" lon="12.7718576"><ele>377.4</ele><time>2026-04-19T08:09:11.2Z</time></trkpt><trkpt lat="46.2632814" lon="12.7720202"><ele>366.79999999999995</ele><time>2026-04-19T08:09:12.199Z</time></trkpt><trkpt lat="46.2633156" lon="12.7721717"><ele>356.2</ele><time>2026-04-19T08:09:13.2Z</time></trkpt><trkpt lat="46.2633346" lon="12.7723272"><ele>345.6</ele><time>2026-04-19T08:09:14.198Z</time></trkpt><trkpt lat="46.2633374" lon="12.7724769"><ele>335.0</ele><time>2026-04-19T08:09:15.199Z</time></trkpt><trkpt lat="46.2632938" lon="12.7726425"><ele>333.75</ele><time>2026-04-19T08:09:16.199Z</time></trkpt><trkpt lat="46.2632388" lon="12.7727954"><ele>332.5</ele><time>2026-04-19T08:09:17.198Z</time></trkpt><trkpt lat="46.2631973" lon="12.772958"><ele>331.25</ele><time>2026-04-19T08:09:18.199Z</time></trkpt><trkpt lat="46.2631557" lon="12.7731358"><ele>330.0</ele><time>2026-04-19T08:09:19.199Z</time></trkpt><trkpt lat="46.263091" lon="12.7733175"><ele>343.6666666666667</ele><time>2026-04-19T08:09:20.199Z</time></trkpt><trkpt lat="46.2630083" lon="12.7735023"><ele>357.33333333333337</ele><time>2026-04-19T08:09:21.2Z</time></trkpt><trkpt lat="46.2629244" lon="12.7737027"><ele>371.0</ele><time>2026-04-19T08:09:22.198Z</time></trkpt><trkpt lat="46.2628517" lon="12.7739121"><ele>371.0</ele><time>2026-04-19T08:09:23.199Z</time></trkpt><trkpt lat="46.2627615" lon="12.7741185"><ele>371.0</ele><time>2026-04-19T08:09:24.198Z</time></trkpt><trkpt lat="46.2626566" lon="12.7743113"><ele>371.0</ele><time>2026-04-19T08:09:25.199Z</time></trkpt><trkpt lat="46.2625603" lon="12.7745041"><ele>366.75</ele><time>2026-04-19T08:09:26.199Z</time></trkpt><trkpt lat="46.2624748" lon="12.7747033"><ele>362.5</ele><time>2026-04-19T08:09:27.199Z</time></trkpt><trkpt lat="46.2623909" lon="12.7748784"><ele>358.25</ele><time>2026-04-19T08:09:28.198Z</time></trkpt><trkpt lat="46.2623012" lon="12.7750307"><ele>354.0</ele><time>2026-04-19T08:09:29.199Z</time></trkpt><trkpt lat="46.2622173" lon="12.7751921"><ele>368.25</ele><time>2026-04-19T08:09:30.199Z</time></trkpt><trkpt lat="46.2621624" lon="12.7753246"><ele>382.5</ele><time>2026-04-19T08:09:31.198Z</time></trkpt><trkpt lat="46.2621131" lon="12.7755072"><ele>396.75</ele><time>2026-04-19T08:09:32.199Z</time></trkpt><trkpt lat="46.2621595" lon="12.7757192"><ele>411.0</ele><time>2026-04-19T08:09:33.198Z</time></trkpt><trkpt lat="46.2621687" lon="12.7759302"><ele>409.25</ele><time>2026-04-19T08:09:34.198Z</time></trkpt><trkpt lat="46.2621793" lon="12.7761424"><ele>407.5</ele><time>2026-04-19T08:09:35.199Z</time></trkpt><trkpt lat="46.2621687" lon="12.7763359"><ele>405.75</ele><time>2026-04-19T08:09:36.2Z</time></trkpt><trkpt lat="46.2621629" lon="12.7765256"><ele>404.0</ele><time>2026-04-19T08:09:37.198Z</time></trkpt><trkpt lat="46.2621662" lon="12.7767115"><ele>403.75</ele><time>2026-04-19T08:09:38.199Z</time></trkpt><trkpt lat="46.2622031" lon="12.7768955"><ele>403.5</ele><time>2026-04-19T08:09:39.199Z</time></trkpt><trkpt lat="46.2622382" lon="12.7770989"><ele>403.25</ele><time>2026-04-19T08:09:40.2Z</time></trkpt><trkpt lat="46.2622807" lon="12.7773192"><ele>403.0</ele><time>2026-04-19T08:09:41.198Z</time></trkpt><trkpt lat="46.2623168" lon="12.7775465"><ele>391.25</ele><time>2026-04-19T08:09:42.199Z</time></trkpt><trkpt lat="46.262327" lon="12.7777731"><ele>379.5</ele><time>2026-04-19T08:09:43.199Z</time></trkpt><trkpt lat="46.2623451" lon="12.7779809"><ele>367.75</ele><time>2026-04-19T08:09:44.198Z</time></trkpt><trkpt lat="46.2623746" lon="12.778162"><ele>356.0</ele><time>2026-04-19T08:09:45.199Z</time></trkpt><trkpt lat="46.2624089" lon="12.7783288"><ele>356.0</ele><time>2026-04-19T08:09:46.199Z</time></trkpt><trkpt lat="46.2624318" lon="12.7784779"><ele>356.0</ele><time>2026-04-19T08:09:47.199Z</time></trkpt><trkpt lat="46.2624363" lon="12.7786058"><ele>356.0</ele><time>2026-04-19T08:09:48.199Z</time></trkpt><trkpt lat="46.2624152" lon="12.778746"><ele>356.0</ele><time>2026-04-19T08:09:49.198Z</time></trkpt><trkpt lat="46.2623868" lon="12.7789013"><ele>356.0</ele><time>2026-04-19T08:09:50.199Z</time></trkpt><trkpt lat="46.2623718" lon="12.7790609"><ele>358.0</ele><time>2026-04-19T08:09:51.198Z</time></trkpt><trkpt lat="46.2623784" lon="12.7792294"><ele>360.0</ele><time>2026-04-19T08:09:52.198Z</time></trkpt><trkpt lat="46.2624073" lon="12.7794245"><ele>362.0</ele><time>2026-04-19T08:09:53.199Z</time></trkpt><trkpt lat="46.2624072" lon="12.779621"><ele>364.0</ele><time>2026-04-19T08:09:54.198Z</time></trkpt><trkpt lat="46.2624085" lon="12.7798203"><ele>364.25</ele><time>2026-04-19T08:09:55.2Z</time></trkpt><trkpt lat="46.2624101" lon="12.7800166"><ele>364.5</ele><time>2026-04-19T08:09:56.199Z</time></trkpt><trkpt lat="46.2623792" lon="12.780213"><ele>364.75</ele><time>2026-04-19T08:09:57.2Z</time></trkpt><trkpt lat="46.2623277" lon="12.7803917"><ele>365.0</ele><time>2026-04-19T08:09:58.199Z</time></trkpt><trkpt lat="46.2622882" lon="12.7805523"><ele>367.6</ele><time>2026-04-19T08:09:59.198Z</time></trkpt><trkpt lat="46.2622499" lon="12.7807002"><ele>370.2</ele><time>2026-04-19T08:10:00.199Z</time></trkpt><trkpt lat="46.2622403" lon="12.7808563"><ele>372.79999999999995</ele><time>2026-04-19T08:10:01.198Z</time></trkpt><trkpt lat="46.262194" lon="12.7809749"><ele>375.4</ele><time>2026-04-19T08:10:02.199Z</time></trkpt><trkpt lat="46.2621234" lon="12.7810892"><ele>378.0</ele><time>2026-04-19T08:10:03.199Z</time></trkpt><trkpt lat="46.2620462" lon="12.7812202"><ele>378.0</ele><time>2026-04-19T08:10:04.199Z</time></trkpt><trkpt lat="46.2619596" lon="12.7813625"><ele>378.0</ele><time>2026-04-19T08:10:05.198Z</time></trkpt><trkpt lat="46.2618559" lon="12.7814973"><ele>378.0</ele><time>2026-04-19T08:10:06.199Z</time></trkpt><trkpt lat="46.2617435" lon="12.781614"><ele>378.0</ele><time>2026-04-19T08:10:07.199Z</time></trkpt><trkpt lat="46.2616508" lon="12.781748"><ele>373.25</ele><time>2026-04-19T08:10:08.199Z</time></trkpt><trkpt lat="46.2615895" lon="12.7819136"><ele>368.5</ele><time>2026-04-19T08:10:09.199Z</time></trkpt><trkpt lat="46.2615353" lon="12.7820825"><ele>363.75</ele><time>2026-04-19T08:10:10.199Z</time></trkpt><trkpt lat="46.2614638" lon="12.7822197"><ele>359.0</ele><time>2026-04-19T08:10:11.198Z</time></trkpt><trkpt lat="46.2613727" lon="12.7823307"><ele>368.0</ele><time>2026-04-19T08:10:12.199Z</time></trkpt><trkpt lat="46.2612675" lon="12.7824241"><ele>377.0</ele><time>2026-04-19T08:10:13.199Z</time></trkpt><trkpt lat="46.2611631" lon="12.7825144"><ele>386.0</ele><time>2026-04-19T08:10:14.199Z</time></trkpt><trkpt lat="46.2610642" lon="12.7826181"><ele>395.0</ele><time>2026-04-19T08:10:15.199Z</time></trkpt><trkpt lat="46.260976" lon="12.7827452"><ele>395.0</ele><time>2026-04-19T08:10:16.199Z</time></trkpt><trkpt lat="46.2609135" lon="12.7829141"><ele>395.0</ele><time>2026-04-19T08:10:17.199Z</time></trkpt><trkpt lat="46.2608818" lon="12.7831118"><ele>395.0</ele><time>2026-04-19T08:10:18.199Z</time></trkpt><trkpt lat="46.2608364" lon="12.7833075"><ele>395.0</ele><time>2026-04-19T08:10:19.197Z</time></trkpt><trkpt lat="46.2607889" lon="12.7835089"><ele>390.3333333333333</ele><time>2026-04-19T08:10:20.198Z</time></trkpt><trkpt lat="46.2607433" lon="12.7837222"><ele>385.66666666666663</ele><time>2026-04-19T08:10:21.198Z</time></trkpt><trkpt lat="46.2607023" lon="12.7839335"><ele>381.0</ele><time>2026-04-19T08:10:22.197Z</time></trkpt><trkpt lat="46.2606717" lon="12.7841374"><ele>381.0</ele><time>2026-04-19T08:10:23.199Z</time></trkpt><trkpt lat="46.2606546" lon="12.7843248"><ele>381.0</ele><time>2026-04-19T08:10:24.198Z</time></trkpt><trkpt lat="46.2606569" lon="12.7845232"><ele>381.0</ele><time>2026-04-19T08:10:25.197Z</time></trkpt><trkpt lat="46.2606667" lon="12.7847188"><ele>381.0</ele><time>2026-04-19T08:10:26.199Z</time></trkpt><trkpt lat="46.2607093" lon="12.7848918"><ele>381.75</ele><time>2026-04-19T08:10:27.198Z</time></trkpt><trkpt lat="46.2608316" lon="12.7850381"><ele>382.5</ele><time>2026-04-19T08:10:28.199Z</time></trkpt><trkpt lat="46.2609106" lon="12.78521"><ele>383.25</ele><time>2026-04-19T08:10:29.198Z</time></trkpt><trkpt lat="46.2609884" lon="12.7853684"><ele>384.0</ele><time>2026-04-19T08:10:30.198Z</time></trkpt><trkpt lat="46.261041" lon="12.785522"><ele>387.75</ele><time>2026-04-19T08:10:31.197Z</time></trkpt><trkpt lat="46.2610739" lon="12.785685"><ele>391.5</ele><time>2026-04-19T08:10:32.197Z</time></trkpt><trkpt lat="46.2610872" lon="12.7858696"><ele>395.25</ele><time>2026-04-19T08:10:33.198Z</time></trkpt><trkpt lat="46.2610974" lon="12.786078"><ele>399.0</ele><time>2026-04-19T08:10:34.199Z</time></trkpt><trkpt lat="46.2611166" lon="12.7862881"><ele>399.5</ele><time>2026-04-19T08:10:35.198Z</time></trkpt><trkpt lat="46.2611438" lon="12.7865004"><ele>400.0</ele><time>2026-04-19T08:10:36.198Z</time></trkpt><trkpt lat="46.2611913" lon="12.7867006"><ele>400.5</ele><time>2026-04-19T08:10:37.198Z</time></trkpt><trkpt lat="46.2612524" lon="12.7868887"><ele>401.0</ele><time>2026-04-19T08:10:38.198Z</time></trkpt><trkpt lat="46.261309" lon="12.787051"><ele>401.0</ele><time>2026-04-19T08:10:39.198Z</time></trkpt><trkpt lat="46.2613371" lon="12.7871995"><ele>401.0</ele><time>2026-04-19T08:10:40.197Z</time></trkpt><trkpt lat="46.2613438" lon="12.7873442"><ele>401.0</ele><time>2026-04-19T08:10:41.199Z</time></trkpt><trkpt lat="46.2613289" lon="12.7875139"><ele>401.0</ele><time>2026-04-19T08:10:42.199Z</time></trkpt><trkpt lat="46.261296" lon="12.787694"><ele>395.75</ele><time>2026-04-19T08:10:43.197Z</time></trkpt><trkpt lat="46.2612658" lon="12.7878691"><ele>390.5</ele><time>2026-04-19T08:10:44.198Z</time></trkpt><trkpt lat="46.2612272" lon="12.7880351"><ele>385.25</ele><time>2026-04-19T08:10:45.198Z</time></trkpt><trkpt lat="46.2611596" lon="12.7881973"><ele>380.0</ele><time>2026-04-19T08:10:46.197Z</time></trkpt><trkpt lat="46.2610668" lon="12.7883366"><ele>380.0</ele><time>2026-04-19T08:10:47.198Z</time></trkpt><trkpt lat="46.2609682" lon="12.7884559"><ele>380.0</ele><time>2026-04-19T08:10:48.198Z</time></trkpt><trkpt lat="46.2608528" lon="12.788541"><ele>380.0</ele><time>2026-04-19T08:10:49.198Z</time></trkpt><trkpt lat="46.2607266" lon="12.7885787"><ele>380.0</ele><time>2026-04-19T08:10:50.197Z</time></trkpt><trkpt lat="46.2606017" lon="12.7886075"><ele>382.8</ele><time>2026-04-19T08:10:51.198Z</time></trkpt><trkpt lat="46.2604855" lon="12.7886435"><ele>385.6</ele><time>2026-04-19T08:10:52.198Z</time></trkpt><trkpt lat="46.260397" lon="12.7886882"><ele>388.4</ele><time>2026-04-19T08:10:53.198Z</time></trkpt><trkpt lat="46.2603192" lon="12.7887482"><ele>391.2</ele><time>2026-04-19T08:10:54.198Z</time></trkpt><trkpt lat="46.2602475" lon="12.7888428"><ele>394.0</ele><time>2026-04-19T08:10:55.198Z</time></trkpt><trkpt lat="46.2602158" lon="12.788998"><ele>394.0</ele><time>2026-04-19T08:10:56.198Z</time></trkpt><trkpt lat="46.260148" lon="12.7891019"><ele>394.0</ele><time>2026-04-19T08:10:57.198Z</time></trkpt><trkpt lat="46.2600468" lon="12.7892009"><ele>394.0</ele><time>2026-04-19T08:10:58.198Z</time></trkpt><trkpt lat="46.2599508" lon="12.7893056"><ele>394.0</ele><time>2026-04-19T08:10:59.197Z</time></trkpt><trkpt lat="46.2598479" lon="12.7894196"><ele>401.25</ele><time>2026-04-19T08:11:00.198Z</time></trkpt><trkpt lat="46.259736" lon="12.7895202"><ele>408.5</ele><time>2026-04-19T08:11:01.198Z</time></trkpt><trkpt lat="46.2596284" lon="12.7896097"><ele>415.75</ele><time>2026-04-19T08:11:02.199Z</time></trkpt><trkpt lat="46.2595362" lon="12.7897021"><ele>423.0</ele><time>2026-04-19T08:11:03.197Z</time></trkpt><trkpt lat="46.2594627" lon="12.7898141"><ele>423.0</ele><time>2026-04-19T08:11:04.198Z</time></trkpt><trkpt lat="46.2594158" lon="12.7899616"><ele>423.0</ele><time>2026-04-19T08:11:05.199Z</time></trkpt><trkpt lat="46.2593807" lon="12.7901381"><ele>423.0</ele><time>2026-04-19T08:11:06.198Z</time></trkpt><trkpt lat="46.2593341" lon="12.7902959"><ele>423.0</ele><time>2026-04-19T08:11:07.198Z</time></trkpt><trkpt lat="46.2592913" lon="12.7904557"><ele>419.59999999999997</ele><time>2026-04-19T08:11:08.198Z</time></trkpt><trkpt lat="46.2592676" lon="12.7906171"><ele>416.2</ele><time>2026-04-19T08:11:09.198Z</time></trkpt><trkpt lat="46.2592587" lon="12.7907778"><ele>412.8</ele><time>2026-04-19T08:11:10.198Z</time></trkpt><trkpt lat="46.2592667" lon="12.7909399"><ele>409.4</ele><time>2026-04-19T08:11:11.197Z</time></trkpt><trkpt lat="46.2592817" lon="12.7910987"><ele>406.0</ele><time>2026-04-19T08:11:12.198Z</time></trkpt><trkpt lat="46.2593081" lon="12.791272"><ele>406.0</ele><time>2026-04-19T08:11:13.198Z</time></trkpt><trkpt lat="46.2593609" lon="12.7914069"><ele>406.0</ele><time>2026-04-19T08:11:14.198Z</time></trkpt><trkpt lat="46.259441" lon="12.7915088"><ele>406.0</ele><time>2026-04-19T08:11:15.198Z</time></trkpt><trkpt lat="46.2595264" lon="12.7915958"><ele>406.0</ele><time>2026-04-19T08:11:16.198Z</time></trkpt><trkpt lat="46.259584" lon="12.7917472"><ele>406.0</ele><time>2026-04-19T08:11:17.198Z</time></trkpt><trkpt lat="46.2596431" lon="12.7919053"><ele>409.5</ele><time>2026-04-19T08:11:18.198Z</time></trkpt><trkpt lat="46.2596976" lon="12.7920958"><ele>413.0</ele><time>2026-04-19T08:11:19.197Z</time></trkpt><trkpt lat="46.2597478" lon="12.7922866"><ele>416.5</ele><time>2026-04-19T08:11:20.198Z</time></trkpt><trkpt lat="46.2598096" lon="12.7924857"><ele>420.0</ele><time>2026-04-19T08:11:21.198Z</time></trkpt><trkpt lat="46.2598716" lon="12.7926921"><ele>410.66666666666663</ele><time>2026-04-19T08:11:22.197Z</time></trkpt><trkpt lat="46.2599278" lon="12.7929065"><ele>401.3333333333333</ele><time>2026-04-19T08:11:23.198Z</time></trkpt><trkpt lat="46.2599749" lon="12.7931211"><ele>392.0</ele><time>2026-04-19T08:11:24.197Z</time></trkpt><trkpt lat="46.2600156" lon="12.7933252"><ele>393.0</ele><time>2026-04-19T08:11:25.198Z</time></trkpt><trkpt lat="46.2600459" lon="12.7935145"><ele>394.0</ele><time>2026-04-19T08:11:26.199Z</time></trkpt><trkpt lat="46.2600749" lon="12.7936895"><ele>395.0</ele><time>2026-04-19T08:11:27.197Z</time></trkpt><trkpt lat="46.2600929" lon="12.7938567"><ele>396.0</ele><time>2026-04-19T08:11:28.198Z</time></trkpt><trkpt lat="46.2600953" lon="12.7940247"><ele>396.0</ele><time>2026-04-19T08:11:29.199Z</time></trkpt><trkpt lat="46.2600817" lon="12.7941978"><ele>396.0</ele><time>2026-04-19T08:11:30.199Z</time></trkpt><trkpt lat="46.2600529" lon="12.7943704"><ele>396.0</ele><time>2026-04-19T08:11:31.198Z</time></trkpt><trkpt lat="46.2600082" lon="12.7945461"><ele>396.0</ele><time>2026-04-19T08:11:32.198Z</time></trkpt><trkpt lat="46.2599603" lon="12.7947275"><ele>395.25</ele><time>2026-04-19T08:11:33.198Z</time></trkpt><trkpt lat="46.2599196" lon="12.7949092"><ele>394.5</ele><time>2026-04-19T08:11:34.197Z</time></trkpt><trkpt lat="46.2598995" lon="12.7950818"><ele>393.75</ele><time>2026-04-19T08:11:35.197Z</time></trkpt><trkpt lat="46.259892" lon="12.7952428"><ele>393.0</ele><time>2026-04-19T08:11:36.198Z</time></trkpt><trkpt lat="46.2598967" lon="12.7954045"><ele>390.59999999999997</ele><time>2026-04-19T08:11:37.197Z</time></trkpt><trkpt lat="46.259889" lon="12.7955458"><ele>388.2</ele><time>2026-04-19T08:11:38.197Z</time></trkpt><trkpt lat="46.2598565" lon="12.7956674"><ele>385.8</ele><time>2026-04-19T08:11:39.198Z</time></trkpt><trkpt lat="46.2598311" lon="12.7957817"><ele>383.4</ele><time>2026-04-19T08:11:40.198Z</time></trkpt><trkpt lat="46.2597423" lon="12.7958806"><ele>381.0</ele><time>2026-04-19T08:11:41.197Z</time></trkpt><trkpt lat="46.2596408" lon="12.7959556"><ele>390.8</ele><time>2026-04-19T08:11:42.198Z</time></trkpt><trkpt lat="46.2595473" lon="12.7960353"><ele>400.6</ele><time>2026-04-19T08:11:43.198Z</time></trkpt><trkpt lat="46.2594575" lon="12.7961237"><ele>410.4</ele><time>2026-04-19T08:11:44.198Z</time></trkpt><trkpt lat="46.2593838" lon="12.7962254"><ele>420.2</ele><time>2026-04-19T08:11:45.197Z</time></trkpt><trkpt lat="46.2593308" lon="12.7963301"><ele>430.0</ele><time>2026-04-19T08:11:46.198Z</time></trkpt><trkpt lat="46.2592849" lon="12.7964483"><ele>430.0</ele><time>2026-04-19T08:11:47.198Z</time></trkpt><trkpt lat="46.2592968" lon="12.7965991"><ele>430.0</ele><time>2026-04-19T08:11:48.198Z</time></trkpt><trkpt lat="46.2593164" lon="12.7967686"><ele>430.0</ele><time>2026-04-19T08:11:49.198Z</time></trkpt><trkpt lat="46.2593363" lon="12.7969556"><ele>430.0</ele><time>2026-04-19T08:11:50.199Z</time></trkpt><trkpt lat="46.2593691" lon="12.7971366"><ele>429.0</ele><time>2026-04-19T08:11:51.199Z</time></trkpt><trkpt lat="46.2594099" lon="12.7972964"><ele>428.0</ele><time>2026-04-19T08:11:52.198Z</time></trkpt><trkpt lat="46.2594329" lon="12.7974448"><ele>427.0</ele><time>2026-04-19T08:11:53.198Z</time></trkpt><trkpt lat="46.2594447" lon="12.79762"><ele>426.0</ele><time>2026-04-19T08:11:54.198Z</time></trkpt><trkpt lat="46.2594429" lon="12.797804"><ele>422.75</ele><time>2026-04-19T08:11:55.199Z</time></trkpt><trkpt lat="46.2594467" lon="12.7979957"><ele>419.5</ele><time>2026-04-19T08:11:56.198Z</time></trkpt><trkpt lat="46.2594438" lon="12.798212"><ele>416.25</ele><time>2026-04-19T08:11:57.198Z</time></trkpt><trkpt lat="46.2594259" lon="12.7984351"><ele>413.0</ele><time>2026-04-19T08:11:58.197Z</time></trkpt><trkpt lat="46.2593838" lon="12.7986603"><ele>412.5</ele><time>2026-04-19T08:11:59.198Z</time></trkpt><trkpt lat="46.2593523" lon="12.7988833"><ele>412.0</ele><time>2026-04-19T08:12:00.198Z</time></trkpt><trkpt lat="46.2593167" lon="12.7990879"><ele>411.5</ele><time>2026-04-19T08:12:01.198Z</time></trkpt><trkpt lat="46.2592724" lon="12.7992846"><ele>411.0</ele><time>2026-04-19T08:12:02.199Z</time></trkpt><trkpt lat="46.2592039" lon="12.7994567"><ele>412.25</ele><time>2026-04-19T08:12:03.199Z</time></trkpt><trkpt lat="46.2591495" lon="12.7996324"><ele>413.5</ele><time>2026-04-19T08:12:04.198Z</time></trkpt><trkpt lat="46.2591003" lon="12.7998162"><ele>414.75</ele><time>2026-04-19T08:12:05.199Z</time></trkpt><trkpt lat="46.2590984" lon="12.8000048"><ele>416.0</ele><time>2026-04-19T08:12:06.198Z</time></trkpt><trkpt lat="46.2590862" lon="12.8001753"><ele>416.25</ele><time>2026-04-19T08:12:07.198Z</time></trkpt><trkpt lat="46.2591183" lon="12.8003411"><ele>416.5</ele><time>2026-04-19T08:12:08.198Z</time></trkpt><trkpt lat="46.2591739" lon="12.8005001"><ele>416.75</ele><time>2026-04-19T08:12:09.197Z</time></trkpt><trkpt lat="46.2592276" lon="12.800673"><ele>417.0</ele><time>2026-04-19T08:12:10.198Z</time></trkpt><trkpt lat="46.2593215" lon="12.8008272"><ele>417.0</ele><time>2026-04-19T08:12:11.197Z</time></trkpt><trkpt lat="46.2593978" lon="12.8009881"><ele>417.0</ele><time>2026-04-19T08:12:12.198Z</time></trkpt><trkpt lat="46.2594756" lon="12.8011292"><ele>417.0</ele><time>2026-04-19T08:12:13.199Z</time></trkpt><trkpt lat="46.2595184" lon="12.8012748"><ele>417.0</ele><time>2026-04-19T08:12:14.198Z</time></trkpt><trkpt lat="46.2595369" lon="12.8014294"><ele>417.25</ele><time>2026-04-19T08:12:15.197Z</time></trkpt><trkpt lat="46.259529" lon="12.8015969"><ele>417.5</ele><time>2026-04-19T08:12:16.198Z</time></trkpt><trkpt lat="46.2595033" lon="12.8017892"><ele>417.75</ele><time>2026-04-19T08:12:17.197Z</time></trkpt><trkpt lat="46.2594682" lon="12.8019709"><ele>418.0</ele><time>2026-04-19T08:12:18.197Z</time></trkpt><trkpt lat="46.2594195" lon="12.8021684"><ele>417.0</ele><time>2026-04-19T08:12:19.198Z</time></trkpt><trkpt lat="46.2593696" lon="12.8023711"><ele>416.0</ele><time>2026-04-19T08:12:20.199Z</time></trkpt><trkpt lat="46.2593181" lon="12.8025842"><ele>415.0</ele><time>2026-04-19T08:12:21.198Z</time></trkpt><trkpt lat="46.259264" lon="12.80281"><ele>412.6666666666667</ele><time>2026-04-19T08:12:22.197Z</time></trkpt><trkpt lat="46.2592088" lon="12.803039"><ele>410.33333333333337</ele><time>2026-04-19T08:12:23.197Z</time></trkpt><trkpt lat="46.2591456" lon="12.8032746"><ele>408.0</ele><time>2026-04-19T08:12:24.198Z</time></trkpt><trkpt lat="46.2590873" lon="12.8035024"><ele>407.0</ele><time>2026-04-19T08:12:25.197Z</time></trkpt><trkpt lat="46.2590332" lon="12.8037131"><ele>406.0</ele><time>2026-04-19T08:12:26.198Z</time></trkpt><trkpt lat="46.2589909" lon="12.8039081"><ele>405.0</ele><time>2026-04-19T08:12:27.198Z</time></trkpt><trkpt lat="46.258969" lon="12.8041009"><ele>404.0</ele><time>2026-04-19T08:12:28.197Z</time></trkpt><trkpt lat="46.2589572" lon="12.8042913"><ele>407.25</ele><time>2026-04-19T08:12:29.197Z</time></trkpt><trkpt lat="46.2589747" lon="12.8044673"><ele>410.5</ele><time>2026-04-19T08:12:30.198Z</time></trkpt><trkpt lat="46.2590175" lon="12.8046363"><ele>413.75</ele><time>2026-04-19T08:12:31.198Z</time></trkpt><trkpt lat="46.2590899" lon="12.8047972"><ele>417.0</ele><time>2026-04-19T08:12:32.198Z</time></trkpt><trkpt lat="46.2591792" lon="12.8049217"><ele>417.0</ele><time>2026-04-19T08:12:33.198Z</time></trkpt><trkpt lat="46.2592685" lon="12.8050307"><ele>417.0</ele><time>2026-04-19T08:12:34.199Z</time></trkpt><trkpt lat="46.2593306" lon="12.8051465"><ele>417.0</ele><time>2026-04-19T08:12:35.197Z</time></trkpt><trkpt lat="46.2593613" lon="12.80528"><ele>417.0</ele><time>2026-04-19T08:12:36.198Z</time></trkpt><trkpt lat="46.2593699" lon="12.805419"><ele>417.0</ele><time>2026-04-19T08:12:37.199Z</time></trkpt><trkpt lat="46.2593424" lon="12.8055633"><ele>417.0</ele><time>2026-04-19T08:12:38.197Z</time></trkpt><trkpt lat="46.259313" lon="12.8057356"><ele>417.0</ele><time>2026-04-19T08:12:39.197Z</time></trkpt><trkpt lat="46.2592376" lon="12.8059019"><ele>417.0</ele><time>2026-04-19T08:12:40.197Z</time></trkpt><trkpt lat="46.2591811" lon="12.806082"><ele>417.0</ele><time>2026-04-19T08:12:41.197Z</time></trkpt><trkpt lat="46.2591156" lon="12.8062786"><ele>414.66666666666663</ele><time>2026-04-19T08:12:42.198Z</time></trkpt><trkpt lat="46.2590445" lon="12.8064897"><ele>412.3333333333333</ele><time>2026-04-19T08:12:43.198Z</time></trkpt><trkpt lat="46.2589597" lon="12.8067132"><ele>410.0</ele><time>2026-04-19T08:12:44.199Z</time></trkpt><trkpt lat="46.2588714" lon="12.8069436"><ele>419.3333333333333</ele><time>2026-04-19T08:12:45.198Z</time></trkpt><trkpt lat="46.2587976" lon="12.8071913"><ele>428.66666666666663</ele><time>2026-04-19T08:12:46.197Z</time></trkpt><trkpt lat="46.2587239" lon="12.8074646"><ele>438.0</ele><time>2026-04-19T08:12:47.198Z</time></trkpt><trkpt lat="46.2586454" lon="12.8077512"><ele>438.0</ele><time>2026-04-19T08:12:48.199Z</time></trkpt><trkpt lat="46.2585643" lon="12.8080376"><ele>438.0</ele><time>2026-04-19T08:12:49.198Z</time></trkpt><trkpt lat="46.2584895" lon="12.8082983"><ele>438.0</ele><time>2026-04-19T08:12:50.198Z</time></trkpt><trkpt lat="46.2584183" lon="12.808541"><ele>430.66666666666663</ele><time>2026-04-19T08:12:51.197Z</time></trkpt><trkpt lat="46.2583526" lon="12.8087703"><ele>423.3333333333333</ele><time>2026-04-19T08:12:52.198Z</time></trkpt><trkpt lat="46.2582873" lon="12.8089779"><ele>416.0</ele><time>2026-04-19T08:12:53.198Z</time></trkpt><trkpt lat="46.2582286" lon="12.8091614"><ele>416.0</ele><time>2026-04-19T08:12:54.198Z</time></trkpt><trkpt lat="46.2581493" lon="12.8093244"><ele>416.0</ele><time>2026-04-19T08:12:55.197Z</time></trkpt><trkpt lat="46.2580529" lon="12.8094721"><ele>416.0</ele><time>2026-04-19T08:12:56.198Z</time></trkpt><trkpt lat="46.2579522" lon="12.8096153"><ele>416.0</ele><time>2026-04-19T08:12:57.198Z</time></trkpt><trkpt lat="46.2578488" lon="12.8097538"><ele>416.75</ele><time>2026-04-19T08:12:58.198Z</time></trkpt><trkpt lat="46.2577338" lon="12.8098768"><ele>417.5</ele><time>2026-04-19T08:12:59.197Z</time></trkpt><trkpt lat="46.2576089" lon="12.8099939"><ele>418.25</ele><time>2026-04-19T08:13:00.198Z</time></trkpt><trkpt lat="46.2574842" lon="12.8101126"><ele>419.0</ele><time>2026-04-19T08:13:01.198Z</time></trkpt><trkpt lat="46.2573506" lon="12.8102493"><ele>419.0</ele><time>2026-04-19T08:13:02.199Z</time></trkpt><trkpt lat="46.2572191" lon="12.8103612"><ele>419.0</ele><time>2026-04-19T08:13:03.197Z</time></trkpt><trkpt lat="46.2570655" lon="12.8104613"><ele>419.0</ele><time>2026-04-19T08:13:04.197Z</time></trkpt><trkpt lat="46.2568859" lon="12.810501"><ele>419.0</ele><time>2026-04-19T08:13:05.198Z</time></trkpt><trkpt lat="46.2567176" lon="12.8105561"><ele>419.0</ele><time>2026-04-19T08:13:06.197Z</time></trkpt><trkpt lat="46.2565585" lon="12.8106207"><ele>419.0</ele><time>2026-04-19T08:13:07.198Z</time></trkpt><trkpt lat="46.2563963" lon="12.8106969"><ele>421.66666666666663</ele><time>2026-04-19T08:13:08.198Z</time></trkpt><trkpt lat="46.2562273" lon="12.8107653"><ele>424.33333333333337</ele><time>2026-04-19T08:13:09.198Z</time></trkpt><trkpt lat="46.2560513" lon="12.8108222"><ele>427.0</ele><time>2026-04-19T08:13:10.198Z</time></trkpt><trkpt lat="46.2558727" lon="12.8108691"><ele>427.0</ele><time>2026-04-19T08:13:11.198Z</time></trkpt><trkpt lat="46.2556955" lon="12.8109142"><ele>427.0</ele><time>2026-04-19T08:13:12.199Z</time></trkpt><trkpt lat="46.2555264" lon="12.8109744"><ele>427.0</ele><time>2026-04-19T08:13:13.198Z</time></trkpt><trkpt lat="46.2553703" lon="12.8110492"><ele>426.0</ele><time>2026-04-19T08:13:14.198Z</time></trkpt><trkpt lat="46.255225" lon="12.8111373"><ele>425.0</ele><time>2026-04-19T08:13:15.198Z</time></trkpt><trkpt lat="46.2551004" lon="12.8112335"><ele>424.0</ele><time>2026-04-19T08:13:16.197Z</time></trkpt><trkpt lat="46.2549964" lon="12.8113388"><ele>423.0</ele><time>2026-04-19T08:13:17.198Z</time></trkpt><trkpt lat="46.254917" lon="12.8114708"><ele>423.0</ele><time>2026-04-19T08:13:18.197Z</time></trkpt><trkpt lat="46.2548415" lon="12.811623"><ele>423.0</ele><time>2026-04-19T08:13:19.199Z</time></trkpt><trkpt lat="46.2547945" lon="12.8118147"><ele>423.0</ele><time>2026-04-19T08:13:20.198Z</time></trkpt><trkpt lat="46.2547304" lon="12.8119726"><ele>423.0</ele><time>2026-04-19T08:13:21.198Z</time></trkpt><trkpt lat="46.2546471" lon="12.8121252"><ele>426.0</ele><time>2026-04-19T08:13:22.198Z</time></trkpt><trkpt lat="46.2545714" lon="12.8122809"><ele>429.0</ele><time>2026-04-19T08:13:23.198Z</time></trkpt><trkpt lat="46.2544647" lon="12.8123949"><ele>432.0</ele><time>2026-04-19T08:13:24.198Z</time></trkpt><trkpt lat="46.2543362" lon="12.8124992"><ele>435.0</ele><time>2026-04-19T08:13:25.198Z</time></trkpt><trkpt lat="46.2542191" lon="12.8125882"><ele>435.75</ele><time>2026-04-19T08:13:26.198Z</time></trkpt><trkpt lat="46.2541005" lon="12.8126851"><ele>436.5</ele><time>2026-04-19T08:13:27.198Z</time></trkpt><trkpt lat="46.2539807" lon="12.8127626"><ele>437.25</ele><time>2026-04-19T08:13:28.197Z</time></trkpt><trkpt lat="46.2538588" lon="12.8128242"><ele>438.0</ele><time>2026-04-19T08:13:29.198Z</time></trkpt><trkpt lat="46.2537554" lon="12.8129022"><ele>443.75</ele><time>2026-04-19T08:13:30.198Z</time></trkpt><trkpt lat="46.2536509" lon="12.8129579"><ele>449.5</ele><time>2026-04-19T08:13:31.198Z</time></trkpt><trkpt lat="46.2535588" lon="12.8130485"><ele>455.25</ele><time>2026-04-19T08:13:32.198Z</time></trkpt><trkpt lat="46.253518" lon="12.8132972"><ele>461.0</ele><time>2026-04-19T08:13:33.197Z</time></trkpt><trkpt lat="46.2534881" lon="12.8134703"><ele>462.20000000000005</ele><time>2026-04-19T08:13:34.198Z</time></trkpt><trkpt lat="46.2534457" lon="12.8136308"><ele>463.40000000000003</ele><time>2026-04-19T08:13:35.197Z</time></trkpt><trkpt lat="46.2533932" lon="12.8137501"><ele>464.6</ele><time>2026-04-19T08:13:36.198Z</time></trkpt><trkpt lat="46.2533641" lon="12.8138614"><ele>465.8</ele><time>2026-04-19T08:13:37.199Z</time></trkpt><trkpt lat="46.2533479" lon="12.8139702"><ele>467.0</ele><time>2026-04-19T08:13:38.199Z</time></trkpt><trkpt lat="46.2533549" lon="12.814091"><ele>467.0</ele><time>2026-04-19T08:13:39.198Z</time></trkpt><trkpt lat="46.253378" lon="12.8142519"><ele>467.0</ele><time>2026-04-19T08:13:40.198Z</time></trkpt><trkpt lat="46.2534677" lon="12.8144296"><ele>467.0</ele><time>2026-04-19T08:13:41.197Z</time></trkpt><trkpt lat="46.2535709" lon="12.8145657"><ele>467.0</ele><time>2026-04-19T08:13:42.198Z</time></trkpt><trkpt lat="46.2536686" lon="12.8147412"><ele>469.25</ele><time>2026-04-19T08:13:43.198Z</time></trkpt><trkpt lat="46.2537931" lon="12.8148279"><ele>471.5</ele><time>2026-04-19T08:13:44.198Z</time></trkpt><trkpt lat="46.253881" lon="12.8149415"><ele>473.75</ele><time>2026-04-19T08:13:45.197Z</time></trkpt><trkpt lat="46.2539802" lon="12.8149872"><ele>476.0</ele><time>2026-04-19T08:13:46.198Z</time></trkpt><trkpt lat="46.2540567" lon="12.8150644"><ele>470.4</ele><time>2026-04-19T08:13:47.198Z</time></trkpt><trkpt lat="46.2541121" lon="12.8151528"><ele>464.8</ele><time>2026-04-19T08:13:48.197Z</time></trkpt><trkpt lat="46.2541621" lon="12.8152602"><ele>459.19999999999993</ele><time>2026-04-19T08:13:49.198Z</time></trkpt><trkpt lat="46.254187" lon="12.8154022"><ele>453.59999999999997</ele><time>2026-04-19T08:13:50.198Z</time></trkpt><trkpt lat="46.2541932" lon="12.8155482"><ele>448.0</ele><time>2026-04-19T08:13:51.198Z</time></trkpt><trkpt lat="46.2541856" lon="12.8156849"><ele>448.0</ele><time>2026-04-19T08:13:52.199Z</time></trkpt><trkpt lat="46.2541736" lon="12.8158136"><ele>447.99999999999994</ele><time>2026-04-19T08:13:53.197Z</time></trkpt><trkpt lat="46.2541707" lon="12.8159278"><ele>447.99999999999994</ele><time>2026-04-19T08:13:54.197Z</time></trkpt><trkpt lat="46.2541945" lon="12.816068"><ele>448.0</ele><time>2026-04-19T08:13:55.197Z</time></trkpt><trkpt lat="46.2542557" lon="12.8162109"><ele>448.0</ele><time>2026-04-19T08:13:56.198Z</time></trkpt><trkpt lat="46.2543089" lon="12.8163653"><ele>452.0</ele><time>2026-04-19T08:13:57.197Z</time></trkpt><trkpt lat="46.2543738" lon="12.8165215"><ele>456.0</ele><time>2026-04-19T08:13:58.198Z</time></trkpt><trkpt lat="46.2544557" lon="12.8166884"><ele>460.0</ele><time>2026-04-19T08:13:59.199Z</time></trkpt><trkpt lat="46.2545388" lon="12.8168631"><ele>464.0</ele><time>2026-04-19T08:14:00.198Z</time></trkpt><trkpt lat="46.2546219" lon="12.8170474"><ele>473.66666666666663</ele><time>2026-04-19T08:14:01.197Z</time></trkpt><trkpt lat="46.2546905" lon="12.8172475"><ele>483.33333333333337</ele><time>2026-04-19T08:14:02.198Z</time></trkpt><trkpt lat="46.2547551" lon="12.8174597"><ele>493.0</ele><time>2026-04-19T08:14:03.198Z</time></trkpt><trkpt lat="46.2548266" lon="12.8176407"><ele>483.0</ele><time>2026-04-19T08:14:04.198Z</time></trkpt><trkpt lat="46.2548958" lon="12.8178216"><ele>473.0</ele><time>2026-04-19T08:14:05.197Z</time></trkpt><trkpt lat="46.2550033" lon="12.8179424"><ele>463.0</ele><time>2026-04-19T08:14:06.199Z</time></trkpt><trkpt lat="46.2550904" lon="12.8180883"><ele>453.0</ele><time>2026-04-19T08:14:07.197Z</time></trkpt><trkpt lat="46.2551547" lon="12.8182548"><ele>453.0</ele><time>2026-04-19T08:14:08.198Z</time></trkpt><trkpt lat="46.2552067" lon="12.8184417"><ele>453.0</ele><time>2026-04-19T08:14:09.199Z</time></trkpt><trkpt lat="46.255253" lon="12.8186494"><ele>453.0</ele><time>2026-04-19T08:14:10.198Z</time></trkpt><trkpt lat="46.2553075" lon="12.8188659"><ele>453.0</ele><time>2026-04-19T08:14:11.198Z</time></trkpt><trkpt lat="46.2553699" lon="12.8190835"><ele>463.66666666666663</ele><time>2026-04-19T08:14:12.197Z</time></trkpt><trkpt lat="46.2554403" lon="12.8193085"><ele>474.3333333333333</ele><time>2026-04-19T08:14:13.198Z</time></trkpt><trkpt lat="46.2555114" lon="12.8195274"><ele>485.0</ele><time>2026-04-19T08:14:14.197Z</time></trkpt><trkpt lat="46.2555876" lon="12.8197493"><ele>473.66666666666663</ele><time>2026-04-19T08:14:15.197Z</time></trkpt><trkpt lat="46.2556572" lon="12.819975"><ele>462.33333333333337</ele><time>2026-04-19T08:14:16.198Z</time></trkpt><trkpt lat="46.2557321" lon="12.8201992"><ele>451.0</ele><time>2026-04-19T08:14:17.198Z</time></trkpt><trkpt lat="46.2558169" lon="12.8204181"><ele>451.0</ele><time>2026-04-19T08:14:18.197Z</time></trkpt><trkpt lat="46.255913" lon="12.8206373"><ele>451.0</ele><time>2026-04-19T08:14:19.198Z</time></trkpt><trkpt lat="46.2560107" lon="12.8208502"><ele>451.0</ele><time>2026-04-19T08:14:20.198Z</time></trkpt><trkpt lat="46.2561185" lon="12.8210468"><ele>455.0</ele><time>2026-04-19T08:14:21.197Z</time></trkpt><trkpt lat="46.2562227" lon="12.8212211"><ele>459.0</ele><time>2026-04-19T08:14:22.199Z</time></trkpt><trkpt lat="46.2563184" lon="12.8213706"><ele>463.0</ele><time>2026-04-19T08:14:23.199Z</time></trkpt><trkpt lat="46.2564021" lon="12.8214888"><ele>467.0</ele><time>2026-04-19T08:14:24.198Z</time></trkpt><trkpt lat="46.2564779" lon="12.8215688"><ele>459.8</ele><time>2026-04-19T08:14:25.198Z</time></trkpt><trkpt lat="46.2565617" lon="12.8216043"><ele>452.6</ele><time>2026-04-19T08:14:26.197Z</time></trkpt><trkpt lat="46.2566567" lon="12.8215922"><ele>445.40000000000003</ele><time>2026-04-19T08:14:27.198Z</time></trkpt><trkpt lat="46.2567736" lon="12.8215585"><ele>438.20000000000005</ele><time>2026-04-19T08:14:28.198Z</time></trkpt><trkpt lat="46.2569089" lon="12.8215479"><ele>431.0</ele><time>2026-04-19T08:14:29.198Z</time></trkpt><trkpt lat="46.257046" lon="12.8215645"><ele>431.0</ele><time>2026-04-19T08:14:30.198Z</time></trkpt><trkpt lat="46.2571869" lon="12.8215771"><ele>431.0</ele><time>2026-04-19T08:14:31.198Z</time></trkpt><trkpt lat="46.2573295" lon="12.8215964"><ele>431.0</ele><time>2026-04-19T08:14:32.197Z</time></trkpt><trkpt lat="46.2574644" lon="12.8216059"><ele>431.0</ele><time>2026-04-19T08:14:33.198Z</time></trkpt><trkpt lat="46.2575913" lon="12.8215989"><ele>429.6</ele><time>2026-04-19T08:14:34.198Z</time></trkpt><trkpt lat="46.2577039" lon="12.8215488"><ele>428.20000000000005</ele><time>2026-04-19T08:14:35.198Z</time></trkpt><trkpt lat="46.2578166" lon="12.8214892"><ele>426.79999999999995</ele><time>2026-04-19T08:14:36.198Z</time></trkpt><trkpt lat="46.2579206" lon="12.8214616"><ele>425.4</ele><time>2026-04-19T08:14:37.198Z</time></trkpt><trkpt lat="46.2580115" lon="12.8214898"><ele>424.0</ele><time>2026-04-19T08:14:38.198Z</time></trkpt><trkpt lat="46.258099" lon="12.8215656"><ele>425.5</ele><time>2026-04-19T08:14:39.198Z</time></trkpt><trkpt lat="46.2581878" lon="12.8216814"><ele>427.0</ele><time>2026-04-19T08:14:40.197Z</time></trkpt><trkpt lat="46.2582725" lon="12.8218296"><ele>428.5</ele><time>2026-04-19T08:14:41.199Z</time></trkpt><trkpt lat="46.2583481" lon="12.8219971"><ele>430.0</ele><time>2026-04-19T08:14:42.197Z</time></trkpt><trkpt lat="46.2584117" lon="12.822192"><ele>430.0</ele><time>2026-04-19T08:14:43.197Z</time></trkpt><trkpt lat="46.2584535" lon="12.8223993"><ele>430.0</ele><time>2026-04-19T08:14:44.198Z</time></trkpt><trkpt lat="46.2584708" lon="12.8226161"><ele>430.0</ele><time>2026-04-19T08:14:45.198Z</time></trkpt><trkpt lat="46.2584589" lon="12.8228313"><ele>430.0</ele><time>2026-04-19T08:14:46.197Z</time></trkpt><trkpt lat="46.258423" lon="12.8230412"><ele>429.75</ele><time>2026-04-19T08:14:47.198Z</time></trkpt><trkpt lat="46.2583779" lon="12.8232343"><ele>429.5</ele><time>2026-04-19T08:14:48.197Z</time></trkpt><trkpt lat="46.2583218" lon="12.823409"><ele>429.25</ele><time>2026-04-19T08:14:49.197Z</time></trkpt><trkpt lat="46.2582667" lon="12.8235689"><ele>429.0</ele><time>2026-04-19T08:14:50.197Z</time></trkpt><trkpt lat="46.2582097" lon="12.8237158"><ele>428.6</ele><time>2026-04-19T08:14:51.198Z</time></trkpt><trkpt lat="46.2581555" lon="12.8238509"><ele>428.2</ele><time>2026-04-19T08:14:52.198Z</time></trkpt><trkpt lat="46.258104" lon="12.8239793"><ele>427.80000000000007</ele><time>2026-04-19T08:14:53.198Z</time></trkpt><trkpt lat="46.2580638" lon="12.8241122"><ele>427.40000000000003</ele><time>2026-04-19T08:14:54.198Z</time></trkpt><trkpt lat="46.2580349" lon="12.8242509"><ele>427.0</ele><time>2026-04-19T08:14:55.198Z</time></trkpt><trkpt lat="46.2580151" lon="12.8243981"><ele>429.75</ele><time>2026-04-19T08:14:56.198Z</time></trkpt><trkpt lat="46.2580142" lon="12.8245576"><ele>432.5</ele><time>2026-04-19T08:14:57.199Z</time></trkpt><trkpt lat="46.2580233" lon="12.8247304"><ele>435.25</ele><time>2026-04-19T08:14:58.197Z</time></trkpt><trkpt lat="46.2580263" lon="12.8249136"><ele>438.0</ele><time>2026-04-19T08:14:59.198Z</time></trkpt><trkpt lat="46.2580258" lon="12.8250973"><ele>439.25</ele><time>2026-04-19T08:15:00.198Z</time></trkpt><trkpt lat="46.2580317" lon="12.8252798"><ele>440.5</ele><time>2026-04-19T08:15:01.197Z</time></trkpt><trkpt lat="46.2580386" lon="12.8254656"><ele>441.75</ele><time>2026-04-19T08:15:02.197Z</time></trkpt><trkpt lat="46.2580479" lon="12.8256455"><ele>443.0</ele><time>2026-04-19T08:15:03.198Z</time></trkpt><trkpt lat="46.2580652" lon="12.8258126"><ele>443.0</ele><time>2026-04-19T08:15:04.198Z</time></trkpt><trkpt lat="46.2581029" lon="12.8259592"><ele>443.0</ele><time>2026-04-19T08:15:05.198Z</time></trkpt><trkpt lat="46.258173" lon="12.8260952"><ele>443.0</ele><time>2026-04-19T08:15:06.198Z</time></trkpt><trkpt lat="46.2582562" lon="12.8262457"><ele>443.0</ele><time>2026-04-19T08:15:07.199Z</time></trkpt><trkpt lat="46.2583224" lon="12.8264046"><ele>440.25</ele><time>2026-04-19T08:15:08.197Z</time></trkpt><trkpt lat="46.2583844" lon="12.8265748"><ele>437.5</ele><time>2026-04-19T08:15:09.198Z</time></trkpt><trkpt lat="46.2584322" lon="12.8267517"><ele>434.75</ele><time>2026-04-19T08:15:10.198Z</time></trkpt><trkpt lat="46.2584676" lon="12.8269355"><ele>432.0</ele><time>2026-04-19T08:15:11.198Z</time></trkpt><trkpt lat="46.2584898" lon="12.8271226"><ele>431.75</ele><time>2026-04-19T08:15:12.198Z</time></trkpt><trkpt lat="46.2584999" lon="12.8273103"><ele>431.5</ele><time>2026-04-19T08:15:13.197Z</time></trkpt><trkpt lat="46.2584962" lon="12.8274982"><ele>431.25</ele><time>2026-04-19T08:15:14.197Z</time></trkpt><trkpt lat="46.2584842" lon="12.8276825"><ele>431.0</ele><time>2026-04-19T08:15:15.198Z</time></trkpt><trkpt lat="46.258472" lon="12.8278701"><ele>431.0</ele><time>2026-04-19T08:15:16.197Z</time></trkpt><trkpt lat="46.2584668" lon="12.8280583"><ele>431.0</ele><time>2026-04-19T08:15:17.198Z</time></trkpt><trkpt lat="46.2584672" lon="12.8282502"><ele>431.0</ele><time>2026-04-19T08:15:18.198Z</time></trkpt><trkpt lat="46.2584716" lon="12.8284371"><ele>431.0</ele><time>2026-04-19T08:15:19.198Z</time></trkpt><trkpt lat="46.2584825" lon="12.8286231"><ele>432.25</ele><time>2026-04-19T08:15:20.198Z</time></trkpt><trkpt lat="46.2584953" lon="12.8288075"><ele>433.5</ele><time>2026-04-19T08:15:21.198Z</time></trkpt><trkpt lat="46.2585117" lon="12.8289981"><ele>434.75</ele><time>2026-04-19T08:15:22.198Z</time></trkpt><trkpt lat="46.2585347" lon="12.8291879"><ele>436.0</ele><time>2026-04-19T08:15:23.198Z</time></trkpt><trkpt lat="46.2585675" lon="12.8293682"><ele>436.8</ele><time>2026-04-19T08:15:24.198Z</time></trkpt><trkpt lat="46.2586058" lon="12.8295332"><ele>437.6</ele><time>2026-04-19T08:15:25.198Z</time></trkpt><trkpt lat="46.2586435" lon="12.8296835"><ele>438.4</ele><time>2026-04-19T08:15:26.198Z</time></trkpt><trkpt lat="46.2586849" lon="12.8298292"><ele>439.2</ele><time>2026-04-19T08:15:27.198Z</time></trkpt><trkpt lat="46.2587271" lon="12.8299724"><ele>440.0</ele><time>2026-04-19T08:15:28.197Z</time></trkpt><trkpt lat="46.2587695" lon="12.8301138"><ele>441.0</ele><time>2026-04-19T08:15:29.197Z</time></trkpt><trkpt lat="46.2588145" lon="12.8302602"><ele>442.0</ele><time>2026-04-19T08:15:30.197Z</time></trkpt><trkpt lat="46.258862" lon="12.8304009"><ele>443.0</ele><time>2026-04-19T08:15:31.199Z</time></trkpt><trkpt lat="46.2589083" lon="12.830547"><ele>444.0</ele><time>2026-04-19T08:15:32.198Z</time></trkpt><trkpt lat="46.2589436" lon="12.8307048"><ele>445.0</ele><time>2026-04-19T08:15:33.197Z</time></trkpt><trkpt lat="46.2589671" lon="12.8308688"><ele>441.75</ele><time>2026-04-19T08:15:34.197Z</time></trkpt><trkpt lat="46.2589816" lon="12.831035"><ele>438.5</ele><time>2026-04-19T08:15:35.198Z</time></trkpt><trkpt lat="46.2589921" lon="12.8312041"><ele>435.25</ele><time>2026-04-19T08:15:36.198Z</time></trkpt><trkpt lat="46.2590048" lon="12.8313732"><ele>432.0</ele><time>2026-04-19T08:15:37.198Z</time></trkpt><trkpt lat="46.259017" lon="12.8315427"><ele>432.0</ele><time>2026-04-19T08:15:38.198Z</time></trkpt><trkpt lat="46.2590311" lon="12.8317145"><ele>432.00000000000006</ele><time>2026-04-19T08:15:39.198Z</time></trkpt><trkpt lat="46.2590438" lon="12.8318724"><ele>432.00000000000006</ele><time>2026-04-19T08:15:40.198Z</time></trkpt><trkpt lat="46.259054" lon="12.8320048"><ele>432.0</ele><time>2026-04-19T08:15:41.198Z</time></trkpt><trkpt lat="46.2590455" lon="12.8321091"><ele>432.0</ele><time>2026-04-19T08:15:42.198Z</time></trkpt><trkpt lat="46.2589636" lon="12.8322387"><ele>436.0</ele><time>2026-04-19T08:15:44.198Z</time></trkpt><trkpt lat="46.2588866" lon="12.8322583"><ele>440.0</ele><time>2026-04-19T08:15:45.198Z</time></trkpt><trkpt lat="46.2588063" lon="12.832272"><ele>444.0</ele><time>2026-04-19T08:15:46.198Z</time></trkpt><trkpt lat="46.2587313" lon="12.8323049"><ele>448.0</ele><time>2026-04-19T08:15:47.198Z</time></trkpt><trkpt lat="46.2586776" lon="12.8323555"><ele>452.0</ele><time>2026-04-19T08:15:48.198Z</time></trkpt><trkpt lat="46.2586395" lon="12.832441"><ele>456.0</ele><time>2026-04-19T08:15:49.198Z</time></trkpt><trkpt lat="46.2586039" lon="12.8325525"><ele>455.5</ele><time>2026-04-19T08:15:50.197Z</time></trkpt><trkpt lat="46.2586368" lon="12.8327296"><ele>455.0</ele><time>2026-04-19T08:15:51.197Z</time></trkpt><trkpt lat="46.258639" lon="12.8328874"><ele>454.5</ele><time>2026-04-19T08:15:52.198Z</time></trkpt><trkpt lat="46.2586504" lon="12.8330745"><ele>454.0</ele><time>2026-04-19T08:15:53.197Z</time></trkpt><trkpt lat="46.2586629" lon="12.8332748"><ele>454.0</ele><time>2026-04-19T08:15:54.198Z</time></trkpt><trkpt lat="46.2586667" lon="12.8334494"><ele>454.0</ele><time>2026-04-19T08:15:55.197Z</time></trkpt><trkpt lat="46.258667" lon="12.8336054"><ele>454.0</ele><time>2026-04-19T08:15:56.197Z</time></trkpt><trkpt lat="46.2586724" lon="12.8337492"><ele>454.0</ele><time>2026-04-19T08:15:57.197Z</time></trkpt><trkpt lat="46.2586952" lon="12.8338764"><ele>454.0</ele><time>2026-04-19T08:15:58.196Z</time></trkpt><trkpt lat="46.2587501" lon="12.833984"><ele>454.2</ele><time>2026-04-19T08:15:59.197Z</time></trkpt><trkpt lat="46.2588249" lon="12.8340641"><ele>454.4</ele><time>2026-04-19T08:16:00.197Z</time></trkpt><trkpt lat="46.258909" lon="12.8341442"><ele>454.6</ele><time>2026-04-19T08:16:01.196Z</time></trkpt><trkpt lat="46.2589962" lon="12.8342292"><ele>454.8</ele><time>2026-04-19T08:16:02.197Z</time></trkpt><trkpt lat="46.2590874" lon="12.8343099"><ele>455.0</ele><time>2026-04-19T08:16:03.197Z</time></trkpt><trkpt lat="46.2591766" lon="12.8343906"><ele>455.0</ele><time>2026-04-19T08:16:04.196Z</time></trkpt><trkpt lat="46.2592615" lon="12.8344753"><ele>455.0</ele><time>2026-04-19T08:16:05.197Z</time></trkpt><trkpt lat="46.2593409" lon="12.8345724"><ele>455.0</ele><time>2026-04-19T08:16:06.197Z</time></trkpt><trkpt lat="46.2594098" lon="12.8346884"><ele>455.0</ele><time>2026-04-19T08:16:07.198Z</time></trkpt><trkpt lat="46.2594809" lon="12.8348011"><ele>455.0</ele><time>2026-04-19T08:16:08.197Z</time></trkpt><trkpt lat="46.2595645" lon="12.8349009"><ele>455.0</ele><time>2026-04-19T08:16:09.197Z</time></trkpt><trkpt lat="46.2596549" lon="12.8350009"><ele>455.0</ele><time>2026-04-19T08:16:10.198Z</time></trkpt><trkpt lat="46.2597563" lon="12.8350993"><ele>455.0</ele><time>2026-04-19T08:16:11.197Z</time></trkpt><trkpt lat="46.2598554" lon="12.8351996"><ele>455.0</ele><time>2026-04-19T08:16:12.196Z</time></trkpt><trkpt lat="46.2599517" lon="12.8352956"><ele>456.4</ele><time>2026-04-19T08:16:13.197Z</time></trkpt><trkpt lat="46.2600427" lon="12.8353832"><ele>457.8</ele><time>2026-04-19T08:16:14.197Z</time></trkpt><trkpt lat="46.2601262" lon="12.8354682"><ele>459.20000000000005</ele><time>2026-04-19T08:16:15.197Z</time></trkpt><trkpt lat="46.2601929" lon="12.8355626"><ele>460.6</ele><time>2026-04-19T08:16:16.196Z</time></trkpt><trkpt lat="46.2602248" lon="12.8356746"><ele>462.0</ele><time>2026-04-19T08:16:17.198Z</time></trkpt><trkpt lat="46.2602342" lon="12.8358022"><ele>462.0</ele><time>2026-04-19T08:16:18.197Z</time></trkpt><trkpt lat="46.2602268" lon="12.8359415"><ele>462.00000000000006</ele><time>2026-04-19T08:16:19.198Z</time></trkpt><trkpt lat="46.2602181" lon="12.8360806"><ele>462.00000000000006</ele><time>2026-04-19T08:16:20.198Z</time></trkpt><trkpt lat="46.2602191" lon="12.836216"><ele>462.0</ele><time>2026-04-19T08:16:21.197Z</time></trkpt><trkpt lat="46.260243" lon="12.8363448"><ele>462.0</ele><time>2026-04-19T08:16:22.197Z</time></trkpt><trkpt lat="46.2602983" lon="12.8364649"><ele>461.8</ele><time>2026-04-19T08:16:23.197Z</time></trkpt><trkpt lat="46.2603571" lon="12.8365862"><ele>461.6</ele><time>2026-04-19T08:16:24.197Z</time></trkpt><trkpt lat="46.2604181" lon="12.8366818"><ele>461.40000000000003</ele><time>2026-04-19T08:16:25.197Z</time></trkpt><trkpt lat="46.2604888" lon="12.8367418"><ele>461.20000000000005</ele><time>2026-04-19T08:16:26.196Z</time></trkpt><trkpt lat="46.2605751" lon="12.8367646"><ele>461.0</ele><time>2026-04-19T08:16:27.197Z</time></trkpt><trkpt lat="46.2606619" lon="12.8367421"><ele>461.0</ele><time>2026-04-19T08:16:28.197Z</time></trkpt><trkpt lat="46.2607494" lon="12.8366987"><ele>461.0</ele><time>2026-04-19T08:16:29.196Z</time></trkpt><trkpt lat="46.2608402" lon="12.8366418"><ele>461.0</ele><time>2026-04-19T08:16:30.197Z</time></trkpt><trkpt lat="46.260935" lon="12.836585"><ele>461.0</ele><time>2026-04-19T08:16:31.197Z</time></trkpt><trkpt lat="46.2610233" lon="12.8365325"><ele>461.0</ele><time>2026-04-19T08:16:32.196Z</time></trkpt><trkpt lat="46.2611092" lon="12.8365004"><ele>461.0</ele><time>2026-04-19T08:16:33.196Z</time></trkpt><trkpt lat="46.2611999" lon="12.8364863"><ele>461.0</ele><time>2026-04-19T08:16:34.198Z</time></trkpt><trkpt lat="46.2612908" lon="12.8365024"><ele>461.0</ele><time>2026-04-19T08:16:35.197Z</time></trkpt><trkpt lat="46.261377" lon="12.8365405"><ele>461.0</ele><time>2026-04-19T08:16:36.197Z</time></trkpt><trkpt lat="46.2614699" lon="12.8365861"><ele>461.0</ele><time>2026-04-19T08:16:37.197Z</time></trkpt><trkpt lat="46.2615636" lon="12.8366289"><ele>462.0</ele><time>2026-04-19T08:16:38.196Z</time></trkpt><trkpt lat="46.2616625" lon="12.8366786"><ele>463.0</ele><time>2026-04-19T08:16:39.198Z</time></trkpt><trkpt lat="46.2617611" lon="12.8367283"><ele>464.0</ele><time>2026-04-19T08:16:40.198Z</time></trkpt><trkpt lat="46.2618618" lon="12.8367766"><ele>465.0</ele><time>2026-04-19T08:16:41.197Z</time></trkpt><trkpt lat="46.26196" lon="12.8368252"><ele>466.0</ele><time>2026-04-19T08:16:42.196Z</time></trkpt><trkpt lat="46.2620473" lon="12.8368705"><ele>470.6</ele><time>2026-04-19T08:16:43.197Z</time></trkpt><trkpt lat="46.2621147" lon="12.836922"><ele>475.20000000000005</ele><time>2026-04-19T08:16:44.197Z</time></trkpt><trkpt lat="46.2621616" lon="12.8369869"><ele>479.79999999999995</ele><time>2026-04-19T08:16:45.197Z</time></trkpt><trkpt lat="46.2621594" lon="12.8371396"><ele>484.4</ele><time>2026-04-19T08:16:47.198Z</time></trkpt><trkpt lat="46.2620644" lon="12.8372222"><ele>489.0</ele><time>2026-04-19T08:16:49.196Z</time></trkpt><trkpt lat="46.2619518" lon="12.8371641"><ele>489.0</ele><time>2026-04-19T08:16:51.197Z</time></trkpt><trkpt lat="46.261886" lon="12.8370839"><ele>489.0</ele><time>2026-04-19T08:16:52.197Z</time></trkpt><trkpt lat="46.2618203" lon="12.8370258"><ele>489.0</ele><time>2026-04-19T08:16:53.197Z</time></trkpt><trkpt lat="46.2617548" lon="12.8369833"><ele>489.0</ele><time>2026-04-19T08:16:54.197Z</time></trkpt><trkpt lat="46.26163" lon="12.8370044"><ele>489.0</ele><time>2026-04-19T08:16:56.196Z</time></trkpt><trkpt lat="46.2615572" lon="12.8371085"><ele>489.0</ele><time>2026-04-19T08:16:57.196Z</time></trkpt><trkpt lat="46.2614827" lon="12.8372005"><ele>489.0</ele><time>2026-04-19T08:16:58.196Z</time></trkpt><trkpt lat="46.2614055" lon="12.8372413"><ele>489.0</ele><time>2026-04-19T08:16:59.197Z</time></trkpt><trkpt lat="46.2613213" lon="12.8372424"><ele>489.0</ele><time>2026-04-19T08:17:00.196Z</time></trkpt><trkpt lat="46.2612365" lon="12.8371989"><ele>489.0</ele><time>2026-04-19T08:17:01.197Z</time></trkpt><trkpt lat="46.2611511" lon="12.8371577"><ele>489.0</ele><time>2026-04-19T08:17:02.197Z</time></trkpt><trkpt lat="46.2610731" lon="12.8371357"><ele>488.6</ele><time>2026-04-19T08:17:03.196Z</time></trkpt><trkpt lat="46.261004" lon="12.8371455"><ele>488.2</ele><time>2026-04-19T08:17:04.197Z</time></trkpt><trkpt lat="46.2609345" lon="12.8372027"><ele>487.80000000000007</ele><time>2026-04-19T08:17:05.197Z</time></trkpt><trkpt lat="46.2608593" lon="12.8373183"><ele>487.40000000000003</ele><time>2026-04-19T08:17:06.196Z</time></trkpt><trkpt lat="46.2607814" lon="12.8374454"><ele>487.0</ele><time>2026-04-19T08:17:07.197Z</time></trkpt><trkpt lat="46.2607008" lon="12.8375676"><ele>487.75</ele><time>2026-04-19T08:17:08.196Z</time></trkpt><trkpt lat="46.2606165" lon="12.83772"><ele>488.5</ele><time>2026-04-19T08:17:09.197Z</time></trkpt><trkpt lat="46.260527" lon="12.837874"><ele>489.25</ele><time>2026-04-19T08:17:10.197Z</time></trkpt><trkpt lat="46.2604343" lon="12.8380113"><ele>490.0</ele><time>2026-04-19T08:17:11.197Z</time></trkpt><trkpt lat="46.2603401" lon="12.8381243"><ele>490.0</ele><time>2026-04-19T08:17:12.196Z</time></trkpt><trkpt lat="46.260244" lon="12.8382069"><ele>490.0</ele><time>2026-04-19T08:17:13.197Z</time></trkpt><trkpt lat="46.2601481" lon="12.8382799"><ele>490.0</ele><time>2026-04-19T08:17:14.197Z</time></trkpt><trkpt lat="46.2600629" lon="12.8383315"><ele>490.0</ele><time>2026-04-19T08:17:15.198Z</time></trkpt><trkpt lat="46.2600202" lon="12.8384019"><ele>490.0</ele><time>2026-04-19T08:17:16.198Z</time></trkpt><trkpt lat="46.2599834" lon="12.8385048"><ele>492.0</ele><time>2026-04-19T08:17:17.196Z</time></trkpt><trkpt lat="46.2599543" lon="12.838587"><ele>494.0</ele><time>2026-04-19T08:17:18.198Z</time></trkpt><trkpt lat="46.2600275" lon="12.8387873"><ele>496.0</ele><time>2026-04-19T08:17:19.197Z</time></trkpt><trkpt lat="46.2600694" lon="12.8389253"><ele>498.0</ele><time>2026-04-19T08:17:20.196Z</time></trkpt><trkpt lat="46.260108" lon="12.8390976"><ele>498.0</ele><time>2026-04-19T08:17:21.197Z</time></trkpt><trkpt lat="46.2601535" lon="12.8392779"><ele>498.0</ele><time>2026-04-19T08:17:22.197Z</time></trkpt><trkpt lat="46.2602027" lon="12.8394575"><ele>498.0</ele><time>2026-04-19T08:17:23.197Z</time></trkpt><trkpt lat="46.2602458" lon="12.8396197"><ele>498.0</ele><time>2026-04-19T08:17:24.197Z</time></trkpt><trkpt lat="46.2602844" lon="12.8397661"><ele>499.5</ele><time>2026-04-19T08:17:25.197Z</time></trkpt><trkpt lat="46.2603068" lon="12.8398964"><ele>501.0</ele><time>2026-04-19T08:17:26.197Z</time></trkpt><trkpt lat="46.2603063" lon="12.8400069"><ele>502.5</ele><time>2026-04-19T08:17:27.197Z</time></trkpt><trkpt lat="46.2602777" lon="12.8401016"><ele>504.0</ele><time>2026-04-19T08:17:28.197Z</time></trkpt><trkpt lat="46.260221" lon="12.8401677"><ele>505.5</ele><time>2026-04-19T08:17:29.197Z</time></trkpt><trkpt lat="46.2601619" lon="12.8402383"><ele>507.0</ele><time>2026-04-19T08:17:30.196Z</time></trkpt><trkpt lat="46.2600366" lon="12.8402607"><ele>507.0</ele><time>2026-04-19T08:17:31.197Z</time></trkpt><trkpt lat="46.259925" lon="12.8402964"><ele>507.00000000000006</ele><time>2026-04-19T08:17:32.198Z</time></trkpt><trkpt lat="46.2598189" lon="12.840334"><ele>507.00000000000006</ele><time>2026-04-19T08:17:33.197Z</time></trkpt><trkpt lat="46.2597212" lon="12.8403684"><ele>507.0</ele><time>2026-04-19T08:17:34.197Z</time></trkpt><trkpt lat="46.2596447" lon="12.8404224"><ele>507.0</ele><time>2026-04-19T08:17:35.196Z</time></trkpt><trkpt lat="46.2595869" lon="12.8405047"><ele>507.0</ele><time>2026-04-19T08:17:36.197Z</time></trkpt><trkpt lat="46.2595422" lon="12.8406159"><ele>507.0</ele><time>2026-04-19T08:17:37.197Z</time></trkpt><trkpt lat="46.2594926" lon="12.840777"><ele>507.0</ele><time>2026-04-19T08:17:38.197Z</time></trkpt><trkpt lat="46.2594403" lon="12.8409476"><ele>507.0</ele><time>2026-04-19T08:17:39.197Z</time></trkpt><trkpt lat="46.2593645" lon="12.8411183"><ele>511.0</ele><time>2026-04-19T08:17:40.196Z</time></trkpt><trkpt lat="46.2592812" lon="12.8413086"><ele>515.0</ele><time>2026-04-19T08:17:41.196Z</time></trkpt><trkpt lat="46.2592034" lon="12.8414848"><ele>519.0</ele><time>2026-04-19T08:17:42.197Z</time></trkpt><trkpt lat="46.2591294" lon="12.841637"><ele>523.0</ele><time>2026-04-19T08:17:43.196Z</time></trkpt><trkpt lat="46.2590622" lon="12.8417748"><ele>525.1999999999999</ele><time>2026-04-19T08:17:44.196Z</time></trkpt><trkpt lat="46.2590036" lon="12.8418995"><ele>527.4</ele><time>2026-04-19T08:17:45.197Z</time></trkpt><trkpt lat="46.258965" lon="12.8419997"><ele>529.5999999999999</ele><time>2026-04-19T08:17:46.197Z</time></trkpt><trkpt lat="46.2589349" lon="12.8421032"><ele>531.8</ele><time>2026-04-19T08:17:47.197Z</time></trkpt><trkpt lat="46.2589956" lon="12.8422588"><ele>534.0</ele><time>2026-04-19T08:17:48.197Z</time></trkpt><trkpt lat="46.2590078" lon="12.8424012"><ele>534.0</ele><time>2026-04-19T08:17:49.197Z</time></trkpt><trkpt lat="46.259024" lon="12.8425312"><ele>534.0</ele><time>2026-04-19T08:17:50.196Z</time></trkpt><trkpt lat="46.2590143" lon="12.8426699"><ele>534.0</ele><time>2026-04-19T08:17:51.196Z</time></trkpt><trkpt lat="46.2589761" lon="12.8427855"><ele>534.0</ele><time>2026-04-19T08:17:52.197Z</time></trkpt><trkpt lat="46.2589222" lon="12.8428744"><ele>534.0</ele><time>2026-04-19T08:17:53.196Z</time></trkpt><trkpt lat="46.2588779" lon="12.8429734"><ele>534.0</ele><time>2026-04-19T08:17:54.197Z</time></trkpt><trkpt lat="46.2588553" lon="12.8430885"><ele>534.0</ele><time>2026-04-19T08:17:55.197Z</time></trkpt><trkpt lat="46.2588528" lon="12.843209"><ele>534.0</ele><time>2026-04-19T08:17:56.197Z</time></trkpt><trkpt lat="46.2588878" lon="12.8433734"><ele>534.0</ele><time>2026-04-19T08:17:57.197Z</time></trkpt><trkpt lat="46.258905" lon="12.8435246"><ele>534.0</ele><time>2026-04-19T08:17:58.196Z</time></trkpt><trkpt lat="46.2589116" lon="12.8436588"><ele>534.0</ele><time>2026-04-19T08:17:59.197Z</time></trkpt><trkpt lat="46.2588838" lon="12.8437649"><ele>534.0</ele><time>2026-04-19T08:18:00.198Z</time></trkpt><trkpt lat="46.258822" lon="12.8438584"><ele>534.0</ele><time>2026-04-19T08:18:01.196Z</time></trkpt><trkpt lat="46.2587346" lon="12.843958"><ele>534.0</ele><time>2026-04-19T08:18:02.197Z</time></trkpt><trkpt lat="46.2586404" lon="12.8440632"><ele>534.0</ele><time>2026-04-19T08:18:03.198Z</time></trkpt><trkpt lat="46.2585431" lon="12.8441771"><ele>534.0</ele><time>2026-04-19T08:18:04.196Z</time></trkpt><trkpt lat="46.2584505" lon="12.844311"><ele>534.75</ele><time>2026-04-19T08:18:05.198Z</time></trkpt><trkpt lat="46.2583567" lon="12.8444585"><ele>535.5</ele><time>2026-04-19T08:18:06.197Z</time></trkpt><trkpt lat="46.2582663" lon="12.8446069"><ele>536.25</ele><time>2026-04-19T08:18:07.197Z</time></trkpt><trkpt lat="46.2581735" lon="12.8447564"><ele>537.0</ele><time>2026-04-19T08:18:08.197Z</time></trkpt><trkpt lat="46.258083" lon="12.8449075"><ele>537.0</ele><time>2026-04-19T08:18:09.197Z</time></trkpt><trkpt lat="46.2579953" lon="12.8450508"><ele>537.0</ele><time>2026-04-19T08:18:10.196Z</time></trkpt><trkpt lat="46.2579166" lon="12.845199"><ele>537.0</ele><time>2026-04-19T08:18:11.197Z</time></trkpt><trkpt lat="46.257857" lon="12.8453809"><ele>537.0</ele><time>2026-04-19T08:18:12.196Z</time></trkpt><trkpt lat="46.2578046" lon="12.8455767"><ele>539.25</ele><time>2026-04-19T08:18:13.197Z</time></trkpt><trkpt lat="46.2577528" lon="12.8457628"><ele>541.5</ele><time>2026-04-19T08:18:14.198Z</time></trkpt><trkpt lat="46.257702" lon="12.845935"><ele>543.75</ele><time>2026-04-19T08:18:15.197Z</time></trkpt><trkpt lat="46.2576669" lon="12.8460884"><ele>546.0</ele><time>2026-04-19T08:18:16.198Z</time></trkpt><trkpt lat="46.2576552" lon="12.8462171"><ele>547.0</ele><time>2026-04-19T08:18:17.197Z</time></trkpt><trkpt lat="46.2576677" lon="12.8463343"><ele>548.0</ele><time>2026-04-19T08:18:18.197Z</time></trkpt><trkpt lat="46.2577217" lon="12.8464523"><ele>549.0</ele><time>2026-04-19T08:18:19.197Z</time></trkpt><trkpt lat="46.2578112" lon="12.8465803"><ele>550.0</ele><time>2026-04-19T08:18:20.196Z</time></trkpt><trkpt lat="46.2579082" lon="12.8467362"><ele>551.75</ele><time>2026-04-19T08:18:21.197Z</time></trkpt><trkpt lat="46.2580216" lon="12.8469038"><ele>553.5</ele><time>2026-04-19T08:18:22.197Z</time></trkpt><trkpt lat="46.2581244" lon="12.8470621"><ele>555.25</ele><time>2026-04-19T08:18:23.197Z</time></trkpt><trkpt lat="46.2582113" lon="12.8472041"><ele>557.0</ele><time>2026-04-19T08:18:24.197Z</time></trkpt><trkpt lat="46.2582773" lon="12.8473452"><ele>558.8000000000001</ele><time>2026-04-19T08:18:25.197Z</time></trkpt><trkpt lat="46.2583184" lon="12.8474786"><ele>560.6</ele><time>2026-04-19T08:18:26.197Z</time></trkpt><trkpt lat="46.2583603" lon="12.847613"><ele>562.4000000000001</ele><time>2026-04-19T08:18:27.197Z</time></trkpt><trkpt lat="46.2583788" lon="12.8477953"><ele>564.2</ele><time>2026-04-19T08:18:28.196Z</time></trkpt><trkpt lat="46.2584105" lon="12.8479594"><ele>566.0</ele><time>2026-04-19T08:18:29.197Z</time></trkpt><trkpt lat="46.2584208" lon="12.8481178"><ele>567.25</ele><time>2026-04-19T08:18:30.198Z</time></trkpt><trkpt lat="46.2584172" lon="12.848276"><ele>568.5</ele><time>2026-04-19T08:18:31.196Z</time></trkpt><trkpt lat="46.2583691" lon="12.8484338"><ele>569.75</ele><time>2026-04-19T08:18:32.197Z</time></trkpt><trkpt lat="46.2583161" lon="12.8486169"><ele>571.0</ele><time>2026-04-19T08:18:33.197Z</time></trkpt><trkpt lat="46.2582487" lon="12.8488027"><ele>570.25</ele><time>2026-04-19T08:18:34.197Z</time></trkpt><trkpt lat="46.2581768" lon="12.8490044"><ele>569.5</ele><time>2026-04-19T08:18:35.196Z</time></trkpt><trkpt lat="46.2581175" lon="12.8491856"><ele>568.75</ele><time>2026-04-19T08:18:36.197Z</time></trkpt><trkpt lat="46.2580587" lon="12.8493602"><ele>568.0</ele><time>2026-04-19T08:18:37.197Z</time></trkpt><trkpt lat="46.2580091" lon="12.8495363"><ele>571.6666666666667</ele><time>2026-04-19T08:18:38.197Z</time></trkpt><trkpt lat="46.2580512" lon="12.8498004"><ele>575.3333333333334</ele><time>2026-04-19T08:18:39.196Z</time></trkpt><trkpt lat="46.2580476" lon="12.8500058"><ele>579.0</ele><time>2026-04-19T08:18:40.197Z</time></trkpt><trkpt lat="46.2580418" lon="12.8502156"><ele>582.5</ele><time>2026-04-19T08:18:41.197Z</time></trkpt><trkpt lat="46.2580434" lon="12.8504183"><ele>586.0</ele><time>2026-04-19T08:18:42.197Z</time></trkpt><trkpt lat="46.2580415" lon="12.8506127"><ele>589.5</ele><time>2026-04-19T08:18:43.198Z</time></trkpt><trkpt lat="46.2580459" lon="12.850796"><ele>593.0</ele><time>2026-04-19T08:18:44.197Z</time></trkpt><trkpt lat="46.2580493" lon="12.8509696"><ele>593.1999999999999</ele><time>2026-04-19T08:18:45.196Z</time></trkpt><trkpt lat="46.2580577" lon="12.8511359"><ele>593.4</ele><time>2026-04-19T08:18:46.197Z</time></trkpt><trkpt lat="46.2580737" lon="12.8512937"><ele>593.5999999999999</ele><time>2026-04-19T08:18:47.197Z</time></trkpt><trkpt lat="46.2580896" lon="12.8514519"><ele>593.8</ele><time>2026-04-19T08:18:48.196Z</time></trkpt><trkpt lat="46.2581084" lon="12.8516106"><ele>594.0</ele><time>2026-04-19T08:18:49.197Z</time></trkpt><trkpt lat="46.2581263" lon="12.8517729"><ele>594.75</ele><time>2026-04-19T08:18:50.197Z</time></trkpt><trkpt lat="46.2581338" lon="12.8519391"><ele>595.5</ele><time>2026-04-19T08:18:51.197Z</time></trkpt><trkpt lat="46.2581508" lon="12.8521058"><ele>596.25</ele><time>2026-04-19T08:18:52.197Z</time></trkpt><trkpt lat="46.25817" lon="12.8522898"><ele>597.0</ele><time>2026-04-19T08:18:53.196Z</time></trkpt><trkpt lat="46.2581913" lon="12.8524875"><ele>596.6666666666666</ele><time>2026-04-19T08:18:54.196Z</time></trkpt><trkpt lat="46.2582145" lon="12.8527037"><ele>596.3333333333333</ele><time>2026-04-19T08:18:55.197Z</time></trkpt><trkpt lat="46.2582385" lon="12.8529365"><ele>596.0</ele><time>2026-04-19T08:18:56.196Z</time></trkpt><trkpt lat="46.2582595" lon="12.8531713"><ele>596.0</ele><time>2026-04-19T08:18:57.197Z</time></trkpt><trkpt lat="46.2582708" lon="12.8534089"><ele>596.0</ele><time>2026-04-19T08:18:58.197Z</time></trkpt><trkpt lat="46.2582603" lon="12.8536448"><ele>596.0</ele><time>2026-04-19T08:18:59.196Z</time></trkpt><trkpt lat="46.2582461" lon="12.8538654"><ele>597.75</ele><time>2026-04-19T08:19:00.196Z</time></trkpt><trkpt lat="46.2582219" lon="12.8540654"><ele>599.5</ele><time>2026-04-19T08:19:01.197Z</time></trkpt><trkpt lat="46.2581836" lon="12.8542526"><ele>601.25</ele><time>2026-04-19T08:19:02.197Z</time></trkpt><trkpt lat="46.2581176" lon="12.8544363"><ele>603.0</ele><time>2026-04-19T08:19:03.197Z</time></trkpt><trkpt lat="46.2580294" lon="12.8546265"><ele>604.5</ele><time>2026-04-19T08:19:04.198Z</time></trkpt><trkpt lat="46.2579388" lon="12.8548151"><ele>606.0</ele><time>2026-04-19T08:19:05.197Z</time></trkpt><trkpt lat="46.2578561" lon="12.8549858"><ele>607.5</ele><time>2026-04-19T08:19:06.196Z</time></trkpt><trkpt lat="46.257784" lon="12.8551397"><ele>609.0</ele><time>2026-04-19T08:19:07.196Z</time></trkpt><trkpt lat="46.2577347" lon="12.8552794"><ele>609.5</ele><time>2026-04-19T08:19:08.198Z</time></trkpt><trkpt lat="46.2576982" lon="12.855423"><ele>610.0</ele><time>2026-04-19T08:19:09.197Z</time></trkpt><trkpt lat="46.2576959" lon="12.8556003"><ele>610.5</ele><time>2026-04-19T08:19:10.197Z</time></trkpt><trkpt lat="46.2576867" lon="12.8557829"><ele>611.0</ele><time>2026-04-19T08:19:11.197Z</time></trkpt><trkpt lat="46.2576812" lon="12.8559699"><ele>611.8</ele><time>2026-04-19T08:19:12.196Z</time></trkpt><trkpt lat="46.2576726" lon="12.8561496"><ele>612.6</ele><time>2026-04-19T08:19:13.197Z</time></trkpt><trkpt lat="46.2576468" lon="12.8563057"><ele>613.4</ele><time>2026-04-19T08:19:14.197Z</time></trkpt><trkpt lat="46.2576014" lon="12.8564184"><ele>614.2</ele><time>2026-04-19T08:19:15.197Z</time></trkpt><trkpt lat="46.2575379" lon="12.8565164"><ele>615.0</ele><time>2026-04-19T08:19:16.196Z</time></trkpt><trkpt lat="46.2574914" lon="12.8566119"><ele>615.0</ele><time>2026-04-19T08:19:17.196Z</time></trkpt><trkpt lat="46.2574502" lon="12.8567121"><ele>615.0</ele><time>2026-04-19T08:19:18.197Z</time></trkpt><trkpt lat="46.2574617" lon="12.8568138"><ele>615.0</ele><time>2026-04-19T08:19:19.197Z</time></trkpt><trkpt lat="46.257477" lon="12.8569134"><ele>615.0</ele><time>2026-04-19T08:19:20.196Z</time></trkpt><trkpt lat="46.2574927" lon="12.8570154"><ele>615.0</ele><time>2026-04-19T08:19:21.198Z</time></trkpt><trkpt lat="46.2575512" lon="12.8571461"><ele>615.0</ele><time>2026-04-19T08:19:22.196Z</time></trkpt><trkpt lat="46.2576049" lon="12.8572368"><ele>617.0</ele><time>2026-04-19T08:19:23.197Z</time></trkpt><trkpt lat="46.2576048" lon="12.8573636"><ele>619.0</ele><time>2026-04-19T08:19:24.197Z</time></trkpt><trkpt lat="46.2575945" lon="12.8574876"><ele>621.0</ele><time>2026-04-19T08:19:25.197Z</time></trkpt><trkpt lat="46.2575685" lon="12.8576059"><ele>623.0</ele><time>2026-04-19T08:19:26.197Z</time></trkpt><trkpt lat="46.2575296" lon="12.8576825"><ele>625.0</ele><time>2026-04-19T08:19:27.196Z</time></trkpt><trkpt lat="46.2574666" lon="12.8577327"><ele>627.0</ele><time>2026-04-19T08:19:28.197Z</time></trkpt><trkpt lat="46.2573956" lon="12.8577579"><ele>629.2</ele><time>2026-04-19T08:19:29.198Z</time></trkpt><trkpt lat="46.2573315" lon="12.857767"><ele>631.4000000000001</ele><time>2026-04-19T08:19:30.197Z</time></trkpt><trkpt lat="46.2572462" lon="12.8576782"><ele>633.5999999999999</ele><time>2026-04-19T08:19:31.196Z</time></trkpt><trkpt lat="46.257178" lon="12.8575802"><ele>635.8</ele><time>2026-04-19T08:19:32.197Z</time></trkpt><trkpt lat="46.2570932" lon="12.8574615"><ele>638.0</ele><time>2026-04-19T08:19:33.196Z</time></trkpt><trkpt lat="46.2569995" lon="12.8573448"><ele>638.0</ele><time>2026-04-19T08:19:34.196Z</time></trkpt><trkpt lat="46.2569106" lon="12.8572162"><ele>638.0</ele><time>2026-04-19T08:19:35.197Z</time></trkpt><trkpt lat="46.2568198" lon="12.8570919"><ele>638.0</ele><time>2026-04-19T08:19:36.197Z</time></trkpt><trkpt lat="46.2567313" lon="12.8569726"><ele>638.0</ele><time>2026-04-19T08:19:37.197Z</time></trkpt><trkpt lat="46.2566626" lon="12.8568476"><ele>636.5</ele><time>2026-04-19T08:19:38.197Z</time></trkpt><trkpt lat="46.2566006" lon="12.8567082"><ele>635.0</ele><time>2026-04-19T08:19:39.196Z</time></trkpt><trkpt lat="46.2565857" lon="12.8565384"><ele>633.5</ele><time>2026-04-19T08:19:40.196Z</time></trkpt><trkpt lat="46.256565" lon="12.8563681"><ele>632.0</ele><time>2026-04-19T08:19:41.197Z</time></trkpt><trkpt lat="46.2565396" lon="12.8561913"><ele>632.0</ele><time>2026-04-19T08:19:42.196Z</time></trkpt><trkpt lat="46.2565356" lon="12.8559994"><ele>632.0</ele><time>2026-04-19T08:19:43.196Z</time></trkpt><trkpt lat="46.2565579" lon="12.8558021"><ele>632.0</ele><time>2026-04-19T08:19:44.197Z</time></trkpt><trkpt lat="46.2565912" lon="12.855593"><ele>632.0</ele><time>2026-04-19T08:19:45.196Z</time></trkpt><trkpt lat="46.2566226" lon="12.8553835"><ele>632.6</ele><time>2026-04-19T08:19:46.196Z</time></trkpt><trkpt lat="46.2566582" lon="12.855184"><ele>633.2</ele><time>2026-04-19T08:19:47.197Z</time></trkpt><trkpt lat="46.2566889" lon="12.8550081"><ele>633.8</ele><time>2026-04-19T08:19:48.197Z</time></trkpt><trkpt lat="46.2567124" lon="12.8548709"><ele>634.4</ele><time>2026-04-19T08:19:49.196Z</time></trkpt><trkpt lat="46.2567156" lon="12.8547582"><ele>635.0</ele><time>2026-04-19T08:19:50.196Z</time></trkpt><trkpt lat="46.2566939" lon="12.8546705"><ele>636.6</ele><time>2026-04-19T08:19:51.196Z</time></trkpt><trkpt lat="46.2566256" lon="12.8545718"><ele>638.2</ele><time>2026-04-19T08:19:53.196Z</time></trkpt><trkpt lat="46.256525" lon="12.8546048"><ele>639.8</ele><time>2026-04-19T08:19:55.198Z</time></trkpt><trkpt lat="46.2564938" lon="12.854735"><ele>641.4</ele><time>2026-04-19T08:19:56.197Z</time></trkpt><trkpt lat="46.2564715" lon="12.8548984"><ele>643.0</ele><time>2026-04-19T08:19:57.196Z</time></trkpt><trkpt lat="46.2564445" lon="12.8550578"><ele>650.5</ele><time>2026-04-19T08:19:58.196Z</time></trkpt><trkpt lat="46.2564126" lon="12.8551858"><ele>658.0</ele><time>2026-04-19T08:19:59.197Z</time></trkpt><trkpt lat="46.2563456" lon="12.8553347"><ele>665.5</ele><time>2026-04-19T08:20:00.197Z</time></trkpt><trkpt lat="46.2562649" lon="12.8554866"><ele>673.0</ele><time>2026-04-19T08:20:01.197Z</time></trkpt><trkpt lat="46.256202" lon="12.8556249"><ele>673.0</ele><time>2026-04-19T08:20:02.198Z</time></trkpt><trkpt lat="46.2561408" lon="12.8557673"><ele>673.0</ele><time>2026-04-19T08:20:03.197Z</time></trkpt><trkpt lat="46.2561545" lon="12.8559358"><ele>673.0</ele><time>2026-04-19T08:20:04.196Z</time></trkpt><trkpt lat="46.2561174" lon="12.8560866"><ele>673.0</ele><time>2026-04-19T08:20:05.197Z</time></trkpt><trkpt lat="46.2561331" lon="12.856336"><ele>673.0</ele><time>2026-04-19T08:20:06.197Z</time></trkpt><trkpt lat="46.2561258" lon="12.8565469"><ele>673.0</ele><time>2026-04-19T08:20:07.197Z</time></trkpt><trkpt lat="46.2561149" lon="12.8567494"><ele>673.0</ele><time>2026-04-19T08:20:08.196Z</time></trkpt><trkpt lat="46.2561113" lon="12.856944"><ele>673.0</ele><time>2026-04-19T08:20:09.197Z</time></trkpt><trkpt lat="46.2560996" lon="12.8571095"><ele>672.8</ele><time>2026-04-19T08:20:10.197Z</time></trkpt><trkpt lat="46.2560654" lon="12.8572635"><ele>672.5999999999999</ele><time>2026-04-19T08:20:11.198Z</time></trkpt><trkpt lat="46.2560193" lon="12.8574015"><ele>672.4000000000001</ele><time>2026-04-19T08:20:12.197Z</time></trkpt><trkpt lat="46.2559789" lon="12.8575479"><ele>672.2</ele><time>2026-04-19T08:20:13.197Z</time></trkpt><trkpt lat="46.2559294" lon="12.8576997"><ele>672.0</ele><time>2026-04-19T08:20:14.197Z</time></trkpt><trkpt lat="46.2558845" lon="12.8578545"><ele>672.5</ele><time>2026-04-19T08:20:15.197Z</time></trkpt><trkpt lat="46.2558384" lon="12.8579934"><ele>673.0</ele><time>2026-04-19T08:20:16.197Z</time></trkpt><trkpt lat="46.255789" lon="12.8580987"><ele>673.5</ele><time>2026-04-19T08:20:17.197Z</time></trkpt><trkpt lat="46.2557308" lon="12.8581729"><ele>674.0</ele><time>2026-04-19T08:20:18.197Z</time></trkpt><trkpt lat="46.2556581" lon="12.8582148"><ele>674.5</ele><time>2026-04-19T08:20:19.197Z</time></trkpt><trkpt lat="46.2555803" lon="12.8582306"><ele>675.0</ele><time>2026-04-19T08:20:20.197Z</time></trkpt><trkpt lat="46.2555038" lon="12.8582402"><ele>676.6</ele><time>2026-04-19T08:20:21.197Z</time></trkpt><trkpt lat="46.2554299" lon="12.8582498"><ele>678.2</ele><time>2026-04-19T08:20:22.196Z</time></trkpt><trkpt lat="46.2553448" lon="12.8582749"><ele>679.8</ele><time>2026-04-19T08:20:23.197Z</time></trkpt><trkpt lat="46.2552763" lon="12.858343"><ele>681.4</ele><time>2026-04-19T08:20:24.196Z</time></trkpt><trkpt lat="46.2551731" lon="12.858474"><ele>683.0</ele><time>2026-04-19T08:20:25.196Z</time></trkpt><trkpt lat="46.2550763" lon="12.8586116"><ele>683.0</ele><time>2026-04-19T08:20:26.195Z</time></trkpt><trkpt lat="46.2549827" lon="12.8587297"><ele>683.0</ele><time>2026-04-19T08:20:27.195Z</time></trkpt><trkpt lat="46.2548761" lon="12.8588695"><ele>683.0</ele><time>2026-04-19T08:20:28.196Z</time></trkpt><trkpt lat="46.2547595" lon="12.8590198"><ele>683.0</ele><time>2026-04-19T08:20:29.196Z</time></trkpt><trkpt lat="46.2546374" lon="12.8591654"><ele>681.6666666666666</ele><time>2026-04-19T08:20:30.195Z</time></trkpt><trkpt lat="46.2545191" lon="12.8593233"><ele>680.3333333333334</ele><time>2026-04-19T08:20:31.197Z</time></trkpt><trkpt lat="46.2544006" lon="12.8594754"><ele>679.0</ele><time>2026-04-19T08:20:32.196Z</time></trkpt><trkpt lat="46.25429" lon="12.8596206"><ele>679.0</ele><time>2026-04-19T08:20:33.196Z</time></trkpt><trkpt lat="46.2541842" lon="12.8597588"><ele>679.0</ele><time>2026-04-19T08:20:34.195Z</time></trkpt><trkpt lat="46.2540889" lon="12.8598866"><ele>679.0</ele><time>2026-04-19T08:20:35.196Z</time></trkpt><trkpt lat="46.2540008" lon="12.8600023"><ele>679.0</ele><time>2026-04-19T08:20:36.196Z</time></trkpt><trkpt lat="46.2539111" lon="12.8601023"><ele>676.5</ele><time>2026-04-19T08:20:37.195Z</time></trkpt><trkpt lat="46.2538202" lon="12.8601898"><ele>674.0</ele><time>2026-04-19T08:20:38.196Z</time></trkpt><trkpt lat="46.253724" lon="12.8602724"><ele>671.5</ele><time>2026-04-19T08:20:39.196Z</time></trkpt><trkpt lat="46.2536254" lon="12.8603528"><ele>669.0</ele><time>2026-04-19T08:20:40.196Z</time></trkpt><trkpt lat="46.2535203" lon="12.8604371"><ele>669.0</ele><time>2026-04-19T08:20:41.195Z</time></trkpt><trkpt lat="46.2534133" lon="12.8605239"><ele>669.0</ele><time>2026-04-19T08:20:42.196Z</time></trkpt><trkpt lat="46.2532968" lon="12.8606139"><ele>669.0</ele><time>2026-04-19T08:20:43.195Z</time></trkpt><trkpt lat="46.2531814" lon="12.8607049"><ele>669.0</ele><time>2026-04-19T08:20:44.196Z</time></trkpt><trkpt lat="46.2530675" lon="12.8607962"><ele>667.5</ele><time>2026-04-19T08:20:45.196Z</time></trkpt><trkpt lat="46.2529492" lon="12.8608889"><ele>666.0</ele><time>2026-04-19T08:20:46.195Z</time></trkpt><trkpt lat="46.2528302" lon="12.8609855"><ele>664.5</ele><time>2026-04-19T08:20:47.196Z</time></trkpt><trkpt lat="46.2527106" lon="12.8610868"><ele>663.0</ele><time>2026-04-19T08:20:48.196Z</time></trkpt><trkpt lat="46.2525899" lon="12.8611839"><ele>661.75</ele><time>2026-04-19T08:20:49.197Z</time></trkpt><trkpt lat="46.2524734" lon="12.8612793"><ele>660.5</ele><time>2026-04-19T08:20:50.195Z</time></trkpt><trkpt lat="46.2523548" lon="12.8613691"><ele>659.25</ele><time>2026-04-19T08:20:51.195Z</time></trkpt><trkpt lat="46.2522397" lon="12.8614641"><ele>658.0</ele><time>2026-04-19T08:20:52.195Z</time></trkpt><trkpt lat="46.2521236" lon="12.8615514"><ele>657.75</ele><time>2026-04-19T08:20:53.195Z</time></trkpt><trkpt lat="46.2520102" lon="12.8616391"><ele>657.5</ele><time>2026-04-19T08:20:54.195Z</time></trkpt><trkpt lat="46.2518984" lon="12.8617233"><ele>657.25</ele><time>2026-04-19T08:20:55.196Z</time></trkpt><trkpt lat="46.251782" lon="12.8618111"><ele>657.0</ele><time>2026-04-19T08:20:56.195Z</time></trkpt><trkpt lat="46.2516709" lon="12.8618989"><ele>657.0</ele><time>2026-04-19T08:20:57.196Z</time></trkpt><trkpt lat="46.2515614" lon="12.8619916"><ele>657.0</ele><time>2026-04-19T08:20:58.196Z</time></trkpt><trkpt lat="46.2514473" lon="12.8620787"><ele>657.0</ele><time>2026-04-19T08:20:59.196Z</time></trkpt><trkpt lat="46.2513364" lon="12.8621695"><ele>657.0</ele><time>2026-04-19T08:21:00.197Z</time></trkpt><trkpt lat="46.2512204" lon="12.8622616"><ele>657.5</ele><time>2026-04-19T08:21:01.196Z</time></trkpt><trkpt lat="46.2511014" lon="12.8623547"><ele>658.0</ele><time>2026-04-19T08:21:02.197Z</time></trkpt><trkpt lat="46.250985" lon="12.8624465"><ele>658.5</ele><time>2026-04-19T08:21:03.195Z</time></trkpt><trkpt lat="46.2508714" lon="12.8625349"><ele>659.0</ele><time>2026-04-19T08:21:04.196Z</time></trkpt><trkpt lat="46.2507618" lon="12.8626207"><ele>659.0</ele><time>2026-04-19T08:21:05.196Z</time></trkpt><trkpt lat="46.2506546" lon="12.8627047"><ele>659.0</ele><time>2026-04-19T08:21:06.196Z</time></trkpt><trkpt lat="46.2505459" lon="12.8627902"><ele>659.0</ele><time>2026-04-19T08:21:07.197Z</time></trkpt><trkpt lat="46.2504345" lon="12.8628762"><ele>659.0</ele><time>2026-04-19T08:21:08.196Z</time></trkpt><trkpt lat="46.2503167" lon="12.8629682"><ele>656.5</ele><time>2026-04-19T08:21:09.196Z</time></trkpt><trkpt lat="46.2501907" lon="12.8630697"><ele>654.0</ele><time>2026-04-19T08:21:10.195Z</time></trkpt><trkpt lat="46.2500615" lon="12.8631713"><ele>651.5</ele><time>2026-04-19T08:21:11.196Z</time></trkpt><trkpt lat="46.2499311" lon="12.863272"><ele>649.0</ele><time>2026-04-19T08:21:12.196Z</time></trkpt><trkpt lat="46.249797" lon="12.863374"><ele>649.3333333333334</ele><time>2026-04-19T08:21:13.197Z</time></trkpt><trkpt lat="46.2496632" lon="12.8634769"><ele>649.6666666666666</ele><time>2026-04-19T08:21:14.196Z</time></trkpt><trkpt lat="46.2495295" lon="12.8635825"><ele>650.0</ele><time>2026-04-19T08:21:15.196Z</time></trkpt><trkpt lat="46.2493946" lon="12.8636914"><ele>650.0</ele><time>2026-04-19T08:21:16.196Z</time></trkpt><trkpt lat="46.2492569" lon="12.8637984"><ele>650.0</ele><time>2026-04-19T08:21:17.196Z</time></trkpt><trkpt lat="46.2491202" lon="12.8639073"><ele>650.0</ele><time>2026-04-19T08:21:18.197Z</time></trkpt><trkpt lat="46.2489831" lon="12.8640134"><ele>648.25</ele><time>2026-04-19T08:21:19.196Z</time></trkpt><trkpt lat="46.2488475" lon="12.8641226"><ele>646.5</ele><time>2026-04-19T08:21:20.197Z</time></trkpt><trkpt lat="46.2487166" lon="12.8642261"><ele>644.75</ele><time>2026-04-19T08:21:21.196Z</time></trkpt><trkpt lat="46.2485888" lon="12.8643243"><ele>643.0</ele><time>2026-04-19T08:21:22.197Z</time></trkpt><trkpt lat="46.2484668" lon="12.8644212"><ele>643.0</ele><time>2026-04-19T08:21:23.196Z</time></trkpt><trkpt lat="46.2483489" lon="12.864515"><ele>643.0</ele><time>2026-04-19T08:21:24.196Z</time></trkpt><trkpt lat="46.2482308" lon="12.8646097"><ele>643.0</ele><time>2026-04-19T08:21:25.196Z</time></trkpt><trkpt lat="46.2481207" lon="12.8646965"><ele>643.0</ele><time>2026-04-19T08:21:26.196Z</time></trkpt><trkpt lat="46.248017" lon="12.8647864"><ele>640.75</ele><time>2026-04-19T08:21:27.197Z</time></trkpt><trkpt lat="46.247931" lon="12.8648858"><ele>638.5</ele><time>2026-04-19T08:21:28.196Z</time></trkpt><trkpt lat="46.2478565" lon="12.8650166"><ele>636.25</ele><time>2026-04-19T08:21:29.196Z</time></trkpt><trkpt lat="46.2477865" lon="12.86517"><ele>634.0</ele><time>2026-04-19T08:21:30.196Z</time></trkpt><trkpt lat="46.2477077" lon="12.8653365"><ele>633.0</ele><time>2026-04-19T08:21:31.196Z</time></trkpt><trkpt lat="46.2476253" lon="12.8655007"><ele>632.0</ele><time>2026-04-19T08:21:32.196Z</time></trkpt><trkpt lat="46.247544" lon="12.8656678"><ele>631.0</ele><time>2026-04-19T08:21:33.196Z</time></trkpt><trkpt lat="46.247462" lon="12.8658271"><ele>630.0</ele><time>2026-04-19T08:21:34.196Z</time></trkpt><trkpt lat="46.2473868" lon="12.8659796"><ele>629.5</ele><time>2026-04-19T08:21:35.196Z</time></trkpt><trkpt lat="46.2473169" lon="12.8661272"><ele>629.0</ele><time>2026-04-19T08:21:36.195Z</time></trkpt><trkpt lat="46.2472491" lon="12.8662767"><ele>628.5</ele><time>2026-04-19T08:21:37.195Z</time></trkpt><trkpt lat="46.2471864" lon="12.866416"><ele>628.0</ele><time>2026-04-19T08:21:38.196Z</time></trkpt><trkpt lat="46.2471365" lon="12.8665494"><ele>626.8</ele><time>2026-04-19T08:21:39.196Z</time></trkpt><trkpt lat="46.2471043" lon="12.8666634"><ele>625.5999999999999</ele><time>2026-04-19T08:21:40.196Z</time></trkpt><trkpt lat="46.2470857" lon="12.8667807"><ele>624.4000000000001</ele><time>2026-04-19T08:21:41.196Z</time></trkpt><trkpt lat="46.2470935" lon="12.8669117"><ele>623.2</ele><time>2026-04-19T08:21:42.195Z</time></trkpt><trkpt lat="46.2471105" lon="12.8670551"><ele>622.0</ele><time>2026-04-19T08:21:43.197Z</time></trkpt><trkpt lat="46.2471317" lon="12.8672043"><ele>620.25</ele><time>2026-04-19T08:21:44.196Z</time></trkpt><trkpt lat="46.2471457" lon="12.8673564"><ele>618.5</ele><time>2026-04-19T08:21:45.196Z</time></trkpt><trkpt lat="46.2471601" lon="12.8675211"><ele>616.75</ele><time>2026-04-19T08:21:46.196Z</time></trkpt><trkpt lat="46.2471609" lon="12.8676909"><ele>615.0</ele><time>2026-04-19T08:21:47.196Z</time></trkpt><trkpt lat="46.2471455" lon="12.867867"><ele>614.25</ele><time>2026-04-19T08:21:48.197Z</time></trkpt><trkpt lat="46.2471208" lon="12.8680537"><ele>613.5</ele><time>2026-04-19T08:21:49.196Z</time></trkpt><trkpt lat="46.2470972" lon="12.8682474"><ele>612.75</ele><time>2026-04-19T08:21:50.196Z</time></trkpt><trkpt lat="46.247071" lon="12.8684447"><ele>612.0</ele><time>2026-04-19T08:21:51.196Z</time></trkpt><trkpt lat="46.2470458" lon="12.8686464"><ele>611.6</ele><time>2026-04-19T08:21:52.196Z</time></trkpt><trkpt lat="46.2470225" lon="12.8688339"><ele>611.2</ele><time>2026-04-19T08:21:53.196Z</time></trkpt><trkpt lat="46.2469975" lon="12.869009"><ele>610.8</ele><time>2026-04-19T08:21:54.195Z</time></trkpt><trkpt lat="46.2469791" lon="12.8691553"><ele>610.4</ele><time>2026-04-19T08:21:55.196Z</time></trkpt><trkpt lat="46.2469683" lon="12.8692767"><ele>610.0</ele><time>2026-04-19T08:21:56.196Z</time></trkpt><trkpt lat="46.2469792" lon="12.8693817"><ele>609.6</ele><time>2026-04-19T08:21:57.196Z</time></trkpt><trkpt lat="46.2470083" lon="12.8694812"><ele>609.2</ele><time>2026-04-19T08:21:58.196Z</time></trkpt><trkpt lat="46.2470654" lon="12.8695906"><ele>608.8</ele><time>2026-04-19T08:21:59.196Z</time></trkpt><trkpt lat="46.2471395" lon="12.8697038"><ele>608.4</ele><time>2026-04-19T08:22:00.196Z</time></trkpt><trkpt lat="46.2472151" lon="12.8698261"><ele>608.0</ele><time>2026-04-19T08:22:01.196Z</time></trkpt><trkpt lat="46.247295" lon="12.8699598"><ele>608.75</ele><time>2026-04-19T08:22:02.196Z</time></trkpt><trkpt lat="46.2473805" lon="12.8701019"><ele>609.5</ele><time>2026-04-19T08:22:03.196Z</time></trkpt><trkpt lat="46.2474692" lon="12.8702482"><ele>610.25</ele><time>2026-04-19T08:22:04.197Z</time></trkpt><trkpt lat="46.2475544" lon="12.87038"><ele>611.0</ele><time>2026-04-19T08:22:05.197Z</time></trkpt><trkpt lat="46.2476275" lon="12.8705022"><ele>611.0</ele><time>2026-04-19T08:22:06.196Z</time></trkpt><trkpt lat="46.2476807" lon="12.8706249"><ele>611.0</ele><time>2026-04-19T08:22:07.195Z</time></trkpt><trkpt lat="46.2477055" lon="12.8707557"><ele>611.0</ele><time>2026-04-19T08:22:08.195Z</time></trkpt><trkpt lat="46.2476943" lon="12.8708935"><ele>611.0</ele><time>2026-04-19T08:22:09.196Z</time></trkpt><trkpt lat="46.2476538" lon="12.8710526"><ele>611.0</ele><time>2026-04-19T08:22:10.195Z</time></trkpt><trkpt lat="46.2476115" lon="12.8712244"><ele>610.75</ele><time>2026-04-19T08:22:11.195Z</time></trkpt><trkpt lat="46.2475723" lon="12.871408"><ele>610.5</ele><time>2026-04-19T08:22:12.195Z</time></trkpt><trkpt lat="46.247527" lon="12.8716001"><ele>610.25</ele><time>2026-04-19T08:22:13.196Z</time></trkpt><trkpt lat="46.2474796" lon="12.8717905"><ele>610.0</ele><time>2026-04-19T08:22:14.196Z</time></trkpt><trkpt lat="46.2474365" lon="12.8719705"><ele>610.4</ele><time>2026-04-19T08:22:15.195Z</time></trkpt><trkpt lat="46.2473962" lon="12.8721392"><ele>610.8</ele><time>2026-04-19T08:22:16.196Z</time></trkpt><trkpt lat="46.2473567" lon="12.8722816"><ele>611.2</ele><time>2026-04-19T08:22:17.197Z</time></trkpt><trkpt lat="46.2473248" lon="12.8724009"><ele>611.6</ele><time>2026-04-19T08:22:18.196Z</time></trkpt><trkpt lat="46.2472963" lon="12.8725072"><ele>612.0</ele><time>2026-04-19T08:22:19.197Z</time></trkpt><trkpt lat="46.2472789" lon="12.8726082"><ele>611.4</ele><time>2026-04-19T08:22:20.195Z</time></trkpt><trkpt lat="46.247351" lon="12.8727052"><ele>610.8000000000001</ele><time>2026-04-19T08:22:21.196Z</time></trkpt><trkpt lat="46.2474126" lon="12.8727834"><ele>610.2</ele><time>2026-04-19T08:22:22.196Z</time></trkpt><trkpt lat="46.2475011" lon="12.8728642"><ele>609.6</ele><time>2026-04-19T08:22:23.196Z</time></trkpt><trkpt lat="46.2475926" lon="12.8729544"><ele>609.0</ele><time>2026-04-19T08:22:24.196Z</time></trkpt><trkpt lat="46.2476986" lon="12.8730536"><ele>609.0</ele><time>2026-04-19T08:22:25.196Z</time></trkpt><trkpt lat="46.2478006" lon="12.8731418"><ele>609.0</ele><time>2026-04-19T08:22:26.195Z</time></trkpt><trkpt lat="46.2478909" lon="12.8732236"><ele>609.0</ele><time>2026-04-19T08:22:27.197Z</time></trkpt><trkpt lat="46.2479675" lon="12.8733044"><ele>609.0</ele><time>2026-04-19T08:22:28.197Z</time></trkpt><trkpt lat="46.2480239" lon="12.8734003"><ele>609.0</ele><time>2026-04-19T08:22:29.195Z</time></trkpt><trkpt lat="46.2480443" lon="12.8735058"><ele>609.3333333333334</ele><time>2026-04-19T08:22:30.196Z</time></trkpt><trkpt lat="46.2480354" lon="12.8736148"><ele>609.6666666666666</ele><time>2026-04-19T08:22:31.196Z</time></trkpt><trkpt lat="46.2479923" lon="12.8737199"><ele>610.0</ele><time>2026-04-19T08:22:32.196Z</time></trkpt><trkpt lat="46.2479335" lon="12.8738268"><ele>610.3333333333333</ele><time>2026-04-19T08:22:33.195Z</time></trkpt><trkpt lat="46.2478798" lon="12.8739422"><ele>610.6666666666666</ele><time>2026-04-19T08:22:34.196Z</time></trkpt><trkpt lat="46.2478278" lon="12.8740389"><ele>611.0</ele><time>2026-04-19T08:22:35.195Z</time></trkpt><trkpt lat="46.2477646" lon="12.8741061"><ele>611.0</ele><time>2026-04-19T08:22:36.196Z</time></trkpt><trkpt lat="46.2476959" lon="12.8741512"><ele>611.0</ele><time>2026-04-19T08:22:37.196Z</time></trkpt><trkpt lat="46.2476273" lon="12.874204"><ele>611.0</ele><time>2026-04-19T08:22:38.196Z</time></trkpt><trkpt lat="46.2475355" lon="12.8741994"><ele>611.0</ele><time>2026-04-19T08:22:39.195Z</time></trkpt><trkpt lat="46.2474435" lon="12.8742082"><ele>611.0</ele><time>2026-04-19T08:22:40.195Z</time></trkpt><trkpt lat="46.247356" lon="12.8742836"><ele>611.0</ele><time>2026-04-19T08:22:42.195Z</time></trkpt><trkpt lat="46.2473585" lon="12.8744025"><ele>611.25</ele><time>2026-04-19T08:22:43.195Z</time></trkpt><trkpt lat="46.2473739" lon="12.8746057"><ele>611.5</ele><time>2026-04-19T08:22:45.196Z</time></trkpt><trkpt lat="46.2474293" lon="12.8747385"><ele>611.75</ele><time>2026-04-19T08:22:46.197Z</time></trkpt><trkpt lat="46.2475038" lon="12.874863"><ele>612.0</ele><time>2026-04-19T08:22:47.195Z</time></trkpt><trkpt lat="46.2475642" lon="12.8749934"><ele>611.1666666666666</ele><time>2026-04-19T08:22:48.196Z</time></trkpt><trkpt lat="46.2476276" lon="12.8751052"><ele>610.3333333333334</ele><time>2026-04-19T08:22:49.196Z</time></trkpt><trkpt lat="46.2476696" lon="12.8752186"><ele>609.5</ele><time>2026-04-19T08:22:50.196Z</time></trkpt><trkpt lat="46.2476847" lon="12.8753324"><ele>608.6666666666667</ele><time>2026-04-19T08:22:51.196Z</time></trkpt><trkpt lat="46.247689" lon="12.8754269"><ele>607.8333333333334</ele><time>2026-04-19T08:22:52.196Z</time></trkpt><trkpt lat="46.2476143" lon="12.875521"><ele>607.0</ele><time>2026-04-19T08:22:53.197Z</time></trkpt><trkpt lat="46.2475593" lon="12.8756312"><ele>607.0</ele><time>2026-04-19T08:22:54.195Z</time></trkpt><trkpt lat="46.247461" lon="12.8756918"><ele>607.0</ele><time>2026-04-19T08:22:55.196Z</time></trkpt><trkpt lat="46.2473748" lon="12.8757695"><ele>607.0</ele><time>2026-04-19T08:22:56.196Z</time></trkpt><trkpt lat="46.2473031" lon="12.8758414"><ele>607.0</ele><time>2026-04-19T08:22:57.195Z</time></trkpt><trkpt lat="46.2472502" lon="12.8759354"><ele>607.0</ele><time>2026-04-19T08:22:58.196Z</time></trkpt><trkpt lat="46.2472106" lon="12.8760383"><ele>605.8000000000001</ele><time>2026-04-19T08:22:59.197Z</time></trkpt><trkpt lat="46.247171" lon="12.87616"><ele>604.6</ele><time>2026-04-19T08:23:00.196Z</time></trkpt><trkpt lat="46.2471378" lon="12.8762926"><ele>603.4000000000001</ele><time>2026-04-19T08:23:01.196Z</time></trkpt><trkpt lat="46.2471239" lon="12.8764497"><ele>602.2</ele><time>2026-04-19T08:23:02.195Z</time></trkpt><trkpt lat="46.2471253" lon="12.8766192"><ele>601.0</ele><time>2026-04-19T08:23:03.196Z</time></trkpt><trkpt lat="46.2471316" lon="12.8767796"><ele>601.0</ele><time>2026-04-19T08:23:04.196Z</time></trkpt><trkpt lat="46.2471384" lon="12.8769228"><ele>601.0</ele><time>2026-04-19T08:23:05.196Z</time></trkpt><trkpt lat="46.2471637" lon="12.8770629"><ele>601.0</ele><time>2026-04-19T08:23:06.196Z</time></trkpt><trkpt lat="46.2472043" lon="12.8772047"><ele>601.0</ele><time>2026-04-19T08:23:07.195Z</time></trkpt><trkpt lat="46.2472545" lon="12.8773503"><ele>601.0</ele><time>2026-04-19T08:23:08.197Z</time></trkpt><trkpt lat="46.247299" lon="12.8774915"><ele>599.0</ele><time>2026-04-19T08:23:09.196Z</time></trkpt><trkpt lat="46.2473408" lon="12.8776311"><ele>597.0</ele><time>2026-04-19T08:23:10.195Z</time></trkpt><trkpt lat="46.2473813" lon="12.8777517"><ele>595.0</ele><time>2026-04-19T08:23:11.195Z</time></trkpt><trkpt lat="46.2474218" lon="12.877847"><ele>593.0</ele><time>2026-04-19T08:23:12.195Z</time></trkpt><trkpt lat="46.2474707" lon="12.8779154"><ele>591.0</ele><time>2026-04-19T08:23:13.195Z</time></trkpt><trkpt lat="46.2475303" lon="12.8779556"><ele>589.0</ele><time>2026-04-19T08:23:14.195Z</time></trkpt><trkpt lat="46.2476022" lon="12.8779564"><ele>589.0</ele><time>2026-04-19T08:23:15.196Z</time></trkpt><trkpt lat="46.2476954" lon="12.8779166"><ele>589.0</ele><time>2026-04-19T08:23:16.196Z</time></trkpt><trkpt lat="46.2477959" lon="12.8778754"><ele>589.0</ele><time>2026-04-19T08:23:17.196Z</time></trkpt><trkpt lat="46.2479023" lon="12.8778254"><ele>589.0</ele><time>2026-04-19T08:23:18.195Z</time></trkpt><trkpt lat="46.2480115" lon="12.8777742"><ele>589.0</ele><time>2026-04-19T08:23:19.195Z</time></trkpt><trkpt lat="46.2481164" lon="12.877722"><ele>587.8333333333334</ele><time>2026-04-19T08:23:20.196Z</time></trkpt><trkpt lat="46.2482106" lon="12.8776769"><ele>586.6666666666667</ele><time>2026-04-19T08:23:21.195Z</time></trkpt><trkpt lat="46.2482916" lon="12.8776483"><ele>585.5</ele><time>2026-04-19T08:23:22.195Z</time></trkpt><trkpt lat="46.2483666" lon="12.8776586"><ele>584.3333333333334</ele><time>2026-04-19T08:23:23.195Z</time></trkpt><trkpt lat="46.2484256" lon="12.8777093"><ele>583.1666666666666</ele><time>2026-04-19T08:23:24.195Z</time></trkpt><trkpt lat="46.2484751" lon="12.8778074"><ele>582.0</ele><time>2026-04-19T08:23:25.195Z</time></trkpt><trkpt lat="46.2484995" lon="12.8779442"><ele>582.0</ele><time>2026-04-19T08:23:26.196Z</time></trkpt><trkpt lat="46.2485175" lon="12.8780829"><ele>582.0</ele><time>2026-04-19T08:23:27.196Z</time></trkpt><trkpt lat="46.2485298" lon="12.8782274"><ele>582.0</ele><time>2026-04-19T08:23:28.196Z</time></trkpt><trkpt lat="46.2485422" lon="12.8783726"><ele>582.0</ele><time>2026-04-19T08:23:29.195Z</time></trkpt><trkpt lat="46.2485684" lon="12.8785034"><ele>582.0</ele><time>2026-04-19T08:23:30.195Z</time></trkpt><trkpt lat="46.2486103" lon="12.8786162"><ele>581.0</ele><time>2026-04-19T08:23:31.196Z</time></trkpt><trkpt lat="46.2486767" lon="12.8787129"><ele>580.0</ele><time>2026-04-19T08:23:32.197Z</time></trkpt><trkpt lat="46.248751" lon="12.8788019"><ele>579.0</ele><time>2026-04-19T08:23:33.195Z</time></trkpt><trkpt lat="46.2488224" lon="12.8788924"><ele>578.0</ele><time>2026-04-19T08:23:34.196Z</time></trkpt><trkpt lat="46.2488892" lon="12.8789732"><ele>577.0</ele><time>2026-04-19T08:23:35.197Z</time></trkpt><trkpt lat="46.2489402" lon="12.8790558"><ele>576.0</ele><time>2026-04-19T08:23:36.196Z</time></trkpt><trkpt lat="46.2489656" lon="12.8791503"><ele>575.1666666666666</ele><time>2026-04-19T08:23:37.196Z</time></trkpt><trkpt lat="46.2489728" lon="12.8792502"><ele>574.3333333333334</ele><time>2026-04-19T08:23:38.195Z</time></trkpt><trkpt lat="46.2489537" lon="12.8793387"><ele>573.5</ele><time>2026-04-19T08:23:39.195Z</time></trkpt><trkpt lat="46.248906" lon="12.8794079"><ele>572.6666666666667</ele><time>2026-04-19T08:23:40.196Z</time></trkpt><trkpt lat="46.248834" lon="12.8794737"><ele>571.8333333333334</ele><time>2026-04-19T08:23:41.196Z</time></trkpt><trkpt lat="46.2487634" lon="12.8795404"><ele>571.0</ele><time>2026-04-19T08:23:42.196Z</time></trkpt><trkpt lat="46.2486954" lon="12.8796073"><ele>571.0</ele><time>2026-04-19T08:23:43.195Z</time></trkpt><trkpt lat="46.2486414" lon="12.8796853"><ele>571.0</ele><time>2026-04-19T08:23:44.197Z</time></trkpt><trkpt lat="46.2486013" lon="12.8797749"><ele>571.0</ele><time>2026-04-19T08:23:45.196Z</time></trkpt><trkpt lat="46.2485818" lon="12.8798881"><ele>571.0</ele><time>2026-04-19T08:23:46.196Z</time></trkpt><trkpt lat="46.2485743" lon="12.8800158"><ele>571.0</ele><time>2026-04-19T08:23:47.196Z</time></trkpt><trkpt lat="46.2485619" lon="12.8801446"><ele>571.0</ele><time>2026-04-19T08:23:48.197Z</time></trkpt><trkpt lat="46.2485379" lon="12.8802676"><ele>569.8</ele><time>2026-04-19T08:23:49.197Z</time></trkpt><trkpt lat="46.2484897" lon="12.8803804"><ele>568.6</ele><time>2026-04-19T08:23:50.196Z</time></trkpt><trkpt lat="46.2484273" lon="12.8804686"><ele>567.4</ele><time>2026-04-19T08:23:51.196Z</time></trkpt><trkpt lat="46.2483561" lon="12.8805416"><ele>566.2</ele><time>2026-04-19T08:23:52.195Z</time></trkpt><trkpt lat="46.2482744" lon="12.8806139"><ele>565.0</ele><time>2026-04-19T08:23:53.196Z</time></trkpt><trkpt lat="46.2481926" lon="12.8806828"><ele>561.6666666666667</ele><time>2026-04-19T08:23:54.196Z</time></trkpt><trkpt lat="46.2481134" lon="12.8807495"><ele>558.3333333333334</ele><time>2026-04-19T08:23:55.196Z</time></trkpt><trkpt lat="46.2480409" lon="12.8808131"><ele>555.0</ele><time>2026-04-19T08:23:56.196Z</time></trkpt><trkpt lat="46.2479765" lon="12.8808779"><ele>551.6666666666666</ele><time>2026-04-19T08:23:57.195Z</time></trkpt><trkpt lat="46.2479237" lon="12.8809719"><ele>548.3333333333333</ele><time>2026-04-19T08:23:58.196Z</time></trkpt><trkpt lat="46.2478978" lon="12.8810937"><ele>545.0</ele><time>2026-04-19T08:23:59.196Z</time></trkpt><trkpt lat="46.2478889" lon="12.8812527"><ele>544.75</ele><time>2026-04-19T08:24:00.196Z</time></trkpt><trkpt lat="46.2478655" lon="12.8814179"><ele>544.5</ele><time>2026-04-19T08:24:01.196Z</time></trkpt><trkpt lat="46.2478399" lon="12.8815962"><ele>544.25</ele><time>2026-04-19T08:24:02.196Z</time></trkpt><trkpt lat="46.2478144" lon="12.8817857"><ele>544.0</ele><time>2026-04-19T08:24:03.195Z</time></trkpt><trkpt lat="46.24779" lon="12.8819803"><ele>544.0</ele><time>2026-04-19T08:24:04.195Z</time></trkpt><trkpt lat="46.2477663" lon="12.8821715"><ele>544.0</ele><time>2026-04-19T08:24:05.195Z</time></trkpt><trkpt lat="46.2477449" lon="12.8823477"><ele>544.0</ele><time>2026-04-19T08:24:06.195Z</time></trkpt><trkpt lat="46.2477265" lon="12.8825073"><ele>544.0</ele><time>2026-04-19T08:24:07.195Z</time></trkpt><trkpt lat="46.2477152" lon="12.8826558"><ele>545.2</ele><time>2026-04-19T08:24:08.196Z</time></trkpt><trkpt lat="46.2477303" lon="12.8827966"><ele>546.4</ele><time>2026-04-19T08:24:09.195Z</time></trkpt><trkpt lat="46.2477656" lon="12.8829339"><ele>547.6</ele><time>2026-04-19T08:24:10.195Z</time></trkpt><trkpt lat="46.2478031" lon="12.8830654"><ele>548.8</ele><time>2026-04-19T08:24:11.197Z</time></trkpt><trkpt lat="46.247827" lon="12.8831973"><ele>550.0</ele><time>2026-04-19T08:24:12.197Z</time></trkpt><trkpt lat="46.2478306" lon="12.8833128"><ele>550.0</ele><time>2026-04-19T08:24:13.195Z</time></trkpt><trkpt lat="46.2478134" lon="12.8834048"><ele>550.0</ele><time>2026-04-19T08:24:14.195Z</time></trkpt><trkpt lat="46.2477739" lon="12.8834803"><ele>550.0</ele><time>2026-04-19T08:24:15.196Z</time></trkpt><trkpt lat="46.2477113" lon="12.8835343"><ele>550.0</ele><time>2026-04-19T08:24:16.196Z</time></trkpt><trkpt lat="46.2476284" lon="12.8835688"><ele>550.0</ele><time>2026-04-19T08:24:17.196Z</time></trkpt><trkpt lat="46.2475461" lon="12.8836036"><ele>550.0</ele><time>2026-04-19T08:24:18.196Z</time></trkpt><trkpt lat="46.247456" lon="12.8836526"><ele>548.0</ele><time>2026-04-19T08:24:19.195Z</time></trkpt><trkpt lat="46.2473691" lon="12.8837126"><ele>546.0</ele><time>2026-04-19T08:24:20.196Z</time></trkpt><trkpt lat="46.2473261" lon="12.883896"><ele>544.0</ele><time>2026-04-19T08:24:21.197Z</time></trkpt><trkpt lat="46.2472685" lon="12.8840438"><ele>542.0</ele><time>2026-04-19T08:24:22.195Z</time></trkpt><trkpt lat="46.2472" lon="12.8841731"><ele>540.8000000000001</ele><time>2026-04-19T08:24:23.195Z</time></trkpt><trkpt lat="46.2471388" lon="12.884299"><ele>539.6</ele><time>2026-04-19T08:24:24.196Z</time></trkpt><trkpt lat="46.247084" lon="12.8844142"><ele>538.4000000000001</ele><time>2026-04-19T08:24:25.196Z</time></trkpt><trkpt lat="46.2470282" lon="12.8845285"><ele>537.2</ele><time>2026-04-19T08:24:26.196Z</time></trkpt><trkpt lat="46.2469895" lon="12.8846345"><ele>536.0</ele><time>2026-04-19T08:24:27.196Z</time></trkpt><trkpt lat="46.2469859" lon="12.8847579"><ele>536.0</ele><time>2026-04-19T08:24:28.196Z</time></trkpt><trkpt lat="46.2470007" lon="12.8849113"><ele>536.0</ele><time>2026-04-19T08:24:29.196Z</time></trkpt><trkpt lat="46.2470176" lon="12.8850752"><ele>536.0</ele><time>2026-04-19T08:24:30.196Z</time></trkpt><trkpt lat="46.2470371" lon="12.8852465"><ele>536.0</ele><time>2026-04-19T08:24:31.197Z</time></trkpt><trkpt lat="46.2470532" lon="12.885425"><ele>535.0</ele><time>2026-04-19T08:24:32.196Z</time></trkpt><trkpt lat="46.2470669" lon="12.8856063"><ele>534.0</ele><time>2026-04-19T08:24:33.195Z</time></trkpt><trkpt lat="46.2470844" lon="12.8857916"><ele>533.0</ele><time>2026-04-19T08:24:34.196Z</time></trkpt><trkpt lat="46.2471034" lon="12.8859732"><ele>532.0</ele><time>2026-04-19T08:24:35.195Z</time></trkpt><trkpt lat="46.2471188" lon="12.8861525"><ele>531.25</ele><time>2026-04-19T08:24:36.196Z</time></trkpt><trkpt lat="46.2471397" lon="12.8863199"><ele>530.5</ele><time>2026-04-19T08:24:37.196Z</time></trkpt><trkpt lat="46.247158" lon="12.8864923"><ele>529.75</ele><time>2026-04-19T08:24:38.195Z</time></trkpt><trkpt lat="46.2471758" lon="12.886656"><ele>529.0</ele><time>2026-04-19T08:24:39.196Z</time></trkpt><trkpt lat="46.2471918" lon="12.8868195"><ele>529.0</ele><time>2026-04-19T08:24:40.196Z</time></trkpt><trkpt lat="46.2472104" lon="12.8869655"><ele>529.0</ele><time>2026-04-19T08:24:41.195Z</time></trkpt><trkpt lat="46.2472238" lon="12.8871041"><ele>529.0</ele><time>2026-04-19T08:24:42.196Z</time></trkpt><trkpt lat="46.2472281" lon="12.8872125"><ele>529.0</ele><time>2026-04-19T08:24:43.196Z</time></trkpt><trkpt lat="46.2471774" lon="12.8873648"><ele>529.0</ele><time>2026-04-19T08:24:45.196Z</time></trkpt><trkpt lat="46.2470392" lon="12.8874473"><ele>529.0</ele><time>2026-04-19T08:24:47.195Z</time></trkpt><trkpt lat="46.2469504" lon="12.8874769"><ele>529.0</ele><time>2026-04-19T08:24:48.196Z</time></trkpt><trkpt lat="46.2468456" lon="12.8875015"><ele>529.0</ele><time>2026-04-19T08:24:49.196Z</time></trkpt><trkpt lat="46.2467466" lon="12.8875032"><ele>529.0</ele><time>2026-04-19T08:24:50.196Z</time></trkpt><trkpt lat="46.2466462" lon="12.8874979"><ele>529.0</ele><time>2026-04-19T08:24:51.195Z</time></trkpt><trkpt lat="46.2465475" lon="12.8874962"><ele>528.8</ele><time>2026-04-19T08:24:52.197Z</time></trkpt><trkpt lat="46.2464517" lon="12.8875083"><ele>528.5999999999999</ele><time>2026-04-19T08:24:53.196Z</time></trkpt><trkpt lat="46.2463563" lon="12.8875504"><ele>528.4</ele><time>2026-04-19T08:24:54.195Z</time></trkpt><trkpt lat="46.2462564" lon="12.8876146"><ele>528.1999999999999</ele><time>2026-04-19T08:24:55.196Z</time></trkpt><trkpt lat="46.2461476" lon="12.8876675"><ele>528.0</ele><time>2026-04-19T08:24:56.195Z</time></trkpt><trkpt lat="46.246042" lon="12.8877309"><ele>528.0</ele><time>2026-04-19T08:24:57.194Z</time></trkpt><trkpt lat="46.2459576" lon="12.8877909"><ele>528.0</ele><time>2026-04-19T08:24:58.195Z</time></trkpt><trkpt lat="46.2458625" lon="12.8878555"><ele>528.0</ele><time>2026-04-19T08:24:59.195Z</time></trkpt><trkpt lat="46.2457675" lon="12.8879362"><ele>528.0</ele><time>2026-04-19T08:25:00.196Z</time></trkpt><trkpt lat="46.245709" lon="12.8880125"><ele>528.0</ele><time>2026-04-19T08:25:01.196Z</time></trkpt><trkpt lat="46.2456285" lon="12.8881101"><ele>528.4</ele><time>2026-04-19T08:25:02.196Z</time></trkpt><trkpt lat="46.2455613" lon="12.8881876"><ele>528.8</ele><time>2026-04-19T08:25:03.195Z</time></trkpt><trkpt lat="46.2455167" lon="12.8882943"><ele>529.2</ele><time>2026-04-19T08:25:04.196Z</time></trkpt><trkpt lat="46.245483" lon="12.8884484"><ele>529.6</ele><time>2026-04-19T08:25:05.195Z</time></trkpt><trkpt lat="46.245477" lon="12.8885804"><ele>530.0</ele><time>2026-04-19T08:25:06.195Z</time></trkpt><trkpt lat="46.2454715" lon="12.8887267"><ele>530.0</ele><time>2026-04-19T08:25:07.195Z</time></trkpt><trkpt lat="46.2454582" lon="12.8888702"><ele>530.0</ele><time>2026-04-19T08:25:08.195Z</time></trkpt><trkpt lat="46.2454506" lon="12.8890232"><ele>530.0</ele><time>2026-04-19T08:25:09.195Z</time></trkpt><trkpt lat="46.2454355" lon="12.8891786"><ele>530.0</ele><time>2026-04-19T08:25:10.196Z</time></trkpt><trkpt lat="46.2454225" lon="12.8893187"><ele>530.0</ele><time>2026-04-19T08:25:11.195Z</time></trkpt><trkpt lat="46.2454179" lon="12.8894416"><ele>530.2857142857142</ele><time>2026-04-19T08:25:12.196Z</time></trkpt><trkpt lat="46.2454005" lon="12.8895533"><ele>530.5714285714286</ele><time>2026-04-19T08:25:13.195Z</time></trkpt><trkpt lat="46.2453793" lon="12.8896413"><ele>530.8571428571429</ele><time>2026-04-19T08:25:14.194Z</time></trkpt><trkpt lat="46.2453326" lon="12.889708"><ele>531.1428571428571</ele><time>2026-04-19T08:25:15.195Z</time></trkpt><trkpt lat="46.2452823" lon="12.8897644"><ele>531.4285714285714</ele><time>2026-04-19T08:25:16.195Z</time></trkpt><trkpt lat="46.245201" lon="12.8897414"><ele>531.7142857142857</ele><time>2026-04-19T08:25:17.195Z</time></trkpt><trkpt lat="46.2451256" lon="12.8897434"><ele>532.0</ele><time>2026-04-19T08:25:18.196Z</time></trkpt><trkpt lat="46.2450535" lon="12.8897643"><ele>532.0</ele><time>2026-04-19T08:25:19.194Z</time></trkpt><trkpt lat="46.244905" lon="12.8898873"><ele>532.0</ele><time>2026-04-19T08:25:21.195Z</time></trkpt><trkpt lat="46.2448378" lon="12.889998"><ele>532.0</ele><time>2026-04-19T08:25:22.195Z</time></trkpt><trkpt lat="46.2447877" lon="12.8901097"><ele>532.0</ele><time>2026-04-19T08:25:23.194Z</time></trkpt><trkpt lat="46.2447541" lon="12.8902516"><ele>535.4</ele><time>2026-04-19T08:25:24.195Z</time></trkpt><trkpt lat="46.2447082" lon="12.8903496"><ele>538.8000000000001</ele><time>2026-04-19T08:25:25.194Z</time></trkpt><trkpt lat="46.2446569" lon="12.8904555"><ele>542.2</ele><time>2026-04-19T08:25:26.196Z</time></trkpt><trkpt lat="46.2446366" lon="12.8906109"><ele>545.6</ele><time>2026-04-19T08:25:27.195Z</time></trkpt><trkpt lat="46.244596" lon="12.8907371"><ele>549.0</ele><time>2026-04-19T08:25:28.195Z</time></trkpt><trkpt lat="46.2445594" lon="12.8908614"><ele>549.0</ele><time>2026-04-19T08:25:29.195Z</time></trkpt><trkpt lat="46.2445366" lon="12.8910028"><ele>549.0</ele><time>2026-04-19T08:25:30.194Z</time></trkpt><trkpt lat="46.2444411" lon="12.8911019"><ele>549.0</ele><time>2026-04-19T08:25:31.195Z</time></trkpt><trkpt lat="46.244367" lon="12.8911995"><ele>549.0</ele><time>2026-04-19T08:25:32.194Z</time></trkpt><trkpt lat="46.2442728" lon="12.891303"><ele>549.0</ele><time>2026-04-19T08:25:33.195Z</time></trkpt><trkpt lat="46.2441722" lon="12.8913157"><ele>549.0</ele><time>2026-04-19T08:25:34.195Z</time></trkpt><trkpt lat="46.2440848" lon="12.8913792"><ele>549.0</ele><time>2026-04-19T08:25:35.195Z</time></trkpt><trkpt lat="46.2439836" lon="12.8914491"><ele>549.0</ele><time>2026-04-19T08:25:36.196Z</time></trkpt><trkpt lat="46.2439019" lon="12.8915229"><ele>549.0</ele><time>2026-04-19T08:25:37.195Z</time></trkpt><trkpt lat="46.2438154" lon="12.8916221"><ele>549.0</ele><time>2026-04-19T08:25:38.195Z</time></trkpt><trkpt lat="46.2437304" lon="12.8917057"><ele>550.2</ele><time>2026-04-19T08:25:39.195Z</time></trkpt><trkpt lat="46.2436226" lon="12.8918125"><ele>551.4</ele><time>2026-04-19T08:25:41.195Z</time></trkpt><trkpt lat="46.2435639" lon="12.8918674"><ele>552.6</ele><time>2026-04-19T08:25:42.195Z</time></trkpt><trkpt lat="46.2434952" lon="12.8919192"><ele>553.8</ele><time>2026-04-19T08:25:43.195Z</time></trkpt><trkpt lat="46.2434021" lon="12.8918968"><ele>555.0</ele><time>2026-04-19T08:25:44.194Z</time></trkpt><trkpt lat="46.2433051" lon="12.8919127"><ele>555.0</ele><time>2026-04-19T08:25:45.195Z</time></trkpt><trkpt lat="46.2431971" lon="12.8919126"><ele>555.0</ele><time>2026-04-19T08:25:46.195Z</time></trkpt><trkpt lat="46.243089" lon="12.8919058"><ele>555.0</ele><time>2026-04-19T08:25:47.195Z</time></trkpt><trkpt lat="46.2429847" lon="12.8918941"><ele>555.0</ele><time>2026-04-19T08:25:48.195Z</time></trkpt><trkpt lat="46.2428824" lon="12.8918597"><ele>555.0</ele><time>2026-04-19T08:25:49.195Z</time></trkpt><trkpt lat="46.2427764" lon="12.891801"><ele>553.8</ele><time>2026-04-19T08:25:50.195Z</time></trkpt><trkpt lat="46.2426766" lon="12.8917213"><ele>552.6</ele><time>2026-04-19T08:25:51.195Z</time></trkpt><trkpt lat="46.2425773" lon="12.8916434"><ele>551.4</ele><time>2026-04-19T08:25:52.195Z</time></trkpt><trkpt lat="46.242477" lon="12.8915715"><ele>550.2</ele><time>2026-04-19T08:25:53.194Z</time></trkpt><trkpt lat="46.2423762" lon="12.8915231"><ele>549.0</ele><time>2026-04-19T08:25:54.195Z</time></trkpt><trkpt lat="46.2422699" lon="12.8914923"><ele>549.0</ele><time>2026-04-19T08:25:55.195Z</time></trkpt><trkpt lat="46.2421612" lon="12.8914944"><ele>549.0</ele><time>2026-04-19T08:25:56.195Z</time></trkpt><trkpt lat="46.2420571" lon="12.8915223"><ele>549.0</ele><time>2026-04-19T08:25:57.195Z</time></trkpt><trkpt lat="46.2419553" lon="12.8915735"><ele>549.0</ele><time>2026-04-19T08:25:58.195Z</time></trkpt><trkpt lat="46.2418527" lon="12.8916218"><ele>549.0</ele><time>2026-04-19T08:25:59.194Z</time></trkpt><trkpt lat="46.241752" lon="12.891651"><ele>549.0</ele><time>2026-04-19T08:26:00.195Z</time></trkpt><trkpt lat="46.2416502" lon="12.891664"><ele>549.0</ele><time>2026-04-19T08:26:01.194Z</time></trkpt><trkpt lat="46.2415556" lon="12.8916432"><ele>549.0</ele><time>2026-04-19T08:26:02.194Z</time></trkpt><trkpt lat="46.241462" lon="12.8916001"><ele>549.0</ele><time>2026-04-19T08:26:03.195Z</time></trkpt><trkpt lat="46.2413685" lon="12.8915563"><ele>549.0</ele><time>2026-04-19T08:26:04.196Z</time></trkpt><trkpt lat="46.2412729" lon="12.8915074"><ele>549.2</ele><time>2026-04-19T08:26:05.195Z</time></trkpt><trkpt lat="46.2411693" lon="12.8914675"><ele>549.4</ele><time>2026-04-19T08:26:06.196Z</time></trkpt><trkpt lat="46.2410629" lon="12.8914396"><ele>549.6</ele><time>2026-04-19T08:26:07.194Z</time></trkpt><trkpt lat="46.24096" lon="12.8914269"><ele>549.8</ele><time>2026-04-19T08:26:08.194Z</time></trkpt><trkpt lat="46.2408661" lon="12.8914283"><ele>550.0</ele><time>2026-04-19T08:26:09.195Z</time></trkpt><trkpt lat="46.240779" lon="12.8914587"><ele>550.0</ele><time>2026-04-19T08:26:10.195Z</time></trkpt><trkpt lat="46.2407021" lon="12.8915226"><ele>550.0</ele><time>2026-04-19T08:26:11.194Z</time></trkpt><trkpt lat="46.2406366" lon="12.8916185"><ele>550.0</ele><time>2026-04-19T08:26:12.194Z</time></trkpt><trkpt lat="46.2405867" lon="12.8917426"><ele>550.0</ele><time>2026-04-19T08:26:13.195Z</time></trkpt><trkpt lat="46.2405492" lon="12.8918798"><ele>550.0</ele><time>2026-04-19T08:26:14.195Z</time></trkpt><trkpt lat="46.2405077" lon="12.8920224"><ele>550.75</ele><time>2026-04-19T08:26:15.195Z</time></trkpt><trkpt lat="46.2404438" lon="12.8921487"><ele>551.5</ele><time>2026-04-19T08:26:16.195Z</time></trkpt><trkpt lat="46.2403653" lon="12.8922678"><ele>552.25</ele><time>2026-04-19T08:26:17.195Z</time></trkpt><trkpt lat="46.2402873" lon="12.8923829"><ele>553.0</ele><time>2026-04-19T08:26:18.194Z</time></trkpt><trkpt lat="46.2402005" lon="12.8925004"><ele>554.0</ele><time>2026-04-19T08:26:19.195Z</time></trkpt><trkpt lat="46.2401077" lon="12.8926029"><ele>555.0</ele><time>2026-04-19T08:26:20.194Z</time></trkpt><trkpt lat="46.2400002" lon="12.8926866"><ele>556.0</ele><time>2026-04-19T08:26:21.195Z</time></trkpt><trkpt lat="46.2398873" lon="12.8927606"><ele>557.0</ele><time>2026-04-19T08:26:22.195Z</time></trkpt><trkpt lat="46.2397795" lon="12.8928513"><ele>557.25</ele><time>2026-04-19T08:26:23.195Z</time></trkpt><trkpt lat="46.2396707" lon="12.8929526"><ele>557.5</ele><time>2026-04-19T08:26:24.194Z</time></trkpt><trkpt lat="46.2395689" lon="12.8930575"><ele>557.75</ele><time>2026-04-19T08:26:25.195Z</time></trkpt><trkpt lat="46.2394907" lon="12.8932039"><ele>558.0</ele><time>2026-04-19T08:26:26.196Z</time></trkpt><trkpt lat="46.2394199" lon="12.8933648"><ele>558.5</ele><time>2026-04-19T08:26:27.194Z</time></trkpt><trkpt lat="46.239368" lon="12.893535"><ele>559.0</ele><time>2026-04-19T08:26:28.195Z</time></trkpt><trkpt lat="46.2393158" lon="12.8937103"><ele>559.5</ele><time>2026-04-19T08:26:29.195Z</time></trkpt><trkpt lat="46.2392603" lon="12.89388"><ele>560.0</ele><time>2026-04-19T08:26:30.194Z</time></trkpt><trkpt lat="46.2392019" lon="12.8940508"><ele>560.0</ele><time>2026-04-19T08:26:31.195Z</time></trkpt><trkpt lat="46.23914" lon="12.8942018"><ele>560.0</ele><time>2026-04-19T08:26:32.195Z</time></trkpt><trkpt lat="46.2390631" lon="12.894349"><ele>560.0</ele><time>2026-04-19T08:26:33.195Z</time></trkpt><trkpt lat="46.2389697" lon="12.8944698"><ele>560.0</ele><time>2026-04-19T08:26:34.195Z</time></trkpt><trkpt lat="46.238871" lon="12.894577"><ele>561.25</ele><time>2026-04-19T08:26:35.195Z</time></trkpt><trkpt lat="46.2387648" lon="12.894679"><ele>562.5</ele><time>2026-04-19T08:26:36.195Z</time></trkpt><trkpt lat="46.2386581" lon="12.8947838"><ele>563.75</ele><time>2026-04-19T08:26:37.195Z</time></trkpt><trkpt lat="46.2385638" lon="12.8949056"><ele>565.0</ele><time>2026-04-19T08:26:38.194Z</time></trkpt><trkpt lat="46.2384809" lon="12.8950568"><ele>567.0</ele><time>2026-04-19T08:26:39.194Z</time></trkpt><trkpt lat="46.2384126" lon="12.8952267"><ele>569.0</ele><time>2026-04-19T08:26:40.195Z</time></trkpt><trkpt lat="46.2383423" lon="12.8953809"><ele>571.0</ele><time>2026-04-19T08:26:41.195Z</time></trkpt><trkpt lat="46.2382532" lon="12.8955137"><ele>573.0</ele><time>2026-04-19T08:26:42.194Z</time></trkpt><trkpt lat="46.2381572" lon="12.8956294"><ele>573.5</ele><time>2026-04-19T08:26:43.193Z</time></trkpt><trkpt lat="46.2380476" lon="12.8957346"><ele>574.0</ele><time>2026-04-19T08:26:44.196Z</time></trkpt><trkpt lat="46.2379314" lon="12.8958364"><ele>574.5</ele><time>2026-04-19T08:26:45.194Z</time></trkpt><trkpt lat="46.2378125" lon="12.8959442"><ele>575.0</ele><time>2026-04-19T08:26:46.195Z</time></trkpt><trkpt lat="46.2376898" lon="12.8960487"><ele>575.0</ele><time>2026-04-19T08:26:47.195Z</time></trkpt><trkpt lat="46.2375649" lon="12.8961578"><ele>575.0</ele><time>2026-04-19T08:26:48.196Z</time></trkpt><trkpt lat="46.2374399" lon="12.8962822"><ele>575.0</ele><time>2026-04-19T08:26:49.195Z</time></trkpt><trkpt lat="46.2373275" lon="12.8964245"><ele>575.0</ele><time>2026-04-19T08:26:50.196Z</time></trkpt><trkpt lat="46.2372131" lon="12.8965699"><ele>577.0</ele><time>2026-04-19T08:26:51.195Z</time></trkpt><trkpt lat="46.2371002" lon="12.8967135"><ele>579.0</ele><time>2026-04-19T08:26:52.194Z</time></trkpt><trkpt lat="46.2370039" lon="12.8968316"><ele>581.0</ele><time>2026-04-19T08:26:53.194Z</time></trkpt><trkpt lat="46.2369003" lon="12.8969275"><ele>583.0</ele><time>2026-04-19T08:26:54.194Z</time></trkpt><trkpt lat="46.2367808" lon="12.8969971"><ele>583.0</ele><time>2026-04-19T08:26:55.194Z</time></trkpt><trkpt lat="46.2366599" lon="12.8970481"><ele>583.0</ele><time>2026-04-19T08:26:56.195Z</time></trkpt><trkpt lat="46.2365519" lon="12.8971092"><ele>583.0</ele><time>2026-04-19T08:26:57.195Z</time></trkpt><trkpt lat="46.2364538" lon="12.8971961"><ele>583.0</ele><time>2026-04-19T08:26:58.195Z</time></trkpt><trkpt lat="46.2363706" lon="12.8973141"><ele>583.0</ele><time>2026-04-19T08:26:59.195Z</time></trkpt><trkpt lat="46.2362945" lon="12.8974409"><ele>583.0</ele><time>2026-04-19T08:27:00.196Z</time></trkpt><trkpt lat="46.2362248" lon="12.8975891"><ele>583.0</ele><time>2026-04-19T08:27:01.195Z</time></trkpt><trkpt lat="46.2361468" lon="12.8977161"><ele>583.0</ele><time>2026-04-19T08:27:02.196Z</time></trkpt><trkpt lat="46.2360544" lon="12.8978126"><ele>583.0</ele><time>2026-04-19T08:27:03.195Z</time></trkpt><trkpt lat="46.2359562" lon="12.8978889"><ele>583.0</ele><time>2026-04-19T08:27:04.194Z</time></trkpt><trkpt lat="46.2358601" lon="12.8979445"><ele>583.0</ele><time>2026-04-19T08:27:05.196Z</time></trkpt><trkpt lat="46.2357706" lon="12.8979943"><ele>583.0</ele><time>2026-04-19T08:27:06.195Z</time></trkpt><trkpt lat="46.2356907" lon="12.8980544"><ele>583.0</ele><time>2026-04-19T08:27:07.195Z</time></trkpt><trkpt lat="46.2356257" lon="12.898128"><ele>583.8</ele><time>2026-04-19T08:27:08.194Z</time></trkpt><trkpt lat="46.2355787" lon="12.8982616"><ele>584.5999999999999</ele><time>2026-04-19T08:27:09.195Z</time></trkpt><trkpt lat="46.2355349" lon="12.8983989"><ele>585.4000000000001</ele><time>2026-04-19T08:27:10.195Z</time></trkpt><trkpt lat="46.2354925" lon="12.8985475"><ele>586.2</ele><time>2026-04-19T08:27:11.195Z</time></trkpt><trkpt lat="46.2354522" lon="12.8987002"><ele>587.0</ele><time>2026-04-19T08:27:12.195Z</time></trkpt><trkpt lat="46.2354178" lon="12.8988641"><ele>588.25</ele><time>2026-04-19T08:27:13.194Z</time></trkpt><trkpt lat="46.2353883" lon="12.8990422"><ele>589.5</ele><time>2026-04-19T08:27:14.194Z</time></trkpt><trkpt lat="46.2353496" lon="12.8992289"><ele>590.75</ele><time>2026-04-19T08:27:15.195Z</time></trkpt><trkpt lat="46.235304" lon="12.8994197"><ele>592.0</ele><time>2026-04-19T08:27:16.195Z</time></trkpt><trkpt lat="46.235262" lon="12.8995852"><ele>593.6</ele><time>2026-04-19T08:27:17.194Z</time></trkpt><trkpt lat="46.2352043" lon="12.8997158"><ele>595.2</ele><time>2026-04-19T08:27:18.195Z</time></trkpt><trkpt lat="46.2351338" lon="12.8998361"><ele>596.8</ele><time>2026-04-19T08:27:19.195Z</time></trkpt><trkpt lat="46.2350401" lon="12.8999292"><ele>598.4</ele><time>2026-04-19T08:27:20.195Z</time></trkpt><trkpt lat="46.2349444" lon="12.900009"><ele>600.0</ele><time>2026-04-19T08:27:21.195Z</time></trkpt><trkpt lat="46.2348399" lon="12.9000808"><ele>598.5</ele><time>2026-04-19T08:27:22.195Z</time></trkpt><trkpt lat="46.2347334" lon="12.9001769"><ele>597.0</ele><time>2026-04-19T08:27:23.195Z</time></trkpt><trkpt lat="46.2346194" lon="12.9002876"><ele>595.5</ele><time>2026-04-19T08:27:24.196Z</time></trkpt><trkpt lat="46.2345045" lon="12.9004157"><ele>594.0</ele><time>2026-04-19T08:27:25.196Z</time></trkpt><trkpt lat="46.2344023" lon="12.9005341"><ele>594.0</ele><time>2026-04-19T08:27:26.195Z</time></trkpt><trkpt lat="46.2343127" lon="12.9006427"><ele>594.0</ele><time>2026-04-19T08:27:27.196Z</time></trkpt><trkpt lat="46.2342577" lon="12.9007734"><ele>594.0</ele><time>2026-04-19T08:27:28.195Z</time></trkpt><trkpt lat="46.23426" lon="12.9009084"><ele>594.0</ele><time>2026-04-19T08:27:29.195Z</time></trkpt><trkpt lat="46.2342617" lon="12.901062"><ele>594.0</ele><time>2026-04-19T08:27:30.194Z</time></trkpt><trkpt lat="46.2342948" lon="12.901218"><ele>594.2</ele><time>2026-04-19T08:27:31.195Z</time></trkpt><trkpt lat="46.2343251" lon="12.901373"><ele>594.4</ele><time>2026-04-19T08:27:32.195Z</time></trkpt><trkpt lat="46.234343" lon="12.9015292"><ele>594.6</ele><time>2026-04-19T08:27:33.194Z</time></trkpt><trkpt lat="46.2343528" lon="12.9016878"><ele>594.8</ele><time>2026-04-19T08:27:34.195Z</time></trkpt><trkpt lat="46.2343579" lon="12.9018432"><ele>595.0</ele><time>2026-04-19T08:27:35.195Z</time></trkpt><trkpt lat="46.2343462" lon="12.9019921"><ele>595.0</ele><time>2026-04-19T08:27:36.194Z</time></trkpt><trkpt lat="46.2342601" lon="12.9021464"><ele>595.0</ele><time>2026-04-19T08:27:37.195Z</time></trkpt><trkpt lat="46.2342434" lon="12.9023228"><ele>595.0</ele><time>2026-04-19T08:27:38.194Z</time></trkpt><trkpt lat="46.2342375" lon="12.9025091"><ele>595.0</ele><time>2026-04-19T08:27:39.196Z</time></trkpt><trkpt lat="46.2342495" lon="12.9027002"><ele>594.25</ele><time>2026-04-19T08:27:40.194Z</time></trkpt><trkpt lat="46.2342616" lon="12.9029049"><ele>593.5</ele><time>2026-04-19T08:27:41.195Z</time></trkpt><trkpt lat="46.2342745" lon="12.9031189"><ele>592.75</ele><time>2026-04-19T08:27:42.194Z</time></trkpt><trkpt lat="46.2342861" lon="12.9033383"><ele>592.0</ele><time>2026-04-19T08:27:43.194Z</time></trkpt><trkpt lat="46.2342971" lon="12.9035602"><ele>590.75</ele><time>2026-04-19T08:27:44.195Z</time></trkpt><trkpt lat="46.2342867" lon="12.9037689"><ele>589.5</ele><time>2026-04-19T08:27:45.196Z</time></trkpt><trkpt lat="46.2342764" lon="12.9039348"><ele>588.25</ele><time>2026-04-19T08:27:46.196Z</time></trkpt><trkpt lat="46.2342524" lon="12.9041225"><ele>587.0</ele><time>2026-04-19T08:27:47.194Z</time></trkpt><trkpt lat="46.2342245" lon="12.9043053"><ele>586.75</ele><time>2026-04-19T08:27:48.195Z</time></trkpt><trkpt lat="46.2341813" lon="12.9044848"><ele>586.5</ele><time>2026-04-19T08:27:49.195Z</time></trkpt><trkpt lat="46.2341358" lon="12.9046636"><ele>586.25</ele><time>2026-04-19T08:27:50.194Z</time></trkpt><trkpt lat="46.2340754" lon="12.9048299"><ele>586.0</ele><time>2026-04-19T08:27:51.195Z</time></trkpt><trkpt lat="46.2340001" lon="12.9049769"><ele>586.5</ele><time>2026-04-19T08:27:52.194Z</time></trkpt><trkpt lat="46.2339034" lon="12.9051061"><ele>587.0</ele><time>2026-04-19T08:27:53.195Z</time></trkpt><trkpt lat="46.2338081" lon="12.905216"><ele>587.5</ele><time>2026-04-19T08:27:54.195Z</time></trkpt><trkpt lat="46.2336966" lon="12.9053202"><ele>588.0</ele><time>2026-04-19T08:27:55.195Z</time></trkpt><trkpt lat="46.2335897" lon="12.9054277"><ele>588.0</ele><time>2026-04-19T08:27:56.195Z</time></trkpt><trkpt lat="46.2334909" lon="12.9055646"><ele>588.0</ele><time>2026-04-19T08:27:57.196Z</time></trkpt><trkpt lat="46.2334029" lon="12.905723"><ele>588.0</ele><time>2026-04-19T08:27:58.195Z</time></trkpt><trkpt lat="46.2333323" lon="12.9059008"><ele>588.0</ele><time>2026-04-19T08:27:59.195Z</time></trkpt><trkpt lat="46.2332584" lon="12.9060866"><ele>585.75</ele><time>2026-04-19T08:28:00.194Z</time></trkpt><trkpt lat="46.23317" lon="12.9062518"><ele>583.5</ele><time>2026-04-19T08:28:01.195Z</time></trkpt><trkpt lat="46.2330609" lon="12.9063835"><ele>581.25</ele><time>2026-04-19T08:28:02.195Z</time></trkpt><trkpt lat="46.2329647" lon="12.9065033"><ele>579.0</ele><time>2026-04-19T08:28:03.195Z</time></trkpt><trkpt lat="46.2328785" lon="12.9066308"><ele>580.25</ele><time>2026-04-19T08:28:04.195Z</time></trkpt><trkpt lat="46.2328249" lon="12.9067997"><ele>581.5</ele><time>2026-04-19T08:28:05.195Z</time></trkpt><trkpt lat="46.2327725" lon="12.9069794"><ele>582.75</ele><time>2026-04-19T08:28:06.195Z</time></trkpt><trkpt lat="46.232726" lon="12.9071704"><ele>584.0</ele><time>2026-04-19T08:28:07.195Z</time></trkpt><trkpt lat="46.2326565" lon="12.907338"><ele>584.0</ele><time>2026-04-19T08:28:08.194Z</time></trkpt><trkpt lat="46.2325835" lon="12.9074986"><ele>584.0</ele><time>2026-04-19T08:28:09.195Z</time></trkpt><trkpt lat="46.2325221" lon="12.9076405"><ele>584.0</ele><time>2026-04-19T08:28:10.195Z</time></trkpt><trkpt lat="46.2324774" lon="12.9077658"><ele>584.0</ele><time>2026-04-19T08:28:11.194Z</time></trkpt><trkpt lat="46.2324498" lon="12.907875"><ele>584.0</ele><time>2026-04-19T08:28:12.196Z</time></trkpt><trkpt lat="46.2324531" lon="12.9079704"><ele>583.4</ele><time>2026-04-19T08:28:13.195Z</time></trkpt><trkpt lat="46.232492" lon="12.9080543"><ele>582.8</ele><time>2026-04-19T08:28:14.195Z</time></trkpt><trkpt lat="46.2325581" lon="12.9081186"><ele>582.2</ele><time>2026-04-19T08:28:15.195Z</time></trkpt><trkpt lat="46.2326486" lon="12.9081797"><ele>581.6</ele><time>2026-04-19T08:28:16.195Z</time></trkpt><trkpt lat="46.2327479" lon="12.9082619"><ele>581.0</ele><time>2026-04-19T08:28:17.194Z</time></trkpt><trkpt lat="46.2328254" lon="12.9083695"><ele>577.5</ele><time>2026-04-19T08:28:18.195Z</time></trkpt><trkpt lat="46.2328879" lon="12.9085092"><ele>574.0</ele><time>2026-04-19T08:28:19.195Z</time></trkpt><trkpt lat="46.2329286" lon="12.9086706"><ele>570.5</ele><time>2026-04-19T08:28:20.195Z</time></trkpt><trkpt lat="46.2329676" lon="12.908833"><ele>567.0</ele><time>2026-04-19T08:28:21.195Z</time></trkpt><trkpt lat="46.2330287" lon="12.9089932"><ele>567.0</ele><time>2026-04-19T08:28:22.195Z</time></trkpt><trkpt lat="46.2331029" lon="12.9091586"><ele>567.0</ele><time>2026-04-19T08:28:23.194Z</time></trkpt><trkpt lat="46.2331774" lon="12.9093116"><ele>567.0</ele><time>2026-04-19T08:28:24.194Z</time></trkpt><trkpt lat="46.2332273" lon="12.9094797"><ele>567.0</ele><time>2026-04-19T08:28:25.195Z</time></trkpt><trkpt lat="46.2332675" lon="12.9096425"><ele>569.0</ele><time>2026-04-19T08:28:26.194Z</time></trkpt><trkpt lat="46.233315" lon="12.9097891"><ele>571.0</ele><time>2026-04-19T08:28:27.195Z</time></trkpt><trkpt lat="46.2333682" lon="12.9099298"><ele>573.0</ele><time>2026-04-19T08:28:28.194Z</time></trkpt><trkpt lat="46.2334353" lon="12.9100456"><ele>575.0</ele><time>2026-04-19T08:28:29.195Z</time></trkpt><trkpt lat="46.2334963" lon="12.9101637"><ele>577.0</ele><time>2026-04-19T08:28:30.195Z</time></trkpt><trkpt lat="46.2335494" lon="12.9102885"><ele>577.0</ele><time>2026-04-19T08:28:31.195Z</time></trkpt><trkpt lat="46.2335908" lon="12.9104163"><ele>577.0</ele><time>2026-04-19T08:28:32.195Z</time></trkpt><trkpt lat="46.2336157" lon="12.9105641"><ele>577.0</ele><time>2026-04-19T08:28:33.195Z</time></trkpt><trkpt lat="46.233637" lon="12.9107434"><ele>577.0</ele><time>2026-04-19T08:28:34.194Z</time></trkpt><trkpt lat="46.2336526" lon="12.9109394"><ele>578.25</ele><time>2026-04-19T08:28:35.195Z</time></trkpt><trkpt lat="46.2336643" lon="12.9111371"><ele>579.5</ele><time>2026-04-19T08:28:36.194Z</time></trkpt><trkpt lat="46.2336937" lon="12.9113262"><ele>580.75</ele><time>2026-04-19T08:28:37.195Z</time></trkpt><trkpt lat="46.2337186" lon="12.9115178"><ele>582.0</ele><time>2026-04-19T08:28:38.195Z</time></trkpt><trkpt lat="46.2337299" lon="12.9116966"><ele>584.4</ele><time>2026-04-19T08:28:39.195Z</time></trkpt><trkpt lat="46.2337161" lon="12.9118557"><ele>586.8000000000001</ele><time>2026-04-19T08:28:40.195Z</time></trkpt><trkpt lat="46.2336768" lon="12.9119892"><ele>589.2</ele><time>2026-04-19T08:28:41.195Z</time></trkpt><trkpt lat="46.2336071" lon="12.9121089"><ele>591.6</ele><time>2026-04-19T08:28:42.195Z</time></trkpt><trkpt lat="46.2335131" lon="12.9122166"><ele>594.0</ele><time>2026-04-19T08:28:43.194Z</time></trkpt><trkpt lat="46.2334049" lon="12.9123169"><ele>594.0</ele><time>2026-04-19T08:28:44.195Z</time></trkpt><trkpt lat="46.2332928" lon="12.9124233"><ele>594.0</ele><time>2026-04-19T08:28:45.194Z</time></trkpt><trkpt lat="46.2331764" lon="12.9125274"><ele>594.0</ele><time>2026-04-19T08:28:46.195Z</time></trkpt><trkpt lat="46.2330695" lon="12.9126264"><ele>594.0</ele><time>2026-04-19T08:28:47.196Z</time></trkpt><trkpt lat="46.2329722" lon="12.9127207"><ele>592.8</ele><time>2026-04-19T08:28:48.194Z</time></trkpt><trkpt lat="46.2329009" lon="12.912832"><ele>591.5999999999999</ele><time>2026-04-19T08:28:49.194Z</time></trkpt><trkpt lat="46.2328533" lon="12.9129828"><ele>590.4</ele><time>2026-04-19T08:28:50.194Z</time></trkpt><trkpt lat="46.2328151" lon="12.913136"><ele>589.1999999999999</ele><time>2026-04-19T08:28:51.195Z</time></trkpt><trkpt lat="46.2327648" lon="12.9132713"><ele>588.0</ele><time>2026-04-19T08:28:52.196Z</time></trkpt><trkpt lat="46.2326982" lon="12.9133761"><ele>591.0</ele><time>2026-04-19T08:28:53.195Z</time></trkpt><trkpt lat="46.2326105" lon="12.9134454"><ele>594.0</ele><time>2026-04-19T08:28:54.195Z</time></trkpt><trkpt lat="46.2325234" lon="12.9135091"><ele>597.0</ele><time>2026-04-19T08:28:55.194Z</time></trkpt><trkpt lat="46.232451" lon="12.9135945"><ele>600.0</ele><time>2026-04-19T08:28:56.196Z</time></trkpt><trkpt lat="46.2323912" lon="12.9136925"><ele>603.0</ele><time>2026-04-19T08:28:57.195Z</time></trkpt><trkpt lat="46.2323329" lon="12.9137946"><ele>603.0</ele><time>2026-04-19T08:28:58.195Z</time></trkpt><trkpt lat="46.2322835" lon="12.9138865"><ele>603.0</ele><time>2026-04-19T08:28:59.195Z</time></trkpt><trkpt lat="46.2322217" lon="12.9139929"><ele>603.0</ele><time>2026-04-19T08:29:01.194Z</time></trkpt><trkpt lat="46.2321933" lon="12.9141063"><ele>603.0</ele><time>2026-04-19T08:29:04.195Z</time></trkpt><trkpt lat="46.232268" lon="12.9141025"><ele>603.0</ele><time>2026-04-19T08:29:06.195Z</time></trkpt><trkpt lat="46.2323384" lon="12.9140693"><ele>603.0</ele><time>2026-04-19T08:29:07.195Z</time></trkpt><trkpt lat="46.2324129" lon="12.9140312"><ele>603.0</ele><time>2026-04-19T08:29:08.195Z</time></trkpt><trkpt lat="46.2324742" lon="12.9139669"><ele>603.0</ele><time>2026-04-19T08:29:09.194Z</time></trkpt><trkpt lat="46.2325229" lon="12.9138733"><ele>603.0</ele><time>2026-04-19T08:29:10.195Z</time></trkpt><trkpt lat="46.2325902" lon="12.9137984"><ele>603.0</ele><time>2026-04-19T08:29:11.196Z</time></trkpt><trkpt lat="46.2326637" lon="12.9137589"><ele>603.0</ele><time>2026-04-19T08:29:12.195Z</time></trkpt><trkpt lat="46.232753" lon="12.913733"><ele>603.0</ele><time>2026-04-19T08:29:13.195Z</time></trkpt><trkpt lat="46.2328449" lon="12.9137022"><ele>603.0</ele><time>2026-04-19T08:29:14.194Z</time></trkpt><trkpt lat="46.2329414" lon="12.9136598"><ele>603.0</ele><time>2026-04-19T08:29:15.195Z</time></trkpt><trkpt lat="46.2330387" lon="12.9136142"><ele>603.0</ele><time>2026-04-19T08:29:16.195Z</time></trkpt><trkpt lat="46.2331323" lon="12.9135845"><ele>603.0</ele><time>2026-04-19T08:29:17.195Z</time></trkpt><trkpt lat="46.2332279" lon="12.913561"><ele>603.0</ele><time>2026-04-19T08:29:18.195Z</time></trkpt><trkpt lat="46.233313" lon="12.9134685"><ele>603.6</ele><time>2026-04-19T08:29:19.195Z</time></trkpt><trkpt lat="46.2333912" lon="12.9133509"><ele>604.1999999999999</ele><time>2026-04-19T08:29:20.194Z</time></trkpt><trkpt lat="46.2334512" lon="12.9132334"><ele>604.8</ele><time>2026-04-19T08:29:21.195Z</time></trkpt><trkpt lat="46.2334936" lon="12.9131412"><ele>605.4</ele><time>2026-04-19T08:29:22.194Z</time></trkpt><trkpt lat="46.2335871" lon="12.9131067"><ele>606.0</ele><time>2026-04-19T08:29:24.194Z</time></trkpt><trkpt lat="46.2336366" lon="12.9131812"><ele>606.0</ele><time>2026-04-19T08:29:26.194Z</time></trkpt><trkpt lat="46.233559" lon="12.9133208"><ele>606.0</ele><time>2026-04-19T08:29:27.194Z</time></trkpt><trkpt lat="46.2334826" lon="12.9134272"><ele>606.0</ele><time>2026-04-19T08:29:28.193Z</time></trkpt><trkpt lat="46.2334184" lon="12.9135569"><ele>606.0</ele><time>2026-04-19T08:29:29.194Z</time></trkpt><trkpt lat="46.2333655" lon="12.9136999"><ele>605.4</ele><time>2026-04-19T08:29:30.194Z</time></trkpt><trkpt lat="46.2332936" lon="12.9138233"><ele>604.8</ele><time>2026-04-19T08:29:31.195Z</time></trkpt><trkpt lat="46.2332028" lon="12.9138982"><ele>604.1999999999999</ele><time>2026-04-19T08:29:32.194Z</time></trkpt><trkpt lat="46.233101" lon="12.9139426"><ele>603.6</ele><time>2026-04-19T08:29:33.195Z</time></trkpt><trkpt lat="46.2329963" lon="12.913995"><ele>603.0</ele><time>2026-04-19T08:29:34.194Z</time></trkpt><trkpt lat="46.2329012" lon="12.914059"><ele>603.0</ele><time>2026-04-19T08:29:35.193Z</time></trkpt><trkpt lat="46.232816" lon="12.9141332"><ele>603.0</ele><time>2026-04-19T08:29:36.194Z</time></trkpt><trkpt lat="46.2327488" lon="12.914208"><ele>603.0</ele><time>2026-04-19T08:29:37.194Z</time></trkpt><trkpt lat="46.2326995" lon="12.9142683"><ele>603.0</ele><time>2026-04-19T08:29:38.194Z</time></trkpt><trkpt lat="46.232663" lon="12.9143714"><ele>603.0</ele><time>2026-04-19T08:29:40.194Z</time></trkpt><trkpt lat="46.2327179" lon="12.9144396"><ele>603.0</ele><time>2026-04-19T08:29:42.194Z</time></trkpt><trkpt lat="46.2328214" lon="12.9143565"><ele>606.1999999999999</ele><time>2026-04-19T08:29:44.195Z</time></trkpt><trkpt lat="46.2328973" lon="12.9142936"><ele>609.4</ele><time>2026-04-19T08:29:45.193Z</time></trkpt><trkpt lat="46.2329669" lon="12.9142461"><ele>612.5999999999999</ele><time>2026-04-19T08:29:46.194Z</time></trkpt><trkpt lat="46.2330816" lon="12.9142454"><ele>615.8</ele><time>2026-04-19T08:29:47.194Z</time></trkpt><trkpt lat="46.2331806" lon="12.9142322"><ele>619.0</ele><time>2026-04-19T08:29:48.194Z</time></trkpt><trkpt lat="46.233282" lon="12.9142222"><ele>620.75</ele><time>2026-04-19T08:29:49.193Z</time></trkpt><trkpt lat="46.2333943" lon="12.9141865"><ele>622.5</ele><time>2026-04-19T08:29:50.193Z</time></trkpt><trkpt lat="46.2335067" lon="12.9141089"><ele>624.25</ele><time>2026-04-19T08:29:51.194Z</time></trkpt><trkpt lat="46.2336282" lon="12.9140334"><ele>626.0</ele><time>2026-04-19T08:29:52.195Z</time></trkpt><trkpt lat="46.2337457" lon="12.9139523"><ele>626.0</ele><time>2026-04-19T08:29:53.193Z</time></trkpt><trkpt lat="46.2338603" lon="12.9138749"><ele>626.0</ele><time>2026-04-19T08:29:54.194Z</time></trkpt><trkpt lat="46.2339679" lon="12.9137902"><ele>626.0</ele><time>2026-04-19T08:29:55.194Z</time></trkpt><trkpt lat="46.2340545" lon="12.9136673"><ele>626.0</ele><time>2026-04-19T08:29:56.194Z</time></trkpt><trkpt lat="46.2341464" lon="12.9135527"><ele>627.8</ele><time>2026-04-19T08:29:57.194Z</time></trkpt><trkpt lat="46.2342506" lon="12.9134744"><ele>629.6</ele><time>2026-04-19T08:29:58.193Z</time></trkpt><trkpt lat="46.2343592" lon="12.9134146"><ele>631.4</ele><time>2026-04-19T08:29:59.195Z</time></trkpt><trkpt lat="46.234452" lon="12.913352"><ele>633.2</ele><time>2026-04-19T08:30:00.194Z</time></trkpt><trkpt lat="46.2345272" lon="12.9132962"><ele>635.0</ele><time>2026-04-19T08:30:01.193Z</time></trkpt><trkpt lat="46.2345858" lon="12.913236"><ele>635.0</ele><time>2026-04-19T08:30:02.194Z</time></trkpt><trkpt lat="46.2345855" lon="12.9130874"><ele>635.0</ele><time>2026-04-19T08:30:03.194Z</time></trkpt><trkpt lat="46.234591" lon="12.9129716"><ele>635.0</ele><time>2026-04-19T08:30:04.194Z</time></trkpt><trkpt lat="46.234549" lon="12.9128284"><ele>635.0</ele><time>2026-04-19T08:30:05.194Z</time></trkpt><trkpt lat="46.2344388" lon="12.9127454"><ele>635.0</ele><time>2026-04-19T08:30:06.194Z</time></trkpt><trkpt lat="46.2344013" lon="12.9126385"><ele>633.8333333333333</ele><time>2026-04-19T08:30:07.194Z</time></trkpt><trkpt lat="46.2343689" lon="12.9125348"><ele>632.6666666666666</ele><time>2026-04-19T08:30:08.194Z</time></trkpt><trkpt lat="46.2343595" lon="12.9124404"><ele>631.5</ele><time>2026-04-19T08:30:09.193Z</time></trkpt><trkpt lat="46.2343826" lon="12.912334"><ele>630.3333333333334</ele><time>2026-04-19T08:30:10.195Z</time></trkpt><trkpt lat="46.2344319" lon="12.9122143"><ele>629.1666666666667</ele><time>2026-04-19T08:30:11.194Z</time></trkpt><trkpt lat="46.2344852" lon="12.9120999"><ele>628.0</ele><time>2026-04-19T08:30:12.195Z</time></trkpt><trkpt lat="46.2345355" lon="12.9119833"><ele>628.0</ele><time>2026-04-19T08:30:13.194Z</time></trkpt><trkpt lat="46.2345858" lon="12.9118817"><ele>628.0</ele><time>2026-04-19T08:30:14.194Z</time></trkpt><trkpt lat="46.2346463" lon="12.9117989"><ele>628.0</ele><time>2026-04-19T08:30:15.194Z</time></trkpt><trkpt lat="46.2347285" lon="12.9117614"><ele>628.0</ele><time>2026-04-19T08:30:16.193Z</time></trkpt><trkpt lat="46.2347921" lon="12.9117106"><ele>628.0</ele><time>2026-04-19T08:30:17.194Z</time></trkpt><trkpt lat="46.2348976" lon="12.9117175"><ele>628.0</ele><time>2026-04-19T08:30:18.195Z</time></trkpt><trkpt lat="46.2350211" lon="12.9116876"><ele>632.5999999999999</ele><time>2026-04-19T08:30:19.194Z</time></trkpt><trkpt lat="46.2351227" lon="12.9116088"><ele>637.1999999999999</ele><time>2026-04-19T08:30:20.193Z</time></trkpt><trkpt lat="46.235224" lon="12.9115328"><ele>641.8</ele><time>2026-04-19T08:30:21.193Z</time></trkpt><trkpt lat="46.2353067" lon="12.9114495"><ele>646.4</ele><time>2026-04-19T08:30:22.194Z</time></trkpt><trkpt lat="46.2353837" lon="12.911355"><ele>651.0</ele><time>2026-04-19T08:30:23.195Z</time></trkpt><trkpt lat="46.23536" lon="12.9112243"><ele>651.0</ele><time>2026-04-19T08:30:24.194Z</time></trkpt><trkpt lat="46.2353667" lon="12.9110946"><ele>651.0</ele><time>2026-04-19T08:30:25.193Z</time></trkpt><trkpt lat="46.2353053" lon="12.9109505"><ele>651.0</ele><time>2026-04-19T08:30:26.194Z</time></trkpt><trkpt lat="46.2352986" lon="12.9107918"><ele>651.0</ele><time>2026-04-19T08:30:27.194Z</time></trkpt><trkpt lat="46.2353055" lon="12.910634"><ele>651.0</ele><time>2026-04-19T08:30:28.193Z</time></trkpt><trkpt lat="46.2353049" lon="12.9104595"><ele>650.75</ele><time>2026-04-19T08:30:29.194Z</time></trkpt><trkpt lat="46.2353081" lon="12.9102872"><ele>650.5</ele><time>2026-04-19T08:30:30.194Z</time></trkpt><trkpt lat="46.2353181" lon="12.9101161"><ele>650.25</ele><time>2026-04-19T08:30:31.194Z</time></trkpt><trkpt lat="46.2353362" lon="12.9099572"><ele>650.0</ele><time>2026-04-19T08:30:32.195Z</time></trkpt><trkpt lat="46.235383" lon="12.9098062"><ele>650.4</ele><time>2026-04-19T08:30:33.194Z</time></trkpt><trkpt lat="46.2354352" lon="12.9096583"><ele>650.8</ele><time>2026-04-19T08:30:34.195Z</time></trkpt><trkpt lat="46.2354933" lon="12.9095146"><ele>651.2</ele><time>2026-04-19T08:30:35.193Z</time></trkpt><trkpt lat="46.2355465" lon="12.9093747"><ele>651.6</ele><time>2026-04-19T08:30:36.194Z</time></trkpt><trkpt lat="46.2356049" lon="12.9092554"><ele>652.0</ele><time>2026-04-19T08:30:37.194Z</time></trkpt><trkpt lat="46.2356881" lon="12.9091904"><ele>655.2</ele><time>2026-04-19T08:30:38.194Z</time></trkpt><trkpt lat="46.2357534" lon="12.9091325"><ele>658.4000000000001</ele><time>2026-04-19T08:30:39.194Z</time></trkpt><trkpt lat="46.2358294" lon="12.9090845"><ele>661.5999999999999</ele><time>2026-04-19T08:30:40.194Z</time></trkpt><trkpt lat="46.2359277" lon="12.9090936"><ele>664.8</ele><time>2026-04-19T08:30:41.194Z</time></trkpt><trkpt lat="46.2360485" lon="12.9091303"><ele>668.0</ele><time>2026-04-19T08:30:42.195Z</time></trkpt><trkpt lat="46.2361255" lon="12.9093216"><ele>670.5</ele><time>2026-04-19T08:30:43.193Z</time></trkpt><trkpt lat="46.2362291" lon="12.9094214"><ele>673.0</ele><time>2026-04-19T08:30:44.194Z</time></trkpt><trkpt lat="46.2363261" lon="12.9095233"><ele>675.5</ele><time>2026-04-19T08:30:45.194Z</time></trkpt><trkpt lat="46.2364362" lon="12.9096086"><ele>678.0</ele><time>2026-04-19T08:30:46.193Z</time></trkpt><trkpt lat="46.2365325" lon="12.909698"><ele>679.5999999999999</ele><time>2026-04-19T08:30:47.194Z</time></trkpt><trkpt lat="46.2366617" lon="12.9097364"><ele>681.1999999999999</ele><time>2026-04-19T08:30:48.194Z</time></trkpt><trkpt lat="46.2367452" lon="12.9097301"><ele>682.8</ele><time>2026-04-19T08:30:49.194Z</time></trkpt><trkpt lat="46.2368271" lon="12.9096996"><ele>684.4</ele><time>2026-04-19T08:30:50.194Z</time></trkpt><trkpt lat="46.2368798" lon="12.9096059"><ele>686.0</ele><time>2026-04-19T08:30:51.194Z</time></trkpt><trkpt lat="46.2369158" lon="12.9094598"><ele>683.0</ele><time>2026-04-19T08:30:52.194Z</time></trkpt><trkpt lat="46.2368917" lon="12.9092219"><ele>680.0</ele><time>2026-04-19T08:30:53.194Z</time></trkpt><trkpt lat="46.2368779" lon="12.9090802"><ele>677.0</ele><time>2026-04-19T08:30:54.193Z</time></trkpt><trkpt lat="46.2368612" lon="12.9089262"><ele>674.0</ele><time>2026-04-19T08:30:55.193Z</time></trkpt><trkpt lat="46.2368676" lon="12.9087565"><ele>674.0</ele><time>2026-04-19T08:30:56.194Z</time></trkpt><trkpt lat="46.2368959" lon="12.9085986"><ele>674.0</ele><time>2026-04-19T08:30:57.193Z</time></trkpt><trkpt lat="46.2369369" lon="12.9084403"><ele>674.0</ele><time>2026-04-19T08:30:58.194Z</time></trkpt><trkpt lat="46.2369888" lon="12.9082869"><ele>674.0</ele><time>2026-04-19T08:30:59.194Z</time></trkpt><trkpt lat="46.2370454" lon="12.9081475"><ele>671.75</ele><time>2026-04-19T08:31:00.194Z</time></trkpt><trkpt lat="46.2371153" lon="12.9080154"><ele>669.5</ele><time>2026-04-19T08:31:01.194Z</time></trkpt><trkpt lat="46.2372" lon="12.9078923"><ele>667.25</ele><time>2026-04-19T08:31:02.193Z</time></trkpt><trkpt lat="46.2372856" lon="12.9077745"><ele>665.0</ele><time>2026-04-19T08:31:03.193Z</time></trkpt><trkpt lat="46.2374168" lon="12.9077059"><ele>668.2</ele><time>2026-04-19T08:31:04.193Z</time></trkpt><trkpt lat="46.2375176" lon="12.9076259"><ele>671.4</ele><time>2026-04-19T08:31:05.193Z</time></trkpt><trkpt lat="46.2376217" lon="12.9075591"><ele>674.5999999999999</ele><time>2026-04-19T08:31:06.194Z</time></trkpt><trkpt lat="46.2377153" lon="12.9075129"><ele>677.8</ele><time>2026-04-19T08:31:07.194Z</time></trkpt><trkpt lat="46.2378163" lon="12.9075155"><ele>681.0</ele><time>2026-04-19T08:31:08.194Z</time></trkpt><trkpt lat="46.2379339" lon="12.907543"><ele>684.0</ele><time>2026-04-19T08:31:09.194Z</time></trkpt><trkpt lat="46.2380531" lon="12.9075834"><ele>687.0</ele><time>2026-04-19T08:31:10.194Z</time></trkpt><trkpt lat="46.2381744" lon="12.9076227"><ele>690.0</ele><time>2026-04-19T08:31:11.193Z</time></trkpt><trkpt lat="46.2382883" lon="12.9076824"><ele>693.0</ele><time>2026-04-19T08:31:12.194Z</time></trkpt><trkpt lat="46.2383851" lon="12.9077665"><ele>696.25</ele><time>2026-04-19T08:31:13.194Z</time></trkpt><trkpt lat="46.2384897" lon="12.9078359"><ele>699.5</ele><time>2026-04-19T08:31:14.193Z</time></trkpt><trkpt lat="46.2385979" lon="12.9078599"><ele>702.75</ele><time>2026-04-19T08:31:15.194Z</time></trkpt><trkpt lat="46.2387145" lon="12.9078333"><ele>706.0</ele><time>2026-04-19T08:31:16.194Z</time></trkpt><trkpt lat="46.2388175" lon="12.9077694"><ele>706.0</ele><time>2026-04-19T08:31:17.194Z</time></trkpt><trkpt lat="46.2389146" lon="12.9077409"><ele>706.0</ele><time>2026-04-19T08:31:18.193Z</time></trkpt><trkpt lat="46.2389968" lon="12.9077568"><ele>706.0</ele><time>2026-04-19T08:31:19.195Z</time></trkpt><trkpt lat="46.2390701" lon="12.9078156"><ele>706.0</ele><time>2026-04-19T08:31:20.194Z</time></trkpt><trkpt lat="46.2391391" lon="12.9078885"><ele>706.0</ele><time>2026-04-19T08:31:21.193Z</time></trkpt><trkpt lat="46.2392131" lon="12.9079442"><ele>706.0</ele><time>2026-04-19T08:31:22.194Z</time></trkpt><trkpt lat="46.2392951" lon="12.9079022"><ele>706.5999999999999</ele><time>2026-04-19T08:31:23.194Z</time></trkpt><trkpt lat="46.2393807" lon="12.9078984"><ele>707.2</ele><time>2026-04-19T08:31:24.193Z</time></trkpt><trkpt lat="46.2394663" lon="12.9078421"><ele>707.8</ele><time>2026-04-19T08:31:25.194Z</time></trkpt><trkpt lat="46.2395314" lon="12.9076861"><ele>708.4000000000001</ele><time>2026-04-19T08:31:26.194Z</time></trkpt><trkpt lat="46.2396296" lon="12.9076463"><ele>709.0</ele><time>2026-04-19T08:31:27.193Z</time></trkpt><trkpt lat="46.2397375" lon="12.9076337"><ele>709.5</ele><time>2026-04-19T08:31:28.194Z</time></trkpt><trkpt lat="46.2398598" lon="12.907645"><ele>710.0</ele><time>2026-04-19T08:31:29.195Z</time></trkpt><trkpt lat="46.2399874" lon="12.9076825"><ele>710.5</ele><time>2026-04-19T08:31:30.194Z</time></trkpt><trkpt lat="46.2401152" lon="12.907726"><ele>711.0</ele><time>2026-04-19T08:31:31.194Z</time></trkpt><trkpt lat="46.2402284" lon="12.9077785"><ele>711.0</ele><time>2026-04-19T08:31:32.194Z</time></trkpt><trkpt lat="46.2403329" lon="12.9078318"><ele>711.0</ele><time>2026-04-19T08:31:33.194Z</time></trkpt><trkpt lat="46.2404486" lon="12.9078477"><ele>711.0</ele><time>2026-04-19T08:31:34.194Z</time></trkpt><trkpt lat="46.2405584" lon="12.9078108"><ele>711.0</ele><time>2026-04-19T08:31:35.194Z</time></trkpt><trkpt lat="46.2406748" lon="12.907766"><ele>711.4</ele><time>2026-04-19T08:31:36.194Z</time></trkpt><trkpt lat="46.2407907" lon="12.9077244"><ele>711.8</ele><time>2026-04-19T08:31:37.194Z</time></trkpt><trkpt lat="46.2409007" lon="12.9076946"><ele>712.1999999999999</ele><time>2026-04-19T08:31:38.193Z</time></trkpt><trkpt lat="46.2410074" lon="12.9076833"><ele>712.5999999999999</ele><time>2026-04-19T08:31:39.194Z</time></trkpt><trkpt lat="46.2411055" lon="12.9077181"><ele>713.0</ele><time>2026-04-19T08:31:40.194Z</time></trkpt><trkpt lat="46.2411935" lon="12.9077859"><ele>713.0</ele><time>2026-04-19T08:31:41.194Z</time></trkpt><trkpt lat="46.2412777" lon="12.907876"><ele>713.0</ele><time>2026-04-19T08:31:42.194Z</time></trkpt><trkpt lat="46.2413715" lon="12.9079545"><ele>713.0</ele><time>2026-04-19T08:31:43.193Z</time></trkpt><trkpt lat="46.2414755" lon="12.908007"><ele>713.0</ele><time>2026-04-19T08:31:44.194Z</time></trkpt><trkpt lat="46.2415814" lon="12.9080382"><ele>713.0</ele><time>2026-04-19T08:31:45.194Z</time></trkpt><trkpt lat="46.2416847" lon="12.9080583"><ele>713.2</ele><time>2026-04-19T08:31:46.193Z</time></trkpt><trkpt lat="46.24179" lon="12.908041"><ele>713.4</ele><time>2026-04-19T08:31:47.194Z</time></trkpt><trkpt lat="46.2418921" lon="12.9079859"><ele>713.6</ele><time>2026-04-19T08:31:48.193Z</time></trkpt><trkpt lat="46.2419911" lon="12.9079227"><ele>713.8000000000001</ele><time>2026-04-19T08:31:49.194Z</time></trkpt><trkpt lat="46.2420914" lon="12.9078573"><ele>714.0</ele><time>2026-04-19T08:31:50.194Z</time></trkpt><trkpt lat="46.242188" lon="12.9077917"><ele>714.0</ele><time>2026-04-19T08:31:51.194Z</time></trkpt><trkpt lat="46.242277" lon="12.9077403"><ele>714.0</ele><time>2026-04-19T08:31:52.195Z</time></trkpt><trkpt lat="46.2423572" lon="12.907713"><ele>714.0</ele><time>2026-04-19T08:31:53.193Z</time></trkpt><trkpt lat="46.2424285" lon="12.9077258"><ele>714.0</ele><time>2026-04-19T08:31:54.195Z</time></trkpt><trkpt lat="46.2425051" lon="12.9077448"><ele>714.0</ele><time>2026-04-19T08:31:55.194Z</time></trkpt><trkpt lat="46.2425868" lon="12.907766"><ele>714.0</ele><time>2026-04-19T08:31:56.195Z</time></trkpt><trkpt lat="46.2426687" lon="12.9077994"><ele>715.8000000000001</ele><time>2026-04-19T08:31:57.194Z</time></trkpt><trkpt lat="46.2427577" lon="12.907859"><ele>717.6</ele><time>2026-04-19T08:31:58.194Z</time></trkpt><trkpt lat="46.2428537" lon="12.9079325"><ele>719.4</ele><time>2026-04-19T08:31:59.194Z</time></trkpt><trkpt lat="46.2429398" lon="12.9080341"><ele>721.2</ele><time>2026-04-19T08:32:00.194Z</time></trkpt><trkpt lat="46.2430341" lon="12.9081107"><ele>723.0</ele><time>2026-04-19T08:32:01.195Z</time></trkpt><trkpt lat="46.2431348" lon="12.9081758"><ele>723.0</ele><time>2026-04-19T08:32:02.194Z</time></trkpt><trkpt lat="46.24324" lon="12.9082107"><ele>723.0</ele><time>2026-04-19T08:32:03.193Z</time></trkpt><trkpt lat="46.2433495" lon="12.908177"><ele>723.0</ele><time>2026-04-19T08:32:04.194Z</time></trkpt><trkpt lat="46.2434624" lon="12.9081963"><ele>723.0</ele><time>2026-04-19T08:32:05.194Z</time></trkpt><trkpt lat="46.2435832" lon="12.9082094"><ele>723.0</ele><time>2026-04-19T08:32:06.194Z</time></trkpt><trkpt lat="46.2437078" lon="12.9082084"><ele>723.0</ele><time>2026-04-19T08:32:07.194Z</time></trkpt><trkpt lat="46.2438286" lon="12.9081775"><ele>723.0</ele><time>2026-04-19T08:32:08.193Z</time></trkpt><trkpt lat="46.2439384" lon="12.9081674"><ele>723.0</ele><time>2026-04-19T08:32:09.195Z</time></trkpt><trkpt lat="46.2440266" lon="12.9081723"><ele>723.0</ele><time>2026-04-19T08:32:10.193Z</time></trkpt><trkpt lat="46.244105" lon="12.9081591"><ele>722.3333333333334</ele><time>2026-04-19T08:32:11.194Z</time></trkpt><trkpt lat="46.2441801" lon="12.9081247"><ele>721.6666666666666</ele><time>2026-04-19T08:32:12.193Z</time></trkpt><trkpt lat="46.2442427" lon="12.9080686"><ele>721.0</ele><time>2026-04-19T08:32:13.193Z</time></trkpt><trkpt lat="46.2443007" lon="12.9079928"><ele>720.3333333333333</ele><time>2026-04-19T08:32:14.195Z</time></trkpt><trkpt lat="46.2443538" lon="12.9078955"><ele>719.6666666666666</ele><time>2026-04-19T08:32:15.193Z</time></trkpt><trkpt lat="46.244408" lon="12.9077862"><ele>719.0</ele><time>2026-04-19T08:32:16.194Z</time></trkpt><trkpt lat="46.2444629" lon="12.9076881"><ele>719.0</ele><time>2026-04-19T08:32:17.195Z</time></trkpt><trkpt lat="46.2445268" lon="12.9075848"><ele>719.0</ele><time>2026-04-19T08:32:18.193Z</time></trkpt><trkpt lat="46.2445943" lon="12.9074824"><ele>719.0</ele><time>2026-04-19T08:32:19.194Z</time></trkpt><trkpt lat="46.2446649" lon="12.9073787"><ele>719.0</ele><time>2026-04-19T08:32:20.193Z</time></trkpt><trkpt lat="46.244738" lon="12.9072727"><ele>719.0</ele><time>2026-04-19T08:32:21.194Z</time></trkpt><trkpt lat="46.2448171" lon="12.9071762"><ele>716.2</ele><time>2026-04-19T08:32:22.194Z</time></trkpt><trkpt lat="46.2449028" lon="12.9070815"><ele>713.4000000000001</ele><time>2026-04-19T08:32:23.193Z</time></trkpt><trkpt lat="46.2449888" lon="12.9069863"><ele>710.6</ele><time>2026-04-19T08:32:24.193Z</time></trkpt><trkpt lat="46.2450714" lon="12.9068952"><ele>707.8</ele><time>2026-04-19T08:32:25.195Z</time></trkpt><trkpt lat="46.2451553" lon="12.9068039"><ele>705.0</ele><time>2026-04-19T08:32:26.194Z</time></trkpt><trkpt lat="46.2452404" lon="12.9067255"><ele>703.6</ele><time>2026-04-19T08:32:27.195Z</time></trkpt><trkpt lat="46.245328" lon="12.9066655"><ele>702.2</ele><time>2026-04-19T08:32:28.193Z</time></trkpt><trkpt lat="46.2454197" lon="12.906635"><ele>700.8</ele><time>2026-04-19T08:32:29.193Z</time></trkpt><trkpt lat="46.2455094" lon="12.906616"><ele>699.4</ele><time>2026-04-19T08:32:30.193Z</time></trkpt><trkpt lat="46.2455998" lon="12.9065808"><ele>698.0</ele><time>2026-04-19T08:32:31.194Z</time></trkpt><trkpt lat="46.2456943" lon="12.9065283"><ele>698.0</ele><time>2026-04-19T08:32:32.194Z</time></trkpt><trkpt lat="46.245791" lon="12.9064605"><ele>698.0</ele><time>2026-04-19T08:32:33.195Z</time></trkpt><trkpt lat="46.2458817" lon="12.9063759"><ele>698.0</ele><time>2026-04-19T08:32:34.194Z</time></trkpt><trkpt lat="46.2459805" lon="12.9062894"><ele>698.0</ele><time>2026-04-19T08:32:35.194Z</time></trkpt><trkpt lat="46.2460781" lon="12.9062116"><ele>698.0</ele><time>2026-04-19T08:32:36.194Z</time></trkpt><trkpt lat="46.2461868" lon="12.9061316"><ele>698.0</ele><time>2026-04-19T08:32:37.193Z</time></trkpt><trkpt lat="46.246295" lon="12.9060445"><ele>698.0</ele><time>2026-04-19T08:32:38.194Z</time></trkpt><trkpt lat="46.2463955" lon="12.9059477"><ele>698.0</ele><time>2026-04-19T08:32:39.193Z</time></trkpt><trkpt lat="46.246481" lon="12.9058477"><ele>698.0</ele><time>2026-04-19T08:32:40.194Z</time></trkpt><trkpt lat="46.2465652" lon="12.905745"><ele>696.8</ele><time>2026-04-19T08:32:41.193Z</time></trkpt><trkpt lat="46.2466324" lon="12.905651"><ele>695.5999999999999</ele><time>2026-04-19T08:32:42.194Z</time></trkpt><trkpt lat="46.2467123" lon="12.9055482"><ele>694.4000000000001</ele><time>2026-04-19T08:32:44.194Z</time></trkpt><trkpt lat="46.2468135" lon="12.9054774"><ele>693.2</ele><time>2026-04-19T08:32:46.194Z</time></trkpt><trkpt lat="46.2468769" lon="12.9054581"><ele>692.0</ele><time>2026-04-19T08:32:47.194Z</time></trkpt><trkpt lat="46.2469668" lon="12.9054666"><ele>692.0</ele><time>2026-04-19T08:32:48.194Z</time></trkpt><trkpt lat="46.247052" lon="12.9054777"><ele>692.0</ele><time>2026-04-19T08:32:49.193Z</time></trkpt><trkpt lat="46.247148" lon="12.9055071"><ele>692.0</ele><time>2026-04-19T08:32:50.194Z</time></trkpt><trkpt lat="46.2472465" lon="12.905533"><ele>692.0</ele><time>2026-04-19T08:32:51.194Z</time></trkpt><trkpt lat="46.2473563" lon="12.905587"><ele>692.0</ele><time>2026-04-19T08:32:52.194Z</time></trkpt><trkpt lat="46.247465" lon="12.9056488"><ele>690.75</ele><time>2026-04-19T08:32:53.193Z</time></trkpt><trkpt lat="46.2475773" lon="12.9057448"><ele>689.5</ele><time>2026-04-19T08:32:54.194Z</time></trkpt><trkpt lat="46.2476997" lon="12.9058106"><ele>688.25</ele><time>2026-04-19T08:32:55.194Z</time></trkpt><trkpt lat="46.247825" lon="12.9058433"><ele>687.0</ele><time>2026-04-19T08:32:56.194Z</time></trkpt><trkpt lat="46.2479604" lon="12.9058439"><ele>687.0</ele><time>2026-04-19T08:32:57.193Z</time></trkpt><trkpt lat="46.2480907" lon="12.9058193"><ele>687.0</ele><time>2026-04-19T08:32:58.193Z</time></trkpt><trkpt lat="46.248217" lon="12.905804"><ele>687.0</ele><time>2026-04-19T08:32:59.193Z</time></trkpt><trkpt lat="46.2483377" lon="12.9058107"><ele>687.0</ele><time>2026-04-19T08:33:00.193Z</time></trkpt><trkpt lat="46.2484629" lon="12.9058385"><ele>687.75</ele><time>2026-04-19T08:33:01.194Z</time></trkpt><trkpt lat="46.2485915" lon="12.9058845"><ele>688.5</ele><time>2026-04-19T08:33:02.195Z</time></trkpt><trkpt lat="46.2487217" lon="12.9059374"><ele>689.25</ele><time>2026-04-19T08:33:03.194Z</time></trkpt><trkpt lat="46.2488505" lon="12.9059902"><ele>690.0</ele><time>2026-04-19T08:33:04.194Z</time></trkpt><trkpt lat="46.2489743" lon="12.9060476"><ele>690.0</ele><time>2026-04-19T08:33:05.194Z</time></trkpt><trkpt lat="46.2490824" lon="12.9061226"><ele>690.0</ele><time>2026-04-19T08:33:06.194Z</time></trkpt><trkpt lat="46.2491669" lon="12.906228"><ele>690.0</ele><time>2026-04-19T08:33:07.194Z</time></trkpt><trkpt lat="46.2492296" lon="12.9063505"><ele>690.0</ele><time>2026-04-19T08:33:08.194Z</time></trkpt><trkpt lat="46.2492784" lon="12.9064871"><ele>690.0</ele><time>2026-04-19T08:33:09.194Z</time></trkpt><trkpt lat="46.2493275" lon="12.9066277"><ele>697.75</ele><time>2026-04-19T08:33:10.194Z</time></trkpt><trkpt lat="46.2493993" lon="12.9067524"><ele>705.5</ele><time>2026-04-19T08:33:11.194Z</time></trkpt><trkpt lat="46.2494926" lon="12.9068632"><ele>713.25</ele><time>2026-04-19T08:33:12.194Z</time></trkpt><trkpt lat="46.2495896" lon="12.9069549"><ele>721.0</ele><time>2026-04-19T08:33:13.193Z</time></trkpt><trkpt lat="46.249694" lon="12.9070336"><ele>718.0</ele><time>2026-04-19T08:33:14.194Z</time></trkpt><trkpt lat="46.249803" lon="12.9070778"><ele>715.0</ele><time>2026-04-19T08:33:15.193Z</time></trkpt><trkpt lat="46.2499074" lon="12.9071038"><ele>712.0</ele><time>2026-04-19T08:33:16.194Z</time></trkpt><trkpt lat="46.2499985" lon="12.9071359"><ele>709.0</ele><time>2026-04-19T08:33:17.194Z</time></trkpt><trkpt lat="46.2500761" lon="12.9072036"><ele>706.0</ele><time>2026-04-19T08:33:18.192Z</time></trkpt><trkpt lat="46.2501474" lon="12.9072831"><ele>706.0</ele><time>2026-04-19T08:33:19.192Z</time></trkpt><trkpt lat="46.2502094" lon="12.9073949"><ele>706.0</ele><time>2026-04-19T08:33:20.193Z</time></trkpt><trkpt lat="46.2502759" lon="12.9075192"><ele>706.0</ele><time>2026-04-19T08:33:21.192Z</time></trkpt><trkpt lat="46.2503415" lon="12.9076467"><ele>706.0</ele><time>2026-04-19T08:33:22.193Z</time></trkpt><trkpt lat="46.2504181" lon="12.9077522"><ele>706.0</ele><time>2026-04-19T08:33:23.193Z</time></trkpt><trkpt lat="46.2505139" lon="12.9078228"><ele>704.8</ele><time>2026-04-19T08:33:24.193Z</time></trkpt><trkpt lat="46.2505975" lon="12.9079004"><ele>703.5999999999999</ele><time>2026-04-19T08:33:25.193Z</time></trkpt><trkpt lat="46.2506742" lon="12.9079772"><ele>702.4</ele><time>2026-04-19T08:33:26.192Z</time></trkpt><trkpt lat="46.2507452" lon="12.908071"><ele>701.2</ele><time>2026-04-19T08:33:27.193Z</time></trkpt><trkpt lat="46.250818" lon="12.9081717"><ele>700.0</ele><time>2026-04-19T08:33:28.193Z</time></trkpt><trkpt lat="46.2509047" lon="12.9082423"><ele>700.0</ele><time>2026-04-19T08:33:29.193Z</time></trkpt><trkpt lat="46.2510041" lon="12.9082609"><ele>700.0</ele><time>2026-04-19T08:33:30.192Z</time></trkpt><trkpt lat="46.2510895" lon="12.9082871"><ele>700.0</ele><time>2026-04-19T08:33:31.193Z</time></trkpt><trkpt lat="46.2511612" lon="12.9083283"><ele>700.0</ele><time>2026-04-19T08:33:32.193Z</time></trkpt><trkpt lat="46.2512376" lon="12.9083729"><ele>700.0</ele><time>2026-04-19T08:33:33.193Z</time></trkpt><trkpt lat="46.2512749" lon="12.9084517"><ele>700.0</ele><time>2026-04-19T08:33:34.193Z</time></trkpt><trkpt lat="46.2513331" lon="12.908518"><ele>701.5</ele><time>2026-04-19T08:33:35.192Z</time></trkpt><trkpt lat="46.2514066" lon="12.908552"><ele>703.0</ele><time>2026-04-19T08:33:36.193Z</time></trkpt><trkpt lat="46.2514963" lon="12.9085577"><ele>704.5</ele><time>2026-04-19T08:33:37.193Z</time></trkpt><trkpt lat="46.2515815" lon="12.9085699"><ele>706.0</ele><time>2026-04-19T08:33:38.193Z</time></trkpt><trkpt lat="46.251671" lon="12.9086063"><ele>707.5</ele><time>2026-04-19T08:33:39.193Z</time></trkpt><trkpt lat="46.2517557" lon="12.9086422"><ele>709.0</ele><time>2026-04-19T08:33:40.193Z</time></trkpt><trkpt lat="46.251837" lon="12.9086408"><ele>709.0</ele><time>2026-04-19T08:33:41.194Z</time></trkpt><trkpt lat="46.2519124" lon="12.908586"><ele>709.0</ele><time>2026-04-19T08:33:42.192Z</time></trkpt><trkpt lat="46.2519775" lon="12.908508"><ele>709.0</ele><time>2026-04-19T08:33:43.193Z</time></trkpt><trkpt lat="46.2520355" lon="12.9084258"><ele>709.0</ele><time>2026-04-19T08:33:44.193Z</time></trkpt><trkpt lat="46.2520916" lon="12.9083402"><ele>709.0</ele><time>2026-04-19T08:33:45.193Z</time></trkpt><trkpt lat="46.2521463" lon="12.9082468"><ele>709.0</ele><time>2026-04-19T08:33:46.193Z</time></trkpt><trkpt lat="46.2521962" lon="12.9081516"><ele>708.5</ele><time>2026-04-19T08:33:47.193Z</time></trkpt><trkpt lat="46.2522448" lon="12.9080584"><ele>708.0</ele><time>2026-04-19T08:33:48.193Z</time></trkpt><trkpt lat="46.2522977" lon="12.907968"><ele>707.5</ele><time>2026-04-19T08:33:49.194Z</time></trkpt><trkpt lat="46.2523479" lon="12.907886"><ele>707.0</ele><time>2026-04-19T08:33:50.194Z</time></trkpt><trkpt lat="46.2524064" lon="12.9078078"><ele>706.5</ele><time>2026-04-19T08:33:51.192Z</time></trkpt><trkpt lat="46.2524803" lon="12.9077458"><ele>706.0</ele><time>2026-04-19T08:33:52.193Z</time></trkpt><trkpt lat="46.2525677" lon="12.9077073"><ele>706.0</ele><time>2026-04-19T08:33:53.193Z</time></trkpt><trkpt lat="46.2526659" lon="12.9076709"><ele>706.0</ele><time>2026-04-19T08:33:54.193Z</time></trkpt><trkpt lat="46.2527568" lon="12.9075995"><ele>706.0</ele><time>2026-04-19T08:33:55.194Z</time></trkpt><trkpt lat="46.2528359" lon="12.9075009"><ele>706.0</ele><time>2026-04-19T08:33:56.193Z</time></trkpt><trkpt lat="46.2529101" lon="12.9073823"><ele>706.0</ele><time>2026-04-19T08:33:57.193Z</time></trkpt><trkpt lat="46.2529847" lon="12.9072564"><ele>706.4</ele><time>2026-04-19T08:33:58.193Z</time></trkpt><trkpt lat="46.2530532" lon="12.9071251"><ele>706.8</ele><time>2026-04-19T08:33:59.193Z</time></trkpt><trkpt lat="46.2531106" lon="12.9069918"><ele>707.1999999999999</ele><time>2026-04-19T08:34:00.192Z</time></trkpt><trkpt lat="46.2531541" lon="12.9068494"><ele>707.5999999999999</ele><time>2026-04-19T08:34:01.193Z</time></trkpt><trkpt lat="46.2531936" lon="12.9067048"><ele>708.0</ele><time>2026-04-19T08:34:02.193Z</time></trkpt><trkpt lat="46.2532379" lon="12.9065654"><ele>705.4</ele><time>2026-04-19T08:34:03.193Z</time></trkpt><trkpt lat="46.2532873" lon="12.9064269"><ele>702.8</ele><time>2026-04-19T08:34:04.193Z</time></trkpt><trkpt lat="46.2533373" lon="12.9063042"><ele>700.2</ele><time>2026-04-19T08:34:05.192Z</time></trkpt><trkpt lat="46.253381" lon="12.9061825"><ele>697.6</ele><time>2026-04-19T08:34:06.193Z</time></trkpt><trkpt lat="46.2534242" lon="12.9060633"><ele>695.0</ele><time>2026-04-19T08:34:07.193Z</time></trkpt><trkpt lat="46.2534685" lon="12.9059491"><ele>694.2</ele><time>2026-04-19T08:34:08.193Z</time></trkpt><trkpt lat="46.2535123" lon="12.9058339"><ele>693.4</ele><time>2026-04-19T08:34:09.194Z</time></trkpt><trkpt lat="46.2535565" lon="12.9057187"><ele>692.5999999999999</ele><time>2026-04-19T08:34:10.193Z</time></trkpt><trkpt lat="46.2536028" lon="12.9056049"><ele>691.8</ele><time>2026-04-19T08:34:11.194Z</time></trkpt><trkpt lat="46.2536617" lon="12.9055048"><ele>691.0</ele><time>2026-04-19T08:34:12.193Z</time></trkpt><trkpt lat="46.2537375" lon="12.9054183"><ele>691.0</ele><time>2026-04-19T08:34:13.193Z</time></trkpt><trkpt lat="46.2538236" lon="12.9053514"><ele>691.0</ele><time>2026-04-19T08:34:14.193Z</time></trkpt><trkpt lat="46.2539161" lon="12.9052855"><ele>691.0</ele><time>2026-04-19T08:34:15.192Z</time></trkpt><trkpt lat="46.2540155" lon="12.9052122"><ele>691.0</ele><time>2026-04-19T08:34:16.192Z</time></trkpt><trkpt lat="46.254119" lon="12.90514"><ele>691.0</ele><time>2026-04-19T08:34:17.193Z</time></trkpt><trkpt lat="46.2542273" lon="12.9050705"><ele>693.25</ele><time>2026-04-19T08:34:18.193Z</time></trkpt><trkpt lat="46.2543414" lon="12.9050181"><ele>695.5</ele><time>2026-04-19T08:34:19.194Z</time></trkpt><trkpt lat="46.2544538" lon="12.9049851"><ele>697.75</ele><time>2026-04-19T08:34:20.193Z</time></trkpt><trkpt lat="46.2545664" lon="12.9049598"><ele>700.0</ele><time>2026-04-19T08:34:21.192Z</time></trkpt><trkpt lat="46.2546748" lon="12.9049348"><ele>700.0</ele><time>2026-04-19T08:34:22.193Z</time></trkpt><trkpt lat="46.2547739" lon="12.9049041"><ele>700.0</ele><time>2026-04-19T08:34:23.192Z</time></trkpt><trkpt lat="46.2548699" lon="12.9048586"><ele>700.0</ele><time>2026-04-19T08:34:24.192Z</time></trkpt><trkpt lat="46.2549584" lon="12.9047882"><ele>700.0</ele><time>2026-04-19T08:34:25.193Z</time></trkpt><trkpt lat="46.2550248" lon="12.9046287"><ele>700.0</ele><time>2026-04-19T08:34:26.193Z</time></trkpt><trkpt lat="46.2551066" lon="12.9045142"><ele>698.8</ele><time>2026-04-19T08:34:27.193Z</time></trkpt><trkpt lat="46.2552035" lon="12.9044417"><ele>697.6</ele><time>2026-04-19T08:34:28.193Z</time></trkpt><trkpt lat="46.2553091" lon="12.9044074"><ele>696.4000000000001</ele><time>2026-04-19T08:34:29.193Z</time></trkpt><trkpt lat="46.2554121" lon="12.9043915"><ele>695.2</ele><time>2026-04-19T08:34:30.194Z</time></trkpt><trkpt lat="46.2555123" lon="12.9043754"><ele>694.0</ele><time>2026-04-19T08:34:31.193Z</time></trkpt><trkpt lat="46.2556142" lon="12.9043673"><ele>693.0</ele><time>2026-04-19T08:34:32.193Z</time></trkpt><trkpt lat="46.2557058" lon="12.9043425"><ele>692.0</ele><time>2026-04-19T08:34:33.192Z</time></trkpt><trkpt lat="46.2557917" lon="12.9043003"><ele>691.0</ele><time>2026-04-19T08:34:34.193Z</time></trkpt><trkpt lat="46.2558668" lon="12.9042333"><ele>690.0</ele><time>2026-04-19T08:34:35.192Z</time></trkpt><trkpt lat="46.2559282" lon="12.9041257"><ele>689.0</ele><time>2026-04-19T08:34:36.193Z</time></trkpt><trkpt lat="46.2560063" lon="12.9040539"><ele>689.0</ele><time>2026-04-19T08:34:37.193Z</time></trkpt><trkpt lat="46.2560875" lon="12.9039778"><ele>689.0</ele><time>2026-04-19T08:34:38.192Z</time></trkpt><trkpt lat="46.2561846" lon="12.9038929"><ele>689.0</ele><time>2026-04-19T08:34:39.192Z</time></trkpt><trkpt lat="46.256288" lon="12.9038176"><ele>689.0</ele><time>2026-04-19T08:34:40.194Z</time></trkpt><trkpt lat="46.2563871" lon="12.9037411"><ele>689.0</ele><time>2026-04-19T08:34:41.193Z</time></trkpt><trkpt lat="46.2564926" lon="12.9036521"><ele>685.25</ele><time>2026-04-19T08:34:42.192Z</time></trkpt><trkpt lat="46.2566018" lon="12.9035556"><ele>681.5</ele><time>2026-04-19T08:34:43.193Z</time></trkpt><trkpt lat="46.2567139" lon="12.9034623"><ele>677.75</ele><time>2026-04-19T08:34:44.192Z</time></trkpt><trkpt lat="46.2568259" lon="12.9033629"><ele>674.0</ele><time>2026-04-19T08:34:45.193Z</time></trkpt><trkpt lat="46.2569306" lon="12.9032524"><ele>674.0</ele><time>2026-04-19T08:34:46.193Z</time></trkpt><trkpt lat="46.2570318" lon="12.9031439"><ele>674.0</ele><time>2026-04-19T08:34:47.193Z</time></trkpt><trkpt lat="46.2571307" lon="12.9030412"><ele>674.0</ele><time>2026-04-19T08:34:48.193Z</time></trkpt><trkpt lat="46.2572152" lon="12.9029424"><ele>674.0</ele><time>2026-04-19T08:34:49.194Z</time></trkpt><trkpt lat="46.257281" lon="12.9028358"><ele>674.1666666666666</ele><time>2026-04-19T08:34:50.193Z</time></trkpt><trkpt lat="46.2573183" lon="12.9027108"><ele>674.3333333333333</ele><time>2026-04-19T08:34:51.193Z</time></trkpt><trkpt lat="46.2573417" lon="12.9026083"><ele>674.5</ele><time>2026-04-19T08:34:52.193Z</time></trkpt><trkpt lat="46.2573004" lon="12.902491"><ele>674.6666666666666</ele><time>2026-04-19T08:34:53.193Z</time></trkpt><trkpt lat="46.2572597" lon="12.9023942"><ele>674.8333333333334</ele><time>2026-04-19T08:34:54.193Z</time></trkpt><trkpt lat="46.257211" lon="12.9022973"><ele>675.0</ele><time>2026-04-19T08:34:55.193Z</time></trkpt><trkpt lat="46.2571674" lon="12.9021969"><ele>675.0</ele><time>2026-04-19T08:34:56.193Z</time></trkpt><trkpt lat="46.2571764" lon="12.9020613"><ele>675.0</ele><time>2026-04-19T08:34:57.193Z</time></trkpt><trkpt lat="46.2571881" lon="12.9019587"><ele>675.0</ele><time>2026-04-19T08:34:58.193Z</time></trkpt><trkpt lat="46.257203" lon="12.9018208"><ele>675.0</ele><time>2026-04-19T08:34:59.194Z</time></trkpt><trkpt lat="46.257259" lon="12.9016662"><ele>675.0</ele><time>2026-04-19T08:35:00.192Z</time></trkpt><trkpt lat="46.2572943" lon="12.901513"><ele>671.5</ele><time>2026-04-19T08:35:01.194Z</time></trkpt><trkpt lat="46.2573481" lon="12.9013354"><ele>668.0</ele><time>2026-04-19T08:35:02.193Z</time></trkpt><trkpt lat="46.2574147" lon="12.9011659"><ele>664.5</ele><time>2026-04-19T08:35:03.193Z</time></trkpt><trkpt lat="46.2574878" lon="12.9010089"><ele>661.0</ele><time>2026-04-19T08:35:04.194Z</time></trkpt><trkpt lat="46.2575528" lon="12.9008432"><ele>660.5999999999999</ele><time>2026-04-19T08:35:05.193Z</time></trkpt><trkpt lat="46.2576139" lon="12.9006752"><ele>660.2</ele><time>2026-04-19T08:35:06.194Z</time></trkpt><trkpt lat="46.257674" lon="12.9005272"><ele>659.8</ele><time>2026-04-19T08:35:07.193Z</time></trkpt><trkpt lat="46.257724" lon="12.9003946"><ele>659.4000000000001</ele><time>2026-04-19T08:35:08.192Z</time></trkpt><trkpt lat="46.2577573" lon="12.9002835"><ele>659.0</ele><time>2026-04-19T08:35:09.193Z</time></trkpt><trkpt lat="46.2577702" lon="12.9001626"><ele>658.0</ele><time>2026-04-19T08:35:10.193Z</time></trkpt><trkpt lat="46.257761" lon="12.9000521"><ele>657.0</ele><time>2026-04-19T08:35:11.193Z</time></trkpt><trkpt lat="46.2577285" lon="12.8999479"><ele>656.0</ele><time>2026-04-19T08:35:12.193Z</time></trkpt><trkpt lat="46.2576923" lon="12.8998431"><ele>655.0</ele><time>2026-04-19T08:35:13.194Z</time></trkpt><trkpt lat="46.2576602" lon="12.899735"><ele>654.0</ele><time>2026-04-19T08:35:14.193Z</time></trkpt><trkpt lat="46.2576335" lon="12.8996298"><ele>653.0</ele><time>2026-04-19T08:35:15.194Z</time></trkpt><trkpt lat="46.2576257" lon="12.8995313"><ele>653.0</ele><time>2026-04-19T08:35:16.193Z</time></trkpt><trkpt lat="46.2576665" lon="12.8993743"><ele>653.0</ele><time>2026-04-19T08:35:18.193Z</time></trkpt><trkpt lat="46.2577754" lon="12.8993075"><ele>653.0</ele><time>2026-04-19T08:35:20.193Z</time></trkpt><trkpt lat="46.2578394" lon="12.8993293"><ele>653.0</ele><time>2026-04-19T08:35:21.192Z</time></trkpt><trkpt lat="46.2578926" lon="12.8993897"><ele>653.0</ele><time>2026-04-19T08:35:22.193Z</time></trkpt><trkpt lat="46.2579387" lon="12.8994889"><ele>653.0</ele><time>2026-04-19T08:35:23.193Z</time></trkpt><trkpt lat="46.2579824" lon="12.899604"><ele>653.0</ele><time>2026-04-19T08:35:24.193Z</time></trkpt><trkpt lat="46.2580344" lon="12.8997317"><ele>653.0</ele><time>2026-04-19T08:35:25.193Z</time></trkpt><trkpt lat="46.2580908" lon="12.8998653"><ele>653.0</ele><time>2026-04-19T08:35:26.193Z</time></trkpt><trkpt lat="46.2581474" lon="12.8999948"><ele>653.0</ele><time>2026-04-19T08:35:27.194Z</time></trkpt><trkpt lat="46.2581967" lon="12.9001201"><ele>650.0</ele><time>2026-04-19T08:35:28.194Z</time></trkpt><trkpt lat="46.2582416" lon="12.9002409"><ele>647.0</ele><time>2026-04-19T08:35:29.193Z</time></trkpt><trkpt lat="46.2582704" lon="12.9003579"><ele>644.0</ele><time>2026-04-19T08:35:30.193Z</time></trkpt><trkpt lat="46.2582771" lon="12.9004598"><ele>641.0</ele><time>2026-04-19T08:35:31.192Z</time></trkpt><trkpt lat="46.2582683" lon="12.900576"><ele>638.0</ele><time>2026-04-19T08:35:32.192Z</time></trkpt><trkpt lat="46.2582409" lon="12.9007107"><ele>635.0</ele><time>2026-04-19T08:35:33.192Z</time></trkpt><trkpt lat="46.2582042" lon="12.9008428"><ele>635.1666666666666</ele><time>2026-04-19T08:35:34.192Z</time></trkpt><trkpt lat="46.2581672" lon="12.9009708"><ele>635.3333333333333</ele><time>2026-04-19T08:35:35.193Z</time></trkpt><trkpt lat="46.2581385" lon="12.901103"><ele>635.5</ele><time>2026-04-19T08:35:36.192Z</time></trkpt><trkpt lat="46.258127" lon="12.9012288"><ele>635.6666666666666</ele><time>2026-04-19T08:35:37.192Z</time></trkpt><trkpt lat="46.258136" lon="12.9013542"><ele>635.8333333333334</ele><time>2026-04-19T08:35:38.193Z</time></trkpt><trkpt lat="46.2581722" lon="12.9014587"><ele>636.0</ele><time>2026-04-19T08:35:39.193Z</time></trkpt><trkpt lat="46.2582357" lon="12.9015607"><ele>636.0</ele><time>2026-04-19T08:35:40.193Z</time></trkpt><trkpt lat="46.2583211" lon="12.9016497"><ele>636.0</ele><time>2026-04-19T08:35:41.193Z</time></trkpt><trkpt lat="46.258421" lon="12.9017425"><ele>636.0</ele><time>2026-04-19T08:35:42.193Z</time></trkpt><trkpt lat="46.2585288" lon="12.9018437"><ele>636.0</ele><time>2026-04-19T08:35:43.193Z</time></trkpt><trkpt lat="46.2586407" lon="12.9019489"><ele>634.6</ele><time>2026-04-19T08:35:44.193Z</time></trkpt><trkpt lat="46.2587509" lon="12.902041"><ele>633.2</ele><time>2026-04-19T08:35:45.193Z</time></trkpt><trkpt lat="46.2588538" lon="12.9021226"><ele>631.8</ele><time>2026-04-19T08:35:46.193Z</time></trkpt><trkpt lat="46.2589415" lon="12.9021955"><ele>630.4</ele><time>2026-04-19T08:35:47.193Z</time></trkpt><trkpt lat="46.259021" lon="12.9022672"><ele>629.0</ele><time>2026-04-19T08:35:48.192Z</time></trkpt><trkpt lat="46.259087" lon="12.9023555"><ele>629.0</ele><time>2026-04-19T08:35:49.192Z</time></trkpt><trkpt lat="46.2591388" lon="12.9024731"><ele>629.0</ele><time>2026-04-19T08:35:50.192Z</time></trkpt><trkpt lat="46.2591905" lon="12.902611"><ele>629.0</ele><time>2026-04-19T08:35:51.193Z</time></trkpt><trkpt lat="46.2592555" lon="12.9027422"><ele>629.0</ele><time>2026-04-19T08:35:52.193Z</time></trkpt><trkpt lat="46.2593289" lon="12.9028547"><ele>629.0</ele><time>2026-04-19T08:35:53.193Z</time></trkpt><trkpt lat="46.25941" lon="12.9029493"><ele>630.6</ele><time>2026-04-19T08:35:54.193Z</time></trkpt><trkpt lat="46.2594849" lon="12.9030384"><ele>632.2</ele><time>2026-04-19T08:35:55.194Z</time></trkpt><trkpt lat="46.2595445" lon="12.9031465"><ele>633.8000000000001</ele><time>2026-04-19T08:35:56.193Z</time></trkpt><trkpt lat="46.2595851" lon="12.903279"><ele>635.4</ele><time>2026-04-19T08:35:57.193Z</time></trkpt><trkpt lat="46.2596185" lon="12.9034119"><ele>637.0</ele><time>2026-04-19T08:35:58.193Z</time></trkpt><trkpt lat="46.2596512" lon="12.9035427"><ele>637.0</ele><time>2026-04-19T08:35:59.193Z</time></trkpt><trkpt lat="46.2596839" lon="12.9036703"><ele>637.0</ele><time>2026-04-19T08:36:00.193Z</time></trkpt><trkpt lat="46.2597174" lon="12.903804"><ele>637.0</ele><time>2026-04-19T08:36:01.192Z</time></trkpt><trkpt lat="46.2597566" lon="12.9039308"><ele>637.0</ele><time>2026-04-19T08:36:02.193Z</time></trkpt><trkpt lat="46.2598063" lon="12.9040502"><ele>637.0</ele><time>2026-04-19T08:36:03.193Z</time></trkpt><trkpt lat="46.2598661" lon="12.9041605"><ele>631.6</ele><time>2026-04-19T08:36:04.193Z</time></trkpt><trkpt lat="46.2599287" lon="12.9042631"><ele>626.2</ele><time>2026-04-19T08:36:05.193Z</time></trkpt><trkpt lat="46.2599998" lon="12.9043512"><ele>620.8</ele><time>2026-04-19T08:36:06.193Z</time></trkpt><trkpt lat="46.2600767" lon="12.9044186"><ele>615.4</ele><time>2026-04-19T08:36:07.193Z</time></trkpt><trkpt lat="46.2601557" lon="12.9044759"><ele>610.0</ele><time>2026-04-19T08:36:08.193Z</time></trkpt><trkpt lat="46.2602443" lon="12.9045215"><ele>610.0</ele><time>2026-04-19T08:36:09.193Z</time></trkpt><trkpt lat="46.2603277" lon="12.9045663"><ele>610.0</ele><time>2026-04-19T08:36:10.193Z</time></trkpt><trkpt lat="46.2604233" lon="12.9045968"><ele>610.0</ele><time>2026-04-19T08:36:11.192Z</time></trkpt><trkpt lat="46.2605161" lon="12.9046252"><ele>610.0</ele><time>2026-04-19T08:36:12.192Z</time></trkpt><trkpt lat="46.2606132" lon="12.9046555"><ele>610.0</ele><time>2026-04-19T08:36:13.192Z</time></trkpt><trkpt lat="46.2607069" lon="12.9046827"><ele>610.0</ele><time>2026-04-19T08:36:14.192Z</time></trkpt><trkpt lat="46.2608013" lon="12.9046965"><ele>610.0</ele><time>2026-04-19T08:36:15.193Z</time></trkpt><trkpt lat="46.2608927" lon="12.9046997"><ele>610.0</ele><time>2026-04-19T08:36:16.192Z</time></trkpt><trkpt lat="46.2609775" lon="12.9046872"><ele>610.0</ele><time>2026-04-19T08:36:17.192Z</time></trkpt><trkpt lat="46.2610697" lon="12.9047086"><ele>610.0</ele><time>2026-04-19T08:36:18.193Z</time></trkpt><trkpt lat="46.2611634" lon="12.9047335"><ele>610.0</ele><time>2026-04-19T08:36:19.193Z</time></trkpt><trkpt lat="46.2612552" lon="12.9048117"><ele>610.0</ele><time>2026-04-19T08:36:20.193Z</time></trkpt><trkpt lat="46.2613497" lon="12.9049075"><ele>610.0</ele><time>2026-04-19T08:36:21.193Z</time></trkpt><trkpt lat="46.2614367" lon="12.9050378"><ele>610.0</ele><time>2026-04-19T08:36:22.192Z</time></trkpt><trkpt lat="46.2615182" lon="12.9051747"><ele>606.75</ele><time>2026-04-19T08:36:23.192Z</time></trkpt><trkpt lat="46.2615991" lon="12.9053147"><ele>603.5</ele><time>2026-04-19T08:36:24.192Z</time></trkpt><trkpt lat="46.2616875" lon="12.9054482"><ele>600.25</ele><time>2026-04-19T08:36:25.193Z</time></trkpt><trkpt lat="46.2617736" lon="12.9055807"><ele>597.0</ele><time>2026-04-19T08:36:26.194Z</time></trkpt><trkpt lat="46.2618631" lon="12.9056988"><ele>597.0</ele><time>2026-04-19T08:36:27.192Z</time></trkpt><trkpt lat="46.2619602" lon="12.9058042"><ele>597.0</ele><time>2026-04-19T08:36:28.194Z</time></trkpt><trkpt lat="46.2620547" lon="12.9059091"><ele>597.0</ele><time>2026-04-19T08:36:29.193Z</time></trkpt><trkpt lat="46.2621475" lon="12.9060014"><ele>597.0</ele><time>2026-04-19T08:36:30.193Z</time></trkpt><trkpt lat="46.2622474" lon="12.9060828"><ele>597.0</ele><time>2026-04-19T08:36:31.192Z</time></trkpt><trkpt lat="46.262359" lon="12.9061407"><ele>597.0</ele><time>2026-04-19T08:36:32.192Z</time></trkpt><trkpt lat="46.2624693" lon="12.9061832"><ele>597.0</ele><time>2026-04-19T08:36:33.193Z</time></trkpt><trkpt lat="46.2625789" lon="12.9061609"><ele>597.0</ele><time>2026-04-19T08:36:34.193Z</time></trkpt><trkpt lat="46.2626559" lon="12.9061865"><ele>597.0</ele><time>2026-04-19T08:36:35.193Z</time></trkpt><trkpt lat="46.2627331" lon="12.906207"><ele>597.0</ele><time>2026-04-19T08:36:36.193Z</time></trkpt><trkpt lat="46.2628097" lon="12.9063287"><ele>597.0</ele><time>2026-04-19T08:36:37.193Z</time></trkpt><trkpt lat="46.2628584" lon="12.9064409"><ele>597.0</ele><time>2026-04-19T08:36:38.193Z</time></trkpt><trkpt lat="46.2629016" lon="12.9065494"><ele>597.0</ele><time>2026-04-19T08:36:39.192Z</time></trkpt><trkpt lat="46.2629461" lon="12.9066396"><ele>597.0</ele><time>2026-04-19T08:36:40.192Z</time></trkpt><trkpt lat="46.2629946" lon="12.9067141"><ele>597.0</ele><time>2026-04-19T08:36:41.193Z</time></trkpt><trkpt lat="46.2630464" lon="12.9067867"><ele>597.0</ele><time>2026-04-19T08:36:42.193Z</time></trkpt><trkpt lat="46.263111" lon="12.9068123"><ele>597.0</ele><time>2026-04-19T08:36:43.193Z</time></trkpt><trkpt lat="46.2631863" lon="12.9067815"><ele>597.0</ele><time>2026-04-19T08:36:44.192Z</time></trkpt><trkpt lat="46.2632017" lon="12.9066749"><ele>597.0</ele><time>2026-04-19T08:36:45.192Z</time></trkpt><trkpt lat="46.2631261" lon="12.9064927"><ele>597.0</ele><time>2026-04-19T08:36:47.192Z</time></trkpt><trkpt lat="46.2630599" lon="12.9063663"><ele>597.0</ele><time>2026-04-19T08:36:48.193Z</time></trkpt><trkpt lat="46.2629835" lon="12.9062316"><ele>597.0</ele><time>2026-04-19T08:36:49.193Z</time></trkpt><trkpt lat="46.2629017" lon="12.9060897"><ele>597.0</ele><time>2026-04-19T08:36:50.192Z</time></trkpt><trkpt lat="46.2628181" lon="12.9059205"><ele>597.0</ele><time>2026-04-19T08:36:51.194Z</time></trkpt><trkpt lat="46.2627486" lon="12.9057506"><ele>593.5</ele><time>2026-04-19T08:36:52.194Z</time></trkpt><trkpt lat="46.2626777" lon="12.9055871"><ele>590.0</ele><time>2026-04-19T08:36:53.193Z</time></trkpt><trkpt lat="46.2626073" lon="12.9054413"><ele>586.5</ele><time>2026-04-19T08:36:54.193Z</time></trkpt><trkpt lat="46.2625405" lon="12.905291"><ele>583.0</ele><time>2026-04-19T08:36:55.193Z</time></trkpt><trkpt lat="46.2624635" lon="12.9051572"><ele>580.5</ele><time>2026-04-19T08:36:56.192Z</time></trkpt><trkpt lat="46.2623729" lon="12.9050274"><ele>578.0</ele><time>2026-04-19T08:36:57.194Z</time></trkpt><trkpt lat="46.2622737" lon="12.90491"><ele>575.5</ele><time>2026-04-19T08:36:58.193Z</time></trkpt><trkpt lat="46.262181" lon="12.9048069"><ele>573.0</ele><time>2026-04-19T08:36:59.193Z</time></trkpt><trkpt lat="46.2621095" lon="12.9047203"><ele>577.6</ele><time>2026-04-19T08:37:00.194Z</time></trkpt><trkpt lat="46.2620604" lon="12.9046219"><ele>582.1999999999999</ele><time>2026-04-19T08:37:01.192Z</time></trkpt><trkpt lat="46.2620384" lon="12.904523"><ele>586.8</ele><time>2026-04-19T08:37:02.193Z</time></trkpt><trkpt lat="46.2620421" lon="12.904427"><ele>591.4</ele><time>2026-04-19T08:37:03.193Z</time></trkpt><trkpt lat="46.2621253" lon="12.9042977"><ele>596.0</ele><time>2026-04-19T08:37:05.192Z</time></trkpt><trkpt lat="46.262253" lon="12.9043533"><ele>591.4</ele><time>2026-04-19T08:37:07.193Z</time></trkpt><trkpt lat="46.262319" lon="12.9044421"><ele>586.8</ele><time>2026-04-19T08:37:08.193Z</time></trkpt><trkpt lat="46.2623922" lon="12.9045614"><ele>582.1999999999999</ele><time>2026-04-19T08:37:09.193Z</time></trkpt><trkpt lat="46.2624664" lon="12.9046875"><ele>577.6</ele><time>2026-04-19T08:37:10.192Z</time></trkpt><trkpt lat="46.2625485" lon="12.9048252"><ele>573.0</ele><time>2026-04-19T08:37:11.194Z</time></trkpt><trkpt lat="46.2626283" lon="12.9049615"><ele>575.5</ele><time>2026-04-19T08:37:12.193Z</time></trkpt><trkpt lat="46.2627149" lon="12.905092"><ele>578.0</ele><time>2026-04-19T08:37:13.193Z</time></trkpt><trkpt lat="46.2628211" lon="12.9051812"><ele>580.5</ele><time>2026-04-19T08:37:14.192Z</time></trkpt><trkpt lat="46.2629178" lon="12.9052763"><ele>583.0</ele><time>2026-04-19T08:37:15.192Z</time></trkpt><trkpt lat="46.2629977" lon="12.9054061"><ele>583.0</ele><time>2026-04-19T08:37:16.192Z</time></trkpt><trkpt lat="46.2630715" lon="12.9055443"><ele>583.0</ele><time>2026-04-19T08:37:17.191Z</time></trkpt><trkpt lat="46.2631451" lon="12.9056721"><ele>583.0</ele><time>2026-04-19T08:37:18.193Z</time></trkpt><trkpt lat="46.2632355" lon="12.9057679"><ele>583.0</ele><time>2026-04-19T08:37:19.192Z</time></trkpt><trkpt lat="46.2633278" lon="12.9058581"><ele>582.1999999999999</ele><time>2026-04-19T08:37:20.192Z</time></trkpt><trkpt lat="46.2634109" lon="12.90593"><ele>581.4</ele><time>2026-04-19T08:37:21.192Z</time></trkpt><trkpt lat="46.2635033" lon="12.9059903"><ele>580.5999999999999</ele><time>2026-04-19T08:37:22.192Z</time></trkpt><trkpt lat="46.2635651" lon="12.9060569"><ele>579.8</ele><time>2026-04-19T08:37:23.192Z</time></trkpt><trkpt lat="46.2636172" lon="12.9061196"><ele>579.0</ele><time>2026-04-19T08:37:24.191Z</time></trkpt><trkpt lat="46.2636657" lon="12.9062753"><ele>579.0</ele><time>2026-04-19T08:37:26.192Z</time></trkpt><trkpt lat="46.2636782" lon="12.9064329"><ele>579.0</ele><time>2026-04-19T08:37:28.191Z</time></trkpt><trkpt lat="46.2636285" lon="12.9065884"><ele>579.0</ele><time>2026-04-19T08:37:29.192Z</time></trkpt><trkpt lat="46.2636314" lon="12.9067065"><ele>579.0</ele><time>2026-04-19T08:37:30.192Z</time></trkpt><trkpt lat="46.2636537" lon="12.9068199"><ele>579.0</ele><time>2026-04-19T08:37:31.191Z</time></trkpt><trkpt lat="46.2636872" lon="12.9069345"><ele>580.3333333333334</ele><time>2026-04-19T08:37:32.192Z</time></trkpt><trkpt lat="46.2637442" lon="12.9070488"><ele>581.6666666666666</ele><time>2026-04-19T08:37:33.191Z</time></trkpt><trkpt lat="46.2637883" lon="12.9071606"><ele>583.0</ele><time>2026-04-19T08:37:34.192Z</time></trkpt><trkpt lat="46.2638574" lon="12.9072483"><ele>584.3333333333333</ele><time>2026-04-19T08:37:35.192Z</time></trkpt><trkpt lat="46.2639457" lon="12.9072343"><ele>585.6666666666666</ele><time>2026-04-19T08:37:36.192Z</time></trkpt><trkpt lat="46.2639952" lon="12.9072942"><ele>587.0</ele><time>2026-04-19T08:37:37.192Z</time></trkpt><trkpt lat="46.2640377" lon="12.9073691"><ele>581.0</ele><time>2026-04-19T08:37:38.191Z</time></trkpt><trkpt lat="46.2640624" lon="12.9074582"><ele>575.0</ele><time>2026-04-19T08:37:39.192Z</time></trkpt><trkpt lat="46.2640693" lon="12.9075492"><ele>569.0</ele><time>2026-04-19T08:37:40.191Z</time></trkpt><trkpt lat="46.2640536" lon="12.9076729"><ele>563.0</ele><time>2026-04-19T08:37:41.192Z</time></trkpt><trkpt lat="46.2640422" lon="12.9078019"><ele>557.0</ele><time>2026-04-19T08:37:42.191Z</time></trkpt><trkpt lat="46.2640324" lon="12.9079404"><ele>551.0</ele><time>2026-04-19T08:37:43.193Z</time></trkpt><trkpt lat="46.2640215" lon="12.908075"><ele>551.0</ele><time>2026-04-19T08:37:44.192Z</time></trkpt><trkpt lat="46.2640142" lon="12.9082055"><ele>551.0</ele><time>2026-04-19T08:37:45.192Z</time></trkpt><trkpt lat="46.2640407" lon="12.9083343"><ele>551.0</ele><time>2026-04-19T08:37:46.192Z</time></trkpt><trkpt lat="46.2640715" lon="12.9084464"><ele>551.0</ele><time>2026-04-19T08:37:47.192Z</time></trkpt><trkpt lat="46.2641116" lon="12.9085331"><ele>551.0</ele><time>2026-04-19T08:37:48.192Z</time></trkpt><trkpt lat="46.2641669" lon="12.9085771"><ele>551.0</ele><time>2026-04-19T08:37:49.191Z</time></trkpt><trkpt lat="46.2643014" lon="12.9085883"><ele>550.9999999999999</ele><time>2026-04-19T08:37:51.192Z</time></trkpt><trkpt lat="46.2643737" lon="12.9085639"><ele>551.0</ele><time>2026-04-19T08:37:52.191Z</time></trkpt><trkpt lat="46.2644339" lon="12.9085105"><ele>551.0</ele><time>2026-04-19T08:37:53.192Z</time></trkpt><trkpt lat="46.2644747" lon="12.9084309"><ele>551.0</ele><time>2026-04-19T08:37:54.191Z</time></trkpt><trkpt lat="46.2645084" lon="12.9083497"><ele>551.0</ele><time>2026-04-19T08:37:55.191Z</time></trkpt><trkpt lat="46.2645488" lon="12.9082676"><ele>550.9999999999999</ele><time>2026-04-19T08:37:56.192Z</time></trkpt><trkpt lat="46.2645522" lon="12.9081432"><ele>551.0</ele><time>2026-04-19T08:37:57.192Z</time></trkpt><trkpt lat="46.2645915" lon="12.9080387"><ele>551.0</ele><time>2026-04-19T08:37:58.191Z</time></trkpt><trkpt lat="46.264637" lon="12.9079467"><ele>551.0</ele><time>2026-04-19T08:37:59.192Z</time></trkpt><trkpt lat="46.2647084" lon="12.9079044"><ele>551.0</ele><time>2026-04-19T08:38:00.191Z</time></trkpt><trkpt lat="46.264771" lon="12.9078714"><ele>551.0</ele><time>2026-04-19T08:38:01.192Z</time></trkpt><trkpt lat="46.2648352" lon="12.9078338"><ele>551.0</ele><time>2026-04-19T08:38:02.193Z</time></trkpt><trkpt lat="46.2649053" lon="12.9078099"><ele>551.0</ele><time>2026-04-19T08:38:03.192Z</time></trkpt><trkpt lat="46.265007" lon="12.9077954"><ele>550.0</ele><time>2026-04-19T08:38:05.191Z</time></trkpt><trkpt lat="46.265076" lon="12.9077763"><ele>549.0</ele><time>2026-04-19T08:38:06.192Z</time></trkpt><trkpt lat="46.2651361" lon="12.9077417"><ele>548.0</ele><time>2026-04-19T08:38:07.192Z</time></trkpt><trkpt lat="46.2652349" lon="12.9076607"><ele>547.0</ele><time>2026-04-19T08:38:08.191Z</time></trkpt><trkpt lat="46.2652893" lon="12.9075536"><ele>546.0</ele><time>2026-04-19T08:38:09.191Z</time></trkpt><trkpt lat="46.2653353" lon="12.907399"><ele>546.0</ele><time>2026-04-19T08:38:10.192Z</time></trkpt><trkpt lat="46.2653855" lon="12.9072048"><ele>546.0</ele><time>2026-04-19T08:38:11.191Z</time></trkpt><trkpt lat="46.265447" lon="12.9070622"><ele>546.0</ele><time>2026-04-19T08:38:12.192Z</time></trkpt><trkpt lat="46.2655195" lon="12.9069134"><ele>546.0</ele><time>2026-04-19T08:38:13.192Z</time></trkpt><trkpt lat="46.2655864" lon="12.9067784"><ele>548.75</ele><time>2026-04-19T08:38:14.191Z</time></trkpt><trkpt lat="46.2656666" lon="12.9066459"><ele>551.5</ele><time>2026-04-19T08:38:15.192Z</time></trkpt><trkpt lat="46.2657537" lon="12.9065212"><ele>554.25</ele><time>2026-04-19T08:38:16.192Z</time></trkpt><trkpt lat="46.265878" lon="12.9064518"><ele>557.0</ele><time>2026-04-19T08:38:18.191Z</time></trkpt><trkpt lat="46.2659519" lon="12.9063948"><ele>557.0</ele><time>2026-04-19T08:38:19.192Z</time></trkpt><trkpt lat="46.2660812" lon="12.9064352"><ele>557.0</ele><time>2026-04-19T08:38:20.192Z</time></trkpt><trkpt lat="46.2661863" lon="12.9063785"><ele>557.0</ele><time>2026-04-19T08:38:21.193Z</time></trkpt><trkpt lat="46.2662612" lon="12.9062902"><ele>557.0</ele><time>2026-04-19T08:38:22.192Z</time></trkpt><trkpt lat="46.2663407" lon="12.9062325"><ele>557.0</ele><time>2026-04-19T08:38:23.191Z</time></trkpt><trkpt lat="46.266412" lon="12.9061753"><ele>558.0</ele><time>2026-04-19T08:38:24.192Z</time></trkpt><trkpt lat="46.2665008" lon="12.9062332"><ele>559.0</ele><time>2026-04-19T08:38:25.192Z</time></trkpt><trkpt lat="46.2665753" lon="12.9062749"><ele>560.0</ele><time>2026-04-19T08:38:26.192Z</time></trkpt><trkpt lat="46.2666463" lon="12.9063694"><ele>561.0</ele><time>2026-04-19T08:38:27.192Z</time></trkpt><trkpt lat="46.2667116" lon="12.9064715"><ele>562.0</ele><time>2026-04-19T08:38:28.192Z</time></trkpt><trkpt lat="46.2667848" lon="12.9065964"><ele>562.0</ele><time>2026-04-19T08:38:29.192Z</time></trkpt><trkpt lat="46.2668629" lon="12.9067261"><ele>562.0</ele><time>2026-04-19T08:38:30.192Z</time></trkpt><trkpt lat="46.2669512" lon="12.9068558"><ele>562.0</ele><time>2026-04-19T08:38:31.192Z</time></trkpt><trkpt lat="46.2670526" lon="12.9069722"><ele>562.0</ele><time>2026-04-19T08:38:32.191Z</time></trkpt><trkpt lat="46.2671517" lon="12.9070849"><ele>563.8000000000001</ele><time>2026-04-19T08:38:33.191Z</time></trkpt><trkpt lat="46.2672359" lon="12.9071917"><ele>565.6</ele><time>2026-04-19T08:38:34.192Z</time></trkpt><trkpt lat="46.2672849" lon="12.9073037"><ele>567.4000000000001</ele><time>2026-04-19T08:38:35.192Z</time></trkpt><trkpt lat="46.267302" lon="12.9074278"><ele>569.2</ele><time>2026-04-19T08:38:36.192Z</time></trkpt><trkpt lat="46.2672961" lon="12.9075627"><ele>571.0</ele><time>2026-04-19T08:38:37.191Z</time></trkpt><trkpt lat="46.2672886" lon="12.9077008"><ele>572.3333333333334</ele><time>2026-04-19T08:38:38.192Z</time></trkpt><trkpt lat="46.2672887" lon="12.9078325"><ele>573.6666666666667</ele><time>2026-04-19T08:38:39.191Z</time></trkpt><trkpt lat="46.267267" lon="12.9079589"><ele>575.0</ele><time>2026-04-19T08:38:40.192Z</time></trkpt><trkpt lat="46.2672225" lon="12.9080593"><ele>576.3333333333334</ele><time>2026-04-19T08:38:41.192Z</time></trkpt><trkpt lat="46.2671567" lon="12.908122"><ele>577.6666666666666</ele><time>2026-04-19T08:38:42.192Z</time></trkpt><trkpt lat="46.267091" lon="12.9081525"><ele>579.0</ele><time>2026-04-19T08:38:43.192Z</time></trkpt><trkpt lat="46.2669837" lon="12.9081953"><ele>579.0</ele><time>2026-04-19T08:38:45.192Z</time></trkpt><trkpt lat="46.2668928" lon="12.9082375"><ele>579.0</ele><time>2026-04-19T08:38:47.192Z</time></trkpt><trkpt lat="46.2667985" lon="12.9082841"><ele>579.0</ele><time>2026-04-19T08:38:49.191Z</time></trkpt><trkpt lat="46.2667041" lon="12.9083399"><ele>579.0</ele><time>2026-04-19T08:38:51.192Z</time></trkpt><trkpt lat="46.2666117" lon="12.9083989"><ele>579.0</ele><time>2026-04-19T08:38:53.192Z</time></trkpt><trkpt lat="46.266517" lon="12.9084771"><ele>580.3333333333334</ele><time>2026-04-19T08:38:55.192Z</time></trkpt><trkpt lat="46.2664268" lon="12.9085944"><ele>581.6666666666666</ele><time>2026-04-19T08:38:57.193Z</time></trkpt><trkpt lat="46.2663818" lon="12.9086646"><ele>583.0</ele><time>2026-04-19T08:38:58.192Z</time></trkpt><trkpt lat="46.2663356" lon="12.9087339"><ele>584.3333333333333</ele><time>2026-04-19T08:38:59.191Z</time></trkpt><trkpt lat="46.266291" lon="12.9088038"><ele>585.6666666666666</ele><time>2026-04-19T08:39:00.191Z</time></trkpt><trkpt lat="46.2662438" lon="12.9088729"><ele>587.0</ele><time>2026-04-19T08:39:01.192Z</time></trkpt><trkpt lat="46.266187" lon="12.908925"><ele>587.0</ele><time>2026-04-19T08:39:02.192Z</time></trkpt><trkpt lat="46.2661129" lon="12.9089522"><ele>587.0</ele><time>2026-04-19T08:39:03.193Z</time></trkpt><trkpt lat="46.2660259" lon="12.9089336"><ele>587.0</ele><time>2026-04-19T08:39:04.192Z</time></trkpt><trkpt lat="46.2659384" lon="12.9088808"><ele>587.0</ele><time>2026-04-19T08:39:05.192Z</time></trkpt><trkpt lat="46.2658544" lon="12.9088207"><ele>587.0</ele><time>2026-04-19T08:39:06.192Z</time></trkpt><trkpt lat="46.2657717" lon="12.9087711"><ele>587.0</ele><time>2026-04-19T08:39:07.191Z</time></trkpt><trkpt lat="46.2656962" lon="12.9087481"><ele>587.0</ele><time>2026-04-19T08:39:08.192Z</time></trkpt><trkpt lat="46.2656295" lon="12.9087586"><ele>587.0</ele><time>2026-04-19T08:39:09.191Z</time></trkpt><trkpt lat="46.2655539" lon="12.9088733"><ele>587.0</ele><time>2026-04-19T08:39:11.192Z</time></trkpt><trkpt lat="46.2655481" lon="12.908964"><ele>587.0</ele><time>2026-04-19T08:39:12.192Z</time></trkpt><trkpt lat="46.2655725" lon="12.9090484"><ele>587.0</ele><time>2026-04-19T08:39:13.192Z</time></trkpt><trkpt lat="46.2656217" lon="12.9091105"><ele>587.0</ele><time>2026-04-19T08:39:14.192Z</time></trkpt><trkpt lat="46.2656997" lon="12.9091545"><ele>587.0</ele><time>2026-04-19T08:39:15.191Z</time></trkpt><trkpt lat="46.2657819" lon="12.9091868"><ele>587.0</ele><time>2026-04-19T08:39:16.192Z</time></trkpt><trkpt lat="46.2658615" lon="12.909215"><ele>587.0</ele><time>2026-04-19T08:39:17.192Z</time></trkpt><trkpt lat="46.2659446" lon="12.9092535"><ele>587.0</ele><time>2026-04-19T08:39:18.193Z</time></trkpt><trkpt lat="46.2660259" lon="12.9092827"><ele>587.0</ele><time>2026-04-19T08:39:19.192Z</time></trkpt><trkpt lat="46.2661056" lon="12.9093196"><ele>587.0</ele><time>2026-04-19T08:39:20.192Z</time></trkpt><trkpt lat="46.2661853" lon="12.9093534"><ele>589.1666666666666</ele><time>2026-04-19T08:39:21.191Z</time></trkpt><trkpt lat="46.266269" lon="12.9093933"><ele>591.3333333333333</ele><time>2026-04-19T08:39:22.191Z</time></trkpt><trkpt lat="46.266351" lon="12.9094297"><ele>593.5</ele><time>2026-04-19T08:39:23.192Z</time></trkpt><trkpt lat="46.2664357" lon="12.9094725"><ele>595.6666666666666</ele><time>2026-04-19T08:39:24.192Z</time></trkpt><trkpt lat="46.2665184" lon="12.9095125"><ele>597.8333333333334</ele><time>2026-04-19T08:39:25.192Z</time></trkpt><trkpt lat="46.266576" lon="12.9095711"><ele>600.0</ele><time>2026-04-19T08:39:26.192Z</time></trkpt><trkpt lat="46.2666249" lon="12.9096664"><ele>600.6666666666666</ele><time>2026-04-19T08:39:27.192Z</time></trkpt><trkpt lat="46.2666681" lon="12.9097691"><ele>601.3333333333334</ele><time>2026-04-19T08:39:28.192Z</time></trkpt><trkpt lat="46.2667081" lon="12.9098785"><ele>602.0</ele><time>2026-04-19T08:39:29.191Z</time></trkpt><trkpt lat="46.2667588" lon="12.9099876"><ele>602.6666666666667</ele><time>2026-04-19T08:39:30.192Z</time></trkpt><trkpt lat="46.2668228" lon="12.9100812"><ele>603.3333333333334</ele><time>2026-04-19T08:39:31.192Z</time></trkpt><trkpt lat="46.2668954" lon="12.9101573"><ele>604.0</ele><time>2026-04-19T08:39:32.192Z</time></trkpt><trkpt lat="46.2669821" lon="12.9102165"><ele>605.8333333333334</ele><time>2026-04-19T08:39:33.192Z</time></trkpt><trkpt lat="46.2670654" lon="12.9102662"><ele>607.6666666666667</ele><time>2026-04-19T08:39:34.192Z</time></trkpt><trkpt lat="46.2671472" lon="12.9103208"><ele>609.5</ele><time>2026-04-19T08:39:35.192Z</time></trkpt><trkpt lat="46.2672272" lon="12.9103763"><ele>611.3333333333334</ele><time>2026-04-19T08:39:36.191Z</time></trkpt><trkpt lat="46.2673035" lon="12.9104425"><ele>613.1666666666666</ele><time>2026-04-19T08:39:37.191Z</time></trkpt><trkpt lat="46.2673645" lon="12.9105226"><ele>615.0</ele><time>2026-04-19T08:39:38.192Z</time></trkpt><trkpt lat="46.2674272" lon="12.9106063"><ele>615.0</ele><time>2026-04-19T08:39:39.191Z</time></trkpt><trkpt lat="46.2674833" lon="12.9107021"><ele>615.0</ele><time>2026-04-19T08:39:40.191Z</time></trkpt><trkpt lat="46.2675103" lon="12.9108444"><ele>615.0</ele><time>2026-04-19T08:39:41.193Z</time></trkpt><trkpt lat="46.2675548" lon="12.9109595"><ele>615.0</ele><time>2026-04-19T08:39:42.192Z</time></trkpt><trkpt lat="46.2676018" lon="12.9110747"><ele>615.0</ele><time>2026-04-19T08:39:43.191Z</time></trkpt><trkpt lat="46.2676559" lon="12.9111763"><ele>615.6666666666666</ele><time>2026-04-19T08:39:44.192Z</time></trkpt><trkpt lat="46.2677165" lon="12.9112621"><ele>616.3333333333334</ele><time>2026-04-19T08:39:45.192Z</time></trkpt><trkpt lat="46.2677817" lon="12.9113479"><ele>617.0</ele><time>2026-04-19T08:39:46.192Z</time></trkpt><trkpt lat="46.2678544" lon="12.9114245"><ele>617.6666666666667</ele><time>2026-04-19T08:39:47.192Z</time></trkpt><trkpt lat="46.2679228" lon="12.9115062"><ele>618.3333333333334</ele><time>2026-04-19T08:39:48.192Z</time></trkpt><trkpt lat="46.267993" lon="12.9115818"><ele>619.0</ele><time>2026-04-19T08:39:49.192Z</time></trkpt><trkpt lat="46.2680628" lon="12.9116595"><ele>618.5</ele><time>2026-04-19T08:39:50.192Z</time></trkpt><trkpt lat="46.2681341" lon="12.9117352"><ele>618.0</ele><time>2026-04-19T08:39:51.191Z</time></trkpt><trkpt lat="46.2681994" lon="12.9118128"><ele>617.5</ele><time>2026-04-19T08:39:52.192Z</time></trkpt><trkpt lat="46.268255" lon="12.9118967"><ele>617.0</ele><time>2026-04-19T08:39:53.191Z</time></trkpt><trkpt lat="46.2682933" lon="12.9119893"><ele>616.5</ele><time>2026-04-19T08:39:54.192Z</time></trkpt><trkpt lat="46.2683051" lon="12.9120962"><ele>616.0</ele><time>2026-04-19T08:39:55.191Z</time></trkpt><trkpt lat="46.2683" lon="12.9122021"><ele>615.3333333333334</ele><time>2026-04-19T08:39:56.191Z</time></trkpt><trkpt lat="46.2682974" lon="12.9123003"><ele>614.6666666666667</ele><time>2026-04-19T08:39:57.192Z</time></trkpt><trkpt lat="46.2682655" lon="12.9124483"><ele>614.0</ele><time>2026-04-19T08:39:58.192Z</time></trkpt><trkpt lat="46.2682427" lon="12.9125754"><ele>613.3333333333334</ele><time>2026-04-19T08:39:59.192Z</time></trkpt><trkpt lat="46.2682297" lon="12.9127062"><ele>612.6666666666666</ele><time>2026-04-19T08:40:00.192Z</time></trkpt><trkpt lat="46.2682186" lon="12.9128278"><ele>612.0</ele><time>2026-04-19T08:40:01.191Z</time></trkpt><trkpt lat="46.2681981" lon="12.912937"><ele>613.0</ele><time>2026-04-19T08:40:02.192Z</time></trkpt><trkpt lat="46.2681447" lon="12.9130659"><ele>614.0</ele><time>2026-04-19T08:40:03.191Z</time></trkpt><trkpt lat="46.2680871" lon="12.9132328"><ele>615.0</ele><time>2026-04-19T08:40:04.191Z</time></trkpt><trkpt lat="46.2680316" lon="12.9133924"><ele>616.0</ele><time>2026-04-19T08:40:05.192Z</time></trkpt><trkpt lat="46.2679413" lon="12.9135729"><ele>616.0</ele><time>2026-04-19T08:40:06.192Z</time></trkpt><trkpt lat="46.2678373" lon="12.9137082"><ele>616.0</ele><time>2026-04-19T08:40:07.192Z</time></trkpt><trkpt lat="46.2677392" lon="12.9138259"><ele>616.0</ele><time>2026-04-19T08:40:08.192Z</time></trkpt><trkpt lat="46.2676464" lon="12.9139432"><ele>616.0</ele><time>2026-04-19T08:40:09.192Z</time></trkpt><trkpt lat="46.2675577" lon="12.9140699"><ele>616.0</ele><time>2026-04-19T08:40:10.191Z</time></trkpt><trkpt lat="46.2674588" lon="12.9142117"><ele>616.0</ele><time>2026-04-19T08:40:11.192Z</time></trkpt><trkpt lat="46.2673711" lon="12.9143486"><ele>616.0</ele><time>2026-04-19T08:40:12.191Z</time></trkpt><trkpt lat="46.2672916" lon="12.9144816"><ele>616.0</ele><time>2026-04-19T08:40:13.192Z</time></trkpt><trkpt lat="46.2672079" lon="12.9146173"><ele>614.0</ele><time>2026-04-19T08:40:14.193Z</time></trkpt><trkpt lat="46.2671508" lon="12.9147157"><ele>612.0</ele><time>2026-04-19T08:40:15.193Z</time></trkpt><trkpt lat="46.2670972" lon="12.9148031"><ele>610.0</ele><time>2026-04-19T08:40:16.192Z</time></trkpt><trkpt lat="46.2670575" lon="12.9149242"><ele>608.0</ele><time>2026-04-19T08:40:17.191Z</time></trkpt><trkpt lat="46.2670615" lon="12.9150877"><ele>606.0</ele><time>2026-04-19T08:40:18.192Z</time></trkpt><trkpt lat="46.2670582" lon="12.9152216"><ele>606.0</ele><time>2026-04-19T08:40:19.193Z</time></trkpt><trkpt lat="46.2670614" lon="12.9153845"><ele>606.0</ele><time>2026-04-19T08:40:20.192Z</time></trkpt><trkpt lat="46.2670734" lon="12.9155728"><ele>606.0</ele><time>2026-04-19T08:40:21.193Z</time></trkpt><trkpt lat="46.2670981" lon="12.9157548"><ele>606.0</ele><time>2026-04-19T08:40:22.192Z</time></trkpt><trkpt lat="46.2671293" lon="12.9159398"><ele>607.8</ele><time>2026-04-19T08:40:23.192Z</time></trkpt><trkpt lat="46.2671419" lon="12.9160951"><ele>609.6</ele><time>2026-04-19T08:40:24.192Z</time></trkpt><trkpt lat="46.2671676" lon="12.9162322"><ele>611.4</ele><time>2026-04-19T08:40:25.192Z</time></trkpt><trkpt lat="46.2672014" lon="12.9163497"><ele>613.2</ele><time>2026-04-19T08:40:26.192Z</time></trkpt><trkpt lat="46.267259" lon="12.9164505"><ele>615.0</ele><time>2026-04-19T08:40:27.192Z</time></trkpt><trkpt lat="46.267303" lon="12.9165501"><ele>614.8</ele><time>2026-04-19T08:40:28.192Z</time></trkpt><trkpt lat="46.2673456" lon="12.9166538"><ele>614.6</ele><time>2026-04-19T08:40:29.193Z</time></trkpt><trkpt lat="46.2673881" lon="12.9167694"><ele>614.4</ele><time>2026-04-19T08:40:30.191Z</time></trkpt><trkpt lat="46.2673527" lon="12.9168881"><ele>614.2</ele><time>2026-04-19T08:40:31.192Z</time></trkpt><trkpt lat="46.2673115" lon="12.9170155"><ele>614.0</ele><time>2026-04-19T08:40:32.191Z</time></trkpt><trkpt lat="46.2671737" lon="12.9170922"><ele>615.2</ele><time>2026-04-19T08:40:33.192Z</time></trkpt><trkpt lat="46.2671069" lon="12.9171579"><ele>616.4</ele><time>2026-04-19T08:40:34.192Z</time></trkpt><trkpt lat="46.266994" lon="12.917257"><ele>617.6</ele><time>2026-04-19T08:40:36.192Z</time></trkpt><trkpt lat="46.2669393" lon="12.9173054"><ele>618.8</ele><time>2026-04-19T08:40:37.192Z</time></trkpt><trkpt lat="46.2668829" lon="12.9173509"><ele>620.0</ele><time>2026-04-19T08:40:38.191Z</time></trkpt><trkpt lat="46.2667714" lon="12.9174399"><ele>620.0</ele><time>2026-04-19T08:40:40.192Z</time></trkpt><trkpt lat="46.266717" lon="12.9175016"><ele>620.0</ele><time>2026-04-19T08:40:41.191Z</time></trkpt><trkpt lat="46.2666624" lon="12.9175626"><ele>620.0</ele><time>2026-04-19T08:40:42.192Z</time></trkpt><trkpt lat="46.2665825" lon="12.9176459"><ele>620.0</ele><time>2026-04-19T08:40:43.191Z</time></trkpt><trkpt lat="46.2665154" lon="12.9177483"><ele>620.0</ele><time>2026-04-19T08:40:44.192Z</time></trkpt><trkpt lat="46.2664439" lon="12.9178791"><ele>620.0</ele><time>2026-04-19T08:40:45.191Z</time></trkpt><trkpt lat="46.2663822" lon="12.9180555"><ele>621.75</ele><time>2026-04-19T08:40:46.193Z</time></trkpt><trkpt lat="46.2663174" lon="12.9181907"><ele>623.5</ele><time>2026-04-19T08:40:47.193Z</time></trkpt><trkpt lat="46.2662523" lon="12.9183338"><ele>625.25</ele><time>2026-04-19T08:40:48.191Z</time></trkpt><trkpt lat="46.2661881" lon="12.9184721"><ele>627.0</ele><time>2026-04-19T08:40:49.192Z</time></trkpt><trkpt lat="46.2661247" lon="12.9186119"><ele>623.6</ele><time>2026-04-19T08:40:50.192Z</time></trkpt><trkpt lat="46.2660775" lon="12.9187581"><ele>620.2</ele><time>2026-04-19T08:40:51.192Z</time></trkpt><trkpt lat="46.2660544" lon="12.9189058"><ele>616.8</ele><time>2026-04-19T08:40:52.192Z</time></trkpt><trkpt lat="46.2660243" lon="12.9190519"><ele>613.4</ele><time>2026-04-19T08:40:53.192Z</time></trkpt><trkpt lat="46.2660222" lon="12.9192046"><ele>610.0</ele><time>2026-04-19T08:40:54.193Z</time></trkpt><trkpt lat="46.2660015" lon="12.9193465"><ele>608.0</ele><time>2026-04-19T08:40:55.192Z</time></trkpt><trkpt lat="46.265982" lon="12.9194939"><ele>606.0</ele><time>2026-04-19T08:40:56.191Z</time></trkpt><trkpt lat="46.2659673" lon="12.9196347"><ele>604.0</ele><time>2026-04-19T08:40:57.192Z</time></trkpt><trkpt lat="46.2659526" lon="12.9197751"><ele>602.0</ele><time>2026-04-19T08:40:58.191Z</time></trkpt><trkpt lat="46.26594" lon="12.9199153"><ele>600.0</ele><time>2026-04-19T08:40:59.192Z</time></trkpt><trkpt lat="46.2659314" lon="12.920058"><ele>598.6</ele><time>2026-04-19T08:41:00.191Z</time></trkpt><trkpt lat="46.265921" lon="12.9201977"><ele>597.2</ele><time>2026-04-19T08:41:01.192Z</time></trkpt><trkpt lat="46.2659173" lon="12.9203363"><ele>595.8</ele><time>2026-04-19T08:41:02.193Z</time></trkpt><trkpt lat="46.2659318" lon="12.9204696"><ele>594.4</ele><time>2026-04-19T08:41:03.191Z</time></trkpt><trkpt lat="46.2659743" lon="12.9206017"><ele>593.0</ele><time>2026-04-19T08:41:04.192Z</time></trkpt><trkpt lat="46.2660378" lon="12.9207333"><ele>593.0</ele><time>2026-04-19T08:41:05.192Z</time></trkpt><trkpt lat="46.2661107" lon="12.9208737"><ele>593.0</ele><time>2026-04-19T08:41:06.191Z</time></trkpt><trkpt lat="46.2661927" lon="12.9210211"><ele>593.0</ele><time>2026-04-19T08:41:07.193Z</time></trkpt><trkpt lat="46.2662782" lon="12.9211752"><ele>593.0</ele><time>2026-04-19T08:41:08.191Z</time></trkpt><trkpt lat="46.2663576" lon="12.9213246"><ele>592.1999999999999</ele><time>2026-04-19T08:41:09.193Z</time></trkpt><trkpt lat="46.2664351" lon="12.9214671"><ele>591.4</ele><time>2026-04-19T08:41:10.191Z</time></trkpt><trkpt lat="46.2664969" lon="12.9215904"><ele>590.5999999999999</ele><time>2026-04-19T08:41:11.192Z</time></trkpt><trkpt lat="46.2665577" lon="12.9216989"><ele>589.8</ele><time>2026-04-19T08:41:12.192Z</time></trkpt><trkpt lat="46.2666105" lon="12.9217748"><ele>589.0</ele><time>2026-04-19T08:41:13.192Z</time></trkpt><trkpt lat="46.2667091" lon="12.9218475"><ele>587.8333333333334</ele><time>2026-04-19T08:41:15.192Z</time></trkpt><trkpt lat="46.2667837" lon="12.9218344"><ele>586.6666666666667</ele><time>2026-04-19T08:41:17.192Z</time></trkpt><trkpt lat="46.2668455" lon="12.9218013"><ele>585.5</ele><time>2026-04-19T08:45:17.189Z</time></trkpt><trkpt lat="46.2669518" lon="12.9218057"><ele>584.3333333333334</ele><time>2026-04-19T08:45:20.19Z</time></trkpt><trkpt lat="46.2670305" lon="12.9218016"><ele>583.1666666666666</ele><time>2026-04-19T08:45:22.19Z</time></trkpt><trkpt lat="46.2670981" lon="12.921844"><ele>582.0</ele><time>2026-04-19T08:45:24.191Z</time></trkpt><trkpt lat="46.2671356" lon="12.9219597"><ele>582.0</ele><time>2026-04-19T08:45:26.19Z</time></trkpt><trkpt lat="46.267158" lon="12.9220756"><ele>582.0</ele><time>2026-04-19T08:45:28.19Z</time></trkpt><trkpt lat="46.267137" lon="12.9221983"><ele>582.0</ele><time>2026-04-19T08:45:43.19Z</time></trkpt><trkpt lat="46.2671749" lon="12.9223013"><ele>582.0</ele><time>2026-04-19T08:45:46.19Z</time></trkpt><trkpt lat="46.2671981" lon="12.9223951"><ele>582.0</ele><time>2026-04-19T08:45:49.19Z</time></trkpt><trkpt lat="46.2671073" lon="12.922122"><ele>582.0</ele><time>2026-04-19T08:46:24.191Z</time></trkpt><trkpt lat="46.2670869" lon="12.9219808"><ele>582.0</ele><time>2026-04-19T08:46:26.19Z</time></trkpt><trkpt lat="46.2670511" lon="12.9218667"><ele>582.0</ele><time>2026-04-19T08:46:28.189Z</time></trkpt><trkpt lat="46.2669857" lon="12.9218271"><ele>582.0</ele><time>2026-04-19T08:46:30.189Z</time></trkpt><trkpt lat="46.2668909" lon="12.9218286"><ele>582.0</ele><time>2026-04-19T08:46:32.189Z</time></trkpt><trkpt lat="46.2668338" lon="12.9217902"><ele>582.0</ele><time>2026-04-19T08:46:34.19Z</time></trkpt><trkpt lat="46.2668462" lon="12.9216934"><ele>583.4</ele><time>2026-04-19T08:46:36.19Z</time></trkpt><trkpt lat="46.2668367" lon="12.9215096"><ele>584.8000000000001</ele><time>2026-04-19T08:46:38.189Z</time></trkpt><trkpt lat="46.2668212" lon="12.9213876"><ele>586.2</ele><time>2026-04-19T08:46:39.19Z</time></trkpt><trkpt lat="46.2667997" lon="12.9212701"><ele>587.6</ele><time>2026-04-19T08:46:40.191Z</time></trkpt><trkpt lat="46.2667619" lon="12.9211635"><ele>589.0</ele><time>2026-04-19T08:46:41.189Z</time></trkpt><trkpt lat="46.266732" lon="12.9210636"><ele>589.0</ele><time>2026-04-19T08:46:42.19Z</time></trkpt><trkpt lat="46.2667028" lon="12.9209528"><ele>589.0</ele><time>2026-04-19T08:46:43.19Z</time></trkpt><trkpt lat="46.2666674" lon="12.920859"><ele>589.0</ele><time>2026-04-19T08:46:44.19Z</time></trkpt><trkpt lat="46.2666318" lon="12.9207531"><ele>589.0</ele><time>2026-04-19T08:46:45.189Z</time></trkpt><trkpt lat="46.2666272" lon="12.9206292"><ele>589.0</ele><time>2026-04-19T08:46:46.189Z</time></trkpt><trkpt lat="46.266697" lon="12.9204712"><ele>589.8</ele><time>2026-04-19T08:46:48.19Z</time></trkpt><trkpt lat="46.266787" lon="12.9204302"><ele>590.5999999999999</ele><time>2026-04-19T08:46:49.189Z</time></trkpt><trkpt lat="46.2669311" lon="12.9203848"><ele>591.4</ele><time>2026-04-19T08:46:50.191Z</time></trkpt><trkpt lat="46.2670081" lon="12.920282"><ele>592.1999999999999</ele><time>2026-04-19T08:46:51.19Z</time></trkpt><trkpt lat="46.2670724" lon="12.9201983"><ele>593.0</ele><time>2026-04-19T08:46:52.19Z</time></trkpt><trkpt lat="46.2671391" lon="12.9201535"><ele>593.0</ele><time>2026-04-19T08:46:53.189Z</time></trkpt><trkpt lat="46.2671895" lon="12.9200717"><ele>593.0</ele><time>2026-04-19T08:46:54.19Z</time></trkpt><trkpt lat="46.26724" lon="12.9200037"><ele>593.0</ele><time>2026-04-19T08:46:55.19Z</time></trkpt><trkpt lat="46.267277" lon="12.9198864"><ele>593.0</ele><time>2026-04-19T08:46:56.19Z</time></trkpt><trkpt lat="46.2672931" lon="12.9197551"><ele>593.0</ele><time>2026-04-19T08:46:57.19Z</time></trkpt><trkpt lat="46.2673098" lon="12.9196301"><ele>593.0</ele><time>2026-04-19T08:46:58.19Z</time></trkpt><trkpt lat="46.2673312" lon="12.9195101"><ele>592.1999999999999</ele><time>2026-04-19T08:46:59.189Z</time></trkpt><trkpt lat="46.2673443" lon="12.9194114"><ele>591.4</ele><time>2026-04-19T08:47:00.19Z</time></trkpt><trkpt lat="46.2674358" lon="12.9193015"><ele>590.5999999999999</ele><time>2026-04-19T08:47:02.19Z</time></trkpt><trkpt lat="46.2675962" lon="12.9193083"><ele>589.8</ele><time>2026-04-19T08:47:04.189Z</time></trkpt><trkpt lat="46.2676806" lon="12.9193229"><ele>589.0</ele><time>2026-04-19T08:47:05.19Z</time></trkpt><trkpt lat="46.2677869" lon="12.9193979"><ele>589.0</ele><time>2026-04-19T08:47:06.189Z</time></trkpt><trkpt lat="46.267858" lon="12.9194539"><ele>589.0</ele><time>2026-04-19T08:47:07.188Z</time></trkpt><trkpt lat="46.2679251" lon="12.9195252"><ele>589.0</ele><time>2026-04-19T08:47:08.189Z</time></trkpt><trkpt lat="46.2679494" lon="12.9196116"><ele>589.0</ele><time>2026-04-19T08:47:09.19Z</time></trkpt><trkpt lat="46.2679815" lon="12.9197026"><ele>589.0</ele><time>2026-04-19T08:47:10.188Z</time></trkpt><trkpt lat="46.2680055" lon="12.9198125"><ele>589.0</ele><time>2026-04-19T08:47:11.189Z</time></trkpt><trkpt lat="46.2680354" lon="12.9199691"><ele>589.4</ele><time>2026-04-19T08:47:12.189Z</time></trkpt><trkpt lat="46.2680711" lon="12.9200938"><ele>589.8</ele><time>2026-04-19T08:47:13.189Z</time></trkpt><trkpt lat="46.2680481" lon="12.920295"><ele>590.2</ele><time>2026-04-19T08:47:14.189Z</time></trkpt><trkpt lat="46.2680622" lon="12.9204176"><ele>590.6</ele><time>2026-04-19T08:47:15.189Z</time></trkpt><trkpt lat="46.2680822" lon="12.9205519"><ele>591.0</ele><time>2026-04-19T08:47:16.188Z</time></trkpt><trkpt lat="46.2680837" lon="12.9207148"><ele>588.1666666666666</ele><time>2026-04-19T08:47:17.189Z</time></trkpt><trkpt lat="46.2681352" lon="12.920772"><ele>585.3333333333334</ele><time>2026-04-19T08:47:18.189Z</time></trkpt><trkpt lat="46.2681531" lon="12.9209162"><ele>582.5</ele><time>2026-04-19T08:47:19.188Z</time></trkpt><trkpt lat="46.268154" lon="12.9210566"><ele>579.6666666666667</ele><time>2026-04-19T08:47:20.189Z</time></trkpt><trkpt lat="46.2681874" lon="12.9211612"><ele>576.8333333333334</ele><time>2026-04-19T08:47:21.189Z</time></trkpt><trkpt lat="46.2682179" lon="12.9212577"><ele>574.0</ele><time>2026-04-19T08:47:22.188Z</time></trkpt><trkpt lat="46.2682804" lon="12.9213406"><ele>574.0</ele><time>2026-04-19T08:47:23.189Z</time></trkpt><trkpt lat="46.2683449" lon="12.9213924"><ele>574.0</ele><time>2026-04-19T08:47:24.189Z</time></trkpt><trkpt lat="46.2684184" lon="12.921432"><ele>574.0</ele><time>2026-04-19T08:47:25.189Z</time></trkpt><trkpt lat="46.2684869" lon="12.9214935"><ele>574.0</ele><time>2026-04-19T08:47:26.189Z</time></trkpt><trkpt lat="46.2685644" lon="12.9215864"><ele>574.0</ele><time>2026-04-19T08:47:27.188Z</time></trkpt><trkpt lat="46.2685765" lon="12.9217276"><ele>574.0</ele><time>2026-04-19T08:47:28.189Z</time></trkpt><trkpt lat="46.2686143" lon="12.9218508"><ele>575.2</ele><time>2026-04-19T08:47:29.189Z</time></trkpt><trkpt lat="46.2686449" lon="12.9219676"><ele>576.4</ele><time>2026-04-19T08:47:30.19Z</time></trkpt><trkpt lat="46.2686639" lon="12.9221311"><ele>577.6</ele><time>2026-04-19T08:47:31.189Z</time></trkpt><trkpt lat="46.2686923" lon="12.9222595"><ele>578.8</ele><time>2026-04-19T08:47:32.188Z</time></trkpt><trkpt lat="46.2687409" lon="12.9223888"><ele>580.0</ele><time>2026-04-19T08:47:33.189Z</time></trkpt><trkpt lat="46.2687633" lon="12.9225081"><ele>580.0</ele><time>2026-04-19T08:47:34.189Z</time></trkpt><trkpt lat="46.2688338" lon="12.922541"><ele>580.0</ele><time>2026-04-19T08:47:35.189Z</time></trkpt><trkpt lat="46.2688792" lon="12.9226102"><ele>580.0</ele><time>2026-04-19T08:47:36.189Z</time></trkpt><trkpt lat="46.2689517" lon="12.9227057"><ele>580.0</ele><time>2026-04-19T08:47:37.189Z</time></trkpt><trkpt lat="46.2690154" lon="12.9225787"><ele>580.0</ele><time>2026-04-19T08:47:38.188Z</time></trkpt><trkpt lat="46.2691114" lon="12.9224687"><ele>575.4</ele><time>2026-04-19T08:47:40.188Z</time></trkpt><trkpt lat="46.269161" lon="12.9222851"><ele>570.8</ele><time>2026-04-19T08:47:42.188Z</time></trkpt><trkpt lat="46.2691743" lon="12.9221695"><ele>566.2</ele><time>2026-04-19T08:47:43.189Z</time></trkpt><trkpt lat="46.2691814" lon="12.9220536"><ele>561.6</ele><time>2026-04-19T08:47:44.189Z</time></trkpt><trkpt lat="46.2691887" lon="12.921957"><ele>557.0</ele><time>2026-04-19T08:47:45.188Z</time></trkpt><trkpt lat="46.2692078" lon="12.9218297"><ele>557.0</ele><time>2026-04-19T08:47:46.189Z</time></trkpt><trkpt lat="46.2692326" lon="12.9217391"><ele>557.0</ele><time>2026-04-19T08:47:47.189Z</time></trkpt><trkpt lat="46.2692702" lon="12.921641"><ele>557.0</ele><time>2026-04-19T08:47:48.188Z</time></trkpt><trkpt lat="46.2693962" lon="12.9216053"><ele>557.0</ele><time>2026-04-19T08:47:50.189Z</time></trkpt><trkpt lat="46.2694778" lon="12.9216224"><ele>557.0</ele><time>2026-04-19T08:47:51.189Z</time></trkpt><trkpt lat="46.2695667" lon="12.9217252"><ele>557.0</ele><time>2026-04-19T08:47:52.189Z</time></trkpt><trkpt lat="46.2696698" lon="12.9218265"><ele>557.0</ele><time>2026-04-19T08:47:53.189Z</time></trkpt><trkpt lat="46.2697405" lon="12.9219885"><ele>557.0</ele><time>2026-04-19T08:47:54.188Z</time></trkpt><trkpt lat="46.2698145" lon="12.9221151"><ele>557.0</ele><time>2026-04-19T08:47:55.189Z</time></trkpt><trkpt lat="46.2698997" lon="12.9222284"><ele>553.6</ele><time>2026-04-19T08:47:56.19Z</time></trkpt><trkpt lat="46.2699769" lon="12.9223373"><ele>550.2</ele><time>2026-04-19T08:47:57.189Z</time></trkpt><trkpt lat="46.2700785" lon="12.9223708"><ele>546.8</ele><time>2026-04-19T08:47:58.189Z</time></trkpt><trkpt lat="46.270163" lon="12.922452"><ele>543.4</ele><time>2026-04-19T08:47:59.19Z</time></trkpt><trkpt lat="46.270223" lon="12.9225668"><ele>540.0</ele><time>2026-04-19T08:48:00.189Z</time></trkpt><trkpt lat="46.2702902" lon="12.9226745"><ele>538.6</ele><time>2026-04-19T08:48:01.189Z</time></trkpt><trkpt lat="46.2703404" lon="12.9228022"><ele>537.2</ele><time>2026-04-19T08:48:02.189Z</time></trkpt><trkpt lat="46.2703941" lon="12.9229442"><ele>535.8</ele><time>2026-04-19T08:48:03.189Z</time></trkpt><trkpt lat="46.2704386" lon="12.9230788"><ele>534.4</ele><time>2026-04-19T08:48:04.188Z</time></trkpt><trkpt lat="46.2705124" lon="12.9231573"><ele>533.0</ele><time>2026-04-19T08:48:05.189Z</time></trkpt><trkpt lat="46.2705947" lon="12.9232783"><ele>533.0</ele><time>2026-04-19T08:48:06.189Z</time></trkpt><trkpt lat="46.2706826" lon="12.923354"><ele>533.0</ele><time>2026-04-19T08:48:07.189Z</time></trkpt><trkpt lat="46.2707711" lon="12.9234592"><ele>533.0</ele><time>2026-04-19T08:48:08.188Z</time></trkpt><trkpt lat="46.2708531" lon="12.9235423"><ele>533.0</ele><time>2026-04-19T08:48:09.189Z</time></trkpt><trkpt lat="46.2709246" lon="12.9236165"><ele>533.0</ele><time>2026-04-19T08:48:10.189Z</time></trkpt><trkpt lat="46.2710105" lon="12.9236675"><ele>533.0</ele><time>2026-04-19T08:48:11.189Z</time></trkpt><trkpt lat="46.2711508" lon="12.923679"><ele>533.0</ele><time>2026-04-19T08:48:13.189Z</time></trkpt><trkpt lat="46.2712831" lon="12.9234856"><ele>533.0</ele><time>2026-04-19T08:48:14.189Z</time></trkpt><trkpt lat="46.2713847" lon="12.9234517"><ele>533.0</ele><time>2026-04-19T08:48:15.188Z</time></trkpt><trkpt lat="46.2715216" lon="12.9234988"><ele>532.0</ele><time>2026-04-19T08:48:16.189Z</time></trkpt><trkpt lat="46.2716349" lon="12.9235008"><ele>531.0</ele><time>2026-04-19T08:48:17.189Z</time></trkpt><trkpt lat="46.2717526" lon="12.9235117"><ele>530.0</ele><time>2026-04-19T08:48:18.188Z</time></trkpt><trkpt lat="46.2718636" lon="12.9235136"><ele>529.0</ele><time>2026-04-19T08:48:19.188Z</time></trkpt><trkpt lat="46.271961" lon="12.9234876"><ele>528.0</ele><time>2026-04-19T08:48:20.189Z</time></trkpt><trkpt lat="46.2720428" lon="12.923462"><ele>528.0</ele><time>2026-04-19T08:48:21.19Z</time></trkpt><trkpt lat="46.2721107" lon="12.9233982"><ele>528.0</ele><time>2026-04-19T08:48:22.189Z</time></trkpt><trkpt lat="46.2721953" lon="12.9233349"><ele>528.0</ele><time>2026-04-19T08:48:23.189Z</time></trkpt><trkpt lat="46.2722775" lon="12.9232764"><ele>528.0</ele><time>2026-04-19T08:48:24.189Z</time></trkpt><trkpt lat="46.2723893" lon="12.9232971"><ele>528.0</ele><time>2026-04-19T08:48:25.188Z</time></trkpt><trkpt lat="46.2724972" lon="12.9233092"><ele>524.6</ele><time>2026-04-19T08:48:26.19Z</time></trkpt><trkpt lat="46.2725853" lon="12.9234018"><ele>521.1999999999999</ele><time>2026-04-19T08:48:27.188Z</time></trkpt><trkpt lat="46.2726234" lon="12.9235237"><ele>517.8</ele><time>2026-04-19T08:48:28.189Z</time></trkpt><trkpt lat="46.2726501" lon="12.9236596"><ele>514.4</ele><time>2026-04-19T08:48:29.188Z</time></trkpt><trkpt lat="46.2727114" lon="12.9237835"><ele>511.0</ele><time>2026-04-19T08:48:30.19Z</time></trkpt><trkpt lat="46.2728068" lon="12.9238015"><ele>511.0</ele><time>2026-04-19T08:48:31.189Z</time></trkpt><trkpt lat="46.272915" lon="12.9238598"><ele>511.0</ele><time>2026-04-19T08:48:32.188Z</time></trkpt><trkpt lat="46.2730085" lon="12.9239016"><ele>511.0</ele><time>2026-04-19T08:48:33.189Z</time></trkpt><trkpt lat="46.2731036" lon="12.9239793"><ele>511.0</ele><time>2026-04-19T08:48:34.189Z</time></trkpt><trkpt lat="46.2732098" lon="12.9240503"><ele>511.0</ele><time>2026-04-19T08:48:35.19Z</time></trkpt><trkpt lat="46.2732966" lon="12.9241718"><ele>508.75</ele><time>2026-04-19T08:48:36.189Z</time></trkpt><trkpt lat="46.2733825" lon="12.924291"><ele>506.5</ele><time>2026-04-19T08:48:37.189Z</time></trkpt><trkpt lat="46.2734194" lon="12.9244997"><ele>504.25</ele><time>2026-04-19T08:48:38.19Z</time></trkpt><trkpt lat="46.2734959" lon="12.9246388"><ele>502.0</ele><time>2026-04-19T08:48:39.188Z</time></trkpt><trkpt lat="46.273583" lon="12.9247923"><ele>502.0</ele><time>2026-04-19T08:48:40.188Z</time></trkpt><trkpt lat="46.2736766" lon="12.9249448"><ele>502.0</ele><time>2026-04-19T08:48:41.19Z</time></trkpt><trkpt lat="46.2737691" lon="12.9251253"><ele>502.0</ele><time>2026-04-19T08:48:42.189Z</time></trkpt><trkpt lat="46.2738696" lon="12.9252953"><ele>500.6666666666667</ele><time>2026-04-19T08:48:43.189Z</time></trkpt><trkpt lat="46.2739742" lon="12.9254693"><ele>499.33333333333337</ele><time>2026-04-19T08:48:44.189Z</time></trkpt><trkpt lat="46.2740767" lon="12.9256282"><ele>498.0</ele><time>2026-04-19T08:48:45.189Z</time></trkpt><trkpt lat="46.2741708" lon="12.9257809"><ele>495.4</ele><time>2026-04-19T08:48:46.188Z</time></trkpt><trkpt lat="46.2742433" lon="12.9259186"><ele>492.79999999999995</ele><time>2026-04-19T08:48:47.189Z</time></trkpt><trkpt lat="46.2743175" lon="12.9260327"><ele>490.2</ele><time>2026-04-19T08:48:48.189Z</time></trkpt><trkpt lat="46.2743988" lon="12.9261063"><ele>487.6</ele><time>2026-04-19T08:48:49.188Z</time></trkpt><trkpt lat="46.2744875" lon="12.9261847"><ele>485.0</ele><time>2026-04-19T08:48:50.189Z</time></trkpt><trkpt lat="46.2746019" lon="12.9261933"><ele>485.0</ele><time>2026-04-19T08:48:51.189Z</time></trkpt><trkpt lat="46.274692" lon="12.9262494"><ele>485.0</ele><time>2026-04-19T08:48:52.189Z</time></trkpt><trkpt lat="46.274798" lon="12.9262996"><ele>485.0</ele><time>2026-04-19T08:48:53.188Z</time></trkpt><trkpt lat="46.274909" lon="12.9263462"><ele>485.0</ele><time>2026-04-19T08:48:54.189Z</time></trkpt><trkpt lat="46.2750098" lon="12.9264101"><ele>485.0</ele><time>2026-04-19T08:48:55.188Z</time></trkpt><trkpt lat="46.2751067" lon="12.9264574"><ele>485.0</ele><time>2026-04-19T08:48:56.188Z</time></trkpt><trkpt lat="46.2752002" lon="12.9265116"><ele>485.0</ele><time>2026-04-19T08:48:57.189Z</time></trkpt><trkpt lat="46.275289" lon="12.9265626"><ele>485.0</ele><time>2026-04-19T08:48:58.189Z</time></trkpt><trkpt lat="46.275373" lon="12.9266229"><ele>485.0</ele><time>2026-04-19T08:48:59.189Z</time></trkpt><trkpt lat="46.2754447" lon="12.9266887"><ele>485.0</ele><time>2026-04-19T08:49:00.189Z</time></trkpt><trkpt lat="46.2755123" lon="12.9267553"><ele>482.7142857142858</ele><time>2026-04-19T08:49:01.188Z</time></trkpt><trkpt lat="46.2755813" lon="12.9268149"><ele>480.42857142857144</ele><time>2026-04-19T08:49:02.189Z</time></trkpt><trkpt lat="46.275653" lon="12.9268472"><ele>478.14285714285717</ele><time>2026-04-19T08:49:03.189Z</time></trkpt><trkpt lat="46.2757275" lon="12.9268643"><ele>475.8571428571429</ele><time>2026-04-19T08:49:04.189Z</time></trkpt><trkpt lat="46.275802" lon="12.9268786"><ele>473.57142857142856</ele><time>2026-04-19T08:49:05.189Z</time></trkpt><trkpt lat="46.2758712" lon="12.9268844"><ele>471.2857142857143</ele><time>2026-04-19T08:49:06.189Z</time></trkpt><trkpt lat="46.2759368" lon="12.9268654"><ele>469.0</ele><time>2026-04-19T08:49:07.189Z</time></trkpt><trkpt lat="46.2759992" lon="12.9268375"><ele>468.6</ele><time>2026-04-19T08:49:08.189Z</time></trkpt><trkpt lat="46.276038" lon="12.9267486"><ele>468.2</ele><time>2026-04-19T08:49:09.188Z</time></trkpt><trkpt lat="46.2760462" lon="12.9265846"><ele>467.80000000000007</ele><time>2026-04-19T08:49:11.188Z</time></trkpt><trkpt lat="46.2760058" lon="12.9264858"><ele>467.40000000000003</ele><time>2026-04-19T08:49:12.189Z</time></trkpt><trkpt lat="46.2759526" lon="12.926382"><ele>467.0</ele><time>2026-04-19T08:49:13.188Z</time></trkpt><trkpt lat="46.2758976" lon="12.9262648"><ele>468.66666666666663</ele><time>2026-04-19T08:49:14.189Z</time></trkpt><trkpt lat="46.2758673" lon="12.9261616"><ele>470.3333333333333</ele><time>2026-04-19T08:49:15.189Z</time></trkpt><trkpt lat="46.2758651" lon="12.9260691"><ele>472.0</ele><time>2026-04-19T08:49:16.19Z</time></trkpt><trkpt lat="46.2759508" lon="12.9259655"><ele>473.66666666666663</ele><time>2026-04-19T08:49:18.19Z</time></trkpt><trkpt lat="46.2760418" lon="12.9260507"><ele>475.3333333333333</ele><time>2026-04-19T08:49:20.189Z</time></trkpt><trkpt lat="46.2760875" lon="12.9261243"><ele>477.0</ele><time>2026-04-19T08:49:21.189Z</time></trkpt><trkpt lat="46.2761067" lon="12.9262648"><ele>477.0</ele><time>2026-04-19T08:49:22.189Z</time></trkpt><trkpt lat="46.2761408" lon="12.9263976"><ele>477.00000000000006</ele><time>2026-04-19T08:49:23.19Z</time></trkpt><trkpt lat="46.2761776" lon="12.9265369"><ele>477.00000000000006</ele><time>2026-04-19T08:49:24.189Z</time></trkpt><trkpt lat="46.2762149" lon="12.9266774"><ele>477.0</ele><time>2026-04-19T08:49:25.188Z</time></trkpt><trkpt lat="46.2762633" lon="12.9268066"><ele>477.0</ele><time>2026-04-19T08:49:26.189Z</time></trkpt><trkpt lat="46.2763188" lon="12.9269253"><ele>475.0</ele><time>2026-04-19T08:49:27.188Z</time></trkpt><trkpt lat="46.2763752" lon="12.9270286"><ele>473.00000000000006</ele><time>2026-04-19T08:49:28.19Z</time></trkpt><trkpt lat="46.2764347" lon="12.9271309"><ele>471.00000000000006</ele><time>2026-04-19T08:49:29.189Z</time></trkpt><trkpt lat="46.2764869" lon="12.9272289"><ele>469.0</ele><time>2026-04-19T08:49:30.188Z</time></trkpt><trkpt lat="46.2765321" lon="12.9273074"><ele>467.0</ele><time>2026-04-19T08:49:31.189Z</time></trkpt><trkpt lat="46.2765744" lon="12.9274678"><ele>465.6</ele><time>2026-04-19T08:49:33.189Z</time></trkpt><trkpt lat="46.2765321" lon="12.9276053"><ele>464.20000000000005</ele><time>2026-04-19T08:49:35.188Z</time></trkpt><trkpt lat="46.2764513" lon="12.9277215"><ele>462.8</ele><time>2026-04-19T08:49:37.189Z</time></trkpt><trkpt lat="46.2763275" lon="12.9277712"><ele>461.4</ele><time>2026-04-19T08:49:39.189Z</time></trkpt><trkpt lat="46.2762581" lon="12.9277686"><ele>460.0</ele><time>2026-04-19T08:49:40.19Z</time></trkpt><trkpt lat="46.2761908" lon="12.9277578"><ele>459.33333333333337</ele><time>2026-04-19T08:49:41.189Z</time></trkpt><trkpt lat="46.2761217" lon="12.9277361"><ele>458.6666666666667</ele><time>2026-04-19T08:49:42.189Z</time></trkpt><trkpt lat="46.2760494" lon="12.927689"><ele>458.0</ele><time>2026-04-19T08:49:43.189Z</time></trkpt><trkpt lat="46.2759726" lon="12.9276299"><ele>457.33333333333337</ele><time>2026-04-19T08:49:44.189Z</time></trkpt><trkpt lat="46.2758803" lon="12.9275751"><ele>456.6666666666667</ele><time>2026-04-19T08:49:45.189Z</time></trkpt><trkpt lat="46.2757809" lon="12.9275305"><ele>456.0</ele><time>2026-04-19T08:49:46.189Z</time></trkpt><trkpt lat="46.2756749" lon="12.9274793"><ele>458.6</ele><time>2026-04-19T08:49:47.189Z</time></trkpt><trkpt lat="46.2755692" lon="12.9274152"><ele>461.20000000000005</ele><time>2026-04-19T08:49:48.188Z</time></trkpt><trkpt lat="46.2754682" lon="12.9273528"><ele>463.79999999999995</ele><time>2026-04-19T08:49:49.189Z</time></trkpt><trkpt lat="46.2753726" lon="12.9272948"><ele>466.4</ele><time>2026-04-19T08:49:50.189Z</time></trkpt><trkpt lat="46.2752907" lon="12.9272441"><ele>469.0</ele><time>2026-04-19T08:49:51.189Z</time></trkpt><trkpt lat="46.2752131" lon="12.9272195"><ele>469.0</ele><time>2026-04-19T08:49:52.188Z</time></trkpt><trkpt lat="46.2751378" lon="12.92723"><ele>469.0</ele><time>2026-04-19T08:49:53.188Z</time></trkpt><trkpt lat="46.2750741" lon="12.9272912"><ele>469.0</ele><time>2026-04-19T08:49:54.189Z</time></trkpt><trkpt lat="46.2750248" lon="12.9273623"><ele>469.0</ele><time>2026-04-19T08:49:55.187Z</time></trkpt><trkpt lat="46.2749983" lon="12.9274566"><ele>469.0</ele><time>2026-04-19T08:49:56.188Z</time></trkpt><trkpt lat="46.2750011" lon="12.9275558"><ele>469.0</ele><time>2026-04-19T08:49:57.187Z</time></trkpt><trkpt lat="46.2750348" lon="12.9276457"><ele>469.0</ele><time>2026-04-19T08:49:58.188Z</time></trkpt><trkpt lat="46.2750914" lon="12.9277379"><ele>469.2</ele><time>2026-04-19T08:49:59.189Z</time></trkpt><trkpt lat="46.2751599" lon="12.9278276"><ele>469.4</ele><time>2026-04-19T08:50:00.189Z</time></trkpt><trkpt lat="46.2752357" lon="12.9279226"><ele>469.6</ele><time>2026-04-19T08:50:01.187Z</time></trkpt><trkpt lat="46.2753217" lon="12.9280133"><ele>469.8</ele><time>2026-04-19T08:50:02.188Z</time></trkpt><trkpt lat="46.275408" lon="12.9280913"><ele>470.0</ele><time>2026-04-19T08:50:03.187Z</time></trkpt><trkpt lat="46.2754848" lon="12.9281637"><ele>469.99999999999994</ele><time>2026-04-19T08:50:04.188Z</time></trkpt><trkpt lat="46.2755414" lon="12.9282569"><ele>470.0</ele><time>2026-04-19T08:50:05.187Z</time></trkpt><trkpt lat="46.2755778" lon="12.9283645"><ele>470.0</ele><time>2026-04-19T08:50:06.188Z</time></trkpt><trkpt lat="46.2756084" lon="12.9284727"><ele>470.0</ele><time>2026-04-19T08:50:07.188Z</time></trkpt><trkpt lat="46.2756386" lon="12.9285741"><ele>469.99999999999994</ele><time>2026-04-19T08:50:08.188Z</time></trkpt><trkpt lat="46.2756649" lon="12.9286787"><ele>470.0</ele><time>2026-04-19T08:50:09.188Z</time></trkpt><trkpt lat="46.2756727" lon="12.9287963"><ele>470.2</ele><time>2026-04-19T08:50:10.188Z</time></trkpt><trkpt lat="46.2756674" lon="12.9289151"><ele>470.4</ele><time>2026-04-19T08:50:11.188Z</time></trkpt><trkpt lat="46.2756581" lon="12.9290586"><ele>470.6</ele><time>2026-04-19T08:50:12.187Z</time></trkpt><trkpt lat="46.275591" lon="12.9292236"><ele>470.8</ele><time>2026-04-19T08:50:13.188Z</time></trkpt><trkpt lat="46.2755555" lon="12.929385"><ele>471.0</ele><time>2026-04-19T08:50:14.188Z</time></trkpt><trkpt lat="46.2755173" lon="12.9295401"><ele>470.6</ele><time>2026-04-19T08:50:15.188Z</time></trkpt><trkpt lat="46.2754779" lon="12.9296807"><ele>470.20000000000005</ele><time>2026-04-19T08:50:16.188Z</time></trkpt><trkpt lat="46.2754456" lon="12.9298198"><ele>469.79999999999995</ele><time>2026-04-19T08:50:17.188Z</time></trkpt><trkpt lat="46.2754141" lon="12.9299551"><ele>469.4</ele><time>2026-04-19T08:50:18.188Z</time></trkpt><trkpt lat="46.2754938" lon="12.9300648"><ele>469.0</ele><time>2026-04-19T08:50:19.189Z</time></trkpt><trkpt lat="46.2755013" lon="12.93018"><ele>467.2</ele><time>2026-04-19T08:50:20.188Z</time></trkpt><trkpt lat="46.275526" lon="12.9302916"><ele>465.4</ele><time>2026-04-19T08:50:21.188Z</time></trkpt><trkpt lat="46.2755896" lon="12.9303813"><ele>463.6</ele><time>2026-04-19T08:50:22.187Z</time></trkpt><trkpt lat="46.275538" lon="12.9305451"><ele>461.8</ele><time>2026-04-19T08:50:23.188Z</time></trkpt><trkpt lat="46.2754914" lon="12.9306763"><ele>460.0</ele><time>2026-04-19T08:50:24.189Z</time></trkpt><trkpt lat="46.2754517" lon="12.9308174"><ele>459.6</ele><time>2026-04-19T08:50:25.189Z</time></trkpt><trkpt lat="46.2753812" lon="12.9309537"><ele>459.2</ele><time>2026-04-19T08:50:26.188Z</time></trkpt><trkpt lat="46.2753354" lon="12.9310957"><ele>458.79999999999995</ele><time>2026-04-19T08:50:27.188Z</time></trkpt><trkpt lat="46.2753094" lon="12.9312371"><ele>458.4</ele><time>2026-04-19T08:50:28.189Z</time></trkpt><trkpt lat="46.2752786" lon="12.9313753"><ele>458.0</ele><time>2026-04-19T08:50:29.189Z</time></trkpt><trkpt lat="46.2752572" lon="12.9314874"><ele>458.0</ele><time>2026-04-19T08:50:30.187Z</time></trkpt><trkpt lat="46.2753067" lon="12.9316053"><ele>457.99999999999994</ele><time>2026-04-19T08:50:31.188Z</time></trkpt><trkpt lat="46.2753711" lon="12.9316617"><ele>457.99999999999994</ele><time>2026-04-19T08:50:32.187Z</time></trkpt><trkpt lat="46.2755057" lon="12.9317288"><ele>458.0</ele><time>2026-04-19T08:50:33.189Z</time></trkpt><trkpt lat="46.2755822" lon="12.9318153"><ele>458.0</ele><time>2026-04-19T08:50:34.187Z</time></trkpt><trkpt lat="46.2756113" lon="12.9319245"><ele>451.0</ele><time>2026-04-19T08:50:35.188Z</time></trkpt><trkpt lat="46.2756372" lon="12.9320585"><ele>443.99999999999994</ele><time>2026-04-19T08:50:36.188Z</time></trkpt><trkpt lat="46.2756568" lon="12.9322007"><ele>437.0</ele><time>2026-04-19T08:50:37.187Z</time></trkpt><trkpt lat="46.2756734" lon="12.9323401"><ele>430.0</ele><time>2026-04-19T08:50:38.188Z</time></trkpt><trkpt lat="46.2756808" lon="12.9324738"><ele>423.0</ele><time>2026-04-19T08:50:39.188Z</time></trkpt><trkpt lat="46.2756917" lon="12.9325861"><ele>423.0</ele><time>2026-04-19T08:50:40.188Z</time></trkpt><trkpt lat="46.2757193" lon="12.9326823"><ele>423.0</ele><time>2026-04-19T08:50:41.188Z</time></trkpt><trkpt lat="46.275806" lon="12.9327856"><ele>423.0</ele><time>2026-04-19T08:50:43.188Z</time></trkpt><trkpt lat="46.2758577" lon="12.9327251"><ele>423.0</ele><time>2026-04-19T08:50:44.188Z</time></trkpt><trkpt lat="46.2759172" lon="12.9326111"><ele>423.0</ele><time>2026-04-19T08:50:46.187Z</time></trkpt><trkpt lat="46.275936" lon="12.9325184"><ele>423.0</ele><time>2026-04-19T08:50:47.188Z</time></trkpt><trkpt lat="46.2759016" lon="12.9323249"><ele>423.0</ele><time>2026-04-19T08:50:48.188Z</time></trkpt><trkpt lat="46.2759328" lon="12.9321465"><ele>423.0</ele><time>2026-04-19T08:50:49.188Z</time></trkpt><trkpt lat="46.2759982" lon="12.9319942"><ele>423.0</ele><time>2026-04-19T08:50:50.189Z</time></trkpt><trkpt lat="46.2760558" lon="12.9318952"><ele>423.0</ele><time>2026-04-19T08:50:51.188Z</time></trkpt><trkpt lat="46.2761217" lon="12.9318272"><ele>423.0</ele><time>2026-04-19T08:50:52.188Z</time></trkpt><trkpt lat="46.2761931" lon="12.9318165"><ele>423.0</ele><time>2026-04-19T08:50:53.187Z</time></trkpt><trkpt lat="46.2762543" lon="12.9318628"><ele>423.0</ele><time>2026-04-19T08:50:54.188Z</time></trkpt><trkpt lat="46.2763076" lon="12.931966"><ele>423.0</ele><time>2026-04-19T08:50:55.188Z</time></trkpt><trkpt lat="46.2763662" lon="12.9320952"><ele>423.0</ele><time>2026-04-19T08:50:56.187Z</time></trkpt><trkpt lat="46.2764328" lon="12.9322415"><ele>423.0</ele><time>2026-04-19T08:50:57.188Z</time></trkpt><trkpt lat="46.2765056" lon="12.932396"><ele>419.75</ele><time>2026-04-19T08:50:58.189Z</time></trkpt><trkpt lat="46.2765771" lon="12.932565"><ele>416.5</ele><time>2026-04-19T08:50:59.188Z</time></trkpt><trkpt lat="46.2766492" lon="12.932733"><ele>413.25</ele><time>2026-04-19T08:51:00.189Z</time></trkpt><trkpt lat="46.2767214" lon="12.9329177"><ele>410.0</ele><time>2026-04-19T08:51:01.188Z</time></trkpt><trkpt lat="46.2767959" lon="12.933097"><ele>410.0</ele><time>2026-04-19T08:51:02.188Z</time></trkpt><trkpt lat="46.2768676" lon="12.9332512"><ele>410.0</ele><time>2026-04-19T08:51:03.189Z</time></trkpt><trkpt lat="46.2769368" lon="12.933403"><ele>410.0</ele><time>2026-04-19T08:51:04.187Z</time></trkpt><trkpt lat="46.2770245" lon="12.9335429"><ele>410.0</ele><time>2026-04-19T08:51:05.187Z</time></trkpt><trkpt lat="46.2770829" lon="12.9337"><ele>406.75</ele><time>2026-04-19T08:51:06.188Z</time></trkpt><trkpt lat="46.2771215" lon="12.9338838"><ele>403.5</ele><time>2026-04-19T08:51:07.188Z</time></trkpt><trkpt lat="46.2771524" lon="12.9340895"><ele>400.25</ele><time>2026-04-19T08:51:08.188Z</time></trkpt><trkpt lat="46.2771392" lon="12.9343181"><ele>397.0</ele><time>2026-04-19T08:51:09.188Z</time></trkpt><trkpt lat="46.277155" lon="12.9345173"><ele>395.0</ele><time>2026-04-19T08:51:10.187Z</time></trkpt><trkpt lat="46.2771389" lon="12.9347024"><ele>393.0</ele><time>2026-04-19T08:51:11.188Z</time></trkpt><trkpt lat="46.2771078" lon="12.9348693"><ele>391.0</ele><time>2026-04-19T08:51:12.188Z</time></trkpt><trkpt lat="46.2770559" lon="12.9350115"><ele>389.0</ele><time>2026-04-19T08:51:13.189Z</time></trkpt><trkpt lat="46.2770172" lon="12.9351471"><ele>388.2</ele><time>2026-04-19T08:51:14.188Z</time></trkpt><trkpt lat="46.2770111" lon="12.9352862"><ele>387.4</ele><time>2026-04-19T08:51:15.188Z</time></trkpt><trkpt lat="46.2769983" lon="12.9354312"><ele>386.6</ele><time>2026-04-19T08:51:16.188Z</time></trkpt><trkpt lat="46.2770429" lon="12.9355562"><ele>385.8</ele><time>2026-04-19T08:51:17.188Z</time></trkpt><trkpt lat="46.2770828" lon="12.9356761"><ele>385.0</ele><time>2026-04-19T08:51:18.188Z</time></trkpt><trkpt lat="46.2771323" lon="12.9357678"><ele>385.0</ele><time>2026-04-19T08:51:19.188Z</time></trkpt><trkpt lat="46.2771464" lon="12.9358682"><ele>385.0</ele><time>2026-04-19T08:51:20.188Z</time></trkpt><trkpt lat="46.2771283" lon="12.9359636"><ele>385.0</ele><time>2026-04-19T08:51:21.189Z</time></trkpt><trkpt lat="46.2769897" lon="12.9360124"><ele>385.0</ele><time>2026-04-19T08:51:23.189Z</time></trkpt><trkpt lat="46.2769066" lon="12.935996"><ele>385.0</ele><time>2026-04-19T08:51:24.188Z</time></trkpt><trkpt lat="46.2768217" lon="12.9359818"><ele>385.00000000000006</ele><time>2026-04-19T08:51:25.188Z</time></trkpt><trkpt lat="46.2767383" lon="12.9359581"><ele>385.0</ele><time>2026-04-19T08:51:26.188Z</time></trkpt><trkpt lat="46.2766611" lon="12.9359247"><ele>385.0</ele><time>2026-04-19T08:51:27.188Z</time></trkpt><trkpt lat="46.2766084" lon="12.9358692"><ele>385.0</ele><time>2026-04-19T08:51:28.188Z</time></trkpt><trkpt lat="46.276576" lon="12.9357037"><ele>385.00000000000006</ele><time>2026-04-19T08:51:30.188Z</time></trkpt><trkpt lat="46.2766233" lon="12.9356143"><ele>385.0</ele><time>2026-04-19T08:51:31.188Z</time></trkpt><trkpt lat="46.276675" lon="12.9355016"><ele>385.00000000000006</ele><time>2026-04-19T08:51:32.188Z</time></trkpt><trkpt lat="46.2767225" lon="12.9354216"><ele>385.0</ele><time>2026-04-19T08:51:33.188Z</time></trkpt><trkpt lat="46.2767583" lon="12.9353293"><ele>385.0</ele><time>2026-04-19T08:51:34.187Z</time></trkpt><trkpt lat="46.2766947" lon="12.9352572"><ele>385.0</ele><time>2026-04-19T08:51:35.188Z</time></trkpt><trkpt lat="46.2766405" lon="12.935144"><ele>385.00000000000006</ele><time>2026-04-19T08:51:37.187Z</time></trkpt><trkpt lat="46.2765551" lon="12.9352675"><ele>385.0</ele><time>2026-04-19T08:51:39.187Z</time></trkpt><trkpt lat="46.2765166" lon="12.9354108"><ele>385.0</ele><time>2026-04-19T08:51:40.188Z</time></trkpt><trkpt lat="46.2764693" lon="12.9355687"><ele>385.0</ele><time>2026-04-19T08:51:41.187Z</time></trkpt><trkpt lat="46.2764183" lon="12.9356911"><ele>385.0</ele><time>2026-04-19T08:51:42.188Z</time></trkpt><trkpt lat="46.2763661" lon="12.9358083"><ele>385.0</ele><time>2026-04-19T08:51:43.188Z</time></trkpt><trkpt lat="46.2763977" lon="12.9360324"><ele>383.0</ele><time>2026-04-19T08:51:45.188Z</time></trkpt><trkpt lat="46.2764069" lon="12.9361478"><ele>381.0</ele><time>2026-04-19T08:51:46.187Z</time></trkpt><trkpt lat="46.2764285" lon="12.9362886"><ele>379.0</ele><time>2026-04-19T08:51:47.187Z</time></trkpt><trkpt lat="46.2764421" lon="12.9364329"><ele>377.0</ele><time>2026-04-19T08:51:48.188Z</time></trkpt><trkpt lat="46.2765404" lon="12.9364539"><ele>375.0</ele><time>2026-04-19T08:51:49.187Z</time></trkpt><trkpt lat="46.2766264" lon="12.9365225"><ele>375.0</ele><time>2026-04-19T08:51:50.188Z</time></trkpt><trkpt lat="46.2767269" lon="12.936566"><ele>375.0</ele><time>2026-04-19T08:51:51.188Z</time></trkpt><trkpt lat="46.2768112" lon="12.9366286"><ele>375.0</ele><time>2026-04-19T08:51:52.188Z</time></trkpt><trkpt lat="46.2769058" lon="12.9366866"><ele>375.0</ele><time>2026-04-19T08:51:53.187Z</time></trkpt><trkpt lat="46.2769721" lon="12.9367665"><ele>375.0</ele><time>2026-04-19T08:51:54.189Z</time></trkpt><trkpt lat="46.2770574" lon="12.9368458"><ele>373.3333333333333</ele><time>2026-04-19T08:51:55.188Z</time></trkpt><trkpt lat="46.2770693" lon="12.9369537"><ele>371.6666666666667</ele><time>2026-04-19T08:51:56.188Z</time></trkpt><trkpt lat="46.2770882" lon="12.9371135"><ele>370.0</ele><time>2026-04-19T08:51:57.187Z</time></trkpt><trkpt lat="46.2770234" lon="12.9372329"><ele>368.33333333333337</ele><time>2026-04-19T08:51:58.188Z</time></trkpt><trkpt lat="46.2770352" lon="12.9373275"><ele>366.6666666666667</ele><time>2026-04-19T08:51:59.188Z</time></trkpt><trkpt lat="46.2770512" lon="12.9374365"><ele>365.0</ele><time>2026-04-19T08:52:00.188Z</time></trkpt><trkpt lat="46.2770544" lon="12.9375534"><ele>363.33333333333337</ele><time>2026-04-19T08:52:01.187Z</time></trkpt><trkpt lat="46.2770292" lon="12.937667"><ele>361.6666666666667</ele><time>2026-04-19T08:52:02.188Z</time></trkpt><trkpt lat="46.2769733" lon="12.9377744"><ele>360.0</ele><time>2026-04-19T08:52:03.187Z</time></trkpt><trkpt lat="46.2768968" lon="12.9378411"><ele>358.3333333333333</ele><time>2026-04-19T08:52:04.188Z</time></trkpt><trkpt lat="46.2768246" lon="12.9378837"><ele>356.66666666666663</ele><time>2026-04-19T08:52:05.187Z</time></trkpt><trkpt lat="46.2767596" lon="12.9379012"><ele>355.0</ele><time>2026-04-19T08:52:06.188Z</time></trkpt><trkpt lat="46.2766768" lon="12.9379719"><ele>355.0</ele><time>2026-04-19T08:52:08.189Z</time></trkpt><trkpt lat="46.2766921" lon="12.938086"><ele>355.0</ele><time>2026-04-19T08:52:11.187Z</time></trkpt><trkpt lat="46.2767848" lon="12.938122"><ele>355.0</ele><time>2026-04-19T08:52:13.188Z</time></trkpt><trkpt lat="46.276886" lon="12.9380757"><ele>355.0</ele><time>2026-04-19T08:52:14.187Z</time></trkpt><trkpt lat="46.2769957" lon="12.9380566"><ele>355.0</ele><time>2026-04-19T08:52:15.189Z</time></trkpt><trkpt lat="46.2771221" lon="12.9380295"><ele>355.0</ele><time>2026-04-19T08:52:16.188Z</time></trkpt><trkpt lat="46.27725" lon="12.9380056"><ele>355.0</ele><time>2026-04-19T08:52:17.188Z</time></trkpt><trkpt lat="46.2773986" lon="12.9379803"><ele>355.0</ele><time>2026-04-19T08:52:18.188Z</time></trkpt><trkpt lat="46.2775426" lon="12.9379537"><ele>355.0</ele><time>2026-04-19T08:52:19.188Z</time></trkpt><trkpt lat="46.2776921" lon="12.9379274"><ele>355.0</ele><time>2026-04-19T08:52:20.188Z</time></trkpt><trkpt lat="46.2778437" lon="12.937909"><ele>355.0</ele><time>2026-04-19T08:52:21.188Z</time></trkpt><trkpt lat="46.2780028" lon="12.9378869"><ele>355.0</ele><time>2026-04-19T08:52:22.188Z</time></trkpt><trkpt lat="46.278164" lon="12.9378627"><ele>356.66666666666663</ele><time>2026-04-19T08:52:23.187Z</time></trkpt><trkpt lat="46.2783305" lon="12.9378428"><ele>358.3333333333333</ele><time>2026-04-19T08:52:24.188Z</time></trkpt><trkpt lat="46.2785074" lon="12.9378108"><ele>360.0</ele><time>2026-04-19T08:52:25.187Z</time></trkpt><trkpt lat="46.2786793" lon="12.937789"><ele>360.0</ele><time>2026-04-19T08:52:26.187Z</time></trkpt><trkpt lat="46.2788439" lon="12.9377693"><ele>360.0</ele><time>2026-04-19T08:52:27.188Z</time></trkpt><trkpt lat="46.2789978" lon="12.9377434"><ele>360.0</ele><time>2026-04-19T08:52:28.188Z</time></trkpt><trkpt lat="46.2791382" lon="12.937716"><ele>359.75</ele><time>2026-04-19T08:52:29.189Z</time></trkpt><trkpt lat="46.2792654" lon="12.9376802"><ele>359.5</ele><time>2026-04-19T08:52:30.189Z</time></trkpt><trkpt lat="46.2793718" lon="12.9376162"><ele>359.25</ele><time>2026-04-19T08:52:31.188Z</time></trkpt><trkpt lat="46.2794795" lon="12.937532"><ele>359.0</ele><time>2026-04-19T08:52:32.188Z</time></trkpt><trkpt lat="46.2795817" lon="12.9374305"><ele>358.25</ele><time>2026-04-19T08:52:33.189Z</time></trkpt><trkpt lat="46.2796716" lon="12.9373015"><ele>357.5</ele><time>2026-04-19T08:52:34.187Z</time></trkpt><trkpt lat="46.2797286" lon="12.9371459"><ele>356.75</ele><time>2026-04-19T08:52:35.188Z</time></trkpt><trkpt lat="46.279743" lon="12.9369451"><ele>356.0</ele><time>2026-04-19T08:52:36.189Z</time></trkpt><trkpt lat="46.2797855" lon="12.9367791"><ele>353.0</ele><time>2026-04-19T08:52:37.188Z</time></trkpt><trkpt lat="46.2798229" lon="12.9365933"><ele>350.0</ele><time>2026-04-19T08:52:38.188Z</time></trkpt><trkpt lat="46.279872" lon="12.9364165"><ele>347.0</ele><time>2026-04-19T08:52:39.188Z</time></trkpt><trkpt lat="46.2799383" lon="12.9362561"><ele>344.0</ele><time>2026-04-19T08:52:40.188Z</time></trkpt><trkpt lat="46.2800271" lon="12.9361021"><ele>344.0</ele><time>2026-04-19T08:52:41.187Z</time></trkpt><trkpt lat="46.2801128" lon="12.9359635"><ele>344.0</ele><time>2026-04-19T08:52:42.187Z</time></trkpt><trkpt lat="46.2802244" lon="12.9358562"><ele>344.0</ele><time>2026-04-19T08:52:43.188Z</time></trkpt><trkpt lat="46.2803367" lon="12.9357546"><ele>344.0</ele><time>2026-04-19T08:52:44.188Z</time></trkpt><trkpt lat="46.2804877" lon="12.9357066"><ele>343.6666666666667</ele><time>2026-04-19T08:52:45.188Z</time></trkpt><trkpt lat="46.2806305" lon="12.9356352"><ele>343.3333333333333</ele><time>2026-04-19T08:52:46.189Z</time></trkpt><trkpt lat="46.2807814" lon="12.9355648"><ele>343.0</ele><time>2026-04-19T08:52:47.188Z</time></trkpt><trkpt lat="46.2809337" lon="12.9354817"><ele>343.0</ele><time>2026-04-19T08:52:48.188Z</time></trkpt><trkpt lat="46.2810822" lon="12.9353842"><ele>343.0</ele><time>2026-04-19T08:52:49.187Z</time></trkpt><trkpt lat="46.2812306" lon="12.9352801"><ele>343.0</ele><time>2026-04-19T08:52:50.188Z</time></trkpt><trkpt lat="46.2813795" lon="12.9351847"><ele>342.66666666666663</ele><time>2026-04-19T08:52:51.187Z</time></trkpt><trkpt lat="46.2815313" lon="12.935101"><ele>342.3333333333333</ele><time>2026-04-19T08:52:52.188Z</time></trkpt><trkpt lat="46.281676" lon="12.9350409"><ele>342.0</ele><time>2026-04-19T08:52:53.187Z</time></trkpt><trkpt lat="46.2818111" lon="12.9349893"><ele>342.0</ele><time>2026-04-19T08:52:54.188Z</time></trkpt><trkpt lat="46.2819496" lon="12.9349709"><ele>342.0</ele><time>2026-04-19T08:52:55.188Z</time></trkpt><trkpt lat="46.2820684" lon="12.9349497"><ele>342.0</ele><time>2026-04-19T08:52:56.188Z</time></trkpt><trkpt lat="46.2821825" lon="12.934943"><ele>342.0</ele><time>2026-04-19T08:52:57.188Z</time></trkpt><trkpt lat="46.2823012" lon="12.9349532"><ele>342.0</ele><time>2026-04-19T08:52:58.187Z</time></trkpt><trkpt lat="46.2824088" lon="12.9349668"><ele>342.0</ele><time>2026-04-19T08:52:59.187Z</time></trkpt><trkpt lat="46.2825119" lon="12.9350366"><ele>342.0</ele><time>2026-04-19T08:53:00.186Z</time></trkpt><trkpt lat="46.2826089" lon="12.9351075"><ele>342.0</ele><time>2026-04-19T08:53:01.188Z</time></trkpt><trkpt lat="46.2826881" lon="12.9351858"><ele>342.0</ele><time>2026-04-19T08:53:02.187Z</time></trkpt><trkpt lat="46.2827608" lon="12.9352795"><ele>343.8333333333333</ele><time>2026-04-19T08:53:03.187Z</time></trkpt><trkpt lat="46.2828177" lon="12.9353767"><ele>345.6666666666667</ele><time>2026-04-19T08:53:04.186Z</time></trkpt><trkpt lat="46.2828633" lon="12.9354786"><ele>347.5</ele><time>2026-04-19T08:53:05.187Z</time></trkpt><trkpt lat="46.282902" lon="12.9355865"><ele>349.33333333333337</ele><time>2026-04-19T08:53:06.187Z</time></trkpt><trkpt lat="46.2829283" lon="12.9356827"><ele>351.1666666666667</ele><time>2026-04-19T08:53:07.187Z</time></trkpt><trkpt lat="46.2829419" lon="12.9357718"><ele>353.0</ele><time>2026-04-19T08:53:08.186Z</time></trkpt><trkpt lat="46.2829435" lon="12.9359312"><ele>353.0</ele><time>2026-04-19T08:53:10.187Z</time></trkpt><trkpt lat="46.2829211" lon="12.936022"><ele>353.0</ele><time>2026-04-19T08:53:11.186Z</time></trkpt><trkpt lat="46.2828937" lon="12.936133"><ele>353.0</ele><time>2026-04-19T08:53:12.187Z</time></trkpt><trkpt lat="46.2828711" lon="12.9362531"><ele>353.0</ele><time>2026-04-19T08:53:13.187Z</time></trkpt><trkpt lat="46.2828453" lon="12.9363867"><ele>353.0</ele><time>2026-04-19T08:53:14.187Z</time></trkpt><trkpt lat="46.2828227" lon="12.9365203"><ele>353.0</ele><time>2026-04-19T08:53:15.186Z</time></trkpt><trkpt lat="46.2828218" lon="12.9366909"><ele>355.0</ele><time>2026-04-19T08:53:16.187Z</time></trkpt><trkpt lat="46.2828181" lon="12.9368642"><ele>357.0</ele><time>2026-04-19T08:53:17.187Z</time></trkpt><trkpt lat="46.282842" lon="12.9370494"><ele>359.0</ele><time>2026-04-19T08:53:18.187Z</time></trkpt><trkpt lat="46.2828712" lon="12.937232"><ele>361.0</ele><time>2026-04-19T08:53:19.187Z</time></trkpt><trkpt lat="46.282899" lon="12.9374164"><ele>364.20000000000005</ele><time>2026-04-19T08:53:20.186Z</time></trkpt><trkpt lat="46.2829272" lon="12.9375953"><ele>367.40000000000003</ele><time>2026-04-19T08:53:21.187Z</time></trkpt><trkpt lat="46.2829565" lon="12.9377745"><ele>370.6</ele><time>2026-04-19T08:53:22.187Z</time></trkpt><trkpt lat="46.2829771" lon="12.9379215"><ele>373.8</ele><time>2026-04-19T08:53:23.187Z</time></trkpt><trkpt lat="46.2830003" lon="12.9380427"><ele>377.0</ele><time>2026-04-19T08:53:24.187Z</time></trkpt><trkpt lat="46.2830596" lon="12.9380739"><ele>378.20000000000005</ele><time>2026-04-19T08:53:25.186Z</time></trkpt><trkpt lat="46.283177" lon="12.9381716"><ele>379.4</ele><time>2026-04-19T08:53:27.187Z</time></trkpt><trkpt lat="46.2832509" lon="12.938231"><ele>380.6</ele><time>2026-04-19T08:53:28.187Z</time></trkpt><trkpt lat="46.2833212" lon="12.9383216"><ele>381.79999999999995</ele><time>2026-04-19T08:53:29.187Z</time></trkpt><trkpt lat="46.2834052" lon="12.9384264"><ele>383.0</ele><time>2026-04-19T08:53:30.187Z</time></trkpt><trkpt lat="46.2834836" lon="12.9385426"><ele>383.0</ele><time>2026-04-19T08:53:31.186Z</time></trkpt><trkpt lat="46.2835611" lon="12.9386688"><ele>383.0</ele><time>2026-04-19T08:53:32.187Z</time></trkpt><trkpt lat="46.2836364" lon="12.9387964"><ele>383.0</ele><time>2026-04-19T08:53:33.188Z</time></trkpt><trkpt lat="46.2837037" lon="12.9389463"><ele>383.0</ele><time>2026-04-19T08:53:34.186Z</time></trkpt><trkpt lat="46.2837632" lon="12.9391047"><ele>381.0</ele><time>2026-04-19T08:53:35.188Z</time></trkpt><trkpt lat="46.2838123" lon="12.9392771"><ele>379.0</ele><time>2026-04-19T08:53:36.186Z</time></trkpt><trkpt lat="46.2838586" lon="12.9394542"><ele>377.0</ele><time>2026-04-19T08:53:37.187Z</time></trkpt><trkpt lat="46.2839075" lon="12.9396142"><ele>375.0</ele><time>2026-04-19T08:53:38.186Z</time></trkpt><trkpt lat="46.2839662" lon="12.9397385"><ele>375.0</ele><time>2026-04-19T08:53:39.188Z</time></trkpt><trkpt lat="46.2840312" lon="12.9398718"><ele>375.0</ele><time>2026-04-19T08:53:40.187Z</time></trkpt><trkpt lat="46.2841146" lon="12.9399966"><ele>375.0</ele><time>2026-04-19T08:53:41.187Z</time></trkpt><trkpt lat="46.2842026" lon="12.9401225"><ele>375.0</ele><time>2026-04-19T08:53:42.187Z</time></trkpt><trkpt lat="46.2842969" lon="12.9402502"><ele>382.0</ele><time>2026-04-19T08:53:43.187Z</time></trkpt><trkpt lat="46.2843971" lon="12.9403827"><ele>389.0</ele><time>2026-04-19T08:53:44.187Z</time></trkpt><trkpt lat="46.2844969" lon="12.9405189"><ele>396.0</ele><time>2026-04-19T08:53:45.186Z</time></trkpt><trkpt lat="46.2845889" lon="12.9406518"><ele>403.0</ele><time>2026-04-19T08:53:46.187Z</time></trkpt><trkpt lat="46.2846692" lon="12.9407848"><ele>403.59999999999997</ele><time>2026-04-19T08:53:47.187Z</time></trkpt><trkpt lat="46.2847519" lon="12.9409078"><ele>404.2</ele><time>2026-04-19T08:53:48.187Z</time></trkpt><trkpt lat="46.2848231" lon="12.9410211"><ele>404.8</ele><time>2026-04-19T08:53:49.187Z</time></trkpt><trkpt lat="46.2848664" lon="12.9411149"><ele>405.4</ele><time>2026-04-19T08:53:50.186Z</time></trkpt><trkpt lat="46.2849186" lon="12.9411782"><ele>406.0</ele><time>2026-04-19T08:53:51.187Z</time></trkpt><trkpt lat="46.284981" lon="12.941306"><ele>406.0</ele><time>2026-04-19T08:53:53.187Z</time></trkpt><trkpt lat="46.2849298" lon="12.9414355"><ele>406.0</ele><time>2026-04-19T08:53:55.187Z</time></trkpt><trkpt lat="46.2848534" lon="12.9415049"><ele>406.0</ele><time>2026-04-19T08:53:57.187Z</time></trkpt><trkpt lat="46.2847755" lon="12.9414221"><ele>406.0</ele><time>2026-04-19T08:53:58.187Z</time></trkpt><trkpt lat="46.2846972" lon="12.9413185"><ele>406.0</ele><time>2026-04-19T08:53:59.187Z</time></trkpt><trkpt lat="46.2845853" lon="12.9411031"><ele>405.50000000000006</ele><time>2026-04-19T08:54:00.187Z</time></trkpt><trkpt lat="46.2845648" lon="12.9409679"><ele>405.0</ele><time>2026-04-19T08:54:01.187Z</time></trkpt><trkpt lat="46.2845146" lon="12.9408678"><ele>404.5</ele><time>2026-04-19T08:54:02.187Z</time></trkpt><trkpt lat="46.2844571" lon="12.9407908"><ele>404.0</ele><time>2026-04-19T08:54:03.187Z</time></trkpt><trkpt lat="46.2843544" lon="12.9407923"><ele>403.50000000000006</ele><time>2026-04-19T08:54:04.188Z</time></trkpt><trkpt lat="46.2842759" lon="12.9407487"><ele>403.0</ele><time>2026-04-19T08:54:05.187Z</time></trkpt><trkpt lat="46.284196" lon="12.9407064"><ele>403.0</ele><time>2026-04-19T08:54:06.186Z</time></trkpt><trkpt lat="46.2841058" lon="12.9406764"><ele>403.0</ele><time>2026-04-19T08:54:07.187Z</time></trkpt><trkpt lat="46.2840276" lon="12.9406247"><ele>403.0</ele><time>2026-04-19T08:54:08.187Z</time></trkpt><trkpt lat="46.2839378" lon="12.9405756"><ele>403.0</ele><time>2026-04-19T08:54:09.187Z</time></trkpt><trkpt lat="46.283854" lon="12.9405241"><ele>403.0</ele><time>2026-04-19T08:54:10.186Z</time></trkpt><trkpt lat="46.2837825" lon="12.9403596"><ele>403.79999999999995</ele><time>2026-04-19T08:54:11.187Z</time></trkpt><trkpt lat="46.2837005" lon="12.9402367"><ele>404.6</ele><time>2026-04-19T08:54:12.186Z</time></trkpt><trkpt lat="46.2836173" lon="12.9401268"><ele>405.4</ele><time>2026-04-19T08:54:13.187Z</time></trkpt><trkpt lat="46.2835524" lon="12.9400232"><ele>406.20000000000005</ele><time>2026-04-19T08:54:14.186Z</time></trkpt><trkpt lat="46.2834789" lon="12.9399173"><ele>407.0</ele><time>2026-04-19T08:54:15.187Z</time></trkpt><trkpt lat="46.2834134" lon="12.9398816"><ele>407.0</ele><time>2026-04-19T08:54:16.187Z</time></trkpt><trkpt lat="46.283327" lon="12.9398612"><ele>407.0</ele><time>2026-04-19T08:54:18.187Z</time></trkpt><trkpt lat="46.2832467" lon="12.9398737"><ele>407.0</ele><time>2026-04-19T08:54:19.186Z</time></trkpt><trkpt lat="46.2831468" lon="12.9399096"><ele>407.0</ele><time>2026-04-19T08:54:20.187Z</time></trkpt><trkpt lat="46.2830537" lon="12.9399498"><ele>407.0</ele><time>2026-04-19T08:54:21.187Z</time></trkpt><trkpt lat="46.2829542" lon="12.9399941"><ele>408.20000000000005</ele><time>2026-04-19T08:54:22.187Z</time></trkpt><trkpt lat="46.2828743" lon="12.9400637"><ele>409.4</ele><time>2026-04-19T08:54:23.187Z</time></trkpt><trkpt lat="46.2827586" lon="12.9400472"><ele>410.6</ele><time>2026-04-19T08:54:24.186Z</time></trkpt><trkpt lat="46.2826692" lon="12.9400755"><ele>411.79999999999995</ele><time>2026-04-19T08:54:25.188Z</time></trkpt><trkpt lat="46.2825727" lon="12.9401035"><ele>413.0</ele><time>2026-04-19T08:54:26.186Z</time></trkpt><trkpt lat="46.2824724" lon="12.940126"><ele>416.99999999999994</ele><time>2026-04-19T08:54:27.186Z</time></trkpt><trkpt lat="46.2824261" lon="12.940213"><ele>421.0</ele><time>2026-04-19T08:54:28.188Z</time></trkpt><trkpt lat="46.2823749" lon="12.9402701"><ele>425.0</ele><time>2026-04-19T08:54:29.187Z</time></trkpt><trkpt lat="46.2823155" lon="12.9403291"><ele>429.0</ele><time>2026-04-19T08:54:30.187Z</time></trkpt><trkpt lat="46.2822173" lon="12.9404235"><ele>432.99999999999994</ele><time>2026-04-19T08:54:32.187Z</time></trkpt><trkpt lat="46.2821194" lon="12.9403406"><ele>437.0</ele><time>2026-04-19T08:54:33.187Z</time></trkpt><trkpt lat="46.2820266" lon="12.9403514"><ele>436.99999999999994</ele><time>2026-04-19T08:54:34.186Z</time></trkpt><trkpt lat="46.2819365" lon="12.940377"><ele>437.0</ele><time>2026-04-19T08:54:35.187Z</time></trkpt><trkpt lat="46.2818652" lon="12.9404265"><ele>437.0</ele><time>2026-04-19T08:54:36.186Z</time></trkpt><trkpt lat="46.2817759" lon="12.9404672"><ele>437.0</ele><time>2026-04-19T08:54:37.187Z</time></trkpt><trkpt lat="46.2816901" lon="12.9405071"><ele>436.99999999999994</ele><time>2026-04-19T08:54:38.186Z</time></trkpt><trkpt lat="46.2815972" lon="12.940512"><ele>437.0</ele><time>2026-04-19T08:54:39.187Z</time></trkpt><trkpt lat="46.2815291" lon="12.9405213"><ele>437.0</ele><time>2026-04-19T08:54:40.187Z</time></trkpt><trkpt lat="46.2814694" lon="12.9404723"><ele>437.00000000000006</ele><time>2026-04-19T08:54:41.186Z</time></trkpt><trkpt lat="46.281375" lon="12.9404154"><ele>437.00000000000006</ele><time>2026-04-19T08:54:42.187Z</time></trkpt><trkpt lat="46.281299" lon="12.9402577"><ele>437.0</ele><time>2026-04-19T08:54:44.187Z</time></trkpt><trkpt lat="46.2812424" lon="12.9401998"><ele>437.0</ele><time>2026-04-19T08:54:45.187Z</time></trkpt><trkpt lat="46.2811233" lon="12.9401549"><ele>436.49999999999994</ele><time>2026-04-19T08:54:47.186Z</time></trkpt><trkpt lat="46.2810512" lon="12.9401358"><ele>436.0</ele><time>2026-04-19T08:54:48.186Z</time></trkpt><trkpt lat="46.2809898" lon="12.9401061"><ele>435.5</ele><time>2026-04-19T08:54:49.187Z</time></trkpt><trkpt lat="46.2808936" lon="12.9400939"><ele>435.0</ele><time>2026-04-19T08:54:50.187Z</time></trkpt><trkpt lat="46.2808192" lon="12.9401629"><ele>434.49999999999994</ele><time>2026-04-19T08:54:51.187Z</time></trkpt><trkpt lat="46.2807106" lon="12.9402376"><ele>434.0</ele><time>2026-04-19T08:54:53.186Z</time></trkpt><trkpt lat="46.2807404" lon="12.940359"><ele>434.0</ele><time>2026-04-19T08:54:55.187Z</time></trkpt><trkpt lat="46.2807821" lon="12.9404443"><ele>434.0</ele><time>2026-04-19T08:54:56.186Z</time></trkpt><trkpt lat="46.2809246" lon="12.9405268"><ele>434.0</ele><time>2026-04-19T08:54:58.187Z</time></trkpt><trkpt lat="46.2810225" lon="12.9405776"><ele>434.0</ele><time>2026-04-19T08:55:00.187Z</time></trkpt><trkpt lat="46.2810814" lon="12.9406319"><ele>434.0</ele><time>2026-04-19T08:55:01.188Z</time></trkpt><trkpt lat="46.2811417" lon="12.9407398"><ele>433.99999999999994</ele><time>2026-04-19T08:55:02.187Z</time></trkpt><trkpt lat="46.281181" lon="12.9408579"><ele>434.0</ele><time>2026-04-19T08:55:03.186Z</time></trkpt><trkpt lat="46.2812162" lon="12.9409938"><ele>434.0</ele><time>2026-04-19T08:55:05.187Z</time></trkpt><trkpt lat="46.2812779" lon="12.9410384"><ele>434.0</ele><time>2026-04-19T08:55:06.186Z</time></trkpt><trkpt lat="46.2813678" lon="12.9410328"><ele>433.99999999999994</ele><time>2026-04-19T08:55:08.186Z</time></trkpt><trkpt lat="46.2814547" lon="12.9409992"><ele>434.0</ele><time>2026-04-19T08:55:09.186Z</time></trkpt><trkpt lat="46.2815663" lon="12.940972"><ele>440.2</ele><time>2026-04-19T08:55:10.187Z</time></trkpt><trkpt lat="46.2816697" lon="12.9409568"><ele>446.4</ele><time>2026-04-19T08:55:11.187Z</time></trkpt><trkpt lat="46.2817625" lon="12.9409836"><ele>452.6</ele><time>2026-04-19T08:55:12.186Z</time></trkpt><trkpt lat="46.2818614" lon="12.9409833"><ele>458.8</ele><time>2026-04-19T08:55:13.187Z</time></trkpt><trkpt lat="46.2819742" lon="12.9409689"><ele>465.0</ele><time>2026-04-19T08:55:15.186Z</time></trkpt><trkpt lat="46.2820389" lon="12.9410473"><ele>465.0</ele><time>2026-04-19T08:55:17.187Z</time></trkpt><trkpt lat="46.2819803" lon="12.9411563"><ele>465.0</ele><time>2026-04-19T08:55:19.188Z</time></trkpt><trkpt lat="46.2818322" lon="12.9411111"><ele>465.0</ele><time>2026-04-19T08:55:21.188Z</time></trkpt><trkpt lat="46.2817458" lon="12.941075"><ele>465.0</ele><time>2026-04-19T08:55:22.187Z</time></trkpt><trkpt lat="46.2816569" lon="12.9411211"><ele>465.0</ele><time>2026-04-19T08:55:23.187Z</time></trkpt><trkpt lat="46.2815692" lon="12.9411415"><ele>465.0</ele><time>2026-04-19T08:55:24.187Z</time></trkpt><trkpt lat="46.2814776" lon="12.9411988"><ele>465.0</ele><time>2026-04-19T08:55:25.187Z</time></trkpt><trkpt lat="46.2813807" lon="12.9412543"><ele>465.0</ele><time>2026-04-19T08:55:26.188Z</time></trkpt><trkpt lat="46.2813035" lon="12.9413323"><ele>465.0</ele><time>2026-04-19T08:55:27.187Z</time></trkpt><trkpt lat="46.2812246" lon="12.941388"><ele>465.0</ele><time>2026-04-19T08:55:28.186Z</time></trkpt><trkpt lat="46.281155" lon="12.9414663"><ele>465.1666666666667</ele><time>2026-04-19T08:55:29.187Z</time></trkpt><trkpt lat="46.2811014" lon="12.9415815"><ele>465.33333333333337</ele><time>2026-04-19T08:55:30.187Z</time></trkpt><trkpt lat="46.2810656" lon="12.9416735"><ele>465.5</ele><time>2026-04-19T08:55:31.187Z</time></trkpt><trkpt lat="46.2810398" lon="12.9417613"><ele>465.6666666666667</ele><time>2026-04-19T08:55:32.188Z</time></trkpt><trkpt lat="46.2810049" lon="12.9418718"><ele>465.83333333333337</ele><time>2026-04-19T08:55:33.186Z</time></trkpt><trkpt lat="46.2810259" lon="12.9420175"><ele>466.0</ele><time>2026-04-19T08:55:34.187Z</time></trkpt><trkpt lat="46.2809992" lon="12.9421278"><ele>466.0</ele><time>2026-04-19T08:55:35.187Z</time></trkpt><trkpt lat="46.2809724" lon="12.9422479"><ele>466.0</ele><time>2026-04-19T08:55:37.188Z</time></trkpt><trkpt lat="46.280805" lon="12.9421687"><ele>466.0</ele><time>2026-04-19T08:55:39.187Z</time></trkpt><trkpt lat="46.2807312" lon="12.9421176"><ele>466.0</ele><time>2026-04-19T08:55:40.187Z</time></trkpt><trkpt lat="46.2806692" lon="12.9421844"><ele>466.0</ele><time>2026-04-19T08:55:42.187Z</time></trkpt><trkpt lat="46.2806447" lon="12.9422934"><ele>466.00000000000006</ele><time>2026-04-19T08:55:44.186Z</time></trkpt><trkpt lat="46.2806669" lon="12.9423854"><ele>466.0</ele><time>2026-04-19T08:55:45.187Z</time></trkpt><trkpt lat="46.2806672" lon="12.9424793"><ele>466.0</ele><time>2026-04-19T08:55:46.186Z</time></trkpt><trkpt lat="46.2806884" lon="12.942586"><ele>466.0</ele><time>2026-04-19T08:55:47.187Z</time></trkpt><trkpt lat="46.2806943" lon="12.9427038"><ele>466.00000000000006</ele><time>2026-04-19T08:55:48.187Z</time></trkpt><trkpt lat="46.2806852" lon="12.9428228"><ele>466.0</ele><time>2026-04-19T08:55:49.188Z</time></trkpt><trkpt lat="46.2805733" lon="12.9429142"><ele>468.0</ele><time>2026-04-19T08:55:50.187Z</time></trkpt><trkpt lat="46.2805811" lon="12.9430419"><ele>470.0</ele><time>2026-04-19T08:55:51.187Z</time></trkpt><trkpt lat="46.2805547" lon="12.9431806"><ele>472.0</ele><time>2026-04-19T08:55:52.187Z</time></trkpt><trkpt lat="46.2805225" lon="12.9433612"><ele>474.0</ele><time>2026-04-19T08:55:53.186Z</time></trkpt><trkpt lat="46.2805056" lon="12.9435118"><ele>476.0</ele><time>2026-04-19T08:55:54.186Z</time></trkpt><trkpt lat="46.2804813" lon="12.9436472"><ele>477.6</ele><time>2026-04-19T08:55:55.187Z</time></trkpt><trkpt lat="46.280469" lon="12.9438415"><ele>479.20000000000005</ele><time>2026-04-19T08:55:57.187Z</time></trkpt><trkpt lat="46.2804601" lon="12.9439464"><ele>480.79999999999995</ele><time>2026-04-19T08:55:58.187Z</time></trkpt><trkpt lat="46.2805514" lon="12.9440079"><ele>482.4</ele><time>2026-04-19T08:55:59.188Z</time></trkpt><trkpt lat="46.2806428" lon="12.9440654"><ele>484.0</ele><time>2026-04-19T08:56:00.186Z</time></trkpt><trkpt lat="46.2806989" lon="12.9441576"><ele>484.50000000000006</ele><time>2026-04-19T08:56:01.187Z</time></trkpt><trkpt lat="46.2807317" lon="12.9442716"><ele>485.0</ele><time>2026-04-19T08:56:02.186Z</time></trkpt><trkpt lat="46.2807785" lon="12.9443698"><ele>485.5</ele><time>2026-04-19T08:56:03.188Z</time></trkpt><trkpt lat="46.2807872" lon="12.9444654"><ele>486.0</ele><time>2026-04-19T08:56:04.187Z</time></trkpt><trkpt lat="46.2807302" lon="12.944544"><ele>486.50000000000006</ele><time>2026-04-19T08:56:05.187Z</time></trkpt><trkpt lat="46.2806369" lon="12.9445078"><ele>487.0</ele><time>2026-04-19T08:56:07.187Z</time></trkpt><trkpt lat="46.2805382" lon="12.9444652"><ele>487.20000000000005</ele><time>2026-04-19T08:56:08.186Z</time></trkpt><trkpt lat="46.2804183" lon="12.9443413"><ele>487.40000000000003</ele><time>2026-04-19T08:56:10.185Z</time></trkpt><trkpt lat="46.2803596" lon="12.9442307"><ele>487.59999999999997</ele><time>2026-04-19T08:56:11.185Z</time></trkpt><trkpt lat="46.2802794" lon="12.9441502"><ele>487.79999999999995</ele><time>2026-04-19T08:56:12.186Z</time></trkpt><trkpt lat="46.2802114" lon="12.9440471"><ele>488.0</ele><time>2026-04-19T08:56:13.186Z</time></trkpt><trkpt lat="46.2801589" lon="12.9439478"><ele>488.0</ele><time>2026-04-19T08:56:14.185Z</time></trkpt><trkpt lat="46.2800993" lon="12.943853"><ele>487.99999999999994</ele><time>2026-04-19T08:56:15.186Z</time></trkpt><trkpt lat="46.280028" lon="12.9437723"><ele>487.99999999999994</ele><time>2026-04-19T08:56:16.185Z</time></trkpt><trkpt lat="46.2799351" lon="12.9437181"><ele>488.0</ele><time>2026-04-19T08:56:18.187Z</time></trkpt><trkpt lat="46.2798459" lon="12.9437497"><ele>488.0</ele><time>2026-04-19T08:56:19.185Z</time></trkpt><trkpt lat="46.2797666" lon="12.9437427"><ele>491.0</ele><time>2026-04-19T08:56:20.186Z</time></trkpt><trkpt lat="46.2796842" lon="12.9437439"><ele>493.99999999999994</ele><time>2026-04-19T08:56:21.186Z</time></trkpt><trkpt lat="46.2796037" lon="12.943747"><ele>496.99999999999994</ele><time>2026-04-19T08:56:22.185Z</time></trkpt><trkpt lat="46.2795021" lon="12.9436957"><ele>500.0</ele><time>2026-04-19T08:56:23.186Z</time></trkpt><trkpt lat="46.2793775" lon="12.9436903"><ele>503.0</ele><time>2026-04-19T08:56:25.185Z</time></trkpt><trkpt lat="46.2792794" lon="12.9437493"><ele>503.0</ele><time>2026-04-19T08:56:27.185Z</time></trkpt><trkpt lat="46.2793258" lon="12.943855"><ele>502.99999999999994</ele><time>2026-04-19T08:56:28.186Z</time></trkpt><trkpt lat="46.2793204" lon="12.9439588"><ele>502.99999999999994</ele><time>2026-04-19T08:56:30.186Z</time></trkpt><trkpt lat="46.2794261" lon="12.9440235"><ele>503.0</ele><time>2026-04-19T08:56:32.186Z</time></trkpt><trkpt lat="46.2795408" lon="12.9440411"><ele>503.0</ele><time>2026-04-19T08:56:33.186Z</time></trkpt><trkpt lat="46.2796179" lon="12.9440806"><ele>503.0</ele><time>2026-04-19T08:56:34.186Z</time></trkpt><trkpt lat="46.2797312" lon="12.9440584"><ele>502.99999999999994</ele><time>2026-04-19T08:56:35.186Z</time></trkpt><trkpt lat="46.2797895" lon="12.9440236"><ele>502.99999999999994</ele><time>2026-04-19T08:56:36.185Z</time></trkpt><trkpt lat="46.2798533" lon="12.944037"><ele>503.0</ele><time>2026-04-19T08:56:37.186Z</time></trkpt><trkpt lat="46.2799559" lon="12.9440762"><ele>503.0</ele><time>2026-04-19T08:56:39.185Z</time></trkpt><trkpt lat="46.279954" lon="12.9442971"><ele>502.66666666666663</ele><time>2026-04-19T08:56:41.185Z</time></trkpt><trkpt lat="46.279967" lon="12.9444018"><ele>502.3333333333333</ele><time>2026-04-19T08:56:42.186Z</time></trkpt><trkpt lat="46.2799857" lon="12.9445178"><ele>502.0</ele><time>2026-04-19T08:56:43.186Z</time></trkpt><trkpt lat="46.2799792" lon="12.9446321"><ele>501.66666666666663</ele><time>2026-04-19T08:56:44.186Z</time></trkpt><trkpt lat="46.2799855" lon="12.9447271"><ele>501.3333333333333</ele><time>2026-04-19T08:56:45.186Z</time></trkpt><trkpt lat="46.2799901" lon="12.9448294"><ele>501.0</ele><time>2026-04-19T08:56:46.186Z</time></trkpt><trkpt lat="46.2800157" lon="12.9449422"><ele>501.0</ele><time>2026-04-19T08:56:47.186Z</time></trkpt><trkpt lat="46.280035" lon="12.9450456"><ele>501.0</ele><time>2026-04-19T08:56:48.185Z</time></trkpt><trkpt lat="46.2800624" lon="12.9451439"><ele>501.0</ele><time>2026-04-19T08:56:49.186Z</time></trkpt><trkpt lat="46.2801026" lon="12.9452936"><ele>501.0</ele><time>2026-04-19T08:56:50.185Z</time></trkpt><trkpt lat="46.2801427" lon="12.9453753"><ele>501.0</ele><time>2026-04-19T08:56:51.186Z</time></trkpt><trkpt lat="46.2801267" lon="12.9454719"><ele>501.0</ele><time>2026-04-19T08:56:52.187Z</time></trkpt><trkpt lat="46.2801576" lon="12.9455611"><ele>502.20000000000005</ele><time>2026-04-19T08:56:53.186Z</time></trkpt><trkpt lat="46.2800828" lon="12.9457094"><ele>503.40000000000003</ele><time>2026-04-19T08:56:55.186Z</time></trkpt><trkpt lat="46.2799984" lon="12.9458522"><ele>504.6</ele><time>2026-04-19T08:56:57.185Z</time></trkpt><trkpt lat="46.2799716" lon="12.9459433"><ele>505.8</ele><time>2026-04-19T08:56:58.187Z</time></trkpt><trkpt lat="46.2799475" lon="12.9461083"><ele>507.0</ele><time>2026-04-19T08:57:00.186Z</time></trkpt><trkpt lat="46.2799645" lon="12.9461975"><ele>509.5</ele><time>2026-04-19T08:57:01.186Z</time></trkpt><trkpt lat="46.2800301" lon="12.946299"><ele>512.0</ele><time>2026-04-19T08:57:03.186Z</time></trkpt><trkpt lat="46.2800936" lon="12.9463095"><ele>514.5</ele><time>2026-04-19T08:57:04.186Z</time></trkpt><trkpt lat="46.2802262" lon="12.9463297"><ele>517.0</ele><time>2026-04-19T08:57:06.186Z</time></trkpt><trkpt lat="46.2803144" lon="12.9463492"><ele>519.5</ele><time>2026-04-19T08:57:07.186Z</time></trkpt><trkpt lat="46.2803788" lon="12.9463326"><ele>522.0</ele><time>2026-04-19T08:57:08.187Z</time></trkpt><trkpt lat="46.2804557" lon="12.9463252"><ele>522.0</ele><time>2026-04-19T08:57:09.187Z</time></trkpt><trkpt lat="46.2805411" lon="12.9463278"><ele>522.0</ele><time>2026-04-19T08:57:10.186Z</time></trkpt><trkpt lat="46.2806204" lon="12.9463229"><ele>522.0</ele><time>2026-04-19T08:57:11.186Z</time></trkpt><trkpt lat="46.2807368" lon="12.9463848"><ele>522.0</ele><time>2026-04-19T08:57:13.186Z</time></trkpt><trkpt lat="46.2808298" lon="12.9464529"><ele>522.0</ele><time>2026-04-19T08:57:14.186Z</time></trkpt><trkpt lat="46.2808978" lon="12.94649"><ele>522.2</ele><time>2026-04-19T08:57:15.186Z</time></trkpt><trkpt lat="46.2809833" lon="12.9465091"><ele>522.4000000000001</ele><time>2026-04-19T08:57:16.186Z</time></trkpt><trkpt lat="46.2810484" lon="12.9465272"><ele>522.5999999999999</ele><time>2026-04-19T08:57:17.186Z</time></trkpt><trkpt lat="46.2811367" lon="12.9464959"><ele>522.8</ele><time>2026-04-19T08:57:18.186Z</time></trkpt><trkpt lat="46.2812568" lon="12.9464473"><ele>523.0</ele><time>2026-04-19T08:57:20.187Z</time></trkpt><trkpt lat="46.281329" lon="12.9463335"><ele>523.0</ele><time>2026-04-19T08:57:21.185Z</time></trkpt><trkpt lat="46.2813947" lon="12.9462831"><ele>523.0</ele><time>2026-04-19T08:57:22.187Z</time></trkpt><trkpt lat="46.2814589" lon="12.946211"><ele>523.0</ele><time>2026-04-19T08:57:23.186Z</time></trkpt><trkpt lat="46.2815202" lon="12.9461705"><ele>523.0</ele><time>2026-04-19T08:57:24.186Z</time></trkpt><trkpt lat="46.2815941" lon="12.9461442"><ele>523.0</ele><time>2026-04-19T08:57:25.185Z</time></trkpt><trkpt lat="46.2816718" lon="12.9461432"><ele>523.0</ele><time>2026-04-19T08:57:26.186Z</time></trkpt><trkpt lat="46.2817579" lon="12.9461595"><ele>524.4</ele><time>2026-04-19T08:57:27.186Z</time></trkpt><trkpt lat="46.2818423" lon="12.9461743"><ele>525.8</ele><time>2026-04-19T08:57:28.186Z</time></trkpt><trkpt lat="46.2819157" lon="12.9461714"><ele>527.2</ele><time>2026-04-19T08:57:29.187Z</time></trkpt><trkpt lat="46.2820186" lon="12.9462077"><ele>528.6</ele><time>2026-04-19T08:57:31.186Z</time></trkpt><trkpt lat="46.2820791" lon="12.9462862"><ele>530.0</ele><time>2026-04-19T08:57:33.185Z</time></trkpt><trkpt lat="46.2819762" lon="12.9463886"><ele>530.0</ele><time>2026-04-19T08:57:35.185Z</time></trkpt><trkpt lat="46.281892" lon="12.9463201"><ele>530.0</ele><time>2026-04-19T08:57:36.186Z</time></trkpt><trkpt lat="46.2818212" lon="12.9463181"><ele>530.0</ele><time>2026-04-19T08:57:37.186Z</time></trkpt><trkpt lat="46.2816924" lon="12.9463236"><ele>530.0</ele><time>2026-04-19T08:57:39.186Z</time></trkpt><trkpt lat="46.2816365" lon="12.9464055"><ele>530.0</ele><time>2026-04-19T08:57:40.187Z</time></trkpt><trkpt lat="46.2815744" lon="12.9465056"><ele>530.0</ele><time>2026-04-19T08:57:41.186Z</time></trkpt><trkpt lat="46.2815459" lon="12.9466725"><ele>530.0</ele><time>2026-04-19T08:57:42.185Z</time></trkpt><trkpt lat="46.2814933" lon="12.9467606"><ele>530.0</ele><time>2026-04-19T08:57:43.185Z</time></trkpt><trkpt lat="46.281419" lon="12.9468437"><ele>530.0</ele><time>2026-04-19T08:57:44.185Z</time></trkpt><trkpt lat="46.2813568" lon="12.9469085"><ele>530.0</ele><time>2026-04-19T08:57:45.186Z</time></trkpt><trkpt lat="46.2812689" lon="12.9469582"><ele>534.6</ele><time>2026-04-19T08:57:46.185Z</time></trkpt><trkpt lat="46.2811884" lon="12.9470347"><ele>539.2</ele><time>2026-04-19T08:57:47.186Z</time></trkpt><trkpt lat="46.2810835" lon="12.9470842"><ele>543.8</ele><time>2026-04-19T08:57:48.185Z</time></trkpt><trkpt lat="46.2809862" lon="12.9470988"><ele>548.4</ele><time>2026-04-19T08:57:49.186Z</time></trkpt><trkpt lat="46.280918" lon="12.9471202"><ele>553.0</ele><time>2026-04-19T08:57:50.186Z</time></trkpt><trkpt lat="46.2808078" lon="12.9471508"><ele>553.0</ele><time>2026-04-19T08:57:51.186Z</time></trkpt><trkpt lat="46.2807116" lon="12.9471743"><ele>553.0</ele><time>2026-04-19T08:57:52.186Z</time></trkpt><trkpt lat="46.2806172" lon="12.9471845"><ele>553.0</ele><time>2026-04-19T08:57:53.186Z</time></trkpt><trkpt lat="46.2804851" lon="12.9471901"><ele>553.0</ele><time>2026-04-19T08:57:54.186Z</time></trkpt><trkpt lat="46.280371" lon="12.9472272"><ele>553.0</ele><time>2026-04-19T08:57:55.186Z</time></trkpt><trkpt lat="46.2802988" lon="12.9472551"><ele>552.2857142857143</ele><time>2026-04-19T08:57:56.186Z</time></trkpt><trkpt lat="46.280227" lon="12.9472933"><ele>551.5714285714286</ele><time>2026-04-19T08:57:57.186Z</time></trkpt><trkpt lat="46.2801583" lon="12.9473123"><ele>550.8571428571429</ele><time>2026-04-19T08:57:58.185Z</time></trkpt><trkpt lat="46.2800943" lon="12.947338"><ele>550.1428571428571</ele><time>2026-04-19T08:57:59.186Z</time></trkpt><trkpt lat="46.2800248" lon="12.9473458"><ele>549.4285714285714</ele><time>2026-04-19T08:58:00.186Z</time></trkpt><trkpt lat="46.2799554" lon="12.9473752"><ele>548.7142857142858</ele><time>2026-04-19T08:58:01.187Z</time></trkpt><trkpt lat="46.279892" lon="12.9473892"><ele>548.0</ele><time>2026-04-19T08:58:02.185Z</time></trkpt><trkpt lat="46.2798052" lon="12.9474347"><ele>548.8571428571429</ele><time>2026-04-19T08:58:03.186Z</time></trkpt><trkpt lat="46.27974" lon="12.9474747"><ele>549.7142857142858</ele><time>2026-04-19T08:58:04.185Z</time></trkpt><trkpt lat="46.2796716" lon="12.9474977"><ele>550.5714285714286</ele><time>2026-04-19T08:58:05.186Z</time></trkpt><trkpt lat="46.2796038" lon="12.9475292"><ele>551.4285714285714</ele><time>2026-04-19T08:58:06.187Z</time></trkpt><trkpt lat="46.2795338" lon="12.9475768"><ele>552.2857142857142</ele><time>2026-04-19T08:58:07.186Z</time></trkpt><trkpt lat="46.2794628" lon="12.9476023"><ele>553.1428571428571</ele><time>2026-04-19T08:58:08.186Z</time></trkpt><trkpt lat="46.2793866" lon="12.9476379"><ele>554.0</ele><time>2026-04-19T08:58:09.186Z</time></trkpt><trkpt lat="46.279297" lon="12.9477006"><ele>554.0</ele><time>2026-04-19T08:58:10.186Z</time></trkpt><trkpt lat="46.2792198" lon="12.9477833"><ele>554.0</ele><time>2026-04-19T08:58:11.186Z</time></trkpt><trkpt lat="46.2791372" lon="12.9478417"><ele>554.0</ele><time>2026-04-19T08:58:12.186Z</time></trkpt><trkpt lat="46.2790584" lon="12.9479161"><ele>554.0</ele><time>2026-04-19T08:58:13.186Z</time></trkpt><trkpt lat="46.2790314" lon="12.9480367"><ele>554.0</ele><time>2026-04-19T08:58:14.187Z</time></trkpt><trkpt lat="46.2790146" lon="12.9481603"><ele>554.0</ele><time>2026-04-19T08:58:15.186Z</time></trkpt><trkpt lat="46.2790067" lon="12.948274"><ele>554.0</ele><time>2026-04-19T08:58:16.186Z</time></trkpt><trkpt lat="46.2790166" lon="12.9484219"><ele>554.0</ele><time>2026-04-19T08:58:17.186Z</time></trkpt><trkpt lat="46.278994" lon="12.948535"><ele>554.0</ele><time>2026-04-19T08:58:18.185Z</time></trkpt><trkpt lat="46.2789684" lon="12.9486363"><ele>554.0</ele><time>2026-04-19T08:58:19.186Z</time></trkpt><trkpt lat="46.2789357" lon="12.9487231"><ele>554.0</ele><time>2026-04-19T08:58:20.186Z</time></trkpt><trkpt lat="46.2788158" lon="12.9487608"><ele>554.0</ele><time>2026-04-19T08:58:22.186Z</time></trkpt><trkpt lat="46.2787415" lon="12.9488046"><ele>554.0</ele><time>2026-04-19T08:58:23.186Z</time></trkpt><trkpt lat="46.2786577" lon="12.9489797"><ele>554.0</ele><time>2026-04-19T08:58:25.187Z</time></trkpt><trkpt lat="46.2786141" lon="12.9490698"><ele>554.0</ele><time>2026-04-19T08:58:26.186Z</time></trkpt><trkpt lat="46.2785794" lon="12.9491837"><ele>554.0</ele><time>2026-04-19T08:58:27.185Z</time></trkpt><trkpt lat="46.2785604" lon="12.9493165"><ele>553.6666666666666</ele><time>2026-04-19T08:58:28.186Z</time></trkpt><trkpt lat="46.2785356" lon="12.9494365"><ele>553.3333333333333</ele><time>2026-04-19T08:58:29.186Z</time></trkpt><trkpt lat="46.2785241" lon="12.9495556"><ele>553.0</ele><time>2026-04-19T08:58:30.185Z</time></trkpt><trkpt lat="46.2785254" lon="12.9496772"><ele>552.6666666666666</ele><time>2026-04-19T08:58:31.186Z</time></trkpt><trkpt lat="46.2785182" lon="12.9497725"><ele>552.3333333333334</ele><time>2026-04-19T08:58:32.186Z</time></trkpt><trkpt lat="46.2786114" lon="12.9498503"><ele>552.0</ele><time>2026-04-19T08:58:34.186Z</time></trkpt><trkpt lat="46.2786597" lon="12.9499351"><ele>552.2</ele><time>2026-04-19T08:58:35.185Z</time></trkpt><trkpt lat="46.2786818" lon="12.9501248"><ele>552.4000000000001</ele><time>2026-04-19T08:58:37.186Z</time></trkpt><trkpt lat="46.2786611" lon="12.9502506"><ele>552.5999999999999</ele><time>2026-04-19T08:58:38.186Z</time></trkpt><trkpt lat="46.2786544" lon="12.9503516"><ele>552.8</ele><time>2026-04-19T08:58:39.186Z</time></trkpt><trkpt lat="46.2786248" lon="12.9504568"><ele>553.0</ele><time>2026-04-19T08:58:40.186Z</time></trkpt><trkpt lat="46.2785925" lon="12.9506028"><ele>553.0</ele><time>2026-04-19T08:58:41.186Z</time></trkpt><trkpt lat="46.2785655" lon="12.9507399"><ele>553.0</ele><time>2026-04-19T08:58:43.186Z</time></trkpt><trkpt lat="46.2785754" lon="12.9508614"><ele>553.0</ele><time>2026-04-19T08:58:45.185Z</time></trkpt><trkpt lat="46.278623" lon="12.9510036"><ele>553.0</ele><time>2026-04-19T08:58:47.186Z</time></trkpt><trkpt lat="46.2786309" lon="12.951171"><ele>553.0</ele><time>2026-04-19T08:58:49.185Z</time></trkpt><trkpt lat="46.2786287" lon="12.9512703"><ele>555.3333333333334</ele><time>2026-04-19T08:58:50.186Z</time></trkpt><trkpt lat="46.2786156" lon="12.9513685"><ele>557.6666666666667</ele><time>2026-04-19T08:58:51.185Z</time></trkpt><trkpt lat="46.2785783" lon="12.9514451"><ele>560.0</ele><time>2026-04-19T08:58:52.186Z</time></trkpt><trkpt lat="46.2784837" lon="12.951574"><ele>562.3333333333334</ele><time>2026-04-19T08:58:54.186Z</time></trkpt><trkpt lat="46.2784308" lon="12.9516373"><ele>564.6666666666666</ele><time>2026-04-19T08:58:55.186Z</time></trkpt><trkpt lat="46.2783835" lon="12.951715"><ele>567.0</ele><time>2026-04-19T08:58:56.185Z</time></trkpt><trkpt lat="46.2783624" lon="12.9518321"><ele>569.1666666666666</ele><time>2026-04-19T08:58:57.186Z</time></trkpt><trkpt lat="46.2783281" lon="12.9519283"><ele>571.3333333333334</ele><time>2026-04-19T08:58:58.186Z</time></trkpt><trkpt lat="46.2782877" lon="12.9520417"><ele>573.5</ele><time>2026-04-19T08:58:59.186Z</time></trkpt><trkpt lat="46.278249" lon="12.9521436"><ele>575.6666666666667</ele><time>2026-04-19T08:59:00.186Z</time></trkpt><trkpt lat="46.2781879" lon="12.9522186"><ele>577.8333333333334</ele><time>2026-04-19T08:59:01.187Z</time></trkpt><trkpt lat="46.2781231" lon="12.9523225"><ele>580.0</ele><time>2026-04-19T08:59:02.186Z</time></trkpt><trkpt lat="46.2780831" lon="12.9524171"><ele>577.0</ele><time>2026-04-19T08:59:03.185Z</time></trkpt><trkpt lat="46.2780509" lon="12.9525176"><ele>574.0</ele><time>2026-04-19T08:59:04.186Z</time></trkpt><trkpt lat="46.2780273" lon="12.9526129"><ele>571.0</ele><time>2026-04-19T08:59:05.186Z</time></trkpt><trkpt lat="46.2780051" lon="12.9527108"><ele>568.0</ele><time>2026-04-19T08:59:06.186Z</time></trkpt><trkpt lat="46.2779932" lon="12.9528054"><ele>565.0</ele><time>2026-04-19T08:59:07.185Z</time></trkpt><trkpt lat="46.2779664" lon="12.9529197"><ele>562.0</ele><time>2026-04-19T08:59:08.187Z</time></trkpt><trkpt lat="46.2779455" lon="12.9530787"><ele>562.0</ele><time>2026-04-19T08:59:09.186Z</time></trkpt><trkpt lat="46.2779057" lon="12.9531889"><ele>562.0</ele><time>2026-04-19T08:59:10.185Z</time></trkpt><trkpt lat="46.2778673" lon="12.9532836"><ele>562.0</ele><time>2026-04-19T08:59:11.187Z</time></trkpt><trkpt lat="46.2778314" lon="12.9533859"><ele>562.0</ele><time>2026-04-19T08:59:12.185Z</time></trkpt><trkpt lat="46.2777942" lon="12.9534735"><ele>562.0</ele><time>2026-04-19T08:59:13.186Z</time></trkpt><trkpt lat="46.2777611" lon="12.9535645"><ele>562.0</ele><time>2026-04-19T08:59:14.186Z</time></trkpt><trkpt lat="46.2777339" lon="12.9537295"><ele>561.5</ele><time>2026-04-19T08:59:16.186Z</time></trkpt><trkpt lat="46.2777821" lon="12.9538237"><ele>561.0</ele><time>2026-04-19T08:59:18.186Z</time></trkpt><trkpt lat="46.2778517" lon="12.9539518"><ele>560.5</ele><time>2026-04-19T08:59:20.186Z</time></trkpt><trkpt lat="46.2778709" lon="12.9540491"><ele>560.0</ele><time>2026-04-19T08:59:21.186Z</time></trkpt><trkpt lat="46.2778722" lon="12.9541411"><ele>559.5</ele><time>2026-04-19T08:59:22.185Z</time></trkpt><trkpt lat="46.277841" lon="12.9542407"><ele>559.0</ele><time>2026-04-19T08:59:23.186Z</time></trkpt><trkpt lat="46.277813" lon="12.9543872"><ele>557.3333333333334</ele><time>2026-04-19T08:59:25.186Z</time></trkpt><trkpt lat="46.2778484" lon="12.9545308"><ele>555.6666666666667</ele><time>2026-04-19T08:59:27.186Z</time></trkpt><trkpt lat="46.2778625" lon="12.9546363"><ele>554.0</ele><time>2026-04-19T08:59:28.185Z</time></trkpt><trkpt lat="46.2778943" lon="12.9547346"><ele>552.3333333333334</ele><time>2026-04-19T08:59:29.186Z</time></trkpt><trkpt lat="46.2779349" lon="12.9548397"><ele>550.6666666666666</ele><time>2026-04-19T08:59:30.185Z</time></trkpt><trkpt lat="46.2779708" lon="12.9549375"><ele>549.0</ele><time>2026-04-19T08:59:31.186Z</time></trkpt><trkpt lat="46.2779778" lon="12.9550559"><ele>548.3333333333334</ele><time>2026-04-19T08:59:32.186Z</time></trkpt><trkpt lat="46.2779601" lon="12.9551701"><ele>547.6666666666666</ele><time>2026-04-19T08:59:33.187Z</time></trkpt><trkpt lat="46.2779567" lon="12.9552833"><ele>547.0</ele><time>2026-04-19T08:59:34.186Z</time></trkpt><trkpt lat="46.277966" lon="12.9553938"><ele>546.3333333333333</ele><time>2026-04-19T08:59:35.186Z</time></trkpt><trkpt lat="46.2779745" lon="12.955523"><ele>545.6666666666666</ele><time>2026-04-19T08:59:36.187Z</time></trkpt><trkpt lat="46.2780089" lon="12.9556239"><ele>545.0</ele><time>2026-04-19T08:59:37.185Z</time></trkpt><trkpt lat="46.2780408" lon="12.9557239"><ele>545.0</ele><time>2026-04-19T08:59:38.184Z</time></trkpt><trkpt lat="46.2780911" lon="12.9557983"><ele>545.0</ele><time>2026-04-19T08:59:39.185Z</time></trkpt><trkpt lat="46.2781567" lon="12.9558664"><ele>545.0</ele><time>2026-04-19T08:59:40.185Z</time></trkpt><trkpt lat="46.2782142" lon="12.9559412"><ele>545.0</ele><time>2026-04-19T08:59:41.184Z</time></trkpt><trkpt lat="46.2782736" lon="12.9560212"><ele>545.0</ele><time>2026-04-19T08:59:42.185Z</time></trkpt><trkpt lat="46.2783338" lon="12.9561144"><ele>545.0</ele><time>2026-04-19T08:59:43.185Z</time></trkpt><trkpt lat="46.2783828" lon="12.9562284"><ele>553.4</ele><time>2026-04-19T08:59:44.185Z</time></trkpt><trkpt lat="46.2784281" lon="12.9563461"><ele>561.8</ele><time>2026-04-19T08:59:45.185Z</time></trkpt><trkpt lat="46.2784565" lon="12.9564744"><ele>570.2</ele><time>2026-04-19T08:59:46.186Z</time></trkpt><trkpt lat="46.2784801" lon="12.9566034"><ele>578.6</ele><time>2026-04-19T08:59:47.185Z</time></trkpt><trkpt lat="46.2785033" lon="12.9567397"><ele>587.0</ele><time>2026-04-19T08:59:48.185Z</time></trkpt><trkpt lat="46.2785265" lon="12.9568723"><ele>590.8000000000001</ele><time>2026-04-19T08:59:49.184Z</time></trkpt><trkpt lat="46.2785479" lon="12.9569836"><ele>594.6</ele><time>2026-04-19T08:59:50.185Z</time></trkpt><trkpt lat="46.278542" lon="12.9570748"><ele>598.4000000000001</ele><time>2026-04-19T08:59:51.184Z</time></trkpt><trkpt lat="46.2785034" lon="12.9572033"><ele>602.2</ele><time>2026-04-19T08:59:53.186Z</time></trkpt><trkpt lat="46.2783909" lon="12.9573252"><ele>606.0</ele><time>2026-04-19T08:59:55.185Z</time></trkpt><trkpt lat="46.2783131" lon="12.9573829"><ele>606.0</ele><time>2026-04-19T08:59:56.185Z</time></trkpt><trkpt lat="46.2782121" lon="12.9573812"><ele>606.0</ele><time>2026-04-19T08:59:57.185Z</time></trkpt><trkpt lat="46.2781213" lon="12.9574017"><ele>606.0</ele><time>2026-04-19T08:59:58.186Z</time></trkpt><trkpt lat="46.2780283" lon="12.9574337"><ele>606.0</ele><time>2026-04-19T08:59:59.184Z</time></trkpt><trkpt lat="46.2779382" lon="12.9574541"><ele>606.0</ele><time>2026-04-19T09:00:00.185Z</time></trkpt><trkpt lat="46.2778295" lon="12.9574604"><ele>609.0</ele><time>2026-04-19T09:00:01.185Z</time></trkpt><trkpt lat="46.2777359" lon="12.9574894"><ele>612.0</ele><time>2026-04-19T09:00:02.184Z</time></trkpt><trkpt lat="46.2776405" lon="12.9575246"><ele>615.0</ele><time>2026-04-19T09:00:03.184Z</time></trkpt><trkpt lat="46.2775474" lon="12.9575586"><ele>618.0</ele><time>2026-04-19T09:00:04.185Z</time></trkpt><trkpt lat="46.2774603" lon="12.957589"><ele>621.0</ele><time>2026-04-19T09:00:05.185Z</time></trkpt><trkpt lat="46.2773767" lon="12.9576094"><ele>621.0</ele><time>2026-04-19T09:00:06.185Z</time></trkpt><trkpt lat="46.2772794" lon="12.9575676"><ele>621.0</ele><time>2026-04-19T09:00:07.184Z</time></trkpt><trkpt lat="46.2771951" lon="12.957571"><ele>621.0</ele><time>2026-04-19T09:00:08.185Z</time></trkpt><trkpt lat="46.2771295" lon="12.9575688"><ele>621.0</ele><time>2026-04-19T09:00:09.185Z</time></trkpt><trkpt lat="46.2770641" lon="12.9575775"><ele>621.0</ele><time>2026-04-19T09:00:10.185Z</time></trkpt><trkpt lat="46.2769903" lon="12.9577116"><ele>621.0</ele><time>2026-04-19T09:00:12.184Z</time></trkpt><trkpt lat="46.2769881" lon="12.9578902"><ele>613.3333333333334</ele><time>2026-04-19T09:00:14.185Z</time></trkpt><trkpt lat="46.2769946" lon="12.9580017"><ele>605.6666666666666</ele><time>2026-04-19T09:00:15.185Z</time></trkpt><trkpt lat="46.2770056" lon="12.9581224"><ele>598.0</ele><time>2026-04-19T09:00:16.185Z</time></trkpt><trkpt lat="46.2770148" lon="12.9582478"><ele>590.3333333333333</ele><time>2026-04-19T09:00:17.185Z</time></trkpt><trkpt lat="46.2770306" lon="12.9583628"><ele>582.6666666666666</ele><time>2026-04-19T09:00:18.184Z</time></trkpt><trkpt lat="46.2770473" lon="12.9584808"><ele>575.0</ele><time>2026-04-19T09:00:19.185Z</time></trkpt><trkpt lat="46.2770646" lon="12.958601"><ele>575.0</ele><time>2026-04-19T09:00:20.184Z</time></trkpt><trkpt lat="46.2770765" lon="12.9587225"><ele>575.0</ele><time>2026-04-19T09:00:21.184Z</time></trkpt><trkpt lat="46.2770834" lon="12.9588441"><ele>575.0</ele><time>2026-04-19T09:00:22.185Z</time></trkpt><trkpt lat="46.277092" lon="12.9589687"><ele>575.0</ele><time>2026-04-19T09:00:23.185Z</time></trkpt><trkpt lat="46.2770993" lon="12.9590916"><ele>575.0</ele><time>2026-04-19T09:00:24.185Z</time></trkpt><trkpt lat="46.2771032" lon="12.9592183"><ele>575.0</ele><time>2026-04-19T09:00:25.185Z</time></trkpt><trkpt lat="46.2770963" lon="12.9593521"><ele>578.1666666666666</ele><time>2026-04-19T09:00:26.185Z</time></trkpt><trkpt lat="46.2770711" lon="12.9594807"><ele>581.3333333333333</ele><time>2026-04-19T09:00:27.184Z</time></trkpt><trkpt lat="46.2770409" lon="12.9596066"><ele>584.5</ele><time>2026-04-19T09:00:28.185Z</time></trkpt><trkpt lat="46.2770008" lon="12.9597257"><ele>587.6666666666666</ele><time>2026-04-19T09:00:29.185Z</time></trkpt><trkpt lat="46.2769594" lon="12.9598375"><ele>590.8333333333334</ele><time>2026-04-19T09:00:30.185Z</time></trkpt><trkpt lat="46.2769239" lon="12.9599495"><ele>594.0</ele><time>2026-04-19T09:00:31.184Z</time></trkpt><trkpt lat="46.2768932" lon="12.9600505"><ele>606.3333333333334</ele><time>2026-04-19T09:00:32.185Z</time></trkpt><trkpt lat="46.2768588" lon="12.9601369"><ele>618.6666666666666</ele><time>2026-04-19T09:00:33.185Z</time></trkpt><trkpt lat="46.2768204" lon="12.960223"><ele>631.0</ele><time>2026-04-19T09:00:34.184Z</time></trkpt><trkpt lat="46.2767693" lon="12.9602999"><ele>643.3333333333333</ele><time>2026-04-19T09:00:35.185Z</time></trkpt><trkpt lat="46.2766507" lon="12.9603798"><ele>655.6666666666666</ele><time>2026-04-19T09:00:37.184Z</time></trkpt><trkpt lat="46.2765503" lon="12.9603594"><ele>668.0</ele><time>2026-04-19T09:00:38.185Z</time></trkpt><trkpt lat="46.2764466" lon="12.9603569"><ele>660.0</ele><time>2026-04-19T09:00:39.186Z</time></trkpt><trkpt lat="46.276346" lon="12.9603558"><ele>652.0</ele><time>2026-04-19T09:00:40.184Z</time></trkpt><trkpt lat="46.2762378" lon="12.9603885"><ele>644.0</ele><time>2026-04-19T09:00:41.185Z</time></trkpt><trkpt lat="46.2761512" lon="12.9604522"><ele>636.0</ele><time>2026-04-19T09:00:42.185Z</time></trkpt><trkpt lat="46.2760633" lon="12.9604639"><ele>628.0</ele><time>2026-04-19T09:00:43.185Z</time></trkpt><trkpt lat="46.275977" lon="12.9604561"><ele>628.0</ele><time>2026-04-19T09:00:44.185Z</time></trkpt><trkpt lat="46.2758928" lon="12.9604452"><ele>628.0</ele><time>2026-04-19T09:00:45.184Z</time></trkpt><trkpt lat="46.2758041" lon="12.9604335"><ele>628.0</ele><time>2026-04-19T09:00:46.185Z</time></trkpt><trkpt lat="46.2757068" lon="12.9604352"><ele>628.0</ele><time>2026-04-19T09:00:47.185Z</time></trkpt><trkpt lat="46.2756169" lon="12.9604854"><ele>628.0</ele><time>2026-04-19T09:00:48.185Z</time></trkpt><trkpt lat="46.2755273" lon="12.9605256"><ele>621.6666666666667</ele><time>2026-04-19T09:00:49.185Z</time></trkpt><trkpt lat="46.275443" lon="12.9605687"><ele>615.3333333333334</ele><time>2026-04-19T09:00:50.185Z</time></trkpt><trkpt lat="46.2753603" lon="12.9605961"><ele>609.0</ele><time>2026-04-19T09:00:51.186Z</time></trkpt><trkpt lat="46.2752876" lon="12.9606322"><ele>602.6666666666666</ele><time>2026-04-19T09:00:52.184Z</time></trkpt><trkpt lat="46.2752054" lon="12.9606731"><ele>596.3333333333333</ele><time>2026-04-19T09:00:53.184Z</time></trkpt><trkpt lat="46.2751342" lon="12.9607098"><ele>590.0</ele><time>2026-04-19T09:00:54.185Z</time></trkpt><trkpt lat="46.2750872" lon="12.960831"><ele>592.2</ele><time>2026-04-19T09:00:56.185Z</time></trkpt><trkpt lat="46.2750726" lon="12.9609995"><ele>594.4</ele><time>2026-04-19T09:00:58.185Z</time></trkpt><trkpt lat="46.275095" lon="12.9611283"><ele>596.6</ele><time>2026-04-19T09:00:59.185Z</time></trkpt><trkpt lat="46.2751025" lon="12.9612699"><ele>598.8</ele><time>2026-04-19T09:01:00.184Z</time></trkpt><trkpt lat="46.2751127" lon="12.961401"><ele>601.0</ele><time>2026-04-19T09:01:01.184Z</time></trkpt><trkpt lat="46.2751267" lon="12.961548"><ele>601.0</ele><time>2026-04-19T09:01:02.185Z</time></trkpt><trkpt lat="46.2751444" lon="12.9616917"><ele>601.0</ele><time>2026-04-19T09:01:03.185Z</time></trkpt><trkpt lat="46.2751637" lon="12.9618348"><ele>601.0</ele><time>2026-04-19T09:01:04.185Z</time></trkpt><trkpt lat="46.2751711" lon="12.9619688"><ele>601.0</ele><time>2026-04-19T09:01:05.184Z</time></trkpt><trkpt lat="46.2751532" lon="12.962131"><ele>601.0</ele><time>2026-04-19T09:01:06.184Z</time></trkpt><trkpt lat="46.2751476" lon="12.9622822"><ele>604.0</ele><time>2026-04-19T09:01:07.185Z</time></trkpt><trkpt lat="46.2751343" lon="12.9624322"><ele>607.0</ele><time>2026-04-19T09:01:08.185Z</time></trkpt><trkpt lat="46.2751091" lon="12.9625634"><ele>610.0</ele><time>2026-04-19T09:01:09.185Z</time></trkpt><trkpt lat="46.2750838" lon="12.9627094"><ele>613.0</ele><time>2026-04-19T09:01:10.185Z</time></trkpt><trkpt lat="46.2750303" lon="12.9628337"><ele>616.0</ele><time>2026-04-19T09:01:11.184Z</time></trkpt><trkpt lat="46.2750028" lon="12.9629747"><ele>618.4</ele><time>2026-04-19T09:01:12.186Z</time></trkpt><trkpt lat="46.2749701" lon="12.9631207"><ele>620.8</ele><time>2026-04-19T09:01:13.185Z</time></trkpt><trkpt lat="46.2749395" lon="12.9632687"><ele>623.1999999999999</ele><time>2026-04-19T09:01:14.186Z</time></trkpt><trkpt lat="46.2749041" lon="12.9634147"><ele>625.6</ele><time>2026-04-19T09:01:15.185Z</time></trkpt><trkpt lat="46.2748437" lon="12.9635233"><ele>628.0</ele><time>2026-04-19T09:01:16.185Z</time></trkpt><trkpt lat="46.2747992" lon="12.9636479"><ele>623.1999999999999</ele><time>2026-04-19T09:01:17.185Z</time></trkpt><trkpt lat="46.2747643" lon="12.9637773"><ele>618.4</ele><time>2026-04-19T09:01:18.185Z</time></trkpt><trkpt lat="46.2747479" lon="12.9639184"><ele>613.5999999999999</ele><time>2026-04-19T09:01:19.185Z</time></trkpt><trkpt lat="46.2747245" lon="12.9640543"><ele>608.8</ele><time>2026-04-19T09:01:20.185Z</time></trkpt><trkpt lat="46.2747036" lon="12.9641891"><ele>604.0</ele><time>2026-04-19T09:01:21.185Z</time></trkpt><trkpt lat="46.27469" lon="12.9643181"><ele>604.0</ele><time>2026-04-19T09:01:22.184Z</time></trkpt><trkpt lat="46.2746702" lon="12.9644451"><ele>604.0</ele><time>2026-04-19T09:01:23.184Z</time></trkpt><trkpt lat="46.2746813" lon="12.9646048"><ele>604.0</ele><time>2026-04-19T09:01:24.184Z</time></trkpt><trkpt lat="46.2747744" lon="12.9646858"><ele>604.0</ele><time>2026-04-19T09:01:25.185Z</time></trkpt><trkpt lat="46.2748168" lon="12.9648146"><ele>604.0</ele><time>2026-04-19T09:01:26.185Z</time></trkpt><trkpt lat="46.2748501" lon="12.9649439"><ele>606.1666666666667</ele><time>2026-04-19T09:01:27.185Z</time></trkpt><trkpt lat="46.2748651" lon="12.9650747"><ele>608.3333333333334</ele><time>2026-04-19T09:01:28.185Z</time></trkpt><trkpt lat="46.2748662" lon="12.9651999"><ele>610.5</ele><time>2026-04-19T09:01:29.185Z</time></trkpt><trkpt lat="46.2748523" lon="12.9653294"><ele>612.6666666666666</ele><time>2026-04-19T09:01:30.186Z</time></trkpt><trkpt lat="46.2748241" lon="12.9654517"><ele>614.8333333333333</ele><time>2026-04-19T09:01:31.185Z</time></trkpt><trkpt lat="46.2747981" lon="12.9655743"><ele>617.0</ele><time>2026-04-19T09:01:32.184Z</time></trkpt><trkpt lat="46.2747702" lon="12.9657013"><ele>617.0</ele><time>2026-04-19T09:01:33.186Z</time></trkpt><trkpt lat="46.2747384" lon="12.9658282"><ele>617.0</ele><time>2026-04-19T09:01:34.185Z</time></trkpt><trkpt lat="46.2747029" lon="12.9659469"><ele>617.0</ele><time>2026-04-19T09:01:35.185Z</time></trkpt><trkpt lat="46.2746556" lon="12.9660634"><ele>617.0</ele><time>2026-04-19T09:01:36.185Z</time></trkpt><trkpt lat="46.2746027" lon="12.9661755"><ele>617.0</ele><time>2026-04-19T09:01:37.185Z</time></trkpt><trkpt lat="46.2745412" lon="12.9662805"><ele>621.8</ele><time>2026-04-19T09:01:38.185Z</time></trkpt><trkpt lat="46.2744767" lon="12.9663757"><ele>626.6</ele><time>2026-04-19T09:01:39.185Z</time></trkpt><trkpt lat="46.2744102" lon="12.9664741"><ele>631.4</ele><time>2026-04-19T09:01:40.185Z</time></trkpt><trkpt lat="46.274343" lon="12.9665672"><ele>636.1999999999999</ele><time>2026-04-19T09:01:41.185Z</time></trkpt><trkpt lat="46.2742755" lon="12.9666548"><ele>641.0</ele><time>2026-04-19T09:01:42.185Z</time></trkpt><trkpt lat="46.2742018" lon="12.9667234"><ele>640.0</ele><time>2026-04-19T09:01:43.186Z</time></trkpt><trkpt lat="46.2741232" lon="12.9667697"><ele>639.0</ele><time>2026-04-19T09:01:44.185Z</time></trkpt><trkpt lat="46.2740433" lon="12.966791"><ele>638.0</ele><time>2026-04-19T09:01:45.186Z</time></trkpt><trkpt lat="46.2739611" lon="12.9667919"><ele>637.0</ele><time>2026-04-19T09:01:46.185Z</time></trkpt><trkpt lat="46.2738805" lon="12.9667927"><ele>636.0</ele><time>2026-04-19T09:01:47.184Z</time></trkpt><trkpt lat="46.2738094" lon="12.9667463"><ele>635.0</ele><time>2026-04-19T09:01:48.185Z</time></trkpt><trkpt lat="46.2737264" lon="12.9666899"><ele>635.0</ele><time>2026-04-19T09:01:49.186Z</time></trkpt><trkpt lat="46.2736524" lon="12.966629"><ele>635.0</ele><time>2026-04-19T09:01:50.186Z</time></trkpt><trkpt lat="46.2735894" lon="12.9665822"><ele>635.0</ele><time>2026-04-19T09:01:51.185Z</time></trkpt><trkpt lat="46.273486" lon="12.966546"><ele>635.0</ele><time>2026-04-19T09:01:53.184Z</time></trkpt><trkpt lat="46.2734277" lon="12.9666264"><ele>635.0</ele><time>2026-04-19T09:01:55.184Z</time></trkpt><trkpt lat="46.2733886" lon="12.9667893"><ele>632.6666666666666</ele><time>2026-04-19T09:01:57.185Z</time></trkpt><trkpt lat="46.2733631" lon="12.9668811"><ele>630.3333333333333</ele><time>2026-04-19T09:01:58.184Z</time></trkpt><trkpt lat="46.2732877" lon="12.9670344"><ele>628.0</ele><time>2026-04-19T09:02:00.185Z</time></trkpt><trkpt lat="46.2732362" lon="12.9671003"><ele>625.6666666666666</ele><time>2026-04-19T09:02:01.185Z</time></trkpt><trkpt lat="46.2731829" lon="12.9671648"><ele>623.3333333333334</ele><time>2026-04-19T09:02:02.185Z</time></trkpt><trkpt lat="46.2731259" lon="12.9672184"><ele>621.0</ele><time>2026-04-19T09:02:03.184Z</time></trkpt><trkpt lat="46.2730722" lon="12.9672731"><ele>621.0</ele><time>2026-04-19T09:02:04.185Z</time></trkpt><trkpt lat="46.2730312" lon="12.9673435"><ele>621.0</ele><time>2026-04-19T09:02:05.185Z</time></trkpt><trkpt lat="46.2730005" lon="12.9675081"><ele>621.0</ele><time>2026-04-19T09:02:07.185Z</time></trkpt><trkpt lat="46.2730032" lon="12.9675996"><ele>621.0</ele><time>2026-04-19T09:02:08.185Z</time></trkpt><trkpt lat="46.2730061" lon="12.967696"><ele>621.0</ele><time>2026-04-19T09:02:09.185Z</time></trkpt><trkpt lat="46.2730034" lon="12.9678757"><ele>621.0</ele><time>2026-04-19T09:02:11.184Z</time></trkpt><trkpt lat="46.2730065" lon="12.9679747"><ele>622.3333333333334</ele><time>2026-04-19T09:02:12.184Z</time></trkpt><trkpt lat="46.2730109" lon="12.9680746"><ele>623.6666666666666</ele><time>2026-04-19T09:02:13.185Z</time></trkpt><trkpt lat="46.2730163" lon="12.9681775"><ele>625.0</ele><time>2026-04-19T09:02:14.185Z</time></trkpt><trkpt lat="46.2730298" lon="12.9682995"><ele>626.3333333333333</ele><time>2026-04-19T09:02:15.184Z</time></trkpt><trkpt lat="46.2730378" lon="12.9684331"><ele>627.6666666666666</ele><time>2026-04-19T09:02:16.185Z</time></trkpt><trkpt lat="46.2730408" lon="12.9685667"><ele>629.0</ele><time>2026-04-19T09:02:17.186Z</time></trkpt><trkpt lat="46.2730442" lon="12.9687022"><ele>629.6</ele><time>2026-04-19T09:02:18.185Z</time></trkpt><trkpt lat="46.2730497" lon="12.968843"><ele>630.2</ele><time>2026-04-19T09:02:19.185Z</time></trkpt><trkpt lat="46.2730575" lon="12.9689856"><ele>630.8000000000001</ele><time>2026-04-19T09:02:20.185Z</time></trkpt><trkpt lat="46.2730676" lon="12.9691248"><ele>631.4</ele><time>2026-04-19T09:02:21.184Z</time></trkpt><trkpt lat="46.2730732" lon="12.9692697"><ele>632.0</ele><time>2026-04-19T09:02:22.186Z</time></trkpt><trkpt lat="46.273067" lon="12.9694206"><ele>632.4</ele><time>2026-04-19T09:02:23.185Z</time></trkpt><trkpt lat="46.2730496" lon="12.9695721"><ele>632.8000000000001</ele><time>2026-04-19T09:02:24.185Z</time></trkpt><trkpt lat="46.2730319" lon="12.9697301"><ele>633.2</ele><time>2026-04-19T09:02:25.185Z</time></trkpt><trkpt lat="46.2730258" lon="12.969894"><ele>633.6</ele><time>2026-04-19T09:02:26.185Z</time></trkpt><trkpt lat="46.273033" lon="12.9700592"><ele>634.0</ele><time>2026-04-19T09:02:27.185Z</time></trkpt><trkpt lat="46.273051" lon="12.9702231"><ele>635.2</ele><time>2026-04-19T09:02:28.186Z</time></trkpt><trkpt lat="46.2730847" lon="12.9703695"><ele>636.4</ele><time>2026-04-19T09:02:29.185Z</time></trkpt><trkpt lat="46.273111" lon="12.9705151"><ele>637.6</ele><time>2026-04-19T09:02:30.185Z</time></trkpt><trkpt lat="46.2731178" lon="12.9706515"><ele>638.8</ele><time>2026-04-19T09:02:31.184Z</time></trkpt><trkpt lat="46.273121" lon="12.9707997"><ele>640.0</ele><time>2026-04-19T09:02:32.184Z</time></trkpt><trkpt lat="46.273073" lon="12.9708998"><ele>641.6666666666667</ele><time>2026-04-19T09:02:33.184Z</time></trkpt><trkpt lat="46.2730524" lon="12.9710213"><ele>643.3333333333334</ele><time>2026-04-19T09:02:34.185Z</time></trkpt><trkpt lat="46.2730665" lon="12.9711142"><ele>645.0</ele><time>2026-04-19T09:02:35.186Z</time></trkpt><trkpt lat="46.2730767" lon="12.971222"><ele>646.6666666666666</ele><time>2026-04-19T09:02:36.185Z</time></trkpt><trkpt lat="46.2730967" lon="12.9713497"><ele>648.3333333333333</ele><time>2026-04-19T09:02:37.184Z</time></trkpt><trkpt lat="46.2731366" lon="12.9714697"><ele>650.0</ele><time>2026-04-19T09:02:38.185Z</time></trkpt><trkpt lat="46.2732508" lon="12.9715301"><ele>654.8333333333333</ele><time>2026-04-19T09:02:39.185Z</time></trkpt><trkpt lat="46.2733174" lon="12.9716388"><ele>659.6666666666666</ele><time>2026-04-19T09:02:40.184Z</time></trkpt><trkpt lat="46.273354" lon="12.9717474"><ele>664.5</ele><time>2026-04-19T09:02:41.185Z</time></trkpt><trkpt lat="46.2733715" lon="12.9718759"><ele>669.3333333333334</ele><time>2026-04-19T09:02:42.185Z</time></trkpt><trkpt lat="46.2733988" lon="12.9719643"><ele>674.1666666666667</ele><time>2026-04-19T09:02:43.184Z</time></trkpt><trkpt lat="46.2733413" lon="12.9720843"><ele>679.0</ele><time>2026-04-19T09:02:44.184Z</time></trkpt><trkpt lat="46.2733013" lon="12.9721765"><ele>676.6666666666667</ele><time>2026-04-19T09:02:45.184Z</time></trkpt><trkpt lat="46.2732542" lon="12.9722414"><ele>674.3333333333334</ele><time>2026-04-19T09:02:46.185Z</time></trkpt><trkpt lat="46.2731189" lon="12.9723169"><ele>672.0</ele><time>2026-04-19T09:02:48.185Z</time></trkpt><trkpt lat="46.2730416" lon="12.9723486"><ele>669.6666666666666</ele><time>2026-04-19T09:02:49.185Z</time></trkpt><trkpt lat="46.2729682" lon="12.9723756"><ele>667.3333333333333</ele><time>2026-04-19T09:02:50.184Z</time></trkpt><trkpt lat="46.2729063" lon="12.972426"><ele>665.0</ele><time>2026-04-19T09:02:51.185Z</time></trkpt><trkpt lat="46.2728536" lon="12.9725082"><ele>667.2</ele><time>2026-04-19T09:02:52.185Z</time></trkpt><trkpt lat="46.2728434" lon="12.9726321"><ele>669.4</ele><time>2026-04-19T09:02:53.185Z</time></trkpt><trkpt lat="46.2728139" lon="12.9727527"><ele>671.5999999999999</ele><time>2026-04-19T09:02:54.186Z</time></trkpt><trkpt lat="46.2727978" lon="12.9729046"><ele>673.8</ele><time>2026-04-19T09:02:55.185Z</time></trkpt><trkpt lat="46.2727848" lon="12.9730578"><ele>676.0</ele><time>2026-04-19T09:02:56.185Z</time></trkpt><trkpt lat="46.2727714" lon="12.9732082"><ele>676.0</ele><time>2026-04-19T09:02:57.185Z</time></trkpt><trkpt lat="46.2727483" lon="12.9733447"><ele>676.0</ele><time>2026-04-19T09:02:58.185Z</time></trkpt><trkpt lat="46.2727247" lon="12.9734872"><ele>676.0</ele><time>2026-04-19T09:02:59.184Z</time></trkpt><trkpt lat="46.2726939" lon="12.9736292"><ele>676.0</ele><time>2026-04-19T09:03:00.184Z</time></trkpt><trkpt lat="46.2726686" lon="12.9737701"><ele>676.0</ele><time>2026-04-19T09:03:01.185Z</time></trkpt><trkpt lat="46.272649" lon="12.9739112"><ele>677.5</ele><time>2026-04-19T09:03:02.186Z</time></trkpt><trkpt lat="46.2726281" lon="12.9740674"><ele>679.0</ele><time>2026-04-19T09:03:03.184Z</time></trkpt><trkpt lat="46.2726428" lon="12.9742345"><ele>680.5</ele><time>2026-04-19T09:03:04.184Z</time></trkpt><trkpt lat="46.2726688" lon="12.9744567"><ele>682.0</ele><time>2026-04-19T09:03:05.185Z</time></trkpt><trkpt lat="46.2726986" lon="12.9747052"><ele>683.0</ele><time>2026-04-19T09:03:06.184Z</time></trkpt><trkpt lat="46.2727319" lon="12.9749341"><ele>684.0</ele><time>2026-04-19T09:03:07.184Z</time></trkpt><trkpt lat="46.2727485" lon="12.9751555"><ele>685.0</ele><time>2026-04-19T09:03:08.184Z</time></trkpt><trkpt lat="46.2727679" lon="12.9753769"><ele>685.6666666666667</ele><time>2026-04-19T09:03:09.183Z</time></trkpt><trkpt lat="46.2727912" lon="12.9755897"><ele>686.3333333333334</ele><time>2026-04-19T09:03:10.184Z</time></trkpt><trkpt lat="46.2728065" lon="12.9758142"><ele>687.0</ele><time>2026-04-19T09:03:11.184Z</time></trkpt><trkpt lat="46.272824" lon="12.9760293"><ele>684.5</ele><time>2026-04-19T09:03:12.185Z</time></trkpt><trkpt lat="46.2728485" lon="12.9762344"><ele>682.0</ele><time>2026-04-19T09:03:13.183Z</time></trkpt><trkpt lat="46.2728713" lon="12.9764298"><ele>679.5</ele><time>2026-04-19T09:03:14.183Z</time></trkpt><trkpt lat="46.2728886" lon="12.9765828"><ele>677.0</ele><time>2026-04-19T09:03:15.184Z</time></trkpt><trkpt lat="46.2729081" lon="12.9767072"><ele>674.0</ele><time>2026-04-19T09:03:16.184Z</time></trkpt><trkpt lat="46.2729871" lon="12.9768323"><ele>671.0</ele><time>2026-04-19T09:03:18.183Z</time></trkpt><trkpt lat="46.2730358" lon="12.9769007"><ele>668.0</ele><time>2026-04-19T09:03:19.185Z</time></trkpt><trkpt lat="46.2731004" lon="12.9769664"><ele>665.0</ele><time>2026-04-19T09:03:20.183Z</time></trkpt><trkpt lat="46.2731884" lon="12.9769986"><ele>662.0</ele><time>2026-04-19T09:03:21.184Z</time></trkpt><trkpt lat="46.2732688" lon="12.9770621"><ele>659.0</ele><time>2026-04-19T09:03:22.184Z</time></trkpt><trkpt lat="46.2733507" lon="12.9771931"><ele>667.6</ele><time>2026-04-19T09:03:23.184Z</time></trkpt><trkpt lat="46.2734199" lon="12.977317"><ele>676.2</ele><time>2026-04-19T09:03:24.184Z</time></trkpt><trkpt lat="46.2734863" lon="12.9774258"><ele>684.8000000000001</ele><time>2026-04-19T09:03:25.184Z</time></trkpt><trkpt lat="46.2735563" lon="12.9775145"><ele>693.4000000000001</ele><time>2026-04-19T09:03:26.184Z</time></trkpt><trkpt lat="46.2736318" lon="12.9775926"><ele>702.0</ele><time>2026-04-19T09:03:27.185Z</time></trkpt><trkpt lat="46.2737256" lon="12.9776706"><ele>703.5</ele><time>2026-04-19T09:03:28.184Z</time></trkpt><trkpt lat="46.2737852" lon="12.9777427"><ele>705.0</ele><time>2026-04-19T09:03:29.183Z</time></trkpt><trkpt lat="46.2738518" lon="12.9778055"><ele>706.5</ele><time>2026-04-19T09:03:30.183Z</time></trkpt><trkpt lat="46.2739329" lon="12.9778723"><ele>708.0</ele><time>2026-04-19T09:03:31.184Z</time></trkpt><trkpt lat="46.2739968" lon="12.977975"><ele>709.5</ele><time>2026-04-19T09:03:32.183Z</time></trkpt><trkpt lat="46.2740407" lon="12.9780882"><ele>711.0</ele><time>2026-04-19T09:03:33.185Z</time></trkpt><trkpt lat="46.2740446" lon="12.9782077"><ele>716.0</ele><time>2026-04-19T09:03:34.184Z</time></trkpt><trkpt lat="46.2740603" lon="12.9783066"><ele>721.0</ele><time>2026-04-19T09:03:35.184Z</time></trkpt><trkpt lat="46.2740606" lon="12.9784284"><ele>726.0</ele><time>2026-04-19T09:03:36.184Z</time></trkpt><trkpt lat="46.2740054" lon="12.9785144"><ele>731.0</ele><time>2026-04-19T09:03:37.185Z</time></trkpt><trkpt lat="46.2739437" lon="12.9786154"><ele>736.0</ele><time>2026-04-19T09:03:38.183Z</time></trkpt><trkpt lat="46.2738813" lon="12.9787194"><ele>741.0</ele><time>2026-04-19T09:03:39.184Z</time></trkpt><trkpt lat="46.2738017" lon="12.9788204"><ele>741.0</ele><time>2026-04-19T09:03:40.184Z</time></trkpt><trkpt lat="46.2736755" lon="12.9787891"><ele>741.0</ele><time>2026-04-19T09:03:41.183Z</time></trkpt><trkpt lat="46.2735733" lon="12.9788084"><ele>741.0</ele><time>2026-04-19T09:03:42.184Z</time></trkpt><trkpt lat="46.2734704" lon="12.978845"><ele>741.0</ele><time>2026-04-19T09:03:43.185Z</time></trkpt><trkpt lat="46.2733773" lon="12.9788975"><ele>741.0</ele><time>2026-04-19T09:03:44.184Z</time></trkpt><trkpt lat="46.2732886" lon="12.9789785"><ele>741.0</ele><time>2026-04-19T09:03:45.184Z</time></trkpt><trkpt lat="46.2731964" lon="12.9790746"><ele>741.0</ele><time>2026-04-19T09:03:46.184Z</time></trkpt><trkpt lat="46.2731024" lon="12.9791495"><ele>741.0</ele><time>2026-04-19T09:03:47.184Z</time></trkpt><trkpt lat="46.273006" lon="12.9792171"><ele>741.0</ele><time>2026-04-19T09:03:48.185Z</time></trkpt><trkpt lat="46.2729107" lon="12.9792745"><ele>741.0</ele><time>2026-04-19T09:03:49.184Z</time></trkpt><trkpt lat="46.2728299" lon="12.979329"><ele>737.4</ele><time>2026-04-19T09:03:50.184Z</time></trkpt><trkpt lat="46.2727723" lon="12.9793993"><ele>733.8</ele><time>2026-04-19T09:03:51.184Z</time></trkpt><trkpt lat="46.2727164" lon="12.9794848"><ele>730.1999999999999</ele><time>2026-04-19T09:03:52.184Z</time></trkpt><trkpt lat="46.2726776" lon="12.9796021"><ele>726.5999999999999</ele><time>2026-04-19T09:03:53.184Z</time></trkpt><trkpt lat="46.2726486" lon="12.9797402"><ele>723.0</ele><time>2026-04-19T09:03:54.183Z</time></trkpt><trkpt lat="46.2726239" lon="12.9799044"><ele>722.8333333333334</ele><time>2026-04-19T09:03:55.184Z</time></trkpt><trkpt lat="46.2725989" lon="12.9800556"><ele>722.6666666666666</ele><time>2026-04-19T09:03:56.185Z</time></trkpt><trkpt lat="46.2725829" lon="12.9801891"><ele>722.5</ele><time>2026-04-19T09:03:57.184Z</time></trkpt><trkpt lat="46.2725842" lon="12.9803081"><ele>722.3333333333333</ele><time>2026-04-19T09:03:58.183Z</time></trkpt><trkpt lat="46.2725975" lon="12.9804249"><ele>722.1666666666666</ele><time>2026-04-19T09:03:59.184Z</time></trkpt><trkpt lat="46.2726357" lon="12.980531"><ele>722.0</ele><time>2026-04-19T09:04:00.183Z</time></trkpt><trkpt lat="46.272702" lon="12.9806417"><ele>722.0</ele><time>2026-04-19T09:04:01.184Z</time></trkpt><trkpt lat="46.2727642" lon="12.9807525"><ele>722.0</ele><time>2026-04-19T09:04:02.185Z</time></trkpt><trkpt lat="46.2728199" lon="12.9808558"><ele>722.0</ele><time>2026-04-19T09:04:03.184Z</time></trkpt><trkpt lat="46.2728666" lon="12.9809667"><ele>722.0</ele><time>2026-04-19T09:04:04.184Z</time></trkpt><trkpt lat="46.2729052" lon="12.9810931"><ele>722.0</ele><time>2026-04-19T09:04:05.184Z</time></trkpt><trkpt lat="46.2729346" lon="12.9812306"><ele>721.6</ele><time>2026-04-19T09:04:06.183Z</time></trkpt><trkpt lat="46.2729536" lon="12.9813897"><ele>721.2</ele><time>2026-04-19T09:04:07.184Z</time></trkpt><trkpt lat="46.2729732" lon="12.9815347"><ele>720.8</ele><time>2026-04-19T09:04:08.184Z</time></trkpt><trkpt lat="46.2730145" lon="12.9816775"><ele>720.4</ele><time>2026-04-19T09:04:09.184Z</time></trkpt><trkpt lat="46.2730529" lon="12.9818299"><ele>720.0</ele><time>2026-04-19T09:04:10.183Z</time></trkpt><trkpt lat="46.2730826" lon="12.9819858"><ele>722.5</ele><time>2026-04-19T09:04:11.184Z</time></trkpt><trkpt lat="46.2731149" lon="12.9821467"><ele>725.0</ele><time>2026-04-19T09:04:12.185Z</time></trkpt><trkpt lat="46.273139" lon="12.9823072"><ele>727.5</ele><time>2026-04-19T09:04:13.184Z</time></trkpt><trkpt lat="46.2731282" lon="12.982457"><ele>730.0</ele><time>2026-04-19T09:04:14.184Z</time></trkpt><trkpt lat="46.2730942" lon="12.9826235"><ele>730.0</ele><time>2026-04-19T09:04:15.185Z</time></trkpt><trkpt lat="46.2730615" lon="12.9827968"><ele>730.0</ele><time>2026-04-19T09:04:16.183Z</time></trkpt><trkpt lat="46.273033" lon="12.9829733"><ele>730.0</ele><time>2026-04-19T09:04:17.184Z</time></trkpt><trkpt lat="46.2730065" lon="12.9831505"><ele>730.0</ele><time>2026-04-19T09:04:18.184Z</time></trkpt><trkpt lat="46.2729716" lon="12.9833352"><ele>733.75</ele><time>2026-04-19T09:04:19.184Z</time></trkpt><trkpt lat="46.272938" lon="12.9835217"><ele>737.5</ele><time>2026-04-19T09:04:20.184Z</time></trkpt><trkpt lat="46.272905" lon="12.9837127"><ele>741.25</ele><time>2026-04-19T09:04:21.184Z</time></trkpt><trkpt lat="46.2728743" lon="12.983893"><ele>745.0</ele><time>2026-04-19T09:04:22.183Z</time></trkpt><trkpt lat="46.272851" lon="12.9840583"><ele>747.8333333333334</ele><time>2026-04-19T09:04:23.184Z</time></trkpt><trkpt lat="46.2728284" lon="12.984199"><ele>750.6666666666667</ele><time>2026-04-19T09:04:24.184Z</time></trkpt><trkpt lat="46.2728043" lon="12.984324"><ele>753.5</ele><time>2026-04-19T09:04:25.184Z</time></trkpt><trkpt lat="46.2727745" lon="12.9844343"><ele>756.3333333333334</ele><time>2026-04-19T09:04:26.184Z</time></trkpt><trkpt lat="46.2727373" lon="12.9845315"><ele>759.1666666666666</ele><time>2026-04-19T09:04:27.183Z</time></trkpt><trkpt lat="46.272695" lon="12.9846285"><ele>762.0</ele><time>2026-04-19T09:04:28.184Z</time></trkpt><trkpt lat="46.2726334" lon="12.9847237"><ele>762.0</ele><time>2026-04-19T09:04:29.184Z</time></trkpt><trkpt lat="46.2725494" lon="12.9848283"><ele>762.0</ele><time>2026-04-19T09:04:30.183Z</time></trkpt><trkpt lat="46.2724606" lon="12.9849319"><ele>762.0</ele><time>2026-04-19T09:04:31.184Z</time></trkpt><trkpt lat="46.2723803" lon="12.9850369"><ele>762.0</ele><time>2026-04-19T09:04:32.185Z</time></trkpt><trkpt lat="46.2723084" lon="12.9851537"><ele>762.0</ele><time>2026-04-19T09:04:33.183Z</time></trkpt><trkpt lat="46.2722435" lon="12.9852741"><ele>760.2</ele><time>2026-04-19T09:04:34.184Z</time></trkpt><trkpt lat="46.2721964" lon="12.985419"><ele>758.4000000000001</ele><time>2026-04-19T09:04:35.183Z</time></trkpt><trkpt lat="46.2721524" lon="12.9855667"><ele>756.5999999999999</ele><time>2026-04-19T09:04:36.183Z</time></trkpt><trkpt lat="46.272112" lon="12.9857161"><ele>754.8</ele><time>2026-04-19T09:04:37.185Z</time></trkpt><trkpt lat="46.2720644" lon="12.9858518"><ele>753.0</ele><time>2026-04-19T09:04:38.184Z</time></trkpt><trkpt lat="46.2720023" lon="12.9859738"><ele>757.5</ele><time>2026-04-19T09:04:39.184Z</time></trkpt><trkpt lat="46.271935" lon="12.9860952"><ele>762.0</ele><time>2026-04-19T09:04:40.184Z</time></trkpt><trkpt lat="46.2718593" lon="12.9862348"><ele>766.5</ele><time>2026-04-19T09:04:41.183Z</time></trkpt><trkpt lat="46.2717706" lon="12.9864012"><ele>771.0</ele><time>2026-04-19T09:04:42.185Z</time></trkpt><trkpt lat="46.2716764" lon="12.9865874"><ele>773.75</ele><time>2026-04-19T09:04:43.183Z</time></trkpt><trkpt lat="46.2715942" lon="12.9867477"><ele>776.5</ele><time>2026-04-19T09:04:44.184Z</time></trkpt><trkpt lat="46.2715176" lon="12.986884"><ele>779.25</ele><time>2026-04-19T09:04:45.184Z</time></trkpt><trkpt lat="46.2714447" lon="12.9870035"><ele>782.0</ele><time>2026-04-19T09:04:46.184Z</time></trkpt><trkpt lat="46.2713764" lon="12.9871079"><ele>782.0</ele><time>2026-04-19T09:04:47.184Z</time></trkpt><trkpt lat="46.2713088" lon="12.9871953"><ele>782.0</ele><time>2026-04-19T09:04:48.184Z</time></trkpt><trkpt lat="46.2712297" lon="12.9872732"><ele>782.0</ele><time>2026-04-19T09:04:49.183Z</time></trkpt><trkpt lat="46.2711424" lon="12.9873383"><ele>782.0</ele><time>2026-04-19T09:04:50.184Z</time></trkpt><trkpt lat="46.2710498" lon="12.9873926"><ele>782.0</ele><time>2026-04-19T09:04:51.184Z</time></trkpt><trkpt lat="46.2709507" lon="12.9874433"><ele>782.0</ele><time>2026-04-19T09:04:52.185Z</time></trkpt><trkpt lat="46.2708406" lon="12.9874943"><ele>782.0</ele><time>2026-04-19T09:04:53.183Z</time></trkpt><trkpt lat="46.2707243" lon="12.9875528"><ele>782.0</ele><time>2026-04-19T09:04:54.184Z</time></trkpt><trkpt lat="46.2706069" lon="12.9876128"><ele>782.0</ele><time>2026-04-19T09:04:55.184Z</time></trkpt><trkpt lat="46.2704793" lon="12.987633"><ele>786.8</ele><time>2026-04-19T09:04:56.185Z</time></trkpt><trkpt lat="46.2703616" lon="12.987647"><ele>791.6</ele><time>2026-04-19T09:04:57.184Z</time></trkpt><trkpt lat="46.2702719" lon="12.9876596"><ele>796.4</ele><time>2026-04-19T09:04:58.184Z</time></trkpt><trkpt lat="46.2701936" lon="12.9876833"><ele>801.1999999999999</ele><time>2026-04-19T09:04:59.184Z</time></trkpt><trkpt lat="46.2701249" lon="12.9877396"><ele>806.0</ele><time>2026-04-19T09:05:00.183Z</time></trkpt><trkpt lat="46.2700427" lon="12.987814"><ele>806.0</ele><time>2026-04-19T09:05:01.185Z</time></trkpt><trkpt lat="46.2699853" lon="12.9878825"><ele>806.0</ele><time>2026-04-19T09:05:02.184Z</time></trkpt><trkpt lat="46.2699001" lon="12.9879946"><ele>806.0</ele><time>2026-04-19T09:05:04.184Z</time></trkpt><trkpt lat="46.2698251" lon="12.9880475"><ele>806.0</ele><time>2026-04-19T09:05:06.184Z</time></trkpt><trkpt lat="46.2697616" lon="12.9879732"><ele>806.0</ele><time>2026-04-19T09:05:07.183Z</time></trkpt><trkpt lat="46.2696935" lon="12.9878425"><ele>804.3333333333334</ele><time>2026-04-19T09:05:08.184Z</time></trkpt><trkpt lat="46.2695996" lon="12.9876459"><ele>802.6666666666667</ele><time>2026-04-19T09:05:09.184Z</time></trkpt><trkpt lat="46.2694883" lon="12.9874731"><ele>801.0</ele><time>2026-04-19T09:05:10.184Z</time></trkpt><trkpt lat="46.2693979" lon="12.9872982"><ele>801.0</ele><time>2026-04-19T09:05:11.185Z</time></trkpt><trkpt lat="46.2693346" lon="12.9871541"><ele>801.0</ele><time>2026-04-19T09:05:12.184Z</time></trkpt><trkpt lat="46.2692938" lon="12.9870545"><ele>801.0</ele><time>2026-04-19T09:05:13.184Z</time></trkpt><trkpt lat="46.2692273" lon="12.9869712"><ele>801.0</ele><time>2026-04-19T09:05:15.184Z</time></trkpt><trkpt lat="46.2691748" lon="12.9870578"><ele>801.0</ele><time>2026-04-19T09:05:17.185Z</time></trkpt><trkpt lat="46.2691705" lon="12.987168"><ele>801.0</ele><time>2026-04-19T09:05:19.183Z</time></trkpt><trkpt lat="46.2692574" lon="12.9872789"><ele>801.0</ele><time>2026-04-19T09:05:21.185Z</time></trkpt><trkpt lat="46.2693001" lon="12.9873559"><ele>801.0</ele><time>2026-04-19T09:05:22.183Z</time></trkpt><trkpt lat="46.2693319" lon="12.9874448"><ele>801.0</ele><time>2026-04-19T09:05:23.183Z</time></trkpt><trkpt lat="46.2693657" lon="12.9875317"><ele>801.0</ele><time>2026-04-19T09:05:24.184Z</time></trkpt><trkpt lat="46.2694189" lon="12.9876107"><ele>801.0</ele><time>2026-04-19T09:05:25.184Z</time></trkpt><trkpt lat="46.2694731" lon="12.987689"><ele>801.0</ele><time>2026-04-19T09:05:26.183Z</time></trkpt><trkpt lat="46.2695183" lon="12.9877764"><ele>801.0</ele><time>2026-04-19T09:05:27.184Z</time></trkpt><trkpt lat="46.2695641" lon="12.9878728"><ele>801.8333333333334</ele><time>2026-04-19T09:05:28.184Z</time></trkpt><trkpt lat="46.2696107" lon="12.9879623"><ele>802.6666666666667</ele><time>2026-04-19T09:05:29.184Z</time></trkpt><trkpt lat="46.2696369" lon="12.9880744"><ele>803.5</ele><time>2026-04-19T09:05:30.183Z</time></trkpt><trkpt lat="46.2696649" lon="12.9881692"><ele>804.3333333333334</ele><time>2026-04-19T09:05:31.185Z</time></trkpt><trkpt lat="46.2697594" lon="12.9882904"><ele>805.1666666666667</ele><time>2026-04-19T09:05:33.183Z</time></trkpt><trkpt lat="46.2698487" lon="12.9882864"><ele>806.0</ele><time>2026-04-19T09:05:34.184Z</time></trkpt><trkpt lat="46.2699325" lon="12.9882761"><ele>806.0</ele><time>2026-04-19T09:05:35.184Z</time></trkpt><trkpt lat="46.2700111" lon="12.9882246"><ele>806.0</ele><time>2026-04-19T09:05:36.184Z</time></trkpt><trkpt lat="46.2701065" lon="12.9881982"><ele>806.0</ele><time>2026-04-19T09:05:37.183Z</time></trkpt><trkpt lat="46.2702071" lon="12.9881858"><ele>806.0</ele><time>2026-04-19T09:05:38.184Z</time></trkpt><trkpt lat="46.2703079" lon="12.9881747"><ele>806.0</ele><time>2026-04-19T09:05:39.184Z</time></trkpt><trkpt lat="46.2704082" lon="12.988188"><ele>806.0</ele><time>2026-04-19T09:05:40.184Z</time></trkpt><trkpt lat="46.27052" lon="12.9882073"><ele>806.0</ele><time>2026-04-19T09:05:41.184Z</time></trkpt><trkpt lat="46.270632" lon="12.9882208"><ele>806.0</ele><time>2026-04-19T09:05:42.185Z</time></trkpt><trkpt lat="46.2707459" lon="12.9882265"><ele>806.0</ele><time>2026-04-19T09:05:43.184Z</time></trkpt><trkpt lat="46.2708646" lon="12.9882097"><ele>807.25</ele><time>2026-04-19T09:05:44.184Z</time></trkpt><trkpt lat="46.2709741" lon="12.9881703"><ele>808.5</ele><time>2026-04-19T09:05:45.183Z</time></trkpt><trkpt lat="46.2710945" lon="12.9881498"><ele>809.75</ele><time>2026-04-19T09:05:46.184Z</time></trkpt><trkpt lat="46.2712171" lon="12.9881413"><ele>811.0</ele><time>2026-04-19T09:05:47.184Z</time></trkpt><trkpt lat="46.2713398" lon="12.9881392"><ele>813.4</ele><time>2026-04-19T09:05:48.183Z</time></trkpt><trkpt lat="46.2714596" lon="12.988128"><ele>815.8</ele><time>2026-04-19T09:05:49.183Z</time></trkpt><trkpt lat="46.2715673" lon="12.9881002"><ele>818.1999999999999</ele><time>2026-04-19T09:05:50.183Z</time></trkpt><trkpt lat="46.2716693" lon="12.988063"><ele>820.5999999999999</ele><time>2026-04-19T09:05:51.184Z</time></trkpt><trkpt lat="46.2717687" lon="12.9880118"><ele>823.0</ele><time>2026-04-19T09:05:52.183Z</time></trkpt><trkpt lat="46.2718584" lon="12.9879213"><ele>823.0</ele><time>2026-04-19T09:05:53.183Z</time></trkpt><trkpt lat="46.2719547" lon="12.9878332"><ele>823.0</ele><time>2026-04-19T09:05:54.184Z</time></trkpt><trkpt lat="46.2720595" lon="12.9877528"><ele>823.0</ele><time>2026-04-19T09:05:55.184Z</time></trkpt><trkpt lat="46.2721614" lon="12.9876651"><ele>823.0</ele><time>2026-04-19T09:05:56.184Z</time></trkpt><trkpt lat="46.2722606" lon="12.9875701"><ele>822.0</ele><time>2026-04-19T09:05:57.184Z</time></trkpt><trkpt lat="46.2723675" lon="12.9874766"><ele>821.0</ele><time>2026-04-19T09:05:58.184Z</time></trkpt><trkpt lat="46.2724754" lon="12.9873782"><ele>820.0</ele><time>2026-04-19T09:05:59.183Z</time></trkpt><trkpt lat="46.2725839" lon="12.9872976"><ele>819.0</ele><time>2026-04-19T09:06:00.184Z</time></trkpt><trkpt lat="46.2726911" lon="12.9872344"><ele>819.0</ele><time>2026-04-19T09:06:01.184Z</time></trkpt><trkpt lat="46.2727895" lon="12.9871744"><ele>819.0</ele><time>2026-04-19T09:06:02.184Z</time></trkpt><trkpt lat="46.2728759" lon="12.9871106"><ele>819.0</ele><time>2026-04-19T09:06:03.184Z</time></trkpt><trkpt lat="46.2729558" lon="12.9870336"><ele>819.0</ele><time>2026-04-19T09:06:04.185Z</time></trkpt><trkpt lat="46.2730124" lon="12.9869372"><ele>819.0</ele><time>2026-04-19T09:06:05.183Z</time></trkpt><trkpt lat="46.2730478" lon="12.9868228"><ele>819.0</ele><time>2026-04-19T09:06:06.184Z</time></trkpt><trkpt lat="46.2730691" lon="12.9867079"><ele>819.0</ele><time>2026-04-19T09:06:07.184Z</time></trkpt><trkpt lat="46.2730906" lon="12.9866092"><ele>819.0</ele><time>2026-04-19T09:06:08.184Z</time></trkpt><trkpt lat="46.2731502" lon="12.9865507"><ele>819.0</ele><time>2026-04-19T09:06:10.184Z</time></trkpt><trkpt lat="46.2731789" lon="12.9866465"><ele>819.0</ele><time>2026-04-19T09:06:12.183Z</time></trkpt><trkpt lat="46.2731299" lon="12.9868524"><ele>819.0</ele><time>2026-04-19T09:06:14.184Z</time></trkpt><trkpt lat="46.2730855" lon="12.9869744"><ele>819.0</ele><time>2026-04-19T09:06:15.184Z</time></trkpt><trkpt lat="46.2730302" lon="12.9870919"><ele>819.0</ele><time>2026-04-19T09:06:16.184Z</time></trkpt><trkpt lat="46.2729533" lon="12.9872113"><ele>819.0</ele><time>2026-04-19T09:06:17.183Z</time></trkpt><trkpt lat="46.2728557" lon="12.9873339"><ele>819.0</ele><time>2026-04-19T09:06:18.185Z</time></trkpt><trkpt lat="46.2727505" lon="12.9874619"><ele>828.6666666666667</ele><time>2026-04-19T09:06:19.184Z</time></trkpt><trkpt lat="46.2726457" lon="12.9876192"><ele>838.3333333333334</ele><time>2026-04-19T09:06:20.184Z</time></trkpt><trkpt lat="46.272531" lon="12.9878084"><ele>848.0</ele><time>2026-04-19T09:06:21.184Z</time></trkpt><trkpt lat="46.2724222" lon="12.9879877"><ele>848.0</ele><time>2026-04-19T09:06:22.184Z</time></trkpt><trkpt lat="46.2723274" lon="12.9881442"><ele>848.0</ele><time>2026-04-19T09:06:23.184Z</time></trkpt><trkpt lat="46.2722446" lon="12.9882853"><ele>848.0</ele><time>2026-04-19T09:06:24.184Z</time></trkpt><trkpt lat="46.2721649" lon="12.9884019"><ele>848.0</ele><time>2026-04-19T09:06:25.183Z</time></trkpt><trkpt lat="46.2720922" lon="12.9885039"><ele>850.0</ele><time>2026-04-19T09:06:26.184Z</time></trkpt><trkpt lat="46.2720204" lon="12.9886012"><ele>852.0</ele><time>2026-04-19T09:06:27.184Z</time></trkpt><trkpt lat="46.2719371" lon="12.9887027"><ele>854.0</ele><time>2026-04-19T09:06:28.185Z</time></trkpt><trkpt lat="46.2718372" lon="12.9887735"><ele>856.0</ele><time>2026-04-19T09:06:29.183Z</time></trkpt><trkpt lat="46.2717404" lon="12.9888523"><ele>858.0</ele><time>2026-04-19T09:06:30.184Z</time></trkpt><trkpt lat="46.2716445" lon="12.9889305"><ele>858.0</ele><time>2026-04-19T09:06:31.184Z</time></trkpt><trkpt lat="46.2715489" lon="12.989006"><ele>858.0</ele><time>2026-04-19T09:06:32.183Z</time></trkpt><trkpt lat="46.2714499" lon="12.9890815"><ele>858.0</ele><time>2026-04-19T09:06:33.182Z</time></trkpt><trkpt lat="46.2713238" lon="12.98911"><ele>858.0</ele><time>2026-04-19T09:06:34.183Z</time></trkpt><trkpt lat="46.2712043" lon="12.9891306"><ele>855.4</ele><time>2026-04-19T09:06:35.183Z</time></trkpt><trkpt lat="46.2710864" lon="12.9891682"><ele>852.8</ele><time>2026-04-19T09:06:36.183Z</time></trkpt><trkpt lat="46.2709853" lon="12.9892301"><ele>850.2</ele><time>2026-04-19T09:06:37.183Z</time></trkpt><trkpt lat="46.2708877" lon="12.9892613"><ele>847.6</ele><time>2026-04-19T09:06:38.183Z</time></trkpt><trkpt lat="46.2707988" lon="12.9893103"><ele>845.0</ele><time>2026-04-19T09:06:39.183Z</time></trkpt><trkpt lat="46.2707244" lon="12.989363"><ele>847.5000000000001</ele><time>2026-04-19T09:06:40.184Z</time></trkpt><trkpt lat="46.2706457" lon="12.9894102"><ele>850.0</ele><time>2026-04-19T09:06:41.182Z</time></trkpt><trkpt lat="46.2705546" lon="12.9894305"><ele>852.5</ele><time>2026-04-19T09:06:42.183Z</time></trkpt><trkpt lat="46.27047" lon="12.9894436"><ele>855.0</ele><time>2026-04-19T09:06:43.182Z</time></trkpt><trkpt lat="46.2703877" lon="12.989463"><ele>857.5000000000001</ele><time>2026-04-19T09:06:44.183Z</time></trkpt><trkpt lat="46.2703108" lon="12.9894846"><ele>860.0</ele><time>2026-04-19T09:06:45.183Z</time></trkpt><trkpt lat="46.2702317" lon="12.9895252"><ele>860.0</ele><time>2026-04-19T09:06:46.184Z</time></trkpt><trkpt lat="46.2701468" lon="12.9896093"><ele>860.0</ele><time>2026-04-19T09:06:47.183Z</time></trkpt><trkpt lat="46.2700745" lon="12.989667"><ele>860.0</ele><time>2026-04-19T09:06:48.182Z</time></trkpt><trkpt lat="46.2700146" lon="12.9897926"><ele>860.0</ele><time>2026-04-19T09:06:49.184Z</time></trkpt><trkpt lat="46.2699497" lon="12.989868"><ele>860.0</ele><time>2026-04-19T09:06:50.182Z</time></trkpt><trkpt lat="46.2698782" lon="12.9899607"><ele>861.8</ele><time>2026-04-19T09:06:51.183Z</time></trkpt><trkpt lat="46.2698169" lon="12.9900631"><ele>863.6</ele><time>2026-04-19T09:06:52.183Z</time></trkpt><trkpt lat="46.2697698" lon="12.9901857"><ele>865.4000000000001</ele><time>2026-04-19T09:06:53.184Z</time></trkpt><trkpt lat="46.2697175" lon="12.9903001"><ele>867.2</ele><time>2026-04-19T09:06:54.183Z</time></trkpt><trkpt lat="46.2696541" lon="12.9903964"><ele>869.0</ele><time>2026-04-19T09:06:55.183Z</time></trkpt><trkpt lat="46.2695888" lon="12.9904844"><ele>869.0</ele><time>2026-04-19T09:06:56.183Z</time></trkpt><trkpt lat="46.269519" lon="12.9905686"><ele>869.0000000000001</ele><time>2026-04-19T09:06:57.183Z</time></trkpt><trkpt lat="46.2694214" lon="12.9905992"><ele>869.0000000000001</ele><time>2026-04-19T09:06:58.182Z</time></trkpt><trkpt lat="46.2693309" lon="12.9906327"><ele>869.0</ele><time>2026-04-19T09:06:59.183Z</time></trkpt><trkpt lat="46.2692397" lon="12.9906502"><ele>869.0</ele><time>2026-04-19T09:07:00.184Z</time></trkpt><trkpt lat="46.269155" lon="12.9906583"><ele>869.0</ele><time>2026-04-19T09:07:01.183Z</time></trkpt><trkpt lat="46.2690718" lon="12.9906365"><ele>869.0000000000001</ele><time>2026-04-19T09:07:02.184Z</time></trkpt><trkpt lat="46.2689935" lon="12.9905939"><ele>869.0000000000001</ele><time>2026-04-19T09:07:03.183Z</time></trkpt><trkpt lat="46.2689092" lon="12.9905542"><ele>869.0</ele><time>2026-04-19T09:07:04.183Z</time></trkpt><trkpt lat="46.2688158" lon="12.990624"><ele>869.0</ele><time>2026-04-19T09:07:06.183Z</time></trkpt><trkpt lat="46.2686871" lon="12.990737"><ele>873.2</ele><time>2026-04-19T09:07:08.182Z</time></trkpt><trkpt lat="46.2686316" lon="12.9908071"><ele>877.4000000000001</ele><time>2026-04-19T09:07:09.182Z</time></trkpt><trkpt lat="46.268582" lon="12.9908765"><ele>881.6</ele><time>2026-04-19T09:07:10.182Z</time></trkpt><trkpt lat="46.2684918" lon="12.9909384"><ele>885.8</ele><time>2026-04-19T09:07:12.182Z</time></trkpt><trkpt lat="46.2683966" lon="12.9908346"><ele>890.0</ele><time>2026-04-19T09:07:14.183Z</time></trkpt><trkpt lat="46.2683219" lon="12.9907395"><ele>890.0000000000001</ele><time>2026-04-19T09:07:15.183Z</time></trkpt><trkpt lat="46.2682868" lon="12.9906241"><ele>890.0</ele><time>2026-04-19T09:07:16.183Z</time></trkpt><trkpt lat="46.2682458" lon="12.9904973"><ele>890.0</ele><time>2026-04-19T09:07:17.183Z</time></trkpt><trkpt lat="46.2682246" lon="12.9903774"><ele>890.0</ele><time>2026-04-19T09:07:18.183Z</time></trkpt><trkpt lat="46.2682235" lon="12.990234"><ele>890.0000000000001</ele><time>2026-04-19T09:07:19.183Z</time></trkpt><trkpt lat="46.2682013" lon="12.9901317"><ele>890.0</ele><time>2026-04-19T09:07:20.183Z</time></trkpt><trkpt lat="46.2681568" lon="12.9900554"><ele>890.6</ele><time>2026-04-19T09:07:21.183Z</time></trkpt><trkpt lat="46.2680384" lon="12.9899493"><ele>891.2</ele><time>2026-04-19T09:07:23.183Z</time></trkpt><trkpt lat="46.267964" lon="12.9899038"><ele>891.8</ele><time>2026-04-19T09:07:24.183Z</time></trkpt><trkpt lat="46.2678997" lon="12.989848"><ele>892.4</ele><time>2026-04-19T09:07:25.183Z</time></trkpt><trkpt lat="46.2678428" lon="12.9897818"><ele>893.0</ele><time>2026-04-19T09:07:26.183Z</time></trkpt><trkpt lat="46.2677723" lon="12.9897087"><ele>893.0000000000001</ele><time>2026-04-19T09:07:27.183Z</time></trkpt><trkpt lat="46.267717" lon="12.9896249"><ele>893.0</ele><time>2026-04-19T09:07:28.183Z</time></trkpt><trkpt lat="46.2676694" lon="12.9895303"><ele>893.0</ele><time>2026-04-19T09:07:29.182Z</time></trkpt><trkpt lat="46.2676693" lon="12.989395"><ele>893.0</ele><time>2026-04-19T09:07:30.183Z</time></trkpt><trkpt lat="46.2676318" lon="12.9893179"><ele>893.0000000000001</ele><time>2026-04-19T09:07:31.183Z</time></trkpt><trkpt lat="46.2675434" lon="12.9892529"><ele>893.0</ele><time>2026-04-19T09:07:33.184Z</time></trkpt><trkpt lat="46.2674149" lon="12.9893412"><ele>893.0000000000001</ele><time>2026-04-19T09:07:35.182Z</time></trkpt><trkpt lat="46.26734" lon="12.9893954"><ele>893.0</ele><time>2026-04-19T09:07:36.183Z</time></trkpt><trkpt lat="46.2672602" lon="12.9894373"><ele>893.0</ele><time>2026-04-19T09:07:37.183Z</time></trkpt><trkpt lat="46.2671795" lon="12.9894735"><ele>893.0</ele><time>2026-04-19T09:07:38.183Z</time></trkpt><trkpt lat="46.2670916" lon="12.9894814"><ele>893.0000000000001</ele><time>2026-04-19T09:07:39.182Z</time></trkpt><trkpt lat="46.2670061" lon="12.9894977"><ele>893.0</ele><time>2026-04-19T09:07:40.183Z</time></trkpt><trkpt lat="46.2669165" lon="12.9894962"><ele>892.6666666666667</ele><time>2026-04-19T09:07:41.182Z</time></trkpt><trkpt lat="46.2668305" lon="12.9895119"><ele>892.3333333333334</ele><time>2026-04-19T09:07:42.182Z</time></trkpt><trkpt lat="46.2667614" lon="12.9895695"><ele>892.0</ele><time>2026-04-19T09:07:43.183Z</time></trkpt><trkpt lat="46.2667101" lon="12.9896643"><ele>891.6666666666667</ele><time>2026-04-19T09:07:44.183Z</time></trkpt><trkpt lat="46.266678" lon="12.98978"><ele>891.3333333333334</ele><time>2026-04-19T09:07:45.184Z</time></trkpt><trkpt lat="46.2666608" lon="12.9899135"><ele>891.0</ele><time>2026-04-19T09:07:46.182Z</time></trkpt><trkpt lat="46.2666488" lon="12.9900551"><ele>891.0</ele><time>2026-04-19T09:07:47.183Z</time></trkpt><trkpt lat="46.2666374" lon="12.9902074"><ele>891.0</ele><time>2026-04-19T09:07:48.184Z</time></trkpt><trkpt lat="46.266627" lon="12.9903748"><ele>891.0</ele><time>2026-04-19T09:07:49.182Z</time></trkpt><trkpt lat="46.2666193" lon="12.9905487"><ele>891.0</ele><time>2026-04-19T09:07:50.184Z</time></trkpt><trkpt lat="46.2666109" lon="12.9907318"><ele>891.75</ele><time>2026-04-19T09:07:51.184Z</time></trkpt><trkpt lat="46.2666017" lon="12.9909204"><ele>892.5</ele><time>2026-04-19T09:07:52.183Z</time></trkpt><trkpt lat="46.2665926" lon="12.9911091"><ele>893.25</ele><time>2026-04-19T09:07:53.182Z</time></trkpt><trkpt lat="46.2665851" lon="12.9913007"><ele>894.0</ele><time>2026-04-19T09:07:54.182Z</time></trkpt><trkpt lat="46.2665741" lon="12.9914946"><ele>893.25</ele><time>2026-04-19T09:07:55.183Z</time></trkpt><trkpt lat="46.2665631" lon="12.991688"><ele>892.5</ele><time>2026-04-19T09:07:56.182Z</time></trkpt><trkpt lat="46.2665551" lon="12.991879"><ele>891.75</ele><time>2026-04-19T09:07:57.182Z</time></trkpt><trkpt lat="46.2665484" lon="12.9920663"><ele>891.0</ele><time>2026-04-19T09:07:58.183Z</time></trkpt><trkpt lat="46.26654" lon="12.9922502"><ele>891.0</ele><time>2026-04-19T09:07:59.183Z</time></trkpt><trkpt lat="46.2665287" lon="12.992431"><ele>891.0</ele><time>2026-04-19T09:08:00.183Z</time></trkpt><trkpt lat="46.2665186" lon="12.9926104"><ele>891.0</ele><time>2026-04-19T09:08:01.182Z</time></trkpt><trkpt lat="46.2665076" lon="12.9927925"><ele>891.0</ele><time>2026-04-19T09:08:02.182Z</time></trkpt><trkpt lat="46.2664999" lon="12.9929764"><ele>891.0</ele><time>2026-04-19T09:08:03.183Z</time></trkpt><trkpt lat="46.2664875" lon="12.9931628"><ele>891.0</ele><time>2026-04-19T09:08:04.183Z</time></trkpt><trkpt lat="46.2664693" lon="12.993348"><ele>891.0</ele><time>2026-04-19T09:08:05.184Z</time></trkpt><trkpt lat="46.2664556" lon="12.9935392"><ele>891.0</ele><time>2026-04-19T09:08:06.183Z</time></trkpt><trkpt lat="46.2664448" lon="12.9937307"><ele>897.75</ele><time>2026-04-19T09:08:07.184Z</time></trkpt><trkpt lat="46.2664344" lon="12.9939167"><ele>904.5</ele><time>2026-04-19T09:08:08.183Z</time></trkpt><trkpt lat="46.2664305" lon="12.9941016"><ele>911.25</ele><time>2026-04-19T09:08:09.183Z</time></trkpt><trkpt lat="46.2664255" lon="12.9942878"><ele>918.0</ele><time>2026-04-19T09:08:10.182Z</time></trkpt><trkpt lat="46.2664156" lon="12.9944705"><ele>918.0</ele><time>2026-04-19T09:08:11.183Z</time></trkpt><trkpt lat="46.2664055" lon="12.9946392"><ele>918.0</ele><time>2026-04-19T09:08:12.183Z</time></trkpt><trkpt lat="46.2663946" lon="12.9947963"><ele>918.0</ele><time>2026-04-19T09:08:13.183Z</time></trkpt><trkpt lat="46.2663831" lon="12.9949464"><ele>918.0</ele><time>2026-04-19T09:08:14.183Z</time></trkpt><trkpt lat="46.2663742" lon="12.9950914"><ele>918.0</ele><time>2026-04-19T09:08:15.183Z</time></trkpt><trkpt lat="46.2663671" lon="12.9952372"><ele>917.5999999999999</ele><time>2026-04-19T09:08:16.183Z</time></trkpt><trkpt lat="46.2663608" lon="12.9953814"><ele>917.1999999999999</ele><time>2026-04-19T09:08:17.182Z</time></trkpt><trkpt lat="46.2663565" lon="12.9955236"><ele>916.8</ele><time>2026-04-19T09:08:18.183Z</time></trkpt><trkpt lat="46.266347" lon="12.9956548"><ele>916.4</ele><time>2026-04-19T09:08:19.183Z</time></trkpt><trkpt lat="46.2663406" lon="12.9957748"><ele>916.0</ele><time>2026-04-19T09:08:20.182Z</time></trkpt><trkpt lat="46.2663334" lon="12.9958856"><ele>915.6666666666666</ele><time>2026-04-19T09:08:21.183Z</time></trkpt><trkpt lat="46.2663278" lon="12.9959977"><ele>915.3333333333333</ele><time>2026-04-19T09:08:22.183Z</time></trkpt><trkpt lat="46.2663214" lon="12.9961121"><ele>915.0</ele><time>2026-04-19T09:08:23.183Z</time></trkpt><trkpt lat="46.2663211" lon="12.9962312"><ele>914.6666666666667</ele><time>2026-04-19T09:08:24.183Z</time></trkpt><trkpt lat="46.2663292" lon="12.9963541"><ele>914.3333333333334</ele><time>2026-04-19T09:08:25.183Z</time></trkpt><trkpt lat="46.2663435" lon="12.9964822"><ele>914.0</ele><time>2026-04-19T09:08:26.183Z</time></trkpt><trkpt lat="46.2663595" lon="12.9966051"><ele>913.0000000000001</ele><time>2026-04-19T09:08:27.184Z</time></trkpt><trkpt lat="46.2663786" lon="12.9967152"><ele>912.0</ele><time>2026-04-19T09:08:28.183Z</time></trkpt><trkpt lat="46.2664014" lon="12.9968178"><ele>911.0000000000001</ele><time>2026-04-19T09:08:29.183Z</time></trkpt><trkpt lat="46.2664257" lon="12.9969175"><ele>910.0000000000001</ele><time>2026-04-19T09:08:30.182Z</time></trkpt><trkpt lat="46.2664479" lon="12.9970162"><ele>909.0</ele><time>2026-04-19T09:08:31.182Z</time></trkpt><trkpt lat="46.2664669" lon="12.9971133"><ele>908.0000000000001</ele><time>2026-04-19T09:08:32.183Z</time></trkpt><trkpt lat="46.2664852" lon="12.9972057"><ele>907.0000000000001</ele><time>2026-04-19T09:08:33.183Z</time></trkpt><trkpt lat="46.266539" lon="12.9973528"><ele>906.8333333333333</ele><time>2026-04-19T09:08:35.183Z</time></trkpt><trkpt lat="46.2666352" lon="12.9974314"><ele>906.6666666666666</ele><time>2026-04-19T09:08:37.183Z</time></trkpt><trkpt lat="46.2666867" lon="12.9974844"><ele>906.5</ele><time>2026-04-19T09:08:38.183Z</time></trkpt><trkpt lat="46.2667398" lon="12.9975596"><ele>906.3333333333333</ele><time>2026-04-19T09:08:39.183Z</time></trkpt><trkpt lat="46.2667862" lon="12.9976447"><ele>906.1666666666666</ele><time>2026-04-19T09:08:40.183Z</time></trkpt><trkpt lat="46.2668252" lon="12.9977385"><ele>906.0</ele><time>2026-04-19T09:08:41.183Z</time></trkpt><trkpt lat="46.2668518" lon="12.9978443"><ele>904.5</ele><time>2026-04-19T09:08:42.184Z</time></trkpt><trkpt lat="46.2668683" lon="12.9979598"><ele>903.0</ele><time>2026-04-19T09:08:43.183Z</time></trkpt><trkpt lat="46.2668921" lon="12.9980753"><ele>901.5</ele><time>2026-04-19T09:08:44.183Z</time></trkpt><trkpt lat="46.2669324" lon="12.9981846"><ele>900.0</ele><time>2026-04-19T09:08:45.183Z</time></trkpt><trkpt lat="46.2669791" lon="12.998293"><ele>898.5</ele><time>2026-04-19T09:08:46.183Z</time></trkpt><trkpt lat="46.2670337" lon="12.9984007"><ele>897.0</ele><time>2026-04-19T09:08:47.183Z</time></trkpt><trkpt lat="46.2670931" lon="12.9984994"><ele>895.8333333333334</ele><time>2026-04-19T09:08:48.183Z</time></trkpt><trkpt lat="46.2671506" lon="12.9985869"><ele>894.6666666666667</ele><time>2026-04-19T09:08:49.183Z</time></trkpt><trkpt lat="46.2672124" lon="12.9986536"><ele>893.5</ele><time>2026-04-19T09:08:50.184Z</time></trkpt><trkpt lat="46.2672855" lon="12.9987008"><ele>892.3333333333334</ele><time>2026-04-19T09:08:51.183Z</time></trkpt><trkpt lat="46.2673714" lon="12.9987364"><ele>891.1666666666667</ele><time>2026-04-19T09:08:52.183Z</time></trkpt><trkpt lat="46.2674582" lon="12.9987677"><ele>890.0</ele><time>2026-04-19T09:08:53.182Z</time></trkpt><trkpt lat="46.267536" lon="12.9988105"><ele>890.0</ele><time>2026-04-19T09:08:54.182Z</time></trkpt><trkpt lat="46.2676012" lon="12.9988786"><ele>890.0</ele><time>2026-04-19T09:08:55.182Z</time></trkpt><trkpt lat="46.2676486" lon="12.9989779"><ele>890.0</ele><time>2026-04-19T09:08:56.184Z</time></trkpt><trkpt lat="46.2676982" lon="12.9990908"><ele>890.0</ele><time>2026-04-19T09:08:57.183Z</time></trkpt><trkpt lat="46.2677559" lon="12.9992097"><ele>890.0</ele><time>2026-04-19T09:08:58.182Z</time></trkpt><trkpt lat="46.267817" lon="12.9993319"><ele>891.3333333333334</ele><time>2026-04-19T09:08:59.183Z</time></trkpt><trkpt lat="46.2678787" lon="12.9994558"><ele>892.6666666666667</ele><time>2026-04-19T09:09:00.182Z</time></trkpt><trkpt lat="46.2679258" lon="12.9995713"><ele>894.0</ele><time>2026-04-19T09:09:01.183Z</time></trkpt><trkpt lat="46.2679677" lon="12.9996859"><ele>895.3333333333333</ele><time>2026-04-19T09:09:02.183Z</time></trkpt><trkpt lat="46.2680102" lon="12.9997786"><ele>896.6666666666666</ele><time>2026-04-19T09:09:03.182Z</time></trkpt><trkpt lat="46.2680502" lon="12.9998705"><ele>898.0</ele><time>2026-04-19T09:09:04.183Z</time></trkpt><trkpt lat="46.2681284" lon="12.9999"><ele>898.0</ele><time>2026-04-19T09:09:05.183Z</time></trkpt><trkpt lat="46.2681911" lon="12.9999394"><ele>898.0</ele><time>2026-04-19T09:09:06.182Z</time></trkpt><trkpt lat="46.2682604" lon="13.0000552"><ele>898.0</ele><time>2026-04-19T09:09:08.183Z</time></trkpt><trkpt lat="46.2682769" lon="13.0002282"><ele>898.0</ele><time>2026-04-19T09:09:10.182Z</time></trkpt><trkpt lat="46.2682947" lon="13.0003372"><ele>898.0</ele><time>2026-04-19T09:09:11.182Z</time></trkpt><trkpt lat="46.2683405" lon="13.0004418"><ele>898.0</ele><time>2026-04-19T09:09:12.184Z</time></trkpt><trkpt lat="46.2684012" lon="13.0005466"><ele>898.0</ele><time>2026-04-19T09:09:13.184Z</time></trkpt><trkpt lat="46.2684587" lon="13.0006608"><ele>898.0</ele><time>2026-04-19T09:09:14.184Z</time></trkpt><trkpt lat="46.2685106" lon="13.0007768"><ele>898.0</ele><time>2026-04-19T09:09:15.184Z</time></trkpt><trkpt lat="46.2685575" lon="13.0008926"><ele>898.0</ele><time>2026-04-19T09:09:16.183Z</time></trkpt><trkpt lat="46.2686043" lon="13.0010046"><ele>894.3333333333333</ele><time>2026-04-19T09:09:17.183Z</time></trkpt><trkpt lat="46.268649" lon="13.001118"><ele>890.6666666666666</ele><time>2026-04-19T09:09:18.184Z</time></trkpt><trkpt lat="46.2686889" lon="13.0012332"><ele>887.0</ele><time>2026-04-19T09:09:19.182Z</time></trkpt><trkpt lat="46.2687272" lon="13.001349"><ele>883.3333333333333</ele><time>2026-04-19T09:09:20.183Z</time></trkpt><trkpt lat="46.2687576" lon="13.0014661"><ele>879.6666666666666</ele><time>2026-04-19T09:09:21.183Z</time></trkpt><trkpt lat="46.2687744" lon="13.0015933"><ele>876.0</ele><time>2026-04-19T09:09:22.183Z</time></trkpt><trkpt lat="46.2687869" lon="13.0017292"><ele>872.0</ele><time>2026-04-19T09:09:23.182Z</time></trkpt><trkpt lat="46.2688013" lon="13.0018631"><ele>867.9999999999999</ele><time>2026-04-19T09:09:24.183Z</time></trkpt><trkpt lat="46.268804" lon="13.0020211"><ele>863.9999999999999</ele><time>2026-04-19T09:09:25.182Z</time></trkpt><trkpt lat="46.2688085" lon="13.0021752"><ele>860.0</ele><time>2026-04-19T09:09:26.184Z</time></trkpt><trkpt lat="46.2688254" lon="13.0023226"><ele>856.0</ele><time>2026-04-19T09:09:27.183Z</time></trkpt><trkpt lat="46.2688393" lon="13.0024736"><ele>854.4</ele><time>2026-04-19T09:09:28.183Z</time></trkpt><trkpt lat="46.2688561" lon="13.0026251"><ele>852.8</ele><time>2026-04-19T09:09:29.182Z</time></trkpt><trkpt lat="46.2688687" lon="13.0027785"><ele>851.1999999999999</ele><time>2026-04-19T09:09:30.182Z</time></trkpt><trkpt lat="46.2688814" lon="13.0029295"><ele>849.5999999999999</ele><time>2026-04-19T09:09:31.183Z</time></trkpt><trkpt lat="46.2688949" lon="13.0030798"><ele>848.0</ele><time>2026-04-19T09:09:32.183Z</time></trkpt><trkpt lat="46.2689058" lon="13.0032306"><ele>846.2</ele><time>2026-04-19T09:09:33.184Z</time></trkpt><trkpt lat="46.2689126" lon="13.0033759"><ele>844.4</ele><time>2026-04-19T09:09:34.183Z</time></trkpt><trkpt lat="46.2689219" lon="13.0035162"><ele>842.6</ele><time>2026-04-19T09:09:35.182Z</time></trkpt><trkpt lat="46.2689334" lon="13.0036481"><ele>840.8000000000001</ele><time>2026-04-19T09:09:36.184Z</time></trkpt><trkpt lat="46.2689535" lon="13.0037727"><ele>839.0</ele><time>2026-04-19T09:09:37.183Z</time></trkpt><trkpt lat="46.26897" lon="13.0038839"><ele>845.1666666666667</ele><time>2026-04-19T09:09:38.183Z</time></trkpt><trkpt lat="46.2689932" lon="13.0039769"><ele>851.3333333333334</ele><time>2026-04-19T09:09:39.183Z</time></trkpt><trkpt lat="46.2690222" lon="13.0040726"><ele>857.5</ele><time>2026-04-19T09:09:40.183Z</time></trkpt><trkpt lat="46.2691019" lon="13.0041166"><ele>863.6666666666667</ele><time>2026-04-19T09:09:41.183Z</time></trkpt><trkpt lat="46.2691597" lon="13.0041702"><ele>869.8333333333334</ele><time>2026-04-19T09:09:42.183Z</time></trkpt><trkpt lat="46.2692351" lon="13.0043117"><ele>876.0</ele><time>2026-04-19T09:09:44.184Z</time></trkpt><trkpt lat="46.2692495" lon="13.0044801"><ele>876.0</ele><time>2026-04-19T09:09:46.182Z</time></trkpt><trkpt lat="46.2692006" lon="13.0046062"><ele>876.0</ele><time>2026-04-19T09:09:47.183Z</time></trkpt><trkpt lat="46.2691418" lon="13.0047767"><ele>876.0</ele><time>2026-04-19T09:09:48.182Z</time></trkpt><trkpt lat="46.2691094" lon="13.0049246"><ele>876.0</ele><time>2026-04-19T09:09:49.182Z</time></trkpt><trkpt lat="46.2690546" lon="13.0050686"><ele>876.1999999999999</ele><time>2026-04-19T09:09:50.182Z</time></trkpt><trkpt lat="46.2690033" lon="13.0052058"><ele>876.3999999999999</ele><time>2026-04-19T09:09:51.183Z</time></trkpt><trkpt lat="46.2689599" lon="13.0053323"><ele>876.6</ele><time>2026-04-19T09:09:52.183Z</time></trkpt><trkpt lat="46.2689176" lon="13.0054638"><ele>876.8</ele><time>2026-04-19T09:09:53.182Z</time></trkpt><trkpt lat="46.2688832" lon="13.0055995"><ele>877.0</ele><time>2026-04-19T09:09:54.183Z</time></trkpt><trkpt lat="46.2688347" lon="13.005729"><ele>868.8</ele><time>2026-04-19T09:09:55.183Z</time></trkpt><trkpt lat="46.2687725" lon="13.0058509"><ele>860.6</ele><time>2026-04-19T09:09:56.182Z</time></trkpt><trkpt lat="46.2687058" lon="13.005974"><ele>852.4</ele><time>2026-04-19T09:09:57.183Z</time></trkpt><trkpt lat="46.2686372" lon="13.0060879"><ele>844.1999999999999</ele><time>2026-04-19T09:09:58.183Z</time></trkpt><trkpt lat="46.2685666" lon="13.006194"><ele>836.0</ele><time>2026-04-19T09:09:59.183Z</time></trkpt><trkpt lat="46.2685" lon="13.0062713"><ele>836.0</ele><time>2026-04-19T09:10:00.183Z</time></trkpt><trkpt lat="46.2684532" lon="13.0063397"><ele>836.0</ele><time>2026-04-19T09:10:01.182Z</time></trkpt><trkpt lat="46.2684035" lon="13.0064919"><ele>836.0</ele><time>2026-04-19T09:10:03.183Z</time></trkpt><trkpt lat="46.268396" lon="13.0066953"><ele>836.0</ele><time>2026-04-19T09:10:05.183Z</time></trkpt><trkpt lat="46.2683987" lon="13.0068156"><ele>836.0</ele><time>2026-04-19T09:10:06.183Z</time></trkpt><trkpt lat="46.2684067" lon="13.0069139"><ele>837.6666666666667</ele><time>2026-04-19T09:10:07.183Z</time></trkpt><trkpt lat="46.2684381" lon="13.0070131"><ele>839.3333333333334</ele><time>2026-04-19T09:10:08.183Z</time></trkpt><trkpt lat="46.2684631" lon="13.0070979"><ele>841.0</ele><time>2026-04-19T09:10:09.183Z</time></trkpt><trkpt lat="46.2684943" lon="13.0071836"><ele>842.6666666666667</ele><time>2026-04-19T09:10:10.183Z</time></trkpt><trkpt lat="46.2685719" lon="13.0072352"><ele>844.3333333333334</ele><time>2026-04-19T09:10:11.182Z</time></trkpt><trkpt lat="46.2686821" lon="13.0072562"><ele>846.0</ele><time>2026-04-19T09:10:12.182Z</time></trkpt><trkpt lat="46.2687829" lon="13.0072988"><ele>846.0</ele><time>2026-04-19T09:10:13.182Z</time></trkpt><trkpt lat="46.2688732" lon="13.0073437"><ele>846.0</ele><time>2026-04-19T09:10:14.183Z</time></trkpt><trkpt lat="46.2689407" lon="13.0073729"><ele>846.0</ele><time>2026-04-19T09:10:15.182Z</time></trkpt><trkpt lat="46.2690104" lon="13.007416"><ele>846.0</ele><time>2026-04-19T09:10:16.181Z</time></trkpt><trkpt lat="46.2690607" lon="13.0074923"><ele>846.0</ele><time>2026-04-19T09:10:17.182Z</time></trkpt><trkpt lat="46.2691009" lon="13.0075795"><ele>846.0</ele><time>2026-04-19T09:10:18.181Z</time></trkpt><trkpt lat="46.2691248" lon="13.0076834"><ele>849.8333333333334</ele><time>2026-04-19T09:10:19.182Z</time></trkpt><trkpt lat="46.2691493" lon="13.0077733"><ele>853.6666666666667</ele><time>2026-04-19T09:10:20.182Z</time></trkpt><trkpt lat="46.2692288" lon="13.0078887"><ele>857.5</ele><time>2026-04-19T09:10:22.182Z</time></trkpt><trkpt lat="46.2692792" lon="13.0079441"><ele>861.3333333333334</ele><time>2026-04-19T09:10:23.182Z</time></trkpt><trkpt lat="46.2693908" lon="13.0080037"><ele>865.1666666666667</ele><time>2026-04-19T09:10:25.181Z</time></trkpt><trkpt lat="46.269458" lon="13.0080214"><ele>869.0</ele><time>2026-04-19T09:10:26.183Z</time></trkpt><trkpt lat="46.2695607" lon="13.0080017"><ele>869.0</ele><time>2026-04-19T09:10:27.182Z</time></trkpt><trkpt lat="46.2696427" lon="13.0080477"><ele>869.0000000000001</ele><time>2026-04-19T09:10:28.182Z</time></trkpt><trkpt lat="46.2697176" lon="13.0081066"><ele>869.0000000000001</ele><time>2026-04-19T09:10:29.181Z</time></trkpt><trkpt lat="46.2697899" lon="13.0081813"><ele>869.0</ele><time>2026-04-19T09:10:30.182Z</time></trkpt><trkpt lat="46.2698565" lon="13.0082815"><ele>869.0</ele><time>2026-04-19T09:10:31.182Z</time></trkpt><trkpt lat="46.2699258" lon="13.0083881"><ele>869.8000000000001</ele><time>2026-04-19T09:10:32.182Z</time></trkpt><trkpt lat="46.2700097" lon="13.0084997"><ele>870.6000000000001</ele><time>2026-04-19T09:10:33.182Z</time></trkpt><trkpt lat="46.2700915" lon="13.0085818"><ele>871.4</ele><time>2026-04-19T09:10:34.182Z</time></trkpt><trkpt lat="46.2701763" lon="13.0086597"><ele>872.2</ele><time>2026-04-19T09:10:35.182Z</time></trkpt><trkpt lat="46.2702408" lon="13.0087493"><ele>873.0</ele><time>2026-04-19T09:10:36.181Z</time></trkpt><trkpt lat="46.2703147" lon="13.0088383"><ele>873.0</ele><time>2026-04-19T09:10:37.181Z</time></trkpt><trkpt lat="46.2703097" lon="13.0089521"><ele>873.0</ele><time>2026-04-19T09:10:38.183Z</time></trkpt><trkpt lat="46.2703207" lon="13.0091381"><ele>873.0</ele><time>2026-04-19T09:10:40.181Z</time></trkpt><trkpt lat="46.2703607" lon="13.0092971"><ele>873.0</ele><time>2026-04-19T09:10:42.182Z</time></trkpt><trkpt lat="46.2703876" lon="13.0093818"><ele>873.0</ele><time>2026-04-19T09:10:43.182Z</time></trkpt><trkpt lat="46.2704566" lon="13.0094361"><ele>873.6666666666666</ele><time>2026-04-19T09:10:44.182Z</time></trkpt><trkpt lat="46.2704965" lon="13.0095078"><ele>874.3333333333333</ele><time>2026-04-19T09:10:45.182Z</time></trkpt><trkpt lat="46.2705821" lon="13.0095644"><ele>875.0</ele><time>2026-04-19T09:10:46.182Z</time></trkpt><trkpt lat="46.2706438" lon="13.0096451"><ele>875.6666666666666</ele><time>2026-04-19T09:10:47.182Z</time></trkpt><trkpt lat="46.2707053" lon="13.0097831"><ele>876.3333333333333</ele><time>2026-04-19T09:10:49.182Z</time></trkpt><trkpt lat="46.2707133" lon="13.0099019"><ele>877.0</ele><time>2026-04-19T09:10:50.182Z</time></trkpt><trkpt lat="46.2707114" lon="13.010015"><ele>876.9999999999999</ele><time>2026-04-19T09:10:51.182Z</time></trkpt><trkpt lat="46.2707473" lon="13.010199"><ele>877.0</ele><time>2026-04-19T09:10:53.181Z</time></trkpt><trkpt lat="46.2708091" lon="13.0102501"><ele>877.0</ele><time>2026-04-19T09:10:54.182Z</time></trkpt><trkpt lat="46.2708607" lon="13.0103079"><ele>877.0</ele><time>2026-04-19T09:10:55.182Z</time></trkpt><trkpt lat="46.2709291" lon="13.010348"><ele>876.9999999999999</ele><time>2026-04-19T09:10:56.182Z</time></trkpt><trkpt lat="46.2709894" lon="13.0103972"><ele>877.0</ele><time>2026-04-19T09:10:57.181Z</time></trkpt><trkpt lat="46.2710448" lon="13.0104759"><ele>876.9999999999999</ele><time>2026-04-19T09:10:58.182Z</time></trkpt><trkpt lat="46.2711067" lon="13.0105299"><ele>877.0</ele><time>2026-04-19T09:10:59.183Z</time></trkpt><trkpt lat="46.2712096" lon="13.0105906"><ele>877.0</ele><time>2026-04-19T09:11:01.183Z</time></trkpt><trkpt lat="46.2712752" lon="13.0106064"><ele>877.0</ele><time>2026-04-19T09:11:02.182Z</time></trkpt><trkpt lat="46.2713428" lon="13.0106953"><ele>876.9999999999999</ele><time>2026-04-19T09:11:04.182Z</time></trkpt><trkpt lat="46.2714018" lon="13.0108081"><ele>877.0</ele><time>2026-04-19T09:11:06.182Z</time></trkpt><trkpt lat="46.2714413" lon="13.0109832"><ele>879.1666666666666</ele><time>2026-04-19T09:11:08.182Z</time></trkpt><trkpt lat="46.2714637" lon="13.0110867"><ele>881.3333333333333</ele><time>2026-04-19T09:11:09.183Z</time></trkpt><trkpt lat="46.2714445" lon="13.0112091"><ele>883.5</ele><time>2026-04-19T09:11:10.181Z</time></trkpt><trkpt lat="46.2714166" lon="13.0113714"><ele>885.6666666666667</ele><time>2026-04-19T09:11:12.181Z</time></trkpt><trkpt lat="46.2714678" lon="13.0114609"><ele>887.8333333333334</ele><time>2026-04-19T09:11:14.182Z</time></trkpt><trkpt lat="46.2715374" lon="13.0114875"><ele>890.0</ele><time>2026-04-19T09:11:16.181Z</time></trkpt><trkpt lat="46.2716526" lon="13.011465"><ele>890.0</ele><time>2026-04-19T09:11:18.182Z</time></trkpt><trkpt lat="46.2717157" lon="13.0114502"><ele>890.0</ele><time>2026-04-19T09:11:19.182Z</time></trkpt><trkpt lat="46.2717985" lon="13.0114429"><ele>890.0</ele><time>2026-04-19T09:11:20.182Z</time></trkpt><trkpt lat="46.2719389" lon="13.0114586"><ele>890.0</ele><time>2026-04-19T09:11:22.183Z</time></trkpt><trkpt lat="46.2720179" lon="13.011477"><ele>890.0</ele><time>2026-04-19T09:11:23.181Z</time></trkpt><trkpt lat="46.2720836" lon="13.0115487"><ele>890.0000000000001</ele><time>2026-04-19T09:11:24.182Z</time></trkpt><trkpt lat="46.2721469" lon="13.0116167"><ele>890.0</ele><time>2026-04-19T09:11:25.182Z</time></trkpt><trkpt lat="46.2722218" lon="13.0116716"><ele>890.0</ele><time>2026-04-19T09:11:26.182Z</time></trkpt><trkpt lat="46.2723127" lon="13.0116944"><ele>890.0</ele><time>2026-04-19T09:11:27.182Z</time></trkpt><trkpt lat="46.2723929" lon="13.0117276"><ele>890.0000000000001</ele><time>2026-04-19T09:11:28.183Z</time></trkpt><trkpt lat="46.2724834" lon="13.011763"><ele>890.0</ele><time>2026-04-19T09:11:29.181Z</time></trkpt><trkpt lat="46.2725674" lon="13.0117874"><ele>890.2857142857143</ele><time>2026-04-19T09:11:30.182Z</time></trkpt><trkpt lat="46.2726434" lon="13.0118403"><ele>890.5714285714286</ele><time>2026-04-19T09:11:31.183Z</time></trkpt><trkpt lat="46.2727094" lon="13.0119007"><ele>890.8571428571429</ele><time>2026-04-19T09:11:32.182Z</time></trkpt><trkpt lat="46.2727689" lon="13.0119582"><ele>891.1428571428571</ele><time>2026-04-19T09:11:33.182Z</time></trkpt><trkpt lat="46.2728207" lon="13.0120244"><ele>891.4285714285713</ele><time>2026-04-19T09:11:34.181Z</time></trkpt><trkpt lat="46.272889" lon="13.0120636"><ele>891.7142857142857</ele><time>2026-04-19T09:11:36.183Z</time></trkpt><trkpt lat="46.2729187" lon="13.0119831"><ele>892.0</ele><time>2026-04-19T09:11:39.182Z</time></trkpt><trkpt lat="46.2728628" lon="13.0119255"><ele>891.9999999999999</ele><time>2026-04-19T09:17:41.18Z</time></trkpt><trkpt lat="46.2727731" lon="13.0118376"><ele>892.0</ele><time>2026-04-19T09:17:43.179Z</time></trkpt><trkpt lat="46.2727194" lon="13.0117787"><ele>892.0</ele><time>2026-04-19T09:17:44.179Z</time></trkpt><trkpt lat="46.2726609" lon="13.01173"><ele>892.0</ele><time>2026-04-19T09:17:45.179Z</time></trkpt><trkpt lat="46.2726036" lon="13.0116765"><ele>891.9999999999999</ele><time>2026-04-19T09:17:46.178Z</time></trkpt><trkpt lat="46.2725416" lon="13.0116227"><ele>892.0</ele><time>2026-04-19T09:17:47.179Z</time></trkpt><trkpt lat="46.2724757" lon="13.0115752"><ele>891.6666666666666</ele><time>2026-04-19T09:17:48.179Z</time></trkpt><trkpt lat="46.2724097" lon="13.0115242"><ele>891.3333333333333</ele><time>2026-04-19T09:17:49.179Z</time></trkpt><trkpt lat="46.2723431" lon="13.0114707"><ele>891.0</ele><time>2026-04-19T09:17:50.18Z</time></trkpt><trkpt lat="46.2722753" lon="13.0114084"><ele>890.6666666666667</ele><time>2026-04-19T09:17:51.179Z</time></trkpt><trkpt lat="46.2722125" lon="13.011346"><ele>890.3333333333334</ele><time>2026-04-19T09:17:52.179Z</time></trkpt><trkpt lat="46.2721774" lon="13.0112028"><ele>890.0</ele><time>2026-04-19T09:17:53.179Z</time></trkpt><trkpt lat="46.2721169" lon="13.0111153"><ele>890.0000000000001</ele><time>2026-04-19T09:17:54.179Z</time></trkpt><trkpt lat="46.2720512" lon="13.0110224"><ele>890.0</ele><time>2026-04-19T09:17:55.18Z</time></trkpt><trkpt lat="46.2719825" lon="13.0109928"><ele>890.0</ele><time>2026-04-19T09:17:56.179Z</time></trkpt><trkpt lat="46.2719198" lon="13.0109512"><ele>890.0</ele><time>2026-04-19T09:17:57.178Z</time></trkpt><trkpt lat="46.2718593" lon="13.0109224"><ele>890.0000000000001</ele><time>2026-04-19T09:17:58.179Z</time></trkpt><trkpt lat="46.2717812" lon="13.0108018"><ele>890.0</ele><time>2026-04-19T09:18:00.179Z</time></trkpt><trkpt lat="46.2717239" lon="13.0107052"><ele>894.0000000000001</ele><time>2026-04-19T09:18:02.179Z</time></trkpt><trkpt lat="46.271722" lon="13.0105746"><ele>898.0</ele><time>2026-04-19T09:18:03.179Z</time></trkpt><trkpt lat="46.2717139" lon="13.0104541"><ele>902.0</ele><time>2026-04-19T09:18:05.178Z</time></trkpt><trkpt lat="46.2717922" lon="13.0104503"><ele>906.0</ele><time>2026-04-19T09:18:08.178Z</time></trkpt><trkpt lat="46.2718234" lon="13.0105349"><ele>910.0000000000001</ele><time>2026-04-19T09:18:09.179Z</time></trkpt><trkpt lat="46.2718789" lon="13.0106472"><ele>914.0</ele><time>2026-04-19T09:18:11.179Z</time></trkpt><trkpt lat="46.2719531" lon="13.0107159"><ele>914.0000000000001</ele><time>2026-04-19T09:18:13.179Z</time></trkpt><trkpt lat="46.2720308" lon="13.0107248"><ele>914.0</ele><time>2026-04-19T09:18:14.179Z</time></trkpt><trkpt lat="46.272096" lon="13.0107514"><ele>914.0</ele><time>2026-04-19T09:18:15.179Z</time></trkpt><trkpt lat="46.2721759" lon="13.01079"><ele>914.0</ele><time>2026-04-19T09:18:16.179Z</time></trkpt><trkpt lat="46.2722525" lon="13.0108649"><ele>914.0000000000001</ele><time>2026-04-19T09:18:17.178Z</time></trkpt><trkpt lat="46.2723163" lon="13.0109572"><ele>914.0</ele><time>2026-04-19T09:18:18.178Z</time></trkpt><trkpt lat="46.2723917" lon="13.0110264"><ele>914.3333333333334</ele><time>2026-04-19T09:18:19.179Z</time></trkpt><trkpt lat="46.27245" lon="13.0110843"><ele>914.6666666666667</ele><time>2026-04-19T09:18:20.179Z</time></trkpt><trkpt lat="46.2725243" lon="13.0111223"><ele>915.0</ele><time>2026-04-19T09:18:21.18Z</time></trkpt><trkpt lat="46.2725829" lon="13.0111791"><ele>915.3333333333333</ele><time>2026-04-19T09:18:22.179Z</time></trkpt><trkpt lat="46.2726791" lon="13.0111921"><ele>915.6666666666666</ele><time>2026-04-19T09:18:23.178Z</time></trkpt><trkpt lat="46.2727687" lon="13.0112165"><ele>916.0</ele><time>2026-04-19T09:18:24.179Z</time></trkpt><trkpt lat="46.2728547" lon="13.0112304"><ele>915.9999999999999</ele><time>2026-04-19T09:18:25.179Z</time></trkpt><trkpt lat="46.27292" lon="13.0112267"><ele>916.0</ele><time>2026-04-19T09:18:26.179Z</time></trkpt><trkpt lat="46.2730247" lon="13.0112387"><ele>916.0</ele><time>2026-04-19T09:18:28.18Z</time></trkpt><trkpt lat="46.2730981" lon="13.0113888"><ele>916.0</ele><time>2026-04-19T09:18:30.178Z</time></trkpt><trkpt lat="46.2731373" lon="13.0114671"><ele>915.9999999999999</ele><time>2026-04-19T09:18:31.179Z</time></trkpt><trkpt lat="46.2731982" lon="13.0115271"><ele>916.0</ele><time>2026-04-19T09:18:32.178Z</time></trkpt><trkpt lat="46.2732607" lon="13.0115773"><ele>915.6666666666666</ele><time>2026-04-19T09:18:33.179Z</time></trkpt><trkpt lat="46.2733208" lon="13.0116268"><ele>915.3333333333333</ele><time>2026-04-19T09:18:34.179Z</time></trkpt><trkpt lat="46.273384" lon="13.0117749"><ele>915.0</ele><time>2026-04-19T09:18:36.178Z</time></trkpt><trkpt lat="46.2733734" lon="13.0118712"><ele>914.6666666666667</ele><time>2026-04-19T09:18:37.179Z</time></trkpt><trkpt lat="46.27338" lon="13.0119672"><ele>914.3333333333334</ele><time>2026-04-19T09:18:38.178Z</time></trkpt><trkpt lat="46.2733832" lon="13.0120634"><ele>914.0</ele><time>2026-04-19T09:18:39.179Z</time></trkpt><trkpt lat="46.2733771" lon="13.0121776"><ele>914.0000000000001</ele><time>2026-04-19T09:18:40.179Z</time></trkpt><trkpt lat="46.2733986" lon="13.0123075"><ele>914.0</ele><time>2026-04-19T09:18:41.179Z</time></trkpt><trkpt lat="46.2734012" lon="13.0124302"><ele>914.0</ele><time>2026-04-19T09:18:42.178Z</time></trkpt><trkpt lat="46.2733866" lon="13.0125292"><ele>914.0</ele><time>2026-04-19T09:18:43.178Z</time></trkpt><trkpt lat="46.2733994" lon="13.0126229"><ele>914.0000000000001</ele><time>2026-04-19T09:18:44.18Z</time></trkpt><trkpt lat="46.2734506" lon="13.0127491"><ele>914.0</ele><time>2026-04-19T09:18:46.179Z</time></trkpt><trkpt lat="46.2735088" lon="13.0127946"><ele>913.6</ele><time>2026-04-19T09:18:48.18Z</time></trkpt><trkpt lat="46.2736164" lon="13.0127722"><ele>913.2</ele><time>2026-04-19T09:18:50.178Z</time></trkpt><trkpt lat="46.2736814" lon="13.0127401"><ele>912.8000000000001</ele><time>2026-04-19T09:18:51.179Z</time></trkpt><trkpt lat="46.2737866" lon="13.0126576"><ele>912.4000000000001</ele><time>2026-04-19T09:18:53.179Z</time></trkpt><trkpt lat="46.2738527" lon="13.0126117"><ele>912.0</ele><time>2026-04-19T09:18:54.179Z</time></trkpt><trkpt lat="46.2739764" lon="13.0125677"><ele>912.0</ele><time>2026-04-19T09:18:56.179Z</time></trkpt><trkpt lat="46.2740451" lon="13.0125716"><ele>912.0</ele><time>2026-04-19T09:18:57.179Z</time></trkpt><trkpt lat="46.2741391" lon="13.0125393"><ele>912.0</ele><time>2026-04-19T09:18:59.18Z</time></trkpt><trkpt lat="46.2741919" lon="13.0124841"><ele>912.0</ele><time>2026-04-19T09:19:00.178Z</time></trkpt><trkpt lat="46.2742093" lon="13.0123882"><ele>912.0</ele><time>2026-04-19T09:19:01.179Z</time></trkpt><trkpt lat="46.2742789" lon="13.0122433"><ele>912.0</ele><time>2026-04-19T09:19:03.179Z</time></trkpt><trkpt lat="46.2743434" lon="13.0122219"><ele>916.5</ele><time>2026-04-19T09:19:04.179Z</time></trkpt><trkpt lat="46.2744114" lon="13.0122087"><ele>921.0</ele><time>2026-04-19T09:19:05.18Z</time></trkpt><trkpt lat="46.2744938" lon="13.0122113"><ele>925.5</ele><time>2026-04-19T09:19:06.179Z</time></trkpt><trkpt lat="46.2745911" lon="13.0122278"><ele>930.0</ele><time>2026-04-19T09:19:07.178Z</time></trkpt><trkpt lat="46.2746757" lon="13.0122393"><ele>934.5</ele><time>2026-04-19T09:19:08.179Z</time></trkpt><trkpt lat="46.2747576" lon="13.0122502"><ele>939.0</ele><time>2026-04-19T09:19:09.179Z</time></trkpt><trkpt lat="46.2748401" lon="13.0122555"><ele>939.1666666666666</ele><time>2026-04-19T09:19:10.179Z</time></trkpt><trkpt lat="46.2749256" lon="13.0122732"><ele>939.3333333333333</ele><time>2026-04-19T09:19:11.179Z</time></trkpt><trkpt lat="46.2750075" lon="13.012309"><ele>939.5</ele><time>2026-04-19T09:19:12.178Z</time></trkpt><trkpt lat="46.2750839" lon="13.0123413"><ele>939.6666666666666</ele><time>2026-04-19T09:19:13.178Z</time></trkpt><trkpt lat="46.2751533" lon="13.0123983"><ele>939.8333333333333</ele><time>2026-04-19T09:19:14.178Z</time></trkpt><trkpt lat="46.2752114" lon="13.0124857"><ele>940.0</ele><time>2026-04-19T09:19:15.179Z</time></trkpt><trkpt lat="46.2752695" lon="13.0125513"><ele>936.6</ele><time>2026-04-19T09:19:16.178Z</time></trkpt><trkpt lat="46.2753256" lon="13.0126086"><ele>933.2</ele><time>2026-04-19T09:19:17.18Z</time></trkpt><trkpt lat="46.2754288" lon="13.0126606"><ele>929.8</ele><time>2026-04-19T09:19:19.18Z</time></trkpt><trkpt lat="46.2754865" lon="13.0126166"><ele>926.4</ele><time>2026-04-19T09:19:20.178Z</time></trkpt><trkpt lat="46.2756161" lon="13.012546"><ele>923.0</ele><time>2026-04-19T09:19:22.179Z</time></trkpt><trkpt lat="46.2757015" lon="13.0125189"><ele>927.8</ele><time>2026-04-19T09:19:23.178Z</time></trkpt><trkpt lat="46.2757964" lon="13.0124893"><ele>932.5999999999999</ele><time>2026-04-19T09:19:24.179Z</time></trkpt><trkpt lat="46.2758962" lon="13.0124578"><ele>937.4000000000001</ele><time>2026-04-19T09:19:25.179Z</time></trkpt><trkpt lat="46.2759976" lon="13.01242"><ele>942.2</ele><time>2026-04-19T09:19:26.178Z</time></trkpt><trkpt lat="46.2761027" lon="13.0123837"><ele>947.0</ele><time>2026-04-19T09:19:27.178Z</time></trkpt><trkpt lat="46.2762053" lon="13.012344"><ele>947.0</ele><time>2026-04-19T09:19:28.18Z</time></trkpt><trkpt lat="46.2763065" lon="13.0123113"><ele>947.0</ele><time>2026-04-19T09:19:29.18Z</time></trkpt><trkpt lat="46.2764148" lon="13.012261"><ele>947.0</ele><time>2026-04-19T09:19:30.179Z</time></trkpt><trkpt lat="46.2765065" lon="13.0122265"><ele>947.0</ele><time>2026-04-19T09:19:31.179Z</time></trkpt><trkpt lat="46.276594" lon="13.0121852"><ele>947.0</ele><time>2026-04-19T09:19:32.179Z</time></trkpt><trkpt lat="46.276671" lon="13.0121541"><ele>947.75</ele><time>2026-04-19T09:19:33.179Z</time></trkpt><trkpt lat="46.2768225" lon="13.0121867"><ele>948.5</ele><time>2026-04-19T09:19:35.178Z</time></trkpt><trkpt lat="46.2769234" lon="13.012392"><ele>949.25</ele><time>2026-04-19T09:19:37.179Z</time></trkpt><trkpt lat="46.2769579" lon="13.0125079"><ele>950.0</ele><time>2026-04-19T09:19:38.18Z</time></trkpt><trkpt lat="46.2770066" lon="13.0125866"><ele>946.2</ele><time>2026-04-19T09:19:39.179Z</time></trkpt><trkpt lat="46.2770717" lon="13.012633"><ele>942.4</ele><time>2026-04-19T09:19:40.179Z</time></trkpt><trkpt lat="46.2771506" lon="13.0126554"><ele>938.5999999999999</ele><time>2026-04-19T09:19:41.179Z</time></trkpt><trkpt lat="46.2772443" lon="13.0126787"><ele>934.8</ele><time>2026-04-19T09:19:42.179Z</time></trkpt><trkpt lat="46.2773474" lon="13.0127294"><ele>931.0</ele><time>2026-04-19T09:19:43.178Z</time></trkpt><trkpt lat="46.2774484" lon="13.0127677"><ele>931.0</ele><time>2026-04-19T09:19:44.179Z</time></trkpt><trkpt lat="46.2775547" lon="13.0128239"><ele>931.0</ele><time>2026-04-19T09:19:45.179Z</time></trkpt><trkpt lat="46.2776539" lon="13.0128683"><ele>931.0</ele><time>2026-04-19T09:19:46.179Z</time></trkpt><trkpt lat="46.2777736" lon="13.0129196"><ele>931.0</ele><time>2026-04-19T09:19:47.179Z</time></trkpt><trkpt lat="46.2778837" lon="13.0129724"><ele>931.0</ele><time>2026-04-19T09:19:48.179Z</time></trkpt><trkpt lat="46.2780001" lon="13.0130493"><ele>930.9999999999999</ele><time>2026-04-19T09:19:49.177Z</time></trkpt><trkpt lat="46.2780814" lon="13.0131475"><ele>930.9999999999999</ele><time>2026-04-19T09:19:50.177Z</time></trkpt><trkpt lat="46.2781687" lon="13.0132249"><ele>931.0</ele><time>2026-04-19T09:19:51.177Z</time></trkpt><trkpt lat="46.2782341" lon="13.0132799"><ele>931.0</ele><time>2026-04-19T09:19:52.177Z</time></trkpt><trkpt lat="46.2783006" lon="13.0133366"><ele>928.8333333333333</ele><time>2026-04-19T09:19:53.177Z</time></trkpt><trkpt lat="46.2783771" lon="13.0133533"><ele>926.6666666666666</ele><time>2026-04-19T09:19:54.178Z</time></trkpt><trkpt lat="46.278458" lon="13.0133453"><ele>924.5</ele><time>2026-04-19T09:19:55.177Z</time></trkpt><trkpt lat="46.2785519" lon="13.0133663"><ele>922.3333333333333</ele><time>2026-04-19T09:19:56.179Z</time></trkpt><trkpt lat="46.2786341" lon="13.0134028"><ele>920.1666666666666</ele><time>2026-04-19T09:19:57.178Z</time></trkpt><trkpt lat="46.2787243" lon="13.0134469"><ele>918.0</ele><time>2026-04-19T09:19:58.178Z</time></trkpt><trkpt lat="46.2787939" lon="13.0134845"><ele>918.0</ele><time>2026-04-19T09:19:59.178Z</time></trkpt><trkpt lat="46.2788779" lon="13.0135222"><ele>918.0</ele><time>2026-04-19T09:20:00.178Z</time></trkpt><trkpt lat="46.2789624" lon="13.0135477"><ele>918.0</ele><time>2026-04-19T09:20:01.178Z</time></trkpt><trkpt lat="46.2790264" lon="13.0135546"><ele>918.0</ele><time>2026-04-19T09:20:02.178Z</time></trkpt><trkpt lat="46.2791453" lon="13.0135481"><ele>918.0</ele><time>2026-04-19T09:20:04.178Z</time></trkpt><trkpt lat="46.2791875" lon="13.0134063"><ele>922.8</ele><time>2026-04-19T09:20:05.178Z</time></trkpt><trkpt lat="46.2792602" lon="13.0133148"><ele>927.5999999999999</ele><time>2026-04-19T09:20:06.179Z</time></trkpt><trkpt lat="46.2793359" lon="13.0132306"><ele>932.4000000000001</ele><time>2026-04-19T09:20:07.178Z</time></trkpt><trkpt lat="46.2794114" lon="13.0131627"><ele>937.2</ele><time>2026-04-19T09:20:08.178Z</time></trkpt><trkpt lat="46.2795029" lon="13.0131022"><ele>942.0</ele><time>2026-04-19T09:20:09.178Z</time></trkpt><trkpt lat="46.2795873" lon="13.0130597"><ele>942.0</ele><time>2026-04-19T09:20:10.178Z</time></trkpt><trkpt lat="46.2796788" lon="13.0130346"><ele>942.0</ele><time>2026-04-19T09:20:11.179Z</time></trkpt><trkpt lat="46.27979" lon="13.0130769"><ele>942.0</ele><time>2026-04-19T09:20:12.178Z</time></trkpt><trkpt lat="46.2798836" lon="13.0130893"><ele>942.0</ele><time>2026-04-19T09:20:13.178Z</time></trkpt><trkpt lat="46.2799636" lon="13.0130915"><ele>942.0</ele><time>2026-04-19T09:20:14.178Z</time></trkpt><trkpt lat="46.2800262" lon="13.0131295"><ele>941.2</ele><time>2026-04-19T09:20:15.178Z</time></trkpt><trkpt lat="46.2801049" lon="13.0131341"><ele>940.4000000000001</ele><time>2026-04-19T09:20:16.178Z</time></trkpt><trkpt lat="46.2801984" lon="13.0131395"><ele>939.5999999999999</ele><time>2026-04-19T09:20:17.177Z</time></trkpt><trkpt lat="46.2802959" lon="13.013099"><ele>938.8</ele><time>2026-04-19T09:20:18.178Z</time></trkpt><trkpt lat="46.2803944" lon="13.0130488"><ele>938.0</ele><time>2026-04-19T09:20:19.178Z</time></trkpt><trkpt lat="46.280483" lon="13.0129988"><ele>938.0</ele><time>2026-04-19T09:20:20.179Z</time></trkpt><trkpt lat="46.2805791" lon="13.0129589"><ele>938.0</ele><time>2026-04-19T09:20:21.177Z</time></trkpt><trkpt lat="46.2806893" lon="13.0129102"><ele>938.0</ele><time>2026-04-19T09:20:22.177Z</time></trkpt><trkpt lat="46.2808157" lon="13.0129027"><ele>938.0</ele><time>2026-04-19T09:20:23.177Z</time></trkpt><trkpt lat="46.2809191" lon="13.0128741"><ele>938.0</ele><time>2026-04-19T09:20:24.177Z</time></trkpt><trkpt lat="46.2809974" lon="13.0128714"><ele>938.4</ele><time>2026-04-19T09:20:25.178Z</time></trkpt><trkpt lat="46.2810826" lon="13.0128528"><ele>938.8</ele><time>2026-04-19T09:20:26.178Z</time></trkpt><trkpt lat="46.2811649" lon="13.0128109"><ele>939.2</ele><time>2026-04-19T09:20:27.179Z</time></trkpt><trkpt lat="46.2811749" lon="13.0127146"><ele>939.6</ele><time>2026-04-19T09:20:28.179Z</time></trkpt><trkpt lat="46.2812126" lon="13.0126158"><ele>940.0</ele><time>2026-04-19T09:20:29.178Z</time></trkpt><trkpt lat="46.2812545" lon="13.0124256"><ele>940.0</ele><time>2026-04-19T09:20:31.178Z</time></trkpt><trkpt lat="46.281269" lon="13.0123005"><ele>940.0</ele><time>2026-04-19T09:20:32.178Z</time></trkpt><trkpt lat="46.2812997" lon="13.0121628"><ele>940.0</ele><time>2026-04-19T09:20:33.177Z</time></trkpt><trkpt lat="46.2813391" lon="13.0120219"><ele>940.0</ele><time>2026-04-19T09:20:34.178Z</time></trkpt><trkpt lat="46.2813861" lon="13.0118907"><ele>940.0</ele><time>2026-04-19T09:20:35.178Z</time></trkpt><trkpt lat="46.2814301" lon="13.0117705"><ele>937.4</ele><time>2026-04-19T09:20:36.178Z</time></trkpt><trkpt lat="46.281475" lon="13.0116506"><ele>934.8</ele><time>2026-04-19T09:20:37.178Z</time></trkpt><trkpt lat="46.2815071" lon="13.0115231"><ele>932.2</ele><time>2026-04-19T09:20:38.178Z</time></trkpt><trkpt lat="46.2814647" lon="13.0113828"><ele>929.6</ele><time>2026-04-19T09:20:40.177Z</time></trkpt><trkpt lat="46.2814966" lon="13.0112131"><ele>927.0</ele><time>2026-04-19T09:20:42.178Z</time></trkpt><trkpt lat="46.2815777" lon="13.0111965"><ele>927.0</ele><time>2026-04-19T09:20:44.178Z</time></trkpt><trkpt lat="46.2816656" lon="13.0112399"><ele>927.0</ele><time>2026-04-19T09:20:45.178Z</time></trkpt><trkpt lat="46.2817351" lon="13.0112755"><ele>927.0</ele><time>2026-04-19T09:20:46.177Z</time></trkpt><trkpt lat="46.2817885" lon="13.011333"><ele>927.0</ele><time>2026-04-19T09:20:47.178Z</time></trkpt><trkpt lat="46.2818636" lon="13.011392"><ele>927.0</ele><time>2026-04-19T09:20:48.178Z</time></trkpt><trkpt lat="46.2818992" lon="13.0115132"><ele>927.0</ele><time>2026-04-19T09:20:49.178Z</time></trkpt><trkpt lat="46.2819532" lon="13.0116384"><ele>922.75</ele><time>2026-04-19T09:20:50.178Z</time></trkpt><trkpt lat="46.2820131" lon="13.0117537"><ele>918.5</ele><time>2026-04-19T09:20:51.179Z</time></trkpt><trkpt lat="46.2820336" lon="13.0119098"><ele>914.25</ele><time>2026-04-19T09:20:52.178Z</time></trkpt><trkpt lat="46.2821111" lon="13.0120803"><ele>910.0</ele><time>2026-04-19T09:20:53.178Z</time></trkpt><trkpt lat="46.282199" lon="13.012246"><ele>909.9999999999999</ele><time>2026-04-19T09:20:54.178Z</time></trkpt><trkpt lat="46.2822597" lon="13.0123355"><ele>910.0</ele><time>2026-04-19T09:20:55.178Z</time></trkpt><trkpt lat="46.2823264" lon="13.012344"><ele>910.0</ele><time>2026-04-19T09:20:56.179Z</time></trkpt><trkpt lat="46.2823914" lon="13.0123922"><ele>910.0</ele><time>2026-04-19T09:20:57.177Z</time></trkpt><trkpt lat="46.2824746" lon="13.0124323"><ele>909.9999999999999</ele><time>2026-04-19T09:20:58.178Z</time></trkpt><trkpt lat="46.282546" lon="13.0124856"><ele>910.0</ele><time>2026-04-19T09:20:59.178Z</time></trkpt><trkpt lat="46.2826525" lon="13.0124787"><ele>908.4</ele><time>2026-04-19T09:21:00.179Z</time></trkpt><trkpt lat="46.2827444" lon="13.0124952"><ele>906.8</ele><time>2026-04-19T09:21:01.178Z</time></trkpt><trkpt lat="46.2828432" lon="13.0125098"><ele>905.2</ele><time>2026-04-19T09:21:02.178Z</time></trkpt><trkpt lat="46.2829542" lon="13.0123973"><ele>903.6</ele><time>2026-04-19T09:21:04.178Z</time></trkpt><trkpt lat="46.2830007" lon="13.0123318"><ele>902.0</ele><time>2026-04-19T09:21:05.177Z</time></trkpt><trkpt lat="46.2830605" lon="13.0122916"><ele>899.0</ele><time>2026-04-19T09:21:06.178Z</time></trkpt><trkpt lat="46.2831176" lon="13.0122408"><ele>896.0</ele><time>2026-04-19T09:21:07.178Z</time></trkpt><trkpt lat="46.2831986" lon="13.0121402"><ele>893.0</ele><time>2026-04-19T09:21:09.178Z</time></trkpt><trkpt lat="46.2832922" lon="13.0120412"><ele>890.0</ele><time>2026-04-19T09:21:11.178Z</time></trkpt><trkpt lat="46.2833063" lon="13.0119432"><ele>887.0</ele><time>2026-04-19T09:21:13.178Z</time></trkpt><trkpt lat="46.2834133" lon="13.0118969"><ele>887.0</ele><time>2026-04-19T09:21:15.179Z</time></trkpt><trkpt lat="46.2834892" lon="13.0118648"><ele>887.0</ele><time>2026-04-19T09:21:16.178Z</time></trkpt><trkpt lat="46.2835884" lon="13.0119031"><ele>887.0</ele><time>2026-04-19T09:21:17.179Z</time></trkpt><trkpt lat="46.2837134" lon="13.0118964"><ele>887.0</ele><time>2026-04-19T09:21:19.177Z</time></trkpt><trkpt lat="46.283778" lon="13.0119161"><ele>887.0</ele><time>2026-04-19T09:21:20.179Z</time></trkpt><trkpt lat="46.2838132" lon="13.012031"><ele>887.0</ele><time>2026-04-19T09:21:21.178Z</time></trkpt><trkpt lat="46.2838613" lon="13.012211"><ele>887.0</ele><time>2026-04-19T09:21:23.177Z</time></trkpt><trkpt lat="46.2838969" lon="13.0122903"><ele>887.0</ele><time>2026-04-19T09:21:24.178Z</time></trkpt><trkpt lat="46.2839112" lon="13.0124719"><ele>887.0</ele><time>2026-04-19T09:21:26.179Z</time></trkpt><trkpt lat="46.2839121" lon="13.0125724"><ele>887.0</ele><time>2026-04-19T09:21:27.178Z</time></trkpt><trkpt lat="46.2838287" lon="13.012644"><ele>884.3333333333334</ele><time>2026-04-19T09:21:28.179Z</time></trkpt><trkpt lat="46.2837979" lon="13.012746"><ele>881.6666666666667</ele><time>2026-04-19T09:21:29.177Z</time></trkpt><trkpt lat="46.2837615" lon="13.0128227"><ele>879.0</ele><time>2026-04-19T09:21:30.178Z</time></trkpt><trkpt lat="46.2837035" lon="13.012893"><ele>876.3333333333333</ele><time>2026-04-19T09:21:31.178Z</time></trkpt><trkpt lat="46.2836859" lon="13.0130177"><ele>873.6666666666666</ele><time>2026-04-19T09:21:32.178Z</time></trkpt><trkpt lat="46.2836834" lon="13.0132157"><ele>871.0</ele><time>2026-04-19T09:21:34.178Z</time></trkpt><trkpt lat="46.2837083" lon="13.013326"><ele>868.1666666666666</ele><time>2026-04-19T09:21:35.178Z</time></trkpt><trkpt lat="46.2837347" lon="13.0134339"><ele>865.3333333333333</ele><time>2026-04-19T09:21:36.179Z</time></trkpt><trkpt lat="46.2838091" lon="13.0135513"><ele>862.5</ele><time>2026-04-19T09:21:38.177Z</time></trkpt><trkpt lat="46.2838213" lon="13.0136436"><ele>859.6666666666667</ele><time>2026-04-19T09:21:39.177Z</time></trkpt><trkpt lat="46.2838217" lon="13.0137443"><ele>856.8333333333334</ele><time>2026-04-19T09:21:40.177Z</time></trkpt><trkpt lat="46.2838621" lon="13.0138196"><ele>854.0</ele><time>2026-04-19T09:21:41.178Z</time></trkpt><trkpt lat="46.2838526" lon="13.0139329"><ele>854.0000000000001</ele><time>2026-04-19T09:21:42.177Z</time></trkpt><trkpt lat="46.2838598" lon="13.0140323"><ele>854.0</ele><time>2026-04-19T09:21:43.179Z</time></trkpt><trkpt lat="46.2838695" lon="13.0141454"><ele>854.0</ele><time>2026-04-19T09:21:44.178Z</time></trkpt><trkpt lat="46.2838929" lon="13.014277"><ele>854.0</ele><time>2026-04-19T09:21:45.178Z</time></trkpt><trkpt lat="46.2839234" lon="13.0144042"><ele>854.0000000000001</ele><time>2026-04-19T09:21:46.177Z</time></trkpt><trkpt lat="46.2839412" lon="13.0145479"><ele>854.0</ele><time>2026-04-19T09:21:47.177Z</time></trkpt><trkpt lat="46.2839729" lon="13.0146807"><ele>849.8333333333334</ele><time>2026-04-19T09:21:48.177Z</time></trkpt><trkpt lat="46.2839909" lon="13.0147954"><ele>845.6666666666667</ele><time>2026-04-19T09:21:49.177Z</time></trkpt><trkpt lat="46.2840109" lon="13.0149055"><ele>841.5</ele><time>2026-04-19T09:21:50.178Z</time></trkpt><trkpt lat="46.284053" lon="13.0149843"><ele>837.3333333333333</ele><time>2026-04-19T09:21:51.178Z</time></trkpt><trkpt lat="46.2841539" lon="13.0150778"><ele>833.1666666666666</ele><time>2026-04-19T09:21:53.178Z</time></trkpt><trkpt lat="46.2842474" lon="13.0150613"><ele>829.0</ele><time>2026-04-19T09:21:54.178Z</time></trkpt><trkpt lat="46.2843196" lon="13.0150758"><ele>828.1666666666666</ele><time>2026-04-19T09:21:55.178Z</time></trkpt><trkpt lat="46.2843935" lon="13.0150808"><ele>827.3333333333333</ele><time>2026-04-19T09:21:56.177Z</time></trkpt><trkpt lat="46.2844708" lon="13.0150899"><ele>826.5</ele><time>2026-04-19T09:21:57.178Z</time></trkpt><trkpt lat="46.2845554" lon="13.0151153"><ele>825.6666666666667</ele><time>2026-04-19T09:21:58.177Z</time></trkpt><trkpt lat="46.2846507" lon="13.0151527"><ele>824.8333333333334</ele><time>2026-04-19T09:21:59.178Z</time></trkpt><trkpt lat="46.2847378" lon="13.0151837"><ele>824.0</ele><time>2026-04-19T09:22:00.178Z</time></trkpt><trkpt lat="46.2848259" lon="13.0152261"><ele>823.8333333333334</ele><time>2026-04-19T09:22:01.178Z</time></trkpt><trkpt lat="46.2849364" lon="13.0152529"><ele>823.6666666666667</ele><time>2026-04-19T09:22:03.178Z</time></trkpt><trkpt lat="46.2850139" lon="13.0152726"><ele>823.5</ele><time>2026-04-19T09:22:04.178Z</time></trkpt><trkpt lat="46.2850992" lon="13.0152746"><ele>823.3333333333333</ele><time>2026-04-19T09:22:05.177Z</time></trkpt><trkpt lat="46.2851734" lon="13.0153029"><ele>823.1666666666666</ele><time>2026-04-19T09:22:06.178Z</time></trkpt><trkpt lat="46.2852416" lon="13.0153221"><ele>823.0</ele><time>2026-04-19T09:22:07.177Z</time></trkpt><trkpt lat="46.2853098" lon="13.0153636"><ele>822.9999999999999</ele><time>2026-04-19T09:22:08.178Z</time></trkpt><trkpt lat="46.2853919" lon="13.0153891"><ele>823.0</ele><time>2026-04-19T09:22:09.178Z</time></trkpt><trkpt lat="46.2854753" lon="13.0153946"><ele>823.0</ele><time>2026-04-19T09:22:10.179Z</time></trkpt><trkpt lat="46.2856022" lon="13.015412"><ele>823.0</ele><time>2026-04-19T09:22:12.178Z</time></trkpt><trkpt lat="46.2856645" lon="13.015396"><ele>822.9999999999999</ele><time>2026-04-19T09:22:13.179Z</time></trkpt><trkpt lat="46.2857333" lon="13.0153866"><ele>823.0</ele><time>2026-04-19T09:22:14.179Z</time></trkpt><trkpt lat="46.2858027" lon="13.0153648"><ele>821.6666666666666</ele><time>2026-04-19T09:22:15.177Z</time></trkpt><trkpt lat="46.2858759" lon="13.0153734"><ele>820.3333333333333</ele><time>2026-04-19T09:22:16.178Z</time></trkpt><trkpt lat="46.2859731" lon="13.0153327"><ele>819.0</ele><time>2026-04-19T09:22:17.177Z</time></trkpt><trkpt lat="46.2860628" lon="13.015305"><ele>817.6666666666667</ele><time>2026-04-19T09:22:18.176Z</time></trkpt><trkpt lat="46.2861558" lon="13.0152855"><ele>816.3333333333334</ele><time>2026-04-19T09:22:19.177Z</time></trkpt><trkpt lat="46.2862269" lon="13.015281"><ele>815.0</ele><time>2026-04-19T09:22:20.177Z</time></trkpt><trkpt lat="46.2863034" lon="13.0152964"><ele>815.0</ele><time>2026-04-19T09:22:21.177Z</time></trkpt><trkpt lat="46.2863731" lon="13.015382"><ele>815.0</ele><time>2026-04-19T09:22:23.178Z</time></trkpt><trkpt lat="46.2863871" lon="13.015488"><ele>815.0</ele><time>2026-04-19T09:22:25.178Z</time></trkpt><trkpt lat="46.2863359" lon="13.0156411"><ele>815.0</ele><time>2026-04-19T09:22:27.177Z</time></trkpt><trkpt lat="46.2862988" lon="13.0158243"><ele>815.0</ele><time>2026-04-19T09:22:29.176Z</time></trkpt><trkpt lat="46.286318" lon="13.0159366"><ele>814.4</ele><time>2026-04-19T09:22:30.177Z</time></trkpt><trkpt lat="46.2863423" lon="13.0160377"><ele>813.8</ele><time>2026-04-19T09:22:31.178Z</time></trkpt><trkpt lat="46.2863664" lon="13.016151"><ele>813.2</ele><time>2026-04-19T09:22:32.177Z</time></trkpt><trkpt lat="46.2864321" lon="13.0163187"><ele>812.6</ele><time>2026-04-19T09:22:33.177Z</time></trkpt><trkpt lat="46.2864671" lon="13.0164522"><ele>812.0</ele><time>2026-04-19T09:22:34.177Z</time></trkpt><trkpt lat="46.2865085" lon="13.0165794"><ele>809.8</ele><time>2026-04-19T09:22:35.177Z</time></trkpt><trkpt lat="46.2865463" lon="13.016704"><ele>807.6</ele><time>2026-04-19T09:22:36.178Z</time></trkpt><trkpt lat="46.2865955" lon="13.0168223"><ele>805.4</ele><time>2026-04-19T09:22:37.176Z</time></trkpt><trkpt lat="46.2866391" lon="13.0169468"><ele>803.1999999999999</ele><time>2026-04-19T09:22:38.177Z</time></trkpt><trkpt lat="46.2866868" lon="13.0170708"><ele>801.0</ele><time>2026-04-19T09:22:39.178Z</time></trkpt><trkpt lat="46.2867311" lon="13.0171903"><ele>801.0</ele><time>2026-04-19T09:22:40.177Z</time></trkpt><trkpt lat="46.2867811" lon="13.0173117"><ele>801.0</ele><time>2026-04-19T09:22:41.176Z</time></trkpt><trkpt lat="46.2868581" lon="13.0174253"><ele>801.0</ele><time>2026-04-19T09:22:42.177Z</time></trkpt><trkpt lat="46.2869518" lon="13.0175326"><ele>801.0</ele><time>2026-04-19T09:22:43.176Z</time></trkpt><trkpt lat="46.2870134" lon="13.0176415"><ele>801.0</ele><time>2026-04-19T09:22:44.177Z</time></trkpt><trkpt lat="46.2870783" lon="13.0177405"><ele>801.0</ele><time>2026-04-19T09:22:45.177Z</time></trkpt><trkpt lat="46.2871421" lon="13.0178423"><ele>801.0</ele><time>2026-04-19T09:22:46.176Z</time></trkpt><trkpt lat="46.2872003" lon="13.0179116"><ele>801.0</ele><time>2026-04-19T09:22:47.177Z</time></trkpt><trkpt lat="46.2872555" lon="13.0179983"><ele>801.0</ele><time>2026-04-19T09:22:48.178Z</time></trkpt><trkpt lat="46.2872854" lon="13.0181706"><ele>801.0</ele><time>2026-04-19T09:22:50.177Z</time></trkpt><trkpt lat="46.287225" lon="13.0183375"><ele>800.1428571428571</ele><time>2026-04-19T09:22:52.176Z</time></trkpt><trkpt lat="46.287174" lon="13.0184194"><ele>799.2857142857142</ele><time>2026-04-19T09:22:53.177Z</time></trkpt><trkpt lat="46.2871405" lon="13.0185176"><ele>798.4285714285714</ele><time>2026-04-19T09:22:54.177Z</time></trkpt><trkpt lat="46.2871329" lon="13.018631"><ele>797.5714285714286</ele><time>2026-04-19T09:22:55.177Z</time></trkpt><trkpt lat="46.2871249" lon="13.0187325"><ele>796.7142857142858</ele><time>2026-04-19T09:22:56.178Z</time></trkpt><trkpt lat="46.2871288" lon="13.018827"><ele>795.8571428571429</ele><time>2026-04-19T09:22:57.176Z</time></trkpt><trkpt lat="46.2871467" lon="13.0189433"><ele>795.0</ele><time>2026-04-19T09:22:58.177Z</time></trkpt><trkpt lat="46.2871584" lon="13.0190534"><ele>791.75</ele><time>2026-04-19T09:22:59.177Z</time></trkpt><trkpt lat="46.2872476" lon="13.019196"><ele>788.5</ele><time>2026-04-19T09:23:01.177Z</time></trkpt><trkpt lat="46.2873356" lon="13.0193303"><ele>785.25</ele><time>2026-04-19T09:23:02.176Z</time></trkpt><trkpt lat="46.2874094" lon="13.0194755"><ele>782.0</ele><time>2026-04-19T09:23:03.178Z</time></trkpt><trkpt lat="46.2874696" lon="13.0195704"><ele>782.0000000000001</ele><time>2026-04-19T09:23:04.177Z</time></trkpt><trkpt lat="46.2875059" lon="13.0196689"><ele>782.0</ele><time>2026-04-19T09:23:05.177Z</time></trkpt><trkpt lat="46.2875098" lon="13.0197779"><ele>782.0</ele><time>2026-04-19T09:23:06.178Z</time></trkpt><trkpt lat="46.2874834" lon="13.019862"><ele>782.0</ele><time>2026-04-19T09:23:07.177Z</time></trkpt><trkpt lat="46.2874513" lon="13.0199452"><ele>782.0000000000001</ele><time>2026-04-19T09:23:08.177Z</time></trkpt><trkpt lat="46.2873926" lon="13.0200009"><ele>782.0</ele><time>2026-04-19T09:23:09.176Z</time></trkpt><trkpt lat="46.2873232" lon="13.0201348"><ele>779.8</ele><time>2026-04-19T09:23:11.176Z</time></trkpt><trkpt lat="46.2873132" lon="13.0202593"><ele>777.6</ele><time>2026-04-19T09:23:13.176Z</time></trkpt><trkpt lat="46.2873425" lon="13.0204138"><ele>775.4</ele><time>2026-04-19T09:23:15.177Z</time></trkpt><trkpt lat="46.2873139" lon="13.0206364"><ele>773.1999999999999</ele><time>2026-04-19T09:23:17.177Z</time></trkpt><trkpt lat="46.2872968" lon="13.0207558"><ele>771.0</ele><time>2026-04-19T09:23:18.177Z</time></trkpt><trkpt lat="46.2872763" lon="13.0208705"><ele>768.1666666666666</ele><time>2026-04-19T09:23:19.177Z</time></trkpt><trkpt lat="46.2872404" lon="13.0209607"><ele>765.3333333333334</ele><time>2026-04-19T09:23:20.178Z</time></trkpt><trkpt lat="46.2871938" lon="13.0210805"><ele>762.5</ele><time>2026-04-19T09:23:21.177Z</time></trkpt><trkpt lat="46.2871429" lon="13.0211836"><ele>759.6666666666667</ele><time>2026-04-19T09:23:22.176Z</time></trkpt><trkpt lat="46.2870842" lon="13.0212645"><ele>756.8333333333334</ele><time>2026-04-19T09:23:23.177Z</time></trkpt><trkpt lat="46.2870202" lon="13.0213383"><ele>754.0</ele><time>2026-04-19T09:23:24.177Z</time></trkpt><trkpt lat="46.2869398" lon="13.0214013"><ele>754.0</ele><time>2026-04-19T09:23:25.177Z</time></trkpt><trkpt lat="46.2868691" lon="13.0214651"><ele>754.0</ele><time>2026-04-19T09:23:26.177Z</time></trkpt><trkpt lat="46.2867844" lon="13.0215231"><ele>754.0</ele><time>2026-04-19T09:23:27.177Z</time></trkpt><trkpt lat="46.2866983" lon="13.0215727"><ele>754.0</ele><time>2026-04-19T09:23:28.177Z</time></trkpt><trkpt lat="46.2866165" lon="13.0216298"><ele>754.0</ele><time>2026-04-19T09:23:29.177Z</time></trkpt><trkpt lat="46.2865306" lon="13.0216872"><ele>753.0</ele><time>2026-04-19T09:23:30.177Z</time></trkpt><trkpt lat="46.2864459" lon="13.0217435"><ele>752.0</ele><time>2026-04-19T09:23:31.176Z</time></trkpt><trkpt lat="46.2863638" lon="13.0218035"><ele>751.0</ele><time>2026-04-19T09:23:32.176Z</time></trkpt><trkpt lat="46.2862829" lon="13.0218676"><ele>750.0</ele><time>2026-04-19T09:23:33.176Z</time></trkpt><trkpt lat="46.2862042" lon="13.021928"><ele>749.0</ele><time>2026-04-19T09:23:34.177Z</time></trkpt><trkpt lat="46.2861227" lon="13.0219924"><ele>749.0</ele><time>2026-04-19T09:23:35.177Z</time></trkpt><trkpt lat="46.2860438" lon="13.0220539"><ele>749.0</ele><time>2026-04-19T09:23:36.178Z</time></trkpt><trkpt lat="46.2859648" lon="13.0221167"><ele>749.0</ele><time>2026-04-19T09:23:37.178Z</time></trkpt><trkpt lat="46.2858906" lon="13.0221777"><ele>749.0</ele><time>2026-04-19T09:23:38.177Z</time></trkpt><trkpt lat="46.2858163" lon="13.0222371"><ele>749.0</ele><time>2026-04-19T09:23:39.177Z</time></trkpt><trkpt lat="46.2857468" lon="13.0222953"><ele>749.0</ele><time>2026-04-19T09:23:40.177Z</time></trkpt><trkpt lat="46.2856749" lon="13.0223527"><ele>749.0</ele><time>2026-04-19T09:23:41.177Z</time></trkpt><trkpt lat="46.2856045" lon="13.0224044"><ele>749.0</ele><time>2026-04-19T09:23:42.176Z</time></trkpt><trkpt lat="46.2855398" lon="13.0224642"><ele>749.0</ele><time>2026-04-19T09:23:43.177Z</time></trkpt><trkpt lat="46.2854732" lon="13.0225227"><ele>749.0</ele><time>2026-04-19T09:23:44.177Z</time></trkpt><trkpt lat="46.2854057" lon="13.0225775"><ele>749.0</ele><time>2026-04-19T09:23:45.178Z</time></trkpt><trkpt lat="46.2853424" lon="13.0226458"><ele>749.0</ele><time>2026-04-19T09:23:46.176Z</time></trkpt><trkpt lat="46.2852778" lon="13.02273"><ele>749.3333333333333</ele><time>2026-04-19T09:23:47.177Z</time></trkpt><trkpt lat="46.2852138" lon="13.0228134"><ele>749.6666666666666</ele><time>2026-04-19T09:23:48.177Z</time></trkpt><trkpt lat="46.2851477" lon="13.0228952"><ele>750.0</ele><time>2026-04-19T09:23:49.177Z</time></trkpt><trkpt lat="46.2850792" lon="13.02297"><ele>750.3333333333334</ele><time>2026-04-19T09:23:50.176Z</time></trkpt><trkpt lat="46.2850214" lon="13.0230575"><ele>750.6666666666667</ele><time>2026-04-19T09:23:51.177Z</time></trkpt><trkpt lat="46.2849604" lon="13.0231385"><ele>751.0</ele><time>2026-04-19T09:23:52.177Z</time></trkpt><trkpt lat="46.2848818" lon="13.0231764"><ele>751.0</ele><time>2026-04-19T09:23:53.177Z</time></trkpt><trkpt lat="46.2848138" lon="13.0232106"><ele>751.0</ele><time>2026-04-19T09:23:54.176Z</time></trkpt><trkpt lat="46.2847428" lon="13.0232158"><ele>751.0</ele><time>2026-04-19T09:23:55.177Z</time></trkpt><trkpt lat="46.2846561" lon="13.023191"><ele>751.0</ele><time>2026-04-19T09:23:56.177Z</time></trkpt><trkpt lat="46.2845809" lon="13.0231485"><ele>751.0</ele><time>2026-04-19T09:23:57.177Z</time></trkpt><trkpt lat="46.2845075" lon="13.0230993"><ele>751.0</ele><time>2026-04-19T09:23:58.177Z</time></trkpt><trkpt lat="46.2844373" lon="13.0230416"><ele>751.3333333333334</ele><time>2026-04-19T09:23:59.177Z</time></trkpt><trkpt lat="46.2843743" lon="13.0229717"><ele>751.6666666666667</ele><time>2026-04-19T09:24:00.177Z</time></trkpt><trkpt lat="46.2843196" lon="13.0228926"><ele>752.0</ele><time>2026-04-19T09:24:01.176Z</time></trkpt><trkpt lat="46.2842582" lon="13.0228164"><ele>752.3333333333334</ele><time>2026-04-19T09:24:02.178Z</time></trkpt><trkpt lat="46.2841947" lon="13.0227392"><ele>752.6666666666666</ele><time>2026-04-19T09:24:03.176Z</time></trkpt><trkpt lat="46.2841332" lon="13.0226445"><ele>753.0</ele><time>2026-04-19T09:24:04.176Z</time></trkpt><trkpt lat="46.2840815" lon="13.0225427"><ele>753.2</ele><time>2026-04-19T09:24:05.177Z</time></trkpt><trkpt lat="46.2840284" lon="13.0224367"><ele>753.4</ele><time>2026-04-19T09:24:06.177Z</time></trkpt><trkpt lat="46.2839889" lon="13.0223282"><ele>753.6</ele><time>2026-04-19T09:24:07.178Z</time></trkpt><trkpt lat="46.2839436" lon="13.0222102"><ele>753.8000000000001</ele><time>2026-04-19T09:24:08.177Z</time></trkpt><trkpt lat="46.2839009" lon="13.0221037"><ele>754.0</ele><time>2026-04-19T09:24:09.176Z</time></trkpt><trkpt lat="46.2838473" lon="13.0219869"><ele>754.0</ele><time>2026-04-19T09:24:10.177Z</time></trkpt><trkpt lat="46.2837484" lon="13.0220066"><ele>754.0</ele><time>2026-04-19T09:24:11.177Z</time></trkpt><trkpt lat="46.2836615" lon="13.0220043"><ele>754.0</ele><time>2026-04-19T09:24:12.177Z</time></trkpt><trkpt lat="46.2835863" lon="13.0219924"><ele>754.0</ele><time>2026-04-19T09:24:13.177Z</time></trkpt><trkpt lat="46.2835629" lon="13.0221269"><ele>754.0</ele><time>2026-04-19T09:24:14.177Z</time></trkpt><trkpt lat="46.2835347" lon="13.0222285"><ele>754.0</ele><time>2026-04-19T09:24:15.177Z</time></trkpt><trkpt lat="46.2835003" lon="13.0223182"><ele>754.0</ele><time>2026-04-19T09:24:16.177Z</time></trkpt><trkpt lat="46.283491" lon="13.0224371"><ele>754.0</ele><time>2026-04-19T09:24:17.176Z</time></trkpt><trkpt lat="46.2834723" lon="13.0225552"><ele>754.0</ele><time>2026-04-19T09:24:18.176Z</time></trkpt><trkpt lat="46.2834539" lon="13.0226774"><ele>754.0</ele><time>2026-04-19T09:24:19.177Z</time></trkpt><trkpt lat="46.2834602" lon="13.0228215"><ele>754.0</ele><time>2026-04-19T09:24:20.177Z</time></trkpt><trkpt lat="46.2834516" lon="13.0229539"><ele>754.0</ele><time>2026-04-19T09:24:21.177Z</time></trkpt><trkpt lat="46.2834385" lon="13.0230927"><ele>753.0</ele><time>2026-04-19T09:24:22.177Z</time></trkpt><trkpt lat="46.2834217" lon="13.023224"><ele>752.0</ele><time>2026-04-19T09:24:23.177Z</time></trkpt><trkpt lat="46.2834087" lon="13.0233565"><ele>751.0</ele><time>2026-04-19T09:24:24.178Z</time></trkpt><trkpt lat="46.2834007" lon="13.0234941"><ele>750.0</ele><time>2026-04-19T09:24:25.176Z</time></trkpt><trkpt lat="46.2834003" lon="13.0236272"><ele>749.0</ele><time>2026-04-19T09:24:26.177Z</time></trkpt><trkpt lat="46.283406" lon="13.0237428"><ele>749.0</ele><time>2026-04-19T09:24:27.178Z</time></trkpt><trkpt lat="46.2834394" lon="13.0238774"><ele>749.0</ele><time>2026-04-19T09:24:28.177Z</time></trkpt><trkpt lat="46.2834673" lon="13.023999"><ele>749.0</ele><time>2026-04-19T09:24:29.176Z</time></trkpt><trkpt lat="46.2834922" lon="13.0241127"><ele>749.0</ele><time>2026-04-19T09:24:30.176Z</time></trkpt><trkpt lat="46.2835397" lon="13.0242238"><ele>749.0</ele><time>2026-04-19T09:24:31.178Z</time></trkpt><trkpt lat="46.2835782" lon="13.0243309"><ele>749.0</ele><time>2026-04-19T09:24:32.176Z</time></trkpt><trkpt lat="46.2836862" lon="13.024421"><ele>749.4000000000001</ele><time>2026-04-19T09:24:33.176Z</time></trkpt><trkpt lat="46.2837574" lon="13.0245431"><ele>749.8</ele><time>2026-04-19T09:24:34.176Z</time></trkpt><trkpt lat="46.283822" lon="13.0246317"><ele>750.2</ele><time>2026-04-19T09:24:35.177Z</time></trkpt><trkpt lat="46.2839026" lon="13.0247286"><ele>750.5999999999999</ele><time>2026-04-19T09:24:36.178Z</time></trkpt><trkpt lat="46.2840034" lon="13.0248516"><ele>751.0</ele><time>2026-04-19T09:24:37.177Z</time></trkpt><trkpt lat="46.2841024" lon="13.0249327"><ele>745.5</ele><time>2026-04-19T09:24:38.178Z</time></trkpt><trkpt lat="46.2842137" lon="13.0250405"><ele>740.0</ele><time>2026-04-19T09:24:39.177Z</time></trkpt><trkpt lat="46.2842618" lon="13.025137"><ele>734.5</ele><time>2026-04-19T09:24:40.178Z</time></trkpt><trkpt lat="46.2843592" lon="13.0252203"><ele>729.0</ele><time>2026-04-19T09:24:41.178Z</time></trkpt><trkpt lat="46.2844601" lon="13.025315"><ele>729.0</ele><time>2026-04-19T09:24:42.178Z</time></trkpt><trkpt lat="46.2845635" lon="13.0254299"><ele>729.0</ele><time>2026-04-19T09:24:43.177Z</time></trkpt><trkpt lat="46.2846378" lon="13.0255329"><ele>729.0</ele><time>2026-04-19T09:24:44.177Z</time></trkpt><trkpt lat="46.2847036" lon="13.0256616"><ele>729.0</ele><time>2026-04-19T09:24:45.176Z</time></trkpt><trkpt lat="46.2847614" lon="13.0257517"><ele>729.0</ele><time>2026-04-19T09:24:46.176Z</time></trkpt><trkpt lat="46.2848117" lon="13.0258447"><ele>726.8000000000001</ele><time>2026-04-19T09:24:47.176Z</time></trkpt><trkpt lat="46.2848856" lon="13.0259235"><ele>724.6</ele><time>2026-04-19T09:24:48.177Z</time></trkpt><trkpt lat="46.2849973" lon="13.0260023"><ele>722.4</ele><time>2026-04-19T09:24:49.177Z</time></trkpt><trkpt lat="46.2850669" lon="13.0260765"><ele>720.2</ele><time>2026-04-19T09:24:50.178Z</time></trkpt><trkpt lat="46.2851376" lon="13.0261346"><ele>718.0</ele><time>2026-04-19T09:24:51.177Z</time></trkpt><trkpt lat="46.2852059" lon="13.0262174"><ele>718.0</ele><time>2026-04-19T09:24:52.177Z</time></trkpt><trkpt lat="46.2852495" lon="13.0263511"><ele>718.0</ele><time>2026-04-19T09:24:53.176Z</time></trkpt><trkpt lat="46.2853176" lon="13.0264536"><ele>718.0</ele><time>2026-04-19T09:24:54.176Z</time></trkpt><trkpt lat="46.2853769" lon="13.0265617"><ele>718.0</ele><time>2026-04-19T09:24:55.176Z</time></trkpt><trkpt lat="46.2854417" lon="13.026662"><ele>718.0</ele><time>2026-04-19T09:24:56.176Z</time></trkpt><trkpt lat="46.2854957" lon="13.0267602"><ele>719.0</ele><time>2026-04-19T09:24:57.177Z</time></trkpt><trkpt lat="46.2855171" lon="13.0268908"><ele>720.0</ele><time>2026-04-19T09:24:58.177Z</time></trkpt><trkpt lat="46.2855462" lon="13.0270075"><ele>721.0</ele><time>2026-04-19T09:24:59.176Z</time></trkpt><trkpt lat="46.2855715" lon="13.0271311"><ele>722.0</ele><time>2026-04-19T09:25:00.176Z</time></trkpt><trkpt lat="46.2855999" lon="13.0272529"><ele>723.0</ele><time>2026-04-19T09:25:01.176Z</time></trkpt><trkpt lat="46.2856376" lon="13.027381"><ele>719.4</ele><time>2026-04-19T09:25:02.177Z</time></trkpt><trkpt lat="46.2856883" lon="13.027472"><ele>715.8</ele><time>2026-04-19T09:25:03.177Z</time></trkpt><trkpt lat="46.2857943" lon="13.027524"><ele>712.2</ele><time>2026-04-19T09:25:04.176Z</time></trkpt><trkpt lat="46.285842" lon="13.0276131"><ele>708.6</ele><time>2026-04-19T09:25:05.178Z</time></trkpt><trkpt lat="46.2858981" lon="13.0277112"><ele>705.0</ele><time>2026-04-19T09:25:06.177Z</time></trkpt><trkpt lat="46.2859671" lon="13.0278033"><ele>703.2</ele><time>2026-04-19T09:25:07.176Z</time></trkpt><trkpt lat="46.286029" lon="13.0279137"><ele>701.4</ele><time>2026-04-19T09:25:08.177Z</time></trkpt><trkpt lat="46.2860502" lon="13.0280457"><ele>699.5999999999999</ele><time>2026-04-19T09:25:09.177Z</time></trkpt><trkpt lat="46.2860923" lon="13.0281745"><ele>697.8</ele><time>2026-04-19T09:25:10.176Z</time></trkpt><trkpt lat="46.2861218" lon="13.0283041"><ele>696.0</ele><time>2026-04-19T09:25:11.176Z</time></trkpt><trkpt lat="46.286135" lon="13.0284293"><ele>695.1999999999999</ele><time>2026-04-19T09:25:12.176Z</time></trkpt><trkpt lat="46.2861706" lon="13.0285522"><ele>694.4</ele><time>2026-04-19T09:25:13.175Z</time></trkpt><trkpt lat="46.2861976" lon="13.0286748"><ele>693.6</ele><time>2026-04-19T09:25:14.176Z</time></trkpt><trkpt lat="46.2861789" lon="13.0289257"><ele>692.8</ele><time>2026-04-19T09:25:16.176Z</time></trkpt><trkpt lat="46.2861693" lon="13.0290603"><ele>692.0</ele><time>2026-04-19T09:25:17.176Z</time></trkpt><trkpt lat="46.2861586" lon="13.0292073"><ele>691.8333333333333</ele><time>2026-04-19T09:25:18.176Z</time></trkpt><trkpt lat="46.2861691" lon="13.0293533"><ele>691.6666666666666</ele><time>2026-04-19T09:25:19.175Z</time></trkpt><trkpt lat="46.2861792" lon="13.0294806"><ele>691.5</ele><time>2026-04-19T09:25:20.176Z</time></trkpt><trkpt lat="46.2861917" lon="13.0295899"><ele>691.3333333333334</ele><time>2026-04-19T09:25:21.176Z</time></trkpt><trkpt lat="46.2861745" lon="13.0297141"><ele>691.1666666666667</ele><time>2026-04-19T09:25:22.176Z</time></trkpt><trkpt lat="46.2861418" lon="13.0298076"><ele>691.0</ele><time>2026-04-19T09:25:23.176Z</time></trkpt><trkpt lat="46.2861199" lon="13.0299214"><ele>690.5</ele><time>2026-04-19T09:25:24.176Z</time></trkpt><trkpt lat="46.2860903" lon="13.0300445"><ele>690.0</ele><time>2026-04-19T09:25:25.176Z</time></trkpt><trkpt lat="46.286069" lon="13.0301527"><ele>689.5</ele><time>2026-04-19T09:25:26.176Z</time></trkpt><trkpt lat="46.2860425" lon="13.030277"><ele>689.0</ele><time>2026-04-19T09:25:27.175Z</time></trkpt><trkpt lat="46.2860532" lon="13.0304206"><ele>688.5</ele><time>2026-04-19T09:25:28.176Z</time></trkpt><trkpt lat="46.2860268" lon="13.0305332"><ele>688.0</ele><time>2026-04-19T09:25:29.176Z</time></trkpt><trkpt lat="46.2860166" lon="13.0306589"><ele>688.0</ele><time>2026-04-19T09:25:30.175Z</time></trkpt><trkpt lat="46.2859688" lon="13.030733"><ele>688.0</ele><time>2026-04-19T09:25:31.177Z</time></trkpt><trkpt lat="46.2859678" lon="13.0308368"><ele>688.0</ele><time>2026-04-19T09:25:32.175Z</time></trkpt><trkpt lat="46.2859562" lon="13.030952"><ele>688.0</ele><time>2026-04-19T09:25:33.175Z</time></trkpt><trkpt lat="46.2859536" lon="13.0310511"><ele>688.0</ele><time>2026-04-19T09:25:34.177Z</time></trkpt><trkpt lat="46.2859829" lon="13.0311875"><ele>688.0</ele><time>2026-04-19T09:25:35.176Z</time></trkpt><trkpt lat="46.2860139" lon="13.0313056"><ele>685.4</ele><time>2026-04-19T09:25:36.176Z</time></trkpt><trkpt lat="46.2860537" lon="13.0313779"><ele>682.8</ele><time>2026-04-19T09:25:37.176Z</time></trkpt><trkpt lat="46.2861469" lon="13.031493"><ele>680.2</ele><time>2026-04-19T09:25:38.175Z</time></trkpt><trkpt lat="46.2862319" lon="13.0314868"><ele>677.6</ele><time>2026-04-19T09:25:39.176Z</time></trkpt><trkpt lat="46.2863211" lon="13.0315249"><ele>675.0</ele><time>2026-04-19T09:25:41.175Z</time></trkpt><trkpt lat="46.2862075" lon="13.0313253"><ele>675.0</ele><time>2026-04-19T09:25:42.176Z</time></trkpt><trkpt lat="46.2861896" lon="13.0311417"><ele>675.0</ele><time>2026-04-19T09:25:44.176Z</time></trkpt><trkpt lat="46.286189" lon="13.0310383"><ele>675.0</ele><time>2026-04-19T09:25:45.177Z</time></trkpt><trkpt lat="46.2862507" lon="13.0308911"><ele>675.0</ele><time>2026-04-19T09:25:46.176Z</time></trkpt><trkpt lat="46.2863111" lon="13.0307683"><ele>675.0</ele><time>2026-04-19T09:25:47.176Z</time></trkpt><trkpt lat="46.2863639" lon="13.0306751"><ele>677.1666666666666</ele><time>2026-04-19T09:25:48.177Z</time></trkpt><trkpt lat="46.2864099" lon="13.0305788"><ele>679.3333333333334</ele><time>2026-04-19T09:25:49.176Z</time></trkpt><trkpt lat="46.2864595" lon="13.0304908"><ele>681.5</ele><time>2026-04-19T09:25:50.176Z</time></trkpt><trkpt lat="46.2865011" lon="13.0303849"><ele>683.6666666666667</ele><time>2026-04-19T09:25:51.177Z</time></trkpt><trkpt lat="46.2865445" lon="13.0302732"><ele>685.8333333333334</ele><time>2026-04-19T09:25:52.176Z</time></trkpt><trkpt lat="46.2865705" lon="13.0301586"><ele>688.0</ele><time>2026-04-19T09:25:53.176Z</time></trkpt><trkpt lat="46.2866038" lon="13.0300716"><ele>683.2</ele><time>2026-04-19T09:25:54.175Z</time></trkpt><trkpt lat="46.2866588" lon="13.0299695"><ele>678.4</ele><time>2026-04-19T09:25:56.176Z</time></trkpt><trkpt lat="46.2867615" lon="13.0299671"><ele>673.6</ele><time>2026-04-19T09:25:58.175Z</time></trkpt><trkpt lat="46.2868139" lon="13.0301439"><ele>668.8000000000001</ele><time>2026-04-19T09:26:00.176Z</time></trkpt><trkpt lat="46.2867955" lon="13.0302766"><ele>664.0</ele><time>2026-04-19T09:26:01.175Z</time></trkpt><trkpt lat="46.2867532" lon="13.0304178"><ele>661.6</ele><time>2026-04-19T09:26:02.176Z</time></trkpt><trkpt lat="46.2867119" lon="13.0305342"><ele>659.2</ele><time>2026-04-19T09:26:03.176Z</time></trkpt><trkpt lat="46.2866881" lon="13.0306905"><ele>656.8000000000001</ele><time>2026-04-19T09:26:04.176Z</time></trkpt><trkpt lat="46.286664" lon="13.030823"><ele>654.4000000000001</ele><time>2026-04-19T09:26:05.176Z</time></trkpt><trkpt lat="46.2866418" lon="13.0309588"><ele>652.0</ele><time>2026-04-19T09:26:06.176Z</time></trkpt><trkpt lat="46.2866164" lon="13.0310802"><ele>650.2</ele><time>2026-04-19T09:26:07.175Z</time></trkpt><trkpt lat="46.2866234" lon="13.0312122"><ele>648.4000000000001</ele><time>2026-04-19T09:26:08.176Z</time></trkpt><trkpt lat="46.2866286" lon="13.0313676"><ele>646.5999999999999</ele><time>2026-04-19T09:26:09.176Z</time></trkpt><trkpt lat="46.2865994" lon="13.0314918"><ele>644.8</ele><time>2026-04-19T09:26:10.176Z</time></trkpt><trkpt lat="46.2865903" lon="13.0316907"><ele>643.0</ele><time>2026-04-19T09:26:12.175Z</time></trkpt><trkpt lat="46.2866026" lon="13.0318168"><ele>642.5</ele><time>2026-04-19T09:26:13.175Z</time></trkpt><trkpt lat="46.2866932" lon="13.0318554"><ele>642.0</ele><time>2026-04-19T09:26:14.176Z</time></trkpt><trkpt lat="46.286799" lon="13.0320056"><ele>641.5</ele><time>2026-04-19T09:26:15.175Z</time></trkpt><trkpt lat="46.2868494" lon="13.0321214"><ele>641.0</ele><time>2026-04-19T09:26:16.176Z</time></trkpt><trkpt lat="46.2869118" lon="13.0322643"><ele>641.0</ele><time>2026-04-19T09:26:17.176Z</time></trkpt><trkpt lat="46.2869733" lon="13.0323009"><ele>641.0</ele><time>2026-04-19T09:26:18.175Z</time></trkpt><trkpt lat="46.2870378" lon="13.0324412"><ele>641.0</ele><time>2026-04-19T09:26:20.177Z</time></trkpt><trkpt lat="46.2871264" lon="13.032535"><ele>641.0</ele><time>2026-04-19T09:26:22.176Z</time></trkpt><trkpt lat="46.2871834" lon="13.0324806"><ele>641.0</ele><time>2026-04-19T09:26:23.176Z</time></trkpt><trkpt lat="46.2872618" lon="13.0324016"><ele>636.5</ele><time>2026-04-19T09:26:25.176Z</time></trkpt><trkpt lat="46.2872768" lon="13.0322493"><ele>632.0</ele><time>2026-04-19T09:26:26.176Z</time></trkpt><trkpt lat="46.2872996" lon="13.0321401"><ele>627.5</ele><time>2026-04-19T09:26:27.176Z</time></trkpt><trkpt lat="46.2873308" lon="13.0320368"><ele>623.0</ele><time>2026-04-19T09:26:28.175Z</time></trkpt><trkpt lat="46.2873586" lon="13.031945"><ele>618.5</ele><time>2026-04-19T09:26:29.176Z</time></trkpt><trkpt lat="46.2873798" lon="13.0318448"><ele>614.0</ele><time>2026-04-19T09:26:30.176Z</time></trkpt><trkpt lat="46.2874066" lon="13.031752"><ele>614.0</ele><time>2026-04-19T09:26:31.177Z</time></trkpt><trkpt lat="46.2874565" lon="13.0316425"><ele>614.0</ele><time>2026-04-19T09:26:32.176Z</time></trkpt><trkpt lat="46.2874967" lon="13.0315476"><ele>614.0</ele><time>2026-04-19T09:26:33.177Z</time></trkpt><trkpt lat="46.2875419" lon="13.0314558"><ele>614.0</ele><time>2026-04-19T09:26:34.176Z</time></trkpt><trkpt lat="46.2875882" lon="13.0313697"><ele>614.0</ele><time>2026-04-19T09:26:35.176Z</time></trkpt><trkpt lat="46.2876429" lon="13.031297"><ele>614.0</ele><time>2026-04-19T09:26:36.176Z</time></trkpt><trkpt lat="46.2876929" lon="13.0312254"><ele>614.9999999999999</ele><time>2026-04-19T09:26:37.176Z</time></trkpt><trkpt lat="46.2877425" lon="13.0311463"><ele>616.0</ele><time>2026-04-19T09:26:38.176Z</time></trkpt><trkpt lat="46.287782" lon="13.0310711"><ele>617.0</ele><time>2026-04-19T09:26:39.176Z</time></trkpt><trkpt lat="46.2878148" lon="13.0309754"><ele>618.0</ele><time>2026-04-19T09:26:40.176Z</time></trkpt><trkpt lat="46.2878489" lon="13.030891"><ele>619.0</ele><time>2026-04-19T09:26:41.176Z</time></trkpt><trkpt lat="46.2878771" lon="13.0307888"><ele>619.9999999999999</ele><time>2026-04-19T09:26:42.176Z</time></trkpt><trkpt lat="46.2879074" lon="13.0306792"><ele>621.0</ele><time>2026-04-19T09:26:43.175Z</time></trkpt><trkpt lat="46.2879327" lon="13.0305816"><ele>623.2</ele><time>2026-04-19T09:26:44.175Z</time></trkpt><trkpt lat="46.2879874" lon="13.0304515"><ele>625.4000000000001</ele><time>2026-04-19T09:26:45.176Z</time></trkpt><trkpt lat="46.2880111" lon="13.0303332"><ele>627.6</ele><time>2026-04-19T09:26:46.176Z</time></trkpt><trkpt lat="46.2880264" lon="13.0302079"><ele>629.8000000000001</ele><time>2026-04-19T09:26:47.176Z</time></trkpt><trkpt lat="46.2880501" lon="13.0300865"><ele>632.0</ele><time>2026-04-19T09:26:48.176Z</time></trkpt><trkpt lat="46.2880783" lon="13.0299677"><ele>627.5</ele><time>2026-04-19T09:26:49.177Z</time></trkpt><trkpt lat="46.2881182" lon="13.029855"><ele>623.0</ele><time>2026-04-19T09:26:50.177Z</time></trkpt><trkpt lat="46.2881636" lon="13.0297604"><ele>618.5</ele><time>2026-04-19T09:26:51.176Z</time></trkpt><trkpt lat="46.2882286" lon="13.0296787"><ele>614.0</ele><time>2026-04-19T09:26:52.176Z</time></trkpt><trkpt lat="46.288315" lon="13.0296096"><ele>609.5</ele><time>2026-04-19T09:26:53.175Z</time></trkpt><trkpt lat="46.2883959" lon="13.029533"><ele>605.0</ele><time>2026-04-19T09:26:54.176Z</time></trkpt><trkpt lat="46.2884784" lon="13.0294529"><ele>605.0</ele><time>2026-04-19T09:26:55.176Z</time></trkpt><trkpt lat="46.2885496" lon="13.0293632"><ele>605.0</ele><time>2026-04-19T09:26:56.176Z</time></trkpt><trkpt lat="46.2886227" lon="13.0292693"><ele>605.0</ele><time>2026-04-19T09:26:57.176Z</time></trkpt><trkpt lat="46.2886837" lon="13.0291642"><ele>605.0</ele><time>2026-04-19T09:26:58.176Z</time></trkpt><trkpt lat="46.2887384" lon="13.0290492"><ele>605.0</ele><time>2026-04-19T09:26:59.177Z</time></trkpt><trkpt lat="46.2887932" lon="13.0289168"><ele>603.0</ele><time>2026-04-19T09:27:00.176Z</time></trkpt><trkpt lat="46.2888464" lon="13.0287756"><ele>601.0</ele><time>2026-04-19T09:27:01.176Z</time></trkpt><trkpt lat="46.2888897" lon="13.0286304"><ele>599.0</ele><time>2026-04-19T09:27:02.176Z</time></trkpt><trkpt lat="46.2889376" lon="13.028444"><ele>597.0</ele><time>2026-04-19T09:27:03.176Z</time></trkpt><trkpt lat="46.2889929" lon="13.0282748"><ele>597.0</ele><time>2026-04-19T09:27:04.176Z</time></trkpt><trkpt lat="46.2890507" lon="13.0281154"><ele>597.0</ele><time>2026-04-19T09:27:05.177Z</time></trkpt><trkpt lat="46.2891101" lon="13.0279677"><ele>597.0</ele><time>2026-04-19T09:27:06.176Z</time></trkpt><trkpt lat="46.2891857" lon="13.0278389"><ele>597.0</ele><time>2026-04-19T09:27:07.177Z</time></trkpt><trkpt lat="46.2892615" lon="13.0277335"><ele>597.0</ele><time>2026-04-19T09:27:08.176Z</time></trkpt><trkpt lat="46.2893327" lon="13.0276194"><ele>597.0</ele><time>2026-04-19T09:27:09.176Z</time></trkpt><trkpt lat="46.2894103" lon="13.027512"><ele>597.0</ele><time>2026-04-19T09:27:10.176Z</time></trkpt><trkpt lat="46.2894869" lon="13.0274141"><ele>597.0</ele><time>2026-04-19T09:27:11.176Z</time></trkpt><trkpt lat="46.2895711" lon="13.0273296"><ele>597.0</ele><time>2026-04-19T09:27:12.176Z</time></trkpt><trkpt lat="46.2896671" lon="13.0272683"><ele>593.8000000000001</ele><time>2026-04-19T09:27:13.176Z</time></trkpt><trkpt lat="46.2897633" lon="13.0272058"><ele>590.6</ele><time>2026-04-19T09:27:14.177Z</time></trkpt><trkpt lat="46.2898547" lon="13.0271322"><ele>587.4000000000001</ele><time>2026-04-19T09:27:15.176Z</time></trkpt><trkpt lat="46.2899361" lon="13.0270772"><ele>584.2</ele><time>2026-04-19T09:27:16.176Z</time></trkpt><trkpt lat="46.2900161" lon="13.0270361"><ele>581.0</ele><time>2026-04-19T09:27:17.176Z</time></trkpt><trkpt lat="46.2900871" lon="13.0270002"><ele>581.0</ele><time>2026-04-19T09:27:18.176Z</time></trkpt><trkpt lat="46.2901669" lon="13.0270074"><ele>581.0</ele><time>2026-04-19T09:27:19.176Z</time></trkpt><trkpt lat="46.2902411" lon="13.0270512"><ele>581.0</ele><time>2026-04-19T09:27:20.176Z</time></trkpt><trkpt lat="46.2903064" lon="13.0271161"><ele>581.0</ele><time>2026-04-19T09:27:21.176Z</time></trkpt><trkpt lat="46.2904102" lon="13.0271929"><ele>581.0</ele><time>2026-04-19T09:27:23.175Z</time></trkpt><trkpt lat="46.2905226" lon="13.0271019"><ele>581.0</ele><time>2026-04-19T09:27:25.176Z</time></trkpt><trkpt lat="46.2905834" lon="13.0270353"><ele>581.0</ele><time>2026-04-19T09:27:26.175Z</time></trkpt><trkpt lat="46.2906505" lon="13.0269591"><ele>581.0</ele><time>2026-04-19T09:27:27.177Z</time></trkpt><trkpt lat="46.2907184" lon="13.0268885"><ele>581.0</ele><time>2026-04-19T09:27:28.176Z</time></trkpt><trkpt lat="46.290786" lon="13.0268412"><ele>581.0</ele><time>2026-04-19T09:27:29.175Z</time></trkpt><trkpt lat="46.2908993" lon="13.0268126"><ele>581.0</ele><time>2026-04-19T09:27:31.175Z</time></trkpt><trkpt lat="46.2909609" lon="13.0268894"><ele>580.1666666666666</ele><time>2026-04-19T09:27:33.176Z</time></trkpt><trkpt lat="46.2910138" lon="13.0270389"><ele>579.3333333333333</ele><time>2026-04-19T09:27:35.176Z</time></trkpt><trkpt lat="46.2910399" lon="13.0271351"><ele>578.5</ele><time>2026-04-19T09:27:36.176Z</time></trkpt><trkpt lat="46.2910307" lon="13.027273"><ele>577.6666666666666</ele><time>2026-04-19T09:27:37.176Z</time></trkpt><trkpt lat="46.2910567" lon="13.0273929"><ele>576.8333333333334</ele><time>2026-04-19T09:27:38.175Z</time></trkpt><trkpt lat="46.291073" lon="13.0275042"><ele>576.0</ele><time>2026-04-19T09:27:39.177Z</time></trkpt><trkpt lat="46.2911377" lon="13.0275867"><ele>572.8</ele><time>2026-04-19T09:27:40.175Z</time></trkpt><trkpt lat="46.2911978" lon="13.0277077"><ele>569.6</ele><time>2026-04-19T09:27:41.176Z</time></trkpt><trkpt lat="46.2912251" lon="13.0278217"><ele>566.4</ele><time>2026-04-19T09:27:42.176Z</time></trkpt><trkpt lat="46.2912725" lon="13.0279237"><ele>563.2</ele><time>2026-04-19T09:27:43.176Z</time></trkpt><trkpt lat="46.2913883" lon="13.0279792"><ele>560.0</ele><time>2026-04-19T09:27:45.175Z</time></trkpt><trkpt lat="46.2914715" lon="13.0279761"><ele>560.0</ele><time>2026-04-19T09:27:47.175Z</time></trkpt><trkpt lat="46.2915328" lon="13.0278546"><ele>560.0</ele><time>2026-04-19T09:27:48.176Z</time></trkpt><trkpt lat="46.2916202" lon="13.0278405"><ele>560.0</ele><time>2026-04-19T09:27:49.175Z</time></trkpt><trkpt lat="46.2917016" lon="13.0278408"><ele>560.0</ele><time>2026-04-19T09:27:50.176Z</time></trkpt><trkpt lat="46.2917835" lon="13.0278566"><ele>560.0</ele><time>2026-04-19T09:27:51.175Z</time></trkpt><trkpt lat="46.2918711" lon="13.0278627"><ele>560.0</ele><time>2026-04-19T09:27:52.176Z</time></trkpt><trkpt lat="46.2919345" lon="13.027871"><ele>560.0</ele><time>2026-04-19T09:27:53.176Z</time></trkpt><trkpt lat="46.2920317" lon="13.0278977"><ele>560.0</ele><time>2026-04-19T09:27:54.176Z</time></trkpt><trkpt lat="46.2921236" lon="13.0279393"><ele>560.0</ele><time>2026-04-19T09:27:55.176Z</time></trkpt><trkpt lat="46.2922181" lon="13.0279828"><ele>560.0</ele><time>2026-04-19T09:27:56.176Z</time></trkpt><trkpt lat="46.2922994" lon="13.0280453"><ele>560.0</ele><time>2026-04-19T09:27:57.176Z</time></trkpt><trkpt lat="46.2923794" lon="13.0280963"><ele>558.6666666666666</ele><time>2026-04-19T09:27:58.176Z</time></trkpt><trkpt lat="46.2924625" lon="13.0281256"><ele>557.3333333333333</ele><time>2026-04-19T09:27:59.176Z</time></trkpt><trkpt lat="46.2925186" lon="13.0281676"><ele>556.0</ele><time>2026-04-19T09:28:00.176Z</time></trkpt><trkpt lat="46.2925983" lon="13.0281975"><ele>554.6666666666666</ele><time>2026-04-19T09:28:01.177Z</time></trkpt><trkpt lat="46.2926679" lon="13.0282212"><ele>553.3333333333334</ele><time>2026-04-19T09:28:02.175Z</time></trkpt><trkpt lat="46.2927355" lon="13.0281076"><ele>552.0</ele><time>2026-04-19T09:28:03.175Z</time></trkpt><trkpt lat="46.2928115" lon="13.0280461"><ele>552.0</ele><time>2026-04-19T09:28:04.177Z</time></trkpt><trkpt lat="46.2928984" lon="13.0279809"><ele>552.0</ele><time>2026-04-19T09:28:05.176Z</time></trkpt><trkpt lat="46.2929708" lon="13.0278949"><ele>552.0</ele><time>2026-04-19T09:28:06.176Z</time></trkpt><trkpt lat="46.2930479" lon="13.0278181"><ele>552.0</ele><time>2026-04-19T09:28:07.177Z</time></trkpt><trkpt lat="46.2931285" lon="13.0277466"><ele>552.0</ele><time>2026-04-19T09:28:08.175Z</time></trkpt><trkpt lat="46.2932201" lon="13.0276937"><ele>547.8000000000001</ele><time>2026-04-19T09:28:09.176Z</time></trkpt><trkpt lat="46.2933154" lon="13.0276493"><ele>543.6</ele><time>2026-04-19T09:28:10.176Z</time></trkpt><trkpt lat="46.2934177" lon="13.027604"><ele>539.4000000000001</ele><time>2026-04-19T09:28:11.176Z</time></trkpt><trkpt lat="46.2934924" lon="13.0275607"><ele>535.2</ele><time>2026-04-19T09:28:12.176Z</time></trkpt><trkpt lat="46.2936077" lon="13.0275449"><ele>531.0</ele><time>2026-04-19T09:28:13.175Z</time></trkpt><trkpt lat="46.2937094" lon="13.027499"><ele>529.0</ele><time>2026-04-19T09:28:14.176Z</time></trkpt><trkpt lat="46.2938027" lon="13.0274634"><ele>527.0</ele><time>2026-04-19T09:28:15.176Z</time></trkpt><trkpt lat="46.2938678" lon="13.0274573"><ele>525.0</ele><time>2026-04-19T09:28:16.177Z</time></trkpt><trkpt lat="46.2939479" lon="13.0274524"><ele>523.0</ele><time>2026-04-19T09:28:17.176Z</time></trkpt><trkpt lat="46.2940169" lon="13.0274789"><ele>521.0</ele><time>2026-04-19T09:28:18.177Z</time></trkpt><trkpt lat="46.2940883" lon="13.0275271"><ele>519.0</ele><time>2026-04-19T09:28:19.176Z</time></trkpt><trkpt lat="46.2941661" lon="13.0276031"><ele>517.4</ele><time>2026-04-19T09:28:20.176Z</time></trkpt><trkpt lat="46.2942327" lon="13.0276952"><ele>515.8</ele><time>2026-04-19T09:28:21.175Z</time></trkpt><trkpt lat="46.294298" lon="13.027777"><ele>514.2</ele><time>2026-04-19T09:28:22.175Z</time></trkpt><trkpt lat="46.2943707" lon="13.0278674"><ele>512.6</ele><time>2026-04-19T09:28:23.175Z</time></trkpt><trkpt lat="46.294444" lon="13.0279589"><ele>511.0</ele><time>2026-04-19T09:28:24.175Z</time></trkpt><trkpt lat="46.2945174" lon="13.028048"><ele>511.00000000000006</ele><time>2026-04-19T09:28:25.176Z</time></trkpt><trkpt lat="46.2945745" lon="13.0281162"><ele>511.0</ele><time>2026-04-19T09:28:26.176Z</time></trkpt><trkpt lat="46.294628" lon="13.0281893"><ele>511.0</ele><time>2026-04-19T09:28:27.175Z</time></trkpt><trkpt lat="46.2946692" lon="13.0282646"><ele>511.0</ele><time>2026-04-19T09:28:28.175Z</time></trkpt><trkpt lat="46.2946805" lon="13.0283764"><ele>511.00000000000006</ele><time>2026-04-19T09:28:29.175Z</time></trkpt><trkpt lat="46.2946754" lon="13.0285232"><ele>511.0</ele><time>2026-04-19T09:28:30.175Z</time></trkpt><trkpt lat="46.2946703" lon="13.0286637"><ele>510.20000000000005</ele><time>2026-04-19T09:28:31.174Z</time></trkpt><trkpt lat="46.294657" lon="13.0288006"><ele>509.40000000000003</ele><time>2026-04-19T09:28:32.175Z</time></trkpt><trkpt lat="46.2946351" lon="13.0289384"><ele>508.6</ele><time>2026-04-19T09:28:33.174Z</time></trkpt><trkpt lat="46.2946155" lon="13.0290698"><ele>507.8</ele><time>2026-04-19T09:28:34.175Z</time></trkpt><trkpt lat="46.2945904" lon="13.0292007"><ele>507.0</ele><time>2026-04-19T09:28:35.175Z</time></trkpt><trkpt lat="46.2945726" lon="13.0293287"><ele>505.6</ele><time>2026-04-19T09:28:36.174Z</time></trkpt><trkpt lat="46.2945335" lon="13.0294808"><ele>504.20000000000005</ele><time>2026-04-19T09:28:37.175Z</time></trkpt><trkpt lat="46.2944899" lon="13.0296236"><ele>502.8</ele><time>2026-04-19T09:28:38.175Z</time></trkpt><trkpt lat="46.2944519" lon="13.029758"><ele>501.4</ele><time>2026-04-19T09:28:39.176Z</time></trkpt><trkpt lat="46.2944149" lon="13.0299045"><ele>500.0</ele><time>2026-04-19T09:28:40.175Z</time></trkpt><trkpt lat="46.2943763" lon="13.030052"><ele>498.16666666666663</ele><time>2026-04-19T09:28:41.174Z</time></trkpt><trkpt lat="46.2943467" lon="13.0301749"><ele>496.3333333333333</ele><time>2026-04-19T09:28:42.175Z</time></trkpt><trkpt lat="46.2943234" lon="13.0302658"><ele>494.5</ele><time>2026-04-19T09:28:43.174Z</time></trkpt><trkpt lat="46.2942346" lon="13.0303686"><ele>492.66666666666663</ele><time>2026-04-19T09:28:45.175Z</time></trkpt><trkpt lat="46.2941665" lon="13.0303816"><ele>490.8333333333333</ele><time>2026-04-19T09:28:46.174Z</time></trkpt><trkpt lat="46.2940923" lon="13.0303878"><ele>489.0</ele><time>2026-04-19T09:28:47.175Z</time></trkpt><trkpt lat="46.2939976" lon="13.0303432"><ele>489.0</ele><time>2026-04-19T09:28:48.175Z</time></trkpt><trkpt lat="46.2939112" lon="13.0303105"><ele>489.0</ele><time>2026-04-19T09:28:49.174Z</time></trkpt><trkpt lat="46.2938084" lon="13.0302595"><ele>489.0</ele><time>2026-04-19T09:28:50.175Z</time></trkpt><trkpt lat="46.293706" lon="13.0302242"><ele>489.0</ele><time>2026-04-19T09:28:51.175Z</time></trkpt><trkpt lat="46.2936142" lon="13.0301873"><ele>489.0</ele><time>2026-04-19T09:28:52.175Z</time></trkpt><trkpt lat="46.2935312" lon="13.0301482"><ele>489.0</ele><time>2026-04-19T09:28:53.175Z</time></trkpt><trkpt lat="46.2934427" lon="13.0300834"><ele>489.0</ele><time>2026-04-19T09:28:54.175Z</time></trkpt><trkpt lat="46.2933738" lon="13.0300238"><ele>489.0</ele><time>2026-04-19T09:28:55.174Z</time></trkpt><trkpt lat="46.2933058" lon="13.0299708"><ele>489.0</ele><time>2026-04-19T09:28:56.174Z</time></trkpt><trkpt lat="46.2932402" lon="13.0299092"><ele>489.0</ele><time>2026-04-19T09:28:57.175Z</time></trkpt><trkpt lat="46.2931687" lon="13.0298888"><ele>489.0</ele><time>2026-04-19T09:28:58.175Z</time></trkpt><trkpt lat="46.2930908" lon="13.0298747"><ele>489.0</ele><time>2026-04-19T09:28:59.174Z</time></trkpt><trkpt lat="46.2929908" lon="13.0298862"><ele>489.0</ele><time>2026-04-19T09:29:00.175Z</time></trkpt><trkpt lat="46.2928916" lon="13.0298965"><ele>489.0</ele><time>2026-04-19T09:29:01.175Z</time></trkpt><trkpt lat="46.2928257" lon="13.0300255"><ele>489.0</ele><time>2026-04-19T09:29:02.175Z</time></trkpt><trkpt lat="46.2927475" lon="13.0300731"><ele>489.0</ele><time>2026-04-19T09:29:03.175Z</time></trkpt><trkpt lat="46.292675" lon="13.0301309"><ele>489.0</ele><time>2026-04-19T09:29:04.175Z</time></trkpt><trkpt lat="46.2926647" lon="13.0303041"><ele>489.0</ele><time>2026-04-19T09:29:05.175Z</time></trkpt><trkpt lat="46.2926048" lon="13.0304019"><ele>489.0</ele><time>2026-04-19T09:29:06.175Z</time></trkpt><trkpt lat="46.2925522" lon="13.0305148"><ele>489.0</ele><time>2026-04-19T09:29:07.175Z</time></trkpt><trkpt lat="46.2924918" lon="13.0306397"><ele>489.0</ele><time>2026-04-19T09:29:08.175Z</time></trkpt><trkpt lat="46.2924261" lon="13.0307581"><ele>488.4</ele><time>2026-04-19T09:29:09.175Z</time></trkpt><trkpt lat="46.2923716" lon="13.0308786"><ele>487.79999999999995</ele><time>2026-04-19T09:29:10.175Z</time></trkpt><trkpt lat="46.2923125" lon="13.0309738"><ele>487.20000000000005</ele><time>2026-04-19T09:29:11.175Z</time></trkpt><trkpt lat="46.2922543" lon="13.0310797"><ele>486.6</ele><time>2026-04-19T09:29:12.175Z</time></trkpt><trkpt lat="46.2921885" lon="13.0311797"><ele>486.0</ele><time>2026-04-19T09:29:13.175Z</time></trkpt><trkpt lat="46.292135" lon="13.0313007"><ele>484.0</ele><time>2026-04-19T09:29:14.174Z</time></trkpt><trkpt lat="46.2920908" lon="13.0314328"><ele>482.0</ele><time>2026-04-19T09:29:15.176Z</time></trkpt><trkpt lat="46.292047" lon="13.0315532"><ele>480.0</ele><time>2026-04-19T09:29:16.175Z</time></trkpt><trkpt lat="46.292001" lon="13.0316514"><ele>478.0</ele><time>2026-04-19T09:29:17.175Z</time></trkpt><trkpt lat="46.2919363" lon="13.0317354"><ele>476.0</ele><time>2026-04-19T09:29:18.175Z</time></trkpt><trkpt lat="46.2918769" lon="13.0317941"><ele>474.0</ele><time>2026-04-19T09:29:19.175Z</time></trkpt><trkpt lat="46.2918031" lon="13.031823"><ele>474.0</ele><time>2026-04-19T09:29:20.174Z</time></trkpt><trkpt lat="46.2917338" lon="13.0318341"><ele>474.0</ele><time>2026-04-19T09:29:21.175Z</time></trkpt><trkpt lat="46.2916697" lon="13.0318055"><ele>474.0</ele><time>2026-04-19T09:29:22.174Z</time></trkpt><trkpt lat="46.2915845" lon="13.0316342"><ele>474.0</ele><time>2026-04-19T09:29:24.175Z</time></trkpt><trkpt lat="46.2915532" lon="13.0315005"><ele>474.0</ele><time>2026-04-19T09:29:25.175Z</time></trkpt><trkpt lat="46.2915311" lon="13.0313712"><ele>474.0</ele><time>2026-04-19T09:29:26.175Z</time></trkpt><trkpt lat="46.2915079" lon="13.0312432"><ele>474.0</ele><time>2026-04-19T09:29:27.175Z</time></trkpt><trkpt lat="46.2914957" lon="13.0311246"><ele>474.0</ele><time>2026-04-19T09:29:28.175Z</time></trkpt><trkpt lat="46.2914428" lon="13.0310593"><ele>474.0</ele><time>2026-04-19T09:29:29.175Z</time></trkpt><trkpt lat="46.2913264" lon="13.0310442"><ele>474.0</ele><time>2026-04-19T09:29:30.174Z</time></trkpt><trkpt lat="46.291254" lon="13.0309903"><ele>474.0</ele><time>2026-04-19T09:29:31.175Z</time></trkpt><trkpt lat="46.2911749" lon="13.0309335"><ele>473.2</ele><time>2026-04-19T09:29:32.175Z</time></trkpt><trkpt lat="46.2910803" lon="13.0308993"><ele>472.4</ele><time>2026-04-19T09:29:33.175Z</time></trkpt><trkpt lat="46.2909751" lon="13.0309492"><ele>471.6</ele><time>2026-04-19T09:29:34.175Z</time></trkpt><trkpt lat="46.2908949" lon="13.030955"><ele>470.8</ele><time>2026-04-19T09:29:35.175Z</time></trkpt><trkpt lat="46.2908726" lon="13.0311025"><ele>470.0</ele><time>2026-04-19T09:29:36.175Z</time></trkpt><trkpt lat="46.2908093" lon="13.0311853"><ele>470.0</ele><time>2026-04-19T09:29:37.174Z</time></trkpt><trkpt lat="46.2907529" lon="13.0312981"><ele>470.0</ele><time>2026-04-19T09:29:38.175Z</time></trkpt><trkpt lat="46.2906983" lon="13.0314155"><ele>470.0</ele><time>2026-04-19T09:29:39.174Z</time></trkpt><trkpt lat="46.2906478" lon="13.031561"><ele>470.0</ele><time>2026-04-19T09:29:40.175Z</time></trkpt><trkpt lat="46.2906079" lon="13.0317057"><ele>470.0</ele><time>2026-04-19T09:29:41.175Z</time></trkpt><trkpt lat="46.2905661" lon="13.0318502"><ele>474.5</ele><time>2026-04-19T09:29:42.175Z</time></trkpt><trkpt lat="46.2905204" lon="13.0319982"><ele>479.0</ele><time>2026-04-19T09:29:43.175Z</time></trkpt><trkpt lat="46.2904731" lon="13.0321503"><ele>483.5</ele><time>2026-04-19T09:29:44.175Z</time></trkpt><trkpt lat="46.2904226" lon="13.0322983"><ele>488.0</ele><time>2026-04-19T09:29:45.174Z</time></trkpt><trkpt lat="46.2903666" lon="13.0324464"><ele>485.0</ele><time>2026-04-19T09:29:46.175Z</time></trkpt><trkpt lat="46.2903227" lon="13.0325975"><ele>481.99999999999994</ele><time>2026-04-19T09:29:47.175Z</time></trkpt><trkpt lat="46.2902913" lon="13.0327502"><ele>478.99999999999994</ele><time>2026-04-19T09:29:48.175Z</time></trkpt><trkpt lat="46.2902642" lon="13.0329077"><ele>476.0</ele><time>2026-04-19T09:29:49.175Z</time></trkpt><trkpt lat="46.2902456" lon="13.0330664"><ele>473.0</ele><time>2026-04-19T09:29:50.175Z</time></trkpt><trkpt lat="46.2902275" lon="13.0332239"><ele>469.8333333333333</ele><time>2026-04-19T09:29:51.174Z</time></trkpt><trkpt lat="46.290206" lon="13.0333806"><ele>466.66666666666663</ele><time>2026-04-19T09:29:52.175Z</time></trkpt><trkpt lat="46.2901705" lon="13.0335233"><ele>463.5</ele><time>2026-04-19T09:29:53.175Z</time></trkpt><trkpt lat="46.2901439" lon="13.0336423"><ele>460.33333333333337</ele><time>2026-04-19T09:29:54.174Z</time></trkpt><trkpt lat="46.2901295" lon="13.0337447"><ele>457.1666666666667</ele><time>2026-04-19T09:29:55.175Z</time></trkpt><trkpt lat="46.2901087" lon="13.0338375"><ele>454.0</ele><time>2026-04-19T09:29:56.174Z</time></trkpt><trkpt lat="46.2900862" lon="13.0339889"><ele>454.0</ele><time>2026-04-19T09:29:58.175Z</time></trkpt><trkpt lat="46.2901849" lon="13.0340011"><ele>454.0</ele><time>2026-04-19T09:30:00.175Z</time></trkpt><trkpt lat="46.2902568" lon="13.0339104"><ele>454.0</ele><time>2026-04-19T09:30:02.175Z</time></trkpt><trkpt lat="46.2903064" lon="13.0337782"><ele>454.0</ele><time>2026-04-19T09:30:04.175Z</time></trkpt><trkpt lat="46.2903138" lon="13.0336743"><ele>454.0</ele><time>2026-04-19T09:30:05.175Z</time></trkpt><trkpt lat="46.2903715" lon="13.0334111"><ele>457.79999999999995</ele><time>2026-04-19T09:30:06.175Z</time></trkpt><trkpt lat="46.2904017" lon="13.033243"><ele>461.59999999999997</ele><time>2026-04-19T09:30:07.175Z</time></trkpt><trkpt lat="46.290425" lon="13.0330958"><ele>465.4</ele><time>2026-04-19T09:30:08.175Z</time></trkpt><trkpt lat="46.2904559" lon="13.0329586"><ele>469.2</ele><time>2026-04-19T09:30:09.175Z</time></trkpt><trkpt lat="46.2904871" lon="13.0328281"><ele>473.0</ele><time>2026-04-19T09:30:10.175Z</time></trkpt><trkpt lat="46.2905229" lon="13.0327084"><ele>473.0</ele><time>2026-04-19T09:30:11.175Z</time></trkpt><trkpt lat="46.2905494" lon="13.0326105"><ele>472.99999999999994</ele><time>2026-04-19T09:30:12.175Z</time></trkpt><trkpt lat="46.2906428" lon="13.032538"><ele>472.99999999999994</ele><time>2026-04-19T09:30:14.174Z</time></trkpt><trkpt lat="46.29066" lon="13.0326849"><ele>473.0</ele><time>2026-04-19T09:30:16.176Z</time></trkpt><trkpt lat="46.2905777" lon="13.0328431"><ele>473.0</ele><time>2026-04-19T09:30:18.175Z</time></trkpt><trkpt lat="46.2905379" lon="13.0329534"><ele>473.0</ele><time>2026-04-19T09:30:19.175Z</time></trkpt><trkpt lat="46.2905091" lon="13.0330708"><ele>472.99999999999994</ele><time>2026-04-19T09:30:20.175Z</time></trkpt><trkpt lat="46.2904908" lon="13.0332002"><ele>472.99999999999994</ele><time>2026-04-19T09:30:21.175Z</time></trkpt><trkpt lat="46.2904797" lon="13.0333372"><ele>473.0</ele><time>2026-04-19T09:30:22.174Z</time></trkpt><trkpt lat="46.2904723" lon="13.0334825"><ele>473.0</ele><time>2026-04-19T09:30:23.175Z</time></trkpt><trkpt lat="46.2904644" lon="13.033638"><ele>468.25</ele><time>2026-04-19T09:30:24.176Z</time></trkpt><trkpt lat="46.2904527" lon="13.0337932"><ele>463.5</ele><time>2026-04-19T09:30:25.175Z</time></trkpt><trkpt lat="46.2904249" lon="13.0339532"><ele>458.75</ele><time>2026-04-19T09:30:26.175Z</time></trkpt><trkpt lat="46.2903904" lon="13.0341123"><ele>454.0</ele><time>2026-04-19T09:30:27.174Z</time></trkpt><trkpt lat="46.2903524" lon="13.0342669"><ele>450.25</ele><time>2026-04-19T09:30:28.175Z</time></trkpt><trkpt lat="46.2903216" lon="13.0344183"><ele>446.5</ele><time>2026-04-19T09:30:29.175Z</time></trkpt><trkpt lat="46.2902901" lon="13.034567"><ele>442.75</ele><time>2026-04-19T09:30:30.175Z</time></trkpt><trkpt lat="46.2902998" lon="13.0347364"><ele>439.0</ele><time>2026-04-19T09:30:31.175Z</time></trkpt><trkpt lat="46.2903241" lon="13.0349246"><ele>436.4</ele><time>2026-04-19T09:30:32.174Z</time></trkpt><trkpt lat="46.29034" lon="13.035078"><ele>433.79999999999995</ele><time>2026-04-19T09:30:33.175Z</time></trkpt><trkpt lat="46.2903438" lon="13.035235"><ele>431.20000000000005</ele><time>2026-04-19T09:30:34.175Z</time></trkpt><trkpt lat="46.2903467" lon="13.0353831"><ele>428.6</ele><time>2026-04-19T09:30:35.175Z</time></trkpt><trkpt lat="46.2903502" lon="13.0355366"><ele>426.0</ele><time>2026-04-19T09:30:36.175Z</time></trkpt><trkpt lat="46.2903565" lon="13.0356751"><ele>423.1666666666667</ele><time>2026-04-19T09:30:37.175Z</time></trkpt><trkpt lat="46.2903582" lon="13.0358081"><ele>420.33333333333337</ele><time>2026-04-19T09:30:38.174Z</time></trkpt><trkpt lat="46.2903394" lon="13.0359267"><ele>417.5</ele><time>2026-04-19T09:30:39.175Z</time></trkpt><trkpt lat="46.2903142" lon="13.0360394"><ele>414.6666666666667</ele><time>2026-04-19T09:30:40.175Z</time></trkpt><trkpt lat="46.2902726" lon="13.0361523"><ele>411.83333333333337</ele><time>2026-04-19T09:30:41.174Z</time></trkpt><trkpt lat="46.2902363" lon="13.0362655"><ele>409.0</ele><time>2026-04-19T09:30:42.175Z</time></trkpt><trkpt lat="46.2901904" lon="13.0363847"><ele>409.0</ele><time>2026-04-19T09:30:43.175Z</time></trkpt><trkpt lat="46.290155" lon="13.0365026"><ele>409.0</ele><time>2026-04-19T09:30:44.174Z</time></trkpt><trkpt lat="46.2901233" lon="13.0366303"><ele>409.0</ele><time>2026-04-19T09:30:45.175Z</time></trkpt><trkpt lat="46.2900988" lon="13.036769"><ele>409.0</ele><time>2026-04-19T09:30:46.175Z</time></trkpt><trkpt lat="46.2900486" lon="13.0369003"><ele>409.0</ele><time>2026-04-19T09:30:47.175Z</time></trkpt><trkpt lat="46.2900053" lon="13.0370266"><ele>405.0</ele><time>2026-04-19T09:30:48.175Z</time></trkpt><trkpt lat="46.2899509" lon="13.0371481"><ele>401.0</ele><time>2026-04-19T09:30:49.175Z</time></trkpt><trkpt lat="46.2899117" lon="13.0372728"><ele>397.0</ele><time>2026-04-19T09:30:50.175Z</time></trkpt><trkpt lat="46.2898774" lon="13.0374157"><ele>393.0</ele><time>2026-04-19T09:30:51.175Z</time></trkpt><trkpt lat="46.28986" lon="13.0375377"><ele>389.0</ele><time>2026-04-19T09:30:52.174Z</time></trkpt><trkpt lat="46.2898574" lon="13.0376897"><ele>384.2</ele><time>2026-04-19T09:30:53.175Z</time></trkpt><trkpt lat="46.2898522" lon="13.0378386"><ele>379.4</ele><time>2026-04-19T09:30:54.175Z</time></trkpt><trkpt lat="46.2898539" lon="13.0379793"><ele>374.6</ele><time>2026-04-19T09:30:55.175Z</time></trkpt><trkpt lat="46.2898659" lon="13.0381231"><ele>369.8</ele><time>2026-04-19T09:30:56.175Z</time></trkpt><trkpt lat="46.289875" lon="13.0382675"><ele>365.0</ele><time>2026-04-19T09:30:57.174Z</time></trkpt><trkpt lat="46.2898973" lon="13.038408"><ele>362.8</ele><time>2026-04-19T09:30:58.175Z</time></trkpt><trkpt lat="46.2899049" lon="13.0385314"><ele>360.6</ele><time>2026-04-19T09:30:59.175Z</time></trkpt><trkpt lat="46.2899113" lon="13.038666"><ele>358.4</ele><time>2026-04-19T09:31:00.174Z</time></trkpt><trkpt lat="46.2899182" lon="13.0387998"><ele>356.2</ele><time>2026-04-19T09:31:01.175Z</time></trkpt><trkpt lat="46.2899135" lon="13.0389352"><ele>354.0</ele><time>2026-04-19T09:31:02.174Z</time></trkpt><trkpt lat="46.2899008" lon="13.0390724"><ele>352.0</ele><time>2026-04-19T09:31:03.175Z</time></trkpt><trkpt lat="46.2898875" lon="13.039219"><ele>350.0</ele><time>2026-04-19T09:31:04.175Z</time></trkpt><trkpt lat="46.2898722" lon="13.0393631"><ele>348.0</ele><time>2026-04-19T09:31:05.174Z</time></trkpt><trkpt lat="46.2898627" lon="13.039515"><ele>346.0</ele><time>2026-04-19T09:31:06.174Z</time></trkpt><trkpt lat="46.2898503" lon="13.0396646"><ele>344.0</ele><time>2026-04-19T09:31:07.174Z</time></trkpt><trkpt lat="46.2898333" lon="13.0398003"><ele>344.0</ele><time>2026-04-19T09:31:08.174Z</time></trkpt><trkpt lat="46.2898195" lon="13.0399465"><ele>344.0</ele><time>2026-04-19T09:31:09.176Z</time></trkpt><trkpt lat="46.2898094" lon="13.0400937"><ele>344.0</ele><time>2026-04-19T09:31:10.175Z</time></trkpt><trkpt lat="46.2897999" lon="13.0402364"><ele>344.0</ele><time>2026-04-19T09:31:11.175Z</time></trkpt><trkpt lat="46.2897957" lon="13.0403748"><ele>344.0</ele><time>2026-04-19T09:31:12.176Z</time></trkpt><trkpt lat="46.2897936" lon="13.0405025"><ele>342.5</ele><time>2026-04-19T09:31:13.175Z</time></trkpt><trkpt lat="46.2897997" lon="13.0406298"><ele>341.0</ele><time>2026-04-19T09:31:14.175Z</time></trkpt><trkpt lat="46.2898006" lon="13.0407515"><ele>339.5</ele><time>2026-04-19T09:31:15.174Z</time></trkpt><trkpt lat="46.2898047" lon="13.0408707"><ele>338.0</ele><time>2026-04-19T09:31:16.174Z</time></trkpt><trkpt lat="46.2898094" lon="13.0409861"><ele>336.5</ele><time>2026-04-19T09:31:17.175Z</time></trkpt><trkpt lat="46.2898178" lon="13.0411035"><ele>335.0</ele><time>2026-04-19T09:31:18.176Z</time></trkpt><trkpt lat="46.2898195" lon="13.0412248"><ele>333.1666666666667</ele><time>2026-04-19T09:31:19.175Z</time></trkpt><trkpt lat="46.2898177" lon="13.0413471"><ele>331.33333333333337</ele><time>2026-04-19T09:31:20.174Z</time></trkpt><trkpt lat="46.2898159" lon="13.0414675"><ele>329.5</ele><time>2026-04-19T09:31:21.174Z</time></trkpt><trkpt lat="46.2898109" lon="13.0415837"><ele>327.6666666666667</ele><time>2026-04-19T09:31:22.175Z</time></trkpt><trkpt lat="46.2898109" lon="13.0417063"><ele>325.8333333333333</ele><time>2026-04-19T09:31:23.175Z</time></trkpt><trkpt lat="46.2898117" lon="13.0418226"><ele>324.0</ele><time>2026-04-19T09:31:24.175Z</time></trkpt><trkpt lat="46.289807" lon="13.0419516"><ele>322.8333333333333</ele><time>2026-04-19T09:31:25.175Z</time></trkpt><trkpt lat="46.2898092" lon="13.0420774"><ele>321.6666666666667</ele><time>2026-04-19T09:31:26.175Z</time></trkpt><trkpt lat="46.2898143" lon="13.0422061"><ele>320.5</ele><time>2026-04-19T09:31:27.175Z</time></trkpt><trkpt lat="46.2898231" lon="13.0423337"><ele>319.33333333333337</ele><time>2026-04-19T09:31:28.175Z</time></trkpt><trkpt lat="46.2898413" lon="13.0424634"><ele>318.1666666666667</ele><time>2026-04-19T09:31:29.175Z</time></trkpt><trkpt lat="46.2898697" lon="13.0425897"><ele>317.0</ele><time>2026-04-19T09:31:30.175Z</time></trkpt><trkpt lat="46.289894" lon="13.0427271"><ele>315.6</ele><time>2026-04-19T09:31:31.174Z</time></trkpt><trkpt lat="46.2899153" lon="13.0428656"><ele>314.2</ele><time>2026-04-19T09:31:32.176Z</time></trkpt><trkpt lat="46.2899415" lon="13.0430052"><ele>312.8</ele><time>2026-04-19T09:31:33.175Z</time></trkpt><trkpt lat="46.2899655" lon="13.0431478"><ele>311.4</ele><time>2026-04-19T09:31:34.176Z</time></trkpt><trkpt lat="46.289991" lon="13.0432908"><ele>310.0</ele><time>2026-04-19T09:31:35.176Z</time></trkpt><trkpt lat="46.290016" lon="13.0434358"><ele>309.2</ele><time>2026-04-19T09:31:36.174Z</time></trkpt><trkpt lat="46.2900383" lon="13.0435814"><ele>308.4</ele><time>2026-04-19T09:31:37.174Z</time></trkpt><trkpt lat="46.2900646" lon="13.0437294"><ele>307.6</ele><time>2026-04-19T09:31:38.175Z</time></trkpt><trkpt lat="46.2900955" lon="13.0438677"><ele>306.8</ele><time>2026-04-19T09:31:39.175Z</time></trkpt><trkpt lat="46.2901304" lon="13.0439854"><ele>306.0</ele><time>2026-04-19T09:31:40.175Z</time></trkpt><trkpt lat="46.2901749" lon="13.0440895"><ele>305.6666666666667</ele><time>2026-04-19T09:31:41.174Z</time></trkpt><trkpt lat="46.2902212" lon="13.0441922"><ele>305.3333333333333</ele><time>2026-04-19T09:31:42.174Z</time></trkpt><trkpt lat="46.2902836" lon="13.0442466"><ele>305.0</ele><time>2026-04-19T09:31:43.174Z</time></trkpt><trkpt lat="46.2903558" lon="13.0442947"><ele>304.66666666666663</ele><time>2026-04-19T09:31:44.173Z</time></trkpt><trkpt lat="46.2904293" lon="13.0443482"><ele>304.3333333333333</ele><time>2026-04-19T09:31:45.173Z</time></trkpt><trkpt lat="46.2904958" lon="13.0444114"><ele>304.0</ele><time>2026-04-19T09:31:46.174Z</time></trkpt><trkpt lat="46.2905444" lon="13.0444977"><ele>304.0</ele><time>2026-04-19T09:31:47.174Z</time></trkpt><trkpt lat="46.2905617" lon="13.0446056"><ele>304.0</ele><time>2026-04-19T09:31:48.175Z</time></trkpt><trkpt lat="46.2905793" lon="13.0447183"><ele>304.0</ele><time>2026-04-19T09:31:49.174Z</time></trkpt><trkpt lat="46.290588" lon="13.0448407"><ele>304.0</ele><time>2026-04-19T09:31:50.175Z</time></trkpt><trkpt lat="46.2905985" lon="13.044967"><ele>304.0</ele><time>2026-04-19T09:31:51.173Z</time></trkpt><trkpt lat="46.2906184" lon="13.0451027"><ele>304.0</ele><time>2026-04-19T09:31:52.173Z</time></trkpt><trkpt lat="46.2906364" lon="13.0452421"><ele>296.8</ele><time>2026-04-19T09:31:53.174Z</time></trkpt><trkpt lat="46.2906557" lon="13.0453844"><ele>289.59999999999997</ele><time>2026-04-19T09:31:54.174Z</time></trkpt><trkpt lat="46.2906816" lon="13.045527"><ele>282.4</ele><time>2026-04-19T09:31:55.174Z</time></trkpt><trkpt lat="46.2907022" lon="13.0456641"><ele>275.2</ele><time>2026-04-19T09:31:56.173Z</time></trkpt><trkpt lat="46.2906984" lon="13.0457989"><ele>268.0</ele><time>2026-04-19T09:31:57.174Z</time></trkpt><trkpt lat="46.290685" lon="13.0459265"><ele>267.4</ele><time>2026-04-19T09:31:58.174Z</time></trkpt><trkpt lat="46.2906575" lon="13.0460568"><ele>266.8</ele><time>2026-04-19T09:31:59.173Z</time></trkpt><trkpt lat="46.2906179" lon="13.0461863"><ele>266.2</ele><time>2026-04-19T09:32:00.175Z</time></trkpt><trkpt lat="46.2905664" lon="13.0463059"><ele>265.6</ele><time>2026-04-19T09:32:01.174Z</time></trkpt><trkpt lat="46.2904987" lon="13.0464075"><ele>265.0</ele><time>2026-04-19T09:32:02.173Z</time></trkpt><trkpt lat="46.2904205" lon="13.0464897"><ele>268.5</ele><time>2026-04-19T09:32:03.174Z</time></trkpt><trkpt lat="46.2903601" lon="13.0465664"><ele>272.0</ele><time>2026-04-19T09:32:04.173Z</time></trkpt><trkpt lat="46.2903221" lon="13.0466609"><ele>275.5</ele><time>2026-04-19T09:32:05.174Z</time></trkpt><trkpt lat="46.2903042" lon="13.0467818"><ele>279.0</ele><time>2026-04-19T09:32:06.174Z</time></trkpt><trkpt lat="46.2902958" lon="13.0469238"><ele>282.5</ele><time>2026-04-19T09:32:07.174Z</time></trkpt><trkpt lat="46.2902803" lon="13.0470803"><ele>286.0</ele><time>2026-04-19T09:32:08.174Z</time></trkpt><trkpt lat="46.2902681" lon="13.0472366"><ele>286.0</ele><time>2026-04-19T09:32:09.175Z</time></trkpt><trkpt lat="46.2902607" lon="13.0473671"><ele>286.0</ele><time>2026-04-19T09:32:10.174Z</time></trkpt><trkpt lat="46.290252" lon="13.0474838"><ele>286.0</ele><time>2026-04-19T09:32:11.173Z</time></trkpt><trkpt lat="46.2902338" lon="13.0476013"><ele>286.0</ele><time>2026-04-19T09:32:12.175Z</time></trkpt><trkpt lat="46.2901955" lon="13.0477258"><ele>286.0</ele><time>2026-04-19T09:32:13.174Z</time></trkpt><trkpt lat="46.290136" lon="13.0478667"><ele>284.25</ele><time>2026-04-19T09:32:14.174Z</time></trkpt><trkpt lat="46.2900741" lon="13.048016"><ele>282.5</ele><time>2026-04-19T09:32:15.174Z</time></trkpt><trkpt lat="46.2900064" lon="13.0481779"><ele>280.75</ele><time>2026-04-19T09:32:16.175Z</time></trkpt><trkpt lat="46.2899482" lon="13.0483359"><ele>279.0</ele><time>2026-04-19T09:32:17.174Z</time></trkpt><trkpt lat="46.2898905" lon="13.0484934"><ele>276.0</ele><time>2026-04-19T09:32:18.174Z</time></trkpt><trkpt lat="46.2898428" lon="13.0486369"><ele>273.0</ele><time>2026-04-19T09:32:19.173Z</time></trkpt><trkpt lat="46.2897894" lon="13.0487669"><ele>270.0</ele><time>2026-04-19T09:32:20.174Z</time></trkpt><trkpt lat="46.2897274" lon="13.0488892"><ele>267.0</ele><time>2026-04-19T09:32:21.175Z</time></trkpt><trkpt lat="46.2896744" lon="13.0490016"><ele>264.0</ele><time>2026-04-19T09:32:22.174Z</time></trkpt><trkpt lat="46.2896403" lon="13.0491017"><ele>260.8</ele><time>2026-04-19T09:32:23.174Z</time></trkpt><trkpt lat="46.2896549" lon="13.0492596"><ele>257.59999999999997</ele><time>2026-04-19T09:32:25.174Z</time></trkpt><trkpt lat="46.2897555" lon="13.0493597"><ele>254.4</ele><time>2026-04-19T09:32:27.174Z</time></trkpt><trkpt lat="46.2897962" lon="13.0494403"><ele>251.2</ele><time>2026-04-19T09:32:28.174Z</time></trkpt><trkpt lat="46.2898573" lon="13.049534"><ele>248.0</ele><time>2026-04-19T09:32:29.173Z</time></trkpt><trkpt lat="46.2898466" lon="13.0497066"><ele>248.0</ele><time>2026-04-19T09:32:30.174Z</time></trkpt><trkpt lat="46.2898612" lon="13.0498454"><ele>248.0</ele><time>2026-04-19T09:32:31.174Z</time></trkpt><trkpt lat="46.2898817" lon="13.0499932"><ele>248.0</ele><time>2026-04-19T09:32:32.174Z</time></trkpt><trkpt lat="46.289903" lon="13.0501379"><ele>248.0</ele><time>2026-04-19T09:32:33.175Z</time></trkpt><trkpt lat="46.2899322" lon="13.0502741"><ele>248.0</ele><time>2026-04-19T09:32:34.175Z</time></trkpt><trkpt lat="46.2899687" lon="13.0504073"><ele>247.00000000000003</ele><time>2026-04-19T09:32:35.173Z</time></trkpt><trkpt lat="46.2900094" lon="13.0505286"><ele>246.0</ele><time>2026-04-19T09:32:36.174Z</time></trkpt><trkpt lat="46.2900572" lon="13.0506222"><ele>245.0</ele><time>2026-04-19T09:32:37.174Z</time></trkpt><trkpt lat="46.2901062" lon="13.0506974"><ele>244.0</ele><time>2026-04-19T09:32:38.174Z</time></trkpt><trkpt lat="46.2901736" lon="13.0507449"><ele>243.00000000000003</ele><time>2026-04-19T09:32:39.174Z</time></trkpt><trkpt lat="46.2902317" lon="13.0508015"><ele>242.0</ele><time>2026-04-19T09:32:40.174Z</time></trkpt><trkpt lat="46.2902837" lon="13.050864"><ele>242.0</ele><time>2026-04-19T09:32:41.173Z</time></trkpt><trkpt lat="46.2903235" lon="13.0509356"><ele>241.99999999999997</ele><time>2026-04-19T09:32:42.174Z</time></trkpt><trkpt lat="46.2903584" lon="13.0510324"><ele>242.0</ele><time>2026-04-19T09:32:43.174Z</time></trkpt><trkpt lat="46.2903801" lon="13.0511426"><ele>242.0</ele><time>2026-04-19T09:32:44.174Z</time></trkpt><trkpt lat="46.2903994" lon="13.051256"><ele>241.99999999999997</ele><time>2026-04-19T09:32:45.173Z</time></trkpt><trkpt lat="46.2904152" lon="13.0513673"><ele>242.0</ele><time>2026-04-19T09:32:46.173Z</time></trkpt><trkpt lat="46.2904182" lon="13.0514596"><ele>242.0</ele><time>2026-04-19T09:32:47.173Z</time></trkpt><trkpt lat="46.2904003" lon="13.0515495"><ele>242.00000000000003</ele><time>2026-04-19T09:32:48.174Z</time></trkpt><trkpt lat="46.2903601" lon="13.0516232"><ele>242.0</ele><time>2026-04-19T09:32:49.174Z</time></trkpt><trkpt lat="46.2903115" lon="13.0516968"><ele>242.0</ele><time>2026-04-19T09:32:50.174Z</time></trkpt><trkpt lat="46.2902312" lon="13.0517498"><ele>242.0</ele><time>2026-04-19T09:32:51.173Z</time></trkpt><trkpt lat="46.2901495" lon="13.0517979"><ele>242.00000000000003</ele><time>2026-04-19T09:32:52.174Z</time></trkpt><trkpt lat="46.2900536" lon="13.0518262"><ele>242.0</ele><time>2026-04-19T09:32:53.174Z</time></trkpt><trkpt lat="46.2899597" lon="13.0518332"><ele>242.33333333333334</ele><time>2026-04-19T09:32:54.175Z</time></trkpt><trkpt lat="46.2898735" lon="13.0518739"><ele>242.66666666666669</ele><time>2026-04-19T09:32:55.173Z</time></trkpt><trkpt lat="46.2897822" lon="13.0519304"><ele>243.0</ele><time>2026-04-19T09:32:56.174Z</time></trkpt><trkpt lat="46.2897366" lon="13.0520391"><ele>243.33333333333331</ele><time>2026-04-19T09:32:57.173Z</time></trkpt><trkpt lat="46.2896877" lon="13.0521348"><ele>243.66666666666666</ele><time>2026-04-19T09:32:58.174Z</time></trkpt><trkpt lat="46.289633" lon="13.0522081"><ele>244.0</ele><time>2026-04-19T09:32:59.173Z</time></trkpt><trkpt lat="46.2895756" lon="13.0522565"><ele>243.99999999999997</ele><time>2026-04-19T09:33:00.174Z</time></trkpt><trkpt lat="46.2894528" lon="13.0522189"><ele>244.0</ele><time>2026-04-19T09:33:02.173Z</time></trkpt><trkpt lat="46.2893925" lon="13.0521441"><ele>244.0</ele><time>2026-04-19T09:33:03.174Z</time></trkpt><trkpt lat="46.2893446" lon="13.0520746"><ele>244.0</ele><time>2026-04-19T09:33:04.174Z</time></trkpt><trkpt lat="46.2892534" lon="13.0520111"><ele>243.99999999999997</ele><time>2026-04-19T09:33:06.174Z</time></trkpt><trkpt lat="46.2892003" lon="13.052063"><ele>244.0</ele><time>2026-04-19T09:33:08.174Z</time></trkpt><trkpt lat="46.2892536" lon="13.0521816"><ele>243.99999999999997</ele><time>2026-04-19T09:33:09.174Z</time></trkpt><trkpt lat="46.2893032" lon="13.0522591"><ele>244.0</ele><time>2026-04-19T09:33:10.174Z</time></trkpt><trkpt lat="46.2893681" lon="13.0523428"><ele>243.99999999999997</ele><time>2026-04-19T09:33:11.174Z</time></trkpt><trkpt lat="46.2894197" lon="13.052419"><ele>243.99999999999997</ele><time>2026-04-19T09:33:12.174Z</time></trkpt><trkpt lat="46.2894791" lon="13.0524693"><ele>244.0</ele><time>2026-04-19T09:33:13.175Z</time></trkpt><trkpt lat="46.289539" lon="13.0525282"><ele>243.99999999999997</ele><time>2026-04-19T09:33:14.173Z</time></trkpt><trkpt lat="46.289609" lon="13.0525549"><ele>243.99999999999997</ele><time>2026-04-19T09:33:15.173Z</time></trkpt><trkpt lat="46.289719" lon="13.05256"><ele>241.0</ele><time>2026-04-19T09:33:16.173Z</time></trkpt><trkpt lat="46.2898208" lon="13.05245"><ele>237.99999999999997</ele><time>2026-04-19T09:33:17.174Z</time></trkpt><trkpt lat="46.2899233" lon="13.0524205"><ele>234.99999999999997</ele><time>2026-04-19T09:33:18.173Z</time></trkpt><trkpt lat="46.2900169" lon="13.052399"><ele>232.0</ele><time>2026-04-19T09:33:19.174Z</time></trkpt><trkpt lat="46.2901219" lon="13.0523771"><ele>229.0</ele><time>2026-04-19T09:33:20.174Z</time></trkpt><trkpt lat="46.2902153" lon="13.0523624"><ele>228.99999999999997</ele><time>2026-04-19T09:33:21.174Z</time></trkpt><trkpt lat="46.2903163" lon="13.0523479"><ele>229.0</ele><time>2026-04-19T09:33:22.175Z</time></trkpt><trkpt lat="46.2904008" lon="13.0523196"><ele>229.0</ele><time>2026-04-19T09:33:23.174Z</time></trkpt><trkpt lat="46.2904997" lon="13.0522776"><ele>229.0</ele><time>2026-04-19T09:33:24.174Z</time></trkpt><trkpt lat="46.2905715" lon="13.0522296"><ele>228.99999999999997</ele><time>2026-04-19T09:33:25.174Z</time></trkpt><trkpt lat="46.2906369" lon="13.0522026"><ele>229.0</ele><time>2026-04-19T09:33:26.174Z</time></trkpt><trkpt lat="46.2907069" lon="13.0521727"><ele>224.39999999999998</ele><time>2026-04-19T09:33:28.174Z</time></trkpt><trkpt lat="46.290677" lon="13.0523103"><ele>219.79999999999998</ele><time>2026-04-19T09:33:32.174Z</time></trkpt><trkpt lat="46.2905972" lon="13.0523913"><ele>215.2</ele><time>2026-04-19T09:33:33.174Z</time></trkpt><trkpt lat="46.2905148" lon="13.0524707"><ele>210.60000000000002</ele><time>2026-04-19T09:33:34.175Z</time></trkpt><trkpt lat="46.290416" lon="13.0525739"><ele>206.0</ele><time>2026-04-19T09:33:35.174Z</time></trkpt><trkpt lat="46.2903094" lon="13.0526697"><ele>206.0</ele><time>2026-04-19T09:33:36.174Z</time></trkpt><trkpt lat="46.2901994" lon="13.0527752"><ele>206.0</ele><time>2026-04-19T09:33:37.174Z</time></trkpt><trkpt lat="46.2900975" lon="13.0529173"><ele>206.0</ele><time>2026-04-19T09:33:38.173Z</time></trkpt><trkpt lat="46.2899916" lon="13.053073"><ele>206.0</ele><time>2026-04-19T09:33:39.174Z</time></trkpt><trkpt lat="46.2898771" lon="13.0532131"><ele>202.0</ele><time>2026-04-19T09:33:40.173Z</time></trkpt><trkpt lat="46.2897483" lon="13.0533398"><ele>198.0</ele><time>2026-04-19T09:33:41.174Z</time></trkpt><trkpt lat="46.2896155" lon="13.0534578"><ele>194.0</ele><time>2026-04-19T09:33:42.174Z</time></trkpt><trkpt lat="46.2894832" lon="13.0535482"><ele>194.0</ele><time>2026-04-19T09:33:43.173Z</time></trkpt><trkpt lat="46.2893572" lon="13.0536165"><ele>194.0</ele><time>2026-04-19T09:33:44.174Z</time></trkpt><trkpt lat="46.2892346" lon="13.0536617"><ele>194.0</ele><time>2026-04-19T09:33:45.174Z</time></trkpt><trkpt lat="46.2891148" lon="13.0536718"><ele>194.0</ele><time>2026-04-19T09:33:46.175Z</time></trkpt><trkpt lat="46.2889924" lon="13.0536411"><ele>200.25</ele><time>2026-04-19T09:33:47.173Z</time></trkpt><trkpt lat="46.2888728" lon="13.0535962"><ele>206.5</ele><time>2026-04-19T09:33:48.174Z</time></trkpt><trkpt lat="46.2887641" lon="13.0535446"><ele>212.75</ele><time>2026-04-19T09:33:49.174Z</time></trkpt><trkpt lat="46.2886505" lon="13.0535085"><ele>219.0</ele><time>2026-04-19T09:33:50.173Z</time></trkpt><trkpt lat="46.2885363" lon="13.0535134"><ele>219.0</ele><time>2026-04-19T09:33:51.174Z</time></trkpt><trkpt lat="46.2884259" lon="13.0535682"><ele>219.0</ele><time>2026-04-19T09:33:52.174Z</time></trkpt><trkpt lat="46.2883221" lon="13.0536629"><ele>219.0</ele><time>2026-04-19T09:33:53.173Z</time></trkpt><trkpt lat="46.2882297" lon="13.0537763"><ele>219.0</ele><time>2026-04-19T09:33:54.174Z</time></trkpt><trkpt lat="46.2881397" lon="13.0539108"><ele>219.0</ele><time>2026-04-19T09:33:55.174Z</time></trkpt><trkpt lat="46.2880495" lon="13.0540404"><ele>219.0</ele><time>2026-04-19T09:33:56.174Z</time></trkpt><trkpt lat="46.2879637" lon="13.0541686"><ele>219.0</ele><time>2026-04-19T09:33:57.174Z</time></trkpt><trkpt lat="46.2878846" lon="13.0542983"><ele>219.0</ele><time>2026-04-19T09:33:58.173Z</time></trkpt><trkpt lat="46.2878043" lon="13.0544249"><ele>213.79999999999998</ele><time>2026-04-19T09:33:59.174Z</time></trkpt><trkpt lat="46.2877258" lon="13.0545466"><ele>208.59999999999997</ele><time>2026-04-19T09:34:00.173Z</time></trkpt><trkpt lat="46.2876495" lon="13.0546651"><ele>203.4</ele><time>2026-04-19T09:34:01.174Z</time></trkpt><trkpt lat="46.2875772" lon="13.0547836"><ele>198.2</ele><time>2026-04-19T09:34:02.174Z</time></trkpt><trkpt lat="46.2875011" lon="13.0549047"><ele>193.0</ele><time>2026-04-19T09:34:03.174Z</time></trkpt><trkpt lat="46.287426" lon="13.0550286"><ele>190.75</ele><time>2026-04-19T09:34:04.173Z</time></trkpt><trkpt lat="46.2873509" lon="13.0551485"><ele>188.5</ele><time>2026-04-19T09:34:05.174Z</time></trkpt><trkpt lat="46.287276" lon="13.0552751"><ele>186.25</ele><time>2026-04-19T09:34:06.174Z</time></trkpt><trkpt lat="46.2871962" lon="13.0553978"><ele>184.0</ele><time>2026-04-19T09:34:07.174Z</time></trkpt><trkpt lat="46.2871145" lon="13.0555184"><ele>184.0</ele><time>2026-04-19T09:34:08.174Z</time></trkpt><trkpt lat="46.2870295" lon="13.0556364"><ele>184.0</ele><time>2026-04-19T09:34:09.174Z</time></trkpt><trkpt lat="46.2869436" lon="13.055758"><ele>184.0</ele><time>2026-04-19T09:34:10.174Z</time></trkpt><trkpt lat="46.2868555" lon="13.0558788"><ele>184.0</ele><time>2026-04-19T09:34:11.174Z</time></trkpt><trkpt lat="46.2867723" lon="13.0559969"><ele>184.2</ele><time>2026-04-19T09:34:12.174Z</time></trkpt><trkpt lat="46.2866952" lon="13.0561087"><ele>184.39999999999998</ele><time>2026-04-19T09:34:13.174Z</time></trkpt><trkpt lat="46.2866352" lon="13.0562282"><ele>184.6</ele><time>2026-04-19T09:34:14.173Z</time></trkpt><trkpt lat="46.2865904" lon="13.0563493"><ele>184.8</ele><time>2026-04-19T09:34:15.173Z</time></trkpt><trkpt lat="46.2865534" lon="13.0564721"><ele>185.0</ele><time>2026-04-19T09:34:16.174Z</time></trkpt><trkpt lat="46.2865121" lon="13.0565908"><ele>185.0</ele><time>2026-04-19T09:34:17.174Z</time></trkpt><trkpt lat="46.2864556" lon="13.0567061"><ele>185.0</ele><time>2026-04-19T09:34:18.174Z</time></trkpt><trkpt lat="46.2863933" lon="13.0568155"><ele>185.0</ele><time>2026-04-19T09:34:19.175Z</time></trkpt><trkpt lat="46.2863279" lon="13.0569224"><ele>185.0</ele><time>2026-04-19T09:34:20.174Z</time></trkpt><trkpt lat="46.2862547" lon="13.0570251"><ele>185.0</ele><time>2026-04-19T09:34:21.174Z</time></trkpt><trkpt lat="46.2861786" lon="13.0571165"><ele>185.4</ele><time>2026-04-19T09:34:22.173Z</time></trkpt><trkpt lat="46.286093" lon="13.0571934"><ele>185.8</ele><time>2026-04-19T09:34:23.174Z</time></trkpt><trkpt lat="46.2860017" lon="13.0572646"><ele>186.2</ele><time>2026-04-19T09:34:24.174Z</time></trkpt><trkpt lat="46.2859068" lon="13.0573208"><ele>186.6</ele><time>2026-04-19T09:34:25.173Z</time></trkpt><trkpt lat="46.2858086" lon="13.0573664"><ele>187.0</ele><time>2026-04-19T09:34:26.174Z</time></trkpt><trkpt lat="46.285716" lon="13.0574009"><ele>187.0</ele><time>2026-04-19T09:34:27.174Z</time></trkpt><trkpt lat="46.2856346" lon="13.0574405"><ele>187.0</ele><time>2026-04-19T09:34:28.175Z</time></trkpt><trkpt lat="46.285569" lon="13.0575168"><ele>187.0</ele><time>2026-04-19T09:34:29.175Z</time></trkpt><trkpt lat="46.2855246" lon="13.0576463"><ele>187.0</ele><time>2026-04-19T09:34:30.175Z</time></trkpt><trkpt lat="46.2855088" lon="13.0577916"><ele>187.0</ele><time>2026-04-19T09:34:31.173Z</time></trkpt><trkpt lat="46.2855103" lon="13.0579525"><ele>186.75</ele><time>2026-04-19T09:34:32.174Z</time></trkpt><trkpt lat="46.285507" lon="13.0581177"><ele>186.5</ele><time>2026-04-19T09:34:33.174Z</time></trkpt><trkpt lat="46.2855014" lon="13.0582828"><ele>186.25</ele><time>2026-04-19T09:34:34.173Z</time></trkpt><trkpt lat="46.2854909" lon="13.0584442"><ele>186.0</ele><time>2026-04-19T09:34:35.173Z</time></trkpt><trkpt lat="46.2854674" lon="13.0586078"><ele>185.0</ele><time>2026-04-19T09:34:36.175Z</time></trkpt><trkpt lat="46.2854376" lon="13.0587689"><ele>184.0</ele><time>2026-04-19T09:34:37.174Z</time></trkpt><trkpt lat="46.2854002" lon="13.0589238"><ele>183.0</ele><time>2026-04-19T09:34:38.174Z</time></trkpt><trkpt lat="46.2853656" lon="13.0590801"><ele>182.0</ele><time>2026-04-19T09:34:39.173Z</time></trkpt><trkpt lat="46.2853301" lon="13.059236"><ele>182.0</ele><time>2026-04-19T09:34:40.173Z</time></trkpt><trkpt lat="46.285297" lon="13.0593881"><ele>182.0</ele><time>2026-04-19T09:34:41.174Z</time></trkpt><trkpt lat="46.2852644" lon="13.0595363"><ele>182.0</ele><time>2026-04-19T09:34:42.174Z</time></trkpt><trkpt lat="46.2852386" lon="13.0596794"><ele>182.0</ele><time>2026-04-19T09:34:43.174Z</time></trkpt><trkpt lat="46.285218" lon="13.0598285"><ele>182.0</ele><time>2026-04-19T09:34:44.175Z</time></trkpt><trkpt lat="46.2852047" lon="13.0599864"><ele>182.39999999999998</ele><time>2026-04-19T09:34:45.174Z</time></trkpt><trkpt lat="46.285203" lon="13.0601493"><ele>182.79999999999998</ele><time>2026-04-19T09:34:46.174Z</time></trkpt><trkpt lat="46.2852099" lon="13.0603069"><ele>183.2</ele><time>2026-04-19T09:34:47.173Z</time></trkpt><trkpt lat="46.2852287" lon="13.0604663"><ele>183.6</ele><time>2026-04-19T09:34:48.172Z</time></trkpt><trkpt lat="46.2852473" lon="13.0606267"><ele>184.0</ele><time>2026-04-19T09:34:49.172Z</time></trkpt><trkpt lat="46.2852551" lon="13.0607848"><ele>184.0</ele><time>2026-04-19T09:34:50.173Z</time></trkpt><trkpt lat="46.2852498" lon="13.0609343"><ele>184.0</ele><time>2026-04-19T09:34:51.172Z</time></trkpt><trkpt lat="46.285239" lon="13.0610866"><ele>184.0</ele><time>2026-04-19T09:34:52.172Z</time></trkpt><trkpt lat="46.2852276" lon="13.061235"><ele>184.0</ele><time>2026-04-19T09:34:53.173Z</time></trkpt><trkpt lat="46.2852201" lon="13.0613896"><ele>184.0</ele><time>2026-04-19T09:34:54.174Z</time></trkpt><trkpt lat="46.2852101" lon="13.0615479"><ele>184.25</ele><time>2026-04-19T09:34:55.174Z</time></trkpt><trkpt lat="46.2851986" lon="13.0617048"><ele>184.5</ele><time>2026-04-19T09:34:56.173Z</time></trkpt><trkpt lat="46.2851958" lon="13.0618707"><ele>184.75</ele><time>2026-04-19T09:34:57.173Z</time></trkpt><trkpt lat="46.2852017" lon="13.0620365"><ele>185.0</ele><time>2026-04-19T09:34:58.173Z</time></trkpt><trkpt lat="46.2852207" lon="13.0622034"><ele>185.0</ele><time>2026-04-19T09:34:59.173Z</time></trkpt><trkpt lat="46.2852496" lon="13.0623748"><ele>185.0</ele><time>2026-04-19T09:35:00.172Z</time></trkpt><trkpt lat="46.2852941" lon="13.0625436"><ele>185.0</ele><time>2026-04-19T09:35:01.173Z</time></trkpt><trkpt lat="46.2853564" lon="13.0626975"><ele>185.0</ele><time>2026-04-19T09:35:02.173Z</time></trkpt><trkpt lat="46.2854359" lon="13.062835"><ele>185.4</ele><time>2026-04-19T09:35:03.173Z</time></trkpt><trkpt lat="46.2855187" lon="13.0629567"><ele>185.8</ele><time>2026-04-19T09:35:04.174Z</time></trkpt><trkpt lat="46.2855908" lon="13.0630761"><ele>186.2</ele><time>2026-04-19T09:35:05.172Z</time></trkpt><trkpt lat="46.2856413" lon="13.0631941"><ele>186.6</ele><time>2026-04-19T09:35:06.173Z</time></trkpt><trkpt lat="46.2856736" lon="13.0633128"><ele>187.0</ele><time>2026-04-19T09:35:07.172Z</time></trkpt><trkpt lat="46.2856768" lon="13.063476"><ele>187.2</ele><time>2026-04-19T09:35:09.174Z</time></trkpt><trkpt lat="46.2856173" lon="13.0636455"><ele>187.39999999999998</ele><time>2026-04-19T09:35:11.173Z</time></trkpt><trkpt lat="46.2855436" lon="13.0637352"><ele>187.60000000000002</ele><time>2026-04-19T09:35:12.172Z</time></trkpt><trkpt lat="46.2854654" lon="13.0638128"><ele>187.8</ele><time>2026-04-19T09:35:13.173Z</time></trkpt><trkpt lat="46.2853834" lon="13.0639002"><ele>188.0</ele><time>2026-04-19T09:35:14.173Z</time></trkpt><trkpt lat="46.2853027" lon="13.0639816"><ele>188.0</ele><time>2026-04-19T09:35:15.173Z</time></trkpt><trkpt lat="46.2852186" lon="13.0640657"><ele>188.0</ele><time>2026-04-19T09:35:16.173Z</time></trkpt><trkpt lat="46.2851315" lon="13.0641543"><ele>188.0</ele><time>2026-04-19T09:35:17.172Z</time></trkpt><trkpt lat="46.285052" lon="13.0642498"><ele>188.0</ele><time>2026-04-19T09:35:18.173Z</time></trkpt><trkpt lat="46.2849784" lon="13.0643564"><ele>188.0</ele><time>2026-04-19T09:35:19.173Z</time></trkpt><trkpt lat="46.284903" lon="13.0644707"><ele>187.75</ele><time>2026-04-19T09:35:20.172Z</time></trkpt><trkpt lat="46.2848298" lon="13.064595"><ele>187.5</ele><time>2026-04-19T09:35:21.173Z</time></trkpt><trkpt lat="46.2847634" lon="13.0647234"><ele>187.25</ele><time>2026-04-19T09:35:22.173Z</time></trkpt><trkpt lat="46.2847024" lon="13.0648594"><ele>187.0</ele><time>2026-04-19T09:35:23.173Z</time></trkpt><trkpt lat="46.2846398" lon="13.0650136"><ele>188.25</ele><time>2026-04-19T09:35:24.172Z</time></trkpt><trkpt lat="46.2845771" lon="13.0651742"><ele>189.5</ele><time>2026-04-19T09:35:25.173Z</time></trkpt><trkpt lat="46.2845056" lon="13.0653369"><ele>190.75</ele><time>2026-04-19T09:35:26.173Z</time></trkpt><trkpt lat="46.2844318" lon="13.0655054"><ele>192.0</ele><time>2026-04-19T09:35:27.172Z</time></trkpt><trkpt lat="46.284371" lon="13.0657049"><ele>192.0</ele><time>2026-04-19T09:35:28.172Z</time></trkpt><trkpt lat="46.2842998" lon="13.0659018"><ele>192.0</ele><time>2026-04-19T09:35:29.172Z</time></trkpt><trkpt lat="46.2842311" lon="13.0660946"><ele>192.0</ele><time>2026-04-19T09:35:30.173Z</time></trkpt><trkpt lat="46.2841617" lon="13.0662803"><ele>192.0</ele><time>2026-04-19T09:35:31.172Z</time></trkpt><trkpt lat="46.2840864" lon="13.06646"><ele>191.5</ele><time>2026-04-19T09:35:32.172Z</time></trkpt><trkpt lat="46.2840107" lon="13.0666407"><ele>191.0</ele><time>2026-04-19T09:35:33.172Z</time></trkpt><trkpt lat="46.2839334" lon="13.0668178"><ele>190.5</ele><time>2026-04-19T09:35:34.173Z</time></trkpt><trkpt lat="46.2838561" lon="13.0669935"><ele>190.0</ele><time>2026-04-19T09:35:35.173Z</time></trkpt><trkpt lat="46.283777" lon="13.0671683"><ele>190.0</ele><time>2026-04-19T09:35:36.173Z</time></trkpt><trkpt lat="46.2836989" lon="13.0673398"><ele>190.0</ele><time>2026-04-19T09:35:37.173Z</time></trkpt><trkpt lat="46.283621" lon="13.0675143"><ele>190.0</ele><time>2026-04-19T09:35:38.173Z</time></trkpt><trkpt lat="46.2835466" lon="13.0676936"><ele>190.0</ele><time>2026-04-19T09:35:39.172Z</time></trkpt><trkpt lat="46.28348" lon="13.0678807"><ele>190.75</ele><time>2026-04-19T09:35:40.173Z</time></trkpt><trkpt lat="46.2834199" lon="13.0680726"><ele>191.5</ele><time>2026-04-19T09:35:41.173Z</time></trkpt><trkpt lat="46.2833606" lon="13.0682674"><ele>192.25</ele><time>2026-04-19T09:35:42.174Z</time></trkpt><trkpt lat="46.2833144" lon="13.0684497"><ele>193.0</ele><time>2026-04-19T09:35:43.173Z</time></trkpt><trkpt lat="46.2832742" lon="13.0686296"><ele>193.4</ele><time>2026-04-19T09:35:44.173Z</time></trkpt><trkpt lat="46.2832409" lon="13.0687943"><ele>193.8</ele><time>2026-04-19T09:35:45.173Z</time></trkpt><trkpt lat="46.2832127" lon="13.0689481"><ele>194.2</ele><time>2026-04-19T09:35:46.173Z</time></trkpt><trkpt lat="46.2831822" lon="13.0690857"><ele>194.6</ele><time>2026-04-19T09:35:47.174Z</time></trkpt><trkpt lat="46.2831563" lon="13.0692075"><ele>195.0</ele><time>2026-04-19T09:35:48.173Z</time></trkpt><trkpt lat="46.283123" lon="13.0693109"><ele>194.8</ele><time>2026-04-19T09:35:49.173Z</time></trkpt><trkpt lat="46.2830808" lon="13.0694072"><ele>194.6</ele><time>2026-04-19T09:35:50.173Z</time></trkpt><trkpt lat="46.2830384" lon="13.0695092"><ele>194.39999999999998</ele><time>2026-04-19T09:35:51.173Z</time></trkpt><trkpt lat="46.2830234" lon="13.0696347"><ele>194.2</ele><time>2026-04-19T09:35:52.173Z</time></trkpt><trkpt lat="46.2830326" lon="13.0697873"><ele>194.0</ele><time>2026-04-19T09:35:53.173Z</time></trkpt><trkpt lat="46.2830267" lon="13.0699301"><ele>193.39999999999998</ele><time>2026-04-19T09:35:54.172Z</time></trkpt><trkpt lat="46.2830193" lon="13.0700803"><ele>192.8</ele><time>2026-04-19T09:35:55.172Z</time></trkpt><trkpt lat="46.283005" lon="13.0702332"><ele>192.2</ele><time>2026-04-19T09:35:56.172Z</time></trkpt><trkpt lat="46.2829863" lon="13.0703808"><ele>191.60000000000002</ele><time>2026-04-19T09:35:57.173Z</time></trkpt><trkpt lat="46.2829634" lon="13.0705331"><ele>191.0</ele><time>2026-04-19T09:35:58.172Z</time></trkpt><trkpt lat="46.2829445" lon="13.0706929"><ele>191.75</ele><time>2026-04-19T09:35:59.172Z</time></trkpt><trkpt lat="46.2829246" lon="13.0708555"><ele>192.5</ele><time>2026-04-19T09:36:00.174Z</time></trkpt><trkpt lat="46.2829039" lon="13.0710213"><ele>193.25</ele><time>2026-04-19T09:36:01.173Z</time></trkpt><trkpt lat="46.2828814" lon="13.0711852"><ele>194.0</ele><time>2026-04-19T09:36:02.172Z</time></trkpt><trkpt lat="46.2828598" lon="13.0713486"><ele>194.0</ele><time>2026-04-19T09:36:03.173Z</time></trkpt><trkpt lat="46.2828412" lon="13.071516"><ele>194.0</ele><time>2026-04-19T09:36:04.173Z</time></trkpt><trkpt lat="46.2828219" lon="13.0716874"><ele>194.0</ele><time>2026-04-19T09:36:05.173Z</time></trkpt><trkpt lat="46.2828018" lon="13.071857"><ele>194.0</ele><time>2026-04-19T09:36:06.173Z</time></trkpt><trkpt lat="46.2827811" lon="13.0720272"><ele>194.25</ele><time>2026-04-19T09:36:07.173Z</time></trkpt><trkpt lat="46.2827645" lon="13.0721997"><ele>194.5</ele><time>2026-04-19T09:36:08.173Z</time></trkpt><trkpt lat="46.2827507" lon="13.0723743"><ele>194.75</ele><time>2026-04-19T09:36:09.172Z</time></trkpt><trkpt lat="46.2827371" lon="13.0725488"><ele>195.0</ele><time>2026-04-19T09:36:10.173Z</time></trkpt><trkpt lat="46.2827235" lon="13.0727214"><ele>195.0</ele><time>2026-04-19T09:36:11.173Z</time></trkpt><trkpt lat="46.2827104" lon="13.0728946"><ele>195.0</ele><time>2026-04-19T09:36:12.173Z</time></trkpt><trkpt lat="46.2826978" lon="13.0730657"><ele>195.0</ele><time>2026-04-19T09:36:13.172Z</time></trkpt><trkpt lat="46.2826847" lon="13.0732398"><ele>195.0</ele><time>2026-04-19T09:36:14.174Z</time></trkpt><trkpt lat="46.2826735" lon="13.0734113"><ele>195.5</ele><time>2026-04-19T09:36:15.173Z</time></trkpt><trkpt lat="46.2826605" lon="13.0735825"><ele>196.0</ele><time>2026-04-19T09:36:16.173Z</time></trkpt><trkpt lat="46.2826499" lon="13.0737544"><ele>196.5</ele><time>2026-04-19T09:36:17.173Z</time></trkpt><trkpt lat="46.2826414" lon="13.0739245"><ele>197.0</ele><time>2026-04-19T09:36:18.173Z</time></trkpt><trkpt lat="46.2826359" lon="13.0740896"><ele>196.16666666666669</ele><time>2026-04-19T09:36:19.173Z</time></trkpt><trkpt lat="46.282635" lon="13.0742532"><ele>195.33333333333334</ele><time>2026-04-19T09:36:20.172Z</time></trkpt><trkpt lat="46.2826328" lon="13.0744077"><ele>194.5</ele><time>2026-04-19T09:36:21.173Z</time></trkpt><trkpt lat="46.2826227" lon="13.0745316"><ele>193.66666666666669</ele><time>2026-04-19T09:36:22.173Z</time></trkpt><trkpt lat="46.2826144" lon="13.0746331"><ele>192.83333333333334</ele><time>2026-04-19T09:36:23.173Z</time></trkpt><trkpt lat="46.2826011" lon="13.0747281"><ele>192.0</ele><time>2026-04-19T09:36:24.173Z</time></trkpt><trkpt lat="46.2825776" lon="13.0748389"><ele>192.6</ele><time>2026-04-19T09:36:25.173Z</time></trkpt><trkpt lat="46.2825377" lon="13.0749654"><ele>193.2</ele><time>2026-04-19T09:36:26.173Z</time></trkpt><trkpt lat="46.282481" lon="13.0751034"><ele>193.8</ele><time>2026-04-19T09:36:27.173Z</time></trkpt><trkpt lat="46.2824214" lon="13.0752271"><ele>194.4</ele><time>2026-04-19T09:36:28.173Z</time></trkpt><trkpt lat="46.2823567" lon="13.0753455"><ele>195.0</ele><time>2026-04-19T09:36:29.172Z</time></trkpt><trkpt lat="46.2822956" lon="13.0754616"><ele>194.4</ele><time>2026-04-19T09:36:30.174Z</time></trkpt><trkpt lat="46.2822389" lon="13.0755762"><ele>193.8</ele><time>2026-04-19T09:36:31.174Z</time></trkpt><trkpt lat="46.2821893" lon="13.075695"><ele>193.2</ele><time>2026-04-19T09:36:32.173Z</time></trkpt><trkpt lat="46.2821463" lon="13.0758182"><ele>192.6</ele><time>2026-04-19T09:36:33.173Z</time></trkpt><trkpt lat="46.2821033" lon="13.0759475"><ele>192.0</ele><time>2026-04-19T09:36:34.173Z</time></trkpt><trkpt lat="46.282065" lon="13.0760847"><ele>192.0</ele><time>2026-04-19T09:36:35.173Z</time></trkpt><trkpt lat="46.2820253" lon="13.0762233"><ele>192.0</ele><time>2026-04-19T09:36:36.173Z</time></trkpt><trkpt lat="46.2819862" lon="13.076364"><ele>192.0</ele><time>2026-04-19T09:36:37.172Z</time></trkpt><trkpt lat="46.281955" lon="13.076512"><ele>192.0</ele><time>2026-04-19T09:36:38.173Z</time></trkpt><trkpt lat="46.2819254" lon="13.0766656"><ele>192.0</ele><time>2026-04-19T09:36:39.173Z</time></trkpt><trkpt lat="46.2818955" lon="13.0768247"><ele>192.25</ele><time>2026-04-19T09:36:40.173Z</time></trkpt><trkpt lat="46.2818669" lon="13.0769857"><ele>192.5</ele><time>2026-04-19T09:36:41.173Z</time></trkpt><trkpt lat="46.2818372" lon="13.0771518"><ele>192.75</ele><time>2026-04-19T09:36:42.173Z</time></trkpt><trkpt lat="46.2818089" lon="13.0773197"><ele>193.0</ele><time>2026-04-19T09:36:43.172Z</time></trkpt><trkpt lat="46.2817817" lon="13.0774824"><ele>193.25</ele><time>2026-04-19T09:36:44.173Z</time></trkpt><trkpt lat="46.2817573" lon="13.0776493"><ele>193.5</ele><time>2026-04-19T09:36:45.173Z</time></trkpt><trkpt lat="46.2817327" lon="13.0778167"><ele>193.75</ele><time>2026-04-19T09:36:46.173Z</time></trkpt><trkpt lat="46.2817055" lon="13.0779849"><ele>194.0</ele><time>2026-04-19T09:36:47.172Z</time></trkpt><trkpt lat="46.2816768" lon="13.0781554"><ele>194.0</ele><time>2026-04-19T09:36:48.173Z</time></trkpt><trkpt lat="46.2816485" lon="13.0783278"><ele>194.0</ele><time>2026-04-19T09:36:49.173Z</time></trkpt><trkpt lat="46.281615" lon="13.0784987"><ele>194.0</ele><time>2026-04-19T09:36:50.173Z</time></trkpt><trkpt lat="46.2815823" lon="13.0786725"><ele>194.0</ele><time>2026-04-19T09:36:51.174Z</time></trkpt><trkpt lat="46.2815432" lon="13.0788429"><ele>194.0</ele><time>2026-04-19T09:36:52.172Z</time></trkpt><trkpt lat="46.2815016" lon="13.0790096"><ele>194.0</ele><time>2026-04-19T09:36:53.173Z</time></trkpt><trkpt lat="46.2814606" lon="13.0791796"><ele>194.0</ele><time>2026-04-19T09:36:54.173Z</time></trkpt><trkpt lat="46.2814198" lon="13.0793491"><ele>194.0</ele><time>2026-04-19T09:36:55.173Z</time></trkpt><trkpt lat="46.2813763" lon="13.0795137"><ele>193.0</ele><time>2026-04-19T09:36:56.173Z</time></trkpt><trkpt lat="46.2813367" lon="13.0796809"><ele>192.0</ele><time>2026-04-19T09:36:57.173Z</time></trkpt><trkpt lat="46.2813011" lon="13.0798491"><ele>191.0</ele><time>2026-04-19T09:36:58.172Z</time></trkpt><trkpt lat="46.2812696" lon="13.0800189"><ele>190.0</ele><time>2026-04-19T09:36:59.173Z</time></trkpt><trkpt lat="46.2812434" lon="13.080187"><ele>190.0</ele><time>2026-04-19T09:37:00.174Z</time></trkpt><trkpt lat="46.2812277" lon="13.0803591"><ele>190.0</ele><time>2026-04-19T09:37:01.173Z</time></trkpt><trkpt lat="46.281217" lon="13.0805338"><ele>190.0</ele><time>2026-04-19T09:37:02.173Z</time></trkpt><trkpt lat="46.2812104" lon="13.0807091"><ele>190.0</ele><time>2026-04-19T09:37:03.173Z</time></trkpt><trkpt lat="46.2812029" lon="13.0808891"><ele>191.0</ele><time>2026-04-19T09:37:04.173Z</time></trkpt><trkpt lat="46.2811923" lon="13.0810642"><ele>192.0</ele><time>2026-04-19T09:37:05.173Z</time></trkpt><trkpt lat="46.2811839" lon="13.0812342"><ele>193.0</ele><time>2026-04-19T09:37:06.172Z</time></trkpt><trkpt lat="46.2811749" lon="13.0813927"><ele>194.0</ele><time>2026-04-19T09:37:07.173Z</time></trkpt><trkpt lat="46.2811528" lon="13.081532"><ele>195.0</ele><time>2026-04-19T09:37:08.173Z</time></trkpt><trkpt lat="46.2811141" lon="13.0816514"><ele>195.8</ele><time>2026-04-19T09:37:09.173Z</time></trkpt><trkpt lat="46.2810851" lon="13.0817565"><ele>196.6</ele><time>2026-04-19T09:37:10.172Z</time></trkpt><trkpt lat="46.2810895" lon="13.0818595"><ele>197.39999999999998</ele><time>2026-04-19T09:37:11.172Z</time></trkpt><trkpt lat="46.281128" lon="13.0819619"><ele>198.2</ele><time>2026-04-19T09:37:12.173Z</time></trkpt><trkpt lat="46.2812009" lon="13.082065"><ele>199.0</ele><time>2026-04-19T09:37:13.172Z</time></trkpt><trkpt lat="46.2812738" lon="13.0822144"><ele>199.0</ele><time>2026-04-19T09:37:14.174Z</time></trkpt><trkpt lat="46.2813334" lon="13.0823833"><ele>199.0</ele><time>2026-04-19T09:37:15.172Z</time></trkpt><trkpt lat="46.2813875" lon="13.0825927"><ele>199.0</ele><time>2026-04-19T09:37:16.173Z</time></trkpt><trkpt lat="46.2814318" lon="13.0827905"><ele>199.0</ele><time>2026-04-19T09:37:17.172Z</time></trkpt><trkpt lat="46.2814787" lon="13.0829887"><ele>203.0</ele><time>2026-04-19T09:37:18.173Z</time></trkpt><trkpt lat="46.2815222" lon="13.0831857"><ele>207.0</ele><time>2026-04-19T09:37:19.172Z</time></trkpt><trkpt lat="46.2815635" lon="13.0833757"><ele>211.0</ele><time>2026-04-19T09:37:20.173Z</time></trkpt><trkpt lat="46.281606" lon="13.0835679"><ele>215.0</ele><time>2026-04-19T09:37:21.173Z</time></trkpt><trkpt lat="46.2816452" lon="13.0837621"><ele>215.0</ele><time>2026-04-19T09:37:22.172Z</time></trkpt><trkpt lat="46.2816789" lon="13.0839613"><ele>215.0</ele><time>2026-04-19T09:37:23.172Z</time></trkpt><trkpt lat="46.2817052" lon="13.0841678"><ele>215.0</ele><time>2026-04-19T09:37:24.173Z</time></trkpt><trkpt lat="46.2817253" lon="13.0843795"><ele>215.0</ele><time>2026-04-19T09:37:25.173Z</time></trkpt><trkpt lat="46.2817374" lon="13.084588"><ele>213.5</ele><time>2026-04-19T09:37:26.172Z</time></trkpt><trkpt lat="46.2817564" lon="13.0848049"><ele>212.0</ele><time>2026-04-19T09:37:27.173Z</time></trkpt><trkpt lat="46.2817749" lon="13.0850213"><ele>210.5</ele><time>2026-04-19T09:37:28.173Z</time></trkpt><trkpt lat="46.2817904" lon="13.0852316"><ele>209.0</ele><time>2026-04-19T09:37:29.172Z</time></trkpt><trkpt lat="46.2818057" lon="13.0854429"><ele>207.75</ele><time>2026-04-19T09:37:30.173Z</time></trkpt><trkpt lat="46.2818225" lon="13.0856534"><ele>206.5</ele><time>2026-04-19T09:37:31.173Z</time></trkpt><trkpt lat="46.28184" lon="13.0858649"><ele>205.25</ele><time>2026-04-19T09:37:32.173Z</time></trkpt><trkpt lat="46.2818554" lon="13.086075"><ele>204.0</ele><time>2026-04-19T09:37:33.173Z</time></trkpt><trkpt lat="46.2818714" lon="13.0862821"><ele>202.25</ele><time>2026-04-19T09:37:34.173Z</time></trkpt><trkpt lat="46.2818869" lon="13.0864896"><ele>200.5</ele><time>2026-04-19T09:37:35.173Z</time></trkpt><trkpt lat="46.2819043" lon="13.086694"><ele>198.75</ele><time>2026-04-19T09:37:36.173Z</time></trkpt><trkpt lat="46.2819251" lon="13.086894"><ele>197.0</ele><time>2026-04-19T09:37:37.172Z</time></trkpt><trkpt lat="46.281956" lon="13.0870848"><ele>196.75</ele><time>2026-04-19T09:37:38.172Z</time></trkpt><trkpt lat="46.2819938" lon="13.087271"><ele>196.5</ele><time>2026-04-19T09:37:39.173Z</time></trkpt><trkpt lat="46.2820391" lon="13.0874575"><ele>196.25</ele><time>2026-04-19T09:37:40.173Z</time></trkpt><trkpt lat="46.2820865" lon="13.0876399"><ele>196.0</ele><time>2026-04-19T09:37:41.172Z</time></trkpt><trkpt lat="46.2821367" lon="13.087817"><ele>196.0</ele><time>2026-04-19T09:37:42.173Z</time></trkpt><trkpt lat="46.282192" lon="13.0879956"><ele>196.0</ele><time>2026-04-19T09:37:43.172Z</time></trkpt><trkpt lat="46.2822483" lon="13.0881724"><ele>196.0</ele><time>2026-04-19T09:37:44.171Z</time></trkpt><trkpt lat="46.2823029" lon="13.0883489"><ele>196.0</ele><time>2026-04-19T09:37:45.171Z</time></trkpt><trkpt lat="46.2823569" lon="13.0885274"><ele>196.0</ele><time>2026-04-19T09:37:46.171Z</time></trkpt><trkpt lat="46.2824069" lon="13.0887053"><ele>196.0</ele><time>2026-04-19T09:37:47.172Z</time></trkpt><trkpt lat="46.2824587" lon="13.0888866"><ele>196.0</ele><time>2026-04-19T09:37:48.172Z</time></trkpt><trkpt lat="46.2825092" lon="13.0890673"><ele>196.0</ele><time>2026-04-19T09:37:49.173Z</time></trkpt><trkpt lat="46.2825618" lon="13.0892456"><ele>196.5</ele><time>2026-04-19T09:37:50.172Z</time></trkpt><trkpt lat="46.2826168" lon="13.0894237"><ele>197.0</ele><time>2026-04-19T09:37:51.173Z</time></trkpt><trkpt lat="46.282672" lon="13.0895976"><ele>197.5</ele><time>2026-04-19T09:37:52.172Z</time></trkpt><trkpt lat="46.2827255" lon="13.0897707"><ele>198.0</ele><time>2026-04-19T09:37:53.172Z</time></trkpt><trkpt lat="46.2827801" lon="13.0899396"><ele>198.0</ele><time>2026-04-19T09:37:54.172Z</time></trkpt><trkpt lat="46.2828369" lon="13.0901034"><ele>198.0</ele><time>2026-04-19T09:37:55.172Z</time></trkpt><trkpt lat="46.2828985" lon="13.090263"><ele>198.0</ele><time>2026-04-19T09:37:56.171Z</time></trkpt><trkpt lat="46.2829608" lon="13.0904227"><ele>198.0</ele><time>2026-04-19T09:37:57.171Z</time></trkpt><trkpt lat="46.2830241" lon="13.0905808"><ele>198.0</ele><time>2026-04-19T09:37:58.171Z</time></trkpt><trkpt lat="46.2830886" lon="13.0907379"><ele>198.0</ele><time>2026-04-19T09:37:59.172Z</time></trkpt><trkpt lat="46.2831558" lon="13.0908874"><ele>198.0</ele><time>2026-04-19T09:38:00.173Z</time></trkpt><trkpt lat="46.2832317" lon="13.0910295"><ele>198.0</ele><time>2026-04-19T09:38:01.172Z</time></trkpt><trkpt lat="46.2833154" lon="13.0911599"><ele>198.2</ele><time>2026-04-19T09:38:02.173Z</time></trkpt><trkpt lat="46.2834034" lon="13.0912799"><ele>198.4</ele><time>2026-04-19T09:38:03.171Z</time></trkpt><trkpt lat="46.2834908" lon="13.0913784"><ele>198.6</ele><time>2026-04-19T09:38:04.172Z</time></trkpt><trkpt lat="46.2835681" lon="13.0914585"><ele>198.79999999999998</ele><time>2026-04-19T09:38:05.172Z</time></trkpt><trkpt lat="46.2836292" lon="13.0915397"><ele>199.0</ele><time>2026-04-19T09:38:06.172Z</time></trkpt><trkpt lat="46.2836667" lon="13.0916387"><ele>199.16666666666666</ele><time>2026-04-19T09:38:07.173Z</time></trkpt><trkpt lat="46.2836843" lon="13.0917462"><ele>199.33333333333331</ele><time>2026-04-19T09:38:08.172Z</time></trkpt><trkpt lat="46.2836881" lon="13.0918485"><ele>199.5</ele><time>2026-04-19T09:38:09.172Z</time></trkpt><trkpt lat="46.2836683" lon="13.0919369"><ele>199.66666666666669</ele><time>2026-04-19T09:38:10.172Z</time></trkpt><trkpt lat="46.283621" lon="13.0920224"><ele>199.83333333333334</ele><time>2026-04-19T09:38:11.172Z</time></trkpt><trkpt lat="46.283555" lon="13.0921163"><ele>200.0</ele><time>2026-04-19T09:38:12.172Z</time></trkpt><trkpt lat="46.2834909" lon="13.092219"><ele>200.0</ele><time>2026-04-19T09:38:13.172Z</time></trkpt><trkpt lat="46.283426" lon="13.0923254"><ele>200.0</ele><time>2026-04-19T09:38:14.173Z</time></trkpt><trkpt lat="46.2833514" lon="13.0924475"><ele>200.0</ele><time>2026-04-19T09:38:15.172Z</time></trkpt><trkpt lat="46.2832687" lon="13.0925893"><ele>200.0</ele><time>2026-04-19T09:38:16.172Z</time></trkpt><trkpt lat="46.2831792" lon="13.0927405"><ele>199.0</ele><time>2026-04-19T09:38:17.172Z</time></trkpt><trkpt lat="46.2830828" lon="13.0928858"><ele>198.0</ele><time>2026-04-19T09:38:18.172Z</time></trkpt><trkpt lat="46.2829784" lon="13.0930279"><ele>197.0</ele><time>2026-04-19T09:38:19.172Z</time></trkpt><trkpt lat="46.2828713" lon="13.0931811"><ele>196.0</ele><time>2026-04-19T09:38:20.172Z</time></trkpt><trkpt lat="46.28277" lon="13.0933414"><ele>196.0</ele><time>2026-04-19T09:38:21.172Z</time></trkpt><trkpt lat="46.2826675" lon="13.0935007"><ele>196.0</ele><time>2026-04-19T09:38:22.172Z</time></trkpt><trkpt lat="46.2825631" lon="13.0936579"><ele>196.0</ele><time>2026-04-19T09:38:23.173Z</time></trkpt><trkpt lat="46.2824619" lon="13.0938111"><ele>196.0</ele><time>2026-04-19T09:38:24.172Z</time></trkpt><trkpt lat="46.2823608" lon="13.0939618"><ele>196.25</ele><time>2026-04-19T09:38:25.172Z</time></trkpt><trkpt lat="46.2822611" lon="13.0941148"><ele>196.5</ele><time>2026-04-19T09:38:26.172Z</time></trkpt><trkpt lat="46.2821606" lon="13.094267"><ele>196.75</ele><time>2026-04-19T09:38:27.171Z</time></trkpt><trkpt lat="46.2820616" lon="13.0944201"><ele>197.0</ele><time>2026-04-19T09:38:28.172Z</time></trkpt><trkpt lat="46.2819653" lon="13.0945747"><ele>197.0</ele><time>2026-04-19T09:38:29.172Z</time></trkpt><trkpt lat="46.2818689" lon="13.094726"><ele>197.0</ele><time>2026-04-19T09:38:30.172Z</time></trkpt><trkpt lat="46.2817723" lon="13.0948757"><ele>197.0</ele><time>2026-04-19T09:38:31.172Z</time></trkpt><trkpt lat="46.2816841" lon="13.0950169"><ele>197.0</ele><time>2026-04-19T09:38:32.172Z</time></trkpt><trkpt lat="46.281599" lon="13.095144"><ele>197.2</ele><time>2026-04-19T09:38:33.172Z</time></trkpt><trkpt lat="46.2815201" lon="13.095265"><ele>197.39999999999998</ele><time>2026-04-19T09:38:34.172Z</time></trkpt><trkpt lat="46.2814495" lon="13.0953663"><ele>197.60000000000002</ele><time>2026-04-19T09:38:35.172Z</time></trkpt><trkpt lat="46.2813898" lon="13.0954658"><ele>197.8</ele><time>2026-04-19T09:38:36.172Z</time></trkpt><trkpt lat="46.2813469" lon="13.0955687"><ele>198.0</ele><time>2026-04-19T09:38:37.172Z</time></trkpt><trkpt lat="46.2813258" lon="13.0956798"><ele>198.2</ele><time>2026-04-19T09:38:38.171Z</time></trkpt><trkpt lat="46.2813268" lon="13.0958052"><ele>198.4</ele><time>2026-04-19T09:38:39.172Z</time></trkpt><trkpt lat="46.2813574" lon="13.0959414"><ele>198.6</ele><time>2026-04-19T09:38:40.173Z</time></trkpt><trkpt lat="46.2814113" lon="13.0960689"><ele>198.79999999999998</ele><time>2026-04-19T09:38:41.172Z</time></trkpt><trkpt lat="46.2814734" lon="13.0962092"><ele>199.0</ele><time>2026-04-19T09:38:42.172Z</time></trkpt><trkpt lat="46.2815312" lon="13.0963615"><ele>199.0</ele><time>2026-04-19T09:38:43.171Z</time></trkpt><trkpt lat="46.2815943" lon="13.0965251"><ele>199.0</ele><time>2026-04-19T09:38:44.171Z</time></trkpt><trkpt lat="46.2816627" lon="13.0966851"><ele>199.0</ele><time>2026-04-19T09:38:45.172Z</time></trkpt><trkpt lat="46.2817387" lon="13.0968477"><ele>199.0</ele><time>2026-04-19T09:38:46.171Z</time></trkpt><trkpt lat="46.2818202" lon="13.0970107"><ele>199.25</ele><time>2026-04-19T09:38:47.172Z</time></trkpt><trkpt lat="46.2818988" lon="13.0971825"><ele>199.5</ele><time>2026-04-19T09:38:48.172Z</time></trkpt><trkpt lat="46.2819662" lon="13.0973547"><ele>199.75</ele><time>2026-04-19T09:38:49.172Z</time></trkpt><trkpt lat="46.2820318" lon="13.0975326"><ele>200.0</ele><time>2026-04-19T09:38:50.172Z</time></trkpt><trkpt lat="46.2820908" lon="13.0977111"><ele>199.5</ele><time>2026-04-19T09:38:51.172Z</time></trkpt><trkpt lat="46.282152" lon="13.0978899"><ele>199.0</ele><time>2026-04-19T09:38:52.171Z</time></trkpt><trkpt lat="46.2822109" lon="13.0980745"><ele>198.5</ele><time>2026-04-19T09:38:53.172Z</time></trkpt><trkpt lat="46.2822629" lon="13.0982596"><ele>198.0</ele><time>2026-04-19T09:38:54.172Z</time></trkpt><trkpt lat="46.2823077" lon="13.0984493"><ele>197.75</ele><time>2026-04-19T09:38:55.171Z</time></trkpt><trkpt lat="46.2823469" lon="13.0986438"><ele>197.5</ele><time>2026-04-19T09:38:56.171Z</time></trkpt><trkpt lat="46.282379" lon="13.0988351"><ele>197.25</ele><time>2026-04-19T09:38:57.173Z</time></trkpt><trkpt lat="46.2824012" lon="13.0990307"><ele>197.0</ele><time>2026-04-19T09:38:58.172Z</time></trkpt><trkpt lat="46.282414" lon="13.0992293"><ele>197.0</ele><time>2026-04-19T09:38:59.171Z</time></trkpt><trkpt lat="46.2824206" lon="13.0994278"><ele>197.0</ele><time>2026-04-19T09:39:00.171Z</time></trkpt><trkpt lat="46.2824203" lon="13.0996313"><ele>197.0</ele><time>2026-04-19T09:39:01.172Z</time></trkpt><trkpt lat="46.2824099" lon="13.0998344"><ele>197.0</ele><time>2026-04-19T09:39:02.172Z</time></trkpt><trkpt lat="46.2823927" lon="13.1000429"><ele>197.25</ele><time>2026-04-19T09:39:03.172Z</time></trkpt><trkpt lat="46.2823723" lon="13.1002482"><ele>197.5</ele><time>2026-04-19T09:39:04.172Z</time></trkpt><trkpt lat="46.2823475" lon="13.1004505"><ele>197.75</ele><time>2026-04-19T09:39:05.172Z</time></trkpt><trkpt lat="46.2823202" lon="13.100647"><ele>198.0</ele><time>2026-04-19T09:39:06.172Z</time></trkpt><trkpt lat="46.2822905" lon="13.1008356"><ele>198.0</ele><time>2026-04-19T09:39:07.171Z</time></trkpt><trkpt lat="46.2822607" lon="13.1010131"><ele>198.0</ele><time>2026-04-19T09:39:08.172Z</time></trkpt><trkpt lat="46.2822301" lon="13.1011827"><ele>198.0</ele><time>2026-04-19T09:39:09.173Z</time></trkpt><trkpt lat="46.2822033" lon="13.1013492"><ele>198.0</ele><time>2026-04-19T09:39:10.171Z</time></trkpt><trkpt lat="46.2821778" lon="13.1015204"><ele>197.75</ele><time>2026-04-19T09:39:11.171Z</time></trkpt><trkpt lat="46.2821542" lon="13.1016896"><ele>197.5</ele><time>2026-04-19T09:39:12.171Z</time></trkpt><trkpt lat="46.282128" lon="13.1018561"><ele>197.25</ele><time>2026-04-19T09:39:13.172Z</time></trkpt><trkpt lat="46.2820995" lon="13.1020216"><ele>197.0</ele><time>2026-04-19T09:39:14.172Z</time></trkpt><trkpt lat="46.282072" lon="13.102188"><ele>197.0</ele><time>2026-04-19T09:39:15.172Z</time></trkpt><trkpt lat="46.282045" lon="13.1023557"><ele>197.0</ele><time>2026-04-19T09:39:16.171Z</time></trkpt><trkpt lat="46.2820173" lon="13.102527"><ele>197.0</ele><time>2026-04-19T09:39:17.171Z</time></trkpt><trkpt lat="46.2819894" lon="13.1027021"><ele>197.0</ele><time>2026-04-19T09:39:18.171Z</time></trkpt><trkpt lat="46.2819638" lon="13.1028776"><ele>196.75</ele><time>2026-04-19T09:39:19.172Z</time></trkpt><trkpt lat="46.2819375" lon="13.1030571"><ele>196.5</ele><time>2026-04-19T09:39:20.172Z</time></trkpt><trkpt lat="46.2819161" lon="13.1032328"><ele>196.25</ele><time>2026-04-19T09:39:21.172Z</time></trkpt><trkpt lat="46.2818896" lon="13.1033925"><ele>196.0</ele><time>2026-04-19T09:39:22.172Z</time></trkpt><trkpt lat="46.2818634" lon="13.1035526"><ele>196.0</ele><time>2026-04-19T09:39:23.172Z</time></trkpt><trkpt lat="46.2818373" lon="13.1037139"><ele>196.0</ele><time>2026-04-19T09:39:24.172Z</time></trkpt><trkpt lat="46.2818127" lon="13.1038707"><ele>196.0</ele><time>2026-04-19T09:39:25.172Z</time></trkpt><trkpt lat="46.2817931" lon="13.104026"><ele>196.0</ele><time>2026-04-19T09:39:26.171Z</time></trkpt><trkpt lat="46.2817685" lon="13.1041751"><ele>196.0</ele><time>2026-04-19T09:39:27.171Z</time></trkpt><trkpt lat="46.2817427" lon="13.1043225"><ele>196.0</ele><time>2026-04-19T09:39:28.171Z</time></trkpt><trkpt lat="46.2817183" lon="13.1044635"><ele>196.0</ele><time>2026-04-19T09:39:29.172Z</time></trkpt><trkpt lat="46.2816968" lon="13.1045957"><ele>196.0</ele><time>2026-04-19T09:39:30.171Z</time></trkpt><trkpt lat="46.2816749" lon="13.1047254"><ele>196.0</ele><time>2026-04-19T09:39:31.173Z</time></trkpt><trkpt lat="46.2816534" lon="13.1048538"><ele>196.0</ele><time>2026-04-19T09:39:32.172Z</time></trkpt><trkpt lat="46.2816347" lon="13.1049755"><ele>196.20000000000002</ele><time>2026-04-19T09:39:33.172Z</time></trkpt><trkpt lat="46.2816144" lon="13.1050943"><ele>196.4</ele><time>2026-04-19T09:39:34.172Z</time></trkpt><trkpt lat="46.2815968" lon="13.1052075"><ele>196.6</ele><time>2026-04-19T09:39:35.173Z</time></trkpt><trkpt lat="46.2815774" lon="13.1053355"><ele>196.8</ele><time>2026-04-19T09:39:36.172Z</time></trkpt><trkpt lat="46.2815532" lon="13.1054748"><ele>197.0</ele><time>2026-04-19T09:39:37.172Z</time></trkpt><trkpt lat="46.2815334" lon="13.1056151"><ele>197.0</ele><time>2026-04-19T09:39:38.172Z</time></trkpt><trkpt lat="46.2815109" lon="13.1057541"><ele>197.0</ele><time>2026-04-19T09:39:39.172Z</time></trkpt><trkpt lat="46.2814874" lon="13.1058948"><ele>197.0</ele><time>2026-04-19T09:39:40.172Z</time></trkpt><trkpt lat="46.2814651" lon="13.1060386"><ele>197.0</ele><time>2026-04-19T09:39:41.173Z</time></trkpt><trkpt lat="46.281444" lon="13.1061861"><ele>197.0</ele><time>2026-04-19T09:39:42.172Z</time></trkpt><trkpt lat="46.2814217" lon="13.1063386"><ele>196.5</ele><time>2026-04-19T09:39:43.172Z</time></trkpt><trkpt lat="46.2814034" lon="13.1064957"><ele>196.0</ele><time>2026-04-19T09:39:44.172Z</time></trkpt><trkpt lat="46.2813823" lon="13.1066584"><ele>195.5</ele><time>2026-04-19T09:39:45.172Z</time></trkpt><trkpt lat="46.281357" lon="13.1068222"><ele>195.0</ele><time>2026-04-19T09:39:46.172Z</time></trkpt><trkpt lat="46.2813304" lon="13.1069883"><ele>195.0</ele><time>2026-04-19T09:39:47.172Z</time></trkpt><trkpt lat="46.2813045" lon="13.1071341"><ele>195.0</ele><time>2026-04-19T09:39:48.172Z</time></trkpt><trkpt lat="46.2812813" lon="13.1072727"><ele>195.0</ele><time>2026-04-19T09:39:49.172Z</time></trkpt><trkpt lat="46.2812619" lon="13.10741"><ele>195.0</ele><time>2026-04-19T09:39:50.171Z</time></trkpt><trkpt lat="46.2812391" lon="13.1075478"><ele>195.0</ele><time>2026-04-19T09:39:51.171Z</time></trkpt><trkpt lat="46.2812169" lon="13.1076834"><ele>195.2</ele><time>2026-04-19T09:39:52.172Z</time></trkpt><trkpt lat="46.2811919" lon="13.1078202"><ele>195.4</ele><time>2026-04-19T09:39:53.172Z</time></trkpt><trkpt lat="46.2811695" lon="13.107952"><ele>195.60000000000002</ele><time>2026-04-19T09:39:54.172Z</time></trkpt><trkpt lat="46.2811495" lon="13.1080889"><ele>195.8</ele><time>2026-04-19T09:39:55.171Z</time></trkpt><trkpt lat="46.2811241" lon="13.1082278"><ele>196.0</ele><time>2026-04-19T09:39:56.171Z</time></trkpt><trkpt lat="46.2810997" lon="13.1083626"><ele>196.16666666666666</ele><time>2026-04-19T09:39:57.171Z</time></trkpt><trkpt lat="46.2810823" lon="13.1084991"><ele>196.33333333333331</ele><time>2026-04-19T09:39:58.172Z</time></trkpt><trkpt lat="46.2810613" lon="13.1086206"><ele>196.5</ele><time>2026-04-19T09:39:59.172Z</time></trkpt><trkpt lat="46.2810443" lon="13.1087462"><ele>196.66666666666669</ele><time>2026-04-19T09:40:00.173Z</time></trkpt><trkpt lat="46.2810281" lon="13.1088458"><ele>196.83333333333334</ele><time>2026-04-19T09:40:01.172Z</time></trkpt><trkpt lat="46.2810056" lon="13.1089774"><ele>197.0</ele><time>2026-04-19T09:40:03.171Z</time></trkpt><trkpt lat="46.2809886" lon="13.1091277"><ele>197.0</ele><time>2026-04-19T09:41:18.171Z</time></trkpt><trkpt lat="46.280975" lon="13.1092241"><ele>197.0</ele><time>2026-04-19T09:41:19.171Z</time></trkpt><trkpt lat="46.2809566" lon="13.109319"><ele>197.0</ele><time>2026-04-19T09:41:20.171Z</time></trkpt><trkpt lat="46.2809388" lon="13.1094078"><ele>197.0</ele><time>2026-04-19T09:41:21.17Z</time></trkpt><trkpt lat="46.2809207" lon="13.1095009"><ele>197.0</ele><time>2026-04-19T09:41:22.171Z</time></trkpt><trkpt lat="46.2809077" lon="13.1096115"><ele>197.0</ele><time>2026-04-19T09:41:23.171Z</time></trkpt><trkpt lat="46.2808975" lon="13.1097264"><ele>197.0</ele><time>2026-04-19T09:41:24.17Z</time></trkpt><trkpt lat="46.2808903" lon="13.1098514"><ele>196.8</ele><time>2026-04-19T09:41:25.171Z</time></trkpt><trkpt lat="46.2808872" lon="13.109988"><ele>196.6</ele><time>2026-04-19T09:41:26.17Z</time></trkpt><trkpt lat="46.2808798" lon="13.1101183"><ele>196.4</ele><time>2026-04-19T09:41:27.17Z</time></trkpt><trkpt lat="46.2808723" lon="13.1102458"><ele>196.20000000000002</ele><time>2026-04-19T09:41:28.171Z</time></trkpt><trkpt lat="46.2808664" lon="13.1103719"><ele>196.0</ele><time>2026-04-19T09:41:29.171Z</time></trkpt><trkpt lat="46.2808587" lon="13.1105041"><ele>196.0</ele><time>2026-04-19T09:41:30.172Z</time></trkpt><trkpt lat="46.2808532" lon="13.1106419"><ele>196.0</ele><time>2026-04-19T09:41:31.171Z</time></trkpt><trkpt lat="46.2808464" lon="13.1107836"><ele>196.0</ele><time>2026-04-19T09:41:32.171Z</time></trkpt><trkpt lat="46.2808389" lon="13.110929"><ele>196.0</ele><time>2026-04-19T09:41:33.171Z</time></trkpt><trkpt lat="46.2808309" lon="13.1110812"><ele>196.0</ele><time>2026-04-19T09:41:34.17Z</time></trkpt><trkpt lat="46.2808275" lon="13.1112306"><ele>196.0</ele><time>2026-04-19T09:41:35.171Z</time></trkpt><trkpt lat="46.2808298" lon="13.1113772"><ele>196.0</ele><time>2026-04-19T09:41:36.17Z</time></trkpt><trkpt lat="46.2808359" lon="13.1115233"><ele>196.0</ele><time>2026-04-19T09:41:37.17Z</time></trkpt><trkpt lat="46.2808438" lon="13.1116692"><ele>196.0</ele><time>2026-04-19T09:41:38.17Z</time></trkpt><trkpt lat="46.280851" lon="13.1118171"><ele>196.0</ele><time>2026-04-19T09:41:39.17Z</time></trkpt><trkpt lat="46.2808581" lon="13.1119704"><ele>195.8</ele><time>2026-04-19T09:41:40.17Z</time></trkpt><trkpt lat="46.2808647" lon="13.1121252"><ele>195.60000000000002</ele><time>2026-04-19T09:41:41.171Z</time></trkpt><trkpt lat="46.2808713" lon="13.1122821"><ele>195.4</ele><time>2026-04-19T09:41:42.171Z</time></trkpt><trkpt lat="46.2808772" lon="13.1124412"><ele>195.2</ele><time>2026-04-19T09:41:43.171Z</time></trkpt><trkpt lat="46.2808807" lon="13.1126008"><ele>195.0</ele><time>2026-04-19T09:41:44.171Z</time></trkpt><trkpt lat="46.2808812" lon="13.1127637"><ele>195.0</ele><time>2026-04-19T09:41:45.171Z</time></trkpt><trkpt lat="46.2808773" lon="13.1129217"><ele>195.0</ele><time>2026-04-19T09:41:46.17Z</time></trkpt><trkpt lat="46.2808767" lon="13.1130862"><ele>195.0</ele><time>2026-04-19T09:41:47.17Z</time></trkpt><trkpt lat="46.2808746" lon="13.1132526"><ele>195.0</ele><time>2026-04-19T09:41:48.17Z</time></trkpt><trkpt lat="46.2808727" lon="13.1134213"><ele>195.0</ele><time>2026-04-19T09:41:49.17Z</time></trkpt><trkpt lat="46.2808704" lon="13.1135922"><ele>195.0</ele><time>2026-04-19T09:41:50.171Z</time></trkpt><trkpt lat="46.2808701" lon="13.1137627"><ele>195.0</ele><time>2026-04-19T09:41:51.171Z</time></trkpt><trkpt lat="46.2808701" lon="13.113933"><ele>195.0</ele><time>2026-04-19T09:41:52.171Z</time></trkpt><trkpt lat="46.2808639" lon="13.1141049"><ele>195.0</ele><time>2026-04-19T09:41:53.171Z</time></trkpt><trkpt lat="46.2808564" lon="13.1142779"><ele>195.0</ele><time>2026-04-19T09:41:54.171Z</time></trkpt><trkpt lat="46.2808464" lon="13.1144514"><ele>195.0</ele><time>2026-04-19T09:41:55.17Z</time></trkpt><trkpt lat="46.2808354" lon="13.1146291"><ele>195.0</ele><time>2026-04-19T09:41:56.171Z</time></trkpt><trkpt lat="46.2808221" lon="13.114805"><ele>194.5</ele><time>2026-04-19T09:41:57.171Z</time></trkpt><trkpt lat="46.2808114" lon="13.1149803"><ele>194.0</ele><time>2026-04-19T09:41:58.171Z</time></trkpt><trkpt lat="46.2808005" lon="13.115158"><ele>193.5</ele><time>2026-04-19T09:41:59.172Z</time></trkpt><trkpt lat="46.2807913" lon="13.1153344"><ele>193.0</ele><time>2026-04-19T09:42:00.171Z</time></trkpt><trkpt lat="46.2807765" lon="13.115509"><ele>193.0</ele><time>2026-04-19T09:42:01.171Z</time></trkpt><trkpt lat="46.2807609" lon="13.1156831"><ele>193.0</ele><time>2026-04-19T09:42:02.17Z</time></trkpt><trkpt lat="46.2807423" lon="13.1158562"><ele>193.0</ele><time>2026-04-19T09:42:03.171Z</time></trkpt><trkpt lat="46.2807212" lon="13.1160335"><ele>193.0</ele><time>2026-04-19T09:42:04.171Z</time></trkpt><trkpt lat="46.2806965" lon="13.116216"><ele>193.75</ele><time>2026-04-19T09:42:05.17Z</time></trkpt><trkpt lat="46.2806732" lon="13.1164001"><ele>194.5</ele><time>2026-04-19T09:42:06.17Z</time></trkpt><trkpt lat="46.2806526" lon="13.1165839"><ele>195.25</ele><time>2026-04-19T09:42:07.17Z</time></trkpt><trkpt lat="46.2806307" lon="13.1167705"><ele>196.0</ele><time>2026-04-19T09:42:08.171Z</time></trkpt><trkpt lat="46.2806096" lon="13.1169618"><ele>195.75</ele><time>2026-04-19T09:42:09.171Z</time></trkpt><trkpt lat="46.2805864" lon="13.1171549"><ele>195.5</ele><time>2026-04-19T09:42:10.171Z</time></trkpt><trkpt lat="46.2805672" lon="13.1173461"><ele>195.25</ele><time>2026-04-19T09:42:11.17Z</time></trkpt><trkpt lat="46.2805442" lon="13.1175378"><ele>195.0</ele><time>2026-04-19T09:42:12.172Z</time></trkpt><trkpt lat="46.2805217" lon="13.1177287"><ele>195.0</ele><time>2026-04-19T09:42:13.171Z</time></trkpt><trkpt lat="46.2804969" lon="13.1179068"><ele>195.0</ele><time>2026-04-19T09:42:14.17Z</time></trkpt><trkpt lat="46.2804739" lon="13.1180762"><ele>195.0</ele><time>2026-04-19T09:42:15.171Z</time></trkpt><trkpt lat="46.2804523" lon="13.1182362"><ele>195.0</ele><time>2026-04-19T09:42:16.17Z</time></trkpt><trkpt lat="46.2804316" lon="13.1183951"><ele>195.0</ele><time>2026-04-19T09:42:17.171Z</time></trkpt><trkpt lat="46.2804109" lon="13.1185551"><ele>195.0</ele><time>2026-04-19T09:42:18.171Z</time></trkpt><trkpt lat="46.2803869" lon="13.1187191"><ele>195.0</ele><time>2026-04-19T09:42:19.171Z</time></trkpt><trkpt lat="46.2803619" lon="13.1188845"><ele>195.0</ele><time>2026-04-19T09:42:20.171Z</time></trkpt><trkpt lat="46.2803332" lon="13.1190539"><ele>195.0</ele><time>2026-04-19T09:42:21.172Z</time></trkpt><trkpt lat="46.2802988" lon="13.1192218"><ele>195.0</ele><time>2026-04-19T09:42:22.171Z</time></trkpt><trkpt lat="46.2802542" lon="13.1193897"><ele>195.0</ele><time>2026-04-19T09:42:23.171Z</time></trkpt><trkpt lat="46.2802043" lon="13.1195598"><ele>195.0</ele><time>2026-04-19T09:42:24.17Z</time></trkpt><trkpt lat="46.2801549" lon="13.1197269"><ele>195.0</ele><time>2026-04-19T09:42:25.17Z</time></trkpt><trkpt lat="46.2801079" lon="13.1198939"><ele>195.0</ele><time>2026-04-19T09:42:26.171Z</time></trkpt><trkpt lat="46.280061" lon="13.1200628"><ele>195.0</ele><time>2026-04-19T09:42:27.172Z</time></trkpt><trkpt lat="46.2800105" lon="13.1202277"><ele>195.0</ele><time>2026-04-19T09:42:28.17Z</time></trkpt><trkpt lat="46.2799625" lon="13.1203922"><ele>194.75</ele><time>2026-04-19T09:42:29.171Z</time></trkpt><trkpt lat="46.2799128" lon="13.1205507"><ele>194.5</ele><time>2026-04-19T09:42:30.171Z</time></trkpt><trkpt lat="46.2798668" lon="13.1207094"><ele>194.25</ele><time>2026-04-19T09:42:31.171Z</time></trkpt><trkpt lat="46.2798217" lon="13.1208681"><ele>194.0</ele><time>2026-04-19T09:42:32.171Z</time></trkpt><trkpt lat="46.279776" lon="13.1210225"><ele>194.0</ele><time>2026-04-19T09:42:33.171Z</time></trkpt><trkpt lat="46.2797287" lon="13.1211752"><ele>194.0</ele><time>2026-04-19T09:42:34.171Z</time></trkpt><trkpt lat="46.2796823" lon="13.1213273"><ele>194.0</ele><time>2026-04-19T09:42:35.171Z</time></trkpt><trkpt lat="46.279638" lon="13.1214781"><ele>194.0</ele><time>2026-04-19T09:42:36.171Z</time></trkpt><trkpt lat="46.2796032" lon="13.1216343"><ele>194.25</ele><time>2026-04-19T09:42:37.17Z</time></trkpt><trkpt lat="46.2795703" lon="13.1217867"><ele>194.5</ele><time>2026-04-19T09:42:38.171Z</time></trkpt><trkpt lat="46.2795449" lon="13.1219498"><ele>194.75</ele><time>2026-04-19T09:42:39.171Z</time></trkpt><trkpt lat="46.2795238" lon="13.1221133"><ele>195.0</ele><time>2026-04-19T09:42:40.171Z</time></trkpt><trkpt lat="46.2795044" lon="13.1222703"><ele>195.0</ele><time>2026-04-19T09:42:41.171Z</time></trkpt><trkpt lat="46.279487" lon="13.1224164"><ele>195.0</ele><time>2026-04-19T09:42:42.171Z</time></trkpt><trkpt lat="46.2794699" lon="13.1225537"><ele>195.0</ele><time>2026-04-19T09:42:43.171Z</time></trkpt><trkpt lat="46.2794486" lon="13.1226912"><ele>195.0</ele><time>2026-04-19T09:42:44.171Z</time></trkpt><trkpt lat="46.2794194" lon="13.122833"><ele>195.0</ele><time>2026-04-19T09:42:45.172Z</time></trkpt><trkpt lat="46.2793816" lon="13.122977"><ele>195.0</ele><time>2026-04-19T09:42:46.171Z</time></trkpt><trkpt lat="46.2793411" lon="13.1231237"><ele>195.0</ele><time>2026-04-19T09:42:47.171Z</time></trkpt><trkpt lat="46.2792994" lon="13.123276"><ele>195.0</ele><time>2026-04-19T09:42:48.171Z</time></trkpt><trkpt lat="46.279255" lon="13.123428"><ele>195.0</ele><time>2026-04-19T09:42:49.171Z</time></trkpt><trkpt lat="46.2792157" lon="13.1235741"><ele>195.0</ele><time>2026-04-19T09:42:50.171Z</time></trkpt><trkpt lat="46.279174" lon="13.123712"><ele>195.0</ele><time>2026-04-19T09:42:51.17Z</time></trkpt><trkpt lat="46.2791366" lon="13.123844"><ele>195.0</ele><time>2026-04-19T09:42:52.17Z</time></trkpt><trkpt lat="46.2790988" lon="13.1239746"><ele>195.0</ele><time>2026-04-19T09:42:53.17Z</time></trkpt><trkpt lat="46.2790625" lon="13.1240914"><ele>195.0</ele><time>2026-04-19T09:42:54.171Z</time></trkpt><trkpt lat="46.2790183" lon="13.1241877"><ele>195.0</ele><time>2026-04-19T09:42:55.172Z</time></trkpt><trkpt lat="46.278962" lon="13.1242535"><ele>195.0</ele><time>2026-04-19T09:42:56.17Z</time></trkpt><trkpt lat="46.2789155" lon="13.124316"><ele>195.0</ele><time>2026-04-19T09:42:57.171Z</time></trkpt><trkpt lat="46.2789119" lon="13.1245027"><ele>195.0</ele><time>2026-04-19T09:42:59.171Z</time></trkpt><trkpt lat="46.2789567" lon="13.1245997"><ele>195.0</ele><time>2026-04-19T09:43:00.17Z</time></trkpt><trkpt lat="46.2789924" lon="13.1247054"><ele>195.0</ele><time>2026-04-19T09:43:01.17Z</time></trkpt><trkpt lat="46.2790173" lon="13.1248526"><ele>195.0</ele><time>2026-04-19T09:43:02.17Z</time></trkpt><trkpt lat="46.2790265" lon="13.1250098"><ele>195.0</ele><time>2026-04-19T09:43:03.17Z</time></trkpt><trkpt lat="46.2790286" lon="13.125164"><ele>195.0</ele><time>2026-04-19T09:43:04.17Z</time></trkpt><trkpt lat="46.2790298" lon="13.1253396"><ele>195.0</ele><time>2026-04-19T09:43:05.17Z</time></trkpt><trkpt lat="46.2790299" lon="13.1255105"><ele>195.0</ele><time>2026-04-19T09:43:06.169Z</time></trkpt><trkpt lat="46.2790255" lon="13.1256784"><ele>195.2</ele><time>2026-04-19T09:43:07.169Z</time></trkpt><trkpt lat="46.2790239" lon="13.1258355"><ele>195.4</ele><time>2026-04-19T09:43:08.17Z</time></trkpt><trkpt lat="46.2790019" lon="13.1259733"><ele>195.60000000000002</ele><time>2026-04-19T09:43:09.171Z</time></trkpt><trkpt lat="46.2790151" lon="13.1261285"><ele>195.8</ele><time>2026-04-19T09:43:10.169Z</time></trkpt><trkpt lat="46.2790175" lon="13.1262759"><ele>196.0</ele><time>2026-04-19T09:43:11.17Z</time></trkpt><trkpt lat="46.279021" lon="13.1264181"><ele>196.0</ele><time>2026-04-19T09:43:12.17Z</time></trkpt><trkpt lat="46.2790228" lon="13.1265561"><ele>196.0</ele><time>2026-04-19T09:43:13.17Z</time></trkpt><trkpt lat="46.279032" lon="13.1266917"><ele>196.0</ele><time>2026-04-19T09:43:14.17Z</time></trkpt><trkpt lat="46.2790333" lon="13.1268247"><ele>196.0</ele><time>2026-04-19T09:43:15.17Z</time></trkpt><trkpt lat="46.279034" lon="13.1269667"><ele>196.0</ele><time>2026-04-19T09:43:16.169Z</time></trkpt><trkpt lat="46.2790313" lon="13.1270908"><ele>195.83333333333331</ele><time>2026-04-19T09:43:17.17Z</time></trkpt><trkpt lat="46.2790255" lon="13.1272013"><ele>195.66666666666666</ele><time>2026-04-19T09:43:18.171Z</time></trkpt><trkpt lat="46.2790223" lon="13.127312"><ele>195.5</ele><time>2026-04-19T09:43:20.17Z</time></trkpt><trkpt lat="46.2790225" lon="13.1274108"><ele>195.33333333333331</ele><time>2026-04-19T09:43:23.17Z</time></trkpt><trkpt lat="46.2790263" lon="13.1275834"><ele>195.16666666666666</ele><time>2026-04-19T09:43:25.17Z</time></trkpt><trkpt lat="46.2790282" lon="13.1276919"><ele>195.0</ele><time>2026-04-19T09:43:26.17Z</time></trkpt><trkpt lat="46.2790322" lon="13.1278326"><ele>195.0</ele><time>2026-04-19T09:43:27.17Z</time></trkpt><trkpt lat="46.2790418" lon="13.1279855"><ele>195.0</ele><time>2026-04-19T09:43:28.171Z</time></trkpt><trkpt lat="46.2790536" lon="13.1281303"><ele>195.0</ele><time>2026-04-19T09:43:29.17Z</time></trkpt><trkpt lat="46.2790641" lon="13.1282771"><ele>195.0</ele><time>2026-04-19T09:43:30.169Z</time></trkpt><trkpt lat="46.2790729" lon="13.1284265"><ele>195.0</ele><time>2026-04-19T09:43:31.17Z</time></trkpt><trkpt lat="46.2790828" lon="13.1285739"><ele>195.2</ele><time>2026-04-19T09:43:32.17Z</time></trkpt><trkpt lat="46.2790818" lon="13.1287263"><ele>195.4</ele><time>2026-04-19T09:43:33.17Z</time></trkpt><trkpt lat="46.2790715" lon="13.1288729"><ele>195.60000000000002</ele><time>2026-04-19T09:43:34.17Z</time></trkpt><trkpt lat="46.2790473" lon="13.129008"><ele>195.8</ele><time>2026-04-19T09:43:35.17Z</time></trkpt><trkpt lat="46.2790146" lon="13.1291316"><ele>196.0</ele><time>2026-04-19T09:43:36.17Z</time></trkpt><trkpt lat="46.2789835" lon="13.1292384"><ele>198.0</ele><time>2026-04-19T09:43:37.17Z</time></trkpt><trkpt lat="46.2789663" lon="13.1293301"><ele>198.0</ele><time>2026-04-19T09:43:38.17Z</time></trkpt><trkpt lat="46.2789728" lon="13.1294648"><ele>198.0</ele><time>2026-04-19T09:43:40.17Z</time></trkpt><trkpt lat="46.2789966" lon="13.1295811"><ele>198.0</ele><time>2026-04-19T09:43:52.17Z</time></trkpt><trkpt lat="46.279025" lon="13.1296742"><ele>198.0</ele><time>2026-04-19T09:43:54.17Z</time></trkpt><trkpt lat="46.2790534" lon="13.1297566"><ele>198.0</ele><time>2026-04-19T09:43:56.171Z</time></trkpt></trkseg></trk></gpx>